<?xml version='1.0' encoding='UTF-8'?><gpx version="1.1" creator="JPX - https://github.com/jenetics/jpx" xmlns="http://www.topografix.com/GPX/1/1"><trk><trkseg><trkpt lat="43.6725937" lon="10.8893239"><ele>144.0</ele><time>2026-04-18T07:43:43.676Z</time></trkpt><trkpt lat="43.6725776" lon="10.8892171"><ele>144.0</ele><time>2026-04-18T07:43:46.694Z</time></trkpt><trkpt lat="43.6725541" lon="10.8891142"><ele>144.0</ele><time>2026-04-18T07:43:48.66Z</time></trkpt><trkpt lat="43.6724572" lon="10.8891114"><ele>144.0</ele><time>2026-04-18T07:43:51.659Z</time></trkpt><trkpt lat="43.672416" lon="10.8891786"><ele>144.0</ele><time>2026-04-18T07:43:52.656Z</time></trkpt><trkpt lat="43.6723741" lon="10.8892811"><ele>144.0</ele><time>2026-04-18T07:43:53.662Z</time></trkpt><trkpt lat="43.6723271" lon="10.8893647"><ele>144.0</ele><time>2026-04-18T07:43:54.664Z</time></trkpt><trkpt lat="43.6722817" lon="10.8894486"><ele>144.0</ele><time>2026-04-18T07:43:55.664Z</time></trkpt><trkpt lat="43.6722029" lon="10.8895674"><ele>144.0</ele><time>2026-04-18T07:43:57.661Z</time></trkpt><trkpt lat="43.6721525" lon="10.8896398"><ele>144.0</ele><time>2026-04-18T07:43:58.65Z</time></trkpt><trkpt lat="43.6720853" lon="10.8897381"><ele>144.0</ele><time>2026-04-18T07:43:59.649Z</time></trkpt><trkpt lat="43.6720129" lon="10.8898541"><ele>144.0</ele><time>2026-04-18T07:44:00.657Z</time></trkpt><trkpt lat="43.6719482" lon="10.8900139"><ele>144.0</ele><time>2026-04-18T07:44:01.651Z</time></trkpt><trkpt lat="43.6719088" lon="10.8901859"><ele>144.0</ele><time>2026-04-18T07:44:02.658Z</time></trkpt><trkpt lat="43.6718822" lon="10.890351"><ele>144.0</ele><time>2026-04-18T07:44:03.659Z</time></trkpt><trkpt lat="43.6718586" lon="10.890509"><ele>142.5</ele><time>2026-04-18T07:44:04.671Z</time></trkpt><trkpt lat="43.6718512" lon="10.8906822"><ele>141.0</ele><time>2026-04-18T07:44:05.662Z</time></trkpt><trkpt lat="43.6718464" lon="10.8908587"><ele>139.5</ele><time>2026-04-18T07:44:06.667Z</time></trkpt><trkpt lat="43.6718389" lon="10.8910505"><ele>138.0</ele><time>2026-04-18T07:44:07.665Z</time></trkpt><trkpt lat="43.6718271" lon="10.8912631"><ele>138.0</ele><time>2026-04-18T07:44:08.668Z</time></trkpt><trkpt lat="43.6718153" lon="10.8914878"><ele>138.0</ele><time>2026-04-18T07:44:09.67Z</time></trkpt><trkpt lat="43.6717826" lon="10.8917062"><ele>138.0</ele><time>2026-04-18T07:44:10.671Z</time></trkpt><trkpt lat="43.6717483" lon="10.8918928"><ele>137.25</ele><time>2026-04-18T07:44:11.668Z</time></trkpt><trkpt lat="43.6716775" lon="10.8920574"><ele>136.5</ele><time>2026-04-18T07:44:12.664Z</time></trkpt><trkpt lat="43.6716106" lon="10.8922097"><ele>135.75</ele><time>2026-04-18T07:44:13.673Z</time></trkpt><trkpt lat="43.6715372" lon="10.89236"><ele>135.0</ele><time>2026-04-18T07:44:14.679Z</time></trkpt><trkpt lat="43.6714496" lon="10.8924978"><ele>135.5</ele><time>2026-04-18T07:44:15.672Z</time></trkpt><trkpt lat="43.671334" lon="10.8926347"><ele>136.0</ele><time>2026-04-18T07:44:16.678Z</time></trkpt><trkpt lat="43.6712384" lon="10.8927803"><ele>136.5</ele><time>2026-04-18T07:44:17.692Z</time></trkpt><trkpt lat="43.6711582" lon="10.8929223"><ele>137.0</ele><time>2026-04-18T07:44:18.679Z</time></trkpt><trkpt lat="43.6710703" lon="10.8930715"><ele>137.0</ele><time>2026-04-18T07:44:19.678Z</time></trkpt><trkpt lat="43.6709858" lon="10.8932279"><ele>137.0</ele><time>2026-04-18T07:44:20.684Z</time></trkpt><trkpt lat="43.6708851" lon="10.8934043"><ele>137.0</ele><time>2026-04-18T07:44:21.687Z</time></trkpt><trkpt lat="43.6707865" lon="10.8935604"><ele>136.66666666666666</ele><time>2026-04-18T07:44:22.674Z</time></trkpt><trkpt lat="43.6706838" lon="10.8937285"><ele>136.33333333333334</ele><time>2026-04-18T07:44:23.684Z</time></trkpt><trkpt lat="43.6705974" lon="10.8938992"><ele>136.0</ele><time>2026-04-18T07:44:24.69Z</time></trkpt><trkpt lat="43.670517" lon="10.8940693"><ele>136.0</ele><time>2026-04-18T07:44:25.682Z</time></trkpt><trkpt lat="43.6704284" lon="10.8942293"><ele>136.0</ele><time>2026-04-18T07:44:26.687Z</time></trkpt><trkpt lat="43.6703488" lon="10.8943839"><ele>136.0</ele><time>2026-04-18T07:44:27.685Z</time></trkpt><trkpt lat="43.6702666" lon="10.8945457"><ele>136.0</ele><time>2026-04-18T07:44:28.687Z</time></trkpt><trkpt lat="43.6701905" lon="10.8947161"><ele>139.5</ele><time>2026-04-18T07:44:29.682Z</time></trkpt><trkpt lat="43.6701129" lon="10.8948806"><ele>143.0</ele><time>2026-04-18T07:44:30.687Z</time></trkpt><trkpt lat="43.6700514" lon="10.8950671"><ele>146.5</ele><time>2026-04-18T07:44:31.685Z</time></trkpt><trkpt lat="43.669991" lon="10.8952339"><ele>150.0</ele><time>2026-04-18T07:44:32.681Z</time></trkpt><trkpt lat="43.6699022" lon="10.8953715"><ele>150.0</ele><time>2026-04-18T07:44:33.681Z</time></trkpt><trkpt lat="43.6697849" lon="10.8955018"><ele>150.0</ele><time>2026-04-18T07:44:34.677Z</time></trkpt><trkpt lat="43.6696939" lon="10.8956634"><ele>150.0</ele><time>2026-04-18T07:44:35.667Z</time></trkpt><trkpt lat="43.669596" lon="10.8958006"><ele>150.0</ele><time>2026-04-18T07:44:36.651Z</time></trkpt><trkpt lat="43.669462" lon="10.8959262"><ele>149.25</ele><time>2026-04-18T07:44:37.653Z</time></trkpt><trkpt lat="43.6693427" lon="10.8960387"><ele>148.5</ele><time>2026-04-18T07:44:38.654Z</time></trkpt><trkpt lat="43.6692255" lon="10.896155"><ele>147.75</ele><time>2026-04-18T07:44:39.653Z</time></trkpt><trkpt lat="43.6690981" lon="10.8962585"><ele>147.0</ele><time>2026-04-18T07:44:40.655Z</time></trkpt><trkpt lat="43.6689695" lon="10.896359"><ele>147.0</ele><time>2026-04-18T07:44:41.658Z</time></trkpt><trkpt lat="43.6688324" lon="10.8965135"><ele>147.0</ele><time>2026-04-18T07:44:42.661Z</time></trkpt><trkpt lat="43.6686782" lon="10.8966319"><ele>147.0</ele><time>2026-04-18T07:44:43.639Z</time></trkpt><trkpt lat="43.6685119" lon="10.8967632"><ele>140.66666666666666</ele><time>2026-04-18T07:44:44.635Z</time></trkpt><trkpt lat="43.6683636" lon="10.8968808"><ele>134.33333333333331</ele><time>2026-04-18T07:44:45.646Z</time></trkpt><trkpt lat="43.6682113" lon="10.8969793"><ele>128.0</ele><time>2026-04-18T07:44:46.652Z</time></trkpt><trkpt lat="43.6680626" lon="10.8970741"><ele>128.0</ele><time>2026-04-18T07:44:47.656Z</time></trkpt><trkpt lat="43.6679079" lon="10.8971495"><ele>128.0</ele><time>2026-04-18T07:44:48.668Z</time></trkpt><trkpt lat="43.6677428" lon="10.8971936"><ele>128.0</ele><time>2026-04-18T07:44:49.655Z</time></trkpt><trkpt lat="43.6675719" lon="10.8972323"><ele>128.66666666666666</ele><time>2026-04-18T07:44:50.656Z</time></trkpt><trkpt lat="43.6674024" lon="10.8972631"><ele>129.33333333333334</ele><time>2026-04-18T07:44:51.658Z</time></trkpt><trkpt lat="43.6672305" lon="10.8972719"><ele>130.0</ele><time>2026-04-18T07:44:52.663Z</time></trkpt><trkpt lat="43.6670683" lon="10.8972693"><ele>129.33333333333334</ele><time>2026-04-18T07:44:53.666Z</time></trkpt><trkpt lat="43.6669083" lon="10.8972844"><ele>128.66666666666666</ele><time>2026-04-18T07:44:54.668Z</time></trkpt><trkpt lat="43.6667531" lon="10.8973126"><ele>128.0</ele><time>2026-04-18T07:44:55.666Z</time></trkpt><trkpt lat="43.6665975" lon="10.8973454"><ele>128.0</ele><time>2026-04-18T07:44:56.669Z</time></trkpt><trkpt lat="43.6664524" lon="10.8974056"><ele>128.0</ele><time>2026-04-18T07:44:57.664Z</time></trkpt><trkpt lat="43.6663035" lon="10.8974429"><ele>128.0</ele><time>2026-04-18T07:44:58.661Z</time></trkpt><trkpt lat="43.6661465" lon="10.8975013"><ele>129.0</ele><time>2026-04-18T07:44:59.656Z</time></trkpt><trkpt lat="43.6659817" lon="10.8975501"><ele>130.0</ele><time>2026-04-18T07:45:00.668Z</time></trkpt><trkpt lat="43.6658287" lon="10.8976039"><ele>131.0</ele><time>2026-04-18T07:45:01.666Z</time></trkpt><trkpt lat="43.6656934" lon="10.8976716"><ele>131.0</ele><time>2026-04-18T07:45:02.663Z</time></trkpt><trkpt lat="43.6655481" lon="10.8977375"><ele>131.0</ele><time>2026-04-18T07:45:03.668Z</time></trkpt><trkpt lat="43.6654057" lon="10.8978271"><ele>131.0</ele><time>2026-04-18T07:45:04.665Z</time></trkpt><trkpt lat="43.6652495" lon="10.8979097"><ele>132.66666666666666</ele><time>2026-04-18T07:45:05.662Z</time></trkpt><trkpt lat="43.6650923" lon="10.8979864"><ele>134.33333333333334</ele><time>2026-04-18T07:45:06.663Z</time></trkpt><trkpt lat="43.664931" lon="10.8980602"><ele>136.0</ele><time>2026-04-18T07:45:07.666Z</time></trkpt><trkpt lat="43.6647748" lon="10.898131"><ele>136.0</ele><time>2026-04-18T07:45:08.665Z</time></trkpt><trkpt lat="43.6646318" lon="10.8982051"><ele>136.0</ele><time>2026-04-18T07:45:09.661Z</time></trkpt><trkpt lat="43.6645007" lon="10.8982782"><ele>136.0</ele><time>2026-04-18T07:45:10.669Z</time></trkpt><trkpt lat="43.6643568" lon="10.8983366"><ele>136.0</ele><time>2026-04-18T07:45:11.664Z</time></trkpt><trkpt lat="43.6642098" lon="10.8984088"><ele>139.0</ele><time>2026-04-18T07:45:12.665Z</time></trkpt><trkpt lat="43.6640554" lon="10.8984831"><ele>142.0</ele><time>2026-04-18T07:45:13.667Z</time></trkpt><trkpt lat="43.66391" lon="10.8985489"><ele>145.0</ele><time>2026-04-18T07:45:14.663Z</time></trkpt><trkpt lat="43.6637681" lon="10.8986264"><ele>145.0</ele><time>2026-04-18T07:45:15.663Z</time></trkpt><trkpt lat="43.6636354" lon="10.8986867"><ele>145.0</ele><time>2026-04-18T07:45:16.664Z</time></trkpt><trkpt lat="43.6634957" lon="10.8987244"><ele>145.0</ele><time>2026-04-18T07:45:17.647Z</time></trkpt><trkpt lat="43.6633562" lon="10.8987502"><ele>145.0</ele><time>2026-04-18T07:45:18.665Z</time></trkpt><trkpt lat="43.663228" lon="10.8987909"><ele>144.33333333333334</ele><time>2026-04-18T07:45:19.68Z</time></trkpt><trkpt lat="43.6630819" lon="10.8988119"><ele>143.66666666666666</ele><time>2026-04-18T07:45:20.668Z</time></trkpt><trkpt lat="43.6629244" lon="10.8988141"><ele>143.0</ele><time>2026-04-18T07:45:21.66Z</time></trkpt><trkpt lat="43.6627684" lon="10.8987991"><ele>143.0</ele><time>2026-04-18T07:45:22.659Z</time></trkpt><trkpt lat="43.6626137" lon="10.8987766"><ele>143.0</ele><time>2026-04-18T07:45:23.663Z</time></trkpt><trkpt lat="43.6624675" lon="10.8987638"><ele>143.0</ele><time>2026-04-18T07:45:24.656Z</time></trkpt><trkpt lat="43.6623186" lon="10.8987675"><ele>143.0</ele><time>2026-04-18T07:45:25.659Z</time></trkpt><trkpt lat="43.6621769" lon="10.8987748"><ele>143.0</ele><time>2026-04-18T07:45:26.656Z</time></trkpt><trkpt lat="43.6620245" lon="10.8987806"><ele>143.0</ele><time>2026-04-18T07:45:27.66Z</time></trkpt><trkpt lat="43.6618709" lon="10.8987774"><ele>143.0</ele><time>2026-04-18T07:45:28.648Z</time></trkpt><trkpt lat="43.6617231" lon="10.8987848"><ele>143.0</ele><time>2026-04-18T07:45:29.65Z</time></trkpt><trkpt lat="43.6615873" lon="10.8988071"><ele>143.0</ele><time>2026-04-18T07:45:30.658Z</time></trkpt><trkpt lat="43.6614516" lon="10.898836"><ele>143.0</ele><time>2026-04-18T07:45:31.66Z</time></trkpt><trkpt lat="43.6613072" lon="10.8988612"><ele>143.0</ele><time>2026-04-18T07:45:32.663Z</time></trkpt><trkpt lat="43.6611831" lon="10.8989024"><ele>143.0</ele><time>2026-04-18T07:45:33.668Z</time></trkpt><trkpt lat="43.6610593" lon="10.8989488"><ele>143.0</ele><time>2026-04-18T07:45:34.668Z</time></trkpt><trkpt lat="43.6609321" lon="10.899005"><ele>143.0</ele><time>2026-04-18T07:45:35.677Z</time></trkpt><trkpt lat="43.6608003" lon="10.8990668"><ele>143.0</ele><time>2026-04-18T07:45:36.669Z</time></trkpt><trkpt lat="43.6606838" lon="10.8991112"><ele>143.0</ele><time>2026-04-18T07:45:37.668Z</time></trkpt><trkpt lat="43.6605696" lon="10.8991606"><ele>143.0</ele><time>2026-04-18T07:45:38.67Z</time></trkpt><trkpt lat="43.6604655" lon="10.8992013"><ele>143.0</ele><time>2026-04-18T07:45:39.664Z</time></trkpt><trkpt lat="43.6603672" lon="10.8992373"><ele>143.0</ele><time>2026-04-18T07:45:40.671Z</time></trkpt><trkpt lat="43.660285" lon="10.8992696"><ele>143.0</ele><time>2026-04-18T07:45:41.666Z</time></trkpt><trkpt lat="43.6602" lon="10.899309"><ele>141.0</ele><time>2026-04-18T07:45:42.669Z</time></trkpt><trkpt lat="43.6601155" lon="10.8993574"><ele>139.0</ele><time>2026-04-18T07:45:43.663Z</time></trkpt><trkpt lat="43.6600318" lon="10.899419"><ele>137.0</ele><time>2026-04-18T07:45:44.649Z</time></trkpt><trkpt lat="43.6599627" lon="10.8995114"><ele>135.0</ele><time>2026-04-18T07:45:45.648Z</time></trkpt><trkpt lat="43.6599167" lon="10.8996191"><ele>133.0</ele><time>2026-04-18T07:45:46.654Z</time></trkpt><trkpt lat="43.6598822" lon="10.8997442"><ele>133.0</ele><time>2026-04-18T07:45:47.65Z</time></trkpt><trkpt lat="43.6598636" lon="10.8998716"><ele>133.0</ele><time>2026-04-18T07:45:48.64Z</time></trkpt><trkpt lat="43.6598738" lon="10.8999938"><ele>133.0</ele><time>2026-04-18T07:45:49.641Z</time></trkpt><trkpt lat="43.6599054" lon="10.9001072"><ele>133.0</ele><time>2026-04-18T07:45:50.647Z</time></trkpt><trkpt lat="43.6599523" lon="10.9002029"><ele>133.0</ele><time>2026-04-18T07:45:51.636Z</time></trkpt><trkpt lat="43.659993" lon="10.9002693"><ele>133.0</ele><time>2026-04-18T07:45:52.637Z</time></trkpt><trkpt lat="43.6600432" lon="10.9003557"><ele>133.0</ele><time>2026-04-18T07:45:54.632Z</time></trkpt><trkpt lat="43.6600154" lon="10.9004586"><ele>133.0</ele><time>2026-04-18T07:45:57.639Z</time></trkpt><trkpt lat="43.6599486" lon="10.9004369"><ele>133.0</ele><time>2026-04-18T07:45:59.645Z</time></trkpt><trkpt lat="43.6598706" lon="10.9003174"><ele>133.0</ele><time>2026-04-18T07:46:01.653Z</time></trkpt><trkpt lat="43.6598105" lon="10.9002235"><ele>133.0</ele><time>2026-04-18T07:46:02.644Z</time></trkpt><trkpt lat="43.6597549" lon="10.9001384"><ele>133.0</ele><time>2026-04-18T07:46:03.647Z</time></trkpt><trkpt lat="43.6597032" lon="10.9000597"><ele>133.0</ele><time>2026-04-18T07:46:04.646Z</time></trkpt><trkpt lat="43.6596503" lon="10.9000065"><ele>133.0</ele><time>2026-04-18T07:46:05.65Z</time></trkpt><trkpt lat="43.6596005" lon="10.8999464"><ele>133.0</ele><time>2026-04-18T07:46:06.646Z</time></trkpt><trkpt lat="43.6595139" lon="10.8998326"><ele>133.0</ele><time>2026-04-18T07:46:08.652Z</time></trkpt><trkpt lat="43.6594542" lon="10.8997792"><ele>133.0</ele><time>2026-04-18T07:46:09.651Z</time></trkpt><trkpt lat="43.6593949" lon="10.8997287"><ele>133.0</ele><time>2026-04-18T07:46:10.655Z</time></trkpt><trkpt lat="43.6593344" lon="10.8996927"><ele>130.20000000000002</ele><time>2026-04-18T07:46:11.659Z</time></trkpt><trkpt lat="43.6592614" lon="10.8996715"><ele>127.4</ele><time>2026-04-18T07:46:12.659Z</time></trkpt><trkpt lat="43.6591763" lon="10.8996354"><ele>124.60000000000001</ele><time>2026-04-18T07:46:13.667Z</time></trkpt><trkpt lat="43.6590812" lon="10.8996122"><ele>121.80000000000001</ele><time>2026-04-18T07:46:14.661Z</time></trkpt><trkpt lat="43.6589786" lon="10.8995941"><ele>119.0</ele><time>2026-04-18T07:46:15.664Z</time></trkpt><trkpt lat="43.6588743" lon="10.899585"><ele>119.0</ele><time>2026-04-18T07:46:16.663Z</time></trkpt><trkpt lat="43.6587686" lon="10.8995859"><ele>119.0</ele><time>2026-04-18T07:46:17.665Z</time></trkpt><trkpt lat="43.6586707" lon="10.8995864"><ele>119.0</ele><time>2026-04-18T07:46:18.667Z</time></trkpt><trkpt lat="43.6585787" lon="10.8995897"><ele>119.0</ele><time>2026-04-18T07:46:19.668Z</time></trkpt><trkpt lat="43.6584762" lon="10.8996014"><ele>119.0</ele><time>2026-04-18T07:46:20.671Z</time></trkpt><trkpt lat="43.6583826" lon="10.8996063"><ele>117.85714285714286</ele><time>2026-04-18T07:46:21.684Z</time></trkpt><trkpt lat="43.6582941" lon="10.8996043"><ele>116.71428571428572</ele><time>2026-04-18T07:46:22.671Z</time></trkpt><trkpt lat="43.658223" lon="10.8996011"><ele>115.57142857142857</ele><time>2026-04-18T07:46:23.665Z</time></trkpt><trkpt lat="43.6581516" lon="10.8995852"><ele>114.42857142857143</ele><time>2026-04-18T07:46:24.668Z</time></trkpt><trkpt lat="43.6580814" lon="10.8995581"><ele>113.28571428571429</ele><time>2026-04-18T07:46:25.669Z</time></trkpt><trkpt lat="43.6580158" lon="10.8995274"><ele>112.14285714285714</ele><time>2026-04-18T07:46:26.661Z</time></trkpt><trkpt lat="43.6579476" lon="10.8994902"><ele>111.0</ele><time>2026-04-18T07:46:27.667Z</time></trkpt><trkpt lat="43.6578758" lon="10.8994477"><ele>111.0</ele><time>2026-04-18T07:46:28.669Z</time></trkpt><trkpt lat="43.6577997" lon="10.8994153"><ele>111.0</ele><time>2026-04-18T07:46:29.664Z</time></trkpt><trkpt lat="43.6577211" lon="10.899392"><ele>111.0</ele><time>2026-04-18T07:46:30.655Z</time></trkpt><trkpt lat="43.6576514" lon="10.899425"><ele>111.0</ele><time>2026-04-18T07:46:31.666Z</time></trkpt><trkpt lat="43.6575786" lon="10.8994846"><ele>111.0</ele><time>2026-04-18T07:46:32.649Z</time></trkpt><trkpt lat="43.6574959" lon="10.8995661"><ele>111.0</ele><time>2026-04-18T07:46:33.666Z</time></trkpt><trkpt lat="43.6574014" lon="10.8996816"><ele>112.75</ele><time>2026-04-18T07:46:34.656Z</time></trkpt><trkpt lat="43.6573077" lon="10.8997886"><ele>114.5</ele><time>2026-04-18T07:46:35.655Z</time></trkpt><trkpt lat="43.6572137" lon="10.8999006"><ele>116.25</ele><time>2026-04-18T07:46:36.648Z</time></trkpt><trkpt lat="43.6571171" lon="10.8999969"><ele>118.0</ele><time>2026-04-18T07:46:37.64Z</time></trkpt><trkpt lat="43.6570371" lon="10.9000766"><ele>117.50000000000001</ele><time>2026-04-18T07:46:38.644Z</time></trkpt><trkpt lat="43.6569609" lon="10.9001535"><ele>117.0</ele><time>2026-04-18T07:46:39.644Z</time></trkpt><trkpt lat="43.6568986" lon="10.9002274"><ele>116.5</ele><time>2026-04-18T07:46:40.656Z</time></trkpt><trkpt lat="43.6568298" lon="10.90031"><ele>116.0</ele><time>2026-04-18T07:46:41.646Z</time></trkpt><trkpt lat="43.6567623" lon="10.9003807"><ele>115.50000000000001</ele><time>2026-04-18T07:46:42.648Z</time></trkpt><trkpt lat="43.6566926" lon="10.900428"><ele>115.0</ele><time>2026-04-18T07:46:43.645Z</time></trkpt><trkpt lat="43.6566145" lon="10.9004573"><ele>115.00000000000001</ele><time>2026-04-18T07:46:44.638Z</time></trkpt><trkpt lat="43.656529" lon="10.9004656"><ele>115.0</ele><time>2026-04-18T07:46:45.63Z</time></trkpt><trkpt lat="43.656437" lon="10.9004648"><ele>115.0</ele><time>2026-04-18T07:46:46.652Z</time></trkpt><trkpt lat="43.656339" lon="10.9004625"><ele>115.0</ele><time>2026-04-18T07:46:47.648Z</time></trkpt><trkpt lat="43.6562577" lon="10.9004676"><ele>115.00000000000001</ele><time>2026-04-18T07:46:48.644Z</time></trkpt><trkpt lat="43.656183" lon="10.9005058"><ele>115.0</ele><time>2026-04-18T07:46:49.643Z</time></trkpt><trkpt lat="43.6561096" lon="10.9005744"><ele>116.2</ele><time>2026-04-18T07:46:50.637Z</time></trkpt><trkpt lat="43.6560391" lon="10.900683"><ele>117.4</ele><time>2026-04-18T07:46:51.641Z</time></trkpt><trkpt lat="43.6559651" lon="10.9008049"><ele>118.6</ele><time>2026-04-18T07:46:52.659Z</time></trkpt><trkpt lat="43.6558896" lon="10.9009111"><ele>119.8</ele><time>2026-04-18T07:46:53.649Z</time></trkpt><trkpt lat="43.655807" lon="10.9009999"><ele>121.0</ele><time>2026-04-18T07:46:54.645Z</time></trkpt><trkpt lat="43.6557156" lon="10.9010598"><ele>121.0</ele><time>2026-04-18T07:46:55.64Z</time></trkpt><trkpt lat="43.655629" lon="10.9011117"><ele>121.0</ele><time>2026-04-18T07:46:56.651Z</time></trkpt><trkpt lat="43.6555261" lon="10.9011177"><ele>121.0</ele><time>2026-04-18T07:46:57.657Z</time></trkpt><trkpt lat="43.6554147" lon="10.9010985"><ele>121.0</ele><time>2026-04-18T07:46:58.658Z</time></trkpt><trkpt lat="43.6552984" lon="10.9010493"><ele>121.0</ele><time>2026-04-18T07:46:59.656Z</time></trkpt><trkpt lat="43.6551737" lon="10.9010099"><ele>123.0</ele><time>2026-04-18T07:47:00.673Z</time></trkpt><trkpt lat="43.6550696" lon="10.9009998"><ele>125.0</ele><time>2026-04-18T07:47:01.671Z</time></trkpt><trkpt lat="43.6549713" lon="10.9009873"><ele>127.0</ele><time>2026-04-18T07:47:02.669Z</time></trkpt><trkpt lat="43.6548703" lon="10.900974"><ele>129.0</ele><time>2026-04-18T07:47:03.66Z</time></trkpt><trkpt lat="43.6547642" lon="10.9009828"><ele>131.0</ele><time>2026-04-18T07:47:04.652Z</time></trkpt><trkpt lat="43.6546574" lon="10.9010171"><ele>131.0</ele><time>2026-04-18T07:47:05.666Z</time></trkpt><trkpt lat="43.6545425" lon="10.9010587"><ele>131.0</ele><time>2026-04-18T07:47:06.662Z</time></trkpt><trkpt lat="43.6544279" lon="10.9011044"><ele>131.0</ele><time>2026-04-18T07:47:07.668Z</time></trkpt><trkpt lat="43.6543126" lon="10.9011423"><ele>131.0</ele><time>2026-04-18T07:47:08.666Z</time></trkpt><trkpt lat="43.6542047" lon="10.9011762"><ele>132.0</ele><time>2026-04-18T07:47:09.669Z</time></trkpt><trkpt lat="43.6540967" lon="10.9012186"><ele>133.0</ele><time>2026-04-18T07:47:10.672Z</time></trkpt><trkpt lat="43.653992" lon="10.9012578"><ele>134.0</ele><time>2026-04-18T07:47:11.67Z</time></trkpt><trkpt lat="43.6538801" lon="10.9012893"><ele>135.0</ele><time>2026-04-18T07:47:12.674Z</time></trkpt><trkpt lat="43.6537624" lon="10.9013221"><ele>135.0</ele><time>2026-04-18T07:47:13.67Z</time></trkpt><trkpt lat="43.653647" lon="10.9013511"><ele>135.0</ele><time>2026-04-18T07:47:14.67Z</time></trkpt><trkpt lat="43.6535414" lon="10.9013804"><ele>135.0</ele><time>2026-04-18T07:47:15.67Z</time></trkpt><trkpt lat="43.6534489" lon="10.9014139"><ele>135.0</ele><time>2026-04-18T07:47:16.67Z</time></trkpt><trkpt lat="43.6533585" lon="10.9014445"><ele>135.0</ele><time>2026-04-18T07:47:17.674Z</time></trkpt><trkpt lat="43.6532585" lon="10.9014717"><ele>135.83333333333334</ele><time>2026-04-18T07:47:18.671Z</time></trkpt><trkpt lat="43.6531746" lon="10.9015023"><ele>136.66666666666666</ele><time>2026-04-18T07:47:19.67Z</time></trkpt><trkpt lat="43.6530937" lon="10.9015184"><ele>137.5</ele><time>2026-04-18T07:47:20.676Z</time></trkpt><trkpt lat="43.653014" lon="10.9015396"><ele>138.33333333333331</ele><time>2026-04-18T07:47:21.674Z</time></trkpt><trkpt lat="43.6529406" lon="10.901556"><ele>139.16666666666666</ele><time>2026-04-18T07:47:22.674Z</time></trkpt><trkpt lat="43.6528672" lon="10.9015797"><ele>140.0</ele><time>2026-04-18T07:47:23.689Z</time></trkpt><trkpt lat="43.6527922" lon="10.9015933"><ele>139.83333333333331</ele><time>2026-04-18T07:47:24.673Z</time></trkpt><trkpt lat="43.6527108" lon="10.9016068"><ele>139.66666666666666</ele><time>2026-04-18T07:47:25.671Z</time></trkpt><trkpt lat="43.6526232" lon="10.9016238"><ele>139.5</ele><time>2026-04-18T07:47:26.666Z</time></trkpt><trkpt lat="43.6525382" lon="10.9016468"><ele>139.33333333333334</ele><time>2026-04-18T07:47:27.67Z</time></trkpt><trkpt lat="43.6524576" lon="10.9016508"><ele>139.16666666666669</ele><time>2026-04-18T07:47:28.662Z</time></trkpt><trkpt lat="43.652394" lon="10.9016435"><ele>139.0</ele><time>2026-04-18T07:47:29.668Z</time></trkpt><trkpt lat="43.6523278" lon="10.90162"><ele>139.0</ele><time>2026-04-18T07:47:30.656Z</time></trkpt><trkpt lat="43.6522585" lon="10.9015963"><ele>139.0</ele><time>2026-04-18T07:47:31.655Z</time></trkpt><trkpt lat="43.6521988" lon="10.9015446"><ele>139.0</ele><time>2026-04-18T07:47:32.652Z</time></trkpt><trkpt lat="43.6521476" lon="10.9014733"><ele>139.0</ele><time>2026-04-18T07:47:33.663Z</time></trkpt><trkpt lat="43.6520907" lon="10.9013671"><ele>139.0</ele><time>2026-04-18T07:47:34.661Z</time></trkpt><trkpt lat="43.6520345" lon="10.9012391"><ele>139.0</ele><time>2026-04-18T07:47:35.647Z</time></trkpt><trkpt lat="43.6519931" lon="10.9011108"><ele>139.0</ele><time>2026-04-18T07:47:36.649Z</time></trkpt><trkpt lat="43.6519669" lon="10.9009946"><ele>139.0</ele><time>2026-04-18T07:47:37.658Z</time></trkpt><trkpt lat="43.651952" lon="10.90088"><ele>139.0</ele><time>2026-04-18T07:47:38.667Z</time></trkpt><trkpt lat="43.6519286" lon="10.9007598"><ele>139.0</ele><time>2026-04-18T07:47:39.664Z</time></trkpt><trkpt lat="43.6518996" lon="10.9006403"><ele>139.0</ele><time>2026-04-18T07:47:40.664Z</time></trkpt><trkpt lat="43.6518648" lon="10.9005229"><ele>139.0</ele><time>2026-04-18T07:47:41.665Z</time></trkpt><trkpt lat="43.6518258" lon="10.9003999"><ele>138.83333333333334</ele><time>2026-04-18T07:47:42.666Z</time></trkpt><trkpt lat="43.651784" lon="10.9002875"><ele>138.66666666666669</ele><time>2026-04-18T07:47:43.662Z</time></trkpt><trkpt lat="43.6517457" lon="10.900188"><ele>138.5</ele><time>2026-04-18T07:47:44.665Z</time></trkpt><trkpt lat="43.6517038" lon="10.9000887"><ele>138.33333333333334</ele><time>2026-04-18T07:47:45.663Z</time></trkpt><trkpt lat="43.651669" lon="10.899983"><ele>138.16666666666666</ele><time>2026-04-18T07:47:46.658Z</time></trkpt><trkpt lat="43.6516392" lon="10.8998629"><ele>138.0</ele><time>2026-04-18T07:47:47.66Z</time></trkpt><trkpt lat="43.6516226" lon="10.8997435"><ele>138.0</ele><time>2026-04-18T07:47:48.666Z</time></trkpt><trkpt lat="43.6516002" lon="10.899616"><ele>138.0</ele><time>2026-04-18T07:47:49.66Z</time></trkpt><trkpt lat="43.6515898" lon="10.8995053"><ele>138.0</ele><time>2026-04-18T07:47:50.662Z</time></trkpt><trkpt lat="43.6515807" lon="10.899408"><ele>138.0</ele><time>2026-04-18T07:47:51.661Z</time></trkpt><trkpt lat="43.6515781" lon="10.8993078"><ele>138.0</ele><time>2026-04-18T07:47:52.663Z</time></trkpt><trkpt lat="43.65158" lon="10.8992007"><ele>138.0</ele><time>2026-04-18T07:47:53.656Z</time></trkpt><trkpt lat="43.6516072" lon="10.899093"><ele>138.14285714285714</ele><time>2026-04-18T07:47:54.674Z</time></trkpt><trkpt lat="43.651634" lon="10.8990118"><ele>138.2857142857143</ele><time>2026-04-18T07:47:55.65Z</time></trkpt><trkpt lat="43.6516853" lon="10.8989497"><ele>138.42857142857144</ele><time>2026-04-18T07:47:56.652Z</time></trkpt><trkpt lat="43.6517303" lon="10.8988882"><ele>138.57142857142858</ele><time>2026-04-18T07:47:57.651Z</time></trkpt><trkpt lat="43.651795" lon="10.8988367"><ele>138.71428571428572</ele><time>2026-04-18T07:47:58.66Z</time></trkpt><trkpt lat="43.6518733" lon="10.8987737"><ele>138.85714285714286</ele><time>2026-04-18T07:47:59.661Z</time></trkpt><trkpt lat="43.6519352" lon="10.8987074"><ele>139.0</ele><time>2026-04-18T07:48:00.663Z</time></trkpt><trkpt lat="43.6520016" lon="10.8986302"><ele>139.5</ele><time>2026-04-18T07:48:01.655Z</time></trkpt><trkpt lat="43.6520588" lon="10.8985577"><ele>140.0</ele><time>2026-04-18T07:48:02.65Z</time></trkpt><trkpt lat="43.652108" lon="10.8984829"><ele>140.5</ele><time>2026-04-18T07:48:03.656Z</time></trkpt><trkpt lat="43.6521518" lon="10.8983979"><ele>141.0</ele><time>2026-04-18T07:48:04.666Z</time></trkpt><trkpt lat="43.6521771" lon="10.8983054"><ele>141.5</ele><time>2026-04-18T07:48:05.651Z</time></trkpt><trkpt lat="43.6521635" lon="10.8981536"><ele>142.0</ele><time>2026-04-18T07:48:07.655Z</time></trkpt><trkpt lat="43.6520918" lon="10.8980401"><ele>142.0</ele><time>2026-04-18T07:48:09.653Z</time></trkpt><trkpt lat="43.6520408" lon="10.8979697"><ele>142.0</ele><time>2026-04-18T07:48:10.652Z</time></trkpt><trkpt lat="43.6519615" lon="10.8978951"><ele>142.0</ele><time>2026-04-18T07:48:11.654Z</time></trkpt><trkpt lat="43.651866" lon="10.8978404"><ele>142.0</ele><time>2026-04-18T07:48:12.652Z</time></trkpt><trkpt lat="43.6517709" lon="10.8977992"><ele>142.0</ele><time>2026-04-18T07:48:13.66Z</time></trkpt><trkpt lat="43.6516774" lon="10.8977768"><ele>142.4</ele><time>2026-04-18T07:48:14.658Z</time></trkpt><trkpt lat="43.6515875" lon="10.8977716"><ele>142.79999999999998</ele><time>2026-04-18T07:48:15.65Z</time></trkpt><trkpt lat="43.6515008" lon="10.8977526"><ele>143.2</ele><time>2026-04-18T07:48:16.657Z</time></trkpt><trkpt lat="43.6514399" lon="10.897728"><ele>143.6</ele><time>2026-04-18T07:48:17.648Z</time></trkpt><trkpt lat="43.651379" lon="10.8976787"><ele>144.0</ele><time>2026-04-18T07:48:18.646Z</time></trkpt><trkpt lat="43.6512735" lon="10.8975421"><ele>145.5</ele><time>2026-04-18T07:48:20.658Z</time></trkpt><trkpt lat="43.6512152" lon="10.8974507"><ele>147.0</ele><time>2026-04-18T07:48:21.662Z</time></trkpt><trkpt lat="43.6511629" lon="10.89737"><ele>148.5</ele><time>2026-04-18T07:48:22.664Z</time></trkpt><trkpt lat="43.6511153" lon="10.8972867"><ele>150.0</ele><time>2026-04-18T07:48:23.667Z</time></trkpt><trkpt lat="43.6510758" lon="10.8971971"><ele>151.5</ele><time>2026-04-18T07:48:24.665Z</time></trkpt><trkpt lat="43.6510383" lon="10.8971147"><ele>153.0</ele><time>2026-04-18T07:48:25.68Z</time></trkpt><trkpt lat="43.6509923" lon="10.8970365"><ele>153.0</ele><time>2026-04-18T07:48:26.658Z</time></trkpt><trkpt lat="43.6509393" lon="10.8969824"><ele>153.0</ele><time>2026-04-18T07:48:27.654Z</time></trkpt><trkpt lat="43.6508732" lon="10.8969536"><ele>153.0</ele><time>2026-04-18T07:48:28.665Z</time></trkpt><trkpt lat="43.6507977" lon="10.8969334"><ele>153.0</ele><time>2026-04-18T07:48:29.663Z</time></trkpt><trkpt lat="43.650717" lon="10.8969009"><ele>153.0</ele><time>2026-04-18T07:48:30.666Z</time></trkpt><trkpt lat="43.6506386" lon="10.896861"><ele>153.0</ele><time>2026-04-18T07:48:31.662Z</time></trkpt><trkpt lat="43.6505728" lon="10.8968306"><ele>153.0</ele><time>2026-04-18T07:48:32.672Z</time></trkpt><trkpt lat="43.6505109" lon="10.8967949"><ele>153.0</ele><time>2026-04-18T07:48:33.664Z</time></trkpt><trkpt lat="43.6504487" lon="10.896773"><ele>153.0</ele><time>2026-04-18T07:48:34.668Z</time></trkpt><trkpt lat="43.6503808" lon="10.8967665"><ele>153.0</ele><time>2026-04-18T07:48:35.673Z</time></trkpt><trkpt lat="43.6503043" lon="10.8967756"><ele>153.0</ele><time>2026-04-18T07:48:36.668Z</time></trkpt><trkpt lat="43.6502161" lon="10.8968128"><ele>153.0</ele><time>2026-04-18T07:48:37.662Z</time></trkpt><trkpt lat="43.6501323" lon="10.896871"><ele>153.0</ele><time>2026-04-18T07:48:38.668Z</time></trkpt><trkpt lat="43.6500597" lon="10.8969324"><ele>154.5</ele><time>2026-04-18T07:48:39.664Z</time></trkpt><trkpt lat="43.6499967" lon="10.8969792"><ele>156.0</ele><time>2026-04-18T07:48:40.67Z</time></trkpt><trkpt lat="43.6499228" lon="10.8970172"><ele>157.5</ele><time>2026-04-18T07:48:41.662Z</time></trkpt><trkpt lat="43.6498429" lon="10.8970609"><ele>159.0</ele><time>2026-04-18T07:48:42.667Z</time></trkpt><trkpt lat="43.6497619" lon="10.8970923"><ele>160.5</ele><time>2026-04-18T07:48:43.662Z</time></trkpt><trkpt lat="43.6496958" lon="10.8971213"><ele>162.0</ele><time>2026-04-18T07:48:44.658Z</time></trkpt><trkpt lat="43.6496239" lon="10.8971545"><ele>162.0</ele><time>2026-04-18T07:48:45.663Z</time></trkpt><trkpt lat="43.6495396" lon="10.8971769"><ele>162.0</ele><time>2026-04-18T07:48:46.662Z</time></trkpt><trkpt lat="43.6494487" lon="10.897193"><ele>162.0</ele><time>2026-04-18T07:48:47.662Z</time></trkpt><trkpt lat="43.6493551" lon="10.8971981"><ele>162.0</ele><time>2026-04-18T07:48:48.659Z</time></trkpt><trkpt lat="43.6492544" lon="10.8971869"><ele>162.0</ele><time>2026-04-18T07:48:49.654Z</time></trkpt><trkpt lat="43.6491509" lon="10.8971588"><ele>162.2</ele><time>2026-04-18T07:48:50.658Z</time></trkpt><trkpt lat="43.6490573" lon="10.8971158"><ele>162.39999999999998</ele><time>2026-04-18T07:48:51.664Z</time></trkpt><trkpt lat="43.6489597" lon="10.8970809"><ele>162.60000000000002</ele><time>2026-04-18T07:48:52.66Z</time></trkpt><trkpt lat="43.6488531" lon="10.8970613"><ele>162.8</ele><time>2026-04-18T07:48:53.664Z</time></trkpt><trkpt lat="43.648735" lon="10.8970546"><ele>163.0</ele><time>2026-04-18T07:48:54.662Z</time></trkpt><trkpt lat="43.6486087" lon="10.8970627"><ele>163.2</ele><time>2026-04-18T07:48:55.662Z</time></trkpt><trkpt lat="43.6485015" lon="10.8970725"><ele>163.4</ele><time>2026-04-18T07:48:56.681Z</time></trkpt><trkpt lat="43.648394" lon="10.8970773"><ele>163.6</ele><time>2026-04-18T07:48:57.668Z</time></trkpt><trkpt lat="43.6482782" lon="10.8970799"><ele>163.79999999999998</ele><time>2026-04-18T07:48:58.662Z</time></trkpt><trkpt lat="43.6481757" lon="10.89707"><ele>164.0</ele><time>2026-04-18T07:48:59.666Z</time></trkpt><trkpt lat="43.6480724" lon="10.8970714"><ele>164.0</ele><time>2026-04-18T07:49:00.665Z</time></trkpt><trkpt lat="43.6479594" lon="10.8970903"><ele>164.0</ele><time>2026-04-18T07:49:01.66Z</time></trkpt><trkpt lat="43.6478381" lon="10.8971212"><ele>164.0</ele><time>2026-04-18T07:49:02.666Z</time></trkpt><trkpt lat="43.647726" lon="10.8971638"><ele>164.0</ele><time>2026-04-18T07:49:03.661Z</time></trkpt><trkpt lat="43.6476293" lon="10.8971917"><ele>163.79999999999998</ele><time>2026-04-18T07:49:04.663Z</time></trkpt><trkpt lat="43.6475291" lon="10.8972181"><ele>163.6</ele><time>2026-04-18T07:49:05.664Z</time></trkpt><trkpt lat="43.6474299" lon="10.8972402"><ele>163.4</ele><time>2026-04-18T07:49:06.657Z</time></trkpt><trkpt lat="43.6473274" lon="10.8972527"><ele>163.2</ele><time>2026-04-18T07:49:07.661Z</time></trkpt><trkpt lat="43.647227" lon="10.8972509"><ele>163.0</ele><time>2026-04-18T07:49:08.658Z</time></trkpt><trkpt lat="43.6471429" lon="10.897263"><ele>163.0</ele><time>2026-04-18T07:49:09.666Z</time></trkpt><trkpt lat="43.6470536" lon="10.8972918"><ele>163.0</ele><time>2026-04-18T07:49:10.664Z</time></trkpt><trkpt lat="43.6469609" lon="10.8973389"><ele>163.0</ele><time>2026-04-18T07:49:11.667Z</time></trkpt><trkpt lat="43.6468719" lon="10.8973903"><ele>163.0</ele><time>2026-04-18T07:49:12.662Z</time></trkpt><trkpt lat="43.6467793" lon="10.8974183"><ele>163.0</ele><time>2026-04-18T07:49:13.664Z</time></trkpt><trkpt lat="43.6466802" lon="10.8974334"><ele>162.83333333333334</ele><time>2026-04-18T07:49:14.665Z</time></trkpt><trkpt lat="43.6465928" lon="10.8974545"><ele>162.66666666666669</ele><time>2026-04-18T07:49:15.666Z</time></trkpt><trkpt lat="43.6465145" lon="10.8974866"><ele>162.5</ele><time>2026-04-18T07:49:16.67Z</time></trkpt><trkpt lat="43.6464407" lon="10.8975137"><ele>162.33333333333334</ele><time>2026-04-18T07:49:17.663Z</time></trkpt><trkpt lat="43.6463699" lon="10.897535"><ele>162.16666666666666</ele><time>2026-04-18T07:49:18.663Z</time></trkpt><trkpt lat="43.6463003" lon="10.8975418"><ele>162.0</ele><time>2026-04-18T07:49:19.66Z</time></trkpt><trkpt lat="43.6462246" lon="10.8975306"><ele>162.0</ele><time>2026-04-18T07:49:20.661Z</time></trkpt><trkpt lat="43.6461482" lon="10.8975073"><ele>162.0</ele><time>2026-04-18T07:49:21.658Z</time></trkpt><trkpt lat="43.6460696" lon="10.897444"><ele>162.0</ele><time>2026-04-18T07:49:22.646Z</time></trkpt><trkpt lat="43.6459782" lon="10.8973623"><ele>162.0</ele><time>2026-04-18T07:49:23.653Z</time></trkpt><trkpt lat="43.6458817" lon="10.8972783"><ele>162.0</ele><time>2026-04-18T07:49:24.651Z</time></trkpt><trkpt lat="43.6457843" lon="10.8971977"><ele>161.6</ele><time>2026-04-18T07:49:25.657Z</time></trkpt><trkpt lat="43.6457027" lon="10.8971277"><ele>161.2</ele><time>2026-04-18T07:49:26.655Z</time></trkpt><trkpt lat="43.6456301" lon="10.8970479"><ele>160.8</ele><time>2026-04-18T07:49:27.679Z</time></trkpt><trkpt lat="43.6455458" lon="10.8969643"><ele>160.4</ele><time>2026-04-18T07:49:28.657Z</time></trkpt><trkpt lat="43.6454512" lon="10.8969048"><ele>160.0</ele><time>2026-04-18T07:49:29.651Z</time></trkpt><trkpt lat="43.6453702" lon="10.8968504"><ele>160.0</ele><time>2026-04-18T07:49:30.648Z</time></trkpt><trkpt lat="43.6453007" lon="10.8967774"><ele>160.0</ele><time>2026-04-18T07:49:31.641Z</time></trkpt><trkpt lat="43.6452531" lon="10.8966937"><ele>160.0</ele><time>2026-04-18T07:49:32.639Z</time></trkpt><trkpt lat="43.645224" lon="10.8965881"><ele>160.0</ele><time>2026-04-18T07:49:33.66Z</time></trkpt><trkpt lat="43.6452157" lon="10.8964355"><ele>160.0</ele><time>2026-04-18T07:49:34.645Z</time></trkpt><trkpt lat="43.645207" lon="10.896278"><ele>160.4</ele><time>2026-04-18T07:49:35.654Z</time></trkpt><trkpt lat="43.6452034" lon="10.8961147"><ele>160.8</ele><time>2026-04-18T07:49:36.655Z</time></trkpt><trkpt lat="43.6451993" lon="10.8959607"><ele>161.2</ele><time>2026-04-18T07:49:37.657Z</time></trkpt><trkpt lat="43.6451948" lon="10.895825"><ele>161.6</ele><time>2026-04-18T07:49:38.657Z</time></trkpt><trkpt lat="43.6451926" lon="10.8957031"><ele>162.0</ele><time>2026-04-18T07:49:39.66Z</time></trkpt><trkpt lat="43.6451888" lon="10.8955885"><ele>162.0</ele><time>2026-04-18T07:49:40.653Z</time></trkpt><trkpt lat="43.6451767" lon="10.8954965"><ele>162.0</ele><time>2026-04-18T07:49:41.649Z</time></trkpt><trkpt lat="43.6451688" lon="10.8954076"><ele>162.0</ele><time>2026-04-18T07:49:42.66Z</time></trkpt><trkpt lat="43.6451578" lon="10.8952697"><ele>162.0</ele><time>2026-04-18T07:49:44.647Z</time></trkpt><trkpt lat="43.6451259" lon="10.8951842"><ele>162.0</ele><time>2026-04-18T07:49:47.675Z</time></trkpt><trkpt lat="43.645073" lon="10.8952822"><ele>162.0</ele><time>2026-04-18T07:49:50.652Z</time></trkpt><trkpt lat="43.6450595" lon="10.8954805"><ele>162.0</ele><time>2026-04-18T07:49:52.669Z</time></trkpt><trkpt lat="43.6450482" lon="10.8955945"><ele>162.0</ele><time>2026-04-18T07:49:53.662Z</time></trkpt><trkpt lat="43.6450303" lon="10.8956862"><ele>162.0</ele><time>2026-04-18T07:49:54.653Z</time></trkpt><trkpt lat="43.6449969" lon="10.8958386"><ele>162.0</ele><time>2026-04-18T07:49:56.654Z</time></trkpt><trkpt lat="43.6449857" lon="10.8959341"><ele>162.0</ele><time>2026-04-18T07:49:57.66Z</time></trkpt><trkpt lat="43.6449707" lon="10.8960281"><ele>162.0</ele><time>2026-04-18T07:49:58.678Z</time></trkpt><trkpt lat="43.6449481" lon="10.8961189"><ele>163.0</ele><time>2026-04-18T07:49:59.661Z</time></trkpt><trkpt lat="43.6449256" lon="10.8962122"><ele>164.0</ele><time>2026-04-18T07:50:00.663Z</time></trkpt><trkpt lat="43.6448997" lon="10.896303"><ele>165.0</ele><time>2026-04-18T07:50:01.662Z</time></trkpt><trkpt lat="43.6448555" lon="10.8964396"><ele>166.0</ele><time>2026-04-18T07:50:03.664Z</time></trkpt><trkpt lat="43.6448155" lon="10.8965578"><ele>167.0</ele><time>2026-04-18T07:50:05.66Z</time></trkpt><trkpt lat="43.6447677" lon="10.89667"><ele>168.0</ele><time>2026-04-18T07:50:07.658Z</time></trkpt><trkpt lat="43.6446897" lon="10.8967881"><ele>169.33333333333334</ele><time>2026-04-18T07:50:09.661Z</time></trkpt><trkpt lat="43.6446106" lon="10.8968747"><ele>170.66666666666666</ele><time>2026-04-18T07:50:11.66Z</time></trkpt><trkpt lat="43.6445473" lon="10.896909"><ele>172.0</ele><time>2026-04-18T07:50:15.668Z</time></trkpt><trkpt lat="43.6444821" lon="10.8969746"><ele>173.33333333333331</ele><time>2026-04-18T07:50:18.669Z</time></trkpt><trkpt lat="43.644405" lon="10.8970526"><ele>174.66666666666666</ele><time>2026-04-18T07:50:20.663Z</time></trkpt><trkpt lat="43.6443248" lon="10.8971335"><ele>176.0</ele><time>2026-04-18T07:50:22.673Z</time></trkpt><trkpt lat="43.6442257" lon="10.8972093"><ele>177.0</ele><time>2026-04-18T07:50:24.674Z</time></trkpt><trkpt lat="43.6441188" lon="10.8972158"><ele>178.0</ele><time>2026-04-18T07:50:26.653Z</time></trkpt><trkpt lat="43.6440527" lon="10.8971879"><ele>179.0</ele><time>2026-04-18T07:50:27.655Z</time></trkpt><trkpt lat="43.6439857" lon="10.8971479"><ele>180.0</ele><time>2026-04-18T07:50:28.665Z</time></trkpt><trkpt lat="43.6439126" lon="10.8971102"><ele>181.0</ele><time>2026-04-18T07:50:29.675Z</time></trkpt><trkpt lat="43.6438425" lon="10.8970742"><ele>182.0</ele><time>2026-04-18T07:50:30.662Z</time></trkpt><trkpt lat="43.6437824" lon="10.8970449"><ele>182.0</ele><time>2026-04-18T07:50:31.659Z</time></trkpt><trkpt lat="43.6437188" lon="10.8970184"><ele>182.0</ele><time>2026-04-18T07:50:32.662Z</time></trkpt><trkpt lat="43.6436017" lon="10.8970039"><ele>182.0</ele><time>2026-04-18T07:50:34.669Z</time></trkpt><trkpt lat="43.6434798" lon="10.8969912"><ele>182.0</ele><time>2026-04-18T07:50:36.665Z</time></trkpt><trkpt lat="43.643404" lon="10.8970173"><ele>182.0</ele><time>2026-04-18T07:50:38.665Z</time></trkpt><trkpt lat="43.6432977" lon="10.8970815"><ele>182.16666666666666</ele><time>2026-04-18T07:50:41.676Z</time></trkpt><trkpt lat="43.6432264" lon="10.8971143"><ele>182.33333333333331</ele><time>2026-04-18T07:50:42.657Z</time></trkpt><trkpt lat="43.643157" lon="10.8971296"><ele>182.5</ele><time>2026-04-18T07:50:43.652Z</time></trkpt><trkpt lat="43.6430574" lon="10.8971132"><ele>182.66666666666666</ele><time>2026-04-18T07:50:45.658Z</time></trkpt><trkpt lat="43.6429705" lon="10.8970885"><ele>182.83333333333334</ele><time>2026-04-18T07:50:47.658Z</time></trkpt><trkpt lat="43.6428857" lon="10.8970279"><ele>183.0</ele><time>2026-04-18T07:50:49.663Z</time></trkpt><trkpt lat="43.6428074" lon="10.8969116"><ele>181.5</ele><time>2026-04-18T07:50:51.657Z</time></trkpt><trkpt lat="43.6427688" lon="10.8968211"><ele>180.0</ele><time>2026-04-18T07:50:52.662Z</time></trkpt><trkpt lat="43.6427329" lon="10.8967441"><ele>178.5</ele><time>2026-04-18T07:50:53.672Z</time></trkpt><trkpt lat="43.642692" lon="10.8966652"><ele>177.0</ele><time>2026-04-18T07:50:54.679Z</time></trkpt><trkpt lat="43.6426496" lon="10.8965964"><ele>175.5</ele><time>2026-04-18T07:50:55.669Z</time></trkpt><trkpt lat="43.6425582" lon="10.8964961"><ele>174.0</ele><time>2026-04-18T07:50:57.673Z</time></trkpt><trkpt lat="43.6424766" lon="10.8965209"><ele>174.0</ele><time>2026-04-18T07:50:59.665Z</time></trkpt><trkpt lat="43.6424042" lon="10.896571"><ele>174.0</ele><time>2026-04-18T07:51:01.66Z</time></trkpt><trkpt lat="43.6423514" lon="10.8966827"><ele>174.0</ele><time>2026-04-18T07:51:03.661Z</time></trkpt><trkpt lat="43.6423217" lon="10.8968116"><ele>174.0</ele><time>2026-04-18T07:51:05.656Z</time></trkpt><trkpt lat="43.6423001" lon="10.8969139"><ele>174.0</ele><time>2026-04-18T07:51:08.658Z</time></trkpt><trkpt lat="43.6422494" lon="10.8969686"><ele>174.0</ele><time>2026-04-18T07:51:11.66Z</time></trkpt><trkpt lat="43.6423098" lon="10.8969254"><ele>174.0</ele><time>2026-04-18T07:52:46.66Z</time></trkpt><trkpt lat="43.6423131" lon="10.8970326"><ele>174.0</ele><time>2026-04-18T07:53:03.652Z</time></trkpt><trkpt lat="43.6423004" lon="10.8971266"><ele>174.0</ele><time>2026-04-18T07:53:06.649Z</time></trkpt><trkpt lat="43.6422938" lon="10.8972242"><ele>174.0</ele><time>2026-04-18T07:53:19.651Z</time></trkpt><trkpt lat="43.6423018" lon="10.8973476"><ele>174.0</ele><time>2026-04-18T07:53:21.654Z</time></trkpt><trkpt lat="43.6423451" lon="10.8974743"><ele>174.0</ele><time>2026-04-18T07:53:23.658Z</time></trkpt><trkpt lat="43.6423799" lon="10.8975715"><ele>173.0</ele><time>2026-04-18T07:53:25.651Z</time></trkpt><trkpt lat="43.6423995" lon="10.8976676"><ele>172.0</ele><time>2026-04-18T07:53:27.645Z</time></trkpt><trkpt lat="43.642464" lon="10.8977858"><ele>171.0</ele><time>2026-04-18T07:53:29.65Z</time></trkpt><trkpt lat="43.6425348" lon="10.8979183"><ele>170.0</ele><time>2026-04-18T07:53:31.647Z</time></trkpt><trkpt lat="43.6425684" lon="10.8980123"><ele>169.0</ele><time>2026-04-18T07:53:32.637Z</time></trkpt><trkpt lat="43.6425994" lon="10.8980931"><ele>168.0</ele><time>2026-04-18T07:53:33.636Z</time></trkpt><trkpt lat="43.6426259" lon="10.8982385"><ele>168.0</ele><time>2026-04-18T07:53:35.646Z</time></trkpt><trkpt lat="43.6426263" lon="10.8983636"><ele>168.0</ele><time>2026-04-18T07:53:37.637Z</time></trkpt><trkpt lat="43.6426401" lon="10.8985038"><ele>168.0</ele><time>2026-04-18T07:53:39.639Z</time></trkpt><trkpt lat="43.6426477" lon="10.8986288"><ele>168.0</ele><time>2026-04-18T07:53:41.633Z</time></trkpt><trkpt lat="43.6426201" lon="10.8988034"><ele>168.0</ele><time>2026-04-18T07:53:43.634Z</time></trkpt><trkpt lat="43.6425955" lon="10.89892"><ele>167.33333333333334</ele><time>2026-04-18T07:53:44.637Z</time></trkpt><trkpt lat="43.6425738" lon="10.8990101"><ele>166.66666666666666</ele><time>2026-04-18T07:53:45.632Z</time></trkpt><trkpt lat="43.6425535" lon="10.8991686"><ele>166.0</ele><time>2026-04-18T07:53:47.641Z</time></trkpt><trkpt lat="43.6425441" lon="10.8992579"><ele>165.33333333333331</ele><time>2026-04-18T07:53:48.644Z</time></trkpt><trkpt lat="43.642552" lon="10.8994006"><ele>164.66666666666666</ele><time>2026-04-18T07:53:50.644Z</time></trkpt><trkpt lat="43.6425653" lon="10.899517"><ele>164.0</ele><time>2026-04-18T07:53:52.643Z</time></trkpt><trkpt lat="43.6425635" lon="10.8996536"><ele>163.0</ele><time>2026-04-18T07:53:54.645Z</time></trkpt><trkpt lat="43.6425469" lon="10.8997806"><ele>162.0</ele><time>2026-04-18T07:53:56.646Z</time></trkpt><trkpt lat="43.642515" lon="10.8998839"><ele>161.0</ele><time>2026-04-18T07:53:58.643Z</time></trkpt><trkpt lat="43.6424531" lon="10.899968"><ele>160.0</ele><time>2026-04-18T07:54:00.65Z</time></trkpt><trkpt lat="43.6423602" lon="10.9000337"><ele>159.0</ele><time>2026-04-18T07:54:02.647Z</time></trkpt><trkpt lat="43.6422867" lon="10.9000628"><ele>158.0</ele><time>2026-04-18T07:54:03.653Z</time></trkpt><trkpt lat="43.642176" lon="10.9001157"><ele>155.4</ele><time>2026-04-18T07:54:05.654Z</time></trkpt><trkpt lat="43.6420997" lon="10.9001873"><ele>152.8</ele><time>2026-04-18T07:54:07.651Z</time></trkpt><trkpt lat="43.6420141" lon="10.9002598"><ele>150.2</ele><time>2026-04-18T07:54:09.645Z</time></trkpt><trkpt lat="43.6419194" lon="10.9003364"><ele>147.6</ele><time>2026-04-18T07:54:11.637Z</time></trkpt><trkpt lat="43.6418338" lon="10.9004057"><ele>145.0</ele><time>2026-04-18T07:54:13.642Z</time></trkpt><trkpt lat="43.6417399" lon="10.9005318"><ele>145.0</ele><time>2026-04-18T07:54:15.63Z</time></trkpt><trkpt lat="43.641705" lon="10.9006415"><ele>145.0</ele><time>2026-04-18T07:54:16.638Z</time></trkpt><trkpt lat="43.6416633" lon="10.9007651"><ele>145.0</ele><time>2026-04-18T07:54:17.643Z</time></trkpt><trkpt lat="43.6416121" lon="10.9008851"><ele>145.0</ele><time>2026-04-18T07:54:18.637Z</time></trkpt><trkpt lat="43.6415595" lon="10.9009994"><ele>145.0</ele><time>2026-04-18T07:54:19.645Z</time></trkpt><trkpt lat="43.6415022" lon="10.901104"><ele>144.0</ele><time>2026-04-18T07:54:20.64Z</time></trkpt><trkpt lat="43.641439" lon="10.9012129"><ele>143.0</ele><time>2026-04-18T07:54:21.64Z</time></trkpt><trkpt lat="43.6413558" lon="10.9013196"><ele>142.0</ele><time>2026-04-18T07:54:22.644Z</time></trkpt><trkpt lat="43.6412645" lon="10.9014254"><ele>141.0</ele><time>2026-04-18T07:54:23.646Z</time></trkpt><trkpt lat="43.6411654" lon="10.9015318"><ele>141.75</ele><time>2026-04-18T07:54:24.648Z</time></trkpt><trkpt lat="43.6410592" lon="10.9016369"><ele>142.5</ele><time>2026-04-18T07:54:25.648Z</time></trkpt><trkpt lat="43.6409372" lon="10.9017312"><ele>143.25</ele><time>2026-04-18T07:54:26.65Z</time></trkpt><trkpt lat="43.6408172" lon="10.9018272"><ele>144.0</ele><time>2026-04-18T07:54:27.648Z</time></trkpt><trkpt lat="43.6407053" lon="10.9019331"><ele>144.0</ele><time>2026-04-18T07:54:28.653Z</time></trkpt><trkpt lat="43.640591" lon="10.9020252"><ele>144.0</ele><time>2026-04-18T07:54:29.649Z</time></trkpt><trkpt lat="43.6404818" lon="10.9021271"><ele>144.0</ele><time>2026-04-18T07:54:30.65Z</time></trkpt><trkpt lat="43.6403631" lon="10.9022194"><ele>144.0</ele><time>2026-04-18T07:54:31.644Z</time></trkpt><trkpt lat="43.6402563" lon="10.9023237"><ele>145.4</ele><time>2026-04-18T07:54:32.646Z</time></trkpt><trkpt lat="43.6401465" lon="10.9024243"><ele>146.8</ele><time>2026-04-18T07:54:33.642Z</time></trkpt><trkpt lat="43.6400465" lon="10.9025194"><ele>148.2</ele><time>2026-04-18T07:54:34.644Z</time></trkpt><trkpt lat="43.6399615" lon="10.9025874"><ele>149.6</ele><time>2026-04-18T07:54:35.639Z</time></trkpt><trkpt lat="43.6398941" lon="10.9026577"><ele>151.0</ele><time>2026-04-18T07:54:36.644Z</time></trkpt><trkpt lat="43.639832" lon="10.9027091"><ele>151.0</ele><time>2026-04-18T07:54:37.658Z</time></trkpt><trkpt lat="43.6397487" lon="10.9027821"><ele>151.0</ele><time>2026-04-18T07:54:39.654Z</time></trkpt><trkpt lat="43.6396796" lon="10.9028527"><ele>151.0</ele><time>2026-04-18T07:54:41.647Z</time></trkpt><trkpt lat="43.6396493" lon="10.9029827"><ele>151.0</ele><time>2026-04-18T07:54:43.647Z</time></trkpt><trkpt lat="43.6396312" lon="10.9031485"><ele>151.0</ele><time>2026-04-18T07:54:45.644Z</time></trkpt><trkpt lat="43.6395942" lon="10.903231"><ele>151.0</ele><time>2026-04-18T07:54:47.646Z</time></trkpt><trkpt lat="43.6395324" lon="10.9031476"><ele>151.0</ele><time>2026-04-18T07:54:51.647Z</time></trkpt><trkpt lat="43.6394653" lon="10.9030764"><ele>151.0</ele><time>2026-04-18T07:54:53.643Z</time></trkpt><trkpt lat="43.6393427" lon="10.9029854"><ele>151.0</ele><time>2026-04-18T07:54:55.647Z</time></trkpt><trkpt lat="43.6392512" lon="10.9029297"><ele>151.0</ele><time>2026-04-18T07:54:56.655Z</time></trkpt><trkpt lat="43.6391681" lon="10.9028793"><ele>153.83333333333334</ele><time>2026-04-18T07:54:57.65Z</time></trkpt><trkpt lat="43.639079" lon="10.9028467"><ele>156.66666666666669</ele><time>2026-04-18T07:54:58.645Z</time></trkpt><trkpt lat="43.638977" lon="10.9028264"><ele>159.5</ele><time>2026-04-18T07:54:59.638Z</time></trkpt><trkpt lat="43.638881" lon="10.9028395"><ele>162.33333333333334</ele><time>2026-04-18T07:55:00.646Z</time></trkpt><trkpt lat="43.6387987" lon="10.9028426"><ele>165.16666666666666</ele><time>2026-04-18T07:55:01.641Z</time></trkpt><trkpt lat="43.6387344" lon="10.9028536"><ele>168.0</ele><time>2026-04-18T07:55:02.645Z</time></trkpt><trkpt lat="43.6386704" lon="10.9028548"><ele>167.16666666666666</ele><time>2026-04-18T07:55:03.638Z</time></trkpt><trkpt lat="43.6386062" lon="10.9028589"><ele>166.33333333333334</ele><time>2026-04-18T07:55:04.64Z</time></trkpt><trkpt lat="43.638528" lon="10.9028476"><ele>165.5</ele><time>2026-04-18T07:55:05.634Z</time></trkpt><trkpt lat="43.6384433" lon="10.90284"><ele>164.66666666666669</ele><time>2026-04-18T07:55:06.646Z</time></trkpt><trkpt lat="43.6383572" lon="10.9028315"><ele>163.83333333333334</ele><time>2026-04-18T07:55:07.641Z</time></trkpt><trkpt lat="43.6382668" lon="10.9028154"><ele>163.0</ele><time>2026-04-18T07:55:08.655Z</time></trkpt><trkpt lat="43.6381735" lon="10.9027975"><ele>163.0</ele><time>2026-04-18T07:55:09.641Z</time></trkpt><trkpt lat="43.6380802" lon="10.9027787"><ele>163.0</ele><time>2026-04-18T07:55:10.645Z</time></trkpt><trkpt lat="43.637982" lon="10.902768"><ele>163.0</ele><time>2026-04-18T07:55:11.646Z</time></trkpt><trkpt lat="43.6378752" lon="10.9027355"><ele>163.0</ele><time>2026-04-18T07:55:12.654Z</time></trkpt><trkpt lat="43.6377599" lon="10.9026827"><ele>163.0</ele><time>2026-04-18T07:55:13.653Z</time></trkpt><trkpt lat="43.637642" lon="10.9026148"><ele>161.25</ele><time>2026-04-18T07:55:14.654Z</time></trkpt><trkpt lat="43.6375233" lon="10.9025475"><ele>159.5</ele><time>2026-04-18T07:55:15.657Z</time></trkpt><trkpt lat="43.6373941" lon="10.9024739"><ele>157.75</ele><time>2026-04-18T07:55:16.661Z</time></trkpt><trkpt lat="43.6372744" lon="10.9024092"><ele>156.0</ele><time>2026-04-18T07:55:17.654Z</time></trkpt><trkpt lat="43.6371657" lon="10.9023421"><ele>156.0</ele><time>2026-04-18T07:55:18.659Z</time></trkpt><trkpt lat="43.6370807" lon="10.9022868"><ele>156.0</ele><time>2026-04-18T07:55:19.656Z</time></trkpt><trkpt lat="43.6370049" lon="10.9022332"><ele>156.0</ele><time>2026-04-18T07:55:20.66Z</time></trkpt><trkpt lat="43.6369297" lon="10.9021914"><ele>156.0</ele><time>2026-04-18T07:55:21.653Z</time></trkpt><trkpt lat="43.6368482" lon="10.9021285"><ele>156.0</ele><time>2026-04-18T07:55:22.662Z</time></trkpt><trkpt lat="43.6367816" lon="10.9020845"><ele>156.0</ele><time>2026-04-18T07:55:23.657Z</time></trkpt><trkpt lat="43.6366763" lon="10.9020328"><ele>156.6</ele><time>2026-04-18T07:55:25.648Z</time></trkpt><trkpt lat="43.6365467" lon="10.9020286"><ele>157.2</ele><time>2026-04-18T07:55:27.645Z</time></trkpt><trkpt lat="43.6364672" lon="10.9020393"><ele>157.8</ele><time>2026-04-18T07:55:28.643Z</time></trkpt><trkpt lat="43.6364008" lon="10.902055"><ele>158.4</ele><time>2026-04-18T07:55:29.653Z</time></trkpt><trkpt lat="43.6363341" lon="10.9020783"><ele>159.0</ele><time>2026-04-18T07:55:30.648Z</time></trkpt><trkpt lat="43.6362216" lon="10.9021062"><ele>159.0</ele><time>2026-04-18T07:55:32.65Z</time></trkpt><trkpt lat="43.6361475" lon="10.9021259"><ele>159.0</ele><time>2026-04-18T07:55:33.655Z</time></trkpt><trkpt lat="43.6360817" lon="10.9021416"><ele>159.0</ele><time>2026-04-18T07:55:34.649Z</time></trkpt><trkpt lat="43.6359981" lon="10.9021607"><ele>159.0</ele><time>2026-04-18T07:55:35.653Z</time></trkpt><trkpt lat="43.6359103" lon="10.9021824"><ele>159.0</ele><time>2026-04-18T07:55:36.653Z</time></trkpt><trkpt lat="43.6358239" lon="10.9022067"><ele>159.0</ele><time>2026-04-18T07:55:37.652Z</time></trkpt><trkpt lat="43.6357364" lon="10.9022341"><ele>158.2</ele><time>2026-04-18T07:55:38.651Z</time></trkpt><trkpt lat="43.6356544" lon="10.902258"><ele>157.4</ele><time>2026-04-18T07:55:39.666Z</time></trkpt><trkpt lat="43.6355628" lon="10.9022844"><ele>156.6</ele><time>2026-04-18T07:55:40.654Z</time></trkpt><trkpt lat="43.6354776" lon="10.9023165"><ele>155.8</ele><time>2026-04-18T07:55:41.66Z</time></trkpt><trkpt lat="43.6353942" lon="10.9023428"><ele>155.0</ele><time>2026-04-18T07:55:42.654Z</time></trkpt><trkpt lat="43.6352846" lon="10.9023662"><ele>154.5</ele><time>2026-04-18T07:55:43.655Z</time></trkpt><trkpt lat="43.6351632" lon="10.902405"><ele>154.0</ele><time>2026-04-18T07:55:44.656Z</time></trkpt><trkpt lat="43.6350425" lon="10.902462"><ele>153.5</ele><time>2026-04-18T07:55:45.65Z</time></trkpt><trkpt lat="43.6349108" lon="10.9025472"><ele>153.0</ele><time>2026-04-18T07:55:46.658Z</time></trkpt><trkpt lat="43.6347811" lon="10.9026334"><ele>152.25</ele><time>2026-04-18T07:55:47.654Z</time></trkpt><trkpt lat="43.6346665" lon="10.9027211"><ele>151.5</ele><time>2026-04-18T07:55:48.649Z</time></trkpt><trkpt lat="43.6345513" lon="10.9028051"><ele>150.75</ele><time>2026-04-18T07:55:49.649Z</time></trkpt><trkpt lat="43.6344343" lon="10.9028777"><ele>150.0</ele><time>2026-04-18T07:55:50.651Z</time></trkpt><trkpt lat="43.634328" lon="10.9029226"><ele>150.0</ele><time>2026-04-18T07:55:51.65Z</time></trkpt><trkpt lat="43.6342239" lon="10.9029611"><ele>150.0</ele><time>2026-04-18T07:55:52.649Z</time></trkpt><trkpt lat="43.6341278" lon="10.9029918"><ele>150.0</ele><time>2026-04-18T07:55:53.655Z</time></trkpt><trkpt lat="43.6340389" lon="10.9030158"><ele>150.0</ele><time>2026-04-18T07:55:54.652Z</time></trkpt><trkpt lat="43.6339419" lon="10.9030277"><ele>150.0</ele><time>2026-04-18T07:55:55.649Z</time></trkpt><trkpt lat="43.6338501" lon="10.903"><ele>150.0</ele><time>2026-04-18T07:55:56.645Z</time></trkpt><trkpt lat="43.63375" lon="10.9029418"><ele>150.0</ele><time>2026-04-18T07:55:57.654Z</time></trkpt><trkpt lat="43.6336512" lon="10.9028552"><ele>150.0</ele><time>2026-04-18T07:55:58.651Z</time></trkpt><trkpt lat="43.6335697" lon="10.9027645"><ele>150.0</ele><time>2026-04-18T07:55:59.659Z</time></trkpt><trkpt lat="43.6334856" lon="10.9026826"><ele>150.0</ele><time>2026-04-18T07:56:00.652Z</time></trkpt><trkpt lat="43.6333961" lon="10.902608"><ele>151.75</ele><time>2026-04-18T07:56:01.648Z</time></trkpt><trkpt lat="43.6332877" lon="10.9025493"><ele>153.5</ele><time>2026-04-18T07:56:02.66Z</time></trkpt><trkpt lat="43.6331649" lon="10.9025155"><ele>155.25</ele><time>2026-04-18T07:56:03.647Z</time></trkpt><trkpt lat="43.6330419" lon="10.9025053"><ele>157.0</ele><time>2026-04-18T07:56:04.657Z</time></trkpt><trkpt lat="43.6329268" lon="10.9025128"><ele>156.0</ele><time>2026-04-18T07:56:05.659Z</time></trkpt><trkpt lat="43.6328014" lon="10.9025165"><ele>155.0</ele><time>2026-04-18T07:56:06.655Z</time></trkpt><trkpt lat="43.6326862" lon="10.9025335"><ele>154.0</ele><time>2026-04-18T07:56:07.655Z</time></trkpt><trkpt lat="43.6325747" lon="10.9025494"><ele>153.0</ele><time>2026-04-18T07:56:08.656Z</time></trkpt><trkpt lat="43.6324755" lon="10.9025535"><ele>153.0</ele><time>2026-04-18T07:56:09.658Z</time></trkpt><trkpt lat="43.6323716" lon="10.9025114"><ele>153.0</ele><time>2026-04-18T07:56:10.654Z</time></trkpt><trkpt lat="43.6322677" lon="10.9024455"><ele>153.0</ele><time>2026-04-18T07:56:11.653Z</time></trkpt><trkpt lat="43.6321519" lon="10.9023702"><ele>153.0</ele><time>2026-04-18T07:56:12.649Z</time></trkpt><trkpt lat="43.6320427" lon="10.902283"><ele>151.5</ele><time>2026-04-18T07:56:13.652Z</time></trkpt><trkpt lat="43.6319513" lon="10.9022342"><ele>150.0</ele><time>2026-04-18T07:56:14.66Z</time></trkpt><trkpt lat="43.6318756" lon="10.9022005"><ele>148.5</ele><time>2026-04-18T07:56:15.661Z</time></trkpt><trkpt lat="43.631796" lon="10.9021628"><ele>147.0</ele><time>2026-04-18T07:56:16.668Z</time></trkpt><trkpt lat="43.6317175" lon="10.9021282"><ele>145.5</ele><time>2026-04-18T07:56:17.659Z</time></trkpt><trkpt lat="43.631647" lon="10.9020651"><ele>144.0</ele><time>2026-04-18T07:56:18.654Z</time></trkpt><trkpt lat="43.6315862" lon="10.9019758"><ele>144.0</ele><time>2026-04-18T07:56:19.649Z</time></trkpt><trkpt lat="43.6315462" lon="10.9018802"><ele>144.0</ele><time>2026-04-18T07:56:20.653Z</time></trkpt><trkpt lat="43.6315227" lon="10.901749"><ele>144.0</ele><time>2026-04-18T07:56:21.665Z</time></trkpt><trkpt lat="43.6315074" lon="10.9016046"><ele>144.0</ele><time>2026-04-18T07:56:22.666Z</time></trkpt><trkpt lat="43.631489" lon="10.9014657"><ele>144.0</ele><time>2026-04-18T07:56:23.664Z</time></trkpt><trkpt lat="43.6314692" lon="10.9013249"><ele>144.66666666666666</ele><time>2026-04-18T07:56:24.67Z</time></trkpt><trkpt lat="43.6314489" lon="10.9011983"><ele>145.33333333333334</ele><time>2026-04-18T07:56:25.664Z</time></trkpt><trkpt lat="43.6314172" lon="10.9010768"><ele>146.0</ele><time>2026-04-18T07:56:26.661Z</time></trkpt><trkpt lat="43.6313718" lon="10.9009646"><ele>146.66666666666669</ele><time>2026-04-18T07:56:27.665Z</time></trkpt><trkpt lat="43.6313256" lon="10.9008661"><ele>147.33333333333334</ele><time>2026-04-18T07:56:28.656Z</time></trkpt><trkpt lat="43.6312852" lon="10.9007729"><ele>148.0</ele><time>2026-04-18T07:56:29.659Z</time></trkpt><trkpt lat="43.6312471" lon="10.9007006"><ele>148.0</ele><time>2026-04-18T07:56:30.653Z</time></trkpt><trkpt lat="43.6312003" lon="10.9006419"><ele>148.0</ele><time>2026-04-18T07:56:31.655Z</time></trkpt><trkpt lat="43.6311343" lon="10.9006024"><ele>148.0</ele><time>2026-04-18T07:56:32.649Z</time></trkpt><trkpt lat="43.6310625" lon="10.9005893"><ele>148.0</ele><time>2026-04-18T07:56:33.644Z</time></trkpt><trkpt lat="43.6309629" lon="10.9005778"><ele>148.0</ele><time>2026-04-18T07:56:34.643Z</time></trkpt><trkpt lat="43.6308459" lon="10.9005672"><ele>148.0</ele><time>2026-04-18T07:56:35.646Z</time></trkpt><trkpt lat="43.630739" lon="10.9005597"><ele>149.6</ele><time>2026-04-18T07:56:36.646Z</time></trkpt><trkpt lat="43.63064" lon="10.9005489"><ele>151.20000000000002</ele><time>2026-04-18T07:56:37.646Z</time></trkpt><trkpt lat="43.6305473" lon="10.900543"><ele>152.8</ele><time>2026-04-18T07:56:38.638Z</time></trkpt><trkpt lat="43.6304642" lon="10.9005473"><ele>154.4</ele><time>2026-04-18T07:56:39.64Z</time></trkpt><trkpt lat="43.630387" lon="10.9005668"><ele>156.0</ele><time>2026-04-18T07:56:40.628Z</time></trkpt><trkpt lat="43.6303029" lon="10.9006303"><ele>156.4</ele><time>2026-04-18T07:56:41.645Z</time></trkpt><trkpt lat="43.6302099" lon="10.9007202"><ele>156.8</ele><time>2026-04-18T07:56:42.64Z</time></trkpt><trkpt lat="43.6301137" lon="10.900813"><ele>157.20000000000002</ele><time>2026-04-18T07:56:43.639Z</time></trkpt><trkpt lat="43.630027" lon="10.900905"><ele>157.6</ele><time>2026-04-18T07:56:44.635Z</time></trkpt><trkpt lat="43.6299359" lon="10.9009807"><ele>158.0</ele><time>2026-04-18T07:56:45.627Z</time></trkpt><trkpt lat="43.6298503" lon="10.9010671"><ele>158.0</ele><time>2026-04-18T07:56:46.629Z</time></trkpt><trkpt lat="43.6297701" lon="10.9011277"><ele>158.0</ele><time>2026-04-18T07:56:47.62Z</time></trkpt><trkpt lat="43.629703" lon="10.901186"><ele>158.0</ele><time>2026-04-18T07:56:48.627Z</time></trkpt><trkpt lat="43.6296461" lon="10.9012413"><ele>158.0</ele><time>2026-04-18T07:56:49.622Z</time></trkpt><trkpt lat="43.6295593" lon="10.9013154"><ele>158.0</ele><time>2026-04-18T07:56:51.622Z</time></trkpt><trkpt lat="43.62946" lon="10.9014194"><ele>158.71428571428572</ele><time>2026-04-18T07:56:53.638Z</time></trkpt><trkpt lat="43.6294053" lon="10.9014779"><ele>159.42857142857144</ele><time>2026-04-18T07:56:54.638Z</time></trkpt><trkpt lat="43.6293458" lon="10.9015321"><ele>160.14285714285717</ele><time>2026-04-18T07:56:55.646Z</time></trkpt><trkpt lat="43.6292831" lon="10.9015693"><ele>160.85714285714286</ele><time>2026-04-18T07:56:56.641Z</time></trkpt><trkpt lat="43.629212" lon="10.90162"><ele>161.57142857142856</ele><time>2026-04-18T07:56:57.647Z</time></trkpt><trkpt lat="43.6291393" lon="10.9016611"><ele>162.2857142857143</ele><time>2026-04-18T07:56:58.652Z</time></trkpt><trkpt lat="43.6290765" lon="10.9017"><ele>163.0</ele><time>2026-04-18T07:56:59.649Z</time></trkpt><trkpt lat="43.6290197" lon="10.901742"><ele>162.20000000000002</ele><time>2026-04-18T07:57:00.656Z</time></trkpt><trkpt lat="43.6289575" lon="10.9018028"><ele>161.4</ele><time>2026-04-18T07:57:01.641Z</time></trkpt><trkpt lat="43.6288859" lon="10.9018655"><ele>160.60000000000002</ele><time>2026-04-18T07:57:02.64Z</time></trkpt><trkpt lat="43.6287984" lon="10.9019319"><ele>159.8</ele><time>2026-04-18T07:57:03.632Z</time></trkpt><trkpt lat="43.6287034" lon="10.9020038"><ele>159.0</ele><time>2026-04-18T07:57:04.636Z</time></trkpt><trkpt lat="43.6286083" lon="10.9020643"><ele>160.6</ele><time>2026-04-18T07:57:05.632Z</time></trkpt><trkpt lat="43.6285177" lon="10.9021262"><ele>162.2</ele><time>2026-04-18T07:57:06.628Z</time></trkpt><trkpt lat="43.6284304" lon="10.9021881"><ele>163.79999999999998</ele><time>2026-04-18T07:57:07.629Z</time></trkpt><trkpt lat="43.6283367" lon="10.9022593"><ele>165.4</ele><time>2026-04-18T07:57:08.629Z</time></trkpt><trkpt lat="43.6282554" lon="10.9023178"><ele>167.0</ele><time>2026-04-18T07:57:09.636Z</time></trkpt><trkpt lat="43.6281783" lon="10.9023656"><ele>167.0</ele><time>2026-04-18T07:57:10.63Z</time></trkpt><trkpt lat="43.6281087" lon="10.9024091"><ele>167.0</ele><time>2026-04-18T07:57:11.628Z</time></trkpt><trkpt lat="43.6280448" lon="10.9024777"><ele>167.0</ele><time>2026-04-18T07:57:12.642Z</time></trkpt><trkpt lat="43.6280038" lon="10.9025685"><ele>167.0</ele><time>2026-04-18T07:57:13.64Z</time></trkpt><trkpt lat="43.627979" lon="10.9026791"><ele>167.0</ele><time>2026-04-18T07:57:14.64Z</time></trkpt><trkpt lat="43.627978" lon="10.9028176"><ele>167.0</ele><time>2026-04-18T07:57:15.639Z</time></trkpt><trkpt lat="43.6279971" lon="10.9029594"><ele>166.2</ele><time>2026-04-18T07:57:16.647Z</time></trkpt><trkpt lat="43.6280301" lon="10.9031007"><ele>165.39999999999998</ele><time>2026-04-18T07:57:17.638Z</time></trkpt><trkpt lat="43.6280539" lon="10.903247"><ele>164.60000000000002</ele><time>2026-04-18T07:57:18.645Z</time></trkpt><trkpt lat="43.6280639" lon="10.9033949"><ele>163.8</ele><time>2026-04-18T07:57:19.652Z</time></trkpt><trkpt lat="43.6280707" lon="10.9035454"><ele>163.0</ele><time>2026-04-18T07:57:20.653Z</time></trkpt><trkpt lat="43.6280724" lon="10.903689"><ele>161.8</ele><time>2026-04-18T07:57:21.642Z</time></trkpt><trkpt lat="43.6280694" lon="10.9038267"><ele>160.60000000000002</ele><time>2026-04-18T07:57:22.637Z</time></trkpt><trkpt lat="43.6280728" lon="10.9039581"><ele>159.39999999999998</ele><time>2026-04-18T07:57:23.653Z</time></trkpt><trkpt lat="43.6280866" lon="10.904097"><ele>158.2</ele><time>2026-04-18T07:57:24.65Z</time></trkpt><trkpt lat="43.6280986" lon="10.9042396"><ele>157.0</ele><time>2026-04-18T07:57:25.646Z</time></trkpt><trkpt lat="43.6281052" lon="10.9043854"><ele>155.79999999999998</ele><time>2026-04-18T07:57:26.653Z</time></trkpt><trkpt lat="43.6280956" lon="10.904516"><ele>154.6</ele><time>2026-04-18T07:57:27.657Z</time></trkpt><trkpt lat="43.6280772" lon="10.9046639"><ele>153.39999999999998</ele><time>2026-04-18T07:57:28.65Z</time></trkpt><trkpt lat="43.6280443" lon="10.9048099"><ele>152.2</ele><time>2026-04-18T07:57:29.647Z</time></trkpt><trkpt lat="43.6280102" lon="10.9049664"><ele>151.0</ele><time>2026-04-18T07:57:30.65Z</time></trkpt><trkpt lat="43.6279555" lon="10.9051305"><ele>150.5</ele><time>2026-04-18T07:57:31.653Z</time></trkpt><trkpt lat="43.6278955" lon="10.9052935"><ele>150.0</ele><time>2026-04-18T07:57:32.656Z</time></trkpt><trkpt lat="43.6278349" lon="10.9054509"><ele>149.5</ele><time>2026-04-18T07:57:33.658Z</time></trkpt><trkpt lat="43.627789" lon="10.9056113"><ele>149.0</ele><time>2026-04-18T07:57:34.663Z</time></trkpt><trkpt lat="43.6277406" lon="10.9057512"><ele>149.0</ele><time>2026-04-18T07:57:35.66Z</time></trkpt><trkpt lat="43.627695" lon="10.9058758"><ele>149.0</ele><time>2026-04-18T07:57:36.667Z</time></trkpt><trkpt lat="43.627647" lon="10.9060062"><ele>149.0</ele><time>2026-04-18T07:57:37.663Z</time></trkpt><trkpt lat="43.6276123" lon="10.9061617"><ele>149.0</ele><time>2026-04-18T07:57:38.652Z</time></trkpt><trkpt lat="43.6275983" lon="10.906336"><ele>149.75</ele><time>2026-04-18T07:57:39.657Z</time></trkpt><trkpt lat="43.62758" lon="10.9065099"><ele>150.5</ele><time>2026-04-18T07:57:40.651Z</time></trkpt><trkpt lat="43.6275612" lon="10.9066955"><ele>151.25</ele><time>2026-04-18T07:57:41.657Z</time></trkpt><trkpt lat="43.6275398" lon="10.9068737"><ele>152.0</ele><time>2026-04-18T07:57:42.668Z</time></trkpt><trkpt lat="43.6275214" lon="10.9070313"><ele>153.5</ele><time>2026-04-18T07:57:43.68Z</time></trkpt><trkpt lat="43.6275028" lon="10.9071828"><ele>155.0</ele><time>2026-04-18T07:57:44.66Z</time></trkpt><trkpt lat="43.6274808" lon="10.9073313"><ele>156.5</ele><time>2026-04-18T07:57:45.664Z</time></trkpt><trkpt lat="43.6274486" lon="10.9074888"><ele>158.0</ele><time>2026-04-18T07:57:46.657Z</time></trkpt><trkpt lat="43.6274005" lon="10.9076665"><ele>159.0</ele><time>2026-04-18T07:57:47.664Z</time></trkpt><trkpt lat="43.6273474" lon="10.9078439"><ele>160.0</ele><time>2026-04-18T07:57:48.669Z</time></trkpt><trkpt lat="43.6272972" lon="10.9080145"><ele>161.0</ele><time>2026-04-18T07:57:49.663Z</time></trkpt><trkpt lat="43.6272509" lon="10.9081905"><ele>162.0</ele><time>2026-04-18T07:57:50.674Z</time></trkpt><trkpt lat="43.6271969" lon="10.9083668"><ele>161.6</ele><time>2026-04-18T07:57:51.666Z</time></trkpt><trkpt lat="43.6271411" lon="10.9085251"><ele>161.2</ele><time>2026-04-18T07:57:52.66Z</time></trkpt><trkpt lat="43.6271066" lon="10.9086766"><ele>160.8</ele><time>2026-04-18T07:57:53.663Z</time></trkpt><trkpt lat="43.6270634" lon="10.9088038"><ele>160.4</ele><time>2026-04-18T07:57:54.668Z</time></trkpt><trkpt lat="43.6270375" lon="10.9089245"><ele>160.0</ele><time>2026-04-18T07:57:55.67Z</time></trkpt><trkpt lat="43.6269994" lon="10.9090259"><ele>159.6</ele><time>2026-04-18T07:57:56.668Z</time></trkpt><trkpt lat="43.6269692" lon="10.9091494"><ele>159.2</ele><time>2026-04-18T07:57:57.672Z</time></trkpt><trkpt lat="43.6269144" lon="10.9092633"><ele>158.8</ele><time>2026-04-18T07:57:58.664Z</time></trkpt><trkpt lat="43.6268502" lon="10.9093723"><ele>158.4</ele><time>2026-04-18T07:57:59.66Z</time></trkpt><trkpt lat="43.6267817" lon="10.9094678"><ele>158.0</ele><time>2026-04-18T07:58:00.669Z</time></trkpt><trkpt lat="43.6266936" lon="10.9095749"><ele>158.0</ele><time>2026-04-18T07:58:01.661Z</time></trkpt><trkpt lat="43.6265931" lon="10.909689"><ele>158.0</ele><time>2026-04-18T07:58:02.666Z</time></trkpt><trkpt lat="43.626493" lon="10.9098148"><ele>158.0</ele><time>2026-04-18T07:58:03.664Z</time></trkpt><trkpt lat="43.6263878" lon="10.9099229"><ele>158.0</ele><time>2026-04-18T07:58:04.658Z</time></trkpt><trkpt lat="43.6262835" lon="10.910034"><ele>159.0</ele><time>2026-04-18T07:58:05.667Z</time></trkpt><trkpt lat="43.6261843" lon="10.9101536"><ele>160.0</ele><time>2026-04-18T07:58:06.649Z</time></trkpt><trkpt lat="43.6260855" lon="10.9102639"><ele>161.0</ele><time>2026-04-18T07:58:07.652Z</time></trkpt><trkpt lat="43.6259819" lon="10.9103463"><ele>162.0</ele><time>2026-04-18T07:58:08.651Z</time></trkpt><trkpt lat="43.6258805" lon="10.910422"><ele>162.0</ele><time>2026-04-18T07:58:09.641Z</time></trkpt><trkpt lat="43.6257706" lon="10.9104848"><ele>162.0</ele><time>2026-04-18T07:58:10.646Z</time></trkpt><trkpt lat="43.6256653" lon="10.9105347"><ele>162.0</ele><time>2026-04-18T07:58:11.657Z</time></trkpt><trkpt lat="43.625556" lon="10.9105573"><ele>162.0</ele><time>2026-04-18T07:58:12.66Z</time></trkpt><trkpt lat="43.6254586" lon="10.9105757"><ele>162.0</ele><time>2026-04-18T07:58:13.654Z</time></trkpt><trkpt lat="43.6253659" lon="10.9105962"><ele>162.39999999999998</ele><time>2026-04-18T07:58:14.673Z</time></trkpt><trkpt lat="43.6252733" lon="10.9106246"><ele>162.79999999999998</ele><time>2026-04-18T07:58:15.662Z</time></trkpt><trkpt lat="43.6251761" lon="10.9106413"><ele>163.2</ele><time>2026-04-18T07:58:16.652Z</time></trkpt><trkpt lat="43.6250581" lon="10.9106404"><ele>163.6</ele><time>2026-04-18T07:58:17.648Z</time></trkpt><trkpt lat="43.6249265" lon="10.9106309"><ele>164.0</ele><time>2026-04-18T07:58:18.646Z</time></trkpt><trkpt lat="43.6247911" lon="10.9106209"><ele>164.0</ele><time>2026-04-18T07:58:19.647Z</time></trkpt><trkpt lat="43.6246564" lon="10.9106126"><ele>164.0</ele><time>2026-04-18T07:58:20.647Z</time></trkpt><trkpt lat="43.6245054" lon="10.9105989"><ele>164.0</ele><time>2026-04-18T07:58:21.651Z</time></trkpt><trkpt lat="43.6243548" lon="10.910583"><ele>164.0</ele><time>2026-04-18T07:58:22.662Z</time></trkpt><trkpt lat="43.6242216" lon="10.9105818"><ele>163.0</ele><time>2026-04-18T07:58:23.664Z</time></trkpt><trkpt lat="43.6240988" lon="10.9105684"><ele>162.0</ele><time>2026-04-18T07:58:24.671Z</time></trkpt><trkpt lat="43.6239801" lon="10.9105616"><ele>161.0</ele><time>2026-04-18T07:58:25.664Z</time></trkpt><trkpt lat="43.6238774" lon="10.9105516"><ele>160.0</ele><time>2026-04-18T07:58:26.658Z</time></trkpt><trkpt lat="43.6237834" lon="10.9105483"><ele>159.0</ele><time>2026-04-18T07:58:27.661Z</time></trkpt><trkpt lat="43.6236906" lon="10.9105355"><ele>158.8</ele><time>2026-04-18T07:58:28.668Z</time></trkpt><trkpt lat="43.6236038" lon="10.9105261"><ele>158.60000000000002</ele><time>2026-04-18T07:58:29.665Z</time></trkpt><trkpt lat="43.6235158" lon="10.9104993"><ele>158.4</ele><time>2026-04-18T07:58:30.662Z</time></trkpt><trkpt lat="43.6234237" lon="10.9104486"><ele>158.20000000000002</ele><time>2026-04-18T07:58:31.67Z</time></trkpt><trkpt lat="43.623328" lon="10.9103909"><ele>158.0</ele><time>2026-04-18T07:58:32.666Z</time></trkpt><trkpt lat="43.6232487" lon="10.9103383"><ele>158.0</ele><time>2026-04-18T07:58:33.668Z</time></trkpt><trkpt lat="43.6231677" lon="10.9102878"><ele>158.0</ele><time>2026-04-18T07:58:34.664Z</time></trkpt><trkpt lat="43.6231012" lon="10.9102417"><ele>158.0</ele><time>2026-04-18T07:58:35.658Z</time></trkpt><trkpt lat="43.6229948" lon="10.910202"><ele>158.0</ele><time>2026-04-18T07:58:37.652Z</time></trkpt><trkpt lat="43.6228919" lon="10.9102659"><ele>158.0</ele><time>2026-04-18T07:58:39.665Z</time></trkpt><trkpt lat="43.6228517" lon="10.9103558"><ele>158.0</ele><time>2026-04-18T07:58:40.648Z</time></trkpt><trkpt lat="43.6228266" lon="10.9104548"><ele>158.0</ele><time>2026-04-18T07:58:41.641Z</time></trkpt><trkpt lat="43.6228236" lon="10.9105697"><ele>158.0</ele><time>2026-04-18T07:58:42.645Z</time></trkpt><trkpt lat="43.6228327" lon="10.9106895"><ele>158.0</ele><time>2026-04-18T07:58:43.646Z</time></trkpt><trkpt lat="43.622867" lon="10.910805"><ele>158.0</ele><time>2026-04-18T07:58:44.647Z</time></trkpt><trkpt lat="43.6229183" lon="10.9109326"><ele>158.0</ele><time>2026-04-18T07:58:45.669Z</time></trkpt><trkpt lat="43.6229551" lon="10.9110556"><ele>156.4</ele><time>2026-04-18T07:58:46.661Z</time></trkpt><trkpt lat="43.6229884" lon="10.9111861"><ele>154.8</ele><time>2026-04-18T07:58:47.657Z</time></trkpt><trkpt lat="43.6230201" lon="10.9113286"><ele>153.2</ele><time>2026-04-18T07:58:48.664Z</time></trkpt><trkpt lat="43.6230494" lon="10.9114541"><ele>151.6</ele><time>2026-04-18T07:58:49.665Z</time></trkpt><trkpt lat="43.6230581" lon="10.9116003"><ele>150.0</ele><time>2026-04-18T07:58:50.655Z</time></trkpt><trkpt lat="43.6230659" lon="10.9117476"><ele>148.8</ele><time>2026-04-18T07:58:51.66Z</time></trkpt><trkpt lat="43.6230589" lon="10.9118723"><ele>147.6</ele><time>2026-04-18T07:58:52.656Z</time></trkpt><trkpt lat="43.6230545" lon="10.9119938"><ele>146.4</ele><time>2026-04-18T07:58:53.65Z</time></trkpt><trkpt lat="43.6230408" lon="10.9121247"><ele>145.2</ele><time>2026-04-18T07:58:54.642Z</time></trkpt><trkpt lat="43.6229987" lon="10.9122795"><ele>144.0</ele><time>2026-04-18T07:58:55.649Z</time></trkpt><trkpt lat="43.6229479" lon="10.9124455"><ele>144.5</ele><time>2026-04-18T07:58:56.663Z</time></trkpt><trkpt lat="43.6228921" lon="10.9126131"><ele>145.0</ele><time>2026-04-18T07:58:57.65Z</time></trkpt><trkpt lat="43.6228423" lon="10.9127829"><ele>145.5</ele><time>2026-04-18T07:58:58.654Z</time></trkpt><trkpt lat="43.6228005" lon="10.9129552"><ele>146.0</ele><time>2026-04-18T07:58:59.651Z</time></trkpt><trkpt lat="43.6227718" lon="10.9131113"><ele>146.75</ele><time>2026-04-18T07:59:00.646Z</time></trkpt><trkpt lat="43.6227405" lon="10.9132608"><ele>147.5</ele><time>2026-04-18T07:59:01.661Z</time></trkpt><trkpt lat="43.622704" lon="10.913402"><ele>148.25</ele><time>2026-04-18T07:59:02.659Z</time></trkpt><trkpt lat="43.622677" lon="10.9135608"><ele>149.0</ele><time>2026-04-18T07:59:03.661Z</time></trkpt><trkpt lat="43.622647" lon="10.9137186"><ele>149.6</ele><time>2026-04-18T07:59:04.661Z</time></trkpt><trkpt lat="43.6226111" lon="10.9138671"><ele>150.2</ele><time>2026-04-18T07:59:05.662Z</time></trkpt><trkpt lat="43.6225789" lon="10.913995"><ele>150.79999999999998</ele><time>2026-04-18T07:59:06.659Z</time></trkpt><trkpt lat="43.6225442" lon="10.9141103"><ele>151.4</ele><time>2026-04-18T07:59:07.663Z</time></trkpt><trkpt lat="43.6225111" lon="10.9142004"><ele>152.0</ele><time>2026-04-18T07:59:08.664Z</time></trkpt><trkpt lat="43.6224687" lon="10.9143035"><ele>152.4</ele><time>2026-04-18T07:59:09.673Z</time></trkpt><trkpt lat="43.6224003" lon="10.9143956"><ele>152.79999999999998</ele><time>2026-04-18T07:59:10.664Z</time></trkpt><trkpt lat="43.6223146" lon="10.9144644"><ele>153.2</ele><time>2026-04-18T07:59:11.655Z</time></trkpt><trkpt lat="43.6222139" lon="10.9145248"><ele>153.6</ele><time>2026-04-18T07:59:12.661Z</time></trkpt><trkpt lat="43.6221116" lon="10.9145714"><ele>154.0</ele><time>2026-04-18T07:59:13.66Z</time></trkpt><trkpt lat="43.6219995" lon="10.9146293"><ele>157.0</ele><time>2026-04-18T07:59:14.662Z</time></trkpt><trkpt lat="43.6218881" lon="10.914696"><ele>160.0</ele><time>2026-04-18T07:59:15.649Z</time></trkpt><trkpt lat="43.621777" lon="10.914776"><ele>163.0</ele><time>2026-04-18T07:59:16.653Z</time></trkpt><trkpt lat="43.6216723" lon="10.9148339"><ele>166.0</ele><time>2026-04-18T07:59:17.647Z</time></trkpt><trkpt lat="43.6215892" lon="10.914892"><ele>166.0</ele><time>2026-04-18T07:59:18.654Z</time></trkpt><trkpt lat="43.6214993" lon="10.9149467"><ele>166.0</ele><time>2026-04-18T07:59:19.642Z</time></trkpt><trkpt lat="43.6214207" lon="10.9149735"><ele>166.0</ele><time>2026-04-18T07:59:20.645Z</time></trkpt><trkpt lat="43.6213296" lon="10.9149954"><ele>166.0</ele><time>2026-04-18T07:59:21.645Z</time></trkpt><trkpt lat="43.6212373" lon="10.915013"><ele>166.0</ele><time>2026-04-18T07:59:22.645Z</time></trkpt><trkpt lat="43.6211416" lon="10.9150365"><ele>167.0</ele><time>2026-04-18T07:59:23.643Z</time></trkpt><trkpt lat="43.6210671" lon="10.9150491"><ele>168.0</ele><time>2026-04-18T07:59:24.648Z</time></trkpt><trkpt lat="43.6210032" lon="10.9150531"><ele>169.0</ele><time>2026-04-18T07:59:25.643Z</time></trkpt><trkpt lat="43.6209324" lon="10.9150393"><ele>170.0</ele><time>2026-04-18T07:59:26.644Z</time></trkpt><trkpt lat="43.6208619" lon="10.9150321"><ele>171.0</ele><time>2026-04-18T07:59:27.641Z</time></trkpt><trkpt lat="43.6207738" lon="10.9150103"><ele>172.0</ele><time>2026-04-18T07:59:29.642Z</time></trkpt><trkpt lat="43.6207431" lon="10.9150865"><ele>173.0</ele><time>2026-04-18T07:59:32.651Z</time></trkpt><trkpt lat="43.6207901" lon="10.9151612"><ele>173.4</ele><time>2026-04-18T07:59:34.653Z</time></trkpt><trkpt lat="43.6208723" lon="10.9151921"><ele>173.8</ele><time>2026-04-18T07:59:35.67Z</time></trkpt><trkpt lat="43.6209785" lon="10.9152121"><ele>174.2</ele><time>2026-04-18T07:59:36.651Z</time></trkpt><trkpt lat="43.62108" lon="10.9152511"><ele>174.6</ele><time>2026-04-18T07:59:37.661Z</time></trkpt><trkpt lat="43.6211802" lon="10.9152971"><ele>175.0</ele><time>2026-04-18T07:59:38.664Z</time></trkpt><trkpt lat="43.6212766" lon="10.9153503"><ele>174.2</ele><time>2026-04-18T07:59:39.655Z</time></trkpt><trkpt lat="43.6213647" lon="10.9154096"><ele>173.4</ele><time>2026-04-18T07:59:40.649Z</time></trkpt><trkpt lat="43.6214484" lon="10.9154761"><ele>172.60000000000002</ele><time>2026-04-18T07:59:41.65Z</time></trkpt><trkpt lat="43.6215293" lon="10.9155672"><ele>171.8</ele><time>2026-04-18T07:59:42.645Z</time></trkpt><trkpt lat="43.6216001" lon="10.9156739"><ele>171.0</ele><time>2026-04-18T07:59:43.646Z</time></trkpt><trkpt lat="43.6216462" lon="10.9158316"><ele>171.0</ele><time>2026-04-18T07:59:44.643Z</time></trkpt><trkpt lat="43.6216764" lon="10.9159984"><ele>171.0</ele><time>2026-04-18T07:59:45.641Z</time></trkpt><trkpt lat="43.6217071" lon="10.9161767"><ele>171.0</ele><time>2026-04-18T07:59:46.66Z</time></trkpt><trkpt lat="43.6217454" lon="10.916354"><ele>171.0</ele><time>2026-04-18T07:59:47.664Z</time></trkpt><trkpt lat="43.6218003" lon="10.9165356"><ele>171.0</ele><time>2026-04-18T07:59:48.656Z</time></trkpt><trkpt lat="43.6218453" lon="10.916715"><ele>171.0</ele><time>2026-04-18T07:59:49.663Z</time></trkpt><trkpt lat="43.6218963" lon="10.9168828"><ele>171.0</ele><time>2026-04-18T07:59:50.657Z</time></trkpt><trkpt lat="43.6219459" lon="10.9170452"><ele>171.0</ele><time>2026-04-18T07:59:51.666Z</time></trkpt><trkpt lat="43.6219892" lon="10.9172078"><ele>170.75</ele><time>2026-04-18T07:59:52.663Z</time></trkpt><trkpt lat="43.6220294" lon="10.9173651"><ele>170.5</ele><time>2026-04-18T07:59:53.667Z</time></trkpt><trkpt lat="43.6220734" lon="10.91751"><ele>170.25</ele><time>2026-04-18T07:59:54.661Z</time></trkpt><trkpt lat="43.6221168" lon="10.9176497"><ele>170.0</ele><time>2026-04-18T07:59:55.663Z</time></trkpt><trkpt lat="43.6221615" lon="10.9177951"><ele>170.0</ele><time>2026-04-18T07:59:56.658Z</time></trkpt><trkpt lat="43.6222008" lon="10.9179255"><ele>170.0</ele><time>2026-04-18T07:59:57.665Z</time></trkpt><trkpt lat="43.622233" lon="10.9180433"><ele>170.0</ele><time>2026-04-18T07:59:58.656Z</time></trkpt><trkpt lat="43.6222712" lon="10.9181517"><ele>170.0</ele><time>2026-04-18T07:59:59.656Z</time></trkpt><trkpt lat="43.6223037" lon="10.9182496"><ele>170.0</ele><time>2026-04-18T08:00:00.658Z</time></trkpt><trkpt lat="43.6223473" lon="10.9183615"><ele>169.83333333333331</ele><time>2026-04-18T08:00:02.656Z</time></trkpt><trkpt lat="43.6223218" lon="10.9185177"><ele>169.66666666666666</ele><time>2026-04-18T08:00:04.648Z</time></trkpt><trkpt lat="43.6222799" lon="10.9186155"><ele>169.5</ele><time>2026-04-18T08:00:05.642Z</time></trkpt><trkpt lat="43.6222451" lon="10.9187141"><ele>169.33333333333334</ele><time>2026-04-18T08:00:06.635Z</time></trkpt><trkpt lat="43.6222237" lon="10.9188195"><ele>169.16666666666669</ele><time>2026-04-18T08:00:07.634Z</time></trkpt><trkpt lat="43.6222012" lon="10.9189185"><ele>169.0</ele><time>2026-04-18T08:00:08.633Z</time></trkpt><trkpt lat="43.6221646" lon="10.9190861"><ele>169.0</ele><time>2026-04-18T08:00:10.637Z</time></trkpt><trkpt lat="43.6221397" lon="10.9191999"><ele>169.0</ele><time>2026-04-18T08:00:11.637Z</time></trkpt><trkpt lat="43.6221148" lon="10.919342"><ele>169.0</ele><time>2026-04-18T08:00:12.638Z</time></trkpt><trkpt lat="43.6220856" lon="10.9195055"><ele>169.0</ele><time>2026-04-18T08:00:13.637Z</time></trkpt><trkpt lat="43.6220452" lon="10.9196603"><ele>169.0</ele><time>2026-04-18T08:00:14.641Z</time></trkpt><trkpt lat="43.6220001" lon="10.9198264"><ele>167.39999999999998</ele><time>2026-04-18T08:00:15.649Z</time></trkpt><trkpt lat="43.6219629" lon="10.919987"><ele>165.8</ele><time>2026-04-18T08:00:16.65Z</time></trkpt><trkpt lat="43.6219194" lon="10.9201126"><ele>164.2</ele><time>2026-04-18T08:00:17.648Z</time></trkpt><trkpt lat="43.621881" lon="10.9202238"><ele>162.60000000000002</ele><time>2026-04-18T08:00:18.675Z</time></trkpt><trkpt lat="43.62186" lon="10.9203334"><ele>161.0</ele><time>2026-04-18T08:00:19.657Z</time></trkpt><trkpt lat="43.6218453" lon="10.9204418"><ele>160.0</ele><time>2026-04-18T08:00:20.658Z</time></trkpt><trkpt lat="43.621839" lon="10.9205373"><ele>159.0</ele><time>2026-04-18T08:00:21.655Z</time></trkpt><trkpt lat="43.621839" lon="10.9207078"><ele>158.0</ele><time>2026-04-18T08:00:23.664Z</time></trkpt><trkpt lat="43.6218459" lon="10.9207946"><ele>157.0</ele><time>2026-04-18T08:00:24.652Z</time></trkpt><trkpt lat="43.6218318" lon="10.9209081"><ele>156.0</ele><time>2026-04-18T08:00:25.656Z</time></trkpt><trkpt lat="43.6217962" lon="10.9210455"><ele>155.0</ele><time>2026-04-18T08:00:26.647Z</time></trkpt><trkpt lat="43.6217502" lon="10.9211769"><ele>153.25</ele><time>2026-04-18T08:00:27.643Z</time></trkpt><trkpt lat="43.6217025" lon="10.9213254"><ele>151.5</ele><time>2026-04-18T08:00:28.654Z</time></trkpt><trkpt lat="43.6216552" lon="10.9214902"><ele>149.75</ele><time>2026-04-18T08:00:29.632Z</time></trkpt><trkpt lat="43.6216163" lon="10.921668"><ele>148.0</ele><time>2026-04-18T08:00:30.641Z</time></trkpt><trkpt lat="43.6215931" lon="10.9218838"><ele>147.0</ele><time>2026-04-18T08:00:31.648Z</time></trkpt><trkpt lat="43.6215768" lon="10.9221161"><ele>146.0</ele><time>2026-04-18T08:00:32.646Z</time></trkpt><trkpt lat="43.6215562" lon="10.922309"><ele>145.0</ele><time>2026-04-18T08:00:33.647Z</time></trkpt><trkpt lat="43.6215341" lon="10.9224957"><ele>144.0</ele><time>2026-04-18T08:00:34.649Z</time></trkpt><trkpt lat="43.6215166" lon="10.9226622"><ele>143.25</ele><time>2026-04-18T08:00:35.646Z</time></trkpt><trkpt lat="43.6215034" lon="10.9228357"><ele>142.5</ele><time>2026-04-18T08:00:36.655Z</time></trkpt><trkpt lat="43.6214838" lon="10.9229968"><ele>141.75</ele><time>2026-04-18T08:00:37.648Z</time></trkpt><trkpt lat="43.6214674" lon="10.9231495"><ele>141.0</ele><time>2026-04-18T08:00:38.656Z</time></trkpt><trkpt lat="43.6214534" lon="10.9232905"><ele>140.4</ele><time>2026-04-18T08:00:39.649Z</time></trkpt><trkpt lat="43.6214305" lon="10.9234189"><ele>139.8</ele><time>2026-04-18T08:00:40.648Z</time></trkpt><trkpt lat="43.6214174" lon="10.9235472"><ele>139.20000000000002</ele><time>2026-04-18T08:00:41.653Z</time></trkpt><trkpt lat="43.6214168" lon="10.9236655"><ele>138.6</ele><time>2026-04-18T08:00:42.65Z</time></trkpt><trkpt lat="43.6214342" lon="10.9237869"><ele>138.0</ele><time>2026-04-18T08:00:43.652Z</time></trkpt><trkpt lat="43.6214591" lon="10.9239196"><ele>138.0</ele><time>2026-04-18T08:00:44.645Z</time></trkpt><trkpt lat="43.621507" lon="10.9240858"><ele>138.0</ele><time>2026-04-18T08:00:45.646Z</time></trkpt><trkpt lat="43.6215484" lon="10.924267"><ele>138.0</ele><time>2026-04-18T08:00:46.645Z</time></trkpt><trkpt lat="43.6215842" lon="10.9244372"><ele>138.0</ele><time>2026-04-18T08:00:47.65Z</time></trkpt><trkpt lat="43.6216211" lon="10.9246112"><ele>138.25</ele><time>2026-04-18T08:00:48.661Z</time></trkpt><trkpt lat="43.6216507" lon="10.9247924"><ele>138.5</ele><time>2026-04-18T08:00:49.669Z</time></trkpt><trkpt lat="43.6216759" lon="10.9249627"><ele>138.75</ele><time>2026-04-18T08:00:50.659Z</time></trkpt><trkpt lat="43.6216942" lon="10.9251136"><ele>139.0</ele><time>2026-04-18T08:00:51.66Z</time></trkpt><trkpt lat="43.6217224" lon="10.9252696"><ele>140.5</ele><time>2026-04-18T08:00:52.652Z</time></trkpt><trkpt lat="43.6217664" lon="10.9254305"><ele>142.0</ele><time>2026-04-18T08:00:53.656Z</time></trkpt><trkpt lat="43.6218211" lon="10.9255898"><ele>143.5</ele><time>2026-04-18T08:00:54.65Z</time></trkpt><trkpt lat="43.621893" lon="10.9257413"><ele>145.0</ele><time>2026-04-18T08:00:55.651Z</time></trkpt><trkpt lat="43.6219764" lon="10.9258884"><ele>144.75</ele><time>2026-04-18T08:00:56.656Z</time></trkpt><trkpt lat="43.6220541" lon="10.926036"><ele>144.5</ele><time>2026-04-18T08:00:57.644Z</time></trkpt><trkpt lat="43.6221209" lon="10.9261573"><ele>144.25</ele><time>2026-04-18T08:00:58.65Z</time></trkpt><trkpt lat="43.6221915" lon="10.9262785"><ele>144.0</ele><time>2026-04-18T08:00:59.641Z</time></trkpt><trkpt lat="43.6222669" lon="10.9263936"><ele>144.0</ele><time>2026-04-18T08:01:00.65Z</time></trkpt><trkpt lat="43.6223536" lon="10.9265015"><ele>144.0</ele><time>2026-04-18T08:01:01.643Z</time></trkpt><trkpt lat="43.6224235" lon="10.926607"><ele>144.0</ele><time>2026-04-18T08:01:02.647Z</time></trkpt><trkpt lat="43.6224936" lon="10.9267314"><ele>144.0</ele><time>2026-04-18T08:01:03.637Z</time></trkpt><trkpt lat="43.6225736" lon="10.926849"><ele>144.8</ele><time>2026-04-18T08:01:04.641Z</time></trkpt><trkpt lat="43.622646" lon="10.926942"><ele>145.60000000000002</ele><time>2026-04-18T08:01:05.656Z</time></trkpt><trkpt lat="43.6227134" lon="10.9270329"><ele>146.4</ele><time>2026-04-18T08:01:06.658Z</time></trkpt><trkpt lat="43.6227728" lon="10.9271181"><ele>147.20000000000002</ele><time>2026-04-18T08:01:07.66Z</time></trkpt><trkpt lat="43.6228246" lon="10.9272198"><ele>148.0</ele><time>2026-04-18T08:01:08.66Z</time></trkpt><trkpt lat="43.6228629" lon="10.9273204"><ele>148.0</ele><time>2026-04-18T08:01:09.661Z</time></trkpt><trkpt lat="43.6228833" lon="10.9274382"><ele>148.0</ele><time>2026-04-18T08:01:10.656Z</time></trkpt><trkpt lat="43.6228896" lon="10.9275458"><ele>148.0</ele><time>2026-04-18T08:01:11.653Z</time></trkpt><trkpt lat="43.622857" lon="10.9276617"><ele>148.0</ele><time>2026-04-18T08:01:12.676Z</time></trkpt><trkpt lat="43.6228005" lon="10.9277828"><ele>148.0</ele><time>2026-04-18T08:01:13.675Z</time></trkpt><trkpt lat="43.6227543" lon="10.9278921"><ele>148.0</ele><time>2026-04-18T08:01:14.656Z</time></trkpt><trkpt lat="43.6227201" lon="10.9279974"><ele>148.0</ele><time>2026-04-18T08:01:15.657Z</time></trkpt><trkpt lat="43.6227112" lon="10.9280925"><ele>148.0</ele><time>2026-04-18T08:01:16.65Z</time></trkpt><trkpt lat="43.6227235" lon="10.9281921"><ele>148.0</ele><time>2026-04-18T08:01:17.642Z</time></trkpt><trkpt lat="43.6227424" lon="10.9282922"><ele>148.0</ele><time>2026-04-18T08:01:18.644Z</time></trkpt><trkpt lat="43.6228039" lon="10.9284406"><ele>148.0</ele><time>2026-04-18T08:01:20.666Z</time></trkpt><trkpt lat="43.62284" lon="10.9285179"><ele>144.0</ele><time>2026-04-18T08:01:21.65Z</time></trkpt><trkpt lat="43.6228698" lon="10.9286339"><ele>140.0</ele><time>2026-04-18T08:01:22.645Z</time></trkpt><trkpt lat="43.6228685" lon="10.928753"><ele>136.0</ele><time>2026-04-18T08:01:23.654Z</time></trkpt><trkpt lat="43.6228551" lon="10.928896"><ele>132.0</ele><time>2026-04-18T08:01:24.652Z</time></trkpt><trkpt lat="43.6228343" lon="10.9290417"><ele>128.0</ele><time>2026-04-18T08:01:25.654Z</time></trkpt><trkpt lat="43.6228147" lon="10.9291786"><ele>129.8</ele><time>2026-04-18T08:01:26.647Z</time></trkpt><trkpt lat="43.6227827" lon="10.9293109"><ele>131.60000000000002</ele><time>2026-04-18T08:01:27.639Z</time></trkpt><trkpt lat="43.6227506" lon="10.9294441"><ele>133.39999999999998</ele><time>2026-04-18T08:01:28.653Z</time></trkpt><trkpt lat="43.6227145" lon="10.9295489"><ele>135.2</ele><time>2026-04-18T08:01:29.648Z</time></trkpt><trkpt lat="43.6226852" lon="10.9296338"><ele>137.0</ele><time>2026-04-18T08:01:30.656Z</time></trkpt><trkpt lat="43.6227027" lon="10.9298129"><ele>137.0</ele><time>2026-04-18T08:01:32.653Z</time></trkpt><trkpt lat="43.622752" lon="10.9298997"><ele>137.0</ele><time>2026-04-18T08:01:33.641Z</time></trkpt><trkpt lat="43.622829" lon="10.9299787"><ele>137.0</ele><time>2026-04-18T08:01:34.657Z</time></trkpt><trkpt lat="43.6229219" lon="10.9300617"><ele>137.0</ele><time>2026-04-18T08:01:35.654Z</time></trkpt><trkpt lat="43.6230217" lon="10.9301569"><ele>137.0</ele><time>2026-04-18T08:01:36.657Z</time></trkpt><trkpt lat="43.6231216" lon="10.9302781"><ele>137.75</ele><time>2026-04-18T08:01:37.658Z</time></trkpt><trkpt lat="43.6232292" lon="10.9304048"><ele>138.5</ele><time>2026-04-18T08:01:38.657Z</time></trkpt><trkpt lat="43.6233347" lon="10.9305205"><ele>139.25</ele><time>2026-04-18T08:01:39.65Z</time></trkpt><trkpt lat="43.6234197" lon="10.9306155"><ele>140.0</ele><time>2026-04-18T08:01:40.654Z</time></trkpt><trkpt lat="43.6234866" lon="10.9306864"><ele>140.0</ele><time>2026-04-18T08:01:41.646Z</time></trkpt><trkpt lat="43.6235546" lon="10.9307509"><ele>140.0</ele><time>2026-04-18T08:01:42.653Z</time></trkpt><trkpt lat="43.6236086" lon="10.9308077"><ele>140.0</ele><time>2026-04-18T08:01:43.653Z</time></trkpt><trkpt lat="43.6236546" lon="10.9308721"><ele>140.0</ele><time>2026-04-18T08:01:44.633Z</time></trkpt><trkpt lat="43.6236821" lon="10.9309646"><ele>140.0</ele><time>2026-04-18T08:01:45.643Z</time></trkpt><trkpt lat="43.6236846" lon="10.9310737"><ele>140.0</ele><time>2026-04-18T08:01:46.655Z</time></trkpt><trkpt lat="43.6236593" lon="10.9312142"><ele>139.8</ele><time>2026-04-18T08:01:47.658Z</time></trkpt><trkpt lat="43.6236112" lon="10.9313512"><ele>139.6</ele><time>2026-04-18T08:01:48.657Z</time></trkpt><trkpt lat="43.6235656" lon="10.9314791"><ele>139.4</ele><time>2026-04-18T08:01:49.652Z</time></trkpt><trkpt lat="43.623514" lon="10.9316171"><ele>139.2</ele><time>2026-04-18T08:01:50.651Z</time></trkpt><trkpt lat="43.6234838" lon="10.931745"><ele>139.0</ele><time>2026-04-18T08:01:51.661Z</time></trkpt><trkpt lat="43.6234591" lon="10.931871"><ele>136.2</ele><time>2026-04-18T08:01:52.642Z</time></trkpt><trkpt lat="43.6234381" lon="10.9319882"><ele>133.4</ele><time>2026-04-18T08:01:53.643Z</time></trkpt><trkpt lat="43.6234345" lon="10.9321154"><ele>130.6</ele><time>2026-04-18T08:01:54.633Z</time></trkpt><trkpt lat="43.6234564" lon="10.9322425"><ele>127.8</ele><time>2026-04-18T08:01:55.638Z</time></trkpt><trkpt lat="43.6235058" lon="10.9323638"><ele>125.0</ele><time>2026-04-18T08:01:56.636Z</time></trkpt><trkpt lat="43.6235564" lon="10.9324703"><ele>126.8</ele><time>2026-04-18T08:01:57.637Z</time></trkpt><trkpt lat="43.6236191" lon="10.9325899"><ele>128.6</ele><time>2026-04-18T08:01:58.645Z</time></trkpt><trkpt lat="43.6236916" lon="10.9327092"><ele>130.4</ele><time>2026-04-18T08:01:59.638Z</time></trkpt><trkpt lat="43.6237694" lon="10.9328372"><ele>132.2</ele><time>2026-04-18T08:02:00.636Z</time></trkpt><trkpt lat="43.6238351" lon="10.9329535"><ele>134.0</ele><time>2026-04-18T08:02:01.642Z</time></trkpt><trkpt lat="43.6238822" lon="10.9330694"><ele>134.0</ele><time>2026-04-18T08:02:02.636Z</time></trkpt><trkpt lat="43.6239354" lon="10.9332056"><ele>134.0</ele><time>2026-04-18T08:02:03.644Z</time></trkpt><trkpt lat="43.6239793" lon="10.9333545"><ele>134.0</ele><time>2026-04-18T08:02:04.629Z</time></trkpt><trkpt lat="43.6239959" lon="10.9335114"><ele>134.0</ele><time>2026-04-18T08:02:05.625Z</time></trkpt><trkpt lat="43.6239994" lon="10.93365"><ele>134.0</ele><time>2026-04-18T08:02:06.617Z</time></trkpt><trkpt lat="43.6239938" lon="10.9337784"><ele>134.16666666666666</ele><time>2026-04-18T08:02:07.617Z</time></trkpt><trkpt lat="43.6239883" lon="10.9339061"><ele>134.33333333333331</ele><time>2026-04-18T08:02:08.62Z</time></trkpt><trkpt lat="43.6239914" lon="10.9340245"><ele>134.5</ele><time>2026-04-18T08:02:09.621Z</time></trkpt><trkpt lat="43.6239948" lon="10.9341328"><ele>134.66666666666666</ele><time>2026-04-18T08:02:10.623Z</time></trkpt><trkpt lat="43.6240068" lon="10.9342285"><ele>134.83333333333334</ele><time>2026-04-18T08:02:11.619Z</time></trkpt><trkpt lat="43.6240306" lon="10.934332"><ele>135.0</ele><time>2026-04-18T08:02:12.615Z</time></trkpt><trkpt lat="43.6240692" lon="10.9344374"><ele>132.6</ele><time>2026-04-18T08:02:13.632Z</time></trkpt><trkpt lat="43.6241226" lon="10.9345643"><ele>130.2</ele><time>2026-04-18T08:02:14.634Z</time></trkpt><trkpt lat="43.6241696" lon="10.9347007"><ele>127.80000000000001</ele><time>2026-04-18T08:02:15.626Z</time></trkpt><trkpt lat="43.6242184" lon="10.93485"><ele>125.4</ele><time>2026-04-18T08:02:16.634Z</time></trkpt><trkpt lat="43.6242646" lon="10.9349907"><ele>123.0</ele><time>2026-04-18T08:02:17.62Z</time></trkpt><trkpt lat="43.624303" lon="10.9351319"><ele>122.2</ele><time>2026-04-18T08:02:18.629Z</time></trkpt><trkpt lat="43.6243382" lon="10.9352632"><ele>121.4</ele><time>2026-04-18T08:02:19.633Z</time></trkpt><trkpt lat="43.6243709" lon="10.9353755"><ele>120.60000000000001</ele><time>2026-04-18T08:02:20.63Z</time></trkpt><trkpt lat="43.624409" lon="10.9354783"><ele>119.80000000000001</ele><time>2026-04-18T08:02:21.633Z</time></trkpt><trkpt lat="43.6244476" lon="10.9355765"><ele>119.0</ele><time>2026-04-18T08:02:22.64Z</time></trkpt><trkpt lat="43.6245095" lon="10.9357095"><ele>119.0</ele><time>2026-04-18T08:02:24.628Z</time></trkpt><trkpt lat="43.6245616" lon="10.93586"><ele>119.0</ele><time>2026-04-18T08:02:26.625Z</time></trkpt><trkpt lat="43.6245133" lon="10.936014"><ele>119.0</ele><time>2026-04-18T08:02:28.622Z</time></trkpt><trkpt lat="43.6244422" lon="10.9360832"><ele>119.0</ele><time>2026-04-18T08:02:29.63Z</time></trkpt><trkpt lat="43.624356" lon="10.9361266"><ele>119.0</ele><time>2026-04-18T08:02:30.629Z</time></trkpt><trkpt lat="43.6242703" lon="10.9361394"><ele>119.2</ele><time>2026-04-18T08:02:31.624Z</time></trkpt><trkpt lat="43.6241869" lon="10.9361739"><ele>119.4</ele><time>2026-04-18T08:02:32.626Z</time></trkpt><trkpt lat="43.6241036" lon="10.9362515"><ele>119.6</ele><time>2026-04-18T08:02:33.627Z</time></trkpt><trkpt lat="43.6240277" lon="10.9363426"><ele>119.8</ele><time>2026-04-18T08:02:34.619Z</time></trkpt><trkpt lat="43.6239666" lon="10.9364332"><ele>120.0</ele><time>2026-04-18T08:02:35.625Z</time></trkpt><trkpt lat="43.6239184" lon="10.9365334"><ele>120.0</ele><time>2026-04-18T08:02:36.627Z</time></trkpt><trkpt lat="43.6238637" lon="10.9366376"><ele>120.0</ele><time>2026-04-18T08:02:37.627Z</time></trkpt><trkpt lat="43.6238251" lon="10.9367521"><ele>120.0</ele><time>2026-04-18T08:02:38.635Z</time></trkpt><trkpt lat="43.6237816" lon="10.9368892"><ele>120.0</ele><time>2026-04-18T08:02:39.623Z</time></trkpt><trkpt lat="43.6237623" lon="10.9370212"><ele>120.0</ele><time>2026-04-18T08:02:40.624Z</time></trkpt><trkpt lat="43.6237489" lon="10.9371388"><ele>119.0</ele><time>2026-04-18T08:02:41.63Z</time></trkpt><trkpt lat="43.6237192" lon="10.9372438"><ele>118.0</ele><time>2026-04-18T08:02:42.624Z</time></trkpt><trkpt lat="43.6236889" lon="10.93735"><ele>117.0</ele><time>2026-04-18T08:02:43.64Z</time></trkpt><trkpt lat="43.6236382" lon="10.9374507"><ele>116.0</ele><time>2026-04-18T08:02:44.636Z</time></trkpt><trkpt lat="43.6235705" lon="10.9375537"><ele>115.0</ele><time>2026-04-18T08:02:45.643Z</time></trkpt><trkpt lat="43.6234993" lon="10.9376709"><ele>113.16666666666667</ele><time>2026-04-18T08:02:46.638Z</time></trkpt><trkpt lat="43.623441" lon="10.9377788"><ele>111.33333333333334</ele><time>2026-04-18T08:02:47.637Z</time></trkpt><trkpt lat="43.6233732" lon="10.9378782"><ele>109.5</ele><time>2026-04-18T08:02:48.64Z</time></trkpt><trkpt lat="43.6233181" lon="10.9379666"><ele>107.66666666666666</ele><time>2026-04-18T08:02:49.647Z</time></trkpt><trkpt lat="43.623264" lon="10.9380534"><ele>105.83333333333333</ele><time>2026-04-18T08:02:50.65Z</time></trkpt><trkpt lat="43.6232133" lon="10.9381398"><ele>104.0</ele><time>2026-04-18T08:02:51.648Z</time></trkpt><trkpt lat="43.6231687" lon="10.9382075"><ele>104.0</ele><time>2026-04-18T08:02:52.647Z</time></trkpt><trkpt lat="43.6230748" lon="10.9383263"><ele>104.0</ele><time>2026-04-18T08:02:54.634Z</time></trkpt><trkpt lat="43.6229902" lon="10.9383497"><ele>104.0</ele><time>2026-04-18T08:02:55.65Z</time></trkpt><trkpt lat="43.6228963" lon="10.9383615"><ele>104.0</ele><time>2026-04-18T08:02:56.629Z</time></trkpt><trkpt lat="43.6227988" lon="10.9383766"><ele>104.0</ele><time>2026-04-18T08:02:57.63Z</time></trkpt><trkpt lat="43.6226986" lon="10.9383865"><ele>102.66666666666666</ele><time>2026-04-18T08:02:58.637Z</time></trkpt><trkpt lat="43.6226111" lon="10.9383878"><ele>101.33333333333333</ele><time>2026-04-18T08:02:59.636Z</time></trkpt><trkpt lat="43.6225337" lon="10.9383853"><ele>100.0</ele><time>2026-04-18T08:03:00.634Z</time></trkpt><trkpt lat="43.6224623" lon="10.9384078"><ele>98.66666666666666</ele><time>2026-04-18T08:03:01.631Z</time></trkpt><trkpt lat="43.6223953" lon="10.9384838"><ele>97.33333333333333</ele><time>2026-04-18T08:03:02.632Z</time></trkpt><trkpt lat="43.622357" lon="10.9385955"><ele>96.0</ele><time>2026-04-18T08:03:03.634Z</time></trkpt><trkpt lat="43.6223282" lon="10.938712"><ele>96.0</ele><time>2026-04-18T08:03:04.631Z</time></trkpt><trkpt lat="43.6223198" lon="10.9388769"><ele>96.0</ele><time>2026-04-18T08:03:05.631Z</time></trkpt><trkpt lat="43.6223101" lon="10.939071"><ele>96.0</ele><time>2026-04-18T08:03:06.62Z</time></trkpt><trkpt lat="43.6222948" lon="10.9392681"><ele>96.0</ele><time>2026-04-18T08:03:07.626Z</time></trkpt><trkpt lat="43.6222623" lon="10.9394727"><ele>96.25</ele><time>2026-04-18T08:03:08.633Z</time></trkpt><trkpt lat="43.6222013" lon="10.9396633"><ele>96.5</ele><time>2026-04-18T08:03:09.639Z</time></trkpt><trkpt lat="43.6221394" lon="10.9398517"><ele>96.75</ele><time>2026-04-18T08:03:10.632Z</time></trkpt><trkpt lat="43.6220902" lon="10.9400303"><ele>97.0</ele><time>2026-04-18T08:03:11.632Z</time></trkpt><trkpt lat="43.6220292" lon="10.9401663"><ele>97.0</ele><time>2026-04-18T08:03:12.629Z</time></trkpt><trkpt lat="43.6219667" lon="10.9403173"><ele>97.0</ele><time>2026-04-18T08:03:13.641Z</time></trkpt><trkpt lat="43.6219436" lon="10.9404701"><ele>97.0</ele><time>2026-04-18T08:03:14.633Z</time></trkpt><trkpt lat="43.6219061" lon="10.9406271"><ele>97.0</ele><time>2026-04-18T08:03:15.632Z</time></trkpt><trkpt lat="43.6218687" lon="10.9407553"><ele>97.0</ele><time>2026-04-18T08:03:16.638Z</time></trkpt><trkpt lat="43.621819" lon="10.9408651"><ele>97.0</ele><time>2026-04-18T08:03:17.63Z</time></trkpt><trkpt lat="43.621781" lon="10.9409751"><ele>97.0</ele><time>2026-04-18T08:03:18.641Z</time></trkpt><trkpt lat="43.6217467" lon="10.941093"><ele>97.0</ele><time>2026-04-18T08:03:19.633Z</time></trkpt><trkpt lat="43.621726" lon="10.9412162"><ele>97.0</ele><time>2026-04-18T08:03:20.634Z</time></trkpt><trkpt lat="43.6217127" lon="10.9413412"><ele>97.16666666666667</ele><time>2026-04-18T08:03:21.638Z</time></trkpt><trkpt lat="43.6217264" lon="10.9414534"><ele>97.33333333333334</ele><time>2026-04-18T08:03:22.635Z</time></trkpt><trkpt lat="43.6217633" lon="10.9415806"><ele>97.5</ele><time>2026-04-18T08:03:23.633Z</time></trkpt><trkpt lat="43.6218114" lon="10.9416871"><ele>97.66666666666666</ele><time>2026-04-18T08:03:24.655Z</time></trkpt><trkpt lat="43.6218481" lon="10.9417814"><ele>97.83333333333333</ele><time>2026-04-18T08:03:25.647Z</time></trkpt><trkpt lat="43.6218789" lon="10.9418678"><ele>98.0</ele><time>2026-04-18T08:03:26.628Z</time></trkpt><trkpt lat="43.6219025" lon="10.9419543"><ele>96.16666666666666</ele><time>2026-04-18T08:03:27.624Z</time></trkpt><trkpt lat="43.6219109" lon="10.9420572"><ele>94.33333333333333</ele><time>2026-04-18T08:03:28.637Z</time></trkpt><trkpt lat="43.6219067" lon="10.9421748"><ele>92.5</ele><time>2026-04-18T08:03:29.637Z</time></trkpt><trkpt lat="43.6218959" lon="10.9422958"><ele>90.66666666666666</ele><time>2026-04-18T08:03:30.636Z</time></trkpt><trkpt lat="43.6218967" lon="10.9424074"><ele>88.83333333333333</ele><time>2026-04-18T08:03:31.633Z</time></trkpt><trkpt lat="43.6219111" lon="10.9425016"><ele>87.0</ele><time>2026-04-18T08:03:32.63Z</time></trkpt><trkpt lat="43.621936" lon="10.9425821"><ele>87.0</ele><time>2026-04-18T08:03:33.622Z</time></trkpt><trkpt lat="43.6219849" lon="10.9426807"><ele>87.0</ele><time>2026-04-18T08:03:35.633Z</time></trkpt><trkpt lat="43.6219766" lon="10.9427796"><ele>87.0</ele><time>2026-04-18T08:03:38.623Z</time></trkpt><trkpt lat="43.6218971" lon="10.942742"><ele>87.0</ele><time>2026-04-18T08:03:40.626Z</time></trkpt><trkpt lat="43.621802" lon="10.942623"><ele>87.0</ele><time>2026-04-18T08:03:42.641Z</time></trkpt><trkpt lat="43.6217278" lon="10.9424969"><ele>87.0</ele><time>2026-04-18T08:03:44.64Z</time></trkpt><trkpt lat="43.6216646" lon="10.9424273"><ele>87.0</ele><time>2026-04-18T08:03:46.641Z</time></trkpt><trkpt lat="43.6216284" lon="10.942526"><ele>87.0</ele><time>2026-04-18T08:03:49.644Z</time></trkpt><trkpt lat="43.6216653" lon="10.9427061"><ele>87.0</ele><time>2026-04-18T08:03:51.647Z</time></trkpt><trkpt lat="43.6217142" lon="10.9428466"><ele>87.0</ele><time>2026-04-18T08:03:52.637Z</time></trkpt><trkpt lat="43.6217494" lon="10.9429965"><ele>85.66666666666667</ele><time>2026-04-18T08:03:53.648Z</time></trkpt><trkpt lat="43.6217653" lon="10.9431512"><ele>84.33333333333333</ele><time>2026-04-18T08:03:54.643Z</time></trkpt><trkpt lat="43.6217761" lon="10.9432786"><ele>83.0</ele><time>2026-04-18T08:03:55.65Z</time></trkpt><trkpt lat="43.6217819" lon="10.9433774"><ele>81.66666666666666</ele><time>2026-04-18T08:03:56.646Z</time></trkpt><trkpt lat="43.6217675" lon="10.9434859"><ele>80.33333333333333</ele><time>2026-04-18T08:03:58.632Z</time></trkpt><trkpt lat="43.6216834" lon="10.9434917"><ele>79.0</ele><time>2026-04-18T08:04:00.641Z</time></trkpt><trkpt lat="43.6216379" lon="10.9434048"><ele>79.0</ele><time>2026-04-18T08:04:01.633Z</time></trkpt><trkpt lat="43.6216035" lon="10.9432876"><ele>79.0</ele><time>2026-04-18T08:04:02.62Z</time></trkpt><trkpt lat="43.6215757" lon="10.9431872"><ele>79.0</ele><time>2026-04-18T08:04:03.619Z</time></trkpt><trkpt lat="43.6215226" lon="10.9430788"><ele>79.0</ele><time>2026-04-18T08:04:05.633Z</time></trkpt><trkpt lat="43.6214337" lon="10.9431296"><ele>79.0</ele><time>2026-04-18T08:04:07.609Z</time></trkpt><trkpt lat="43.621401" lon="10.9432199"><ele>79.0</ele><time>2026-04-18T08:04:08.636Z</time></trkpt><trkpt lat="43.6213852" lon="10.9433443"><ele>78.60000000000001</ele><time>2026-04-18T08:04:09.617Z</time></trkpt><trkpt lat="43.6213867" lon="10.9434747"><ele>78.2</ele><time>2026-04-18T08:04:10.632Z</time></trkpt><trkpt lat="43.6213719" lon="10.9435639"><ele>77.80000000000001</ele><time>2026-04-18T08:04:11.616Z</time></trkpt><trkpt lat="43.621284" lon="10.9436399"><ele>77.4</ele><time>2026-04-18T08:04:13.634Z</time></trkpt><trkpt lat="43.6211623" lon="10.9435436"><ele>77.0</ele><time>2026-04-18T08:04:15.633Z</time></trkpt><trkpt lat="43.6211004" lon="10.9434115"><ele>73.25</ele><time>2026-04-18T08:04:16.64Z</time></trkpt><trkpt lat="43.6210164" lon="10.9432497"><ele>69.5</ele><time>2026-04-18T08:04:17.629Z</time></trkpt><trkpt lat="43.620923" lon="10.9430879"><ele>65.75</ele><time>2026-04-18T08:04:18.648Z</time></trkpt><trkpt lat="43.6208419" lon="10.9429459"><ele>62.0</ele><time>2026-04-18T08:04:19.634Z</time></trkpt><trkpt lat="43.6207702" lon="10.9428229"><ele>62.0</ele><time>2026-04-18T08:04:20.636Z</time></trkpt><trkpt lat="43.6207124" lon="10.942729"><ele>62.0</ele><time>2026-04-18T08:04:21.636Z</time></trkpt><trkpt lat="43.6206691" lon="10.9426533"><ele>62.0</ele><time>2026-04-18T08:04:22.633Z</time></trkpt><trkpt lat="43.6205825" lon="10.942563"><ele>62.0</ele><time>2026-04-18T08:04:24.637Z</time></trkpt><trkpt lat="43.6204974" lon="10.9425676"><ele>62.0</ele><time>2026-04-18T08:04:25.641Z</time></trkpt><trkpt lat="43.6203854" lon="10.9426235"><ele>59.0</ele><time>2026-04-18T08:04:26.655Z</time></trkpt><trkpt lat="43.6202544" lon="10.9427152"><ele>56.0</ele><time>2026-04-18T08:04:27.63Z</time></trkpt><trkpt lat="43.620126" lon="10.94285"><ele>53.0</ele><time>2026-04-18T08:04:28.633Z</time></trkpt><trkpt lat="43.6200089" lon="10.9429943"><ele>53.0</ele><time>2026-04-18T08:04:29.625Z</time></trkpt><trkpt lat="43.6199038" lon="10.9431265"><ele>53.0</ele><time>2026-04-18T08:04:30.632Z</time></trkpt><trkpt lat="43.6198135" lon="10.9432274"><ele>53.0</ele><time>2026-04-18T08:04:31.635Z</time></trkpt><trkpt lat="43.619734" lon="10.9433111"><ele>53.0</ele><time>2026-04-18T08:04:32.626Z</time></trkpt><trkpt lat="43.6196566" lon="10.9433735"><ele>53.0</ele><time>2026-04-18T08:04:33.633Z</time></trkpt><trkpt lat="43.6195902" lon="10.9434347"><ele>53.0</ele><time>2026-04-18T08:04:34.64Z</time></trkpt><trkpt lat="43.6195335" lon="10.9434814"><ele>53.0</ele><time>2026-04-18T08:04:35.63Z</time></trkpt><trkpt lat="43.6194862" lon="10.9436599"><ele>53.0</ele><time>2026-04-18T08:04:37.656Z</time></trkpt><trkpt lat="43.6194993" lon="10.9437967"><ele>53.0</ele><time>2026-04-18T08:04:38.646Z</time></trkpt><trkpt lat="43.6195223" lon="10.9439701"><ele>53.0</ele><time>2026-04-18T08:04:39.642Z</time></trkpt><trkpt lat="43.6195477" lon="10.9441656"><ele>52.25</ele><time>2026-04-18T08:04:40.637Z</time></trkpt><trkpt lat="43.6195834" lon="10.9443484"><ele>51.5</ele><time>2026-04-18T08:04:41.647Z</time></trkpt><trkpt lat="43.6196407" lon="10.9445131"><ele>50.75</ele><time>2026-04-18T08:04:42.632Z</time></trkpt><trkpt lat="43.6196866" lon="10.9446553"><ele>50.0</ele><time>2026-04-18T08:04:43.64Z</time></trkpt><trkpt lat="43.6197283" lon="10.9448269"><ele>50.0</ele><time>2026-04-18T08:04:44.641Z</time></trkpt><trkpt lat="43.6197405" lon="10.9450152"><ele>50.0</ele><time>2026-04-18T08:04:45.634Z</time></trkpt><trkpt lat="43.6197188" lon="10.9452084"><ele>50.0</ele><time>2026-04-18T08:04:46.65Z</time></trkpt><trkpt lat="43.6196974" lon="10.9453835"><ele>50.0</ele><time>2026-04-18T08:04:47.642Z</time></trkpt><trkpt lat="43.6196845" lon="10.9455173"><ele>49.6</ele><time>2026-04-18T08:04:48.635Z</time></trkpt><trkpt lat="43.6196891" lon="10.9456383"><ele>49.2</ele><time>2026-04-18T08:04:49.639Z</time></trkpt><trkpt lat="43.6197025" lon="10.9457505"><ele>48.8</ele><time>2026-04-18T08:04:50.655Z</time></trkpt><trkpt lat="43.6197665" lon="10.9458384"><ele>48.4</ele><time>2026-04-18T08:04:51.641Z</time></trkpt><trkpt lat="43.6198554" lon="10.945939"><ele>48.0</ele><time>2026-04-18T08:04:52.658Z</time></trkpt><trkpt lat="43.6199622" lon="10.9460486"><ele>47.5</ele><time>2026-04-18T08:04:53.643Z</time></trkpt><trkpt lat="43.6200671" lon="10.9461759"><ele>47.0</ele><time>2026-04-18T08:04:54.65Z</time></trkpt><trkpt lat="43.6201701" lon="10.9462951"><ele>46.5</ele><time>2026-04-18T08:04:55.646Z</time></trkpt><trkpt lat="43.6202579" lon="10.9464003"><ele>46.0</ele><time>2026-04-18T08:04:56.643Z</time></trkpt><trkpt lat="43.6203379" lon="10.9465135"><ele>46.25</ele><time>2026-04-18T08:04:57.658Z</time></trkpt><trkpt lat="43.6204311" lon="10.9466321"><ele>46.5</ele><time>2026-04-18T08:04:58.652Z</time></trkpt><trkpt lat="43.620526" lon="10.9467547"><ele>46.75</ele><time>2026-04-18T08:04:59.643Z</time></trkpt><trkpt lat="43.6206215" lon="10.9468765"><ele>47.0</ele><time>2026-04-18T08:05:00.644Z</time></trkpt><trkpt lat="43.6207168" lon="10.9469894"><ele>47.0</ele><time>2026-04-18T08:05:01.641Z</time></trkpt><trkpt lat="43.6208241" lon="10.9471178"><ele>47.0</ele><time>2026-04-18T08:05:02.638Z</time></trkpt><trkpt lat="43.620947" lon="10.9472424"><ele>47.0</ele><time>2026-04-18T08:05:03.634Z</time></trkpt><trkpt lat="43.6210768" lon="10.9473767"><ele>47.0</ele><time>2026-04-18T08:05:04.632Z</time></trkpt><trkpt lat="43.6211822" lon="10.9475168"><ele>47.0</ele><time>2026-04-18T08:05:05.633Z</time></trkpt><trkpt lat="43.6212738" lon="10.9476404"><ele>47.0</ele><time>2026-04-18T08:05:06.633Z</time></trkpt><trkpt lat="43.6213606" lon="10.947746"><ele>47.0</ele><time>2026-04-18T08:05:07.632Z</time></trkpt><trkpt lat="43.6214381" lon="10.9478793"><ele>47.0</ele><time>2026-04-18T08:05:08.635Z</time></trkpt><trkpt lat="43.6215228" lon="10.9479966"><ele>47.0</ele><time>2026-04-18T08:05:09.635Z</time></trkpt><trkpt lat="43.6216046" lon="10.9481127"><ele>47.0</ele><time>2026-04-18T08:05:10.634Z</time></trkpt><trkpt lat="43.6216928" lon="10.9482329"><ele>47.0</ele><time>2026-04-18T08:05:11.637Z</time></trkpt><trkpt lat="43.6217709" lon="10.9483448"><ele>46.8</ele><time>2026-04-18T08:05:12.645Z</time></trkpt><trkpt lat="43.6218406" lon="10.9484394"><ele>46.6</ele><time>2026-04-18T08:05:13.632Z</time></trkpt><trkpt lat="43.6219201" lon="10.9485096"><ele>46.4</ele><time>2026-04-18T08:05:14.634Z</time></trkpt><trkpt lat="43.6220187" lon="10.9485598"><ele>46.199999999999996</ele><time>2026-04-18T08:05:15.626Z</time></trkpt><trkpt lat="43.6221323" lon="10.9485988"><ele>46.0</ele><time>2026-04-18T08:05:16.634Z</time></trkpt><trkpt lat="43.6222461" lon="10.9486425"><ele>45.599999999999994</ele><time>2026-04-18T08:05:17.635Z</time></trkpt><trkpt lat="43.6223366" lon="10.9486721"><ele>45.2</ele><time>2026-04-18T08:05:18.637Z</time></trkpt><trkpt lat="43.6224255" lon="10.9487"><ele>44.8</ele><time>2026-04-18T08:05:19.627Z</time></trkpt><trkpt lat="43.6225167" lon="10.9486911"><ele>44.400000000000006</ele><time>2026-04-18T08:05:20.65Z</time></trkpt><trkpt lat="43.6226123" lon="10.9486332"><ele>44.0</ele><time>2026-04-18T08:05:21.645Z</time></trkpt><trkpt lat="43.6227265" lon="10.9485506"><ele>44.25</ele><time>2026-04-18T08:05:22.639Z</time></trkpt><trkpt lat="43.6228358" lon="10.9484906"><ele>44.5</ele><time>2026-04-18T08:05:23.644Z</time></trkpt><trkpt lat="43.6229421" lon="10.9484766"><ele>44.75</ele><time>2026-04-18T08:05:24.646Z</time></trkpt><trkpt lat="43.6230536" lon="10.9484571"><ele>45.0</ele><time>2026-04-18T08:05:25.648Z</time></trkpt><trkpt lat="43.6231639" lon="10.9483899"><ele>45.166666666666664</ele><time>2026-04-18T08:05:26.643Z</time></trkpt><trkpt lat="43.6232602" lon="10.9483093"><ele>45.333333333333336</ele><time>2026-04-18T08:05:27.634Z</time></trkpt><trkpt lat="43.6233382" lon="10.9482443"><ele>45.5</ele><time>2026-04-18T08:05:28.655Z</time></trkpt><trkpt lat="43.6234081" lon="10.9481856"><ele>45.66666666666667</ele><time>2026-04-18T08:05:29.633Z</time></trkpt><trkpt lat="43.6234728" lon="10.9481449"><ele>45.833333333333336</ele><time>2026-04-18T08:05:30.633Z</time></trkpt><trkpt lat="43.6235644" lon="10.9481486"><ele>46.0</ele><time>2026-04-18T08:05:32.628Z</time></trkpt><trkpt lat="43.6236181" lon="10.9482468"><ele>46.0</ele><time>2026-04-18T08:05:34.641Z</time></trkpt><trkpt lat="43.6235889" lon="10.9483284"><ele>46.0</ele><time>2026-04-18T08:05:36.643Z</time></trkpt><trkpt lat="43.623488" lon="10.9483928"><ele>46.0</ele><time>2026-04-18T08:05:38.642Z</time></trkpt><trkpt lat="43.6233943" lon="10.9484094"><ele>46.0</ele><time>2026-04-18T08:05:39.638Z</time></trkpt><trkpt lat="43.6233075" lon="10.9484391"><ele>46.0</ele><time>2026-04-18T08:05:40.644Z</time></trkpt><trkpt lat="43.6232203" lon="10.9484797"><ele>45.833333333333336</ele><time>2026-04-18T08:05:41.641Z</time></trkpt><trkpt lat="43.6231363" lon="10.9485226"><ele>45.66666666666667</ele><time>2026-04-18T08:05:42.641Z</time></trkpt><trkpt lat="43.6230728" lon="10.948566"><ele>45.5</ele><time>2026-04-18T08:05:43.637Z</time></trkpt><trkpt lat="43.6229739" lon="10.948602"><ele>45.333333333333336</ele><time>2026-04-18T08:05:45.637Z</time></trkpt><trkpt lat="43.6229005" lon="10.9486152"><ele>45.166666666666664</ele><time>2026-04-18T08:05:46.642Z</time></trkpt><trkpt lat="43.6228145" lon="10.9486382"><ele>45.0</ele><time>2026-04-18T08:05:47.645Z</time></trkpt><trkpt lat="43.6227283" lon="10.948681"><ele>45.0</ele><time>2026-04-18T08:05:48.653Z</time></trkpt><trkpt lat="43.6226504" lon="10.9487492"><ele>45.0</ele><time>2026-04-18T08:05:49.64Z</time></trkpt><trkpt lat="43.6226004" lon="10.9488389"><ele>45.0</ele><time>2026-04-18T08:05:50.638Z</time></trkpt><trkpt lat="43.622584" lon="10.9489447"><ele>45.0</ele><time>2026-04-18T08:05:51.639Z</time></trkpt><trkpt lat="43.6225778" lon="10.9490575"><ele>45.0</ele><time>2026-04-18T08:05:52.649Z</time></trkpt><trkpt lat="43.6225926" lon="10.949166"><ele>45.0</ele><time>2026-04-18T08:05:53.652Z</time></trkpt><trkpt lat="43.6226017" lon="10.9492634"><ele>45.0</ele><time>2026-04-18T08:05:54.65Z</time></trkpt><trkpt lat="43.6225222" lon="10.9493801"><ele>45.0</ele><time>2026-04-18T08:05:56.648Z</time></trkpt><trkpt lat="43.6224329" lon="10.9493789"><ele>45.0</ele><time>2026-04-18T08:05:57.645Z</time></trkpt><trkpt lat="43.6223332" lon="10.9493057"><ele>45.0</ele><time>2026-04-18T08:05:58.648Z</time></trkpt><trkpt lat="43.6222251" lon="10.9491902"><ele>44.75</ele><time>2026-04-18T08:05:59.654Z</time></trkpt><trkpt lat="43.6221099" lon="10.9490867"><ele>44.5</ele><time>2026-04-18T08:06:00.64Z</time></trkpt><trkpt lat="43.6219799" lon="10.9490197"><ele>44.25</ele><time>2026-04-18T08:06:01.633Z</time></trkpt><trkpt lat="43.6218384" lon="10.9489872"><ele>44.0</ele><time>2026-04-18T08:06:02.64Z</time></trkpt><trkpt lat="43.6216734" lon="10.9489988"><ele>44.666666666666664</ele><time>2026-04-18T08:06:03.645Z</time></trkpt><trkpt lat="43.6215066" lon="10.9490562"><ele>45.333333333333336</ele><time>2026-04-18T08:06:04.637Z</time></trkpt><trkpt lat="43.6213094" lon="10.9491108"><ele>46.0</ele><time>2026-04-18T08:06:05.643Z</time></trkpt><trkpt lat="43.6211119" lon="10.9491527"><ele>46.0</ele><time>2026-04-18T08:06:06.638Z</time></trkpt><trkpt lat="43.6209506" lon="10.9491901"><ele>46.0</ele><time>2026-04-18T08:06:07.635Z</time></trkpt><trkpt lat="43.6208151" lon="10.949237"><ele>46.0</ele><time>2026-04-18T08:06:08.635Z</time></trkpt><trkpt lat="43.6206796" lon="10.9492805"><ele>46.0</ele><time>2026-04-18T08:06:09.638Z</time></trkpt><trkpt lat="43.6205535" lon="10.9493195"><ele>46.25</ele><time>2026-04-18T08:06:10.637Z</time></trkpt><trkpt lat="43.6204241" lon="10.9493765"><ele>46.5</ele><time>2026-04-18T08:06:11.636Z</time></trkpt><trkpt lat="43.6203024" lon="10.9494117"><ele>46.75</ele><time>2026-04-18T08:06:12.642Z</time></trkpt><trkpt lat="43.6201862" lon="10.9494477"><ele>47.0</ele><time>2026-04-18T08:06:13.637Z</time></trkpt><trkpt lat="43.6200652" lon="10.9494719"><ele>47.0</ele><time>2026-04-18T08:06:14.641Z</time></trkpt><trkpt lat="43.6199555" lon="10.9495098"><ele>47.0</ele><time>2026-04-18T08:06:15.632Z</time></trkpt><trkpt lat="43.6198608" lon="10.9495494"><ele>47.0</ele><time>2026-04-18T08:06:16.63Z</time></trkpt><trkpt lat="43.6197801" lon="10.9495643"><ele>47.0</ele><time>2026-04-18T08:06:17.638Z</time></trkpt><trkpt lat="43.6197024" lon="10.9495723"><ele>47.0</ele><time>2026-04-18T08:06:18.631Z</time></trkpt><trkpt lat="43.6196131" lon="10.9495332"><ele>47.0</ele><time>2026-04-18T08:06:19.626Z</time></trkpt><trkpt lat="43.6195193" lon="10.949442"><ele>47.0</ele><time>2026-04-18T08:06:20.619Z</time></trkpt><trkpt lat="43.6194281" lon="10.9493214"><ele>47.0</ele><time>2026-04-18T08:06:21.612Z</time></trkpt><trkpt lat="43.6193404" lon="10.9491739"><ele>47.0</ele><time>2026-04-18T08:06:22.633Z</time></trkpt><trkpt lat="43.6192445" lon="10.9490237"><ele>47.0</ele><time>2026-04-18T08:06:23.633Z</time></trkpt><trkpt lat="43.6191502" lon="10.9488839"><ele>47.0</ele><time>2026-04-18T08:06:24.64Z</time></trkpt><trkpt lat="43.6190563" lon="10.948744"><ele>47.0</ele><time>2026-04-18T08:06:25.64Z</time></trkpt><trkpt lat="43.6189698" lon="10.9486173"><ele>47.0</ele><time>2026-04-18T08:06:26.643Z</time></trkpt><trkpt lat="43.6188808" lon="10.9484973"><ele>47.0</ele><time>2026-04-18T08:06:27.639Z</time></trkpt><trkpt lat="43.6188062" lon="10.9483914"><ele>47.0</ele><time>2026-04-18T08:06:28.634Z</time></trkpt><trkpt lat="43.618715" lon="10.9483098"><ele>47.0</ele><time>2026-04-18T08:06:29.645Z</time></trkpt><trkpt lat="43.6186054" lon="10.9482815"><ele>47.0</ele><time>2026-04-18T08:06:30.664Z</time></trkpt><trkpt lat="43.6184919" lon="10.9483001"><ele>47.0</ele><time>2026-04-18T08:06:31.64Z</time></trkpt><trkpt lat="43.6183745" lon="10.948359"><ele>47.25</ele><time>2026-04-18T08:06:32.64Z</time></trkpt><trkpt lat="43.6182706" lon="10.9484776"><ele>47.5</ele><time>2026-04-18T08:06:33.625Z</time></trkpt><trkpt lat="43.6181644" lon="10.9486023"><ele>47.75</ele><time>2026-04-18T08:06:34.64Z</time></trkpt><trkpt lat="43.6180583" lon="10.9487399"><ele>48.0</ele><time>2026-04-18T08:06:35.646Z</time></trkpt><trkpt lat="43.6179449" lon="10.9488636"><ele>48.0</ele><time>2026-04-18T08:06:36.649Z</time></trkpt><trkpt lat="43.6178373" lon="10.9489863"><ele>48.0</ele><time>2026-04-18T08:06:37.647Z</time></trkpt><trkpt lat="43.6177321" lon="10.949108"><ele>48.0</ele><time>2026-04-18T08:06:38.646Z</time></trkpt><trkpt lat="43.6176101" lon="10.949206"><ele>48.0</ele><time>2026-04-18T08:06:39.643Z</time></trkpt><trkpt lat="43.6174948" lon="10.9493075"><ele>48.0</ele><time>2026-04-18T08:06:40.637Z</time></trkpt><trkpt lat="43.6173766" lon="10.9494228"><ele>48.0</ele><time>2026-04-18T08:06:41.638Z</time></trkpt><trkpt lat="43.6172696" lon="10.9495558"><ele>48.0</ele><time>2026-04-18T08:06:42.636Z</time></trkpt><trkpt lat="43.6171751" lon="10.9496577"><ele>48.0</ele><time>2026-04-18T08:06:43.64Z</time></trkpt><trkpt lat="43.6170715" lon="10.9497614"><ele>48.0</ele><time>2026-04-18T08:06:44.638Z</time></trkpt><trkpt lat="43.6169876" lon="10.949861"><ele>48.0</ele><time>2026-04-18T08:06:45.633Z</time></trkpt><trkpt lat="43.6169045" lon="10.9499378"><ele>48.0</ele><time>2026-04-18T08:06:46.646Z</time></trkpt><trkpt lat="43.6168101" lon="10.9500371"><ele>48.0</ele><time>2026-04-18T08:06:47.639Z</time></trkpt><trkpt lat="43.6167024" lon="10.9501207"><ele>48.0</ele><time>2026-04-18T08:06:48.638Z</time></trkpt><trkpt lat="43.6165727" lon="10.9501728"><ele>48.0</ele><time>2026-04-18T08:06:49.642Z</time></trkpt><trkpt lat="43.6164433" lon="10.9502204"><ele>48.0</ele><time>2026-04-18T08:06:50.637Z</time></trkpt><trkpt lat="43.6163174" lon="10.9502601"><ele>48.0</ele><time>2026-04-18T08:06:51.634Z</time></trkpt><trkpt lat="43.6161896" lon="10.9502625"><ele>47.75</ele><time>2026-04-18T08:06:52.641Z</time></trkpt><trkpt lat="43.6160578" lon="10.9502488"><ele>47.5</ele><time>2026-04-18T08:06:53.639Z</time></trkpt><trkpt lat="43.6159293" lon="10.950229"><ele>47.25</ele><time>2026-04-18T08:06:54.639Z</time></trkpt><trkpt lat="43.6158044" lon="10.9502186"><ele>47.0</ele><time>2026-04-18T08:06:55.632Z</time></trkpt><trkpt lat="43.6157049" lon="10.9501902"><ele>47.0</ele><time>2026-04-18T08:06:56.634Z</time></trkpt><trkpt lat="43.615597" lon="10.9501642"><ele>47.0</ele><time>2026-04-18T08:06:57.633Z</time></trkpt><trkpt lat="43.615479" lon="10.9501586"><ele>47.0</ele><time>2026-04-18T08:06:58.636Z</time></trkpt><trkpt lat="43.6153744" lon="10.9501714"><ele>47.0</ele><time>2026-04-18T08:06:59.645Z</time></trkpt><trkpt lat="43.6152775" lon="10.9501931"><ele>47.0</ele><time>2026-04-18T08:07:00.637Z</time></trkpt><trkpt lat="43.615179" lon="10.9502496"><ele>48.25</ele><time>2026-04-18T08:07:01.655Z</time></trkpt><trkpt lat="43.6150817" lon="10.9503491"><ele>49.5</ele><time>2026-04-18T08:07:02.624Z</time></trkpt><trkpt lat="43.6149786" lon="10.9504599"><ele>50.75</ele><time>2026-04-18T08:07:03.629Z</time></trkpt><trkpt lat="43.6148612" lon="10.9506049"><ele>52.0</ele><time>2026-04-18T08:07:04.63Z</time></trkpt><trkpt lat="43.614756" lon="10.9507489"><ele>51.25</ele><time>2026-04-18T08:07:05.638Z</time></trkpt><trkpt lat="43.6146642" lon="10.9508791"><ele>50.5</ele><time>2026-04-18T08:07:06.641Z</time></trkpt><trkpt lat="43.614559" lon="10.9509984"><ele>49.75</ele><time>2026-04-18T08:07:07.641Z</time></trkpt><trkpt lat="43.6144701" lon="10.9511106"><ele>49.0</ele><time>2026-04-18T08:07:08.645Z</time></trkpt><trkpt lat="43.6143819" lon="10.9512187"><ele>49.0</ele><time>2026-04-18T08:07:09.647Z</time></trkpt><trkpt lat="43.614287" lon="10.951325"><ele>49.0</ele><time>2026-04-18T08:07:10.652Z</time></trkpt><trkpt lat="43.614183" lon="10.951435"><ele>49.0</ele><time>2026-04-18T08:07:11.648Z</time></trkpt><trkpt lat="43.6140899" lon="10.9515444"><ele>49.0</ele><time>2026-04-18T08:07:12.657Z</time></trkpt><trkpt lat="43.6139916" lon="10.9516634"><ele>48.33333333333333</ele><time>2026-04-18T08:07:13.648Z</time></trkpt><trkpt lat="43.6138882" lon="10.9517919"><ele>47.666666666666664</ele><time>2026-04-18T08:07:14.652Z</time></trkpt><trkpt lat="43.6137748" lon="10.95195"><ele>47.0</ele><time>2026-04-18T08:07:15.655Z</time></trkpt><trkpt lat="43.6136559" lon="10.952094"><ele>47.0</ele><time>2026-04-18T08:07:16.658Z</time></trkpt><trkpt lat="43.6135288" lon="10.9522162"><ele>47.0</ele><time>2026-04-18T08:07:17.652Z</time></trkpt><trkpt lat="43.6134062" lon="10.95234"><ele>47.0</ele><time>2026-04-18T08:07:18.652Z</time></trkpt><trkpt lat="43.6133097" lon="10.95247"><ele>47.0</ele><time>2026-04-18T08:07:19.644Z</time></trkpt><trkpt lat="43.6132041" lon="10.9525888"><ele>47.0</ele><time>2026-04-18T08:07:20.65Z</time></trkpt><trkpt lat="43.6131102" lon="10.9527052"><ele>47.0</ele><time>2026-04-18T08:07:21.654Z</time></trkpt><trkpt lat="43.6130223" lon="10.9528051"><ele>47.0</ele><time>2026-04-18T08:07:22.658Z</time></trkpt><trkpt lat="43.6129433" lon="10.9528835"><ele>47.0</ele><time>2026-04-18T08:07:23.649Z</time></trkpt><trkpt lat="43.6128636" lon="10.9529635"><ele>47.0</ele><time>2026-04-18T08:07:24.655Z</time></trkpt><trkpt lat="43.6127868" lon="10.953033"><ele>47.6</ele><time>2026-04-18T08:07:25.658Z</time></trkpt><trkpt lat="43.6126958" lon="10.9530989"><ele>48.2</ele><time>2026-04-18T08:07:26.654Z</time></trkpt><trkpt lat="43.6126027" lon="10.9531466"><ele>48.8</ele><time>2026-04-18T08:07:27.648Z</time></trkpt><trkpt lat="43.6125034" lon="10.9531769"><ele>49.4</ele><time>2026-04-18T08:07:28.652Z</time></trkpt><trkpt lat="43.6124133" lon="10.9532044"><ele>50.0</ele><time>2026-04-18T08:07:29.652Z</time></trkpt><trkpt lat="43.6123255" lon="10.953228"><ele>50.0</ele><time>2026-04-18T08:07:30.643Z</time></trkpt><trkpt lat="43.612238" lon="10.9532637"><ele>50.0</ele><time>2026-04-18T08:07:31.653Z</time></trkpt><trkpt lat="43.612146" lon="10.9533189"><ele>50.0</ele><time>2026-04-18T08:07:32.662Z</time></trkpt><trkpt lat="43.6120595" lon="10.9534049"><ele>50.0</ele><time>2026-04-18T08:07:33.648Z</time></trkpt><trkpt lat="43.6119735" lon="10.9535157"><ele>50.0</ele><time>2026-04-18T08:07:34.662Z</time></trkpt><trkpt lat="43.6118886" lon="10.9536523"><ele>50.0</ele><time>2026-04-18T08:07:35.66Z</time></trkpt><trkpt lat="43.6118009" lon="10.9538253"><ele>50.0</ele><time>2026-04-18T08:07:36.651Z</time></trkpt><trkpt lat="43.611706" lon="10.954022"><ele>50.0</ele><time>2026-04-18T08:07:37.646Z</time></trkpt><trkpt lat="43.6116056" lon="10.9542184"><ele>49.333333333333336</ele><time>2026-04-18T08:07:38.644Z</time></trkpt><trkpt lat="43.6115194" lon="10.9544204"><ele>48.66666666666667</ele><time>2026-04-18T08:07:39.636Z</time></trkpt><trkpt lat="43.6114276" lon="10.9545729"><ele>48.0</ele><time>2026-04-18T08:07:40.647Z</time></trkpt><trkpt lat="43.6113372" lon="10.9547436"><ele>48.0</ele><time>2026-04-18T08:07:41.65Z</time></trkpt><trkpt lat="43.6112598" lon="10.9549255"><ele>48.0</ele><time>2026-04-18T08:07:42.656Z</time></trkpt><trkpt lat="43.6111757" lon="10.9550939"><ele>48.0</ele><time>2026-04-18T08:07:43.649Z</time></trkpt><trkpt lat="43.6111193" lon="10.9552714"><ele>48.0</ele><time>2026-04-18T08:07:44.655Z</time></trkpt><trkpt lat="43.611068" lon="10.9554286"><ele>48.0</ele><time>2026-04-18T08:07:45.655Z</time></trkpt><trkpt lat="43.6109937" lon="10.9555586"><ele>48.0</ele><time>2026-04-18T08:07:46.662Z</time></trkpt><trkpt lat="43.6109142" lon="10.9556841"><ele>48.0</ele><time>2026-04-18T08:07:47.654Z</time></trkpt><trkpt lat="43.6108241" lon="10.955795"><ele>48.0</ele><time>2026-04-18T08:07:48.653Z</time></trkpt><trkpt lat="43.610726" lon="10.9558862"><ele>47.75</ele><time>2026-04-18T08:07:49.652Z</time></trkpt><trkpt lat="43.6106174" lon="10.9559441"><ele>47.5</ele><time>2026-04-18T08:07:50.651Z</time></trkpt><trkpt lat="43.6104872" lon="10.9559718"><ele>47.25</ele><time>2026-04-18T08:07:51.636Z</time></trkpt><trkpt lat="43.6103614" lon="10.9559827"><ele>47.0</ele><time>2026-04-18T08:07:52.634Z</time></trkpt><trkpt lat="43.61022" lon="10.9559809"><ele>46.75</ele><time>2026-04-18T08:07:53.634Z</time></trkpt><trkpt lat="43.6100652" lon="10.9559835"><ele>46.5</ele><time>2026-04-18T08:07:54.638Z</time></trkpt><trkpt lat="43.6099075" lon="10.9559758"><ele>46.25</ele><time>2026-04-18T08:07:55.634Z</time></trkpt><trkpt lat="43.6097748" lon="10.9560109"><ele>46.0</ele><time>2026-04-18T08:07:56.633Z</time></trkpt><trkpt lat="43.6096605" lon="10.9560599"><ele>46.0</ele><time>2026-04-18T08:07:57.628Z</time></trkpt><trkpt lat="43.609549" lon="10.9561493"><ele>46.0</ele><time>2026-04-18T08:07:58.637Z</time></trkpt><trkpt lat="43.6094303" lon="10.9562682"><ele>46.0</ele><time>2026-04-18T08:07:59.639Z</time></trkpt><trkpt lat="43.6093301" lon="10.9563808"><ele>46.0</ele><time>2026-04-18T08:08:00.641Z</time></trkpt><trkpt lat="43.6092166" lon="10.9565122"><ele>46.66666666666667</ele><time>2026-04-18T08:08:01.64Z</time></trkpt><trkpt lat="43.609088" lon="10.9566516"><ele>47.333333333333336</ele><time>2026-04-18T08:08:02.637Z</time></trkpt><trkpt lat="43.6089678" lon="10.9567814"><ele>48.0</ele><time>2026-04-18T08:08:03.651Z</time></trkpt><trkpt lat="43.6088406" lon="10.956904"><ele>48.0</ele><time>2026-04-18T08:08:04.638Z</time></trkpt><trkpt lat="43.6087079" lon="10.9570004"><ele>48.0</ele><time>2026-04-18T08:08:05.64Z</time></trkpt><trkpt lat="43.6085742" lon="10.9571125"><ele>48.0</ele><time>2026-04-18T08:08:06.641Z</time></trkpt><trkpt lat="43.6084563" lon="10.9572218"><ele>48.0</ele><time>2026-04-18T08:08:07.639Z</time></trkpt><trkpt lat="43.6083486" lon="10.9573203"><ele>48.0</ele><time>2026-04-18T08:08:08.644Z</time></trkpt><trkpt lat="43.6082349" lon="10.9574009"><ele>48.0</ele><time>2026-04-18T08:08:09.646Z</time></trkpt><trkpt lat="43.6081295" lon="10.9574962"><ele>48.0</ele><time>2026-04-18T08:08:10.645Z</time></trkpt><trkpt lat="43.6080478" lon="10.957607"><ele>48.0</ele><time>2026-04-18T08:08:11.641Z</time></trkpt><trkpt lat="43.6079787" lon="10.9577332"><ele>48.0</ele><time>2026-04-18T08:08:12.642Z</time></trkpt><trkpt lat="43.6079208" lon="10.9578681"><ele>48.0</ele><time>2026-04-18T08:08:13.642Z</time></trkpt><trkpt lat="43.6078958" lon="10.9580459"><ele>48.0</ele><time>2026-04-18T08:08:14.638Z</time></trkpt><trkpt lat="43.6078942" lon="10.9582096"><ele>48.0</ele><time>2026-04-18T08:08:15.637Z</time></trkpt><trkpt lat="43.607918" lon="10.9583773"><ele>48.5</ele><time>2026-04-18T08:08:16.642Z</time></trkpt><trkpt lat="43.607948" lon="10.9585436"><ele>49.0</ele><time>2026-04-18T08:08:17.639Z</time></trkpt><trkpt lat="43.6079775" lon="10.9587063"><ele>49.5</ele><time>2026-04-18T08:08:18.648Z</time></trkpt><trkpt lat="43.6079978" lon="10.958863"><ele>50.0</ele><time>2026-04-18T08:08:19.64Z</time></trkpt><trkpt lat="43.6080237" lon="10.9590315"><ele>49.5</ele><time>2026-04-18T08:08:20.643Z</time></trkpt><trkpt lat="43.608053" lon="10.9592067"><ele>49.0</ele><time>2026-04-18T08:08:21.639Z</time></trkpt><trkpt lat="43.6080646" lon="10.9593826"><ele>48.5</ele><time>2026-04-18T08:08:22.636Z</time></trkpt><trkpt lat="43.6080528" lon="10.9595623"><ele>48.0</ele><time>2026-04-18T08:08:23.633Z</time></trkpt><trkpt lat="43.6080295" lon="10.9597195"><ele>48.0</ele><time>2026-04-18T08:08:24.635Z</time></trkpt><trkpt lat="43.6079767" lon="10.9598597"><ele>48.0</ele><time>2026-04-18T08:08:25.638Z</time></trkpt><trkpt lat="43.6079223" lon="10.9599722"><ele>48.0</ele><time>2026-04-18T08:08:26.632Z</time></trkpt><trkpt lat="43.6078723" lon="10.9600622"><ele>48.0</ele><time>2026-04-18T08:08:27.639Z</time></trkpt><trkpt lat="43.6078304" lon="10.9601388"><ele>48.0</ele><time>2026-04-18T08:08:28.644Z</time></trkpt><trkpt lat="43.6077872" lon="10.9602086"><ele>48.0</ele><time>2026-04-18T08:08:29.643Z</time></trkpt><trkpt lat="43.6076665" lon="10.9603003"><ele>48.0</ele><time>2026-04-18T08:08:31.645Z</time></trkpt><trkpt lat="43.6075693" lon="10.9603474"><ele>48.0</ele><time>2026-04-18T08:08:32.652Z</time></trkpt><trkpt lat="43.6074564" lon="10.9603886"><ele>48.0</ele><time>2026-04-18T08:08:33.644Z</time></trkpt><trkpt lat="43.6073221" lon="10.9604201"><ele>48.0</ele><time>2026-04-18T08:08:34.658Z</time></trkpt><trkpt lat="43.6071719" lon="10.960421"><ele>48.0</ele><time>2026-04-18T08:08:35.646Z</time></trkpt><trkpt lat="43.6070092" lon="10.9603895"><ele>48.0</ele><time>2026-04-18T08:08:36.649Z</time></trkpt><trkpt lat="43.606851" lon="10.9603235"><ele>48.0</ele><time>2026-04-18T08:08:37.646Z</time></trkpt><trkpt lat="43.6067129" lon="10.9602724"><ele>48.25</ele><time>2026-04-18T08:08:38.646Z</time></trkpt><trkpt lat="43.6065858" lon="10.9602321"><ele>48.5</ele><time>2026-04-18T08:08:39.644Z</time></trkpt><trkpt lat="43.6064417" lon="10.9602125"><ele>48.75</ele><time>2026-04-18T08:08:40.646Z</time></trkpt><trkpt lat="43.6062806" lon="10.9601767"><ele>49.0</ele><time>2026-04-18T08:08:41.642Z</time></trkpt><trkpt lat="43.6061371" lon="10.9601542"><ele>49.0</ele><time>2026-04-18T08:08:42.65Z</time></trkpt><trkpt lat="43.6059831" lon="10.9601337"><ele>49.0</ele><time>2026-04-18T08:08:43.644Z</time></trkpt><trkpt lat="43.6058364" lon="10.9601366"><ele>49.0</ele><time>2026-04-18T08:08:44.644Z</time></trkpt><trkpt lat="43.6056899" lon="10.9601194"><ele>49.0</ele><time>2026-04-18T08:08:45.647Z</time></trkpt><trkpt lat="43.6055282" lon="10.9600881"><ele>49.0</ele><time>2026-04-18T08:08:46.651Z</time></trkpt><trkpt lat="43.6053633" lon="10.9600764"><ele>49.0</ele><time>2026-04-18T08:08:47.644Z</time></trkpt><trkpt lat="43.6052005" lon="10.9600811"><ele>49.0</ele><time>2026-04-18T08:08:48.649Z</time></trkpt><trkpt lat="43.60503" lon="10.9600911"><ele>48.666666666666664</ele><time>2026-04-18T08:08:49.653Z</time></trkpt><trkpt lat="43.6048533" lon="10.9601127"><ele>48.33333333333333</ele><time>2026-04-18T08:08:50.65Z</time></trkpt><trkpt lat="43.6046952" lon="10.9601452"><ele>48.0</ele><time>2026-04-18T08:08:51.649Z</time></trkpt><trkpt lat="43.6045242" lon="10.9601674"><ele>48.0</ele><time>2026-04-18T08:08:52.651Z</time></trkpt><trkpt lat="43.6043557" lon="10.9601854"><ele>48.0</ele><time>2026-04-18T08:08:53.651Z</time></trkpt><trkpt lat="43.6041817" lon="10.960222"><ele>48.0</ele><time>2026-04-18T08:08:54.652Z</time></trkpt><trkpt lat="43.6040081" lon="10.9602459"><ele>48.0</ele><time>2026-04-18T08:08:55.649Z</time></trkpt><trkpt lat="43.6038403" lon="10.9602883"><ele>48.0</ele><time>2026-04-18T08:08:56.649Z</time></trkpt><trkpt lat="43.6036842" lon="10.9603342"><ele>48.0</ele><time>2026-04-18T08:08:57.646Z</time></trkpt><trkpt lat="43.6035219" lon="10.9603767"><ele>48.33333333333333</ele><time>2026-04-18T08:08:58.656Z</time></trkpt><trkpt lat="43.6033576" lon="10.9604315"><ele>48.666666666666664</ele><time>2026-04-18T08:08:59.642Z</time></trkpt><trkpt lat="43.6031807" lon="10.9604813"><ele>49.0</ele><time>2026-04-18T08:09:00.643Z</time></trkpt><trkpt lat="43.603021" lon="10.9605406"><ele>49.0</ele><time>2026-04-18T08:09:01.638Z</time></trkpt><trkpt lat="43.6028629" lon="10.9606014"><ele>49.0</ele><time>2026-04-18T08:09:02.637Z</time></trkpt><trkpt lat="43.6027248" lon="10.9606671"><ele>49.0</ele><time>2026-04-18T08:09:03.642Z</time></trkpt><trkpt lat="43.6025713" lon="10.9607122"><ele>49.0</ele><time>2026-04-18T08:09:04.643Z</time></trkpt><trkpt lat="43.6024297" lon="10.9607811"><ele>49.0</ele><time>2026-04-18T08:09:05.656Z</time></trkpt><trkpt lat="43.6022887" lon="10.960836"><ele>49.0</ele><time>2026-04-18T08:09:06.644Z</time></trkpt><trkpt lat="43.6021456" lon="10.9608989"><ele>49.0</ele><time>2026-04-18T08:09:07.65Z</time></trkpt><trkpt lat="43.6019972" lon="10.9609509"><ele>49.0</ele><time>2026-04-18T08:09:08.643Z</time></trkpt><trkpt lat="43.6018659" lon="10.9610148"><ele>49.0</ele><time>2026-04-18T08:09:09.643Z</time></trkpt><trkpt lat="43.6017368" lon="10.9610751"><ele>49.0</ele><time>2026-04-18T08:09:10.65Z</time></trkpt><trkpt lat="43.6015946" lon="10.9611303"><ele>49.0</ele><time>2026-04-18T08:09:11.651Z</time></trkpt><trkpt lat="43.6014567" lon="10.9611982"><ele>49.0</ele><time>2026-04-18T08:09:12.651Z</time></trkpt><trkpt lat="43.6013187" lon="10.961253"><ele>49.0</ele><time>2026-04-18T08:09:13.656Z</time></trkpt><trkpt lat="43.6011995" lon="10.9613051"><ele>49.0</ele><time>2026-04-18T08:09:14.654Z</time></trkpt><trkpt lat="43.6010855" lon="10.9613513"><ele>49.0</ele><time>2026-04-18T08:09:15.648Z</time></trkpt><trkpt lat="43.6009863" lon="10.9613974"><ele>49.400000000000006</ele><time>2026-04-18T08:09:16.659Z</time></trkpt><trkpt lat="43.6008843" lon="10.9614375"><ele>49.8</ele><time>2026-04-18T08:09:17.652Z</time></trkpt><trkpt lat="43.6007803" lon="10.9614731"><ele>50.2</ele><time>2026-04-18T08:09:18.655Z</time></trkpt><trkpt lat="43.6006856" lon="10.9614997"><ele>50.599999999999994</ele><time>2026-04-18T08:09:19.653Z</time></trkpt><trkpt lat="43.6006058" lon="10.9615338"><ele>51.0</ele><time>2026-04-18T08:09:20.651Z</time></trkpt><trkpt lat="43.6005386" lon="10.9615653"><ele>51.0</ele><time>2026-04-18T08:09:21.649Z</time></trkpt><trkpt lat="43.6004688" lon="10.9615919"><ele>51.0</ele><time>2026-04-18T08:09:22.652Z</time></trkpt><trkpt lat="43.6003741" lon="10.9616296"><ele>51.0</ele><time>2026-04-18T08:09:24.654Z</time></trkpt><trkpt lat="43.6003087" lon="10.9616735"><ele>51.0</ele><time>2026-04-18T08:09:26.651Z</time></trkpt><trkpt lat="43.6002392" lon="10.961715"><ele>51.0</ele><time>2026-04-18T08:10:15.652Z</time></trkpt><trkpt lat="43.6001327" lon="10.9617619"><ele>51.0</ele><time>2026-04-18T08:10:17.66Z</time></trkpt><trkpt lat="43.6000544" lon="10.9617958"><ele>51.0</ele><time>2026-04-18T08:10:18.667Z</time></trkpt><trkpt lat="43.5999724" lon="10.9618285"><ele>51.0</ele><time>2026-04-18T08:10:19.66Z</time></trkpt><trkpt lat="43.5998796" lon="10.9618669"><ele>51.0</ele><time>2026-04-18T08:10:20.659Z</time></trkpt><trkpt lat="43.5997748" lon="10.9619069"><ele>51.0</ele><time>2026-04-18T08:10:21.654Z</time></trkpt><trkpt lat="43.5996605" lon="10.9619538"><ele>51.0</ele><time>2026-04-18T08:10:22.654Z</time></trkpt><trkpt lat="43.5995373" lon="10.9619965"><ele>50.75</ele><time>2026-04-18T08:10:23.656Z</time></trkpt><trkpt lat="43.5994112" lon="10.9620585"><ele>50.5</ele><time>2026-04-18T08:10:24.655Z</time></trkpt><trkpt lat="43.5992829" lon="10.9621202"><ele>50.25</ele><time>2026-04-18T08:10:25.661Z</time></trkpt><trkpt lat="43.5991534" lon="10.9621819"><ele>50.0</ele><time>2026-04-18T08:10:26.654Z</time></trkpt><trkpt lat="43.5990002" lon="10.962248"><ele>50.0</ele><time>2026-04-18T08:10:27.659Z</time></trkpt><trkpt lat="43.5988515" lon="10.9623127"><ele>50.0</ele><time>2026-04-18T08:10:28.659Z</time></trkpt><trkpt lat="43.598709" lon="10.9623778"><ele>50.0</ele><time>2026-04-18T08:10:29.656Z</time></trkpt><trkpt lat="43.5985781" lon="10.9624467"><ele>50.0</ele><time>2026-04-18T08:10:30.66Z</time></trkpt><trkpt lat="43.5984327" lon="10.9625049"><ele>50.333333333333336</ele><time>2026-04-18T08:10:31.657Z</time></trkpt><trkpt lat="43.5982884" lon="10.9625884"><ele>50.66666666666667</ele><time>2026-04-18T08:10:32.655Z</time></trkpt><trkpt lat="43.5981372" lon="10.9626471"><ele>51.0</ele><time>2026-04-18T08:10:33.654Z</time></trkpt><trkpt lat="43.5979825" lon="10.9627147"><ele>51.33333333333333</ele><time>2026-04-18T08:10:34.653Z</time></trkpt><trkpt lat="43.5978127" lon="10.9627739"><ele>51.666666666666664</ele><time>2026-04-18T08:10:35.655Z</time></trkpt><trkpt lat="43.5976381" lon="10.9628507"><ele>52.0</ele><time>2026-04-18T08:10:36.655Z</time></trkpt><trkpt lat="43.597461" lon="10.9629286"><ele>52.0</ele><time>2026-04-18T08:10:37.655Z</time></trkpt><trkpt lat="43.5972863" lon="10.9629987"><ele>52.0</ele><time>2026-04-18T08:10:38.669Z</time></trkpt><trkpt lat="43.5971194" lon="10.9630707"><ele>52.0</ele><time>2026-04-18T08:10:39.655Z</time></trkpt><trkpt lat="43.5969697" lon="10.9631486"><ele>52.0</ele><time>2026-04-18T08:10:40.656Z</time></trkpt><trkpt lat="43.5968131" lon="10.9632125"><ele>52.0</ele><time>2026-04-18T08:10:41.656Z</time></trkpt><trkpt lat="43.596642" lon="10.963292"><ele>52.0</ele><time>2026-04-18T08:10:42.644Z</time></trkpt><trkpt lat="43.5964499" lon="10.9633815"><ele>52.0</ele><time>2026-04-18T08:10:43.646Z</time></trkpt><trkpt lat="43.5962411" lon="10.9634688"><ele>52.0</ele><time>2026-04-18T08:10:44.66Z</time></trkpt><trkpt lat="43.5960318" lon="10.9635598"><ele>52.0</ele><time>2026-04-18T08:10:45.658Z</time></trkpt><trkpt lat="43.5958457" lon="10.9636438"><ele>51.33333333333333</ele><time>2026-04-18T08:10:46.667Z</time></trkpt><trkpt lat="43.5956729" lon="10.9637379"><ele>50.66666666666667</ele><time>2026-04-18T08:10:47.655Z</time></trkpt><trkpt lat="43.5955059" lon="10.9638416"><ele>50.0</ele><time>2026-04-18T08:10:48.655Z</time></trkpt><trkpt lat="43.5953453" lon="10.9639723"><ele>50.0</ele><time>2026-04-18T08:10:49.654Z</time></trkpt><trkpt lat="43.5952041" lon="10.9641147"><ele>50.0</ele><time>2026-04-18T08:10:50.655Z</time></trkpt><trkpt lat="43.5950729" lon="10.9642514"><ele>50.0</ele><time>2026-04-18T08:10:51.652Z</time></trkpt><trkpt lat="43.5949428" lon="10.9643964"><ele>50.0</ele><time>2026-04-18T08:10:52.651Z</time></trkpt><trkpt lat="43.5948082" lon="10.9645778"><ele>50.0</ele><time>2026-04-18T08:10:53.657Z</time></trkpt><trkpt lat="43.5946849" lon="10.9647672"><ele>50.0</ele><time>2026-04-18T08:10:54.656Z</time></trkpt><trkpt lat="43.5945545" lon="10.9649479"><ele>50.0</ele><time>2026-04-18T08:10:55.661Z</time></trkpt><trkpt lat="43.5944704" lon="10.9651336"><ele>50.0</ele><time>2026-04-18T08:10:56.654Z</time></trkpt><trkpt lat="43.5943941" lon="10.9653147"><ele>50.0</ele><time>2026-04-18T08:10:57.651Z</time></trkpt><trkpt lat="43.5943253" lon="10.9654658"><ele>50.0</ele><time>2026-04-18T08:10:58.652Z</time></trkpt><trkpt lat="43.594274" lon="10.9656104"><ele>50.00000000000001</ele><time>2026-04-18T08:10:59.652Z</time></trkpt><trkpt lat="43.5942276" lon="10.9657391"><ele>50.0</ele><time>2026-04-18T08:11:00.66Z</time></trkpt><trkpt lat="43.5941912" lon="10.9658565"><ele>50.0</ele><time>2026-04-18T08:11:01.652Z</time></trkpt><trkpt lat="43.594154" lon="10.9659627"><ele>50.0</ele><time>2026-04-18T08:11:02.653Z</time></trkpt><trkpt lat="43.5941092" lon="10.9660452"><ele>50.00000000000001</ele><time>2026-04-18T08:11:03.653Z</time></trkpt><trkpt lat="43.594056" lon="10.9661149"><ele>50.0</ele><time>2026-04-18T08:11:04.659Z</time></trkpt><trkpt lat="43.5940026" lon="10.9661867"><ele>50.4</ele><time>2026-04-18T08:11:05.656Z</time></trkpt><trkpt lat="43.593892" lon="10.9662879"><ele>50.8</ele><time>2026-04-18T08:11:07.652Z</time></trkpt><trkpt lat="43.5938247" lon="10.9663279"><ele>51.2</ele><time>2026-04-18T08:11:08.655Z</time></trkpt><trkpt lat="43.5937626" lon="10.966385"><ele>51.6</ele><time>2026-04-18T08:11:09.664Z</time></trkpt><trkpt lat="43.5937236" lon="10.9664616"><ele>52.0</ele><time>2026-04-18T08:11:10.641Z</time></trkpt><trkpt lat="43.593741" lon="10.9666218"><ele>51.83333333333333</ele><time>2026-04-18T08:11:12.651Z</time></trkpt><trkpt lat="43.5937775" lon="10.966706"><ele>51.666666666666664</ele><time>2026-04-18T08:11:13.652Z</time></trkpt><trkpt lat="43.5938113" lon="10.9668197"><ele>51.5</ele><time>2026-04-18T08:11:14.638Z</time></trkpt><trkpt lat="43.5938289" lon="10.9669387"><ele>51.33333333333333</ele><time>2026-04-18T08:11:15.639Z</time></trkpt><trkpt lat="43.5938156" lon="10.9670607"><ele>51.166666666666664</ele><time>2026-04-18T08:11:16.644Z</time></trkpt><trkpt lat="43.593784" lon="10.9671721"><ele>51.0</ele><time>2026-04-18T08:11:17.653Z</time></trkpt><trkpt lat="43.5937361" lon="10.967294"><ele>51.0</ele><time>2026-04-18T08:11:18.653Z</time></trkpt><trkpt lat="43.5936825" lon="10.967423"><ele>51.0</ele><time>2026-04-18T08:11:19.651Z</time></trkpt><trkpt lat="43.5936348" lon="10.9675615"><ele>51.0</ele><time>2026-04-18T08:11:20.651Z</time></trkpt><trkpt lat="43.5935837" lon="10.9677064"><ele>51.0</ele><time>2026-04-18T08:11:21.661Z</time></trkpt><trkpt lat="43.5935332" lon="10.9678617"><ele>50.75</ele><time>2026-04-18T08:11:22.661Z</time></trkpt><trkpt lat="43.5934798" lon="10.9680253"><ele>50.5</ele><time>2026-04-18T08:11:23.662Z</time></trkpt><trkpt lat="43.5934252" lon="10.9682008"><ele>50.25</ele><time>2026-04-18T08:11:24.664Z</time></trkpt><trkpt lat="43.5933715" lon="10.9683726"><ele>50.0</ele><time>2026-04-18T08:11:25.658Z</time></trkpt><trkpt lat="43.5933242" lon="10.9685495"><ele>50.0</ele><time>2026-04-18T08:11:26.657Z</time></trkpt><trkpt lat="43.5932644" lon="10.9687239"><ele>50.0</ele><time>2026-04-18T08:11:27.656Z</time></trkpt><trkpt lat="43.593219" lon="10.9689061"><ele>50.0</ele><time>2026-04-18T08:11:28.657Z</time></trkpt><trkpt lat="43.5931691" lon="10.969073"><ele>50.0</ele><time>2026-04-18T08:11:29.649Z</time></trkpt><trkpt lat="43.5931391" lon="10.9692489"><ele>50.333333333333336</ele><time>2026-04-18T08:11:30.655Z</time></trkpt><trkpt lat="43.5931031" lon="10.9694394"><ele>50.66666666666667</ele><time>2026-04-18T08:11:31.651Z</time></trkpt><trkpt lat="43.5930795" lon="10.9696528"><ele>51.0</ele><time>2026-04-18T08:11:32.655Z</time></trkpt><trkpt lat="43.5930694" lon="10.969894"><ele>51.0</ele><time>2026-04-18T08:11:33.649Z</time></trkpt><trkpt lat="43.5930546" lon="10.9701493"><ele>51.0</ele><time>2026-04-18T08:11:34.654Z</time></trkpt><trkpt lat="43.5930243" lon="10.9704013"><ele>51.0</ele><time>2026-04-18T08:11:35.651Z</time></trkpt><trkpt lat="43.5929856" lon="10.9706149"><ele>51.0</ele><time>2026-04-18T08:11:36.657Z</time></trkpt><trkpt lat="43.5929621" lon="10.9708131"><ele>51.0</ele><time>2026-04-18T08:11:37.658Z</time></trkpt><trkpt lat="43.5929425" lon="10.9709916"><ele>51.0</ele><time>2026-04-18T08:11:38.649Z</time></trkpt><trkpt lat="43.5929295" lon="10.9711494"><ele>51.0</ele><time>2026-04-18T08:11:39.648Z</time></trkpt><trkpt lat="43.5929157" lon="10.9713003"><ele>51.0</ele><time>2026-04-18T08:11:40.665Z</time></trkpt><trkpt lat="43.5928893" lon="10.9714372"><ele>51.0</ele><time>2026-04-18T08:11:41.648Z</time></trkpt><trkpt lat="43.5928654" lon="10.971574"><ele>51.0</ele><time>2026-04-18T08:11:42.65Z</time></trkpt><trkpt lat="43.5928474" lon="10.9717009"><ele>51.0</ele><time>2026-04-18T08:11:43.654Z</time></trkpt><trkpt lat="43.5928133" lon="10.971807"><ele>51.0</ele><time>2026-04-18T08:11:44.651Z</time></trkpt><trkpt lat="43.5927681" lon="10.9719097"><ele>51.0</ele><time>2026-04-18T08:11:45.649Z</time></trkpt><trkpt lat="43.5927069" lon="10.9720224"><ele>51.0</ele><time>2026-04-18T08:11:46.655Z</time></trkpt><trkpt lat="43.5926348" lon="10.9721471"><ele>51.0</ele><time>2026-04-18T08:11:47.654Z</time></trkpt><trkpt lat="43.5925885" lon="10.9722708"><ele>51.0</ele><time>2026-04-18T08:11:48.648Z</time></trkpt><trkpt lat="43.5925828" lon="10.972401"><ele>51.0</ele><time>2026-04-18T08:11:49.67Z</time></trkpt><trkpt lat="43.5926132" lon="10.9725421"><ele>51.0</ele><time>2026-04-18T08:11:50.653Z</time></trkpt><trkpt lat="43.5926552" lon="10.9726922"><ele>51.0</ele><time>2026-04-18T08:11:51.649Z</time></trkpt><trkpt lat="43.5926801" lon="10.9728542"><ele>51.0</ele><time>2026-04-18T08:11:52.643Z</time></trkpt><trkpt lat="43.5926608" lon="10.9730301"><ele>51.0</ele><time>2026-04-18T08:11:53.637Z</time></trkpt><trkpt lat="43.5926347" lon="10.9732262"><ele>51.0</ele><time>2026-04-18T08:11:54.643Z</time></trkpt><trkpt lat="43.5925867" lon="10.9734247"><ele>51.0</ele><time>2026-04-18T08:11:55.651Z</time></trkpt><trkpt lat="43.5925454" lon="10.9736391"><ele>51.0</ele><time>2026-04-18T08:11:56.65Z</time></trkpt><trkpt lat="43.5925197" lon="10.9738502"><ele>51.0</ele><time>2026-04-18T08:11:57.645Z</time></trkpt><trkpt lat="43.5924921" lon="10.9740645"><ele>51.0</ele><time>2026-04-18T08:11:58.654Z</time></trkpt><trkpt lat="43.5924625" lon="10.9742652"><ele>51.0</ele><time>2026-04-18T08:11:59.643Z</time></trkpt><trkpt lat="43.5924277" lon="10.974446"><ele>51.0</ele><time>2026-04-18T08:12:00.645Z</time></trkpt><trkpt lat="43.5923966" lon="10.9746069"><ele>51.0</ele><time>2026-04-18T08:12:01.64Z</time></trkpt><trkpt lat="43.5923668" lon="10.9747671"><ele>51.0</ele><time>2026-04-18T08:12:02.641Z</time></trkpt><trkpt lat="43.5923408" lon="10.9749332"><ele>51.0</ele><time>2026-04-18T08:12:03.648Z</time></trkpt><trkpt lat="43.5923273" lon="10.9750836"><ele>51.0</ele><time>2026-04-18T08:12:04.643Z</time></trkpt><trkpt lat="43.5923134" lon="10.97521"><ele>51.0</ele><time>2026-04-18T08:12:05.645Z</time></trkpt><trkpt lat="43.5922962" lon="10.9753252"><ele>51.0</ele><time>2026-04-18T08:12:06.653Z</time></trkpt><trkpt lat="43.5922662" lon="10.9754265"><ele>51.0</ele><time>2026-04-18T08:12:07.652Z</time></trkpt><trkpt lat="43.5922079" lon="10.9755165"><ele>51.0</ele><time>2026-04-18T08:12:08.655Z</time></trkpt><trkpt lat="43.5921354" lon="10.9755991"><ele>51.0</ele><time>2026-04-18T08:12:09.652Z</time></trkpt><trkpt lat="43.5920277" lon="10.9756851"><ele>51.0</ele><time>2026-04-18T08:12:10.656Z</time></trkpt><trkpt lat="43.59192" lon="10.9757868"><ele>51.25</ele><time>2026-04-18T08:12:11.669Z</time></trkpt><trkpt lat="43.5918248" lon="10.9758915"><ele>51.5</ele><time>2026-04-18T08:12:12.653Z</time></trkpt><trkpt lat="43.5917372" lon="10.9759785"><ele>51.75</ele><time>2026-04-18T08:12:13.659Z</time></trkpt><trkpt lat="43.5916466" lon="10.9760613"><ele>52.0</ele><time>2026-04-18T08:12:14.66Z</time></trkpt><trkpt lat="43.5915516" lon="10.9761538"><ele>52.0</ele><time>2026-04-18T08:12:15.662Z</time></trkpt><trkpt lat="43.5914504" lon="10.9762519"><ele>52.0</ele><time>2026-04-18T08:12:16.667Z</time></trkpt><trkpt lat="43.5913371" lon="10.9763528"><ele>52.0</ele><time>2026-04-18T08:12:17.662Z</time></trkpt><trkpt lat="43.5912165" lon="10.9764727"><ele>52.0</ele><time>2026-04-18T08:12:18.667Z</time></trkpt><trkpt lat="43.5911041" lon="10.9765911"><ele>52.0</ele><time>2026-04-18T08:12:19.66Z</time></trkpt><trkpt lat="43.5909947" lon="10.9767144"><ele>52.0</ele><time>2026-04-18T08:12:20.659Z</time></trkpt><trkpt lat="43.5908843" lon="10.9768444"><ele>52.0</ele><time>2026-04-18T08:12:21.659Z</time></trkpt><trkpt lat="43.5907726" lon="10.976952"><ele>52.0</ele><time>2026-04-18T08:12:22.652Z</time></trkpt><trkpt lat="43.5906462" lon="10.9770561"><ele>52.0</ele><time>2026-04-18T08:12:23.656Z</time></trkpt><trkpt lat="43.5905364" lon="10.9771786"><ele>52.0</ele><time>2026-04-18T08:12:24.658Z</time></trkpt><trkpt lat="43.5904208" lon="10.9773033"><ele>52.0</ele><time>2026-04-18T08:12:25.663Z</time></trkpt><trkpt lat="43.5903065" lon="10.9774087"><ele>52.0</ele><time>2026-04-18T08:12:26.66Z</time></trkpt><trkpt lat="43.5901999" lon="10.9775065"><ele>52.0</ele><time>2026-04-18T08:12:27.656Z</time></trkpt><trkpt lat="43.5901185" lon="10.9775935"><ele>52.0</ele><time>2026-04-18T08:12:28.665Z</time></trkpt><trkpt lat="43.5900198" lon="10.9776816"><ele>52.0</ele><time>2026-04-18T08:12:29.658Z</time></trkpt><trkpt lat="43.5899494" lon="10.9777576"><ele>52.0</ele><time>2026-04-18T08:12:30.659Z</time></trkpt><trkpt lat="43.5898787" lon="10.9778405"><ele>52.0</ele><time>2026-04-18T08:12:31.659Z</time></trkpt><trkpt lat="43.5898017" lon="10.977919"><ele>52.0</ele><time>2026-04-18T08:12:32.66Z</time></trkpt><trkpt lat="43.589717" lon="10.9779937"><ele>52.0</ele><time>2026-04-18T08:12:33.66Z</time></trkpt><trkpt lat="43.5896379" lon="10.9780799"><ele>52.0</ele><time>2026-04-18T08:12:34.659Z</time></trkpt><trkpt lat="43.5895485" lon="10.9781742"><ele>52.0</ele><time>2026-04-18T08:12:35.651Z</time></trkpt><trkpt lat="43.5894425" lon="10.9782827"><ele>52.0</ele><time>2026-04-18T08:12:36.663Z</time></trkpt><trkpt lat="43.5893001" lon="10.9784141"><ele>51.666666666666664</ele><time>2026-04-18T08:12:37.659Z</time></trkpt><trkpt lat="43.5891714" lon="10.9785532"><ele>51.33333333333333</ele><time>2026-04-18T08:12:38.66Z</time></trkpt><trkpt lat="43.5890501" lon="10.9786801"><ele>51.0</ele><time>2026-04-18T08:12:39.656Z</time></trkpt><trkpt lat="43.5889255" lon="10.9787864"><ele>51.0</ele><time>2026-04-18T08:12:40.658Z</time></trkpt><trkpt lat="43.588809" lon="10.9789014"><ele>51.0</ele><time>2026-04-18T08:12:41.659Z</time></trkpt><trkpt lat="43.5886913" lon="10.9790014"><ele>51.0</ele><time>2026-04-18T08:12:42.675Z</time></trkpt><trkpt lat="43.5885762" lon="10.9791086"><ele>51.0</ele><time>2026-04-18T08:12:43.665Z</time></trkpt><trkpt lat="43.5884662" lon="10.9792118"><ele>51.0</ele><time>2026-04-18T08:12:44.664Z</time></trkpt><trkpt lat="43.5883692" lon="10.9793158"><ele>51.0</ele><time>2026-04-18T08:12:45.664Z</time></trkpt><trkpt lat="43.588274" lon="10.9794154"><ele>51.0</ele><time>2026-04-18T08:12:46.67Z</time></trkpt><trkpt lat="43.5881813" lon="10.979519"><ele>51.0</ele><time>2026-04-18T08:12:47.667Z</time></trkpt><trkpt lat="43.5880821" lon="10.9796222"><ele>51.0</ele><time>2026-04-18T08:12:48.661Z</time></trkpt><trkpt lat="43.5879754" lon="10.9797183"><ele>51.0</ele><time>2026-04-18T08:12:49.662Z</time></trkpt><trkpt lat="43.5878652" lon="10.9798287"><ele>51.0</ele><time>2026-04-18T08:12:50.658Z</time></trkpt><trkpt lat="43.5877544" lon="10.9799472"><ele>51.0</ele><time>2026-04-18T08:12:51.665Z</time></trkpt><trkpt lat="43.5876364" lon="10.9800769"><ele>51.5</ele><time>2026-04-18T08:12:52.657Z</time></trkpt><trkpt lat="43.5875144" lon="10.9802026"><ele>52.0</ele><time>2026-04-18T08:12:53.657Z</time></trkpt><trkpt lat="43.5874149" lon="10.9803367"><ele>52.5</ele><time>2026-04-18T08:12:54.652Z</time></trkpt><trkpt lat="43.5873142" lon="10.9804811"><ele>53.0</ele><time>2026-04-18T08:12:55.652Z</time></trkpt><trkpt lat="43.5872281" lon="10.9805845"><ele>53.0</ele><time>2026-04-18T08:12:56.642Z</time></trkpt><trkpt lat="43.5871202" lon="10.980726"><ele>53.0</ele><time>2026-04-18T08:12:57.644Z</time></trkpt><trkpt lat="43.5870023" lon="10.9808289"><ele>53.0</ele><time>2026-04-18T08:12:58.651Z</time></trkpt><trkpt lat="43.5868839" lon="10.9809358"><ele>53.0</ele><time>2026-04-18T08:12:59.646Z</time></trkpt><trkpt lat="43.5867424" lon="10.9810505"><ele>52.5</ele><time>2026-04-18T08:13:00.647Z</time></trkpt><trkpt lat="43.5866234" lon="10.9811902"><ele>52.0</ele><time>2026-04-18T08:13:01.645Z</time></trkpt><trkpt lat="43.5865021" lon="10.9812838"><ele>51.5</ele><time>2026-04-18T08:13:02.649Z</time></trkpt><trkpt lat="43.5863829" lon="10.9813935"><ele>51.0</ele><time>2026-04-18T08:13:03.656Z</time></trkpt><trkpt lat="43.586272" lon="10.9815166"><ele>51.0</ele><time>2026-04-18T08:13:04.657Z</time></trkpt><trkpt lat="43.5861639" lon="10.9816228"><ele>51.0</ele><time>2026-04-18T08:13:05.657Z</time></trkpt><trkpt lat="43.5860786" lon="10.9817135"><ele>51.0</ele><time>2026-04-18T08:13:06.66Z</time></trkpt><trkpt lat="43.5859854" lon="10.9817979"><ele>51.0</ele><time>2026-04-18T08:13:07.656Z</time></trkpt><trkpt lat="43.5859143" lon="10.9818675"><ele>51.0</ele><time>2026-04-18T08:13:08.654Z</time></trkpt><trkpt lat="43.5858289" lon="10.98196"><ele>51.0</ele><time>2026-04-18T08:13:09.655Z</time></trkpt><trkpt lat="43.5857427" lon="10.9820456"><ele>51.0</ele><time>2026-04-18T08:13:10.661Z</time></trkpt><trkpt lat="43.585654" lon="10.982143"><ele>51.0</ele><time>2026-04-18T08:13:11.659Z</time></trkpt><trkpt lat="43.5855733" lon="10.9822269"><ele>51.0</ele><time>2026-04-18T08:13:12.658Z</time></trkpt><trkpt lat="43.585487" lon="10.9823101"><ele>51.0</ele><time>2026-04-18T08:13:13.672Z</time></trkpt><trkpt lat="43.5854175" lon="10.9823826"><ele>51.0</ele><time>2026-04-18T08:13:14.665Z</time></trkpt><trkpt lat="43.5853477" lon="10.9824636"><ele>51.0</ele><time>2026-04-18T08:13:15.658Z</time></trkpt><trkpt lat="43.5852755" lon="10.9825493"><ele>51.0</ele><time>2026-04-18T08:13:16.668Z</time></trkpt><trkpt lat="43.5852073" lon="10.9826261"><ele>51.0</ele><time>2026-04-18T08:13:17.665Z</time></trkpt><trkpt lat="43.5851324" lon="10.9827165"><ele>51.0</ele><time>2026-04-18T08:13:18.662Z</time></trkpt><trkpt lat="43.5850576" lon="10.9827733"><ele>50.8</ele><time>2026-04-18T08:13:19.658Z</time></trkpt><trkpt lat="43.5849735" lon="10.982796"><ele>50.599999999999994</ele><time>2026-04-18T08:13:20.666Z</time></trkpt><trkpt lat="43.5848787" lon="10.9828115"><ele>50.4</ele><time>2026-04-18T08:13:21.668Z</time></trkpt><trkpt lat="43.5847796" lon="10.9828168"><ele>50.2</ele><time>2026-04-18T08:13:22.668Z</time></trkpt><trkpt lat="43.5846921" lon="10.9828148"><ele>50.0</ele><time>2026-04-18T08:13:23.669Z</time></trkpt><trkpt lat="43.5846102" lon="10.9827991"><ele>50.0</ele><time>2026-04-18T08:13:24.661Z</time></trkpt><trkpt lat="43.584533" lon="10.9827721"><ele>50.0</ele><time>2026-04-18T08:13:25.66Z</time></trkpt><trkpt lat="43.5844689" lon="10.9827229"><ele>50.0</ele><time>2026-04-18T08:13:26.654Z</time></trkpt><trkpt lat="43.5843924" lon="10.982636"><ele>50.0</ele><time>2026-04-18T08:13:27.65Z</time></trkpt><trkpt lat="43.5843088" lon="10.9825367"><ele>50.0</ele><time>2026-04-18T08:13:28.657Z</time></trkpt><trkpt lat="43.5842162" lon="10.9824628"><ele>51.2</ele><time>2026-04-18T08:13:29.648Z</time></trkpt><trkpt lat="43.5841275" lon="10.9823943"><ele>52.4</ele><time>2026-04-18T08:13:30.652Z</time></trkpt><trkpt lat="43.5840447" lon="10.9823543"><ele>53.599999999999994</ele><time>2026-04-18T08:13:31.637Z</time></trkpt><trkpt lat="43.5839521" lon="10.982336"><ele>54.8</ele><time>2026-04-18T08:13:32.634Z</time></trkpt><trkpt lat="43.5838589" lon="10.9823487"><ele>56.0</ele><time>2026-04-18T08:13:33.631Z</time></trkpt><trkpt lat="43.5837657" lon="10.9824101"><ele>56.0</ele><time>2026-04-18T08:13:34.637Z</time></trkpt><trkpt lat="43.5836826" lon="10.9824845"><ele>55.99999999999999</ele><time>2026-04-18T08:13:35.638Z</time></trkpt><trkpt lat="43.5835996" lon="10.9825779"><ele>55.99999999999999</ele><time>2026-04-18T08:13:36.642Z</time></trkpt><trkpt lat="43.583503" lon="10.9826411"><ele>56.0</ele><time>2026-04-18T08:13:37.631Z</time></trkpt><trkpt lat="43.5833941" lon="10.9826663"><ele>56.0</ele><time>2026-04-18T08:13:38.626Z</time></trkpt><trkpt lat="43.5832792" lon="10.9826736"><ele>56.0</ele><time>2026-04-18T08:13:39.629Z</time></trkpt><trkpt lat="43.5831599" lon="10.9826493"><ele>56.0</ele><time>2026-04-18T08:13:40.624Z</time></trkpt><trkpt lat="43.5830424" lon="10.9826355"><ele>56.0</ele><time>2026-04-18T08:13:41.633Z</time></trkpt><trkpt lat="43.582931" lon="10.982629"><ele>56.0</ele><time>2026-04-18T08:13:42.624Z</time></trkpt><trkpt lat="43.582826" lon="10.9826386"><ele>56.0</ele><time>2026-04-18T08:13:43.624Z</time></trkpt><trkpt lat="43.5827328" lon="10.982675"><ele>55.99999999999999</ele><time>2026-04-18T08:13:44.643Z</time></trkpt><trkpt lat="43.5826469" lon="10.9827399"><ele>55.99999999999999</ele><time>2026-04-18T08:13:45.638Z</time></trkpt><trkpt lat="43.5825651" lon="10.9828316"><ele>56.0</ele><time>2026-04-18T08:13:46.625Z</time></trkpt><trkpt lat="43.5824952" lon="10.9829529"><ele>56.0</ele><time>2026-04-18T08:13:47.635Z</time></trkpt><trkpt lat="43.5824511" lon="10.9831033"><ele>56.0</ele><time>2026-04-18T08:13:48.633Z</time></trkpt><trkpt lat="43.5824166" lon="10.9832565"><ele>55.99999999999999</ele><time>2026-04-18T08:13:49.643Z</time></trkpt><trkpt lat="43.5823792" lon="10.9833987"><ele>55.99999999999999</ele><time>2026-04-18T08:13:50.638Z</time></trkpt><trkpt lat="43.5823503" lon="10.9835221"><ele>56.0</ele><time>2026-04-18T08:13:51.635Z</time></trkpt><trkpt lat="43.5823255" lon="10.9836151"><ele>56.0</ele><time>2026-04-18T08:13:52.637Z</time></trkpt><trkpt lat="43.5823004" lon="10.9837308"><ele>55.8</ele><time>2026-04-18T08:13:54.645Z</time></trkpt><trkpt lat="43.5822203" lon="10.9837513"><ele>55.599999999999994</ele><time>2026-04-18T08:13:56.644Z</time></trkpt><trkpt lat="43.5820945" lon="10.9836663"><ele>55.4</ele><time>2026-04-18T08:13:58.641Z</time></trkpt><trkpt lat="43.5820334" lon="10.9835969"><ele>55.2</ele><time>2026-04-18T08:13:59.641Z</time></trkpt><trkpt lat="43.5819402" lon="10.9834901"><ele>55.0</ele><time>2026-04-18T08:14:01.635Z</time></trkpt><trkpt lat="43.5818744" lon="10.9834847"><ele>55.0</ele><time>2026-04-18T08:14:02.649Z</time></trkpt><trkpt lat="43.5818076" lon="10.9835234"><ele>55.0</ele><time>2026-04-18T08:14:03.65Z</time></trkpt><trkpt lat="43.581749" lon="10.9835995"><ele>55.0</ele><time>2026-04-18T08:14:04.651Z</time></trkpt><trkpt lat="43.5816957" lon="10.9837054"><ele>55.0</ele><time>2026-04-18T08:14:05.636Z</time></trkpt><trkpt lat="43.5816394" lon="10.9838373"><ele>55.0</ele><time>2026-04-18T08:14:06.639Z</time></trkpt><trkpt lat="43.5815755" lon="10.9839856"><ele>55.0</ele><time>2026-04-18T08:14:07.646Z</time></trkpt><trkpt lat="43.5814903" lon="10.9841278"><ele>55.0</ele><time>2026-04-18T08:14:08.645Z</time></trkpt><trkpt lat="43.581388" lon="10.9842848"><ele>55.0</ele><time>2026-04-18T08:14:09.64Z</time></trkpt><trkpt lat="43.5812679" lon="10.9844649"><ele>55.75</ele><time>2026-04-18T08:14:10.652Z</time></trkpt><trkpt lat="43.5811726" lon="10.9846334"><ele>56.5</ele><time>2026-04-18T08:14:11.653Z</time></trkpt><trkpt lat="43.5810881" lon="10.9847671"><ele>57.25</ele><time>2026-04-18T08:14:12.646Z</time></trkpt><trkpt lat="43.5809986" lon="10.9849193"><ele>58.0</ele><time>2026-04-18T08:14:13.656Z</time></trkpt><trkpt lat="43.5809119" lon="10.9850627"><ele>58.0</ele><time>2026-04-18T08:14:14.659Z</time></trkpt><trkpt lat="43.5808309" lon="10.9851895"><ele>58.0</ele><time>2026-04-18T08:14:15.672Z</time></trkpt><trkpt lat="43.5807523" lon="10.9852941"><ele>58.0</ele><time>2026-04-18T08:14:16.666Z</time></trkpt><trkpt lat="43.580694" lon="10.9854057"><ele>58.0</ele><time>2026-04-18T08:14:17.665Z</time></trkpt><trkpt lat="43.5806309" lon="10.98551"><ele>58.0</ele><time>2026-04-18T08:14:18.66Z</time></trkpt><trkpt lat="43.580588" lon="10.9855785"><ele>57.99999999999999</ele><time>2026-04-18T08:14:19.656Z</time></trkpt><trkpt lat="43.5805578" lon="10.9857489"><ele>58.0</ele><time>2026-04-18T08:14:21.647Z</time></trkpt><trkpt lat="43.5805713" lon="10.9858551"><ele>58.0</ele><time>2026-04-18T08:14:22.649Z</time></trkpt><trkpt lat="43.5806037" lon="10.9859486"><ele>58.0</ele><time>2026-04-18T08:14:23.644Z</time></trkpt><trkpt lat="43.5806422" lon="10.9860393"><ele>57.99999999999999</ele><time>2026-04-18T08:14:24.649Z</time></trkpt><trkpt lat="43.5806823" lon="10.9861415"><ele>58.0</ele><time>2026-04-18T08:14:25.648Z</time></trkpt><trkpt lat="43.5807232" lon="10.9862583"><ele>57.8</ele><time>2026-04-18T08:14:26.646Z</time></trkpt><trkpt lat="43.580753" lon="10.9864038"><ele>57.599999999999994</ele><time>2026-04-18T08:14:27.65Z</time></trkpt><trkpt lat="43.580787" lon="10.9865453"><ele>57.400000000000006</ele><time>2026-04-18T08:14:28.648Z</time></trkpt><trkpt lat="43.5808239" lon="10.9866777"><ele>57.2</ele><time>2026-04-18T08:14:29.647Z</time></trkpt><trkpt lat="43.5808555" lon="10.9867964"><ele>57.0</ele><time>2026-04-18T08:14:30.648Z</time></trkpt><trkpt lat="43.5808863" lon="10.9868979"><ele>56.6</ele><time>2026-04-18T08:14:31.643Z</time></trkpt><trkpt lat="43.5809037" lon="10.9870002"><ele>56.2</ele><time>2026-04-18T08:14:32.644Z</time></trkpt><trkpt lat="43.5809297" lon="10.9871153"><ele>55.8</ele><time>2026-04-18T08:14:33.636Z</time></trkpt><trkpt lat="43.5809679" lon="10.9872352"><ele>55.4</ele><time>2026-04-18T08:14:34.64Z</time></trkpt><trkpt lat="43.581024" lon="10.9873545"><ele>55.0</ele><time>2026-04-18T08:14:35.64Z</time></trkpt><trkpt lat="43.5810823" lon="10.9874784"><ele>55.5</ele><time>2026-04-18T08:14:36.641Z</time></trkpt><trkpt lat="43.5811612" lon="10.9876024"><ele>56.0</ele><time>2026-04-18T08:14:37.636Z</time></trkpt><trkpt lat="43.5812399" lon="10.9877215"><ele>56.5</ele><time>2026-04-18T08:14:38.635Z</time></trkpt><trkpt lat="43.5813186" lon="10.9878353"><ele>57.0</ele><time>2026-04-18T08:14:39.633Z</time></trkpt><trkpt lat="43.5813926" lon="10.9879494"><ele>56.333333333333336</ele><time>2026-04-18T08:14:40.624Z</time></trkpt><trkpt lat="43.5814555" lon="10.9880544"><ele>55.66666666666667</ele><time>2026-04-18T08:14:41.63Z</time></trkpt><trkpt lat="43.5815172" lon="10.9881618"><ele>55.0</ele><time>2026-04-18T08:14:42.629Z</time></trkpt><trkpt lat="43.5815748" lon="10.9882647"><ele>54.333333333333336</ele><time>2026-04-18T08:14:43.627Z</time></trkpt><trkpt lat="43.5816259" lon="10.988356"><ele>53.66666666666667</ele><time>2026-04-18T08:14:44.633Z</time></trkpt><trkpt lat="43.5816626" lon="10.9884404"><ele>53.0</ele><time>2026-04-18T08:14:45.634Z</time></trkpt><trkpt lat="43.581679" lon="10.9885316"><ele>53.0</ele><time>2026-04-18T08:14:46.656Z</time></trkpt><trkpt lat="43.5816678" lon="10.9886265"><ele>53.0</ele><time>2026-04-18T08:14:47.639Z</time></trkpt><trkpt lat="43.5816353" lon="10.988732"><ele>53.0</ele><time>2026-04-18T08:14:48.634Z</time></trkpt><trkpt lat="43.5815714" lon="10.9888338"><ele>53.0</ele><time>2026-04-18T08:14:49.632Z</time></trkpt><trkpt lat="43.58149" lon="10.9889671"><ele>53.0</ele><time>2026-04-18T08:14:50.642Z</time></trkpt><trkpt lat="43.5813967" lon="10.9891189"><ele>53.0</ele><time>2026-04-18T08:14:51.63Z</time></trkpt><trkpt lat="43.5813036" lon="10.9892613"><ele>53.0</ele><time>2026-04-18T08:14:52.638Z</time></trkpt><trkpt lat="43.5812093" lon="10.9894072"><ele>53.0</ele><time>2026-04-18T08:14:53.642Z</time></trkpt><trkpt lat="43.5811252" lon="10.9895699"><ele>53.0</ele><time>2026-04-18T08:14:54.649Z</time></trkpt><trkpt lat="43.5810489" lon="10.9897446"><ele>53.25</ele><time>2026-04-18T08:14:55.649Z</time></trkpt><trkpt lat="43.5809753" lon="10.9899187"><ele>53.5</ele><time>2026-04-18T08:14:56.652Z</time></trkpt><trkpt lat="43.5809072" lon="10.9900942"><ele>53.75</ele><time>2026-04-18T08:14:57.658Z</time></trkpt><trkpt lat="43.5808476" lon="10.9902466"><ele>54.0</ele><time>2026-04-18T08:14:58.661Z</time></trkpt><trkpt lat="43.5807922" lon="10.9903794"><ele>54.2</ele><time>2026-04-18T08:14:59.651Z</time></trkpt><trkpt lat="43.5807377" lon="10.99051"><ele>54.400000000000006</ele><time>2026-04-18T08:15:00.656Z</time></trkpt><trkpt lat="43.5806894" lon="10.9906287"><ele>54.6</ele><time>2026-04-18T08:15:01.661Z</time></trkpt><trkpt lat="43.5806311" lon="10.9907504"><ele>54.8</ele><time>2026-04-18T08:15:02.658Z</time></trkpt><trkpt lat="43.5805749" lon="10.9908883"><ele>55.0</ele><time>2026-04-18T08:15:03.659Z</time></trkpt><trkpt lat="43.5805122" lon="10.9910072"><ele>55.0</ele><time>2026-04-18T08:15:04.655Z</time></trkpt><trkpt lat="43.5804555" lon="10.9911133"><ele>55.0</ele><time>2026-04-18T08:15:05.656Z</time></trkpt><trkpt lat="43.580403" lon="10.9912065"><ele>55.0</ele><time>2026-04-18T08:15:06.658Z</time></trkpt><trkpt lat="43.580341" lon="10.9913252"><ele>55.0</ele><time>2026-04-18T08:15:07.659Z</time></trkpt><trkpt lat="43.580276" lon="10.991429"><ele>55.0</ele><time>2026-04-18T08:15:08.661Z</time></trkpt><trkpt lat="43.5802115" lon="10.9915236"><ele>55.0</ele><time>2026-04-18T08:15:09.661Z</time></trkpt><trkpt lat="43.5801459" lon="10.9916295"><ele>55.0</ele><time>2026-04-18T08:15:10.655Z</time></trkpt><trkpt lat="43.5800919" lon="10.9917516"><ele>55.0</ele><time>2026-04-18T08:15:11.651Z</time></trkpt><trkpt lat="43.5800466" lon="10.9918713"><ele>55.0</ele><time>2026-04-18T08:15:12.652Z</time></trkpt><trkpt lat="43.5800094" lon="10.9919983"><ele>55.0</ele><time>2026-04-18T08:15:13.655Z</time></trkpt><trkpt lat="43.579972" lon="10.9921346"><ele>55.0</ele><time>2026-04-18T08:15:14.654Z</time></trkpt><trkpt lat="43.579933" lon="10.9922681"><ele>55.0</ele><time>2026-04-18T08:15:15.655Z</time></trkpt><trkpt lat="43.5798857" lon="10.9923851"><ele>55.0</ele><time>2026-04-18T08:15:16.665Z</time></trkpt><trkpt lat="43.5798382" lon="10.9924976"><ele>55.0</ele><time>2026-04-18T08:15:17.68Z</time></trkpt><trkpt lat="43.5797833" lon="10.9925973"><ele>55.0</ele><time>2026-04-18T08:15:18.656Z</time></trkpt><trkpt lat="43.5797368" lon="10.9926891"><ele>54.8</ele><time>2026-04-18T08:15:19.661Z</time></trkpt><trkpt lat="43.5796954" lon="10.992768"><ele>54.6</ele><time>2026-04-18T08:15:20.662Z</time></trkpt><trkpt lat="43.5796406" lon="10.9928535"><ele>54.400000000000006</ele><time>2026-04-18T08:15:21.654Z</time></trkpt><trkpt lat="43.5795793" lon="10.9929484"><ele>54.2</ele><time>2026-04-18T08:15:22.653Z</time></trkpt><trkpt lat="43.5795021" lon="10.9930449"><ele>54.0</ele><time>2026-04-18T08:15:23.658Z</time></trkpt><trkpt lat="43.5794217" lon="10.9931307"><ele>54.0</ele><time>2026-04-18T08:15:24.658Z</time></trkpt><trkpt lat="43.5793484" lon="10.9932249"><ele>54.00000000000001</ele><time>2026-04-18T08:15:25.661Z</time></trkpt><trkpt lat="43.5792868" lon="10.9933451"><ele>54.00000000000001</ele><time>2026-04-18T08:15:26.651Z</time></trkpt><trkpt lat="43.579225" lon="10.9934729"><ele>54.0</ele><time>2026-04-18T08:15:27.662Z</time></trkpt><trkpt lat="43.5791691" lon="10.9936111"><ele>54.0</ele><time>2026-04-18T08:15:28.664Z</time></trkpt><trkpt lat="43.5791078" lon="10.9937305"><ele>53.75</ele><time>2026-04-18T08:15:29.651Z</time></trkpt><trkpt lat="43.5790403" lon="10.9938502"><ele>53.5</ele><time>2026-04-18T08:15:30.648Z</time></trkpt><trkpt lat="43.5789548" lon="10.9939831"><ele>53.25</ele><time>2026-04-18T08:15:31.644Z</time></trkpt><trkpt lat="43.5788675" lon="10.9941037"><ele>53.0</ele><time>2026-04-18T08:15:32.66Z</time></trkpt><trkpt lat="43.5787753" lon="10.994197"><ele>53.0</ele><time>2026-04-18T08:15:33.657Z</time></trkpt><trkpt lat="43.5786873" lon="10.9943065"><ele>53.0</ele><time>2026-04-18T08:15:34.657Z</time></trkpt><trkpt lat="43.5785915" lon="10.994414"><ele>53.0</ele><time>2026-04-18T08:15:35.653Z</time></trkpt><trkpt lat="43.5784827" lon="10.9945156"><ele>53.0</ele><time>2026-04-18T08:15:36.655Z</time></trkpt><trkpt lat="43.5783733" lon="10.9946114"><ele>53.25</ele><time>2026-04-18T08:15:37.653Z</time></trkpt><trkpt lat="43.5782467" lon="10.9946836"><ele>53.5</ele><time>2026-04-18T08:15:38.648Z</time></trkpt><trkpt lat="43.5781079" lon="10.994746"><ele>53.75</ele><time>2026-04-18T08:15:39.658Z</time></trkpt><trkpt lat="43.5779712" lon="10.9947896"><ele>54.0</ele><time>2026-04-18T08:15:40.66Z</time></trkpt><trkpt lat="43.5778388" lon="10.9948321"><ele>54.5</ele><time>2026-04-18T08:15:41.659Z</time></trkpt><trkpt lat="43.5777085" lon="10.9948662"><ele>55.0</ele><time>2026-04-18T08:15:42.653Z</time></trkpt><trkpt lat="43.5775966" lon="10.9948899"><ele>55.5</ele><time>2026-04-18T08:15:43.661Z</time></trkpt><trkpt lat="43.5774922" lon="10.9949155"><ele>56.0</ele><time>2026-04-18T08:15:44.653Z</time></trkpt><trkpt lat="43.5773818" lon="10.9949487"><ele>56.0</ele><time>2026-04-18T08:15:45.648Z</time></trkpt><trkpt lat="43.577265" lon="10.9949971"><ele>56.0</ele><time>2026-04-18T08:15:46.65Z</time></trkpt><trkpt lat="43.5771425" lon="10.9950764"><ele>56.0</ele><time>2026-04-18T08:15:47.648Z</time></trkpt><trkpt lat="43.5770322" lon="10.9951444"><ele>56.0</ele><time>2026-04-18T08:15:48.669Z</time></trkpt><trkpt lat="43.5769258" lon="10.9952082"><ele>56.199999999999996</ele><time>2026-04-18T08:15:49.649Z</time></trkpt><trkpt lat="43.5768219" lon="10.9952678"><ele>56.39999999999999</ele><time>2026-04-18T08:15:50.646Z</time></trkpt><trkpt lat="43.576739" lon="10.9953334"><ele>56.6</ele><time>2026-04-18T08:15:51.641Z</time></trkpt><trkpt lat="43.5766757" lon="10.9953978"><ele>56.8</ele><time>2026-04-18T08:15:52.636Z</time></trkpt><trkpt lat="43.5766078" lon="10.9954759"><ele>57.0</ele><time>2026-04-18T08:15:53.626Z</time></trkpt><trkpt lat="43.5765415" lon="10.9955751"><ele>57.0</ele><time>2026-04-18T08:15:54.63Z</time></trkpt><trkpt lat="43.5764759" lon="10.9956729"><ele>57.0</ele><time>2026-04-18T08:15:55.644Z</time></trkpt><trkpt lat="43.5764117" lon="10.9957828"><ele>57.0</ele><time>2026-04-18T08:15:56.636Z</time></trkpt><trkpt lat="43.5763338" lon="10.9959029"><ele>57.0</ele><time>2026-04-18T08:15:57.636Z</time></trkpt><trkpt lat="43.5762513" lon="10.9960136"><ele>57.0</ele><time>2026-04-18T08:15:58.648Z</time></trkpt><trkpt lat="43.576163" lon="10.9961172"><ele>57.5</ele><time>2026-04-18T08:15:59.638Z</time></trkpt><trkpt lat="43.5760791" lon="10.996221"><ele>58.0</ele><time>2026-04-18T08:16:00.634Z</time></trkpt><trkpt lat="43.5759941" lon="10.9963199"><ele>58.5</ele><time>2026-04-18T08:16:01.637Z</time></trkpt><trkpt lat="43.5759042" lon="10.9964139"><ele>59.0</ele><time>2026-04-18T08:16:02.635Z</time></trkpt><trkpt lat="43.5758198" lon="10.996519"><ele>59.0</ele><time>2026-04-18T08:16:03.638Z</time></trkpt><trkpt lat="43.5757264" lon="10.9966167"><ele>59.00000000000001</ele><time>2026-04-18T08:16:04.635Z</time></trkpt><trkpt lat="43.5756328" lon="10.9966915"><ele>59.00000000000001</ele><time>2026-04-18T08:16:05.635Z</time></trkpt><trkpt lat="43.5755527" lon="10.9967598"><ele>59.0</ele><time>2026-04-18T08:16:06.64Z</time></trkpt><trkpt lat="43.5754656" lon="10.9968194"><ele>59.0</ele><time>2026-04-18T08:16:07.637Z</time></trkpt><trkpt lat="43.5753679" lon="10.996884"><ele>59.0</ele><time>2026-04-18T08:16:08.64Z</time></trkpt><trkpt lat="43.5752543" lon="10.9969396"><ele>59.0</ele><time>2026-04-18T08:16:09.637Z</time></trkpt><trkpt lat="43.5751368" lon="10.9969993"><ele>59.0</ele><time>2026-04-18T08:16:10.638Z</time></trkpt><trkpt lat="43.5750184" lon="10.9970572"><ele>59.0</ele><time>2026-04-18T08:16:11.637Z</time></trkpt><trkpt lat="43.5749051" lon="10.9971155"><ele>59.0</ele><time>2026-04-18T08:16:12.639Z</time></trkpt><trkpt lat="43.5747989" lon="10.997168"><ele>59.0</ele><time>2026-04-18T08:16:13.637Z</time></trkpt><trkpt lat="43.574704" lon="10.997223"><ele>59.0</ele><time>2026-04-18T08:16:14.638Z</time></trkpt><trkpt lat="43.574596" lon="10.9972762"><ele>59.0</ele><time>2026-04-18T08:16:15.632Z</time></trkpt><trkpt lat="43.5744731" lon="10.9973276"><ele>59.0</ele><time>2026-04-18T08:16:16.641Z</time></trkpt><trkpt lat="43.5743374" lon="10.9973726"><ele>59.0</ele><time>2026-04-18T08:16:17.642Z</time></trkpt><trkpt lat="43.5742106" lon="10.9974211"><ele>59.0</ele><time>2026-04-18T08:16:18.636Z</time></trkpt><trkpt lat="43.5740856" lon="10.9974906"><ele>59.0</ele><time>2026-04-18T08:16:19.654Z</time></trkpt><trkpt lat="43.5739575" lon="10.9975697"><ele>58.5</ele><time>2026-04-18T08:16:20.638Z</time></trkpt><trkpt lat="43.5738374" lon="10.9976575"><ele>58.0</ele><time>2026-04-18T08:16:21.641Z</time></trkpt><trkpt lat="43.573731" lon="10.9977295"><ele>57.5</ele><time>2026-04-18T08:16:22.646Z</time></trkpt><trkpt lat="43.573633" lon="10.9978044"><ele>57.0</ele><time>2026-04-18T08:16:23.65Z</time></trkpt><trkpt lat="43.5735381" lon="10.9978877"><ele>56.75</ele><time>2026-04-18T08:16:24.646Z</time></trkpt><trkpt lat="43.5734325" lon="10.9979442"><ele>56.5</ele><time>2026-04-18T08:16:25.646Z</time></trkpt><trkpt lat="43.5733399" lon="10.9980065"><ele>56.25</ele><time>2026-04-18T08:16:26.646Z</time></trkpt><trkpt lat="43.5732311" lon="10.9980627"><ele>56.0</ele><time>2026-04-18T08:16:27.644Z</time></trkpt><trkpt lat="43.5731178" lon="10.9981101"><ele>56.0</ele><time>2026-04-18T08:16:28.641Z</time></trkpt><trkpt lat="43.5730057" lon="10.9981479"><ele>56.0</ele><time>2026-04-18T08:16:29.634Z</time></trkpt><trkpt lat="43.5728917" lon="10.9981773"><ele>56.0</ele><time>2026-04-18T08:16:30.641Z</time></trkpt><trkpt lat="43.5727701" lon="10.9981884"><ele>56.0</ele><time>2026-04-18T08:16:31.635Z</time></trkpt><trkpt lat="43.5726485" lon="10.9981865"><ele>56.599999999999994</ele><time>2026-04-18T08:16:32.634Z</time></trkpt><trkpt lat="43.5725414" lon="10.9981831"><ele>57.199999999999996</ele><time>2026-04-18T08:16:33.628Z</time></trkpt><trkpt lat="43.5724509" lon="10.9981858"><ele>57.800000000000004</ele><time>2026-04-18T08:16:34.638Z</time></trkpt><trkpt lat="43.5723708" lon="10.998193"><ele>58.400000000000006</ele><time>2026-04-18T08:16:35.644Z</time></trkpt><trkpt lat="43.5722825" lon="10.9981919"><ele>59.0</ele><time>2026-04-18T08:16:36.638Z</time></trkpt><trkpt lat="43.5721941" lon="10.9981959"><ele>59.00000000000001</ele><time>2026-04-18T08:16:37.641Z</time></trkpt><trkpt lat="43.5721109" lon="10.9981898"><ele>59.0</ele><time>2026-04-18T08:16:38.635Z</time></trkpt><trkpt lat="43.5720305" lon="10.9982062"><ele>59.0</ele><time>2026-04-18T08:16:39.628Z</time></trkpt><trkpt lat="43.5719483" lon="10.9982391"><ele>59.0</ele><time>2026-04-18T08:16:40.63Z</time></trkpt><trkpt lat="43.5718584" lon="10.9982902"><ele>59.00000000000001</ele><time>2026-04-18T08:16:41.629Z</time></trkpt><trkpt lat="43.5717802" lon="10.9983649"><ele>59.0</ele><time>2026-04-18T08:16:42.622Z</time></trkpt><trkpt lat="43.5717183" lon="10.9984447"><ele>58.66666666666667</ele><time>2026-04-18T08:16:43.623Z</time></trkpt><trkpt lat="43.5716601" lon="10.9985073"><ele>58.333333333333336</ele><time>2026-04-18T08:16:44.62Z</time></trkpt><trkpt lat="43.5715981" lon="10.9985525"><ele>58.0</ele><time>2026-04-18T08:16:45.621Z</time></trkpt><trkpt lat="43.5715351" lon="10.9985817"><ele>57.66666666666667</ele><time>2026-04-18T08:16:46.625Z</time></trkpt><trkpt lat="43.5714557" lon="10.9986009"><ele>57.333333333333336</ele><time>2026-04-18T08:16:47.624Z</time></trkpt><trkpt lat="43.5713536" lon="10.9986157"><ele>57.0</ele><time>2026-04-18T08:16:48.627Z</time></trkpt><trkpt lat="43.5712797" lon="10.9986257"><ele>57.0</ele><time>2026-04-18T08:16:49.636Z</time></trkpt><trkpt lat="43.5712039" lon="10.9986409"><ele>57.0</ele><time>2026-04-18T08:16:50.66Z</time></trkpt><trkpt lat="43.571133" lon="10.9986923"><ele>57.0</ele><time>2026-04-18T08:16:51.638Z</time></trkpt><trkpt lat="43.5710491" lon="10.9987673"><ele>57.0</ele><time>2026-04-18T08:16:52.645Z</time></trkpt><trkpt lat="43.5709778" lon="10.9988375"><ele>57.0</ele><time>2026-04-18T08:16:53.637Z</time></trkpt><trkpt lat="43.5709028" lon="10.9988887"><ele>57.0</ele><time>2026-04-18T08:16:54.637Z</time></trkpt><trkpt lat="43.5708187" lon="10.9989252"><ele>57.5</ele><time>2026-04-18T08:16:55.642Z</time></trkpt><trkpt lat="43.5707366" lon="10.9989537"><ele>58.0</ele><time>2026-04-18T08:16:56.637Z</time></trkpt><trkpt lat="43.570664" lon="10.9989788"><ele>58.5</ele><time>2026-04-18T08:16:57.635Z</time></trkpt><trkpt lat="43.5705972" lon="10.9989957"><ele>59.0</ele><time>2026-04-18T08:16:58.642Z</time></trkpt><trkpt lat="43.5704912" lon="10.9990432"><ele>59.5</ele><time>2026-04-18T08:17:00.637Z</time></trkpt><trkpt lat="43.5704213" lon="10.9990707"><ele>60.0</ele><time>2026-04-18T08:17:01.637Z</time></trkpt><trkpt lat="43.5703522" lon="10.9991221"><ele>60.0</ele><time>2026-04-18T08:17:02.633Z</time></trkpt><trkpt lat="43.5702862" lon="10.999183"><ele>60.0</ele><time>2026-04-18T08:17:03.63Z</time></trkpt><trkpt lat="43.5702328" lon="10.9992511"><ele>60.0</ele><time>2026-04-18T08:17:04.644Z</time></trkpt><trkpt lat="43.5701755" lon="10.9992935"><ele>60.0</ele><time>2026-04-18T08:17:05.637Z</time></trkpt><trkpt lat="43.5701143" lon="10.9993318"><ele>60.0</ele><time>2026-04-18T08:17:06.636Z</time></trkpt><trkpt lat="43.57004" lon="10.9993453"><ele>60.0</ele><time>2026-04-18T08:17:07.643Z</time></trkpt><trkpt lat="43.569958" lon="10.999359"><ele>60.0</ele><time>2026-04-18T08:17:08.641Z</time></trkpt><trkpt lat="43.5698732" lon="10.9993712"><ele>60.0</ele><time>2026-04-18T08:17:09.638Z</time></trkpt><trkpt lat="43.5697815" lon="10.9993898"><ele>60.0</ele><time>2026-04-18T08:17:10.639Z</time></trkpt><trkpt lat="43.5696866" lon="10.9994109"><ele>60.0</ele><time>2026-04-18T08:17:11.64Z</time></trkpt><trkpt lat="43.5695963" lon="10.9994262"><ele>60.0</ele><time>2026-04-18T08:17:12.641Z</time></trkpt><trkpt lat="43.5695002" lon="10.9994433"><ele>60.0</ele><time>2026-04-18T08:17:13.641Z</time></trkpt><trkpt lat="43.5694081" lon="10.9994585"><ele>60.166666666666664</ele><time>2026-04-18T08:17:14.646Z</time></trkpt><trkpt lat="43.5693196" lon="10.9994742"><ele>60.33333333333333</ele><time>2026-04-18T08:17:15.642Z</time></trkpt><trkpt lat="43.5692264" lon="10.9994958"><ele>60.5</ele><time>2026-04-18T08:17:16.637Z</time></trkpt><trkpt lat="43.5691331" lon="10.9995112"><ele>60.666666666666664</ele><time>2026-04-18T08:17:17.628Z</time></trkpt><trkpt lat="43.5690603" lon="10.9995408"><ele>60.83333333333333</ele><time>2026-04-18T08:17:18.63Z</time></trkpt><trkpt lat="43.5689922" lon="10.9995973"><ele>61.0</ele><time>2026-04-18T08:17:19.632Z</time></trkpt><trkpt lat="43.5689166" lon="10.9996583"><ele>61.0</ele><time>2026-04-18T08:17:20.629Z</time></trkpt><trkpt lat="43.5688286" lon="10.999706"><ele>60.99999999999999</ele><time>2026-04-18T08:17:21.65Z</time></trkpt><trkpt lat="43.5687396" lon="10.9997622"><ele>60.99999999999999</ele><time>2026-04-18T08:17:22.635Z</time></trkpt><trkpt lat="43.5686665" lon="10.9998138"><ele>61.0</ele><time>2026-04-18T08:17:23.638Z</time></trkpt><trkpt lat="43.5685859" lon="10.9998524"><ele>61.0</ele><time>2026-04-18T08:17:24.641Z</time></trkpt><trkpt lat="43.5684952" lon="10.9999066"><ele>61.8</ele><time>2026-04-18T08:17:25.638Z</time></trkpt><trkpt lat="43.5684042" lon="10.9999444"><ele>62.599999999999994</ele><time>2026-04-18T08:17:26.635Z</time></trkpt><trkpt lat="43.5682956" lon="10.9999652"><ele>63.4</ele><time>2026-04-18T08:17:27.635Z</time></trkpt><trkpt lat="43.5681856" lon="10.9999874"><ele>64.2</ele><time>2026-04-18T08:17:28.636Z</time></trkpt><trkpt lat="43.5680864" lon="11.0000023"><ele>65.0</ele><time>2026-04-18T08:17:29.63Z</time></trkpt><trkpt lat="43.5679941" lon="11.0000164"><ele>65.0</ele><time>2026-04-18T08:17:30.632Z</time></trkpt><trkpt lat="43.5678914" lon="11.0000613"><ele>65.0</ele><time>2026-04-18T08:17:31.629Z</time></trkpt><trkpt lat="43.5677826" lon="11.0000996"><ele>65.0</ele><time>2026-04-18T08:17:32.63Z</time></trkpt><trkpt lat="43.5676788" lon="11.0001389"><ele>65.0</ele><time>2026-04-18T08:17:33.63Z</time></trkpt><trkpt lat="43.5675784" lon="11.0001856"><ele>65.0</ele><time>2026-04-18T08:17:34.632Z</time></trkpt><trkpt lat="43.567486" lon="11.0002179"><ele>65.4</ele><time>2026-04-18T08:17:35.627Z</time></trkpt><trkpt lat="43.5673914" lon="11.000267"><ele>65.8</ele><time>2026-04-18T08:17:36.625Z</time></trkpt><trkpt lat="43.5672824" lon="11.0003081"><ele>66.2</ele><time>2026-04-18T08:17:37.624Z</time></trkpt><trkpt lat="43.5671783" lon="11.0003473"><ele>66.6</ele><time>2026-04-18T08:17:38.623Z</time></trkpt><trkpt lat="43.5670855" lon="11.0003891"><ele>67.0</ele><time>2026-04-18T08:17:39.623Z</time></trkpt><trkpt lat="43.5669951" lon="11.0004274"><ele>67.0</ele><time>2026-04-18T08:17:40.622Z</time></trkpt><trkpt lat="43.5669172" lon="11.0004502"><ele>67.0</ele><time>2026-04-18T08:17:41.624Z</time></trkpt><trkpt lat="43.5668045" lon="11.0004553"><ele>67.0</ele><time>2026-04-18T08:17:43.607Z</time></trkpt><trkpt lat="43.5667021" lon="11.0003456"><ele>67.0</ele><time>2026-04-18T08:17:45.613Z</time></trkpt><trkpt lat="43.5666467" lon="11.0002748"><ele>67.0</ele><time>2026-04-18T08:17:46.625Z</time></trkpt><trkpt lat="43.5665794" lon="11.0001954"><ele>67.0</ele><time>2026-04-18T08:17:48.624Z</time></trkpt><trkpt lat="43.5665065" lon="11.0002229"><ele>67.0</ele><time>2026-04-18T08:17:50.641Z</time></trkpt><trkpt lat="43.5664364" lon="11.0002297"><ele>67.0</ele><time>2026-04-18T08:18:36.632Z</time></trkpt><trkpt lat="43.5663876" lon="11.0002876"><ele>67.0</ele><time>2026-04-18T08:18:38.635Z</time></trkpt><trkpt lat="43.566324" lon="11.0004374"><ele>67.0</ele><time>2026-04-18T08:18:40.629Z</time></trkpt><trkpt lat="43.5662972" lon="11.0005212"><ele>67.0</ele><time>2026-04-18T08:18:41.629Z</time></trkpt><trkpt lat="43.5662751" lon="11.00061"><ele>67.0</ele><time>2026-04-18T08:18:42.631Z</time></trkpt><trkpt lat="43.5662442" lon="11.0007122"><ele>67.0</ele><time>2026-04-18T08:18:43.637Z</time></trkpt><trkpt lat="43.5662218" lon="11.0008209"><ele>67.0</ele><time>2026-04-18T08:18:44.634Z</time></trkpt><trkpt lat="43.5661998" lon="11.0009071"><ele>67.0</ele><time>2026-04-18T08:18:45.636Z</time></trkpt><trkpt lat="43.5661411" lon="11.0010459"><ele>67.0</ele><time>2026-04-18T08:18:47.638Z</time></trkpt><trkpt lat="43.5660637" lon="11.0011844"><ele>66.0</ele><time>2026-04-18T08:18:49.637Z</time></trkpt><trkpt lat="43.5660124" lon="11.0012361"><ele>65.0</ele><time>2026-04-18T08:18:50.64Z</time></trkpt><trkpt lat="43.5659578" lon="11.0012857"><ele>64.0</ele><time>2026-04-18T08:18:51.641Z</time></trkpt><trkpt lat="43.5659007" lon="11.001344"><ele>63.0</ele><time>2026-04-18T08:18:52.642Z</time></trkpt><trkpt lat="43.5658466" lon="11.0014016"><ele>62.0</ele><time>2026-04-18T08:18:53.64Z</time></trkpt><trkpt lat="43.5657971" lon="11.0014633"><ele>61.0</ele><time>2026-04-18T08:18:54.665Z</time></trkpt><trkpt lat="43.5657434" lon="11.0015209"><ele>60.0</ele><time>2026-04-18T08:18:55.64Z</time></trkpt><trkpt lat="43.5656829" lon="11.0015969"><ele>60.0</ele><time>2026-04-18T08:18:56.642Z</time></trkpt><trkpt lat="43.5656212" lon="11.0016641"><ele>60.0</ele><time>2026-04-18T08:18:57.638Z</time></trkpt><trkpt lat="43.5655564" lon="11.0017315"><ele>60.0</ele><time>2026-04-18T08:18:58.645Z</time></trkpt><trkpt lat="43.5654935" lon="11.0017896"><ele>60.0</ele><time>2026-04-18T08:18:59.647Z</time></trkpt><trkpt lat="43.5654386" lon="11.0018486"><ele>60.0</ele><time>2026-04-18T08:19:00.65Z</time></trkpt><trkpt lat="43.5653693" lon="11.00196"><ele>60.0</ele><time>2026-04-18T08:19:02.641Z</time></trkpt><trkpt lat="43.5653485" lon="11.002048"><ele>59.833333333333336</ele><time>2026-04-18T08:19:04.64Z</time></trkpt><trkpt lat="43.5653318" lon="11.0021667"><ele>59.66666666666667</ele><time>2026-04-18T08:19:07.634Z</time></trkpt><trkpt lat="43.5652898" lon="11.0022777"><ele>59.5</ele><time>2026-04-18T08:19:09.624Z</time></trkpt><trkpt lat="43.5652615" lon="11.0023717"><ele>59.333333333333336</ele><time>2026-04-18T08:19:10.633Z</time></trkpt><trkpt lat="43.5652391" lon="11.002489"><ele>59.16666666666667</ele><time>2026-04-18T08:19:11.628Z</time></trkpt><trkpt lat="43.5652229" lon="11.0026045"><ele>59.0</ele><time>2026-04-18T08:19:12.634Z</time></trkpt><trkpt lat="43.5652082" lon="11.0027265"><ele>59.00000000000001</ele><time>2026-04-18T08:19:13.633Z</time></trkpt><trkpt lat="43.5651752" lon="11.0028287"><ele>59.0</ele><time>2026-04-18T08:19:14.641Z</time></trkpt><trkpt lat="43.5651468" lon="11.0029164"><ele>59.0</ele><time>2026-04-18T08:19:15.64Z</time></trkpt><trkpt lat="43.5651069" lon="11.0030106"><ele>59.0</ele><time>2026-04-18T08:19:16.64Z</time></trkpt><trkpt lat="43.5650722" lon="11.003124"><ele>59.00000000000001</ele><time>2026-04-18T08:19:17.64Z</time></trkpt><trkpt lat="43.5650361" lon="11.0032433"><ele>59.0</ele><time>2026-04-18T08:19:18.641Z</time></trkpt><trkpt lat="43.564999" lon="11.0033744"><ele>58.6</ele><time>2026-04-18T08:19:19.643Z</time></trkpt><trkpt lat="43.5649654" lon="11.0035001"><ele>58.2</ele><time>2026-04-18T08:19:20.652Z</time></trkpt><trkpt lat="43.5649254" lon="11.0036301"><ele>57.800000000000004</ele><time>2026-04-18T08:19:21.651Z</time></trkpt><trkpt lat="43.5648906" lon="11.00375"><ele>57.400000000000006</ele><time>2026-04-18T08:19:22.654Z</time></trkpt><trkpt lat="43.5648446" lon="11.00386"><ele>57.0</ele><time>2026-04-18T08:19:23.651Z</time></trkpt><trkpt lat="43.5648088" lon="11.0039721"><ele>57.0</ele><time>2026-04-18T08:19:24.651Z</time></trkpt><trkpt lat="43.5647807" lon="11.0040854"><ele>57.0</ele><time>2026-04-18T08:19:25.668Z</time></trkpt><trkpt lat="43.5647627" lon="11.0042025"><ele>57.0</ele><time>2026-04-18T08:19:26.648Z</time></trkpt><trkpt lat="43.5647466" lon="11.0042982"><ele>57.0</ele><time>2026-04-18T08:19:27.646Z</time></trkpt><trkpt lat="43.564739" lon="11.0043892"><ele>57.0</ele><time>2026-04-18T08:19:28.648Z</time></trkpt><trkpt lat="43.5647607" lon="11.0045401"><ele>57.0</ele><time>2026-04-18T08:19:30.637Z</time></trkpt><trkpt lat="43.5647774" lon="11.0046809"><ele>57.400000000000006</ele><time>2026-04-18T08:19:32.633Z</time></trkpt><trkpt lat="43.5647062" lon="11.0047999"><ele>57.800000000000004</ele><time>2026-04-18T08:19:34.635Z</time></trkpt><trkpt lat="43.5646515" lon="11.0048748"><ele>58.2</ele><time>2026-04-18T08:19:35.648Z</time></trkpt><trkpt lat="43.5645812" lon="11.0049318"><ele>58.6</ele><time>2026-04-18T08:19:36.633Z</time></trkpt><trkpt lat="43.5645082" lon="11.0050045"><ele>59.0</ele><time>2026-04-18T08:19:37.635Z</time></trkpt><trkpt lat="43.5644316" lon="11.0050937"><ele>60.25</ele><time>2026-04-18T08:19:38.642Z</time></trkpt><trkpt lat="43.5643392" lon="11.0051906"><ele>61.5</ele><time>2026-04-18T08:19:39.636Z</time></trkpt><trkpt lat="43.564244" lon="11.0052844"><ele>62.75</ele><time>2026-04-18T08:19:40.641Z</time></trkpt><trkpt lat="43.5641478" lon="11.0053613"><ele>64.0</ele><time>2026-04-18T08:19:41.627Z</time></trkpt><trkpt lat="43.5640588" lon="11.005449"><ele>64.0</ele><time>2026-04-18T08:19:42.636Z</time></trkpt><trkpt lat="43.5639899" lon="11.0055335"><ele>64.0</ele><time>2026-04-18T08:19:43.637Z</time></trkpt><trkpt lat="43.5639166" lon="11.0056214"><ele>64.0</ele><time>2026-04-18T08:19:44.637Z</time></trkpt><trkpt lat="43.5638559" lon="11.0056913"><ele>64.0</ele><time>2026-04-18T08:19:45.627Z</time></trkpt><trkpt lat="43.5637897" lon="11.0057974"><ele>64.0</ele><time>2026-04-18T08:19:47.633Z</time></trkpt><trkpt lat="43.5637186" lon="11.0059195"><ele>65.66666666666666</ele><time>2026-04-18T08:19:49.652Z</time></trkpt><trkpt lat="43.5636738" lon="11.0059843"><ele>67.33333333333333</ele><time>2026-04-18T08:19:50.647Z</time></trkpt><trkpt lat="43.5636178" lon="11.0060584"><ele>69.0</ele><time>2026-04-18T08:19:51.652Z</time></trkpt><trkpt lat="43.5635517" lon="11.0061265"><ele>70.66666666666667</ele><time>2026-04-18T08:19:52.641Z</time></trkpt><trkpt lat="43.5634761" lon="11.0061998"><ele>72.33333333333334</ele><time>2026-04-18T08:19:53.632Z</time></trkpt><trkpt lat="43.5633993" lon="11.0062878"><ele>74.0</ele><time>2026-04-18T08:19:54.633Z</time></trkpt><trkpt lat="43.5633354" lon="11.0063604"><ele>74.0</ele><time>2026-04-18T08:19:55.641Z</time></trkpt><trkpt lat="43.5632702" lon="11.0064274"><ele>74.0</ele><time>2026-04-18T08:19:56.651Z</time></trkpt><trkpt lat="43.5631994" lon="11.0065408"><ele>74.0</ele><time>2026-04-18T08:19:58.643Z</time></trkpt><trkpt lat="43.5631163" lon="11.0066233"><ele>74.0</ele><time>2026-04-18T08:20:00.638Z</time></trkpt><trkpt lat="43.5630406" lon="11.0067307"><ele>74.0</ele><time>2026-04-18T08:20:02.641Z</time></trkpt><trkpt lat="43.5629975" lon="11.0067964"><ele>74.5</ele><time>2026-04-18T08:20:04.64Z</time></trkpt><trkpt lat="43.5629471" lon="11.0068712"><ele>75.0</ele><time>2026-04-18T08:20:11.635Z</time></trkpt><trkpt lat="43.5628865" lon="11.006941"><ele>75.5</ele><time>2026-04-18T08:20:14.641Z</time></trkpt><trkpt lat="43.5628018" lon="11.0070042"><ele>76.0</ele><time>2026-04-18T08:20:16.641Z</time></trkpt><trkpt lat="43.5627266" lon="11.0070633"><ele>76.5</ele><time>2026-04-18T08:20:17.638Z</time></trkpt><trkpt lat="43.5626626" lon="11.0071153"><ele>77.0</ele><time>2026-04-18T08:20:18.639Z</time></trkpt><trkpt lat="43.5626075" lon="11.0071642"><ele>77.0</ele><time>2026-04-18T08:20:19.631Z</time></trkpt><trkpt lat="43.5625504" lon="11.0072172"><ele>77.0</ele><time>2026-04-18T08:20:20.632Z</time></trkpt><trkpt lat="43.5624993" lon="11.0072702"><ele>77.0</ele><time>2026-04-18T08:20:21.632Z</time></trkpt><trkpt lat="43.5624229" lon="11.0073509"><ele>77.0</ele><time>2026-04-18T08:20:23.635Z</time></trkpt><trkpt lat="43.5623648" lon="11.0074309"><ele>77.0</ele><time>2026-04-18T08:20:25.634Z</time></trkpt><trkpt lat="43.5622723" lon="11.0075091"><ele>77.0</ele><time>2026-04-18T08:20:27.647Z</time></trkpt><trkpt lat="43.5622221" lon="11.0075757"><ele>75.75</ele><time>2026-04-18T08:20:28.639Z</time></trkpt><trkpt lat="43.5621476" lon="11.0076836"><ele>74.5</ele><time>2026-04-18T08:20:30.645Z</time></trkpt><trkpt lat="43.5620295" lon="11.0077708"><ele>73.25</ele><time>2026-04-18T08:20:32.636Z</time></trkpt><trkpt lat="43.5619315" lon="11.0078185"><ele>72.0</ele><time>2026-04-18T08:20:34.628Z</time></trkpt><trkpt lat="43.5618432" lon="11.007899"><ele>72.0</ele><time>2026-04-18T08:20:36.631Z</time></trkpt><trkpt lat="43.5617409" lon="11.0079717"><ele>72.0</ele><time>2026-04-18T08:20:38.632Z</time></trkpt><trkpt lat="43.5616511" lon="11.008051"><ele>72.0</ele><time>2026-04-18T08:20:40.629Z</time></trkpt><trkpt lat="43.5615854" lon="11.0081327"><ele>72.0</ele><time>2026-04-18T08:20:48.626Z</time></trkpt><trkpt lat="43.5615173" lon="11.0082048"><ele>72.0</ele><time>2026-04-18T08:20:50.631Z</time></trkpt><trkpt lat="43.5614705" lon="11.0082811"><ele>73.6</ele><time>2026-04-18T08:20:52.633Z</time></trkpt><trkpt lat="43.5614248" lon="11.0083735"><ele>75.2</ele><time>2026-04-18T08:20:54.643Z</time></trkpt><trkpt lat="43.5613673" lon="11.0084785"><ele>76.8</ele><time>2026-04-18T08:20:56.64Z</time></trkpt><trkpt lat="43.5612971" lon="11.0085821"><ele>78.4</ele><time>2026-04-18T08:20:58.651Z</time></trkpt><trkpt lat="43.5611912" lon="11.0086768"><ele>80.0</ele><time>2026-04-18T08:21:00.641Z</time></trkpt><trkpt lat="43.5610829" lon="11.008757"><ele>80.0</ele><time>2026-04-18T08:21:02.639Z</time></trkpt><trkpt lat="43.5610173" lon="11.0088121"><ele>80.0</ele><time>2026-04-18T08:21:03.637Z</time></trkpt><trkpt lat="43.5609488" lon="11.0088805"><ele>80.0</ele><time>2026-04-18T08:21:04.634Z</time></trkpt><trkpt lat="43.5608722" lon="11.0089379"><ele>80.0</ele><time>2026-04-18T08:21:05.638Z</time></trkpt><trkpt lat="43.5608034" lon="11.0089748"><ele>80.0</ele><time>2026-04-18T08:21:06.638Z</time></trkpt><trkpt lat="43.5607212" lon="11.0090441"><ele>80.0</ele><time>2026-04-18T08:21:08.63Z</time></trkpt><trkpt lat="43.5606492" lon="11.0091164"><ele>79.8</ele><time>2026-04-18T08:21:10.63Z</time></trkpt><trkpt lat="43.5605942" lon="11.0091722"><ele>79.6</ele><time>2026-04-18T08:21:11.624Z</time></trkpt><trkpt lat="43.5605042" lon="11.0092624"><ele>79.4</ele><time>2026-04-18T08:21:13.629Z</time></trkpt><trkpt lat="43.5604215" lon="11.0093509"><ele>79.2</ele><time>2026-04-18T08:21:15.63Z</time></trkpt><trkpt lat="43.5603151" lon="11.0094214"><ele>79.0</ele><time>2026-04-18T08:21:17.627Z</time></trkpt><trkpt lat="43.5602425" lon="11.0094714"><ele>79.0</ele><time>2026-04-18T08:21:18.632Z</time></trkpt><trkpt lat="43.5601679" lon="11.009524"><ele>79.0</ele><time>2026-04-18T08:21:19.624Z</time></trkpt><trkpt lat="43.5601038" lon="11.0095672"><ele>79.0</ele><time>2026-04-18T08:21:20.616Z</time></trkpt><trkpt lat="43.5600004" lon="11.0096483"><ele>79.0</ele><time>2026-04-18T08:21:22.625Z</time></trkpt><trkpt lat="43.5599214" lon="11.009728"><ele>79.0</ele><time>2026-04-18T08:21:24.628Z</time></trkpt><trkpt lat="43.55986" lon="11.0098176"><ele>79.0</ele><time>2026-04-18T08:21:26.621Z</time></trkpt><trkpt lat="43.5598025" lon="11.0098862"><ele>79.0</ele><time>2026-04-18T08:21:28.627Z</time></trkpt><trkpt lat="43.559734" lon="11.0099504"><ele>79.0</ele><time>2026-04-18T08:21:30.634Z</time></trkpt><trkpt lat="43.5596814" lon="11.0100169"><ele>79.0</ele><time>2026-04-18T08:21:32.634Z</time></trkpt><trkpt lat="43.5596301" lon="11.0100981"><ele>79.0</ele><time>2026-04-18T08:21:34.636Z</time></trkpt><trkpt lat="43.5595587" lon="11.0101811"><ele>79.0</ele><time>2026-04-18T08:21:37.624Z</time></trkpt><trkpt lat="43.5594834" lon="11.0102824"><ele>77.0</ele><time>2026-04-18T08:21:39.626Z</time></trkpt><trkpt lat="43.5594244" lon="11.0103449"><ele>75.0</ele><time>2026-04-18T08:21:40.617Z</time></trkpt><trkpt lat="43.5593714" lon="11.0104032"><ele>73.0</ele><time>2026-04-18T08:21:41.627Z</time></trkpt><trkpt lat="43.5593225" lon="11.0104601"><ele>71.0</ele><time>2026-04-18T08:21:42.631Z</time></trkpt><trkpt lat="43.5592239" lon="11.0105634"><ele>69.0</ele><time>2026-04-18T08:21:44.636Z</time></trkpt><trkpt lat="43.5591676" lon="11.0106165"><ele>67.0</ele><time>2026-04-18T08:21:45.638Z</time></trkpt><trkpt lat="43.5590819" lon="11.0107167"><ele>67.0</ele><time>2026-04-18T08:21:47.637Z</time></trkpt><trkpt lat="43.558998" lon="11.0108189"><ele>67.0</ele><time>2026-04-18T08:21:49.64Z</time></trkpt><trkpt lat="43.5589207" lon="11.0108892"><ele>67.0</ele><time>2026-04-18T08:21:51.64Z</time></trkpt><trkpt lat="43.5588723" lon="11.0109593"><ele>67.0</ele><time>2026-04-18T08:21:53.638Z</time></trkpt><trkpt lat="43.5588078" lon="11.011022"><ele>67.0</ele><time>2026-04-18T08:21:55.647Z</time></trkpt><trkpt lat="43.5587782" lon="11.0111058"><ele>67.0</ele><time>2026-04-18T08:22:47.642Z</time></trkpt><trkpt lat="43.5587239" lon="11.0111656"><ele>68.33333333333333</ele><time>2026-04-18T08:23:16.65Z</time></trkpt><trkpt lat="43.5586376" lon="11.0112435"><ele>69.66666666666666</ele><time>2026-04-18T08:23:19.633Z</time></trkpt><trkpt lat="43.5585858" lon="11.0112967"><ele>71.0</ele><time>2026-04-18T08:23:20.648Z</time></trkpt><trkpt lat="43.5585081" lon="11.0113692"><ele>72.33333333333333</ele><time>2026-04-18T08:23:21.649Z</time></trkpt><trkpt lat="43.5584493" lon="11.0114269"><ele>73.66666666666667</ele><time>2026-04-18T08:23:22.641Z</time></trkpt><trkpt lat="43.558361" lon="11.0114904"><ele>75.0</ele><time>2026-04-18T08:23:24.63Z</time></trkpt><trkpt lat="43.5582972" lon="11.0115613"><ele>75.0</ele><time>2026-04-18T08:23:26.636Z</time></trkpt><trkpt lat="43.5582141" lon="11.0116212"><ele>75.0</ele><time>2026-04-18T08:23:28.63Z</time></trkpt><trkpt lat="43.5581423" lon="11.0116648"><ele>75.0</ele><time>2026-04-18T08:23:30.634Z</time></trkpt><trkpt lat="43.5580329" lon="11.0117451"><ele>75.0</ele><time>2026-04-18T08:23:32.633Z</time></trkpt><trkpt lat="43.557963" lon="11.011786"><ele>75.0</ele><time>2026-04-18T08:23:33.63Z</time></trkpt><trkpt lat="43.5578865" lon="11.0118123"><ele>74.66666666666667</ele><time>2026-04-18T08:23:34.625Z</time></trkpt><trkpt lat="43.5578107" lon="11.0118536"><ele>74.33333333333333</ele><time>2026-04-18T08:23:35.622Z</time></trkpt><trkpt lat="43.5577341" lon="11.0119099"><ele>74.0</ele><time>2026-04-18T08:23:36.619Z</time></trkpt><trkpt lat="43.5576523" lon="11.0119836"><ele>73.66666666666666</ele><time>2026-04-18T08:23:37.617Z</time></trkpt><trkpt lat="43.5575817" lon="11.0120609"><ele>73.33333333333333</ele><time>2026-04-18T08:23:38.622Z</time></trkpt><trkpt lat="43.5575236" lon="11.012135"><ele>73.0</ele><time>2026-04-18T08:23:39.626Z</time></trkpt><trkpt lat="43.5574703" lon="11.0121906"><ele>73.0</ele><time>2026-04-18T08:23:40.624Z</time></trkpt><trkpt lat="43.5574037" lon="11.012246"><ele>73.0</ele><time>2026-04-18T08:23:41.625Z</time></trkpt><trkpt lat="43.5573468" lon="11.0123118"><ele>73.0</ele><time>2026-04-18T08:23:42.628Z</time></trkpt><trkpt lat="43.5572821" lon="11.0124382"><ele>73.0</ele><time>2026-04-18T08:23:44.627Z</time></trkpt><trkpt lat="43.5572438" lon="11.012594"><ele>73.0</ele><time>2026-04-18T08:23:46.632Z</time></trkpt><trkpt lat="43.5571814" lon="11.0126858"><ele>72.83333333333333</ele><time>2026-04-18T08:23:48.633Z</time></trkpt><trkpt lat="43.5571302" lon="11.0127405"><ele>72.66666666666666</ele><time>2026-04-18T08:23:50.624Z</time></trkpt><trkpt lat="43.5570692" lon="11.012787"><ele>72.5</ele><time>2026-04-18T08:23:54.635Z</time></trkpt><trkpt lat="43.556983" lon="11.0128832"><ele>72.33333333333333</ele><time>2026-04-18T08:23:57.618Z</time></trkpt><trkpt lat="43.5569166" lon="11.012943"><ele>72.16666666666667</ele><time>2026-04-18T08:23:58.63Z</time></trkpt><trkpt lat="43.5568517" lon="11.0130061"><ele>72.0</ele><time>2026-04-18T08:23:59.636Z</time></trkpt><trkpt lat="43.5567957" lon="11.0130588"><ele>72.0</ele><time>2026-04-18T08:24:00.636Z</time></trkpt><trkpt lat="43.5567059" lon="11.0131419"><ele>72.0</ele><time>2026-04-18T08:24:02.634Z</time></trkpt><trkpt lat="43.5566118" lon="11.0132461"><ele>72.0</ele><time>2026-04-18T08:24:04.643Z</time></trkpt><trkpt lat="43.5565171" lon="11.0133257"><ele>72.0</ele><time>2026-04-18T08:24:06.629Z</time></trkpt><trkpt lat="43.5564071" lon="11.0133976"><ele>71.66666666666667</ele><time>2026-04-18T08:24:08.63Z</time></trkpt><trkpt lat="43.5563466" lon="11.0134575"><ele>71.33333333333333</ele><time>2026-04-18T08:24:09.628Z</time></trkpt><trkpt lat="43.5562931" lon="11.0135245"><ele>71.0</ele><time>2026-04-18T08:24:10.621Z</time></trkpt><trkpt lat="43.5562442" lon="11.0135828"><ele>70.66666666666666</ele><time>2026-04-18T08:24:11.627Z</time></trkpt><trkpt lat="43.5562012" lon="11.0136885"><ele>70.33333333333333</ele><time>2026-04-18T08:24:13.644Z</time></trkpt><trkpt lat="43.5561725" lon="11.0138224"><ele>70.0</ele><time>2026-04-18T08:24:15.64Z</time></trkpt><trkpt lat="43.5561574" lon="11.0139144"><ele>70.0</ele><time>2026-04-18T08:24:16.651Z</time></trkpt><trkpt lat="43.5561448" lon="11.0140197"><ele>70.0</ele><time>2026-04-18T08:24:17.635Z</time></trkpt><trkpt lat="43.5561226" lon="11.0141939"><ele>70.0</ele><time>2026-04-18T08:24:19.639Z</time></trkpt><trkpt lat="43.5561008" lon="11.0142889"><ele>70.0</ele><time>2026-04-18T08:24:20.637Z</time></trkpt><trkpt lat="43.5560475" lon="11.0144155"><ele>70.0</ele><time>2026-04-18T08:24:22.633Z</time></trkpt><trkpt lat="43.5559913" lon="11.0144853"><ele>70.0</ele><time>2026-04-18T08:24:24.635Z</time></trkpt><trkpt lat="43.5559008" lon="11.0144763"><ele>70.0</ele><time>2026-04-18T08:24:26.629Z</time></trkpt><trkpt lat="43.5558299" lon="11.0144266"><ele>70.0</ele><time>2026-04-18T08:24:27.636Z</time></trkpt><trkpt lat="43.555753" lon="11.0143498"><ele>70.0</ele><time>2026-04-18T08:24:28.63Z</time></trkpt><trkpt lat="43.555693" lon="11.014254"><ele>70.0</ele><time>2026-04-18T08:24:29.637Z</time></trkpt><trkpt lat="43.5556452" lon="11.0141659"><ele>70.0</ele><time>2026-04-18T08:24:30.629Z</time></trkpt><trkpt lat="43.555595" lon="11.0141066"><ele>70.0</ele><time>2026-04-18T08:24:31.633Z</time></trkpt><trkpt lat="43.5555119" lon="11.0140482"><ele>70.0</ele><time>2026-04-18T08:24:33.621Z</time></trkpt><trkpt lat="43.5553957" lon="11.0140769"><ele>70.0</ele><time>2026-04-18T08:24:35.648Z</time></trkpt><trkpt lat="43.5553211" lon="11.0141413"><ele>70.0</ele><time>2026-04-18T08:24:36.623Z</time></trkpt><trkpt lat="43.5552376" lon="11.0142175"><ele>70.0</ele><time>2026-04-18T08:24:37.618Z</time></trkpt><trkpt lat="43.5551511" lon="11.0143079"><ele>71.2</ele><time>2026-04-18T08:24:38.62Z</time></trkpt><trkpt lat="43.555061" lon="11.014403"><ele>72.4</ele><time>2026-04-18T08:24:39.625Z</time></trkpt><trkpt lat="43.5549673" lon="11.0144956"><ele>73.6</ele><time>2026-04-18T08:24:40.624Z</time></trkpt><trkpt lat="43.5548756" lon="11.0145742"><ele>74.8</ele><time>2026-04-18T08:24:41.626Z</time></trkpt><trkpt lat="43.5547965" lon="11.0146507"><ele>76.0</ele><time>2026-04-18T08:24:42.622Z</time></trkpt><trkpt lat="43.5547293" lon="11.0147197"><ele>76.0</ele><time>2026-04-18T08:24:43.628Z</time></trkpt><trkpt lat="43.5546627" lon="11.0147828"><ele>76.0</ele><time>2026-04-18T08:24:44.621Z</time></trkpt><trkpt lat="43.5546001" lon="11.0148363"><ele>76.0</ele><time>2026-04-18T08:24:45.614Z</time></trkpt><trkpt lat="43.5545362" lon="11.0148957"><ele>76.0</ele><time>2026-04-18T08:24:46.629Z</time></trkpt><trkpt lat="43.5544612" lon="11.0149664"><ele>76.0</ele><time>2026-04-18T08:24:47.632Z</time></trkpt><trkpt lat="43.5543775" lon="11.0150535"><ele>76.0</ele><time>2026-04-18T08:24:48.628Z</time></trkpt><trkpt lat="43.5543106" lon="11.0151413"><ele>76.2</ele><time>2026-04-18T08:24:49.63Z</time></trkpt><trkpt lat="43.5542678" lon="11.0152386"><ele>76.39999999999999</ele><time>2026-04-18T08:24:50.617Z</time></trkpt><trkpt lat="43.5542342" lon="11.0153445"><ele>76.6</ele><time>2026-04-18T08:24:51.611Z</time></trkpt><trkpt lat="43.5542178" lon="11.0154322"><ele>76.8</ele><time>2026-04-18T08:24:52.606Z</time></trkpt><trkpt lat="43.554295" lon="11.0155971"><ele>77.0</ele><time>2026-04-18T08:24:54.611Z</time></trkpt><trkpt lat="43.5543746" lon="11.0156804"><ele>77.0</ele><time>2026-04-18T08:24:55.612Z</time></trkpt><trkpt lat="43.5544694" lon="11.0157485"><ele>77.0</ele><time>2026-04-18T08:24:56.613Z</time></trkpt><trkpt lat="43.5545638" lon="11.0157992"><ele>77.0</ele><time>2026-04-18T08:24:57.614Z</time></trkpt><trkpt lat="43.5546451" lon="11.0158314"><ele>77.0</ele><time>2026-04-18T08:24:58.617Z</time></trkpt><trkpt lat="43.5547035" lon="11.0158728"><ele>77.0</ele><time>2026-04-18T08:24:59.619Z</time></trkpt><trkpt lat="43.5547644" lon="11.0159393"><ele>77.0</ele><time>2026-04-18T08:25:00.617Z</time></trkpt><trkpt lat="43.5548111" lon="11.0160334"><ele>76.42857142857143</ele><time>2026-04-18T08:25:01.617Z</time></trkpt><trkpt lat="43.5548504" lon="11.0161159"><ele>75.85714285714286</ele><time>2026-04-18T08:25:02.622Z</time></trkpt><trkpt lat="43.5548744" lon="11.0162054"><ele>75.28571428571428</ele><time>2026-04-18T08:25:03.62Z</time></trkpt><trkpt lat="43.5548754" lon="11.0163128"><ele>74.71428571428572</ele><time>2026-04-18T08:25:04.624Z</time></trkpt><trkpt lat="43.554866" lon="11.0163988"><ele>74.14285714285714</ele><time>2026-04-18T08:25:05.613Z</time></trkpt><trkpt lat="43.5548441" lon="11.0164868"><ele>73.57142857142857</ele><time>2026-04-18T08:25:06.629Z</time></trkpt><trkpt lat="43.5548028" lon="11.0165797"><ele>73.0</ele><time>2026-04-18T08:25:07.612Z</time></trkpt><trkpt lat="43.5547361" lon="11.0166863"><ele>73.0</ele><time>2026-04-18T08:25:08.624Z</time></trkpt><trkpt lat="43.5546584" lon="11.0167917"><ele>73.0</ele><time>2026-04-18T08:25:09.621Z</time></trkpt><trkpt lat="43.5545674" lon="11.0168879"><ele>73.0</ele><time>2026-04-18T08:25:10.622Z</time></trkpt><trkpt lat="43.554481" lon="11.0169688"><ele>73.0</ele><time>2026-04-18T08:25:11.622Z</time></trkpt><trkpt lat="43.554414" lon="11.0170426"><ele>73.0</ele><time>2026-04-18T08:25:12.629Z</time></trkpt><trkpt lat="43.5543545" lon="11.0171088"><ele>73.5</ele><time>2026-04-18T08:25:13.63Z</time></trkpt><trkpt lat="43.5542941" lon="11.0171645"><ele>74.0</ele><time>2026-04-18T08:25:14.632Z</time></trkpt><trkpt lat="43.5542416" lon="11.0172324"><ele>74.5</ele><time>2026-04-18T08:25:15.626Z</time></trkpt><trkpt lat="43.5541829" lon="11.0173138"><ele>75.0</ele><time>2026-04-18T08:25:16.626Z</time></trkpt><trkpt lat="43.5541259" lon="11.0174"><ele>75.5</ele><time>2026-04-18T08:25:17.628Z</time></trkpt><trkpt lat="43.5540468" lon="11.0175019"><ele>76.0</ele><time>2026-04-18T08:25:18.636Z</time></trkpt><trkpt lat="43.5539578" lon="11.0176131"><ele>76.0</ele><time>2026-04-18T08:25:19.632Z</time></trkpt><trkpt lat="43.5538729" lon="11.0177237"><ele>76.0</ele><time>2026-04-18T08:25:20.644Z</time></trkpt><trkpt lat="43.5537929" lon="11.0178222"><ele>76.0</ele><time>2026-04-18T08:25:21.631Z</time></trkpt><trkpt lat="43.553716" lon="11.0179116"><ele>76.0</ele><time>2026-04-18T08:25:22.636Z</time></trkpt><trkpt lat="43.5536348" lon="11.0180062"><ele>76.0</ele><time>2026-04-18T08:25:23.636Z</time></trkpt><trkpt lat="43.5535619" lon="11.0180932"><ele>77.19999999999999</ele><time>2026-04-18T08:25:24.633Z</time></trkpt><trkpt lat="43.5534791" lon="11.0181955"><ele>78.39999999999999</ele><time>2026-04-18T08:25:25.633Z</time></trkpt><trkpt lat="43.5534061" lon="11.0183154"><ele>79.6</ele><time>2026-04-18T08:25:26.632Z</time></trkpt><trkpt lat="43.5533469" lon="11.0184406"><ele>80.8</ele><time>2026-04-18T08:25:27.633Z</time></trkpt><trkpt lat="43.5532911" lon="11.0185705"><ele>82.0</ele><time>2026-04-18T08:25:28.636Z</time></trkpt><trkpt lat="43.553242" lon="11.0187196"><ele>82.0</ele><time>2026-04-18T08:25:29.635Z</time></trkpt><trkpt lat="43.5531897" lon="11.0188743"><ele>82.0</ele><time>2026-04-18T08:25:30.646Z</time></trkpt><trkpt lat="43.5531354" lon="11.0190373"><ele>82.0</ele><time>2026-04-18T08:25:31.625Z</time></trkpt><trkpt lat="43.5530873" lon="11.0191871"><ele>82.0</ele><time>2026-04-18T08:25:32.629Z</time></trkpt><trkpt lat="43.5530376" lon="11.0193341"><ele>80.5</ele><time>2026-04-18T08:25:33.628Z</time></trkpt><trkpt lat="43.5529875" lon="11.0194868"><ele>79.0</ele><time>2026-04-18T08:25:34.634Z</time></trkpt><trkpt lat="43.5529319" lon="11.0196526"><ele>77.5</ele><time>2026-04-18T08:25:35.631Z</time></trkpt><trkpt lat="43.5528693" lon="11.0198053"><ele>76.0</ele><time>2026-04-18T08:25:36.634Z</time></trkpt><trkpt lat="43.5528109" lon="11.0199349"><ele>78.75</ele><time>2026-04-18T08:25:37.654Z</time></trkpt><trkpt lat="43.5527642" lon="11.0200765"><ele>81.5</ele><time>2026-04-18T08:25:38.636Z</time></trkpt><trkpt lat="43.5527082" lon="11.0202078"><ele>84.25</ele><time>2026-04-18T08:25:39.63Z</time></trkpt><trkpt lat="43.5526446" lon="11.0203439"><ele>87.0</ele><time>2026-04-18T08:25:40.629Z</time></trkpt><trkpt lat="43.552584" lon="11.0205004"><ele>87.0</ele><time>2026-04-18T08:25:41.622Z</time></trkpt><trkpt lat="43.5525257" lon="11.0206611"><ele>87.0</ele><time>2026-04-18T08:25:42.618Z</time></trkpt><trkpt lat="43.5524643" lon="11.0208087"><ele>87.0</ele><time>2026-04-18T08:25:43.621Z</time></trkpt><trkpt lat="43.5524049" lon="11.0209577"><ele>87.0</ele><time>2026-04-18T08:25:44.624Z</time></trkpt><trkpt lat="43.5523494" lon="11.0211153"><ele>85.5</ele><time>2026-04-18T08:25:45.625Z</time></trkpt><trkpt lat="43.5522945" lon="11.0212745"><ele>84.0</ele><time>2026-04-18T08:25:46.633Z</time></trkpt><trkpt lat="43.5522481" lon="11.0214248"><ele>82.5</ele><time>2026-04-18T08:25:47.634Z</time></trkpt><trkpt lat="43.552199" lon="11.0215737"><ele>81.0</ele><time>2026-04-18T08:25:48.637Z</time></trkpt><trkpt lat="43.5521448" lon="11.0217143"><ele>78.75</ele><time>2026-04-18T08:25:49.629Z</time></trkpt><trkpt lat="43.5520967" lon="11.0218521"><ele>76.5</ele><time>2026-04-18T08:25:50.627Z</time></trkpt><trkpt lat="43.5520497" lon="11.0220014"><ele>74.25</ele><time>2026-04-18T08:25:51.628Z</time></trkpt><trkpt lat="43.551996" lon="11.0221498"><ele>72.0</ele><time>2026-04-18T08:25:52.623Z</time></trkpt><trkpt lat="43.5519483" lon="11.0222995"><ele>73.33333333333333</ele><time>2026-04-18T08:25:53.624Z</time></trkpt><trkpt lat="43.5519045" lon="11.0224239"><ele>74.66666666666667</ele><time>2026-04-18T08:25:54.621Z</time></trkpt><trkpt lat="43.5518719" lon="11.0225267"><ele>76.0</ele><time>2026-04-18T08:25:55.621Z</time></trkpt><trkpt lat="43.5518438" lon="11.0226134"><ele>77.33333333333334</ele><time>2026-04-18T08:25:56.62Z</time></trkpt><trkpt lat="43.5517669" lon="11.0227396"><ele>78.66666666666667</ele><time>2026-04-18T08:25:58.624Z</time></trkpt><trkpt lat="43.5517027" lon="11.0227865"><ele>80.0</ele><time>2026-04-18T08:25:59.61Z</time></trkpt><trkpt lat="43.5516141" lon="11.0228162"><ele>80.0</ele><time>2026-04-18T08:26:00.61Z</time></trkpt><trkpt lat="43.5514975" lon="11.0228359"><ele>80.0</ele><time>2026-04-18T08:26:01.608Z</time></trkpt><trkpt lat="43.5513745" lon="11.0228376"><ele>80.0</ele><time>2026-04-18T08:26:02.605Z</time></trkpt><trkpt lat="43.5512429" lon="11.0228405"><ele>80.0</ele><time>2026-04-18T08:26:03.601Z</time></trkpt><trkpt lat="43.5511115" lon="11.0228682"><ele>81.25</ele><time>2026-04-18T08:26:04.608Z</time></trkpt><trkpt lat="43.5509983" lon="11.0229081"><ele>82.5</ele><time>2026-04-18T08:26:05.602Z</time></trkpt><trkpt lat="43.5508731" lon="11.022959"><ele>83.75</ele><time>2026-04-18T08:26:06.61Z</time></trkpt><trkpt lat="43.5507633" lon="11.0230336"><ele>85.0</ele><time>2026-04-18T08:26:07.602Z</time></trkpt><trkpt lat="43.5506572" lon="11.023136"><ele>85.0</ele><time>2026-04-18T08:26:08.614Z</time></trkpt><trkpt lat="43.5505565" lon="11.0232642"><ele>85.0</ele><time>2026-04-18T08:26:09.604Z</time></trkpt><trkpt lat="43.5504342" lon="11.0233968"><ele>85.0</ele><time>2026-04-18T08:26:10.602Z</time></trkpt><trkpt lat="43.5503141" lon="11.0235462"><ele>84.5</ele><time>2026-04-18T08:26:11.6Z</time></trkpt><trkpt lat="43.5502037" lon="11.0236712"><ele>84.0</ele><time>2026-04-18T08:26:12.599Z</time></trkpt><trkpt lat="43.5500926" lon="11.0237898"><ele>83.5</ele><time>2026-04-18T08:26:13.601Z</time></trkpt><trkpt lat="43.5500027" lon="11.0239023"><ele>83.0</ele><time>2026-04-18T08:26:14.604Z</time></trkpt><trkpt lat="43.5499033" lon="11.0240087"><ele>83.0</ele><time>2026-04-18T08:26:15.601Z</time></trkpt><trkpt lat="43.5498057" lon="11.0241141"><ele>83.0</ele><time>2026-04-18T08:26:16.606Z</time></trkpt><trkpt lat="43.5497064" lon="11.0242001"><ele>83.0</ele><time>2026-04-18T08:26:17.601Z</time></trkpt><trkpt lat="43.5495931" lon="11.0242804"><ele>83.0</ele><time>2026-04-18T08:26:18.596Z</time></trkpt><trkpt lat="43.5494513" lon="11.0243484"><ele>81.25</ele><time>2026-04-18T08:26:19.596Z</time></trkpt><trkpt lat="43.5493084" lon="11.0243961"><ele>79.5</ele><time>2026-04-18T08:26:20.606Z</time></trkpt><trkpt lat="43.5491753" lon="11.0244452"><ele>77.75</ele><time>2026-04-18T08:26:21.605Z</time></trkpt><trkpt lat="43.5490612" lon="11.0244868"><ele>76.0</ele><time>2026-04-18T08:26:22.602Z</time></trkpt><trkpt lat="43.5489579" lon="11.0245364"><ele>76.0</ele><time>2026-04-18T08:26:23.607Z</time></trkpt><trkpt lat="43.5488781" lon="11.0245879"><ele>76.0</ele><time>2026-04-18T08:26:24.609Z</time></trkpt><trkpt lat="43.5488104" lon="11.0246238"><ele>76.0</ele><time>2026-04-18T08:26:25.609Z</time></trkpt><trkpt lat="43.5487499" lon="11.0246601"><ele>76.0</ele><time>2026-04-18T08:26:26.61Z</time></trkpt><trkpt lat="43.5485998" lon="11.0246812"><ele>76.0</ele><time>2026-04-18T08:26:28.611Z</time></trkpt><trkpt lat="43.5485144" lon="11.0246633"><ele>75.8</ele><time>2026-04-18T08:26:29.602Z</time></trkpt><trkpt lat="43.5484196" lon="11.0246258"><ele>75.6</ele><time>2026-04-18T08:26:30.603Z</time></trkpt><trkpt lat="43.5483301" lon="11.0245475"><ele>75.4</ele><time>2026-04-18T08:26:31.605Z</time></trkpt><trkpt lat="43.5482417" lon="11.0244878"><ele>75.2</ele><time>2026-04-18T08:26:32.608Z</time></trkpt><trkpt lat="43.5481687" lon="11.0244225"><ele>75.0</ele><time>2026-04-18T08:26:33.608Z</time></trkpt><trkpt lat="43.5481072" lon="11.0243553"><ele>75.0</ele><time>2026-04-18T08:26:34.611Z</time></trkpt><trkpt lat="43.5480453" lon="11.0242823"><ele>75.0</ele><time>2026-04-18T08:26:35.614Z</time></trkpt><trkpt lat="43.5479839" lon="11.0242081"><ele>75.0</ele><time>2026-04-18T08:26:36.613Z</time></trkpt><trkpt lat="43.5479195" lon="11.0241413"><ele>75.0</ele><time>2026-04-18T08:26:37.612Z</time></trkpt><trkpt lat="43.547861" lon="11.0240968"><ele>75.0</ele><time>2026-04-18T08:26:38.611Z</time></trkpt><trkpt lat="43.5477667" lon="11.0240328"><ele>75.0</ele><time>2026-04-18T08:26:40.602Z</time></trkpt><trkpt lat="43.5476962" lon="11.0239917"><ele>75.0</ele><time>2026-04-18T08:26:42.608Z</time></trkpt><trkpt lat="43.5476217" lon="11.0240077"><ele>75.0</ele><time>2026-04-18T08:27:21.605Z</time></trkpt><trkpt lat="43.5475314" lon="11.0241713"><ele>75.0</ele><time>2026-04-18T08:27:23.607Z</time></trkpt><trkpt lat="43.547459" lon="11.0243053"><ele>75.0</ele><time>2026-04-18T08:27:24.601Z</time></trkpt><trkpt lat="43.5473752" lon="11.0244508"><ele>75.0</ele><time>2026-04-18T08:27:25.602Z</time></trkpt><trkpt lat="43.5472908" lon="11.0246165"><ele>75.0</ele><time>2026-04-18T08:27:26.605Z</time></trkpt><trkpt lat="43.5472048" lon="11.0247937"><ele>75.0</ele><time>2026-04-18T08:27:27.617Z</time></trkpt><trkpt lat="43.5471223" lon="11.0249759"><ele>74.33333333333333</ele><time>2026-04-18T08:27:28.611Z</time></trkpt><trkpt lat="43.5470763" lon="11.0251685"><ele>73.66666666666666</ele><time>2026-04-18T08:27:29.609Z</time></trkpt><trkpt lat="43.5470305" lon="11.0253696"><ele>73.0</ele><time>2026-04-18T08:27:30.614Z</time></trkpt><trkpt lat="43.5469869" lon="11.0255904"><ele>76.0</ele><time>2026-04-18T08:27:31.616Z</time></trkpt><trkpt lat="43.5469576" lon="11.0258153"><ele>79.0</ele><time>2026-04-18T08:27:32.618Z</time></trkpt><trkpt lat="43.5469513" lon="11.0260201"><ele>82.0</ele><time>2026-04-18T08:27:33.619Z</time></trkpt><trkpt lat="43.546917" lon="11.0262155"><ele>82.0</ele><time>2026-04-18T08:27:34.62Z</time></trkpt><trkpt lat="43.5468745" lon="11.0264126"><ele>82.0</ele><time>2026-04-18T08:27:35.613Z</time></trkpt><trkpt lat="43.5468439" lon="11.0266123"><ele>82.0</ele><time>2026-04-18T08:27:36.613Z</time></trkpt><trkpt lat="43.5468103" lon="11.0268233"><ele>80.0</ele><time>2026-04-18T08:27:37.617Z</time></trkpt><trkpt lat="43.5467632" lon="11.0270135"><ele>78.0</ele><time>2026-04-18T08:27:38.616Z</time></trkpt><trkpt lat="43.5467253" lon="11.0272038"><ele>76.0</ele><time>2026-04-18T08:27:39.615Z</time></trkpt><trkpt lat="43.5466893" lon="11.0273959"><ele>74.0</ele><time>2026-04-18T08:27:40.616Z</time></trkpt><trkpt lat="43.5466357" lon="11.0275904"><ele>72.66666666666667</ele><time>2026-04-18T08:27:41.627Z</time></trkpt><trkpt lat="43.5465668" lon="11.0277992"><ele>71.33333333333333</ele><time>2026-04-18T08:27:42.615Z</time></trkpt><trkpt lat="43.5465036" lon="11.0280166"><ele>70.0</ele><time>2026-04-18T08:27:43.619Z</time></trkpt><trkpt lat="43.5464394" lon="11.0282249"><ele>69.33333333333333</ele><time>2026-04-18T08:27:44.614Z</time></trkpt><trkpt lat="43.5463841" lon="11.0284409"><ele>68.66666666666667</ele><time>2026-04-18T08:27:45.611Z</time></trkpt><trkpt lat="43.5463172" lon="11.0286445"><ele>68.0</ele><time>2026-04-18T08:27:46.613Z</time></trkpt><trkpt lat="43.5462561" lon="11.0288283"><ele>69.25</ele><time>2026-04-18T08:27:47.613Z</time></trkpt><trkpt lat="43.5462093" lon="11.0290198"><ele>70.5</ele><time>2026-04-18T08:27:48.617Z</time></trkpt><trkpt lat="43.5461491" lon="11.0292088"><ele>71.75</ele><time>2026-04-18T08:27:49.614Z</time></trkpt><trkpt lat="43.5461073" lon="11.0293836"><ele>73.0</ele><time>2026-04-18T08:27:50.614Z</time></trkpt><trkpt lat="43.5460546" lon="11.0295566"><ele>73.0</ele><time>2026-04-18T08:27:51.615Z</time></trkpt><trkpt lat="43.546005" lon="11.0297283"><ele>73.0</ele><time>2026-04-18T08:27:52.613Z</time></trkpt><trkpt lat="43.5459536" lon="11.0299044"><ele>73.0</ele><time>2026-04-18T08:27:53.614Z</time></trkpt><trkpt lat="43.5459015" lon="11.0300742"><ele>73.0</ele><time>2026-04-18T08:27:54.619Z</time></trkpt><trkpt lat="43.5458398" lon="11.0302522"><ele>71.75</ele><time>2026-04-18T08:27:55.617Z</time></trkpt><trkpt lat="43.5457612" lon="11.0304084"><ele>70.5</ele><time>2026-04-18T08:27:56.613Z</time></trkpt><trkpt lat="43.5456966" lon="11.0305475"><ele>69.25</ele><time>2026-04-18T08:27:57.61Z</time></trkpt><trkpt lat="43.5456243" lon="11.030662"><ele>68.0</ele><time>2026-04-18T08:27:58.616Z</time></trkpt><trkpt lat="43.5455346" lon="11.03076"><ele>68.0</ele><time>2026-04-18T08:27:59.606Z</time></trkpt><trkpt lat="43.5454495" lon="11.0308227"><ele>68.0</ele><time>2026-04-18T08:28:00.607Z</time></trkpt><trkpt lat="43.5453564" lon="11.0308613"><ele>68.0</ele><time>2026-04-18T08:28:01.608Z</time></trkpt><trkpt lat="43.5452527" lon="11.0308666"><ele>68.0</ele><time>2026-04-18T08:28:02.606Z</time></trkpt><trkpt lat="43.5451317" lon="11.03084"><ele>68.0</ele><time>2026-04-18T08:28:03.611Z</time></trkpt><trkpt lat="43.5450152" lon="11.0308077"><ele>68.33333333333334</ele><time>2026-04-18T08:28:04.608Z</time></trkpt><trkpt lat="43.5449076" lon="11.0307748"><ele>68.66666666666667</ele><time>2026-04-18T08:28:05.611Z</time></trkpt><trkpt lat="43.5448216" lon="11.0307399"><ele>69.0</ele><time>2026-04-18T08:28:06.61Z</time></trkpt><trkpt lat="43.5447541" lon="11.0307063"><ele>69.33333333333333</ele><time>2026-04-18T08:28:07.611Z</time></trkpt><trkpt lat="43.5446642" lon="11.0306515"><ele>69.66666666666666</ele><time>2026-04-18T08:28:09.603Z</time></trkpt><trkpt lat="43.5445956" lon="11.0306144"><ele>70.0</ele><time>2026-04-18T08:28:12.628Z</time></trkpt><trkpt lat="43.5445282" lon="11.0306947"><ele>70.0</ele><time>2026-04-18T08:28:14.62Z</time></trkpt><trkpt lat="43.5444912" lon="11.0308053"><ele>70.0</ele><time>2026-04-18T08:28:15.602Z</time></trkpt><trkpt lat="43.5444724" lon="11.03094"><ele>70.0</ele><time>2026-04-18T08:28:16.614Z</time></trkpt><trkpt lat="43.5444523" lon="11.0310958"><ele>70.0</ele><time>2026-04-18T08:28:17.604Z</time></trkpt><trkpt lat="43.5444173" lon="11.0312782"><ele>70.0</ele><time>2026-04-18T08:28:18.607Z</time></trkpt><trkpt lat="43.5443787" lon="11.0314601"><ele>69.75</ele><time>2026-04-18T08:28:19.611Z</time></trkpt><trkpt lat="43.544345" lon="11.031631"><ele>69.5</ele><time>2026-04-18T08:28:20.613Z</time></trkpt><trkpt lat="43.5443212" lon="11.0317986"><ele>69.25</ele><time>2026-04-18T08:28:21.617Z</time></trkpt><trkpt lat="43.544313" lon="11.0319671"><ele>69.0</ele><time>2026-04-18T08:28:22.613Z</time></trkpt><trkpt lat="43.5443095" lon="11.0321499"><ele>68.75</ele><time>2026-04-18T08:28:23.607Z</time></trkpt><trkpt lat="43.5443248" lon="11.0323421"><ele>68.5</ele><time>2026-04-18T08:28:24.613Z</time></trkpt><trkpt lat="43.5443554" lon="11.0325411"><ele>68.25</ele><time>2026-04-18T08:28:25.612Z</time></trkpt><trkpt lat="43.5443936" lon="11.0327405"><ele>68.0</ele><time>2026-04-18T08:28:26.616Z</time></trkpt><trkpt lat="43.5444349" lon="11.0329243"><ele>67.8</ele><time>2026-04-18T08:28:27.611Z</time></trkpt><trkpt lat="43.5444631" lon="11.0330896"><ele>67.6</ele><time>2026-04-18T08:28:28.615Z</time></trkpt><trkpt lat="43.5444845" lon="11.0332199"><ele>67.4</ele><time>2026-04-18T08:28:29.612Z</time></trkpt><trkpt lat="43.544489" lon="11.0333723"><ele>67.2</ele><time>2026-04-18T08:28:30.614Z</time></trkpt><trkpt lat="43.5444971" lon="11.0334898"><ele>67.0</ele><time>2026-04-18T08:28:31.62Z</time></trkpt><trkpt lat="43.5444912" lon="11.0335993"><ele>66.8</ele><time>2026-04-18T08:28:32.614Z</time></trkpt><trkpt lat="43.5444396" lon="11.0337401"><ele>66.6</ele><time>2026-04-18T08:28:34.616Z</time></trkpt><trkpt lat="43.5443764" lon="11.0337692"><ele>66.39999999999999</ele><time>2026-04-18T08:28:35.608Z</time></trkpt><trkpt lat="43.5442896" lon="11.0337676"><ele>66.2</ele><time>2026-04-18T08:28:36.601Z</time></trkpt><trkpt lat="43.5441894" lon="11.0337708"><ele>66.0</ele><time>2026-04-18T08:28:37.61Z</time></trkpt><trkpt lat="43.5440425" lon="11.0337373"><ele>66.0</ele><time>2026-04-18T08:28:38.607Z</time></trkpt><trkpt lat="43.5438945" lon="11.0337123"><ele>66.0</ele><time>2026-04-18T08:28:39.61Z</time></trkpt><trkpt lat="43.5437437" lon="11.033673"><ele>66.0</ele><time>2026-04-18T08:28:40.613Z</time></trkpt><trkpt lat="43.5435967" lon="11.0336327"><ele>65.75</ele><time>2026-04-18T08:28:41.621Z</time></trkpt><trkpt lat="43.5434523" lon="11.0335909"><ele>65.5</ele><time>2026-04-18T08:28:42.628Z</time></trkpt><trkpt lat="43.5433079" lon="11.0335605"><ele>65.25</ele><time>2026-04-18T08:28:43.643Z</time></trkpt><trkpt lat="43.5431638" lon="11.0335223"><ele>65.0</ele><time>2026-04-18T08:28:44.625Z</time></trkpt><trkpt lat="43.5430051" lon="11.0334846"><ele>65.0</ele><time>2026-04-18T08:28:45.621Z</time></trkpt><trkpt lat="43.5428542" lon="11.0334497"><ele>65.0</ele><time>2026-04-18T08:28:46.623Z</time></trkpt><trkpt lat="43.5427079" lon="11.0334016"><ele>65.0</ele><time>2026-04-18T08:28:47.618Z</time></trkpt><trkpt lat="43.5425801" lon="11.0333594"><ele>65.0</ele><time>2026-04-18T08:28:48.619Z</time></trkpt><trkpt lat="43.5424406" lon="11.0333195"><ele>65.5</ele><time>2026-04-18T08:28:49.623Z</time></trkpt><trkpt lat="43.5423046" lon="11.0332836"><ele>66.0</ele><time>2026-04-18T08:28:50.624Z</time></trkpt><trkpt lat="43.5421604" lon="11.0332481"><ele>66.5</ele><time>2026-04-18T08:28:51.627Z</time></trkpt><trkpt lat="43.5420314" lon="11.0331982"><ele>67.0</ele><time>2026-04-18T08:28:52.622Z</time></trkpt><trkpt lat="43.5418999" lon="11.0331534"><ele>67.25</ele><time>2026-04-18T08:28:53.628Z</time></trkpt><trkpt lat="43.5417825" lon="11.0331113"><ele>67.5</ele><time>2026-04-18T08:28:54.623Z</time></trkpt><trkpt lat="43.5416572" lon="11.0330843"><ele>67.75</ele><time>2026-04-18T08:28:55.625Z</time></trkpt><trkpt lat="43.5415535" lon="11.03306"><ele>68.0</ele><time>2026-04-18T08:28:56.622Z</time></trkpt><trkpt lat="43.5414359" lon="11.033018"><ele>68.0</ele><time>2026-04-18T08:28:57.623Z</time></trkpt><trkpt lat="43.541319" lon="11.032979"><ele>68.0</ele><time>2026-04-18T08:28:58.629Z</time></trkpt><trkpt lat="43.5412007" lon="11.0329422"><ele>68.0</ele><time>2026-04-18T08:28:59.62Z</time></trkpt><trkpt lat="43.5410936" lon="11.0329105"><ele>68.0</ele><time>2026-04-18T08:29:00.625Z</time></trkpt><trkpt lat="43.5409855" lon="11.0328807"><ele>68.0</ele><time>2026-04-18T08:29:01.617Z</time></trkpt><trkpt lat="43.540885" lon="11.032858"><ele>68.0</ele><time>2026-04-18T08:29:02.62Z</time></trkpt><trkpt lat="43.5407827" lon="11.0328295"><ele>68.0</ele><time>2026-04-18T08:29:03.621Z</time></trkpt><trkpt lat="43.5406698" lon="11.0327933"><ele>68.0</ele><time>2026-04-18T08:29:04.616Z</time></trkpt><trkpt lat="43.5405515" lon="11.0328005"><ele>68.0</ele><time>2026-04-18T08:29:05.628Z</time></trkpt><trkpt lat="43.5404283" lon="11.0328578"><ele>69.25</ele><time>2026-04-18T08:29:06.618Z</time></trkpt><trkpt lat="43.5403119" lon="11.0329254"><ele>70.5</ele><time>2026-04-18T08:29:07.625Z</time></trkpt><trkpt lat="43.5402037" lon="11.0330019"><ele>71.75</ele><time>2026-04-18T08:29:08.614Z</time></trkpt><trkpt lat="43.540094" lon="11.0330742"><ele>73.0</ele><time>2026-04-18T08:29:09.621Z</time></trkpt><trkpt lat="43.5399863" lon="11.0331521"><ele>73.0</ele><time>2026-04-18T08:29:10.62Z</time></trkpt><trkpt lat="43.5398801" lon="11.0332338"><ele>73.0</ele><time>2026-04-18T08:29:11.622Z</time></trkpt><trkpt lat="43.5397766" lon="11.0333206"><ele>73.0</ele><time>2026-04-18T08:29:12.616Z</time></trkpt><trkpt lat="43.5396676" lon="11.0334252"><ele>73.0</ele><time>2026-04-18T08:29:13.616Z</time></trkpt><trkpt lat="43.5395466" lon="11.0335681"><ele>72.0</ele><time>2026-04-18T08:29:14.62Z</time></trkpt><trkpt lat="43.5394201" lon="11.0337321"><ele>71.0</ele><time>2026-04-18T08:29:15.603Z</time></trkpt><trkpt lat="43.5392551" lon="11.0339179"><ele>70.0</ele><time>2026-04-18T08:29:16.614Z</time></trkpt><trkpt lat="43.5390928" lon="11.0340985"><ele>71.0</ele><time>2026-04-18T08:29:17.615Z</time></trkpt><trkpt lat="43.5389428" lon="11.0342793"><ele>72.0</ele><time>2026-04-18T08:29:18.617Z</time></trkpt><trkpt lat="43.5387951" lon="11.0344606"><ele>73.0</ele><time>2026-04-18T08:29:19.622Z</time></trkpt><trkpt lat="43.5386573" lon="11.0346324"><ele>73.0</ele><time>2026-04-18T08:29:20.618Z</time></trkpt><trkpt lat="43.5384998" lon="11.0347752"><ele>73.0</ele><time>2026-04-18T08:29:21.624Z</time></trkpt><trkpt lat="43.538332" lon="11.034913"><ele>73.0</ele><time>2026-04-18T08:29:22.625Z</time></trkpt><trkpt lat="43.538159" lon="11.0350486"><ele>71.0</ele><time>2026-04-18T08:29:23.626Z</time></trkpt><trkpt lat="43.5379745" lon="11.0351825"><ele>69.0</ele><time>2026-04-18T08:29:24.627Z</time></trkpt><trkpt lat="43.5377881" lon="11.0353096"><ele>67.0</ele><time>2026-04-18T08:29:25.628Z</time></trkpt><trkpt lat="43.5375961" lon="11.035429"><ele>66.33333333333333</ele><time>2026-04-18T08:29:26.624Z</time></trkpt><trkpt lat="43.537407" lon="11.0355592"><ele>65.66666666666667</ele><time>2026-04-18T08:29:27.621Z</time></trkpt><trkpt lat="43.53721" lon="11.0356824"><ele>65.0</ele><time>2026-04-18T08:29:28.63Z</time></trkpt><trkpt lat="43.5370219" lon="11.0358131"><ele>65.0</ele><time>2026-04-18T08:29:29.624Z</time></trkpt><trkpt lat="43.5368413" lon="11.0359519"><ele>65.0</ele><time>2026-04-18T08:29:30.625Z</time></trkpt><trkpt lat="43.5366636" lon="11.0360962"><ele>65.0</ele><time>2026-04-18T08:29:31.629Z</time></trkpt><trkpt lat="43.5364952" lon="11.0362401"><ele>65.0</ele><time>2026-04-18T08:29:32.63Z</time></trkpt><trkpt lat="43.5363315" lon="11.0363917"><ele>65.0</ele><time>2026-04-18T08:29:33.63Z</time></trkpt><trkpt lat="43.5361808" lon="11.0365678"><ele>65.0</ele><time>2026-04-18T08:29:34.633Z</time></trkpt><trkpt lat="43.5360256" lon="11.0367399"><ele>65.33333333333334</ele><time>2026-04-18T08:29:35.629Z</time></trkpt><trkpt lat="43.5358869" lon="11.0369225"><ele>65.66666666666667</ele><time>2026-04-18T08:29:36.626Z</time></trkpt><trkpt lat="43.5357614" lon="11.0371109"><ele>66.0</ele><time>2026-04-18T08:29:37.63Z</time></trkpt><trkpt lat="43.5356351" lon="11.0373203"><ele>66.0</ele><time>2026-04-18T08:29:38.625Z</time></trkpt><trkpt lat="43.5355038" lon="11.0375386"><ele>66.0</ele><time>2026-04-18T08:29:39.63Z</time></trkpt><trkpt lat="43.5353913" lon="11.0377633"><ele>66.0</ele><time>2026-04-18T08:29:40.625Z</time></trkpt><trkpt lat="43.5352922" lon="11.0379676"><ele>66.0</ele><time>2026-04-18T08:29:41.626Z</time></trkpt><trkpt lat="43.535209" lon="11.0381668"><ele>66.0</ele><time>2026-04-18T08:29:42.627Z</time></trkpt><trkpt lat="43.5351315" lon="11.0383654"><ele>66.0</ele><time>2026-04-18T08:29:43.627Z</time></trkpt><trkpt lat="43.5350604" lon="11.0385536"><ele>66.33333333333333</ele><time>2026-04-18T08:29:44.627Z</time></trkpt><trkpt lat="43.5349764" lon="11.0387383"><ele>66.66666666666666</ele><time>2026-04-18T08:29:45.644Z</time></trkpt><trkpt lat="43.5348752" lon="11.0389144"><ele>67.0</ele><time>2026-04-18T08:29:46.629Z</time></trkpt><trkpt lat="43.5347915" lon="11.0390511"><ele>66.75</ele><time>2026-04-18T08:29:47.62Z</time></trkpt><trkpt lat="43.5347019" lon="11.039166"><ele>66.5</ele><time>2026-04-18T08:29:48.62Z</time></trkpt><trkpt lat="43.5346137" lon="11.0392793"><ele>66.25</ele><time>2026-04-18T08:29:49.617Z</time></trkpt><trkpt lat="43.5345228" lon="11.0393841"><ele>66.0</ele><time>2026-04-18T08:29:50.61Z</time></trkpt><trkpt lat="43.5344372" lon="11.0394626"><ele>66.0</ele><time>2026-04-18T08:29:51.616Z</time></trkpt><trkpt lat="43.5343638" lon="11.0395305"><ele>66.0</ele><time>2026-04-18T08:29:52.622Z</time></trkpt><trkpt lat="43.5342813" lon="11.0395636"><ele>66.0</ele><time>2026-04-18T08:29:53.623Z</time></trkpt><trkpt lat="43.5341884" lon="11.039568"><ele>66.0</ele><time>2026-04-18T08:29:54.622Z</time></trkpt><trkpt lat="43.5340896" lon="11.0395612"><ele>66.0</ele><time>2026-04-18T08:29:55.632Z</time></trkpt><trkpt lat="43.5339829" lon="11.0395725"><ele>66.0</ele><time>2026-04-18T08:29:56.622Z</time></trkpt><trkpt lat="43.5338763" lon="11.0396144"><ele>66.0</ele><time>2026-04-18T08:29:57.624Z</time></trkpt><trkpt lat="43.533784" lon="11.0396892"><ele>66.0</ele><time>2026-04-18T08:29:58.62Z</time></trkpt><trkpt lat="43.533714" lon="11.0398005"><ele>66.0</ele><time>2026-04-18T08:29:59.63Z</time></trkpt><trkpt lat="43.5336949" lon="11.0399492"><ele>66.0</ele><time>2026-04-18T08:30:00.613Z</time></trkpt><trkpt lat="43.5337004" lon="11.0400979"><ele>66.0</ele><time>2026-04-18T08:30:01.62Z</time></trkpt><trkpt lat="43.5337562" lon="11.0402371"><ele>66.0</ele><time>2026-04-18T08:30:02.62Z</time></trkpt><trkpt lat="43.5338518" lon="11.0403335"><ele>66.0</ele><time>2026-04-18T08:30:03.617Z</time></trkpt><trkpt lat="43.5339656" lon="11.0403865"><ele>66.0</ele><time>2026-04-18T08:30:04.621Z</time></trkpt><trkpt lat="43.5340866" lon="11.0403997"><ele>66.0</ele><time>2026-04-18T08:30:05.618Z</time></trkpt><trkpt lat="43.5341896" lon="11.040381"><ele>66.0</ele><time>2026-04-18T08:30:06.613Z</time></trkpt><trkpt lat="43.5342978" lon="11.0403879"><ele>66.0</ele><time>2026-04-18T08:30:07.618Z</time></trkpt><trkpt lat="43.5344036" lon="11.0404577"><ele>66.0</ele><time>2026-04-18T08:30:08.628Z</time></trkpt><trkpt lat="43.5345088" lon="11.0405797"><ele>65.33333333333333</ele><time>2026-04-18T08:30:09.618Z</time></trkpt><trkpt lat="43.5346111" lon="11.0407217"><ele>64.66666666666666</ele><time>2026-04-18T08:30:10.615Z</time></trkpt><trkpt lat="43.5347247" lon="11.0408661"><ele>64.0</ele><time>2026-04-18T08:30:11.611Z</time></trkpt><trkpt lat="43.5348396" lon="11.0410119"><ele>64.0</ele><time>2026-04-18T08:30:12.615Z</time></trkpt><trkpt lat="43.534941" lon="11.0411566"><ele>64.0</ele><time>2026-04-18T08:30:13.627Z</time></trkpt><trkpt lat="43.5350479" lon="11.041294"><ele>64.0</ele><time>2026-04-18T08:30:14.625Z</time></trkpt><trkpt lat="43.5351565" lon="11.041435"><ele>64.0</ele><time>2026-04-18T08:30:15.624Z</time></trkpt><trkpt lat="43.5352618" lon="11.0415569"><ele>64.25</ele><time>2026-04-18T08:30:16.64Z</time></trkpt><trkpt lat="43.5353535" lon="11.0416823"><ele>64.5</ele><time>2026-04-18T08:30:17.619Z</time></trkpt><trkpt lat="43.5354412" lon="11.0418117"><ele>64.75</ele><time>2026-04-18T08:30:18.626Z</time></trkpt><trkpt lat="43.535544" lon="11.0419399"><ele>65.0</ele><time>2026-04-18T08:30:19.629Z</time></trkpt><trkpt lat="43.5356534" lon="11.0420829"><ele>65.0</ele><time>2026-04-18T08:30:20.626Z</time></trkpt><trkpt lat="43.5357487" lon="11.04226"><ele>65.0</ele><time>2026-04-18T08:30:21.631Z</time></trkpt><trkpt lat="43.5358208" lon="11.0424383"><ele>65.0</ele><time>2026-04-18T08:30:22.625Z</time></trkpt><trkpt lat="43.5358767" lon="11.0426268"><ele>65.0</ele><time>2026-04-18T08:30:23.632Z</time></trkpt><trkpt lat="43.5359303" lon="11.0428263"><ele>65.0</ele><time>2026-04-18T08:30:24.632Z</time></trkpt><trkpt lat="43.5359651" lon="11.0430352"><ele>65.0</ele><time>2026-04-18T08:30:25.621Z</time></trkpt><trkpt lat="43.5359756" lon="11.0432576"><ele>65.33333333333334</ele><time>2026-04-18T08:30:26.628Z</time></trkpt><trkpt lat="43.5359786" lon="11.0434965"><ele>65.66666666666667</ele><time>2026-04-18T08:30:27.631Z</time></trkpt><trkpt lat="43.5359794" lon="11.0437282"><ele>66.0</ele><time>2026-04-18T08:30:28.637Z</time></trkpt><trkpt lat="43.5359946" lon="11.0439583"><ele>66.0</ele><time>2026-04-18T08:30:29.632Z</time></trkpt><trkpt lat="43.5360152" lon="11.0442"><ele>66.0</ele><time>2026-04-18T08:30:30.637Z</time></trkpt><trkpt lat="43.5360272" lon="11.0444398"><ele>66.0</ele><time>2026-04-18T08:30:31.629Z</time></trkpt><trkpt lat="43.5360389" lon="11.044656"><ele>66.0</ele><time>2026-04-18T08:30:32.624Z</time></trkpt><trkpt lat="43.5360489" lon="11.0448853"><ele>66.0</ele><time>2026-04-18T08:30:33.625Z</time></trkpt><trkpt lat="43.5360598" lon="11.0451025"><ele>66.0</ele><time>2026-04-18T08:30:34.631Z</time></trkpt><trkpt lat="43.5360775" lon="11.0453043"><ele>66.33333333333333</ele><time>2026-04-18T08:30:35.633Z</time></trkpt><trkpt lat="43.536078" lon="11.0455154"><ele>66.66666666666666</ele><time>2026-04-18T08:30:36.638Z</time></trkpt><trkpt lat="43.5360987" lon="11.0457329"><ele>67.0</ele><time>2026-04-18T08:30:37.628Z</time></trkpt><trkpt lat="43.5361483" lon="11.0459423"><ele>67.0</ele><time>2026-04-18T08:30:38.632Z</time></trkpt><trkpt lat="43.5362153" lon="11.0461376"><ele>67.0</ele><time>2026-04-18T08:30:39.63Z</time></trkpt><trkpt lat="43.536292" lon="11.0463236"><ele>67.0</ele><time>2026-04-18T08:30:40.636Z</time></trkpt><trkpt lat="43.5363871" lon="11.0464938"><ele>67.33333333333333</ele><time>2026-04-18T08:30:41.628Z</time></trkpt><trkpt lat="43.5364908" lon="11.0466586"><ele>67.66666666666667</ele><time>2026-04-18T08:30:42.628Z</time></trkpt><trkpt lat="43.5366015" lon="11.046812"><ele>68.0</ele><time>2026-04-18T08:30:43.624Z</time></trkpt><trkpt lat="43.5367112" lon="11.0469687"><ele>68.0</ele><time>2026-04-18T08:30:44.625Z</time></trkpt><trkpt lat="43.5368061" lon="11.0471254"><ele>68.0</ele><time>2026-04-18T08:30:45.634Z</time></trkpt><trkpt lat="43.5369033" lon="11.0472725"><ele>68.0</ele><time>2026-04-18T08:30:46.636Z</time></trkpt><trkpt lat="43.5370004" lon="11.0473969"><ele>68.0</ele><time>2026-04-18T08:30:47.653Z</time></trkpt><trkpt lat="43.537081" lon="11.0475181"><ele>68.25</ele><time>2026-04-18T08:30:48.634Z</time></trkpt><trkpt lat="43.5371589" lon="11.047649"><ele>68.5</ele><time>2026-04-18T08:30:49.634Z</time></trkpt><trkpt lat="43.5372319" lon="11.0477599"><ele>68.75</ele><time>2026-04-18T08:30:50.637Z</time></trkpt><trkpt lat="43.5373099" lon="11.0478726"><ele>69.0</ele><time>2026-04-18T08:30:51.64Z</time></trkpt><trkpt lat="43.5373798" lon="11.047984"><ele>69.0</ele><time>2026-04-18T08:30:52.633Z</time></trkpt><trkpt lat="43.5374474" lon="11.0480953"><ele>69.0</ele><time>2026-04-18T08:30:53.644Z</time></trkpt><trkpt lat="43.5375095" lon="11.0482075"><ele>69.0</ele><time>2026-04-18T08:30:54.63Z</time></trkpt><trkpt lat="43.5375611" lon="11.0483485"><ele>69.0</ele><time>2026-04-18T08:30:55.631Z</time></trkpt><trkpt lat="43.5376042" lon="11.0485006"><ele>69.0</ele><time>2026-04-18T08:30:56.628Z</time></trkpt><trkpt lat="43.5376274" lon="11.0486541"><ele>69.0</ele><time>2026-04-18T08:30:57.628Z</time></trkpt><trkpt lat="43.5376347" lon="11.0488133"><ele>69.0</ele><time>2026-04-18T08:30:58.625Z</time></trkpt><trkpt lat="43.5376239" lon="11.0489475"><ele>69.0</ele><time>2026-04-18T08:30:59.607Z</time></trkpt><trkpt lat="43.5376015" lon="11.049063"><ele>69.0</ele><time>2026-04-18T08:31:00.614Z</time></trkpt><trkpt lat="43.5375731" lon="11.0491632"><ele>69.0</ele><time>2026-04-18T08:31:01.613Z</time></trkpt><trkpt lat="43.5375339" lon="11.0492583"><ele>69.66666666666667</ele><time>2026-04-18T08:31:02.616Z</time></trkpt><trkpt lat="43.5374932" lon="11.0493341"><ele>70.33333333333333</ele><time>2026-04-18T08:31:03.615Z</time></trkpt><trkpt lat="43.5373868" lon="11.0494302"><ele>71.0</ele><time>2026-04-18T08:31:05.609Z</time></trkpt><trkpt lat="43.537324" lon="11.0494434"><ele>71.66666666666666</ele><time>2026-04-18T08:31:06.601Z</time></trkpt><trkpt lat="43.5372525" lon="11.0494351"><ele>72.33333333333333</ele><time>2026-04-18T08:31:07.612Z</time></trkpt><trkpt lat="43.5371747" lon="11.0494099"><ele>73.0</ele><time>2026-04-18T08:31:08.618Z</time></trkpt><trkpt lat="43.5370662" lon="11.0493935"><ele>72.4</ele><time>2026-04-18T08:31:10.618Z</time></trkpt><trkpt lat="43.5369611" lon="11.0494171"><ele>71.8</ele><time>2026-04-18T08:31:12.618Z</time></trkpt><trkpt lat="43.5368917" lon="11.0494984"><ele>71.2</ele><time>2026-04-18T08:31:13.62Z</time></trkpt><trkpt lat="43.5368272" lon="11.0496375"><ele>70.6</ele><time>2026-04-18T08:31:14.619Z</time></trkpt><trkpt lat="43.5367767" lon="11.0498056"><ele>70.0</ele><time>2026-04-18T08:31:15.616Z</time></trkpt><trkpt lat="43.5367288" lon="11.050003"><ele>70.0</ele><time>2026-04-18T08:31:16.613Z</time></trkpt><trkpt lat="43.5366787" lon="11.0502024"><ele>70.0</ele><time>2026-04-18T08:31:17.615Z</time></trkpt><trkpt lat="43.5366385" lon="11.0504075"><ele>70.0</ele><time>2026-04-18T08:31:18.642Z</time></trkpt><trkpt lat="43.5365857" lon="11.0505842"><ele>70.0</ele><time>2026-04-18T08:31:19.625Z</time></trkpt><trkpt lat="43.5365539" lon="11.0507688"><ele>71.5</ele><time>2026-04-18T08:31:20.622Z</time></trkpt><trkpt lat="43.536517" lon="11.0509285"><ele>73.0</ele><time>2026-04-18T08:31:21.62Z</time></trkpt><trkpt lat="43.5364787" lon="11.0510848"><ele>74.5</ele><time>2026-04-18T08:31:22.619Z</time></trkpt><trkpt lat="43.5364401" lon="11.0512499"><ele>76.0</ele><time>2026-04-18T08:31:23.618Z</time></trkpt><trkpt lat="43.5364085" lon="11.0514128"><ele>76.0</ele><time>2026-04-18T08:31:24.614Z</time></trkpt><trkpt lat="43.5363766" lon="11.05156"><ele>76.0</ele><time>2026-04-18T08:31:25.624Z</time></trkpt><trkpt lat="43.5363507" lon="11.051691"><ele>76.0</ele><time>2026-04-18T08:31:26.608Z</time></trkpt><trkpt lat="43.536332" lon="11.0518008"><ele>76.0</ele><time>2026-04-18T08:31:27.611Z</time></trkpt><trkpt lat="43.5363237" lon="11.0518989"><ele>76.0</ele><time>2026-04-18T08:31:28.613Z</time></trkpt><trkpt lat="43.5363187" lon="11.0520513"><ele>77.0</ele><time>2026-04-18T08:31:30.609Z</time></trkpt><trkpt lat="43.5362816" lon="11.0521432"><ele>78.0</ele><time>2026-04-18T08:31:32.597Z</time></trkpt><trkpt lat="43.536194" lon="11.0521618"><ele>79.0</ele><time>2026-04-18T08:31:34.609Z</time></trkpt><trkpt lat="43.5361302" lon="11.0521251"><ele>80.0</ele><time>2026-04-18T08:31:35.62Z</time></trkpt><trkpt lat="43.5360758" lon="11.0520724"><ele>81.0</ele><time>2026-04-18T08:31:36.616Z</time></trkpt><trkpt lat="43.5359906" lon="11.0520024"><ele>82.0</ele><time>2026-04-18T08:31:38.609Z</time></trkpt><trkpt lat="43.5359405" lon="11.0519386"><ele>79.83333333333333</ele><time>2026-04-18T08:31:40.601Z</time></trkpt><trkpt lat="43.5358774" lon="11.0519073"><ele>77.66666666666666</ele><time>2026-04-18T08:31:42.617Z</time></trkpt><trkpt lat="43.5358242" lon="11.051997"><ele>75.5</ele><time>2026-04-18T08:31:44.608Z</time></trkpt><trkpt lat="43.5357883" lon="11.05209"><ele>73.33333333333333</ele><time>2026-04-18T08:31:45.616Z</time></trkpt><trkpt lat="43.5357338" lon="11.0522124"><ele>71.16666666666667</ele><time>2026-04-18T08:31:46.62Z</time></trkpt><trkpt lat="43.5356723" lon="11.0523335"><ele>69.0</ele><time>2026-04-18T08:31:47.622Z</time></trkpt><trkpt lat="43.535615" lon="11.052434"><ele>68.66666666666667</ele><time>2026-04-18T08:31:48.62Z</time></trkpt><trkpt lat="43.5355674" lon="11.0525244"><ele>68.33333333333333</ele><time>2026-04-18T08:31:49.64Z</time></trkpt><trkpt lat="43.5355258" lon="11.0526183"><ele>68.0</ele><time>2026-04-18T08:31:50.621Z</time></trkpt><trkpt lat="43.5354885" lon="11.0527053"><ele>67.66666666666666</ele><time>2026-04-18T08:31:51.623Z</time></trkpt><trkpt lat="43.5354438" lon="11.0528057"><ele>67.33333333333333</ele><time>2026-04-18T08:31:52.611Z</time></trkpt><trkpt lat="43.5353943" lon="11.0528903"><ele>67.0</ele><time>2026-04-18T08:31:53.612Z</time></trkpt><trkpt lat="43.5353554" lon="11.0529751"><ele>66.83333333333333</ele><time>2026-04-18T08:31:54.612Z</time></trkpt><trkpt lat="43.5353151" lon="11.0530632"><ele>66.66666666666666</ele><time>2026-04-18T08:31:55.611Z</time></trkpt><trkpt lat="43.5353007" lon="11.0531588"><ele>66.5</ele><time>2026-04-18T08:31:56.615Z</time></trkpt><trkpt lat="43.5352529" lon="11.0532974"><ele>66.33333333333333</ele><time>2026-04-18T08:31:58.611Z</time></trkpt><trkpt lat="43.5352012" lon="11.0534238"><ele>66.16666666666667</ele><time>2026-04-18T08:32:00.615Z</time></trkpt><trkpt lat="43.5351498" lon="11.0535173"><ele>66.0</ele><time>2026-04-18T08:32:02.616Z</time></trkpt><trkpt lat="43.5350886" lon="11.0534879"><ele>66.0</ele><time>2026-04-18T08:32:04.612Z</time></trkpt><trkpt lat="43.5349968" lon="11.0535145"><ele>66.0</ele><time>2026-04-18T08:32:06.601Z</time></trkpt><trkpt lat="43.5348887" lon="11.0535805"><ele>66.0</ele><time>2026-04-18T08:32:08.605Z</time></trkpt><trkpt lat="43.5348201" lon="11.0536043"><ele>66.0</ele><time>2026-04-18T08:32:09.602Z</time></trkpt><trkpt lat="43.5347398" lon="11.0536352"><ele>66.0</ele><time>2026-04-18T08:32:10.596Z</time></trkpt><trkpt lat="43.53466" lon="11.0536387"><ele>66.0</ele><time>2026-04-18T08:32:11.599Z</time></trkpt><trkpt lat="43.5345901" lon="11.0536349"><ele>66.0</ele><time>2026-04-18T08:32:12.608Z</time></trkpt><trkpt lat="43.5344807" lon="11.0536343"><ele>66.0</ele><time>2026-04-18T08:32:14.61Z</time></trkpt><trkpt lat="43.5344194" lon="11.0536121"><ele>66.0</ele><time>2026-04-18T08:32:15.609Z</time></trkpt><trkpt lat="43.5343137" lon="11.0535465"><ele>66.0</ele><time>2026-04-18T08:32:17.612Z</time></trkpt><trkpt lat="43.5342446" lon="11.0534959"><ele>66.0</ele><time>2026-04-18T08:32:19.606Z</time></trkpt><trkpt lat="43.5341774" lon="11.0534446"><ele>66.0</ele><time>2026-04-18T08:32:22.609Z</time></trkpt><trkpt lat="43.5341211" lon="11.0533736"><ele>66.0</ele><time>2026-04-18T08:32:25.621Z</time></trkpt><trkpt lat="43.5340617" lon="11.053305"><ele>66.0</ele><time>2026-04-18T08:32:28.621Z</time></trkpt><trkpt lat="43.5339571" lon="11.0532702"><ele>66.0</ele><time>2026-04-18T08:32:31.605Z</time></trkpt><trkpt lat="43.533875" lon="11.0531845"><ele>66.0</ele><time>2026-04-18T08:32:33.614Z</time></trkpt><trkpt lat="43.5337807" lon="11.0530894"><ele>66.0</ele><time>2026-04-18T08:32:35.612Z</time></trkpt><trkpt lat="43.5337116" lon="11.0530656"><ele>65.83333333333333</ele><time>2026-04-18T08:32:37.624Z</time></trkpt><trkpt lat="43.5336347" lon="11.0530369"><ele>65.66666666666667</ele><time>2026-04-18T08:32:39.622Z</time></trkpt><trkpt lat="43.5335558" lon="11.053006"><ele>65.5</ele><time>2026-04-18T08:32:41.621Z</time></trkpt><trkpt lat="43.5334768" lon="11.0529636"><ele>65.33333333333334</ele><time>2026-04-18T08:32:43.624Z</time></trkpt><trkpt lat="43.5334154" lon="11.0529304"><ele>65.16666666666667</ele><time>2026-04-18T08:32:45.62Z</time></trkpt><trkpt lat="43.5333543" lon="11.0528982"><ele>65.0</ele><time>2026-04-18T08:32:48.623Z</time></trkpt><trkpt lat="43.5332683" lon="11.052836"><ele>65.0</ele><time>2026-04-18T08:32:51.641Z</time></trkpt><trkpt lat="43.5331725" lon="11.0527858"><ele>65.0</ele><time>2026-04-18T08:32:53.618Z</time></trkpt><trkpt lat="43.5330843" lon="11.0527411"><ele>65.0</ele><time>2026-04-18T08:32:56.623Z</time></trkpt><trkpt lat="43.5330261" lon="11.0526892"><ele>65.0</ele><time>2026-04-18T08:33:13.627Z</time></trkpt><trkpt lat="43.5329415" lon="11.0527568"><ele>65.0</ele><time>2026-04-18T08:33:16.619Z</time></trkpt><trkpt lat="43.5328982" lon="11.0528244"><ele>65.0</ele><time>2026-04-18T08:33:17.61Z</time></trkpt><trkpt lat="43.532851" lon="11.0529011"><ele>65.33333333333334</ele><time>2026-04-18T08:33:18.631Z</time></trkpt><trkpt lat="43.5327993" lon="11.0529871"><ele>65.66666666666667</ele><time>2026-04-18T08:33:19.622Z</time></trkpt><trkpt lat="43.5327835" lon="11.0530845"><ele>66.0</ele><time>2026-04-18T08:33:22.631Z</time></trkpt><trkpt lat="43.5328034" lon="11.0531855"><ele>66.33333333333333</ele><time>2026-04-18T08:33:30.616Z</time></trkpt><trkpt lat="43.5327316" lon="11.0532231"><ele>66.66666666666666</ele><time>2026-04-18T08:33:33.611Z</time></trkpt><trkpt lat="43.5326663" lon="11.0532383"><ele>67.0</ele><time>2026-04-18T08:33:35.603Z</time></trkpt><trkpt lat="43.5325496" lon="11.0532752"><ele>67.0</ele><time>2026-04-18T08:33:37.604Z</time></trkpt><trkpt lat="43.5324842" lon="11.053329"><ele>67.0</ele><time>2026-04-18T08:33:38.606Z</time></trkpt><trkpt lat="43.5324217" lon="11.0534672"><ele>67.0</ele><time>2026-04-18T08:33:40.592Z</time></trkpt><trkpt lat="43.5324351" lon="11.0535573"><ele>67.0</ele><time>2026-04-18T08:33:41.597Z</time></trkpt><trkpt lat="43.5324579" lon="11.0536436"><ele>67.0</ele><time>2026-04-18T08:33:42.609Z</time></trkpt><trkpt lat="43.5324839" lon="11.053734"><ele>67.0</ele><time>2026-04-18T08:33:43.613Z</time></trkpt><trkpt lat="43.5324965" lon="11.0538257"><ele>67.0</ele><time>2026-04-18T08:33:44.608Z</time></trkpt><trkpt lat="43.532508" lon="11.0539351"><ele>67.0</ele><time>2026-04-18T08:33:45.609Z</time></trkpt><trkpt lat="43.5325199" lon="11.0540674"><ele>67.0</ele><time>2026-04-18T08:33:46.619Z</time></trkpt><trkpt lat="43.5325359" lon="11.0542005"><ele>67.0</ele><time>2026-04-18T08:33:47.611Z</time></trkpt><trkpt lat="43.5325449" lon="11.0543471"><ele>67.0</ele><time>2026-04-18T08:33:48.615Z</time></trkpt><trkpt lat="43.5325503" lon="11.0544919"><ele>67.0</ele><time>2026-04-18T08:33:49.614Z</time></trkpt><trkpt lat="43.532554" lon="11.0546378"><ele>67.0</ele><time>2026-04-18T08:33:50.617Z</time></trkpt><trkpt lat="43.5325552" lon="11.0547859"><ele>67.0</ele><time>2026-04-18T08:33:51.617Z</time></trkpt><trkpt lat="43.5325522" lon="11.0549205"><ele>67.0</ele><time>2026-04-18T08:33:52.619Z</time></trkpt><trkpt lat="43.5325431" lon="11.0550548"><ele>67.0</ele><time>2026-04-18T08:33:53.632Z</time></trkpt><trkpt lat="43.5325333" lon="11.0551993"><ele>67.0</ele><time>2026-04-18T08:33:54.615Z</time></trkpt><trkpt lat="43.5325265" lon="11.0553507"><ele>67.0</ele><time>2026-04-18T08:33:55.62Z</time></trkpt><trkpt lat="43.5325113" lon="11.0555013"><ele>67.0</ele><time>2026-04-18T08:33:56.614Z</time></trkpt><trkpt lat="43.5324945" lon="11.0556506"><ele>67.0</ele><time>2026-04-18T08:33:57.616Z</time></trkpt><trkpt lat="43.5324754" lon="11.0558174"><ele>67.0</ele><time>2026-04-18T08:33:58.62Z</time></trkpt><trkpt lat="43.5324478" lon="11.0559778"><ele>67.0</ele><time>2026-04-18T08:33:59.621Z</time></trkpt><trkpt lat="43.5324113" lon="11.0561241"><ele>67.0</ele><time>2026-04-18T08:34:00.625Z</time></trkpt><trkpt lat="43.5323775" lon="11.0562827"><ele>67.0</ele><time>2026-04-18T08:34:01.625Z</time></trkpt><trkpt lat="43.5323385" lon="11.0564408"><ele>67.0</ele><time>2026-04-18T08:34:02.63Z</time></trkpt><trkpt lat="43.5322923" lon="11.0566093"><ele>67.0</ele><time>2026-04-18T08:34:03.626Z</time></trkpt><trkpt lat="43.5322413" lon="11.0567745"><ele>67.0</ele><time>2026-04-18T08:34:04.631Z</time></trkpt><trkpt lat="43.5321847" lon="11.05693"><ele>67.0</ele><time>2026-04-18T08:34:05.627Z</time></trkpt><trkpt lat="43.532125" lon="11.0570757"><ele>66.8</ele><time>2026-04-18T08:34:06.628Z</time></trkpt><trkpt lat="43.5320616" lon="11.0572049"><ele>66.6</ele><time>2026-04-18T08:34:07.614Z</time></trkpt><trkpt lat="43.5319996" lon="11.0573071"><ele>66.39999999999999</ele><time>2026-04-18T08:34:08.622Z</time></trkpt><trkpt lat="43.5319421" lon="11.0574072"><ele>66.2</ele><time>2026-04-18T08:34:09.619Z</time></trkpt><trkpt lat="43.5318866" lon="11.0575085"><ele>66.0</ele><time>2026-04-18T08:34:10.621Z</time></trkpt><trkpt lat="43.5318391" lon="11.0576253"><ele>66.0</ele><time>2026-04-18T08:34:11.617Z</time></trkpt><trkpt lat="43.5318108" lon="11.0577568"><ele>66.0</ele><time>2026-04-18T08:34:12.618Z</time></trkpt><trkpt lat="43.5317858" lon="11.0579061"><ele>66.0</ele><time>2026-04-18T08:34:13.62Z</time></trkpt><trkpt lat="43.531731" lon="11.0580521"><ele>66.0</ele><time>2026-04-18T08:34:14.61Z</time></trkpt><trkpt lat="43.5316621" lon="11.0581882"><ele>66.25</ele><time>2026-04-18T08:34:15.621Z</time></trkpt><trkpt lat="43.531588" lon="11.0583075"><ele>66.5</ele><time>2026-04-18T08:34:16.624Z</time></trkpt><trkpt lat="43.5315059" lon="11.058436"><ele>66.75</ele><time>2026-04-18T08:34:17.626Z</time></trkpt><trkpt lat="43.5314269" lon="11.0585636"><ele>67.0</ele><time>2026-04-18T08:34:18.619Z</time></trkpt><trkpt lat="43.5313516" lon="11.0586776"><ele>67.0</ele><time>2026-04-18T08:34:19.62Z</time></trkpt><trkpt lat="43.5312611" lon="11.0588044"><ele>67.0</ele><time>2026-04-18T08:34:20.624Z</time></trkpt><trkpt lat="43.5311718" lon="11.0589337"><ele>67.0</ele><time>2026-04-18T08:34:21.621Z</time></trkpt><trkpt lat="43.5310911" lon="11.0590519"><ele>67.0</ele><time>2026-04-18T08:34:22.621Z</time></trkpt><trkpt lat="43.5310079" lon="11.0591575"><ele>67.4</ele><time>2026-04-18T08:34:23.621Z</time></trkpt><trkpt lat="43.5309225" lon="11.0592554"><ele>67.80000000000001</ele><time>2026-04-18T08:34:24.64Z</time></trkpt><trkpt lat="43.5308524" lon="11.0593491"><ele>68.2</ele><time>2026-04-18T08:34:25.622Z</time></trkpt><trkpt lat="43.5307874" lon="11.0594345"><ele>68.60000000000001</ele><time>2026-04-18T08:34:26.627Z</time></trkpt><trkpt lat="43.5307222" lon="11.0594978"><ele>69.0</ele><time>2026-04-18T08:34:27.631Z</time></trkpt><trkpt lat="43.5306538" lon="11.0595571"><ele>69.0</ele><time>2026-04-18T08:34:28.623Z</time></trkpt><trkpt lat="43.530574" lon="11.0596331"><ele>69.0</ele><time>2026-04-18T08:34:29.623Z</time></trkpt><trkpt lat="43.5304966" lon="11.059755"><ele>69.0</ele><time>2026-04-18T08:34:30.621Z</time></trkpt><trkpt lat="43.5304201" lon="11.0598998"><ele>69.0</ele><time>2026-04-18T08:34:31.627Z</time></trkpt><trkpt lat="43.5303355" lon="11.060043"><ele>69.0</ele><time>2026-04-18T08:34:32.622Z</time></trkpt><trkpt lat="43.5302528" lon="11.0602028"><ele>69.0</ele><time>2026-04-18T08:34:33.618Z</time></trkpt><trkpt lat="43.5301704" lon="11.060368"><ele>69.0</ele><time>2026-04-18T08:34:34.616Z</time></trkpt><trkpt lat="43.5300686" lon="11.0605174"><ele>69.0</ele><time>2026-04-18T08:34:35.613Z</time></trkpt><trkpt lat="43.5299762" lon="11.0606595"><ele>69.75</ele><time>2026-04-18T08:34:36.614Z</time></trkpt><trkpt lat="43.5299019" lon="11.0607916"><ele>70.5</ele><time>2026-04-18T08:34:37.614Z</time></trkpt><trkpt lat="43.5298125" lon="11.0609295"><ele>71.25</ele><time>2026-04-18T08:34:38.616Z</time></trkpt><trkpt lat="43.5297197" lon="11.0610823"><ele>72.0</ele><time>2026-04-18T08:34:39.616Z</time></trkpt><trkpt lat="43.5296449" lon="11.0612656"><ele>72.0</ele><time>2026-04-18T08:34:40.618Z</time></trkpt><trkpt lat="43.5295669" lon="11.0614439"><ele>72.0</ele><time>2026-04-18T08:34:41.623Z</time></trkpt><trkpt lat="43.529498" lon="11.061626"><ele>72.0</ele><time>2026-04-18T08:34:42.616Z</time></trkpt><trkpt lat="43.5294312" lon="11.0618247"><ele>71.75</ele><time>2026-04-18T08:34:43.621Z</time></trkpt><trkpt lat="43.5293728" lon="11.0620121"><ele>71.5</ele><time>2026-04-18T08:34:44.621Z</time></trkpt><trkpt lat="43.5293223" lon="11.062186"><ele>71.25</ele><time>2026-04-18T08:34:45.617Z</time></trkpt><trkpt lat="43.5292724" lon="11.0623481"><ele>71.0</ele><time>2026-04-18T08:34:46.618Z</time></trkpt><trkpt lat="43.5292246" lon="11.0624973"><ele>71.0</ele><time>2026-04-18T08:34:47.619Z</time></trkpt><trkpt lat="43.5291916" lon="11.0626646"><ele>71.0</ele><time>2026-04-18T08:34:48.609Z</time></trkpt><trkpt lat="43.5291543" lon="11.0628569"><ele>71.0</ele><time>2026-04-18T08:34:49.604Z</time></trkpt><trkpt lat="43.5291256" lon="11.0630497"><ele>71.0</ele><time>2026-04-18T08:34:50.608Z</time></trkpt><trkpt lat="43.5290886" lon="11.0632576"><ele>71.5</ele><time>2026-04-18T08:34:51.612Z</time></trkpt><trkpt lat="43.5290564" lon="11.0634519"><ele>72.0</ele><time>2026-04-18T08:34:52.618Z</time></trkpt><trkpt lat="43.5290281" lon="11.0636252"><ele>72.5</ele><time>2026-04-18T08:34:53.617Z</time></trkpt><trkpt lat="43.5290029" lon="11.0637831"><ele>73.0</ele><time>2026-04-18T08:34:54.618Z</time></trkpt><trkpt lat="43.5289883" lon="11.0639548"><ele>72.75</ele><time>2026-04-18T08:34:55.637Z</time></trkpt><trkpt lat="43.528962" lon="11.0641143"><ele>72.5</ele><time>2026-04-18T08:34:56.618Z</time></trkpt><trkpt lat="43.5289443" lon="11.0642891"><ele>72.25</ele><time>2026-04-18T08:34:57.617Z</time></trkpt><trkpt lat="43.528929" lon="11.0644716"><ele>72.0</ele><time>2026-04-18T08:34:58.618Z</time></trkpt><trkpt lat="43.5289087" lon="11.0646547"><ele>72.0</ele><time>2026-04-18T08:34:59.618Z</time></trkpt><trkpt lat="43.5288858" lon="11.0648536"><ele>72.0</ele><time>2026-04-18T08:35:00.622Z</time></trkpt><trkpt lat="43.5288643" lon="11.0650614"><ele>72.0</ele><time>2026-04-18T08:35:01.618Z</time></trkpt><trkpt lat="43.5288316" lon="11.0652646"><ele>72.0</ele><time>2026-04-18T08:35:02.623Z</time></trkpt><trkpt lat="43.5288009" lon="11.0654503"><ele>72.0</ele><time>2026-04-18T08:35:03.618Z</time></trkpt><trkpt lat="43.5287766" lon="11.0656508"><ele>72.0</ele><time>2026-04-18T08:35:04.618Z</time></trkpt><trkpt lat="43.5287583" lon="11.0658519"><ele>72.0</ele><time>2026-04-18T08:35:05.613Z</time></trkpt><trkpt lat="43.5287338" lon="11.0660539"><ele>72.0</ele><time>2026-04-18T08:35:06.623Z</time></trkpt><trkpt lat="43.5287213" lon="11.066236"><ele>71.75</ele><time>2026-04-18T08:35:07.62Z</time></trkpt><trkpt lat="43.5287039" lon="11.0663962"><ele>71.5</ele><time>2026-04-18T08:35:08.619Z</time></trkpt><trkpt lat="43.5286722" lon="11.0665694"><ele>71.25</ele><time>2026-04-18T08:35:09.623Z</time></trkpt><trkpt lat="43.5286495" lon="11.0667433"><ele>71.0</ele><time>2026-04-18T08:35:10.623Z</time></trkpt><trkpt lat="43.5286364" lon="11.066927"><ele>71.0</ele><time>2026-04-18T08:35:11.615Z</time></trkpt><trkpt lat="43.5286242" lon="11.0671136"><ele>71.0</ele><time>2026-04-18T08:35:12.617Z</time></trkpt><trkpt lat="43.5286132" lon="11.0673022"><ele>71.0</ele><time>2026-04-18T08:35:13.618Z</time></trkpt><trkpt lat="43.528599" lon="11.0674845"><ele>71.0</ele><time>2026-04-18T08:35:14.619Z</time></trkpt><trkpt lat="43.5285791" lon="11.0676633"><ele>71.0</ele><time>2026-04-18T08:35:15.62Z</time></trkpt><trkpt lat="43.5285446" lon="11.0678125"><ele>71.0</ele><time>2026-04-18T08:35:16.618Z</time></trkpt><trkpt lat="43.5285192" lon="11.0679685"><ele>71.0</ele><time>2026-04-18T08:35:17.621Z</time></trkpt><trkpt lat="43.5284966" lon="11.0681139"><ele>71.0</ele><time>2026-04-18T08:35:18.62Z</time></trkpt><trkpt lat="43.5284865" lon="11.0682519"><ele>71.0</ele><time>2026-04-18T08:35:19.631Z</time></trkpt><trkpt lat="43.5284868" lon="11.0683729"><ele>71.2</ele><time>2026-04-18T08:35:20.619Z</time></trkpt><trkpt lat="43.5284893" lon="11.068471"><ele>71.39999999999999</ele><time>2026-04-18T08:35:21.626Z</time></trkpt><trkpt lat="43.5284839" lon="11.0686285"><ele>71.6</ele><time>2026-04-18T08:35:23.619Z</time></trkpt><trkpt lat="43.5284221" lon="11.0687441"><ele>71.8</ele><time>2026-04-18T08:35:25.621Z</time></trkpt><trkpt lat="43.5283018" lon="11.0688065"><ele>72.0</ele><time>2026-04-18T08:35:27.64Z</time></trkpt><trkpt lat="43.5282396" lon="11.0688371"><ele>72.0</ele><time>2026-04-18T08:35:28.629Z</time></trkpt><trkpt lat="43.5281719" lon="11.0689059"><ele>72.0</ele><time>2026-04-18T08:35:29.623Z</time></trkpt><trkpt lat="43.5281331" lon="11.0689961"><ele>72.0</ele><time>2026-04-18T08:35:30.632Z</time></trkpt><trkpt lat="43.5281152" lon="11.0690863"><ele>72.0</ele><time>2026-04-18T08:35:31.626Z</time></trkpt><trkpt lat="43.5280728" lon="11.0692141"><ele>72.0</ele><time>2026-04-18T08:35:33.614Z</time></trkpt><trkpt lat="43.5280447" lon="11.0693472"><ele>72.0</ele><time>2026-04-18T08:35:35.608Z</time></trkpt><trkpt lat="43.528015" lon="11.0694445"><ele>72.0</ele><time>2026-04-18T08:35:36.61Z</time></trkpt><trkpt lat="43.5279727" lon="11.0695666"><ele>72.0</ele><time>2026-04-18T08:35:37.617Z</time></trkpt><trkpt lat="43.5279209" lon="11.0697223"><ele>72.0</ele><time>2026-04-18T08:35:38.621Z</time></trkpt><trkpt lat="43.5278672" lon="11.0698559"><ele>72.0</ele><time>2026-04-18T08:35:39.62Z</time></trkpt><trkpt lat="43.5278093" lon="11.07001"><ele>72.0</ele><time>2026-04-18T08:35:40.61Z</time></trkpt><trkpt lat="43.5277439" lon="11.0701681"><ele>72.0</ele><time>2026-04-18T08:35:41.626Z</time></trkpt><trkpt lat="43.5276936" lon="11.0702954"><ele>72.0</ele><time>2026-04-18T08:35:42.618Z</time></trkpt><trkpt lat="43.5276459" lon="11.0704162"><ele>72.0</ele><time>2026-04-18T08:35:43.617Z</time></trkpt><trkpt lat="43.527604" lon="11.0705203"><ele>72.0</ele><time>2026-04-18T08:35:44.614Z</time></trkpt><trkpt lat="43.527575" lon="11.0705976"><ele>72.0</ele><time>2026-04-18T08:35:45.612Z</time></trkpt><trkpt lat="43.5275164" lon="11.0707269"><ele>72.0</ele><time>2026-04-18T08:35:47.623Z</time></trkpt><trkpt lat="43.5274071" lon="11.0707337"><ele>72.0</ele><time>2026-04-18T08:35:49.624Z</time></trkpt><trkpt lat="43.5273377" lon="11.0706681"><ele>72.0</ele><time>2026-04-18T08:35:50.62Z</time></trkpt><trkpt lat="43.5272598" lon="11.0705758"><ele>72.0</ele><time>2026-04-18T08:35:51.617Z</time></trkpt><trkpt lat="43.5271631" lon="11.0704739"><ele>72.0</ele><time>2026-04-18T08:35:52.616Z</time></trkpt><trkpt lat="43.5270684" lon="11.0703658"><ele>72.0</ele><time>2026-04-18T08:35:53.615Z</time></trkpt><trkpt lat="43.526987" lon="11.0702691"><ele>72.0</ele><time>2026-04-18T08:35:54.621Z</time></trkpt><trkpt lat="43.5269081" lon="11.0701749"><ele>72.0</ele><time>2026-04-18T08:35:55.62Z</time></trkpt><trkpt lat="43.5268279" lon="11.0700967"><ele>72.0</ele><time>2026-04-18T08:35:56.627Z</time></trkpt><trkpt lat="43.5267593" lon="11.0700249"><ele>71.66666666666667</ele><time>2026-04-18T08:35:57.641Z</time></trkpt><trkpt lat="43.526698" lon="11.06996"><ele>71.33333333333333</ele><time>2026-04-18T08:35:58.627Z</time></trkpt><trkpt lat="43.5266407" lon="11.0699155"><ele>71.0</ele><time>2026-04-18T08:35:59.627Z</time></trkpt><trkpt lat="43.5265746" lon="11.0698744"><ele>70.66666666666666</ele><time>2026-04-18T08:36:00.615Z</time></trkpt><trkpt lat="43.5265079" lon="11.0698654"><ele>70.33333333333333</ele><time>2026-04-18T08:36:01.613Z</time></trkpt><trkpt lat="43.5263997" lon="11.0698797"><ele>70.0</ele><time>2026-04-18T08:36:03.615Z</time></trkpt><trkpt lat="43.5262806" lon="11.0698897"><ele>70.4</ele><time>2026-04-18T08:36:05.605Z</time></trkpt><trkpt lat="43.5261792" lon="11.0698868"><ele>70.8</ele><time>2026-04-18T08:36:07.602Z</time></trkpt><trkpt lat="43.5260604" lon="11.0697842"><ele>71.2</ele><time>2026-04-18T08:36:09.603Z</time></trkpt><trkpt lat="43.5259929" lon="11.0697217"><ele>71.6</ele><time>2026-04-18T08:36:10.606Z</time></trkpt><trkpt lat="43.5259319" lon="11.0696712"><ele>72.0</ele><time>2026-04-18T08:36:11.607Z</time></trkpt><trkpt lat="43.5258248" lon="11.0695937"><ele>72.0</ele><time>2026-04-18T08:36:13.618Z</time></trkpt><trkpt lat="43.5257466" lon="11.0696616"><ele>72.0</ele><time>2026-04-18T08:36:16.62Z</time></trkpt><trkpt lat="43.5257236" lon="11.0697691"><ele>72.0</ele><time>2026-04-18T08:36:17.61Z</time></trkpt><trkpt lat="43.5256839" lon="11.0699214"><ele>72.0</ele><time>2026-04-18T08:36:18.607Z</time></trkpt><trkpt lat="43.5256251" lon="11.0700791"><ele>72.0</ele><time>2026-04-18T08:36:19.617Z</time></trkpt><trkpt lat="43.5255616" lon="11.0702338"><ele>71.75</ele><time>2026-04-18T08:36:20.613Z</time></trkpt><trkpt lat="43.5255037" lon="11.0703836"><ele>71.5</ele><time>2026-04-18T08:36:21.616Z</time></trkpt><trkpt lat="43.525442" lon="11.0705434"><ele>71.25</ele><time>2026-04-18T08:36:22.614Z</time></trkpt><trkpt lat="43.5253904" lon="11.070686"><ele>71.0</ele><time>2026-04-18T08:36:23.618Z</time></trkpt><trkpt lat="43.5253381" lon="11.070822"><ele>71.5</ele><time>2026-04-18T08:36:24.617Z</time></trkpt><trkpt lat="43.525286" lon="11.0709516"><ele>72.0</ele><time>2026-04-18T08:36:25.615Z</time></trkpt><trkpt lat="43.5252453" lon="11.0710707"><ele>72.5</ele><time>2026-04-18T08:36:26.616Z</time></trkpt><trkpt lat="43.5252061" lon="11.071174"><ele>73.0</ele><time>2026-04-18T08:36:27.616Z</time></trkpt><trkpt lat="43.5251691" lon="11.0712664"><ele>73.5</ele><time>2026-04-18T08:36:28.64Z</time></trkpt><trkpt lat="43.5251215" lon="11.0713519"><ele>74.0</ele><time>2026-04-18T08:36:29.613Z</time></trkpt><trkpt lat="43.5250672" lon="11.0714183"><ele>74.0</ele><time>2026-04-18T08:36:30.624Z</time></trkpt><trkpt lat="43.5249937" lon="11.0714541"><ele>74.0</ele><time>2026-04-18T08:36:31.614Z</time></trkpt><trkpt lat="43.524915" lon="11.0714468"><ele>74.0</ele><time>2026-04-18T08:36:32.617Z</time></trkpt><trkpt lat="43.5248359" lon="11.0714075"><ele>74.0</ele><time>2026-04-18T08:36:33.612Z</time></trkpt><trkpt lat="43.5247606" lon="11.0713571"><ele>74.0</ele><time>2026-04-18T08:36:34.615Z</time></trkpt><trkpt lat="43.5246974" lon="11.0713312"><ele>74.0</ele><time>2026-04-18T08:36:35.613Z</time></trkpt><trkpt lat="43.5245832" lon="11.0713861"><ele>74.42857142857143</ele><time>2026-04-18T08:36:37.615Z</time></trkpt><trkpt lat="43.5245478" lon="11.0714737"><ele>74.85714285714286</ele><time>2026-04-18T08:36:38.611Z</time></trkpt><trkpt lat="43.524522" lon="11.0715665"><ele>75.28571428571428</ele><time>2026-04-18T08:36:39.613Z</time></trkpt><trkpt lat="43.5244917" lon="11.0716492"><ele>75.71428571428572</ele><time>2026-04-18T08:36:40.61Z</time></trkpt><trkpt lat="43.5244517" lon="11.0717165"><ele>76.14285714285714</ele><time>2026-04-18T08:36:41.609Z</time></trkpt><trkpt lat="43.5243863" lon="11.0717577"><ele>76.57142857142857</ele><time>2026-04-18T08:36:42.607Z</time></trkpt><trkpt lat="43.5243128" lon="11.071771"><ele>77.0</ele><time>2026-04-18T08:36:43.603Z</time></trkpt><trkpt lat="43.5242289" lon="11.0717579"><ele>77.0</ele><time>2026-04-18T08:36:44.624Z</time></trkpt><trkpt lat="43.5241153" lon="11.0717185"><ele>77.0</ele><time>2026-04-18T08:36:45.622Z</time></trkpt><trkpt lat="43.5239988" lon="11.0716854"><ele>77.0</ele><time>2026-04-18T08:36:46.626Z</time></trkpt><trkpt lat="43.5238834" lon="11.0716556"><ele>77.0</ele><time>2026-04-18T08:36:47.62Z</time></trkpt><trkpt lat="43.5237681" lon="11.0716317"><ele>80.0</ele><time>2026-04-18T08:36:48.627Z</time></trkpt><trkpt lat="43.523651" lon="11.0716067"><ele>83.0</ele><time>2026-04-18T08:36:49.632Z</time></trkpt><trkpt lat="43.5235213" lon="11.0715881"><ele>86.0</ele><time>2026-04-18T08:36:50.633Z</time></trkpt><trkpt lat="43.5233837" lon="11.071568"><ele>89.0</ele><time>2026-04-18T08:36:51.633Z</time></trkpt><trkpt lat="43.5232401" lon="11.0715503"><ele>89.0</ele><time>2026-04-18T08:36:52.633Z</time></trkpt><trkpt lat="43.5230925" lon="11.0715289"><ele>89.0</ele><time>2026-04-18T08:36:53.627Z</time></trkpt><trkpt lat="43.522933" lon="11.071522"><ele>89.0</ele><time>2026-04-18T08:36:54.629Z</time></trkpt><trkpt lat="43.5227909" lon="11.0715093"><ele>90.6</ele><time>2026-04-18T08:36:55.627Z</time></trkpt><trkpt lat="43.5226564" lon="11.0715015"><ele>92.2</ele><time>2026-04-18T08:36:56.623Z</time></trkpt><trkpt lat="43.5225321" lon="11.0714883"><ele>93.8</ele><time>2026-04-18T08:36:57.628Z</time></trkpt><trkpt lat="43.5224489" lon="11.0714762"><ele>95.39999999999999</ele><time>2026-04-18T08:36:58.625Z</time></trkpt><trkpt lat="43.5223786" lon="11.071466"><ele>97.0</ele><time>2026-04-18T08:36:59.641Z</time></trkpt><trkpt lat="43.5223046" lon="11.0714615"><ele>97.0</ele><time>2026-04-18T08:37:00.642Z</time></trkpt><trkpt lat="43.5222355" lon="11.0714658"><ele>97.0</ele><time>2026-04-18T08:37:01.632Z</time></trkpt><trkpt lat="43.5221287" lon="11.0715708"><ele>97.0</ele><time>2026-04-18T08:37:03.627Z</time></trkpt><trkpt lat="43.5220861" lon="11.0716812"><ele>97.0</ele><time>2026-04-18T08:37:04.622Z</time></trkpt><trkpt lat="43.5220585" lon="11.0718043"><ele>97.0</ele><time>2026-04-18T08:37:05.627Z</time></trkpt><trkpt lat="43.5220449" lon="11.0719458"><ele>96.75</ele><time>2026-04-18T08:37:06.625Z</time></trkpt><trkpt lat="43.5220167" lon="11.0720823"><ele>96.5</ele><time>2026-04-18T08:37:07.627Z</time></trkpt><trkpt lat="43.5219742" lon="11.072226"><ele>96.25</ele><time>2026-04-18T08:37:08.623Z</time></trkpt><trkpt lat="43.5219211" lon="11.0723723"><ele>96.0</ele><time>2026-04-18T08:37:09.621Z</time></trkpt><trkpt lat="43.521871" lon="11.0725164"><ele>96.0</ele><time>2026-04-18T08:37:10.623Z</time></trkpt><trkpt lat="43.5218285" lon="11.0726489"><ele>96.0</ele><time>2026-04-18T08:37:11.62Z</time></trkpt><trkpt lat="43.5217985" lon="11.072775"><ele>96.0</ele><time>2026-04-18T08:37:12.624Z</time></trkpt><trkpt lat="43.5217749" lon="11.0728976"><ele>96.0</ele><time>2026-04-18T08:37:13.618Z</time></trkpt><trkpt lat="43.5217494" lon="11.073029"><ele>96.0</ele><time>2026-04-18T08:37:14.616Z</time></trkpt><trkpt lat="43.5217092" lon="11.0731717"><ele>95.0</ele><time>2026-04-18T08:37:15.614Z</time></trkpt><trkpt lat="43.521664" lon="11.0733252"><ele>94.0</ele><time>2026-04-18T08:37:16.623Z</time></trkpt><trkpt lat="43.5216153" lon="11.0734723"><ele>93.0</ele><time>2026-04-18T08:37:17.62Z</time></trkpt><trkpt lat="43.5215706" lon="11.073608"><ele>92.0</ele><time>2026-04-18T08:37:18.616Z</time></trkpt><trkpt lat="43.5215332" lon="11.0737365"><ele>91.0</ele><time>2026-04-18T08:37:19.619Z</time></trkpt><trkpt lat="43.5214951" lon="11.0738707"><ele>91.0</ele><time>2026-04-18T08:37:20.621Z</time></trkpt><trkpt lat="43.521456" lon="11.0740142"><ele>91.0</ele><time>2026-04-18T08:37:21.622Z</time></trkpt><trkpt lat="43.5214135" lon="11.074148"><ele>91.0</ele><time>2026-04-18T08:37:22.618Z</time></trkpt><trkpt lat="43.5213801" lon="11.0742772"><ele>91.0</ele><time>2026-04-18T08:37:23.623Z</time></trkpt><trkpt lat="43.5213422" lon="11.0743995"><ele>91.0</ele><time>2026-04-18T08:37:24.616Z</time></trkpt><trkpt lat="43.521311" lon="11.074519"><ele>91.5</ele><time>2026-04-18T08:37:25.62Z</time></trkpt><trkpt lat="43.5212806" lon="11.074628"><ele>92.0</ele><time>2026-04-18T08:37:26.623Z</time></trkpt><trkpt lat="43.5212462" lon="11.0747341"><ele>92.5</ele><time>2026-04-18T08:37:27.624Z</time></trkpt><trkpt lat="43.5212155" lon="11.0748352"><ele>93.0</ele><time>2026-04-18T08:37:28.629Z</time></trkpt><trkpt lat="43.5211854" lon="11.0749435"><ele>93.5</ele><time>2026-04-18T08:37:29.628Z</time></trkpt><trkpt lat="43.5211513" lon="11.0750544"><ele>94.0</ele><time>2026-04-18T08:37:30.642Z</time></trkpt><trkpt lat="43.5211064" lon="11.0751555"><ele>91.4</ele><time>2026-04-18T08:37:31.618Z</time></trkpt><trkpt lat="43.5210465" lon="11.0752438"><ele>88.80000000000001</ele><time>2026-04-18T08:37:32.611Z</time></trkpt><trkpt lat="43.5209817" lon="11.0753232"><ele>86.19999999999999</ele><time>2026-04-18T08:37:33.613Z</time></trkpt><trkpt lat="43.5208991" lon="11.0754013"><ele>83.6</ele><time>2026-04-18T08:37:34.605Z</time></trkpt><trkpt lat="43.5208006" lon="11.0754655"><ele>81.0</ele><time>2026-04-18T08:37:35.613Z</time></trkpt><trkpt lat="43.5206833" lon="11.0755282"><ele>81.0</ele><time>2026-04-18T08:37:36.612Z</time></trkpt><trkpt lat="43.5205642" lon="11.0755844"><ele>81.0</ele><time>2026-04-18T08:37:37.609Z</time></trkpt><trkpt lat="43.5204468" lon="11.0756494"><ele>81.0</ele><time>2026-04-18T08:37:38.607Z</time></trkpt><trkpt lat="43.5203355" lon="11.075748"><ele>81.0</ele><time>2026-04-18T08:37:39.61Z</time></trkpt><trkpt lat="43.520225" lon="11.0758539"><ele>80.39999999999999</ele><time>2026-04-18T08:37:40.611Z</time></trkpt><trkpt lat="43.5201213" lon="11.0759548"><ele>79.8</ele><time>2026-04-18T08:37:41.609Z</time></trkpt><trkpt lat="43.520032" lon="11.0760312"><ele>79.19999999999999</ele><time>2026-04-18T08:37:42.605Z</time></trkpt><trkpt lat="43.5199645" lon="11.076093"><ele>78.6</ele><time>2026-04-18T08:37:43.608Z</time></trkpt><trkpt lat="43.5199082" lon="11.0761348"><ele>78.0</ele><time>2026-04-18T08:37:44.609Z</time></trkpt><trkpt lat="43.5198032" lon="11.0762062"><ele>78.0</ele><time>2026-04-18T08:37:46.617Z</time></trkpt><trkpt lat="43.5197443" lon="11.0762571"><ele>78.0</ele><time>2026-04-18T08:37:47.608Z</time></trkpt><trkpt lat="43.5196673" lon="11.0763058"><ele>78.0</ele><time>2026-04-18T08:37:48.606Z</time></trkpt><trkpt lat="43.5195679" lon="11.076374"><ele>78.0</ele><time>2026-04-18T08:37:49.609Z</time></trkpt><trkpt lat="43.5194649" lon="11.0764481"><ele>78.0</ele><time>2026-04-18T08:37:50.609Z</time></trkpt><trkpt lat="43.5193485" lon="11.0765577"><ele>77.5</ele><time>2026-04-18T08:37:51.621Z</time></trkpt><trkpt lat="43.5192396" lon="11.0766638"><ele>77.0</ele><time>2026-04-18T08:37:52.608Z</time></trkpt><trkpt lat="43.5191375" lon="11.0767356"><ele>76.5</ele><time>2026-04-18T08:37:53.615Z</time></trkpt><trkpt lat="43.5190344" lon="11.0767905"><ele>76.0</ele><time>2026-04-18T08:37:54.616Z</time></trkpt><trkpt lat="43.518928" lon="11.076858"><ele>76.0</ele><time>2026-04-18T08:37:55.622Z</time></trkpt><trkpt lat="43.518821" lon="11.0769183"><ele>76.0</ele><time>2026-04-18T08:37:56.605Z</time></trkpt><trkpt lat="43.5187014" lon="11.0769574"><ele>76.0</ele><time>2026-04-18T08:37:57.606Z</time></trkpt><trkpt lat="43.5185774" lon="11.0769375"><ele>76.0</ele><time>2026-04-18T08:37:58.613Z</time></trkpt><trkpt lat="43.5184481" lon="11.0769257"><ele>77.0</ele><time>2026-04-18T08:37:59.615Z</time></trkpt><trkpt lat="43.5183351" lon="11.0769219"><ele>78.0</ele><time>2026-04-18T08:38:00.617Z</time></trkpt><trkpt lat="43.5182242" lon="11.0769221"><ele>79.0</ele><time>2026-04-18T08:38:01.628Z</time></trkpt><trkpt lat="43.5180954" lon="11.0769276"><ele>80.0</ele><time>2026-04-18T08:38:02.618Z</time></trkpt><trkpt lat="43.5179735" lon="11.0769418"><ele>79.5</ele><time>2026-04-18T08:38:03.612Z</time></trkpt><trkpt lat="43.5178591" lon="11.0769563"><ele>79.0</ele><time>2026-04-18T08:38:04.612Z</time></trkpt><trkpt lat="43.5177505" lon="11.0769525"><ele>78.5</ele><time>2026-04-18T08:38:05.616Z</time></trkpt><trkpt lat="43.5176376" lon="11.0769421"><ele>78.0</ele><time>2026-04-18T08:38:06.618Z</time></trkpt><trkpt lat="43.5175152" lon="11.0769237"><ele>78.0</ele><time>2026-04-18T08:38:07.61Z</time></trkpt><trkpt lat="43.5173962" lon="11.0769109"><ele>78.0</ele><time>2026-04-18T08:38:08.614Z</time></trkpt><trkpt lat="43.5172769" lon="11.0768955"><ele>78.0</ele><time>2026-04-18T08:38:09.612Z</time></trkpt><trkpt lat="43.5171563" lon="11.0768907"><ele>78.0</ele><time>2026-04-18T08:38:10.609Z</time></trkpt><trkpt lat="43.5170434" lon="11.0768883"><ele>78.0</ele><time>2026-04-18T08:38:11.614Z</time></trkpt><trkpt lat="43.5169325" lon="11.0768937"><ele>78.0</ele><time>2026-04-18T08:38:12.608Z</time></trkpt><trkpt lat="43.5168213" lon="11.0769254"><ele>78.0</ele><time>2026-04-18T08:38:13.611Z</time></trkpt><trkpt lat="43.5167191" lon="11.0769802"><ele>78.0</ele><time>2026-04-18T08:38:14.617Z</time></trkpt><trkpt lat="43.5166167" lon="11.077049"><ele>78.0</ele><time>2026-04-18T08:38:15.618Z</time></trkpt><trkpt lat="43.5165175" lon="11.0771009"><ele>78.0</ele><time>2026-04-18T08:38:16.619Z</time></trkpt><trkpt lat="43.5164069" lon="11.0771463"><ele>78.0</ele><time>2026-04-18T08:38:17.616Z</time></trkpt><trkpt lat="43.5162806" lon="11.0771944"><ele>78.0</ele><time>2026-04-18T08:38:18.61Z</time></trkpt><trkpt lat="43.5161498" lon="11.0772293"><ele>78.0</ele><time>2026-04-18T08:38:19.607Z</time></trkpt><trkpt lat="43.5160275" lon="11.0772519"><ele>78.6</ele><time>2026-04-18T08:38:20.616Z</time></trkpt><trkpt lat="43.5159253" lon="11.0772628"><ele>79.19999999999999</ele><time>2026-04-18T08:38:21.619Z</time></trkpt><trkpt lat="43.5158368" lon="11.0772791"><ele>79.8</ele><time>2026-04-18T08:38:22.61Z</time></trkpt><trkpt lat="43.5157525" lon="11.0772837"><ele>80.39999999999999</ele><time>2026-04-18T08:38:23.61Z</time></trkpt><trkpt lat="43.5156792" lon="11.0772924"><ele>81.0</ele><time>2026-04-18T08:38:24.605Z</time></trkpt><trkpt lat="43.5155674" lon="11.0773498"><ele>81.0</ele><time>2026-04-18T08:38:26.596Z</time></trkpt><trkpt lat="43.5155242" lon="11.0774296"><ele>81.0</ele><time>2026-04-18T08:38:27.593Z</time></trkpt><trkpt lat="43.5155082" lon="11.0775368"><ele>81.0</ele><time>2026-04-18T08:38:28.61Z</time></trkpt><trkpt lat="43.5155393" lon="11.0776744"><ele>81.0</ele><time>2026-04-18T08:38:29.601Z</time></trkpt><trkpt lat="43.5155832" lon="11.0778163"><ele>81.0</ele><time>2026-04-18T08:38:30.607Z</time></trkpt><trkpt lat="43.5156432" lon="11.0779402"><ele>80.16666666666667</ele><time>2026-04-18T08:38:31.611Z</time></trkpt><trkpt lat="43.5156966" lon="11.078046"><ele>79.33333333333333</ele><time>2026-04-18T08:38:32.628Z</time></trkpt><trkpt lat="43.5157468" lon="11.0781375"><ele>78.5</ele><time>2026-04-18T08:38:33.609Z</time></trkpt><trkpt lat="43.5157922" lon="11.0782172"><ele>77.66666666666666</ele><time>2026-04-18T08:38:34.611Z</time></trkpt><trkpt lat="43.5158094" lon="11.0783042"><ele>76.83333333333333</ele><time>2026-04-18T08:38:35.619Z</time></trkpt><trkpt lat="43.5157854" lon="11.0783861"><ele>76.0</ele><time>2026-04-18T08:38:36.62Z</time></trkpt><trkpt lat="43.5157332" lon="11.0784649"><ele>76.0</ele><time>2026-04-18T08:38:37.607Z</time></trkpt><trkpt lat="43.5156548" lon="11.0785445"><ele>76.0</ele><time>2026-04-18T08:38:38.608Z</time></trkpt><trkpt lat="43.5155621" lon="11.0786388"><ele>76.0</ele><time>2026-04-18T08:38:39.601Z</time></trkpt><trkpt lat="43.5154557" lon="11.0787497"><ele>76.0</ele><time>2026-04-18T08:38:40.612Z</time></trkpt><trkpt lat="43.5153562" lon="11.0788534"><ele>75.5</ele><time>2026-04-18T08:38:41.613Z</time></trkpt><trkpt lat="43.5152667" lon="11.0789564"><ele>75.0</ele><time>2026-04-18T08:38:42.619Z</time></trkpt><trkpt lat="43.5151671" lon="11.079067"><ele>74.5</ele><time>2026-04-18T08:38:43.62Z</time></trkpt><trkpt lat="43.5150707" lon="11.0791725"><ele>74.0</ele><time>2026-04-18T08:38:44.622Z</time></trkpt><trkpt lat="43.5149826" lon="11.079289"><ele>74.0</ele><time>2026-04-18T08:38:45.625Z</time></trkpt><trkpt lat="43.514897" lon="11.0794042"><ele>74.0</ele><time>2026-04-18T08:38:46.628Z</time></trkpt><trkpt lat="43.5148075" lon="11.079524"><ele>74.0</ele><time>2026-04-18T08:38:47.621Z</time></trkpt><trkpt lat="43.5147202" lon="11.0796378"><ele>74.0</ele><time>2026-04-18T08:38:48.624Z</time></trkpt><trkpt lat="43.5146436" lon="11.0797303"><ele>74.0</ele><time>2026-04-18T08:38:49.62Z</time></trkpt><trkpt lat="43.5145695" lon="11.0798296"><ele>74.0</ele><time>2026-04-18T08:38:50.62Z</time></trkpt><trkpt lat="43.5144923" lon="11.079923"><ele>74.0</ele><time>2026-04-18T08:38:51.618Z</time></trkpt><trkpt lat="43.5144274" lon="11.0799992"><ele>74.0</ele><time>2026-04-18T08:38:52.62Z</time></trkpt><trkpt lat="43.5143614" lon="11.0800681"><ele>74.0</ele><time>2026-04-18T08:38:53.622Z</time></trkpt><trkpt lat="43.514306" lon="11.0801349"><ele>74.0</ele><time>2026-04-18T08:38:54.625Z</time></trkpt><trkpt lat="43.5142478" lon="11.0801942"><ele>74.0</ele><time>2026-04-18T08:38:55.621Z</time></trkpt><trkpt lat="43.5141657" lon="11.0802505"><ele>74.0</ele><time>2026-04-18T08:38:56.62Z</time></trkpt><trkpt lat="43.5140683" lon="11.0803012"><ele>74.0</ele><time>2026-04-18T08:38:57.625Z</time></trkpt><trkpt lat="43.5139363" lon="11.0803493"><ele>74.0</ele><time>2026-04-18T08:38:58.606Z</time></trkpt><trkpt lat="43.513785" lon="11.0803941"><ele>74.0</ele><time>2026-04-18T08:38:59.609Z</time></trkpt><trkpt lat="43.5135903" lon="11.0804344"><ele>74.0</ele><time>2026-04-18T08:39:00.621Z</time></trkpt><trkpt lat="43.513419" lon="11.0804833"><ele>74.0</ele><time>2026-04-18T08:39:01.624Z</time></trkpt><trkpt lat="43.5132599" lon="11.0805467"><ele>74.0</ele><time>2026-04-18T08:39:02.623Z</time></trkpt><trkpt lat="43.5131136" lon="11.0806166"><ele>74.0</ele><time>2026-04-18T08:39:03.638Z</time></trkpt><trkpt lat="43.5129652" lon="11.0806815"><ele>74.0</ele><time>2026-04-18T08:39:04.623Z</time></trkpt><trkpt lat="43.5128236" lon="11.0807395"><ele>74.33333333333334</ele><time>2026-04-18T08:39:05.627Z</time></trkpt><trkpt lat="43.5126759" lon="11.0807934"><ele>74.66666666666667</ele><time>2026-04-18T08:39:06.625Z</time></trkpt><trkpt lat="43.5125288" lon="11.0808526"><ele>75.0</ele><time>2026-04-18T08:39:07.624Z</time></trkpt><trkpt lat="43.5123749" lon="11.080924"><ele>75.0</ele><time>2026-04-18T08:39:08.632Z</time></trkpt><trkpt lat="43.5122461" lon="11.0809827"><ele>75.0</ele><time>2026-04-18T08:39:09.62Z</time></trkpt><trkpt lat="43.5121204" lon="11.0810216"><ele>75.0</ele><time>2026-04-18T08:39:10.626Z</time></trkpt><trkpt lat="43.5120039" lon="11.0810672"><ele>75.0</ele><time>2026-04-18T08:39:11.628Z</time></trkpt><trkpt lat="43.5118841" lon="11.0810964"><ele>75.0</ele><time>2026-04-18T08:39:12.624Z</time></trkpt><trkpt lat="43.511759" lon="11.0810835"><ele>75.0</ele><time>2026-04-18T08:39:13.629Z</time></trkpt><trkpt lat="43.5116356" lon="11.0810479"><ele>75.0</ele><time>2026-04-18T08:39:14.628Z</time></trkpt><trkpt lat="43.5115062" lon="11.080971"><ele>75.0</ele><time>2026-04-18T08:39:15.629Z</time></trkpt><trkpt lat="43.5113952" lon="11.080876"><ele>75.0</ele><time>2026-04-18T08:39:16.633Z</time></trkpt><trkpt lat="43.5112673" lon="11.0807841"><ele>75.0</ele><time>2026-04-18T08:39:17.632Z</time></trkpt><trkpt lat="43.5111351" lon="11.080701"><ele>75.0</ele><time>2026-04-18T08:39:18.632Z</time></trkpt><trkpt lat="43.5110075" lon="11.080642"><ele>75.0</ele><time>2026-04-18T08:39:19.628Z</time></trkpt><trkpt lat="43.5108974" lon="11.0805883"><ele>75.4</ele><time>2026-04-18T08:39:20.635Z</time></trkpt><trkpt lat="43.5107882" lon="11.0805428"><ele>75.8</ele><time>2026-04-18T08:39:21.629Z</time></trkpt><trkpt lat="43.5106758" lon="11.0805131"><ele>76.2</ele><time>2026-04-18T08:39:22.63Z</time></trkpt><trkpt lat="43.5105775" lon="11.0805004"><ele>76.6</ele><time>2026-04-18T08:39:23.622Z</time></trkpt><trkpt lat="43.510476" lon="11.0805117"><ele>77.0</ele><time>2026-04-18T08:39:24.63Z</time></trkpt><trkpt lat="43.5103738" lon="11.0805827"><ele>77.0</ele><time>2026-04-18T08:39:25.619Z</time></trkpt><trkpt lat="43.5102583" lon="11.0806814"><ele>77.0</ele><time>2026-04-18T08:39:26.63Z</time></trkpt><trkpt lat="43.5101385" lon="11.0807946"><ele>77.0</ele><time>2026-04-18T08:39:27.635Z</time></trkpt><trkpt lat="43.5100105" lon="11.0809171"><ele>77.0</ele><time>2026-04-18T08:39:28.634Z</time></trkpt><trkpt lat="43.5099012" lon="11.0810303"><ele>77.0</ele><time>2026-04-18T08:39:29.631Z</time></trkpt><trkpt lat="43.509803" lon="11.0811359"><ele>77.0</ele><time>2026-04-18T08:39:30.63Z</time></trkpt><trkpt lat="43.5097182" lon="11.0812178"><ele>77.0</ele><time>2026-04-18T08:39:31.62Z</time></trkpt><trkpt lat="43.509648" lon="11.0812935"><ele>77.0</ele><time>2026-04-18T08:39:32.631Z</time></trkpt><trkpt lat="43.5095886" lon="11.0813516"><ele>77.0</ele><time>2026-04-18T08:39:33.624Z</time></trkpt><trkpt lat="43.5095171" lon="11.0814193"><ele>77.0</ele><time>2026-04-18T08:39:34.641Z</time></trkpt><trkpt lat="43.5094466" lon="11.0814779"><ele>77.0</ele><time>2026-04-18T08:39:35.625Z</time></trkpt><trkpt lat="43.5093811" lon="11.0815283"><ele>77.0</ele><time>2026-04-18T08:39:36.626Z</time></trkpt><trkpt lat="43.5093258" lon="11.081571"><ele>77.0</ele><time>2026-04-18T08:39:37.625Z</time></trkpt><trkpt lat="43.5092313" lon="11.0816181"><ele>77.0</ele><time>2026-04-18T08:39:39.618Z</time></trkpt><trkpt lat="43.5091439" lon="11.081593"><ele>77.0</ele><time>2026-04-18T08:39:41.605Z</time></trkpt><trkpt lat="43.5090969" lon="11.0815339"><ele>77.0</ele><time>2026-04-18T08:39:42.612Z</time></trkpt><trkpt lat="43.5090539" lon="11.0814375"><ele>77.0</ele><time>2026-04-18T08:39:43.607Z</time></trkpt><trkpt lat="43.5089949" lon="11.0813406"><ele>77.0</ele><time>2026-04-18T08:39:44.612Z</time></trkpt><trkpt lat="43.5089237" lon="11.0812349"><ele>77.0</ele><time>2026-04-18T08:39:45.613Z</time></trkpt><trkpt lat="43.5088475" lon="11.0811399"><ele>77.0</ele><time>2026-04-18T08:39:46.623Z</time></trkpt><trkpt lat="43.508774" lon="11.0810513"><ele>77.2</ele><time>2026-04-18T08:39:47.617Z</time></trkpt><trkpt lat="43.5087056" lon="11.0809529"><ele>77.4</ele><time>2026-04-18T08:39:48.62Z</time></trkpt><trkpt lat="43.5086391" lon="11.0808449"><ele>77.6</ele><time>2026-04-18T08:39:49.613Z</time></trkpt><trkpt lat="43.5085673" lon="11.0807335"><ele>77.8</ele><time>2026-04-18T08:39:50.61Z</time></trkpt><trkpt lat="43.5084959" lon="11.0806231"><ele>78.0</ele><time>2026-04-18T08:39:51.609Z</time></trkpt><trkpt lat="43.5084252" lon="11.0805099"><ele>78.0</ele><time>2026-04-18T08:39:52.608Z</time></trkpt><trkpt lat="43.5083549" lon="11.0803998"><ele>78.0</ele><time>2026-04-18T08:39:53.61Z</time></trkpt><trkpt lat="43.5082752" lon="11.0802876"><ele>78.0</ele><time>2026-04-18T08:39:54.614Z</time></trkpt><trkpt lat="43.5081973" lon="11.080185"><ele>78.0</ele><time>2026-04-18T08:39:55.607Z</time></trkpt><trkpt lat="43.5081283" lon="11.0801008"><ele>78.0</ele><time>2026-04-18T08:39:56.614Z</time></trkpt><trkpt lat="43.508066" lon="11.0800122"><ele>77.8</ele><time>2026-04-18T08:39:57.616Z</time></trkpt><trkpt lat="43.5079949" lon="11.0799198"><ele>77.6</ele><time>2026-04-18T08:39:58.625Z</time></trkpt><trkpt lat="43.5079199" lon="11.0798185"><ele>77.4</ele><time>2026-04-18T08:39:59.621Z</time></trkpt><trkpt lat="43.5078401" lon="11.0797272"><ele>77.2</ele><time>2026-04-18T08:40:00.633Z</time></trkpt><trkpt lat="43.5077591" lon="11.0796384"><ele>77.0</ele><time>2026-04-18T08:40:01.621Z</time></trkpt><trkpt lat="43.507684" lon="11.0795528"><ele>77.33333333333334</ele><time>2026-04-18T08:40:02.624Z</time></trkpt><trkpt lat="43.5076159" lon="11.0794724"><ele>77.66666666666667</ele><time>2026-04-18T08:40:03.62Z</time></trkpt><trkpt lat="43.5075429" lon="11.0793992"><ele>78.0</ele><time>2026-04-18T08:40:04.618Z</time></trkpt><trkpt lat="43.5074733" lon="11.0793251"><ele>78.33333333333333</ele><time>2026-04-18T08:40:05.63Z</time></trkpt><trkpt lat="43.5074003" lon="11.079253"><ele>78.66666666666666</ele><time>2026-04-18T08:40:06.612Z</time></trkpt><trkpt lat="43.5073338" lon="11.0791681"><ele>79.0</ele><time>2026-04-18T08:40:07.61Z</time></trkpt><trkpt lat="43.5072757" lon="11.0790566"><ele>79.0</ele><time>2026-04-18T08:40:08.607Z</time></trkpt><trkpt lat="43.5072291" lon="11.0789339"><ele>79.0</ele><time>2026-04-18T08:40:09.613Z</time></trkpt><trkpt lat="43.5071934" lon="11.0788121"><ele>79.0</ele><time>2026-04-18T08:40:10.606Z</time></trkpt><trkpt lat="43.5071614" lon="11.0786992"><ele>79.0</ele><time>2026-04-18T08:40:11.612Z</time></trkpt><trkpt lat="43.50711" lon="11.0785845"><ele>79.0</ele><time>2026-04-18T08:40:12.61Z</time></trkpt><trkpt lat="43.5070391" lon="11.078488"><ele>79.25</ele><time>2026-04-18T08:40:13.612Z</time></trkpt><trkpt lat="43.5069499" lon="11.0784028"><ele>79.5</ele><time>2026-04-18T08:40:14.601Z</time></trkpt><trkpt lat="43.5068423" lon="11.0783524"><ele>79.75</ele><time>2026-04-18T08:40:15.604Z</time></trkpt><trkpt lat="43.5067173" lon="11.0783117"><ele>80.0</ele><time>2026-04-18T08:40:16.619Z</time></trkpt><trkpt lat="43.5065776" lon="11.0782761"><ele>80.0</ele><time>2026-04-18T08:40:17.613Z</time></trkpt><trkpt lat="43.5064455" lon="11.0782508"><ele>80.0</ele><time>2026-04-18T08:40:18.615Z</time></trkpt><trkpt lat="43.5063441" lon="11.0782306"><ele>80.0</ele><time>2026-04-18T08:40:19.616Z</time></trkpt><trkpt lat="43.5062591" lon="11.0782179"><ele>80.0</ele><time>2026-04-18T08:40:20.615Z</time></trkpt><trkpt lat="43.5061848" lon="11.0782028"><ele>80.0</ele><time>2026-04-18T08:40:21.623Z</time></trkpt><trkpt lat="43.5060727" lon="11.0781335"><ele>81.0</ele><time>2026-04-18T08:40:23.614Z</time></trkpt><trkpt lat="43.50602" lon="11.0780776"><ele>82.0</ele><time>2026-04-18T08:40:24.617Z</time></trkpt><trkpt lat="43.5059876" lon="11.0779928"><ele>83.0</ele><time>2026-04-18T08:40:25.614Z</time></trkpt><trkpt lat="43.5059808" lon="11.0778761"><ele>84.0</ele><time>2026-04-18T08:40:26.615Z</time></trkpt><trkpt lat="43.5060064" lon="11.0777383"><ele>85.0</ele><time>2026-04-18T08:40:27.629Z</time></trkpt><trkpt lat="43.506052" lon="11.0776059"><ele>86.0</ele><time>2026-04-18T08:40:28.619Z</time></trkpt><trkpt lat="43.5061319" lon="11.0774769"><ele>85.8</ele><time>2026-04-18T08:40:29.621Z</time></trkpt><trkpt lat="43.5062206" lon="11.0773506"><ele>85.6</ele><time>2026-04-18T08:40:30.617Z</time></trkpt><trkpt lat="43.5062972" lon="11.07723"><ele>85.4</ele><time>2026-04-18T08:40:31.614Z</time></trkpt><trkpt lat="43.5063573" lon="11.0771357"><ele>85.2</ele><time>2026-04-18T08:40:32.616Z</time></trkpt><trkpt lat="43.5064126" lon="11.0770591"><ele>85.0</ele><time>2026-04-18T08:40:33.618Z</time></trkpt><trkpt lat="43.5064697" lon="11.0769867"><ele>85.0</ele><time>2026-04-18T08:40:34.623Z</time></trkpt><trkpt lat="43.5065154" lon="11.076911"><ele>85.0</ele><time>2026-04-18T08:40:35.616Z</time></trkpt><trkpt lat="43.5065433" lon="11.0768256"><ele>85.0</ele><time>2026-04-18T08:40:36.626Z</time></trkpt><trkpt lat="43.5065405" lon="11.0767256"><ele>85.0</ele><time>2026-04-18T08:40:37.614Z</time></trkpt><trkpt lat="43.5065333" lon="11.0766141"><ele>85.0</ele><time>2026-04-18T08:40:38.621Z</time></trkpt><trkpt lat="43.5065146" lon="11.0764958"><ele>85.0</ele><time>2026-04-18T08:40:39.626Z</time></trkpt><trkpt lat="43.5064891" lon="11.0763904"><ele>85.4</ele><time>2026-04-18T08:40:40.613Z</time></trkpt><trkpt lat="43.5064438" lon="11.0762671"><ele>85.8</ele><time>2026-04-18T08:40:41.62Z</time></trkpt><trkpt lat="43.5063898" lon="11.0761425"><ele>86.19999999999999</ele><time>2026-04-18T08:40:42.63Z</time></trkpt><trkpt lat="43.5063327" lon="11.0760129"><ele>86.6</ele><time>2026-04-18T08:40:43.631Z</time></trkpt><trkpt lat="43.5062686" lon="11.0758997"><ele>87.0</ele><time>2026-04-18T08:40:44.63Z</time></trkpt><trkpt lat="43.5062012" lon="11.0758112"><ele>88.0</ele><time>2026-04-18T08:40:45.628Z</time></trkpt><trkpt lat="43.506126" lon="11.0757484"><ele>89.0</ele><time>2026-04-18T08:40:46.632Z</time></trkpt><trkpt lat="43.5060473" lon="11.0756994"><ele>90.0</ele><time>2026-04-18T08:40:47.618Z</time></trkpt><trkpt lat="43.5059558" lon="11.0756546"><ele>91.0</ele><time>2026-04-18T08:40:48.615Z</time></trkpt><trkpt lat="43.5058506" lon="11.0756289"><ele>92.0</ele><time>2026-04-18T08:40:49.615Z</time></trkpt><trkpt lat="43.5057347" lon="11.0756165"><ele>92.0</ele><time>2026-04-18T08:40:50.621Z</time></trkpt><trkpt lat="43.5056028" lon="11.075601"><ele>92.0</ele><time>2026-04-18T08:40:51.625Z</time></trkpt><trkpt lat="43.5054676" lon="11.0755657"><ele>92.0</ele><time>2026-04-18T08:40:52.614Z</time></trkpt><trkpt lat="43.5053366" lon="11.075496"><ele>92.0</ele><time>2026-04-18T08:40:53.629Z</time></trkpt><trkpt lat="43.5052021" lon="11.0754325"><ele>95.25</ele><time>2026-04-18T08:40:54.621Z</time></trkpt><trkpt lat="43.5050711" lon="11.0753539"><ele>98.5</ele><time>2026-04-18T08:40:55.619Z</time></trkpt><trkpt lat="43.5049395" lon="11.0752626"><ele>101.75</ele><time>2026-04-18T08:40:56.621Z</time></trkpt><trkpt lat="43.5048125" lon="11.0751661"><ele>105.0</ele><time>2026-04-18T08:40:57.624Z</time></trkpt><trkpt lat="43.5046898" lon="11.0750553"><ele>105.33333333333334</ele><time>2026-04-18T08:40:58.633Z</time></trkpt><trkpt lat="43.5045826" lon="11.0749153"><ele>105.66666666666667</ele><time>2026-04-18T08:40:59.639Z</time></trkpt><trkpt lat="43.5044582" lon="11.0747793"><ele>106.0</ele><time>2026-04-18T08:41:00.643Z</time></trkpt><trkpt lat="43.5043367" lon="11.0746533"><ele>109.5</ele><time>2026-04-18T08:41:01.626Z</time></trkpt><trkpt lat="43.5042121" lon="11.0745273"><ele>113.0</ele><time>2026-04-18T08:41:02.63Z</time></trkpt><trkpt lat="43.5040983" lon="11.0744059"><ele>116.5</ele><time>2026-04-18T08:41:03.631Z</time></trkpt><trkpt lat="43.5039792" lon="11.0742783"><ele>120.0</ele><time>2026-04-18T08:41:04.619Z</time></trkpt><trkpt lat="43.5038432" lon="11.0741648"><ele>126.66666666666666</ele><time>2026-04-18T08:41:05.633Z</time></trkpt><trkpt lat="43.5037181" lon="11.0740309"><ele>133.33333333333331</ele><time>2026-04-18T08:41:06.632Z</time></trkpt><trkpt lat="43.5035873" lon="11.0739"><ele>140.0</ele><time>2026-04-18T08:41:07.648Z</time></trkpt><trkpt lat="43.5034428" lon="11.0737701"><ele>140.0</ele><time>2026-04-18T08:41:08.614Z</time></trkpt><trkpt lat="43.5033043" lon="11.0736574"><ele>140.0</ele><time>2026-04-18T08:41:09.613Z</time></trkpt><trkpt lat="43.5031674" lon="11.0735399"><ele>140.0</ele><time>2026-04-18T08:41:10.623Z</time></trkpt><trkpt lat="43.5030512" lon="11.0734136"><ele>140.0</ele><time>2026-04-18T08:41:11.621Z</time></trkpt><trkpt lat="43.5029455" lon="11.0732932"><ele>140.0</ele><time>2026-04-18T08:41:12.612Z</time></trkpt><trkpt lat="43.5028462" lon="11.0732302"><ele>140.0</ele><time>2026-04-18T08:41:13.625Z</time></trkpt><trkpt lat="43.5027508" lon="11.0731423"><ele>140.0</ele><time>2026-04-18T08:41:14.613Z</time></trkpt><trkpt lat="43.5026645" lon="11.0730379"><ele>143.25</ele><time>2026-04-18T08:41:15.615Z</time></trkpt><trkpt lat="43.5025818" lon="11.0729377"><ele>146.5</ele><time>2026-04-18T08:41:16.623Z</time></trkpt><trkpt lat="43.5024969" lon="11.0728266"><ele>149.75</ele><time>2026-04-18T08:41:17.61Z</time></trkpt><trkpt lat="43.50241" lon="11.0727199"><ele>153.0</ele><time>2026-04-18T08:41:18.621Z</time></trkpt><trkpt lat="43.5023159" lon="11.072631"><ele>153.0</ele><time>2026-04-18T08:41:19.61Z</time></trkpt><trkpt lat="43.5022141" lon="11.0725379"><ele>153.0</ele><time>2026-04-18T08:41:20.603Z</time></trkpt><trkpt lat="43.502112" lon="11.0724578"><ele>153.0</ele><time>2026-04-18T08:41:21.618Z</time></trkpt><trkpt lat="43.5020079" lon="11.0723783"><ele>153.0</ele><time>2026-04-18T08:41:22.614Z</time></trkpt><trkpt lat="43.5019111" lon="11.0722859"><ele>155.8</ele><time>2026-04-18T08:41:23.61Z</time></trkpt><trkpt lat="43.5018113" lon="11.0722047"><ele>158.60000000000002</ele><time>2026-04-18T08:41:24.61Z</time></trkpt><trkpt lat="43.5017218" lon="11.0721205"><ele>161.39999999999998</ele><time>2026-04-18T08:41:25.609Z</time></trkpt><trkpt lat="43.5016293" lon="11.07206"><ele>164.2</ele><time>2026-04-18T08:41:26.606Z</time></trkpt><trkpt lat="43.5015386" lon="11.0720061"><ele>167.0</ele><time>2026-04-18T08:41:27.605Z</time></trkpt><trkpt lat="43.5014646" lon="11.0719602"><ele>167.0</ele><time>2026-04-18T08:41:28.602Z</time></trkpt><trkpt lat="43.5014024" lon="11.071935"><ele>167.0</ele><time>2026-04-18T08:41:29.602Z</time></trkpt><trkpt lat="43.5013291" lon="11.0719441"><ele>167.0</ele><time>2026-04-18T08:41:31.617Z</time></trkpt><trkpt lat="43.5012388" lon="11.0719318"><ele>167.0</ele><time>2026-04-18T08:41:41.621Z</time></trkpt><trkpt lat="43.5011946" lon="11.0718369"><ele>167.0</ele><time>2026-04-18T08:41:43.634Z</time></trkpt><trkpt lat="43.5013052" lon="11.0717594"><ele>167.0</ele><time>2026-04-18T08:41:45.614Z</time></trkpt><trkpt lat="43.5013742" lon="11.0717688"><ele>167.0</ele><time>2026-04-18T08:41:46.623Z</time></trkpt><trkpt lat="43.5014491" lon="11.0717796"><ele>167.0</ele><time>2026-04-18T08:41:47.61Z</time></trkpt><trkpt lat="43.5015321" lon="11.0717973"><ele>167.0</ele><time>2026-04-18T08:41:48.614Z</time></trkpt><trkpt lat="43.5016258" lon="11.0718091"><ele>167.0</ele><time>2026-04-18T08:41:49.599Z</time></trkpt><trkpt lat="43.5017062" lon="11.071795"><ele>167.0</ele><time>2026-04-18T08:41:50.601Z</time></trkpt><trkpt lat="43.501778" lon="11.071762"><ele>167.0</ele><time>2026-04-18T08:41:51.617Z</time></trkpt><trkpt lat="43.5018441" lon="11.0716913"><ele>166.6</ele><time>2026-04-18T08:41:52.617Z</time></trkpt><trkpt lat="43.5019094" lon="11.0715877"><ele>166.2</ele><time>2026-04-18T08:41:53.618Z</time></trkpt><trkpt lat="43.5019827" lon="11.0714772"><ele>165.8</ele><time>2026-04-18T08:41:54.622Z</time></trkpt><trkpt lat="43.5020569" lon="11.0713962"><ele>165.4</ele><time>2026-04-18T08:41:55.624Z</time></trkpt><trkpt lat="43.5021158" lon="11.0713214"><ele>165.0</ele><time>2026-04-18T08:41:56.63Z</time></trkpt><trkpt lat="43.5021718" lon="11.0712477"><ele>166.83333333333334</ele><time>2026-04-18T08:41:57.629Z</time></trkpt><trkpt lat="43.5022195" lon="11.0711818"><ele>168.66666666666666</ele><time>2026-04-18T08:41:58.635Z</time></trkpt><trkpt lat="43.5023023" lon="11.0710639"><ele>170.5</ele><time>2026-04-18T08:42:00.64Z</time></trkpt><trkpt lat="43.5023403" lon="11.0709765"><ele>172.33333333333331</ele><time>2026-04-18T08:42:01.63Z</time></trkpt><trkpt lat="43.5023746" lon="11.0708722"><ele>174.16666666666666</ele><time>2026-04-18T08:42:02.628Z</time></trkpt><trkpt lat="43.5023886" lon="11.0707467"><ele>176.0</ele><time>2026-04-18T08:42:03.626Z</time></trkpt><trkpt lat="43.5024015" lon="11.0706162"><ele>176.4</ele><time>2026-04-18T08:42:04.62Z</time></trkpt><trkpt lat="43.5024186" lon="11.0704948"><ele>176.8</ele><time>2026-04-18T08:42:05.622Z</time></trkpt><trkpt lat="43.5024324" lon="11.0703783"><ele>177.20000000000002</ele><time>2026-04-18T08:42:06.62Z</time></trkpt><trkpt lat="43.5024366" lon="11.0702516"><ele>177.60000000000002</ele><time>2026-04-18T08:42:07.621Z</time></trkpt><trkpt lat="43.5024536" lon="11.0701241"><ele>178.0</ele><time>2026-04-18T08:42:08.627Z</time></trkpt><trkpt lat="43.5024714" lon="11.0700035"><ele>177.83333333333334</ele><time>2026-04-18T08:42:09.636Z</time></trkpt><trkpt lat="43.5024863" lon="11.0698898"><ele>177.66666666666669</ele><time>2026-04-18T08:42:10.624Z</time></trkpt><trkpt lat="43.5025049" lon="11.0697772"><ele>177.5</ele><time>2026-04-18T08:42:11.63Z</time></trkpt><trkpt lat="43.5025199" lon="11.0696584"><ele>177.33333333333334</ele><time>2026-04-18T08:42:12.629Z</time></trkpt><trkpt lat="43.502532" lon="11.0695386"><ele>177.16666666666666</ele><time>2026-04-18T08:42:13.63Z</time></trkpt><trkpt lat="43.5025428" lon="11.0694201"><ele>177.0</ele><time>2026-04-18T08:42:14.634Z</time></trkpt><trkpt lat="43.5025511" lon="11.0693091"><ele>177.0</ele><time>2026-04-18T08:42:15.634Z</time></trkpt><trkpt lat="43.5025611" lon="11.0691927"><ele>177.0</ele><time>2026-04-18T08:42:16.636Z</time></trkpt><trkpt lat="43.5025721" lon="11.0690922"><ele>177.0</ele><time>2026-04-18T08:42:17.632Z</time></trkpt><trkpt lat="43.5025826" lon="11.0689961"><ele>177.0</ele><time>2026-04-18T08:42:18.636Z</time></trkpt><trkpt lat="43.502598" lon="11.0688283"><ele>177.0</ele><time>2026-04-18T08:42:20.631Z</time></trkpt><trkpt lat="43.5025758" lon="11.0686688"><ele>176.66666666666666</ele><time>2026-04-18T08:42:22.633Z</time></trkpt><trkpt lat="43.5025424" lon="11.0685824"><ele>176.33333333333334</ele><time>2026-04-18T08:42:23.634Z</time></trkpt><trkpt lat="43.5024836" lon="11.0685018"><ele>176.0</ele><time>2026-04-18T08:42:24.631Z</time></trkpt><trkpt lat="43.5024136" lon="11.0684345"><ele>175.66666666666669</ele><time>2026-04-18T08:42:25.63Z</time></trkpt><trkpt lat="43.50234" lon="11.068383"><ele>175.33333333333334</ele><time>2026-04-18T08:42:26.633Z</time></trkpt><trkpt lat="43.5022529" lon="11.0683239"><ele>175.0</ele><time>2026-04-18T08:42:27.631Z</time></trkpt><trkpt lat="43.5021554" lon="11.0682411"><ele>173.5</ele><time>2026-04-18T08:42:28.642Z</time></trkpt><trkpt lat="43.5020543" lon="11.0681533"><ele>172.0</ele><time>2026-04-18T08:42:29.634Z</time></trkpt><trkpt lat="43.5019614" lon="11.0680653"><ele>170.5</ele><time>2026-04-18T08:42:30.64Z</time></trkpt><trkpt lat="43.5018614" lon="11.0679751"><ele>169.0</ele><time>2026-04-18T08:42:31.635Z</time></trkpt><trkpt lat="43.5017691" lon="11.0678993"><ele>169.0</ele><time>2026-04-18T08:42:32.632Z</time></trkpt><trkpt lat="43.5016845" lon="11.0678238"><ele>169.0</ele><time>2026-04-18T08:42:33.634Z</time></trkpt><trkpt lat="43.5015972" lon="11.0677498"><ele>169.0</ele><time>2026-04-18T08:42:34.632Z</time></trkpt><trkpt lat="43.5015132" lon="11.0676683"><ele>169.0</ele><time>2026-04-18T08:42:35.63Z</time></trkpt><trkpt lat="43.5014379" lon="11.0675774"><ele>169.0</ele><time>2026-04-18T08:42:36.628Z</time></trkpt><trkpt lat="43.5013676" lon="11.0674801"><ele>169.25</ele><time>2026-04-18T08:42:37.629Z</time></trkpt><trkpt lat="43.501302" lon="11.0673679"><ele>169.5</ele><time>2026-04-18T08:42:38.624Z</time></trkpt><trkpt lat="43.5012497" lon="11.0672365"><ele>169.75</ele><time>2026-04-18T08:42:39.624Z</time></trkpt><trkpt lat="43.5012086" lon="11.0670818"><ele>170.0</ele><time>2026-04-18T08:42:40.646Z</time></trkpt><trkpt lat="43.501173" lon="11.0668989"><ele>170.0</ele><time>2026-04-18T08:42:41.627Z</time></trkpt><trkpt lat="43.5011535" lon="11.0667209"><ele>170.0</ele><time>2026-04-18T08:42:42.63Z</time></trkpt><trkpt lat="43.5011537" lon="11.0665447"><ele>170.0</ele><time>2026-04-18T08:42:43.62Z</time></trkpt><trkpt lat="43.501157" lon="11.0663617"><ele>170.0</ele><time>2026-04-18T08:42:44.62Z</time></trkpt><trkpt lat="43.5011727" lon="11.0661776"><ele>170.25</ele><time>2026-04-18T08:42:45.629Z</time></trkpt><trkpt lat="43.5011969" lon="11.0659933"><ele>170.5</ele><time>2026-04-18T08:42:46.639Z</time></trkpt><trkpt lat="43.5012177" lon="11.06582"><ele>170.75</ele><time>2026-04-18T08:42:47.638Z</time></trkpt><trkpt lat="43.5012309" lon="11.0656559"><ele>171.0</ele><time>2026-04-18T08:42:48.63Z</time></trkpt><trkpt lat="43.5012314" lon="11.065491"><ele>171.75</ele><time>2026-04-18T08:42:49.627Z</time></trkpt><trkpt lat="43.5011965" lon="11.0653221"><ele>172.5</ele><time>2026-04-18T08:42:50.629Z</time></trkpt><trkpt lat="43.5011476" lon="11.0651457"><ele>173.25</ele><time>2026-04-18T08:42:51.634Z</time></trkpt><trkpt lat="43.5011003" lon="11.0649925"><ele>174.0</ele><time>2026-04-18T08:42:52.633Z</time></trkpt><trkpt lat="43.5010429" lon="11.0648109"><ele>174.5</ele><time>2026-04-18T08:42:53.624Z</time></trkpt><trkpt lat="43.500991" lon="11.0646658"><ele>175.0</ele><time>2026-04-18T08:42:54.643Z</time></trkpt><trkpt lat="43.5009483" lon="11.0645142"><ele>175.5</ele><time>2026-04-18T08:42:55.63Z</time></trkpt><trkpt lat="43.5009322" lon="11.0643694"><ele>176.0</ele><time>2026-04-18T08:42:56.625Z</time></trkpt><trkpt lat="43.500943" lon="11.0642073"><ele>176.60000000000002</ele><time>2026-04-18T08:42:57.638Z</time></trkpt><trkpt lat="43.5009487" lon="11.0640572"><ele>177.2</ele><time>2026-04-18T08:42:58.636Z</time></trkpt><trkpt lat="43.5009657" lon="11.0638986"><ele>177.8</ele><time>2026-04-18T08:42:59.633Z</time></trkpt><trkpt lat="43.5009705" lon="11.0637532"><ele>178.39999999999998</ele><time>2026-04-18T08:43:00.637Z</time></trkpt><trkpt lat="43.5009624" lon="11.0635939"><ele>179.0</ele><time>2026-04-18T08:43:01.626Z</time></trkpt><trkpt lat="43.500946" lon="11.0634168"><ele>178.75</ele><time>2026-04-18T08:43:02.632Z</time></trkpt><trkpt lat="43.5009329" lon="11.0632364"><ele>178.5</ele><time>2026-04-18T08:43:03.631Z</time></trkpt><trkpt lat="43.500933" lon="11.0630613"><ele>178.25</ele><time>2026-04-18T08:43:04.635Z</time></trkpt><trkpt lat="43.5009349" lon="11.0629085"><ele>178.0</ele><time>2026-04-18T08:43:05.638Z</time></trkpt><trkpt lat="43.5009319" lon="11.0627511"><ele>178.0</ele><time>2026-04-18T08:43:06.639Z</time></trkpt><trkpt lat="43.5009386" lon="11.0625878"><ele>178.0</ele><time>2026-04-18T08:43:07.64Z</time></trkpt><trkpt lat="43.5009585" lon="11.062426"><ele>178.0</ele><time>2026-04-18T08:43:08.641Z</time></trkpt><trkpt lat="43.5009815" lon="11.0622694"><ele>178.0</ele><time>2026-04-18T08:43:09.633Z</time></trkpt><trkpt lat="43.5010079" lon="11.0621393"><ele>177.8</ele><time>2026-04-18T08:43:10.641Z</time></trkpt><trkpt lat="43.5010306" lon="11.0620172"><ele>177.60000000000002</ele><time>2026-04-18T08:43:11.653Z</time></trkpt><trkpt lat="43.5010547" lon="11.0618937"><ele>177.39999999999998</ele><time>2026-04-18T08:43:12.637Z</time></trkpt><trkpt lat="43.5010863" lon="11.0617791"><ele>177.2</ele><time>2026-04-18T08:43:13.64Z</time></trkpt><trkpt lat="43.501111" lon="11.061656"><ele>177.0</ele><time>2026-04-18T08:43:14.636Z</time></trkpt><trkpt lat="43.5011353" lon="11.061534"><ele>177.0</ele><time>2026-04-18T08:43:15.633Z</time></trkpt><trkpt lat="43.5011578" lon="11.0614157"><ele>177.0</ele><time>2026-04-18T08:43:16.637Z</time></trkpt><trkpt lat="43.501184" lon="11.0612904"><ele>177.0</ele><time>2026-04-18T08:43:17.632Z</time></trkpt><trkpt lat="43.501201" lon="11.0611801"><ele>177.0</ele><time>2026-04-18T08:43:18.636Z</time></trkpt><trkpt lat="43.5012177" lon="11.0610776"><ele>177.0</ele><time>2026-04-18T08:43:19.632Z</time></trkpt><trkpt lat="43.5012256" lon="11.0609662"><ele>177.0</ele><time>2026-04-18T08:43:20.631Z</time></trkpt><trkpt lat="43.5012423" lon="11.0608393"><ele>176.0</ele><time>2026-04-18T08:43:21.624Z</time></trkpt><trkpt lat="43.5012502" lon="11.0607253"><ele>175.0</ele><time>2026-04-18T08:43:22.636Z</time></trkpt><trkpt lat="43.5012562" lon="11.0606317"><ele>174.0</ele><time>2026-04-18T08:43:23.634Z</time></trkpt><trkpt lat="43.5012964" lon="11.0604605"><ele>173.0</ele><time>2026-04-18T08:43:25.636Z</time></trkpt><trkpt lat="43.5013429" lon="11.0603635"><ele>172.0</ele><time>2026-04-18T08:43:26.626Z</time></trkpt><trkpt lat="43.5014179" lon="11.06027"><ele>172.0</ele><time>2026-04-18T08:43:27.624Z</time></trkpt><trkpt lat="43.5015014" lon="11.0601824"><ele>172.0</ele><time>2026-04-18T08:43:28.636Z</time></trkpt><trkpt lat="43.5015906" lon="11.0600925"><ele>172.0</ele><time>2026-04-18T08:43:29.632Z</time></trkpt><trkpt lat="43.5016748" lon="11.0599966"><ele>172.0</ele><time>2026-04-18T08:43:30.632Z</time></trkpt><trkpt lat="43.5017526" lon="11.0599043"><ele>172.0</ele><time>2026-04-18T08:43:31.62Z</time></trkpt><trkpt lat="43.5018228" lon="11.059834"><ele>171.83333333333334</ele><time>2026-04-18T08:43:32.62Z</time></trkpt><trkpt lat="43.5018749" lon="11.059781"><ele>171.66666666666669</ele><time>2026-04-18T08:43:33.622Z</time></trkpt><trkpt lat="43.5019645" lon="11.0597479"><ele>171.5</ele><time>2026-04-18T08:43:35.626Z</time></trkpt><trkpt lat="43.5020516" lon="11.0596815"><ele>171.33333333333334</ele><time>2026-04-18T08:43:37.627Z</time></trkpt><trkpt lat="43.5021054" lon="11.0596119"><ele>171.16666666666666</ele><time>2026-04-18T08:43:38.63Z</time></trkpt><trkpt lat="43.5022083" lon="11.0595327"><ele>171.0</ele><time>2026-04-18T08:43:40.627Z</time></trkpt><trkpt lat="43.5023082" lon="11.0594558"><ele>171.0</ele><time>2026-04-18T08:43:42.641Z</time></trkpt><trkpt lat="43.5023746" lon="11.0593513"><ele>171.0</ele><time>2026-04-18T08:43:44.626Z</time></trkpt><trkpt lat="43.502403" lon="11.0592717"><ele>171.0</ele><time>2026-04-18T08:43:45.631Z</time></trkpt><trkpt lat="43.5024221" lon="11.0591706"><ele>171.0</ele><time>2026-04-18T08:43:46.635Z</time></trkpt><trkpt lat="43.5024416" lon="11.0590461"><ele>171.0</ele><time>2026-04-18T08:43:47.63Z</time></trkpt><trkpt lat="43.5024436" lon="11.0589241"><ele>171.0</ele><time>2026-04-18T08:43:48.632Z</time></trkpt><trkpt lat="43.5024287" lon="11.058822"><ele>170.16666666666666</ele><time>2026-04-18T08:43:49.631Z</time></trkpt><trkpt lat="43.502406" lon="11.0587367"><ele>169.33333333333334</ele><time>2026-04-18T08:43:50.632Z</time></trkpt><trkpt lat="43.5023788" lon="11.0586434"><ele>168.5</ele><time>2026-04-18T08:43:51.631Z</time></trkpt><trkpt lat="43.5023514" lon="11.0585386"><ele>167.66666666666669</ele><time>2026-04-18T08:43:52.63Z</time></trkpt><trkpt lat="43.5023236" lon="11.0584249"><ele>166.83333333333334</ele><time>2026-04-18T08:43:53.624Z</time></trkpt><trkpt lat="43.502299" lon="11.0583182"><ele>166.0</ele><time>2026-04-18T08:43:54.623Z</time></trkpt><trkpt lat="43.5022769" lon="11.0582102"><ele>166.0</ele><time>2026-04-18T08:43:55.624Z</time></trkpt><trkpt lat="43.5022589" lon="11.0580948"><ele>166.0</ele><time>2026-04-18T08:43:56.624Z</time></trkpt><trkpt lat="43.5022385" lon="11.0579744"><ele>166.0</ele><time>2026-04-18T08:43:57.624Z</time></trkpt><trkpt lat="43.5022205" lon="11.0578637"><ele>166.0</ele><time>2026-04-18T08:43:58.631Z</time></trkpt><trkpt lat="43.5022058" lon="11.0577738"><ele>166.0</ele><time>2026-04-18T08:43:59.625Z</time></trkpt><trkpt lat="43.5021795" lon="11.0576875"><ele>166.0</ele><time>2026-04-18T08:44:00.629Z</time></trkpt><trkpt lat="43.5021464" lon="11.0575962"><ele>166.0</ele><time>2026-04-18T08:44:01.625Z</time></trkpt><trkpt lat="43.502124" lon="11.0575108"><ele>166.0</ele><time>2026-04-18T08:44:02.624Z</time></trkpt><trkpt lat="43.5021254" lon="11.05742"><ele>166.0</ele><time>2026-04-18T08:44:03.621Z</time></trkpt><trkpt lat="43.5021434" lon="11.0573231"><ele>166.0</ele><time>2026-04-18T08:44:04.626Z</time></trkpt><trkpt lat="43.5021688" lon="11.0572198"><ele>166.0</ele><time>2026-04-18T08:44:05.623Z</time></trkpt><trkpt lat="43.5021937" lon="11.0571023"><ele>166.0</ele><time>2026-04-18T08:44:06.622Z</time></trkpt><trkpt lat="43.5022302" lon="11.0569924"><ele>166.5</ele><time>2026-04-18T08:44:07.618Z</time></trkpt><trkpt lat="43.502262" lon="11.0568791"><ele>167.0</ele><time>2026-04-18T08:44:08.621Z</time></trkpt><trkpt lat="43.5023046" lon="11.0567718"><ele>167.5</ele><time>2026-04-18T08:44:09.622Z</time></trkpt><trkpt lat="43.5023495" lon="11.0566859"><ele>168.0</ele><time>2026-04-18T08:44:10.618Z</time></trkpt><trkpt lat="43.50239" lon="11.0565879"><ele>168.5</ele><time>2026-04-18T08:44:11.628Z</time></trkpt><trkpt lat="43.5024063" lon="11.0564842"><ele>169.0</ele><time>2026-04-18T08:44:12.623Z</time></trkpt><trkpt lat="43.5023924" lon="11.0563777"><ele>168.79999999999998</ele><time>2026-04-18T08:44:13.636Z</time></trkpt><trkpt lat="43.5023681" lon="11.0562734"><ele>168.6</ele><time>2026-04-18T08:44:14.621Z</time></trkpt><trkpt lat="43.502339" lon="11.0561779"><ele>168.4</ele><time>2026-04-18T08:44:15.62Z</time></trkpt><trkpt lat="43.5023181" lon="11.0560876"><ele>168.2</ele><time>2026-04-18T08:44:16.627Z</time></trkpt><trkpt lat="43.5023083" lon="11.055929"><ele>168.0</ele><time>2026-04-18T08:44:18.636Z</time></trkpt><trkpt lat="43.5022934" lon="11.0557749"><ele>168.0</ele><time>2026-04-18T08:44:20.634Z</time></trkpt><trkpt lat="43.502271" lon="11.055643"><ele>168.0</ele><time>2026-04-18T08:44:22.638Z</time></trkpt><trkpt lat="43.5023167" lon="11.0554745"><ele>168.0</ele><time>2026-04-18T08:44:24.635Z</time></trkpt><trkpt lat="43.5023478" lon="11.0553781"><ele>168.0</ele><time>2026-04-18T08:44:25.637Z</time></trkpt><trkpt lat="43.5023771" lon="11.0552878"><ele>168.0</ele><time>2026-04-18T08:44:26.637Z</time></trkpt><trkpt lat="43.5023978" lon="11.0551923"><ele>168.0</ele><time>2026-04-18T08:44:27.635Z</time></trkpt><trkpt lat="43.5024207" lon="11.0551074"><ele>168.0</ele><time>2026-04-18T08:44:28.634Z</time></trkpt><trkpt lat="43.5024498" lon="11.0550242"><ele>168.0</ele><time>2026-04-18T08:44:29.634Z</time></trkpt><trkpt lat="43.5024832" lon="11.0549485"><ele>168.0</ele><time>2026-04-18T08:44:30.631Z</time></trkpt><trkpt lat="43.502537" lon="11.0548448"><ele>168.0</ele><time>2026-04-18T08:44:31.629Z</time></trkpt><trkpt lat="43.5025918" lon="11.0547341"><ele>168.0</ele><time>2026-04-18T08:44:32.63Z</time></trkpt><trkpt lat="43.5026435" lon="11.0546254"><ele>168.0</ele><time>2026-04-18T08:44:33.638Z</time></trkpt><trkpt lat="43.5026959" lon="11.0545256"><ele>167.0</ele><time>2026-04-18T08:44:34.624Z</time></trkpt><trkpt lat="43.5027256" lon="11.0544325"><ele>166.0</ele><time>2026-04-18T08:44:35.641Z</time></trkpt><trkpt lat="43.5027463" lon="11.0543469"><ele>165.0</ele><time>2026-04-18T08:44:36.637Z</time></trkpt><trkpt lat="43.5028177" lon="11.0542074"><ele>164.0</ele><time>2026-04-18T08:44:38.638Z</time></trkpt><trkpt lat="43.5028838" lon="11.0541453"><ele>163.0</ele><time>2026-04-18T08:44:39.629Z</time></trkpt><trkpt lat="43.5029641" lon="11.0540911"><ele>162.0</ele><time>2026-04-18T08:44:40.636Z</time></trkpt><trkpt lat="43.5030675" lon="11.0540372"><ele>161.4</ele><time>2026-04-18T08:44:41.637Z</time></trkpt><trkpt lat="43.5031621" lon="11.0539807"><ele>160.79999999999998</ele><time>2026-04-18T08:44:42.638Z</time></trkpt><trkpt lat="43.5032424" lon="11.0539327"><ele>160.2</ele><time>2026-04-18T08:44:43.639Z</time></trkpt><trkpt lat="43.5033317" lon="11.0538845"><ele>159.6</ele><time>2026-04-18T08:44:44.651Z</time></trkpt><trkpt lat="43.5034139" lon="11.0538268"><ele>159.0</ele><time>2026-04-18T08:44:45.63Z</time></trkpt><trkpt lat="43.5034894" lon="11.0537639"><ele>159.0</ele><time>2026-04-18T08:44:46.629Z</time></trkpt><trkpt lat="43.5035622" lon="11.0536706"><ele>159.0</ele><time>2026-04-18T08:44:47.623Z</time></trkpt><trkpt lat="43.5036393" lon="11.0535508"><ele>159.0</ele><time>2026-04-18T08:44:48.634Z</time></trkpt><trkpt lat="43.5037074" lon="11.053416"><ele>159.0</ele><time>2026-04-18T08:44:49.64Z</time></trkpt><trkpt lat="43.5037784" lon="11.0532838"><ele>161.0</ele><time>2026-04-18T08:44:50.636Z</time></trkpt><trkpt lat="43.5038443" lon="11.0531389"><ele>163.0</ele><time>2026-04-18T08:44:51.641Z</time></trkpt><trkpt lat="43.5039042" lon="11.0529918"><ele>165.0</ele><time>2026-04-18T08:44:52.639Z</time></trkpt><trkpt lat="43.5039487" lon="11.0528491"><ele>167.0</ele><time>2026-04-18T08:44:53.625Z</time></trkpt><trkpt lat="43.5039804" lon="11.0526941"><ele>167.0</ele><time>2026-04-18T08:44:54.628Z</time></trkpt><trkpt lat="43.5040078" lon="11.0525518"><ele>167.0</ele><time>2026-04-18T08:44:55.628Z</time></trkpt><trkpt lat="43.5040386" lon="11.0524123"><ele>167.0</ele><time>2026-04-18T08:44:56.626Z</time></trkpt><trkpt lat="43.5040577" lon="11.0522719"><ele>167.0</ele><time>2026-04-18T08:44:57.624Z</time></trkpt><trkpt lat="43.5040616" lon="11.0521175"><ele>167.0</ele><time>2026-04-18T08:44:58.629Z</time></trkpt><trkpt lat="43.5040484" lon="11.0519648"><ele>165.25</ele><time>2026-04-18T08:44:59.611Z</time></trkpt><trkpt lat="43.5040487" lon="11.0518284"><ele>163.5</ele><time>2026-04-18T08:45:00.613Z</time></trkpt><trkpt lat="43.5040543" lon="11.0517087"><ele>161.75</ele><time>2026-04-18T08:45:01.61Z</time></trkpt><trkpt lat="43.5040635" lon="11.0515802"><ele>160.0</ele><time>2026-04-18T08:45:02.8Z</time></trkpt><trkpt lat="43.5040444" lon="11.0512912"><ele>158.5</ele><time>2026-04-18T08:45:04.61Z</time></trkpt><trkpt lat="43.5040033" lon="11.05114"><ele>157.0</ele><time>2026-04-18T08:45:05.617Z</time></trkpt><trkpt lat="43.5039324" lon="11.0510038"><ele>155.5</ele><time>2026-04-18T08:45:06.623Z</time></trkpt><trkpt lat="43.5038578" lon="11.0508603"><ele>154.0</ele><time>2026-04-18T08:45:07.611Z</time></trkpt><trkpt lat="43.5038004" lon="11.0507062"><ele>154.75</ele><time>2026-04-18T08:45:08.62Z</time></trkpt><trkpt lat="43.5037595" lon="11.0505374"><ele>155.5</ele><time>2026-04-18T08:45:09.626Z</time></trkpt><trkpt lat="43.5037318" lon="11.0503566"><ele>156.25</ele><time>2026-04-18T08:45:10.631Z</time></trkpt><trkpt lat="43.5036986" lon="11.0501612"><ele>157.0</ele><time>2026-04-18T08:45:11.628Z</time></trkpt><trkpt lat="43.5036596" lon="11.049963"><ele>158.0</ele><time>2026-04-18T08:45:12.628Z</time></trkpt><trkpt lat="43.5036296" lon="11.0498"><ele>159.0</ele><time>2026-04-18T08:45:13.63Z</time></trkpt><trkpt lat="43.5036088" lon="11.0496521"><ele>160.0</ele><time>2026-04-18T08:45:14.63Z</time></trkpt><trkpt lat="43.5035814" lon="11.0494956"><ele>161.0</ele><time>2026-04-18T08:45:15.649Z</time></trkpt><trkpt lat="43.5035489" lon="11.0493377"><ele>161.0</ele><time>2026-04-18T08:45:16.643Z</time></trkpt><trkpt lat="43.503501" lon="11.0491851"><ele>161.0</ele><time>2026-04-18T08:45:17.636Z</time></trkpt><trkpt lat="43.503429" lon="11.0490335"><ele>161.0</ele><time>2026-04-18T08:45:18.625Z</time></trkpt><trkpt lat="43.5033502" lon="11.0488867"><ele>161.0</ele><time>2026-04-18T08:45:19.629Z</time></trkpt><trkpt lat="43.5032674" lon="11.048749"><ele>162.4</ele><time>2026-04-18T08:45:20.625Z</time></trkpt><trkpt lat="43.5031823" lon="11.0486361"><ele>163.8</ele><time>2026-04-18T08:45:21.622Z</time></trkpt><trkpt lat="43.5030932" lon="11.0485607"><ele>165.20000000000002</ele><time>2026-04-18T08:45:22.629Z</time></trkpt><trkpt lat="43.5030187" lon="11.0485089"><ele>166.60000000000002</ele><time>2026-04-18T08:45:23.62Z</time></trkpt><trkpt lat="43.5029456" lon="11.0484099"><ele>168.0</ele><time>2026-04-18T08:45:25.622Z</time></trkpt><trkpt lat="43.5029624" lon="11.0483207"><ele>167.5</ele><time>2026-04-18T08:45:27.629Z</time></trkpt><trkpt lat="43.5029231" lon="11.0482283"><ele>167.0</ele><time>2026-04-18T08:46:26.625Z</time></trkpt><trkpt lat="43.5027921" lon="11.0481573"><ele>166.5</ele><time>2026-04-18T08:46:28.642Z</time></trkpt><trkpt lat="43.5026731" lon="11.0481021"><ele>166.0</ele><time>2026-04-18T08:46:29.624Z</time></trkpt><trkpt lat="43.5025357" lon="11.0480376"><ele>166.0</ele><time>2026-04-18T08:46:30.634Z</time></trkpt><trkpt lat="43.5023855" lon="11.0479682"><ele>166.0</ele><time>2026-04-18T08:46:31.633Z</time></trkpt><trkpt lat="43.5022337" lon="11.0479102"><ele>166.0</ele><time>2026-04-18T08:46:32.622Z</time></trkpt><trkpt lat="43.5021071" lon="11.0478241"><ele>166.5</ele><time>2026-04-18T08:46:33.623Z</time></trkpt><trkpt lat="43.5020273" lon="11.047702"><ele>167.0</ele><time>2026-04-18T08:46:34.634Z</time></trkpt><trkpt lat="43.5019442" lon="11.0475299"><ele>167.5</ele><time>2026-04-18T08:46:35.621Z</time></trkpt><trkpt lat="43.5018925" lon="11.0473321"><ele>168.0</ele><time>2026-04-18T08:46:36.625Z</time></trkpt><trkpt lat="43.5018444" lon="11.047109"><ele>168.0</ele><time>2026-04-18T08:46:37.627Z</time></trkpt><trkpt lat="43.5017903" lon="11.0469037"><ele>168.0</ele><time>2026-04-18T08:46:38.624Z</time></trkpt><trkpt lat="43.5017389" lon="11.0467208"><ele>168.0</ele><time>2026-04-18T08:46:39.616Z</time></trkpt><trkpt lat="43.5016951" lon="11.0465635"><ele>168.0</ele><time>2026-04-18T08:46:40.618Z</time></trkpt><trkpt lat="43.5016579" lon="11.0464203"><ele>167.4</ele><time>2026-04-18T08:46:41.624Z</time></trkpt><trkpt lat="43.5016106" lon="11.0462953"><ele>166.8</ele><time>2026-04-18T08:46:42.626Z</time></trkpt><trkpt lat="43.5015597" lon="11.0461849"><ele>166.2</ele><time>2026-04-18T08:46:43.618Z</time></trkpt><trkpt lat="43.5014806" lon="11.0460953"><ele>165.6</ele><time>2026-04-18T08:46:44.627Z</time></trkpt><trkpt lat="43.5013468" lon="11.0460751"><ele>165.0</ele><time>2026-04-18T08:46:45.615Z</time></trkpt><trkpt lat="43.5011993" lon="11.0460541"><ele>165.0</ele><time>2026-04-18T08:46:46.611Z</time></trkpt><trkpt lat="43.5010712" lon="11.0460414"><ele>165.0</ele><time>2026-04-18T08:46:47.617Z</time></trkpt><trkpt lat="43.5009523" lon="11.0460195"><ele>165.0</ele><time>2026-04-18T08:46:48.638Z</time></trkpt><trkpt lat="43.5008173" lon="11.045983"><ele>165.0</ele><time>2026-04-18T08:46:49.626Z</time></trkpt><trkpt lat="43.5006589" lon="11.0459288"><ele>165.0</ele><time>2026-04-18T08:46:50.616Z</time></trkpt><trkpt lat="43.5005364" lon="11.0458591"><ele>165.0</ele><time>2026-04-18T08:46:51.61Z</time></trkpt><trkpt lat="43.5004293" lon="11.0457692"><ele>165.0</ele><time>2026-04-18T08:46:52.615Z</time></trkpt><trkpt lat="43.5003665" lon="11.0456541"><ele>165.0</ele><time>2026-04-18T08:46:53.627Z</time></trkpt><trkpt lat="43.5002832" lon="11.0455369"><ele>166.6</ele><time>2026-04-18T08:46:54.631Z</time></trkpt><trkpt lat="43.5002201" lon="11.0454219"><ele>168.2</ele><time>2026-04-18T08:46:55.631Z</time></trkpt><trkpt lat="43.5001726" lon="11.0452992"><ele>169.8</ele><time>2026-04-18T08:46:56.627Z</time></trkpt><trkpt lat="43.5001321" lon="11.0451652"><ele>171.4</ele><time>2026-04-18T08:46:57.63Z</time></trkpt><trkpt lat="43.5000932" lon="11.0450353"><ele>173.0</ele><time>2026-04-18T08:46:58.631Z</time></trkpt><trkpt lat="43.5000565" lon="11.0448937"><ele>173.8</ele><time>2026-04-18T08:46:59.624Z</time></trkpt><trkpt lat="43.5000314" lon="11.0447327"><ele>174.60000000000002</ele><time>2026-04-18T08:47:00.629Z</time></trkpt><trkpt lat="43.5000094" lon="11.0445784"><ele>175.39999999999998</ele><time>2026-04-18T08:47:01.624Z</time></trkpt><trkpt lat="43.4999914" lon="11.0444486"><ele>176.2</ele><time>2026-04-18T08:47:02.629Z</time></trkpt><trkpt lat="43.4999734" lon="11.0443216"><ele>177.0</ele><time>2026-04-18T08:47:03.63Z</time></trkpt><trkpt lat="43.4999502" lon="11.0441833"><ele>177.25</ele><time>2026-04-18T08:47:04.627Z</time></trkpt><trkpt lat="43.4999232" lon="11.0440221"><ele>177.5</ele><time>2026-04-18T08:47:05.623Z</time></trkpt><trkpt lat="43.4998981" lon="11.0438455"><ele>177.75</ele><time>2026-04-18T08:47:06.625Z</time></trkpt><trkpt lat="43.4998754" lon="11.0436723"><ele>178.0</ele><time>2026-04-18T08:47:07.62Z</time></trkpt><trkpt lat="43.4998421" lon="11.0434725"><ele>177.5</ele><time>2026-04-18T08:47:08.628Z</time></trkpt><trkpt lat="43.4997979" lon="11.0432702"><ele>177.0</ele><time>2026-04-18T08:47:09.622Z</time></trkpt><trkpt lat="43.4997543" lon="11.0430815"><ele>176.5</ele><time>2026-04-18T08:47:10.622Z</time></trkpt><trkpt lat="43.4997157" lon="11.0429136"><ele>176.0</ele><time>2026-04-18T08:47:11.616Z</time></trkpt><trkpt lat="43.4996825" lon="11.0427753"><ele>176.0</ele><time>2026-04-18T08:47:12.627Z</time></trkpt><trkpt lat="43.4996552" lon="11.0426089"><ele>176.0</ele><time>2026-04-18T08:47:13.629Z</time></trkpt><trkpt lat="43.4996165" lon="11.0424209"><ele>176.0</ele><time>2026-04-18T08:47:14.632Z</time></trkpt><trkpt lat="43.4995795" lon="11.0422464"><ele>176.0</ele><time>2026-04-18T08:47:15.63Z</time></trkpt><trkpt lat="43.4995458" lon="11.0420788"><ele>177.60000000000002</ele><time>2026-04-18T08:47:16.63Z</time></trkpt><trkpt lat="43.4994907" lon="11.0419295"><ele>179.2</ele><time>2026-04-18T08:47:17.616Z</time></trkpt><trkpt lat="43.4994256" lon="11.0418138"><ele>180.8</ele><time>2026-04-18T08:47:18.624Z</time></trkpt><trkpt lat="43.4993434" lon="11.0417278"><ele>182.39999999999998</ele><time>2026-04-18T08:47:19.64Z</time></trkpt><trkpt lat="43.4992525" lon="11.0416678"><ele>184.0</ele><time>2026-04-18T08:47:20.618Z</time></trkpt><trkpt lat="43.4991594" lon="11.0416373"><ele>183.66666666666669</ele><time>2026-04-18T08:47:21.612Z</time></trkpt><trkpt lat="43.4990728" lon="11.0416262"><ele>183.33333333333334</ele><time>2026-04-18T08:47:22.617Z</time></trkpt><trkpt lat="43.4989809" lon="11.0416099"><ele>183.0</ele><time>2026-04-18T08:47:23.61Z</time></trkpt><trkpt lat="43.4988868" lon="11.0415919"><ele>182.66666666666666</ele><time>2026-04-18T08:47:24.609Z</time></trkpt><trkpt lat="43.4988031" lon="11.0415956"><ele>182.33333333333331</ele><time>2026-04-18T08:47:25.616Z</time></trkpt><trkpt lat="43.4987237" lon="11.0415828"><ele>182.0</ele><time>2026-04-18T08:47:26.607Z</time></trkpt><trkpt lat="43.4986603" lon="11.0415638"><ele>182.0</ele><time>2026-04-18T08:47:27.613Z</time></trkpt><trkpt lat="43.4985974" lon="11.0415359"><ele>182.0</ele><time>2026-04-18T08:47:28.611Z</time></trkpt><trkpt lat="43.4984745" lon="11.0414724"><ele>182.0</ele><time>2026-04-18T08:47:30.612Z</time></trkpt><trkpt lat="43.4983541" lon="11.0414543"><ele>182.0</ele><time>2026-04-18T08:47:32.611Z</time></trkpt><trkpt lat="43.4982477" lon="11.0414363"><ele>182.0</ele><time>2026-04-18T08:47:34.605Z</time></trkpt><trkpt lat="43.4981277" lon="11.0413579"><ele>182.0</ele><time>2026-04-18T08:47:36.615Z</time></trkpt><trkpt lat="43.4980573" lon="11.0413147"><ele>182.0</ele><time>2026-04-18T08:47:37.613Z</time></trkpt><trkpt lat="43.4979981" lon="11.0412813"><ele>182.0</ele><time>2026-04-18T08:47:38.615Z</time></trkpt><trkpt lat="43.4979354" lon="11.0412575"><ele>182.0</ele><time>2026-04-18T08:47:39.622Z</time></trkpt><trkpt lat="43.4978723" lon="11.0412224"><ele>182.0</ele><time>2026-04-18T08:47:40.618Z</time></trkpt><trkpt lat="43.4978029" lon="11.0411912"><ele>182.0</ele><time>2026-04-18T08:47:41.615Z</time></trkpt><trkpt lat="43.4977213" lon="11.0411595"><ele>182.0</ele><time>2026-04-18T08:47:42.618Z</time></trkpt><trkpt lat="43.4976489" lon="11.0411151"><ele>181.0</ele><time>2026-04-18T08:47:43.621Z</time></trkpt><trkpt lat="43.497583" lon="11.0410721"><ele>180.0</ele><time>2026-04-18T08:47:44.617Z</time></trkpt><trkpt lat="43.4975109" lon="11.0410297"><ele>179.0</ele><time>2026-04-18T08:47:45.621Z</time></trkpt><trkpt lat="43.4974313" lon="11.0409871"><ele>178.0</ele><time>2026-04-18T08:47:46.621Z</time></trkpt><trkpt lat="43.4973556" lon="11.0409377"><ele>177.0</ele><time>2026-04-18T08:47:47.62Z</time></trkpt><trkpt lat="43.4972782" lon="11.040894"><ele>176.0</ele><time>2026-04-18T08:47:48.614Z</time></trkpt><trkpt lat="43.4972099" lon="11.0408501"><ele>176.16666666666666</ele><time>2026-04-18T08:47:49.62Z</time></trkpt><trkpt lat="43.4971548" lon="11.0407993"><ele>176.33333333333331</ele><time>2026-04-18T08:47:50.633Z</time></trkpt><trkpt lat="43.497096" lon="11.0407313"><ele>176.5</ele><time>2026-04-18T08:47:51.624Z</time></trkpt><trkpt lat="43.4970452" lon="11.0406318"><ele>176.66666666666666</ele><time>2026-04-18T08:47:52.615Z</time></trkpt><trkpt lat="43.497005" lon="11.0405175"><ele>176.83333333333334</ele><time>2026-04-18T08:47:53.625Z</time></trkpt><trkpt lat="43.4969791" lon="11.0403881"><ele>177.0</ele><time>2026-04-18T08:47:54.626Z</time></trkpt><trkpt lat="43.4969497" lon="11.040252"><ele>177.0</ele><time>2026-04-18T08:47:55.623Z</time></trkpt><trkpt lat="43.4968941" lon="11.0401266"><ele>177.0</ele><time>2026-04-18T08:47:56.628Z</time></trkpt><trkpt lat="43.4968318" lon="11.0400212"><ele>177.0</ele><time>2026-04-18T08:47:57.625Z</time></trkpt><trkpt lat="43.4967603" lon="11.039943"><ele>177.0</ele><time>2026-04-18T08:47:58.626Z</time></trkpt><trkpt lat="43.4967087" lon="11.0398784"><ele>177.0</ele><time>2026-04-18T08:47:59.628Z</time></trkpt><trkpt lat="43.4966537" lon="11.039802"><ele>177.0</ele><time>2026-04-18T08:48:00.636Z</time></trkpt><trkpt lat="43.4965931" lon="11.0397329"><ele>176.2</ele><time>2026-04-18T08:48:01.632Z</time></trkpt><trkpt lat="43.496534" lon="11.0396628"><ele>175.39999999999998</ele><time>2026-04-18T08:48:02.631Z</time></trkpt><trkpt lat="43.4964723" lon="11.0395891"><ele>174.60000000000002</ele><time>2026-04-18T08:48:03.628Z</time></trkpt><trkpt lat="43.4964059" lon="11.0394877"><ele>173.8</ele><time>2026-04-18T08:48:04.63Z</time></trkpt><trkpt lat="43.4963546" lon="11.0393766"><ele>173.0</ele><time>2026-04-18T08:48:05.631Z</time></trkpt><trkpt lat="43.4963044" lon="11.0392543"><ele>173.0</ele><time>2026-04-18T08:48:06.639Z</time></trkpt><trkpt lat="43.4962649" lon="11.0391368"><ele>173.0</ele><time>2026-04-18T08:48:07.634Z</time></trkpt><trkpt lat="43.4962192" lon="11.0390376"><ele>173.0</ele><time>2026-04-18T08:48:08.629Z</time></trkpt><trkpt lat="43.4961639" lon="11.0389389"><ele>173.0</ele><time>2026-04-18T08:48:09.627Z</time></trkpt><trkpt lat="43.4961119" lon="11.0388386"><ele>173.0</ele><time>2026-04-18T08:48:10.628Z</time></trkpt><trkpt lat="43.4960812" lon="11.0387158"><ele>173.0</ele><time>2026-04-18T08:48:11.621Z</time></trkpt><trkpt lat="43.4960722" lon="11.0385957"><ele>173.0</ele><time>2026-04-18T08:48:12.623Z</time></trkpt><trkpt lat="43.4960728" lon="11.0384717"><ele>173.0</ele><time>2026-04-18T08:48:13.62Z</time></trkpt><trkpt lat="43.4960833" lon="11.0383377"><ele>173.0</ele><time>2026-04-18T08:48:14.616Z</time></trkpt><trkpt lat="43.4961045" lon="11.0381829"><ele>173.0</ele><time>2026-04-18T08:48:15.613Z</time></trkpt><trkpt lat="43.4961166" lon="11.0380262"><ele>172.5</ele><time>2026-04-18T08:48:16.611Z</time></trkpt><trkpt lat="43.4961296" lon="11.037855"><ele>172.0</ele><time>2026-04-18T08:48:17.613Z</time></trkpt><trkpt lat="43.4961352" lon="11.0376752"><ele>171.5</ele><time>2026-04-18T08:48:18.618Z</time></trkpt><trkpt lat="43.4961453" lon="11.0374927"><ele>171.0</ele><time>2026-04-18T08:48:19.619Z</time></trkpt><trkpt lat="43.4961617" lon="11.0373216"><ele>172.0</ele><time>2026-04-18T08:48:20.622Z</time></trkpt><trkpt lat="43.4961684" lon="11.0371561"><ele>173.0</ele><time>2026-04-18T08:48:21.635Z</time></trkpt><trkpt lat="43.4961732" lon="11.0369903"><ele>174.0</ele><time>2026-04-18T08:48:22.619Z</time></trkpt><trkpt lat="43.496174" lon="11.0368189"><ele>175.0</ele><time>2026-04-18T08:48:23.617Z</time></trkpt><trkpt lat="43.4961653" lon="11.0366428"><ele>176.0</ele><time>2026-04-18T08:48:24.61Z</time></trkpt><trkpt lat="43.4961485" lon="11.0364729"><ele>177.0</ele><time>2026-04-18T08:48:25.596Z</time></trkpt><trkpt lat="43.4961269" lon="11.0363287"><ele>178.0</ele><time>2026-04-18T08:48:26.608Z</time></trkpt><trkpt lat="43.4961027" lon="11.0361969"><ele>179.0</ele><time>2026-04-18T08:48:27.611Z</time></trkpt><trkpt lat="43.4960794" lon="11.0360761"><ele>180.0</ele><time>2026-04-18T08:48:28.611Z</time></trkpt><trkpt lat="43.4960647" lon="11.0359428"><ele>179.4</ele><time>2026-04-18T08:48:29.616Z</time></trkpt><trkpt lat="43.4960432" lon="11.0357994"><ele>178.8</ele><time>2026-04-18T08:48:30.608Z</time></trkpt><trkpt lat="43.496015" lon="11.0356554"><ele>178.2</ele><time>2026-04-18T08:48:31.613Z</time></trkpt><trkpt lat="43.4959588" lon="11.0355258"><ele>177.6</ele><time>2026-04-18T08:48:32.608Z</time></trkpt><trkpt lat="43.4958995" lon="11.035386"><ele>177.0</ele><time>2026-04-18T08:48:33.609Z</time></trkpt><trkpt lat="43.4958491" lon="11.0352689"><ele>177.0</ele><time>2026-04-18T08:48:34.61Z</time></trkpt><trkpt lat="43.4958074" lon="11.0351664"><ele>177.0</ele><time>2026-04-18T08:48:35.596Z</time></trkpt><trkpt lat="43.4957743" lon="11.0350747"><ele>177.0</ele><time>2026-04-18T08:48:36.607Z</time></trkpt><trkpt lat="43.495744" lon="11.0349849"><ele>177.0</ele><time>2026-04-18T08:48:37.608Z</time></trkpt><trkpt lat="43.4957196" lon="11.0348705"><ele>177.0</ele><time>2026-04-18T08:48:38.614Z</time></trkpt><trkpt lat="43.495693" lon="11.0347255"><ele>177.0</ele><time>2026-04-18T08:48:39.618Z</time></trkpt><trkpt lat="43.4956626" lon="11.0345618"><ele>176.75</ele><time>2026-04-18T08:48:40.632Z</time></trkpt><trkpt lat="43.495638" lon="11.0343923"><ele>176.5</ele><time>2026-04-18T08:48:41.634Z</time></trkpt><trkpt lat="43.4956104" lon="11.0342287"><ele>176.25</ele><time>2026-04-18T08:48:42.632Z</time></trkpt><trkpt lat="43.4955813" lon="11.0340724"><ele>176.0</ele><time>2026-04-18T08:48:43.635Z</time></trkpt><trkpt lat="43.4955555" lon="11.0339073"><ele>176.75</ele><time>2026-04-18T08:48:44.633Z</time></trkpt><trkpt lat="43.4955349" lon="11.0337304"><ele>177.5</ele><time>2026-04-18T08:48:45.637Z</time></trkpt><trkpt lat="43.4955064" lon="11.0335659"><ele>178.25</ele><time>2026-04-18T08:48:46.641Z</time></trkpt><trkpt lat="43.4954826" lon="11.0334059"><ele>179.0</ele><time>2026-04-18T08:48:47.633Z</time></trkpt><trkpt lat="43.49546" lon="11.0332637"><ele>179.39999999999998</ele><time>2026-04-18T08:48:48.64Z</time></trkpt><trkpt lat="43.4954518" lon="11.0331106"><ele>179.8</ele><time>2026-04-18T08:48:49.639Z</time></trkpt><trkpt lat="43.4954507" lon="11.0329605"><ele>180.2</ele><time>2026-04-18T08:48:50.633Z</time></trkpt><trkpt lat="43.4954364" lon="11.0328086"><ele>180.60000000000002</ele><time>2026-04-18T08:48:51.638Z</time></trkpt><trkpt lat="43.4954172" lon="11.0326554"><ele>181.0</ele><time>2026-04-18T08:48:52.647Z</time></trkpt><trkpt lat="43.4953966" lon="11.0325089"><ele>182.20000000000002</ele><time>2026-04-18T08:48:53.626Z</time></trkpt><trkpt lat="43.4954108" lon="11.0323564"><ele>183.4</ele><time>2026-04-18T08:48:54.625Z</time></trkpt><trkpt lat="43.4954265" lon="11.032214"><ele>184.6</ele><time>2026-04-18T08:48:55.625Z</time></trkpt><trkpt lat="43.495452" lon="11.0320909"><ele>185.8</ele><time>2026-04-18T08:48:56.628Z</time></trkpt><trkpt lat="43.4954867" lon="11.0319834"><ele>187.0</ele><time>2026-04-18T08:48:57.62Z</time></trkpt><trkpt lat="43.4955019" lon="11.0318551"><ele>187.39999999999998</ele><time>2026-04-18T08:48:58.63Z</time></trkpt><trkpt lat="43.4955063" lon="11.0317202"><ele>187.79999999999998</ele><time>2026-04-18T08:48:59.625Z</time></trkpt><trkpt lat="43.4955233" lon="11.0315954"><ele>188.2</ele><time>2026-04-18T08:49:00.624Z</time></trkpt><trkpt lat="43.4955644" lon="11.0314762"><ele>188.6</ele><time>2026-04-18T08:49:01.62Z</time></trkpt><trkpt lat="43.495613" lon="11.0313695"><ele>189.0</ele><time>2026-04-18T08:49:02.625Z</time></trkpt><trkpt lat="43.4956628" lon="11.0312672"><ele>190.2</ele><time>2026-04-18T08:49:03.623Z</time></trkpt><trkpt lat="43.4957126" lon="11.0311552"><ele>191.39999999999998</ele><time>2026-04-18T08:49:04.627Z</time></trkpt><trkpt lat="43.4957601" lon="11.031019"><ele>192.6</ele><time>2026-04-18T08:49:05.621Z</time></trkpt><trkpt lat="43.4957927" lon="11.0308803"><ele>193.8</ele><time>2026-04-18T08:49:06.617Z</time></trkpt><trkpt lat="43.4958205" lon="11.0307552"><ele>195.0</ele><time>2026-04-18T08:49:07.617Z</time></trkpt><trkpt lat="43.4958431" lon="11.0306421"><ele>195.33333333333334</ele><time>2026-04-18T08:49:08.623Z</time></trkpt><trkpt lat="43.4958649" lon="11.0305336"><ele>195.66666666666669</ele><time>2026-04-18T08:49:09.623Z</time></trkpt><trkpt lat="43.4958738" lon="11.0304153"><ele>196.0</ele><time>2026-04-18T08:49:10.619Z</time></trkpt><trkpt lat="43.4958661" lon="11.0302908"><ele>196.33333333333334</ele><time>2026-04-18T08:49:11.612Z</time></trkpt><trkpt lat="43.4958528" lon="11.0301693"><ele>196.66666666666669</ele><time>2026-04-18T08:49:12.613Z</time></trkpt><trkpt lat="43.4958574" lon="11.0300725"><ele>197.0</ele><time>2026-04-18T08:49:13.614Z</time></trkpt><trkpt lat="43.4958727" lon="11.0299556"><ele>197.2</ele><time>2026-04-18T08:49:14.61Z</time></trkpt><trkpt lat="43.4958941" lon="11.0298115"><ele>197.39999999999998</ele><time>2026-04-18T08:49:15.617Z</time></trkpt><trkpt lat="43.495911" lon="11.0296829"><ele>197.60000000000002</ele><time>2026-04-18T08:49:16.618Z</time></trkpt><trkpt lat="43.4959326" lon="11.0295663"><ele>197.8</ele><time>2026-04-18T08:49:17.609Z</time></trkpt><trkpt lat="43.4959524" lon="11.0294435"><ele>198.0</ele><time>2026-04-18T08:49:18.624Z</time></trkpt><trkpt lat="43.4959651" lon="11.0293195"><ele>198.0</ele><time>2026-04-18T08:49:19.62Z</time></trkpt><trkpt lat="43.4959696" lon="11.0292025"><ele>198.0</ele><time>2026-04-18T08:49:20.62Z</time></trkpt><trkpt lat="43.4959689" lon="11.0290938"><ele>198.0</ele><time>2026-04-18T08:49:21.633Z</time></trkpt><trkpt lat="43.4959524" lon="11.0289933"><ele>198.0</ele><time>2026-04-18T08:49:22.625Z</time></trkpt><trkpt lat="43.4959246" lon="11.0288823"><ele>198.0</ele><time>2026-04-18T08:49:23.642Z</time></trkpt><trkpt lat="43.4958763" lon="11.028771"><ele>198.0</ele><time>2026-04-18T08:49:24.632Z</time></trkpt><trkpt lat="43.4958252" lon="11.028661"><ele>198.4</ele><time>2026-04-18T08:49:25.633Z</time></trkpt><trkpt lat="43.4957698" lon="11.0285343"><ele>198.8</ele><time>2026-04-18T08:49:26.636Z</time></trkpt><trkpt lat="43.495724" lon="11.0284126"><ele>199.2</ele><time>2026-04-18T08:49:27.636Z</time></trkpt><trkpt lat="43.495688" lon="11.0282922"><ele>199.6</ele><time>2026-04-18T08:49:28.635Z</time></trkpt><trkpt lat="43.4956585" lon="11.0281469"><ele>200.0</ele><time>2026-04-18T08:49:29.624Z</time></trkpt><trkpt lat="43.4956389" lon="11.0279977"><ele>200.5</ele><time>2026-04-18T08:49:30.629Z</time></trkpt><trkpt lat="43.4956143" lon="11.0278353"><ele>201.0</ele><time>2026-04-18T08:49:31.628Z</time></trkpt><trkpt lat="43.4955809" lon="11.0276693"><ele>201.5</ele><time>2026-04-18T08:49:32.623Z</time></trkpt><trkpt lat="43.4955579" lon="11.0275023"><ele>202.0</ele><time>2026-04-18T08:49:33.628Z</time></trkpt><trkpt lat="43.4955331" lon="11.0273505"><ele>202.25</ele><time>2026-04-18T08:49:34.626Z</time></trkpt><trkpt lat="43.4955073" lon="11.0272089"><ele>202.5</ele><time>2026-04-18T08:49:35.626Z</time></trkpt><trkpt lat="43.4954817" lon="11.0270509"><ele>202.75</ele><time>2026-04-18T08:49:36.632Z</time></trkpt><trkpt lat="43.4954611" lon="11.0268886"><ele>203.0</ele><time>2026-04-18T08:49:37.629Z</time></trkpt><trkpt lat="43.495449" lon="11.0267379"><ele>203.4</ele><time>2026-04-18T08:49:38.641Z</time></trkpt><trkpt lat="43.4954376" lon="11.026599"><ele>203.8</ele><time>2026-04-18T08:49:39.621Z</time></trkpt><trkpt lat="43.4954468" lon="11.0264917"><ele>204.2</ele><time>2026-04-18T08:49:40.622Z</time></trkpt><trkpt lat="43.49548" lon="11.0263826"><ele>204.6</ele><time>2026-04-18T08:49:41.622Z</time></trkpt><trkpt lat="43.4955272" lon="11.0262772"><ele>205.0</ele><time>2026-04-18T08:49:42.625Z</time></trkpt><trkpt lat="43.495594" lon="11.0261495"><ele>205.0</ele><time>2026-04-18T08:49:43.619Z</time></trkpt><trkpt lat="43.4956773" lon="11.0260229"><ele>205.0</ele><time>2026-04-18T08:49:44.625Z</time></trkpt><trkpt lat="43.4957592" lon="11.0259039"><ele>205.0</ele><time>2026-04-18T08:49:45.622Z</time></trkpt><trkpt lat="43.4958255" lon="11.0257929"><ele>205.0</ele><time>2026-04-18T08:49:46.62Z</time></trkpt><trkpt lat="43.4958757" lon="11.0256867"><ele>205.0</ele><time>2026-04-18T08:49:47.62Z</time></trkpt><trkpt lat="43.495918" lon="11.0255894"><ele>205.66666666666666</ele><time>2026-04-18T08:49:48.622Z</time></trkpt><trkpt lat="43.4959564" lon="11.0254929"><ele>206.33333333333331</ele><time>2026-04-18T08:49:49.618Z</time></trkpt><trkpt lat="43.4959821" lon="11.0253509"><ele>207.0</ele><time>2026-04-18T08:49:51.623Z</time></trkpt><trkpt lat="43.4959238" lon="11.0252935"><ele>207.66666666666669</ele><time>2026-04-18T08:49:53.641Z</time></trkpt><trkpt lat="43.4958552" lon="11.025328"><ele>208.33333333333334</ele><time>2026-04-18T08:49:56.62Z</time></trkpt><trkpt lat="43.4957956" lon="11.0254438"><ele>209.0</ele><time>2026-04-18T08:49:58.619Z</time></trkpt><trkpt lat="43.4957261" lon="11.0255563"><ele>209.0</ele><time>2026-04-18T08:49:59.616Z</time></trkpt><trkpt lat="43.495638" lon="11.0256331"><ele>209.0</ele><time>2026-04-18T08:50:00.62Z</time></trkpt><trkpt lat="43.4955214" lon="11.0256879"><ele>209.0</ele><time>2026-04-18T08:50:01.618Z</time></trkpt><trkpt lat="43.4953972" lon="11.0257118"><ele>209.0</ele><time>2026-04-18T08:50:02.61Z</time></trkpt><trkpt lat="43.495259" lon="11.0256654"><ele>211.0</ele><time>2026-04-18T08:50:03.622Z</time></trkpt><trkpt lat="43.4951153" lon="11.0255626"><ele>213.0</ele><time>2026-04-18T08:50:04.626Z</time></trkpt><trkpt lat="43.4949879" lon="11.0254039"><ele>215.0</ele><time>2026-04-18T08:50:05.617Z</time></trkpt><trkpt lat="43.494838" lon="11.0251368"><ele>217.33333333333334</ele><time>2026-04-18T08:50:06.604Z</time></trkpt><trkpt lat="43.4947456" lon="11.0249103"><ele>219.66666666666669</ele><time>2026-04-18T08:50:07.601Z</time></trkpt><trkpt lat="43.494687" lon="11.0247053"><ele>222.0</ele><time>2026-04-18T08:50:08.608Z</time></trkpt><trkpt lat="43.494633" lon="11.0245238"><ele>222.6</ele><time>2026-04-18T08:50:09.607Z</time></trkpt><trkpt lat="43.494583" lon="11.0243566"><ele>223.2</ele><time>2026-04-18T08:50:10.617Z</time></trkpt><trkpt lat="43.4945284" lon="11.0242228"><ele>223.8</ele><time>2026-04-18T08:50:11.61Z</time></trkpt><trkpt lat="43.4944788" lon="11.0241015"><ele>224.4</ele><time>2026-04-18T08:50:12.606Z</time></trkpt><trkpt lat="43.4944368" lon="11.0240184"><ele>225.0</ele><time>2026-04-18T08:50:13.613Z</time></trkpt><trkpt lat="43.4943734" lon="11.0239562"><ele>225.0</ele><time>2026-04-18T08:50:14.606Z</time></trkpt><trkpt lat="43.4943049" lon="11.0239293"><ele>225.0</ele><time>2026-04-18T08:50:15.617Z</time></trkpt><trkpt lat="43.4942326" lon="11.0239079"><ele>225.0</ele><time>2026-04-18T08:50:16.619Z</time></trkpt><trkpt lat="43.4941389" lon="11.0238678"><ele>225.0</ele><time>2026-04-18T08:50:18.616Z</time></trkpt><trkpt lat="43.4941931" lon="11.0237826"><ele>225.0</ele><time>2026-04-18T08:50:21.615Z</time></trkpt><trkpt lat="43.4943009" lon="11.0237578"><ele>225.0</ele><time>2026-04-18T08:50:23.613Z</time></trkpt><trkpt lat="43.4943651" lon="11.0237016"><ele>225.0</ele><time>2026-04-18T08:50:25.623Z</time></trkpt><trkpt lat="43.4943394" lon="11.0235983"><ele>225.0</ele><time>2026-04-18T08:50:27.618Z</time></trkpt><trkpt lat="43.494301" lon="11.0235127"><ele>225.0</ele><time>2026-04-18T08:50:28.613Z</time></trkpt><trkpt lat="43.4942588" lon="11.023424"><ele>225.0</ele><time>2026-04-18T08:50:29.605Z</time></trkpt><trkpt lat="43.4942122" lon="11.0233096"><ele>225.0</ele><time>2026-04-18T08:50:30.616Z</time></trkpt><trkpt lat="43.4941547" lon="11.023197"><ele>225.0</ele><time>2026-04-18T08:50:31.62Z</time></trkpt><trkpt lat="43.4941021" lon="11.0230823"><ele>226.0</ele><time>2026-04-18T08:50:32.619Z</time></trkpt><trkpt lat="43.4940513" lon="11.0229658"><ele>227.0</ele><time>2026-04-18T08:50:33.625Z</time></trkpt><trkpt lat="43.4939967" lon="11.0228546"><ele>228.0</ele><time>2026-04-18T08:50:34.628Z</time></trkpt><trkpt lat="43.4939425" lon="11.0227341"><ele>229.0</ele><time>2026-04-18T08:50:35.63Z</time></trkpt><trkpt lat="43.4938907" lon="11.022634"><ele>230.0</ele><time>2026-04-18T08:50:36.625Z</time></trkpt><trkpt lat="43.493839" lon="11.0225451"><ele>230.83333333333334</ele><time>2026-04-18T08:50:37.627Z</time></trkpt><trkpt lat="43.4937824" lon="11.0224511"><ele>231.66666666666669</ele><time>2026-04-18T08:50:38.626Z</time></trkpt><trkpt lat="43.4937273" lon="11.0223618"><ele>232.5</ele><time>2026-04-18T08:50:39.627Z</time></trkpt><trkpt lat="43.4936622" lon="11.0222656"><ele>233.33333333333331</ele><time>2026-04-18T08:50:40.629Z</time></trkpt><trkpt lat="43.4935954" lon="11.0221895"><ele>234.16666666666666</ele><time>2026-04-18T08:50:41.631Z</time></trkpt><trkpt lat="43.4935204" lon="11.0221182"><ele>235.0</ele><time>2026-04-18T08:50:42.628Z</time></trkpt><trkpt lat="43.4934389" lon="11.0220482"><ele>235.49999999999997</ele><time>2026-04-18T08:50:43.633Z</time></trkpt><trkpt lat="43.4933726" lon="11.0219929"><ele>236.0</ele><time>2026-04-18T08:50:44.617Z</time></trkpt><trkpt lat="43.4932745" lon="11.0218997"><ele>236.5</ele><time>2026-04-18T08:50:46.626Z</time></trkpt><trkpt lat="43.4932226" lon="11.0218342"><ele>237.0</ele><time>2026-04-18T08:50:47.617Z</time></trkpt><trkpt lat="43.4931875" lon="11.021753"><ele>237.49999999999997</ele><time>2026-04-18T08:50:48.627Z</time></trkpt><trkpt lat="43.4931813" lon="11.0216553"><ele>238.0</ele><time>2026-04-18T08:50:49.628Z</time></trkpt><trkpt lat="43.4932047" lon="11.021555"><ele>238.99999999999997</ele><time>2026-04-18T08:50:50.617Z</time></trkpt><trkpt lat="43.4932258" lon="11.0214461"><ele>240.0</ele><time>2026-04-18T08:50:51.623Z</time></trkpt><trkpt lat="43.4932321" lon="11.0213373"><ele>241.0</ele><time>2026-04-18T08:50:52.623Z</time></trkpt><trkpt lat="43.4932337" lon="11.0212345"><ele>242.0</ele><time>2026-04-18T08:50:53.623Z</time></trkpt><trkpt lat="43.4932224" lon="11.0211255"><ele>242.99999999999997</ele><time>2026-04-18T08:50:54.615Z</time></trkpt><trkpt lat="43.4931909" lon="11.0210201"><ele>244.0</ele><time>2026-04-18T08:50:55.615Z</time></trkpt><trkpt lat="43.4931546" lon="11.0209412"><ele>244.0</ele><time>2026-04-18T08:50:56.632Z</time></trkpt><trkpt lat="43.4930655" lon="11.0208166"><ele>243.99999999999997</ele><time>2026-04-18T08:50:58.619Z</time></trkpt><trkpt lat="43.4929981" lon="11.0207627"><ele>243.99999999999997</ele><time>2026-04-18T08:50:59.616Z</time></trkpt><trkpt lat="43.4929148" lon="11.0207077"><ele>244.0</ele><time>2026-04-18T08:51:00.622Z</time></trkpt><trkpt lat="43.4928417" lon="11.0206591"><ele>244.0</ele><time>2026-04-18T08:51:01.615Z</time></trkpt><trkpt lat="43.492783" lon="11.0205947"><ele>245.16666666666666</ele><time>2026-04-18T08:51:02.618Z</time></trkpt><trkpt lat="43.4927269" lon="11.0205132"><ele>246.33333333333331</ele><time>2026-04-18T08:51:03.614Z</time></trkpt><trkpt lat="43.4926807" lon="11.0204159"><ele>247.5</ele><time>2026-04-18T08:51:04.612Z</time></trkpt><trkpt lat="43.4926461" lon="11.0203344"><ele>248.66666666666669</ele><time>2026-04-18T08:51:05.614Z</time></trkpt><trkpt lat="43.4925801" lon="11.0202397"><ele>249.83333333333334</ele><time>2026-04-18T08:51:07.615Z</time></trkpt><trkpt lat="43.4925017" lon="11.0202208"><ele>251.0</ele><time>2026-04-18T08:51:08.616Z</time></trkpt><trkpt lat="43.4924089" lon="11.0201954"><ele>251.00000000000003</ele><time>2026-04-18T08:51:09.61Z</time></trkpt><trkpt lat="43.492327" lon="11.0201615"><ele>251.0</ele><time>2026-04-18T08:51:10.604Z</time></trkpt><trkpt lat="43.4922582" lon="11.0201326"><ele>251.0</ele><time>2026-04-18T08:51:11.604Z</time></trkpt><trkpt lat="43.4921865" lon="11.0200934"><ele>251.0</ele><time>2026-04-18T08:51:12.599Z</time></trkpt><trkpt lat="43.4921288" lon="11.0200457"><ele>251.00000000000003</ele><time>2026-04-18T08:51:13.607Z</time></trkpt><trkpt lat="43.4920526" lon="11.0199258"><ele>251.0</ele><time>2026-04-18T08:51:15.622Z</time></trkpt><trkpt lat="43.4920302" lon="11.0198425"><ele>251.8</ele><time>2026-04-18T08:51:16.628Z</time></trkpt><trkpt lat="43.4920162" lon="11.019748"><ele>252.60000000000002</ele><time>2026-04-18T08:51:17.624Z</time></trkpt><trkpt lat="43.4920209" lon="11.0196387"><ele>253.4</ele><time>2026-04-18T08:51:18.623Z</time></trkpt><trkpt lat="43.4920456" lon="11.0195126"><ele>254.2</ele><time>2026-04-18T08:51:19.625Z</time></trkpt><trkpt lat="43.4920778" lon="11.0193727"><ele>255.0</ele><time>2026-04-18T08:51:20.626Z</time></trkpt><trkpt lat="43.4921248" lon="11.0192199"><ele>255.6</ele><time>2026-04-18T08:51:21.632Z</time></trkpt><trkpt lat="43.4921748" lon="11.0190587"><ele>256.2</ele><time>2026-04-18T08:51:22.635Z</time></trkpt><trkpt lat="43.4922244" lon="11.0188989"><ele>256.8</ele><time>2026-04-18T08:51:23.624Z</time></trkpt><trkpt lat="43.49227" lon="11.0187587"><ele>257.4</ele><time>2026-04-18T08:51:24.616Z</time></trkpt><trkpt lat="43.4922818" lon="11.0186441"><ele>258.0</ele><time>2026-04-18T08:51:25.622Z</time></trkpt><trkpt lat="43.4923013" lon="11.0185217"><ele>258.0</ele><time>2026-04-18T08:51:26.619Z</time></trkpt><trkpt lat="43.492299" lon="11.0184204"><ele>258.0</ele><time>2026-04-18T08:51:27.636Z</time></trkpt><trkpt lat="43.4922911" lon="11.0183015"><ele>258.0</ele><time>2026-04-18T08:51:28.625Z</time></trkpt><trkpt lat="43.4922736" lon="11.0181753"><ele>258.0</ele><time>2026-04-18T08:51:29.617Z</time></trkpt><trkpt lat="43.4922664" lon="11.0180449"><ele>258.0</ele><time>2026-04-18T08:51:30.614Z</time></trkpt><trkpt lat="43.4922626" lon="11.0179102"><ele>258.0</ele><time>2026-04-18T08:51:31.615Z</time></trkpt><trkpt lat="43.4922668" lon="11.0177524"><ele>258.0</ele><time>2026-04-18T08:51:32.618Z</time></trkpt><trkpt lat="43.492274" lon="11.0176014"><ele>258.0</ele><time>2026-04-18T08:51:33.622Z</time></trkpt><trkpt lat="43.4922774" lon="11.0174627"><ele>258.0</ele><time>2026-04-18T08:51:34.618Z</time></trkpt><trkpt lat="43.4922687" lon="11.0173409"><ele>258.0</ele><time>2026-04-18T08:51:35.618Z</time></trkpt><trkpt lat="43.492247" lon="11.017208"><ele>258.0</ele><time>2026-04-18T08:51:36.618Z</time></trkpt><trkpt lat="43.4922044" lon="11.0170783"><ele>258.8333333333333</ele><time>2026-04-18T08:51:37.626Z</time></trkpt><trkpt lat="43.492161" lon="11.0169711"><ele>259.6666666666667</ele><time>2026-04-18T08:51:38.624Z</time></trkpt><trkpt lat="43.4921315" lon="11.0168805"><ele>260.5</ele><time>2026-04-18T08:51:39.621Z</time></trkpt><trkpt lat="43.4921025" lon="11.0167973"><ele>261.33333333333337</ele><time>2026-04-18T08:51:40.62Z</time></trkpt><trkpt lat="43.4920575" lon="11.0166888"><ele>262.1666666666667</ele><time>2026-04-18T08:51:42.615Z</time></trkpt><trkpt lat="43.4920086" lon="11.0166017"><ele>263.0</ele><time>2026-04-18T08:51:44.616Z</time></trkpt><trkpt lat="43.4919611" lon="11.0164888"><ele>264.8</ele><time>2026-04-18T08:51:46.622Z</time></trkpt><trkpt lat="43.4919289" lon="11.0163486"><ele>266.6</ele><time>2026-04-18T08:51:48.617Z</time></trkpt><trkpt lat="43.4918839" lon="11.0161769"><ele>268.4</ele><time>2026-04-18T08:51:50.613Z</time></trkpt><trkpt lat="43.4918508" lon="11.0160837"><ele>270.2</ele><time>2026-04-18T08:51:51.621Z</time></trkpt><trkpt lat="43.4918111" lon="11.0159853"><ele>272.0</ele><time>2026-04-18T08:51:52.614Z</time></trkpt><trkpt lat="43.4917741" lon="11.0159021"><ele>272.4285714285714</ele><time>2026-04-18T08:51:53.619Z</time></trkpt><trkpt lat="43.4917417" lon="11.0158145"><ele>272.85714285714283</ele><time>2026-04-18T08:51:54.617Z</time></trkpt><trkpt lat="43.4917118" lon="11.015729"><ele>273.2857142857143</ele><time>2026-04-18T08:51:55.62Z</time></trkpt><trkpt lat="43.49168" lon="11.0156431"><ele>273.71428571428567</ele><time>2026-04-18T08:51:56.619Z</time></trkpt><trkpt lat="43.4916454" lon="11.0155403"><ele>274.1428571428571</ele><time>2026-04-18T08:51:57.62Z</time></trkpt><trkpt lat="43.4916185" lon="11.0154602"><ele>274.57142857142856</ele><time>2026-04-18T08:51:58.627Z</time></trkpt><trkpt lat="43.4915703" lon="11.0153639"><ele>275.0</ele><time>2026-04-18T08:52:00.621Z</time></trkpt><trkpt lat="43.4915334" lon="11.0152139"><ele>275.0</ele><time>2026-04-18T08:52:02.608Z</time></trkpt><trkpt lat="43.4915299" lon="11.0151162"><ele>275.0</ele><time>2026-04-18T08:52:03.612Z</time></trkpt><trkpt lat="43.491537" lon="11.014939"><ele>275.0</ele><time>2026-04-18T08:52:05.621Z</time></trkpt><trkpt lat="43.4915525" lon="11.0148284"><ele>275.0</ele><time>2026-04-18T08:52:06.616Z</time></trkpt><trkpt lat="43.4915734" lon="11.0147052"><ele>275.0</ele><time>2026-04-18T08:52:07.612Z</time></trkpt><trkpt lat="43.4915736" lon="11.0145908"><ele>274.83333333333337</ele><time>2026-04-18T08:52:08.614Z</time></trkpt><trkpt lat="43.4915759" lon="11.0144906"><ele>274.6666666666667</ele><time>2026-04-18T08:52:09.628Z</time></trkpt><trkpt lat="43.4915734" lon="11.0143847"><ele>274.5</ele><time>2026-04-18T08:52:10.621Z</time></trkpt><trkpt lat="43.4915631" lon="11.0142576"><ele>274.3333333333333</ele><time>2026-04-18T08:52:11.634Z</time></trkpt><trkpt lat="43.4915444" lon="11.0141281"><ele>274.16666666666663</ele><time>2026-04-18T08:52:12.634Z</time></trkpt><trkpt lat="43.4915316" lon="11.0139981"><ele>274.0</ele><time>2026-04-18T08:52:13.639Z</time></trkpt><trkpt lat="43.4915094" lon="11.013883"><ele>274.5</ele><time>2026-04-18T08:52:14.632Z</time></trkpt><trkpt lat="43.491491" lon="11.0137753"><ele>275.0</ele><time>2026-04-18T08:52:15.633Z</time></trkpt><trkpt lat="43.4914699" lon="11.0136877"><ele>275.5</ele><time>2026-04-18T08:52:16.631Z</time></trkpt><trkpt lat="43.4914145" lon="11.0135865"><ele>276.0</ele><time>2026-04-18T08:52:18.632Z</time></trkpt><trkpt lat="43.491375" lon="11.0135096"><ele>276.5</ele><time>2026-04-18T08:52:20.619Z</time></trkpt><trkpt lat="43.4913715" lon="11.0133184"><ele>277.0</ele><time>2026-04-18T08:52:22.613Z</time></trkpt><trkpt lat="43.4913856" lon="11.0131766"><ele>278.25</ele><time>2026-04-18T08:52:23.617Z</time></trkpt><trkpt lat="43.4914023" lon="11.0130243"><ele>279.5</ele><time>2026-04-18T08:52:24.614Z</time></trkpt><trkpt lat="43.4914036" lon="11.0128501"><ele>280.75</ele><time>2026-04-18T08:52:25.627Z</time></trkpt><trkpt lat="43.491402" lon="11.0126564"><ele>282.0</ele><time>2026-04-18T08:52:26.63Z</time></trkpt><trkpt lat="43.4914003" lon="11.0124445"><ele>282.3333333333333</ele><time>2026-04-18T08:52:27.621Z</time></trkpt><trkpt lat="43.4913737" lon="11.0122407"><ele>282.66666666666663</ele><time>2026-04-18T08:52:28.627Z</time></trkpt><trkpt lat="43.4913472" lon="11.0120183"><ele>283.0</ele><time>2026-04-18T08:52:29.634Z</time></trkpt><trkpt lat="43.4913126" lon="11.0118339"><ele>283.0</ele><time>2026-04-18T08:52:30.62Z</time></trkpt><trkpt lat="43.491265" lon="11.0116644"><ele>283.0</ele><time>2026-04-18T08:52:31.618Z</time></trkpt><trkpt lat="43.4912055" lon="11.0115016"><ele>283.0</ele><time>2026-04-18T08:52:32.615Z</time></trkpt><trkpt lat="43.4911299" lon="11.0113473"><ele>283.0</ele><time>2026-04-18T08:52:33.61Z</time></trkpt><trkpt lat="43.4910159" lon="11.0112018"><ele>287.0</ele><time>2026-04-18T08:52:34.615Z</time></trkpt><trkpt lat="43.4908774" lon="11.0110499"><ele>291.0</ele><time>2026-04-18T08:52:35.619Z</time></trkpt><trkpt lat="43.4907207" lon="11.0109064"><ele>295.0</ele><time>2026-04-18T08:52:36.624Z</time></trkpt><trkpt lat="43.4905696" lon="11.0107626"><ele>299.66666666666663</ele><time>2026-04-18T08:52:37.625Z</time></trkpt><trkpt lat="43.4904221" lon="11.0106071"><ele>304.3333333333333</ele><time>2026-04-18T08:52:38.625Z</time></trkpt><trkpt lat="43.490288" lon="11.0104628"><ele>309.0</ele><time>2026-04-18T08:52:39.62Z</time></trkpt><trkpt lat="43.4901809" lon="11.0103279"><ele>309.0</ele><time>2026-04-18T08:52:40.624Z</time></trkpt><trkpt lat="43.4900584" lon="11.0101985"><ele>309.0</ele><time>2026-04-18T08:52:41.621Z</time></trkpt><trkpt lat="43.4899672" lon="11.0101071"><ele>309.0</ele><time>2026-04-18T08:52:42.623Z</time></trkpt><trkpt lat="43.4898903" lon="11.0100187"><ele>309.0</ele><time>2026-04-18T08:52:43.618Z</time></trkpt><trkpt lat="43.4898213" lon="11.0099554"><ele>310.2</ele><time>2026-04-18T08:52:44.618Z</time></trkpt><trkpt lat="43.4897654" lon="11.0098912"><ele>311.4</ele><time>2026-04-18T08:52:45.624Z</time></trkpt><trkpt lat="43.4897027" lon="11.0097857"><ele>312.6</ele><time>2026-04-18T08:52:47.622Z</time></trkpt><trkpt lat="43.4897038" lon="11.0096536"><ele>313.8</ele><time>2026-04-18T08:52:49.613Z</time></trkpt><trkpt lat="43.4898123" lon="11.0095369"><ele>315.0</ele><time>2026-04-18T08:52:51.627Z</time></trkpt><trkpt lat="43.4899228" lon="11.0094838"><ele>315.0</ele><time>2026-04-18T08:52:52.629Z</time></trkpt><trkpt lat="43.4900701" lon="11.0094271"><ele>315.0</ele><time>2026-04-18T08:52:53.63Z</time></trkpt><trkpt lat="43.4902457" lon="11.0093435"><ele>315.0</ele><time>2026-04-18T08:52:54.628Z</time></trkpt><trkpt lat="43.4904254" lon="11.009264"><ele>314.3333333333333</ele><time>2026-04-18T08:52:55.622Z</time></trkpt><trkpt lat="43.4905769" lon="11.0092089"><ele>313.66666666666663</ele><time>2026-04-18T08:52:56.623Z</time></trkpt><trkpt lat="43.4907309" lon="11.009125"><ele>313.0</ele><time>2026-04-18T08:52:57.62Z</time></trkpt><trkpt lat="43.4908499" lon="11.0090213"><ele>313.0</ele><time>2026-04-18T08:52:58.608Z</time></trkpt><trkpt lat="43.4909485" lon="11.0089267"><ele>313.0</ele><time>2026-04-18T08:52:59.61Z</time></trkpt><trkpt lat="43.4910571" lon="11.008829"><ele>313.0</ele><time>2026-04-18T08:53:00.625Z</time></trkpt><trkpt lat="43.4911453" lon="11.0087381"><ele>313.0</ele><time>2026-04-18T08:53:01.599Z</time></trkpt><trkpt lat="43.4912363" lon="11.0086751"><ele>313.3333333333333</ele><time>2026-04-18T08:53:02.614Z</time></trkpt><trkpt lat="43.4913038" lon="11.0086322"><ele>313.66666666666663</ele><time>2026-04-18T08:53:03.605Z</time></trkpt><trkpt lat="43.4913647" lon="11.0085842"><ele>314.0</ele><time>2026-04-18T08:53:04.601Z</time></trkpt><trkpt lat="43.4914392" lon="11.0084922"><ele>314.3333333333333</ele><time>2026-04-18T08:53:06.605Z</time></trkpt><trkpt lat="43.4914368" lon="11.0083626"><ele>314.6666666666667</ele><time>2026-04-18T08:53:08.621Z</time></trkpt><trkpt lat="43.4914085" lon="11.0082605"><ele>315.0</ele><time>2026-04-18T08:53:09.622Z</time></trkpt><trkpt lat="43.491365" lon="11.0081357"><ele>315.0</ele><time>2026-04-18T08:53:10.608Z</time></trkpt><trkpt lat="43.4913164" lon="11.0079867"><ele>315.0</ele><time>2026-04-18T08:53:11.615Z</time></trkpt><trkpt lat="43.4912907" lon="11.0078281"><ele>315.0</ele><time>2026-04-18T08:53:12.61Z</time></trkpt><trkpt lat="43.4912863" lon="11.007686"><ele>315.0</ele><time>2026-04-18T08:53:13.626Z</time></trkpt><trkpt lat="43.4912766" lon="11.0075611"><ele>315.0</ele><time>2026-04-18T08:53:14.609Z</time></trkpt><trkpt lat="43.491257" lon="11.0074544"><ele>317.2</ele><time>2026-04-18T08:53:15.615Z</time></trkpt><trkpt lat="43.4912205" lon="11.0073503"><ele>319.4</ele><time>2026-04-18T08:53:16.614Z</time></trkpt><trkpt lat="43.4911627" lon="11.007227"><ele>321.6</ele><time>2026-04-18T08:53:17.626Z</time></trkpt><trkpt lat="43.4910915" lon="11.0070922"><ele>323.8</ele><time>2026-04-18T08:53:18.616Z</time></trkpt><trkpt lat="43.4910396" lon="11.0069598"><ele>326.0</ele><time>2026-04-18T08:53:19.616Z</time></trkpt><trkpt lat="43.4909911" lon="11.0068386"><ele>326.0</ele><time>2026-04-18T08:53:20.615Z</time></trkpt><trkpt lat="43.4909403" lon="11.0067193"><ele>326.0</ele><time>2026-04-18T08:53:21.613Z</time></trkpt><trkpt lat="43.4908997" lon="11.0066037"><ele>326.0</ele><time>2026-04-18T08:53:22.614Z</time></trkpt><trkpt lat="43.4908649" lon="11.0065073"><ele>326.0</ele><time>2026-04-18T08:53:23.617Z</time></trkpt><trkpt lat="43.4908281" lon="11.006424"><ele>326.0</ele><time>2026-04-18T08:53:24.614Z</time></trkpt><trkpt lat="43.49078" lon="11.0063485"><ele>326.0</ele><time>2026-04-18T08:53:25.609Z</time></trkpt><trkpt lat="43.490718" lon="11.0062852"><ele>327.0</ele><time>2026-04-18T08:53:26.601Z</time></trkpt><trkpt lat="43.490645" lon="11.0062446"><ele>328.0</ele><time>2026-04-18T08:53:27.599Z</time></trkpt><trkpt lat="43.490564" lon="11.0062264"><ele>329.0</ele><time>2026-04-18T08:53:28.611Z</time></trkpt><trkpt lat="43.4904872" lon="11.0062074"><ele>330.0</ele><time>2026-04-18T08:53:29.598Z</time></trkpt><trkpt lat="43.490424" lon="11.0061913"><ele>331.0</ele><time>2026-04-18T08:53:30.607Z</time></trkpt><trkpt lat="43.4903523" lon="11.0061056"><ele>332.0</ele><time>2026-04-18T08:53:32.605Z</time></trkpt><trkpt lat="43.4903209" lon="11.006024"><ele>335.0</ele><time>2026-04-18T08:53:33.62Z</time></trkpt><trkpt lat="43.4902911" lon="11.0059361"><ele>338.0</ele><time>2026-04-18T08:53:34.609Z</time></trkpt><trkpt lat="43.4902771" lon="11.0058227"><ele>341.0</ele><time>2026-04-18T08:53:35.6Z</time></trkpt><trkpt lat="43.4902781" lon="11.0056987"><ele>344.0</ele><time>2026-04-18T08:53:36.607Z</time></trkpt><trkpt lat="43.4902764" lon="11.0055632"><ele>347.0</ele><time>2026-04-18T08:53:37.607Z</time></trkpt><trkpt lat="43.4902817" lon="11.0054065"><ele>348.33333333333337</ele><time>2026-04-18T08:53:38.602Z</time></trkpt><trkpt lat="43.4902843" lon="11.0052913"><ele>349.6666666666667</ele><time>2026-04-18T08:53:39.604Z</time></trkpt><trkpt lat="43.4902781" lon="11.0052045"><ele>351.0</ele><time>2026-04-18T08:53:40.6Z</time></trkpt><trkpt lat="43.4902567" lon="11.0050343"><ele>352.3333333333333</ele><time>2026-04-18T08:53:42.6Z</time></trkpt><trkpt lat="43.4902404" lon="11.0049328"><ele>353.66666666666663</ele><time>2026-04-18T08:53:43.606Z</time></trkpt><trkpt lat="43.490228" lon="11.0048278"><ele>355.0</ele><time>2026-04-18T08:53:44.6Z</time></trkpt><trkpt lat="43.4902192" lon="11.0047244"><ele>355.0</ele><time>2026-04-18T08:53:45.604Z</time></trkpt><trkpt lat="43.4902102" lon="11.0046166"><ele>355.0</ele><time>2026-04-18T08:53:46.609Z</time></trkpt><trkpt lat="43.4901961" lon="11.0045077"><ele>355.0</ele><time>2026-04-18T08:53:47.602Z</time></trkpt><trkpt lat="43.4901853" lon="11.0044018"><ele>355.0</ele><time>2026-04-18T08:53:48.601Z</time></trkpt><trkpt lat="43.4901845" lon="11.0042592"><ele>355.0</ele><time>2026-04-18T08:53:50.6Z</time></trkpt><trkpt lat="43.4902021" lon="11.0041612"><ele>355.0</ele><time>2026-04-18T08:53:51.613Z</time></trkpt><trkpt lat="43.4902155" lon="11.0040431"><ele>356.66666666666663</ele><time>2026-04-18T08:53:52.602Z</time></trkpt><trkpt lat="43.4902206" lon="11.0039228"><ele>358.3333333333333</ele><time>2026-04-18T08:53:53.61Z</time></trkpt><trkpt lat="43.490221" lon="11.0037927"><ele>360.0</ele><time>2026-04-18T08:53:54.6Z</time></trkpt><trkpt lat="43.4902354" lon="11.0036785"><ele>361.6666666666667</ele><time>2026-04-18T08:53:55.603Z</time></trkpt><trkpt lat="43.490262" lon="11.003573"><ele>363.33333333333337</ele><time>2026-04-18T08:53:56.598Z</time></trkpt><trkpt lat="43.4903051" lon="11.0034638"><ele>365.0</ele><time>2026-04-18T08:53:57.602Z</time></trkpt><trkpt lat="43.4903432" lon="11.0033633"><ele>363.4</ele><time>2026-04-18T08:53:58.603Z</time></trkpt><trkpt lat="43.4903865" lon="11.0032559"><ele>361.8</ele><time>2026-04-18T08:53:59.6Z</time></trkpt><trkpt lat="43.4904349" lon="11.0031501"><ele>360.20000000000005</ele><time>2026-04-18T08:54:00.602Z</time></trkpt><trkpt lat="43.4904992" lon="11.0030478"><ele>358.6</ele><time>2026-04-18T08:54:01.604Z</time></trkpt><trkpt lat="43.4905699" lon="11.0029593"><ele>357.0</ele><time>2026-04-18T08:54:02.625Z</time></trkpt><trkpt lat="43.490638" lon="11.002864"><ele>357.0</ele><time>2026-04-18T08:54:03.606Z</time></trkpt><trkpt lat="43.4906911" lon="11.0027622"><ele>357.0</ele><time>2026-04-18T08:54:04.602Z</time></trkpt><trkpt lat="43.4907259" lon="11.002652"><ele>357.0</ele><time>2026-04-18T08:54:05.597Z</time></trkpt><trkpt lat="43.4907508" lon="11.0025383"><ele>357.0</ele><time>2026-04-18T08:54:06.598Z</time></trkpt><trkpt lat="43.4907754" lon="11.0024346"><ele>357.0</ele><time>2026-04-18T08:54:07.609Z</time></trkpt><trkpt lat="43.4908016" lon="11.0023277"><ele>357.0</ele><time>2026-04-18T08:54:08.597Z</time></trkpt><trkpt lat="43.4908146" lon="11.0022224"><ele>359.8333333333333</ele><time>2026-04-18T08:54:09.596Z</time></trkpt><trkpt lat="43.4908001" lon="11.0021127"><ele>362.6666666666667</ele><time>2026-04-18T08:54:10.593Z</time></trkpt><trkpt lat="43.490787" lon="11.0019909"><ele>365.5</ele><time>2026-04-18T08:54:11.594Z</time></trkpt><trkpt lat="43.4907851" lon="11.0018861"><ele>368.33333333333337</ele><time>2026-04-18T08:54:12.592Z</time></trkpt><trkpt lat="43.4908034" lon="11.0017656"><ele>371.1666666666667</ele><time>2026-04-18T08:54:13.589Z</time></trkpt><trkpt lat="43.4908344" lon="11.0016535"><ele>374.0</ele><time>2026-04-18T08:54:14.589Z</time></trkpt><trkpt lat="43.4908899" lon="11.0015503"><ele>378.4</ele><time>2026-04-18T08:54:15.591Z</time></trkpt><trkpt lat="43.490947" lon="11.0014395"><ele>382.79999999999995</ele><time>2026-04-18T08:54:16.598Z</time></trkpt><trkpt lat="43.4910086" lon="11.0013192"><ele>387.20000000000005</ele><time>2026-04-18T08:54:17.592Z</time></trkpt><trkpt lat="43.4910732" lon="11.0012022"><ele>391.6</ele><time>2026-04-18T08:54:18.6Z</time></trkpt><trkpt lat="43.4911384" lon="11.0010969"><ele>396.0</ele><time>2026-04-18T08:54:19.597Z</time></trkpt><trkpt lat="43.4911857" lon="11.0010041"><ele>396.0</ele><time>2026-04-18T08:54:20.593Z</time></trkpt><trkpt lat="43.4912208" lon="11.0009172"><ele>396.0</ele><time>2026-04-18T08:54:21.597Z</time></trkpt><trkpt lat="43.4912608" lon="11.00085"><ele>396.0</ele><time>2026-04-18T08:54:22.602Z</time></trkpt><trkpt lat="43.4913211" lon="11.0007586"><ele>396.0</ele><time>2026-04-18T08:54:24.602Z</time></trkpt><trkpt lat="43.4913458" lon="11.0006311"><ele>396.0</ele><time>2026-04-18T08:54:27.602Z</time></trkpt><trkpt lat="43.4912773" lon="11.0005132"><ele>396.0</ele><time>2026-04-18T08:54:29.601Z</time></trkpt><trkpt lat="43.4912198" lon="11.0004604"><ele>395.6666666666667</ele><time>2026-04-18T08:54:30.6Z</time></trkpt><trkpt lat="43.4911635" lon="11.0003969"><ele>395.33333333333337</ele><time>2026-04-18T08:54:31.606Z</time></trkpt><trkpt lat="43.4911303" lon="11.0002607"><ele>395.0</ele><time>2026-04-18T08:54:33.612Z</time></trkpt><trkpt lat="43.491077" lon="11.0002054"><ele>394.6666666666667</ele><time>2026-04-18T08:54:35.597Z</time></trkpt><trkpt lat="43.4909848" lon="11.0001756"><ele>394.33333333333337</ele><time>2026-04-18T08:54:37.603Z</time></trkpt><trkpt lat="43.4909225" lon="11.0001407"><ele>394.0</ele><time>2026-04-18T08:54:38.6Z</time></trkpt><trkpt lat="43.4908505" lon="11.0000825"><ele>394.00000000000006</ele><time>2026-04-18T08:54:39.595Z</time></trkpt><trkpt lat="43.4907855" lon="11.0000064"><ele>394.0</ele><time>2026-04-18T08:54:40.596Z</time></trkpt><trkpt lat="43.4907295" lon="10.9999249"><ele>394.0</ele><time>2026-04-18T08:54:41.596Z</time></trkpt><trkpt lat="43.4906736" lon="10.9998638"><ele>394.0</ele><time>2026-04-18T08:54:42.597Z</time></trkpt><trkpt lat="43.4906167" lon="10.9997875"><ele>394.00000000000006</ele><time>2026-04-18T08:54:43.601Z</time></trkpt><trkpt lat="43.4905712" lon="10.9996977"><ele>394.0</ele><time>2026-04-18T08:54:44.595Z</time></trkpt><trkpt lat="43.4905237" lon="10.9996095"><ele>394.00000000000006</ele><time>2026-04-18T08:54:45.607Z</time></trkpt><trkpt lat="43.4904694" lon="10.9995124"><ele>394.0</ele><time>2026-04-18T08:54:46.604Z</time></trkpt><trkpt lat="43.4904261" lon="10.9994102"><ele>394.0</ele><time>2026-04-18T08:54:47.597Z</time></trkpt><trkpt lat="43.4903746" lon="10.999307"><ele>394.0</ele><time>2026-04-18T08:54:48.6Z</time></trkpt><trkpt lat="43.4903209" lon="10.9992068"><ele>394.00000000000006</ele><time>2026-04-18T08:54:49.602Z</time></trkpt><trkpt lat="43.490277" lon="10.9991077"><ele>394.0</ele><time>2026-04-18T08:54:50.604Z</time></trkpt><trkpt lat="43.4902175" lon="10.9990398"><ele>395.50000000000006</ele><time>2026-04-18T08:54:51.596Z</time></trkpt><trkpt lat="43.490168" lon="10.9989611"><ele>397.0</ele><time>2026-04-18T08:54:52.604Z</time></trkpt><trkpt lat="43.4901302" lon="10.998869"><ele>398.5</ele><time>2026-04-18T08:54:53.605Z</time></trkpt><trkpt lat="43.4901067" lon="10.9987804"><ele>400.0</ele><time>2026-04-18T08:54:54.599Z</time></trkpt><trkpt lat="43.4900727" lon="10.9986466"><ele>401.50000000000006</ele><time>2026-04-18T08:54:56.61Z</time></trkpt><trkpt lat="43.4900277" lon="10.9985355"><ele>403.0</ele><time>2026-04-18T08:54:58.61Z</time></trkpt><trkpt lat="43.4899812" lon="10.9983875"><ele>399.4</ele><time>2026-04-18T08:55:00.621Z</time></trkpt><trkpt lat="43.4899314" lon="10.9982517"><ele>395.79999999999995</ele><time>2026-04-18T08:55:02.617Z</time></trkpt><trkpt lat="43.4899003" lon="10.9981393"><ele>392.2</ele><time>2026-04-18T08:55:04.63Z</time></trkpt><trkpt lat="43.4898415" lon="10.9980759"><ele>388.6</ele><time>2026-04-18T08:55:06.608Z</time></trkpt><trkpt lat="43.4897699" lon="10.9979824"><ele>385.0</ele><time>2026-04-18T08:55:08.611Z</time></trkpt><trkpt lat="43.4896891" lon="10.9979121"><ele>385.00000000000006</ele><time>2026-04-18T08:55:10.608Z</time></trkpt><trkpt lat="43.4896221" lon="10.9978872"><ele>385.0</ele><time>2026-04-18T08:55:12.614Z</time></trkpt><trkpt lat="43.4895133" lon="10.9978811"><ele>385.0</ele><time>2026-04-18T08:55:14.605Z</time></trkpt><trkpt lat="43.4894383" lon="10.9978754"><ele>385.0</ele><time>2026-04-18T08:55:15.599Z</time></trkpt><trkpt lat="43.4893731" lon="10.9978785"><ele>385.00000000000006</ele><time>2026-04-18T08:55:16.594Z</time></trkpt><trkpt lat="43.4893014" lon="10.9978644"><ele>385.0</ele><time>2026-04-18T08:55:17.594Z</time></trkpt><trkpt lat="43.4892227" lon="10.9978885"><ele>386.0</ele><time>2026-04-18T08:55:18.597Z</time></trkpt><trkpt lat="43.4891472" lon="10.9979104"><ele>387.0</ele><time>2026-04-18T08:55:19.6Z</time></trkpt><trkpt lat="43.4890806" lon="10.9979382"><ele>388.0</ele><time>2026-04-18T08:55:20.59Z</time></trkpt><trkpt lat="43.4890144" lon="10.9979718"><ele>389.0</ele><time>2026-04-18T08:55:21.587Z</time></trkpt><trkpt lat="43.4889479" lon="10.9979804"><ele>390.0</ele><time>2026-04-18T08:55:22.595Z</time></trkpt><trkpt lat="43.4888802" lon="10.9979762"><ele>391.0</ele><time>2026-04-18T08:55:23.599Z</time></trkpt><trkpt lat="43.4888096" lon="10.9979649"><ele>392.0</ele><time>2026-04-18T08:55:24.592Z</time></trkpt><trkpt lat="43.4887342" lon="10.9979251"><ele>392.0</ele><time>2026-04-18T08:55:25.596Z</time></trkpt><trkpt lat="43.4886518" lon="10.9978787"><ele>392.0</ele><time>2026-04-18T08:55:26.589Z</time></trkpt><trkpt lat="43.4885701" lon="10.9978394"><ele>392.0</ele><time>2026-04-18T08:55:27.592Z</time></trkpt><trkpt lat="43.4885022" lon="10.9978067"><ele>392.0</ele><time>2026-04-18T08:55:28.602Z</time></trkpt><trkpt lat="43.4883851" lon="10.9977686"><ele>392.0</ele><time>2026-04-18T08:55:30.6Z</time></trkpt><trkpt lat="43.4882825" lon="10.9976471"><ele>391.99999999999994</ele><time>2026-04-18T08:55:32.588Z</time></trkpt><trkpt lat="43.4882329" lon="10.9975603"><ele>392.0</ele><time>2026-04-18T08:55:33.588Z</time></trkpt><trkpt lat="43.4881991" lon="10.9974746"><ele>392.0</ele><time>2026-04-18T08:55:34.588Z</time></trkpt><trkpt lat="43.4881553" lon="10.9973344"><ele>392.0</ele><time>2026-04-18T08:55:36.607Z</time></trkpt><trkpt lat="43.4881288" lon="10.9972376"><ele>391.99999999999994</ele><time>2026-04-18T08:55:37.601Z</time></trkpt><trkpt lat="43.488108" lon="10.9971359"><ele>392.0</ele><time>2026-04-18T08:55:38.614Z</time></trkpt><trkpt lat="43.4881082" lon="10.9970297"><ele>390.3333333333333</ele><time>2026-04-18T08:55:39.614Z</time></trkpt><trkpt lat="43.4881184" lon="10.9969229"><ele>388.66666666666663</ele><time>2026-04-18T08:55:40.614Z</time></trkpt><trkpt lat="43.4881482" lon="10.9968208"><ele>387.0</ele><time>2026-04-18T08:55:41.614Z</time></trkpt><trkpt lat="43.4881961" lon="10.9967203"><ele>385.3333333333333</ele><time>2026-04-18T08:55:42.615Z</time></trkpt><trkpt lat="43.4882541" lon="10.9966118"><ele>383.66666666666663</ele><time>2026-04-18T08:55:43.62Z</time></trkpt><trkpt lat="43.4883076" lon="10.9965163"><ele>382.0</ele><time>2026-04-18T08:55:44.613Z</time></trkpt><trkpt lat="43.4883567" lon="10.9964398"><ele>382.0</ele><time>2026-04-18T08:55:45.609Z</time></trkpt><trkpt lat="43.4884174" lon="10.9963527"><ele>382.0</ele><time>2026-04-18T08:55:47.608Z</time></trkpt><trkpt lat="43.4883522" lon="10.996354"><ele>382.0</ele><time>2026-04-18T08:55:50.612Z</time></trkpt><trkpt lat="43.4882677" lon="10.9964966"><ele>382.0</ele><time>2026-04-18T08:55:52.608Z</time></trkpt><trkpt lat="43.4882209" lon="10.9965965"><ele>382.0</ele><time>2026-04-18T08:55:53.622Z</time></trkpt><trkpt lat="43.4881522" lon="10.9967075"><ele>382.0</ele><time>2026-04-18T08:55:54.61Z</time></trkpt><trkpt lat="43.4880821" lon="10.9968138"><ele>382.0</ele><time>2026-04-18T08:55:55.604Z</time></trkpt><trkpt lat="43.4880269" lon="10.9969101"><ele>382.0</ele><time>2026-04-18T08:55:56.602Z</time></trkpt><trkpt lat="43.4879684" lon="10.9969933"><ele>382.0</ele><time>2026-04-18T08:55:57.598Z</time></trkpt><trkpt lat="43.4879168" lon="10.9970522"><ele>382.0</ele><time>2026-04-18T08:55:58.608Z</time></trkpt><trkpt lat="43.4878643" lon="10.9971036"><ele>382.0</ele><time>2026-04-18T08:55:59.605Z</time></trkpt><trkpt lat="43.4878095" lon="10.9971559"><ele>382.20000000000005</ele><time>2026-04-18T08:56:00.611Z</time></trkpt><trkpt lat="43.487695" lon="10.9971729"><ele>382.4</ele><time>2026-04-18T08:56:02.6Z</time></trkpt><trkpt lat="43.4876227" lon="10.9971466"><ele>382.6</ele><time>2026-04-18T08:56:03.603Z</time></trkpt><trkpt lat="43.4875434" lon="10.9970925"><ele>382.79999999999995</ele><time>2026-04-18T08:56:04.602Z</time></trkpt><trkpt lat="43.4874567" lon="10.9970502"><ele>383.0</ele><time>2026-04-18T08:56:05.607Z</time></trkpt><trkpt lat="43.4873682" lon="10.997002"><ele>383.0</ele><time>2026-04-18T08:56:06.616Z</time></trkpt><trkpt lat="43.4872797" lon="10.9969529"><ele>383.0</ele><time>2026-04-18T08:56:07.607Z</time></trkpt><trkpt lat="43.4871802" lon="10.9969191"><ele>383.0</ele><time>2026-04-18T08:56:08.611Z</time></trkpt><trkpt lat="43.4871079" lon="10.996893"><ele>383.0</ele><time>2026-04-18T08:56:09.607Z</time></trkpt><trkpt lat="43.4870109" lon="10.9968787"><ele>383.0</ele><time>2026-04-18T08:56:11.607Z</time></trkpt><trkpt lat="43.4869472" lon="10.9968346"><ele>383.0</ele><time>2026-04-18T08:56:14.607Z</time></trkpt><trkpt lat="43.4869304" lon="10.9967056"><ele>387.0</ele><time>2026-04-18T08:56:16.601Z</time></trkpt><trkpt lat="43.4869296" lon="10.9966019"><ele>391.0</ele><time>2026-04-18T08:56:17.602Z</time></trkpt><trkpt lat="43.4869281" lon="10.9964861"><ele>395.0</ele><time>2026-04-18T08:56:18.595Z</time></trkpt><trkpt lat="43.4869292" lon="10.9963312"><ele>399.0</ele><time>2026-04-18T08:56:19.605Z</time></trkpt><trkpt lat="43.4869212" lon="10.9961243"><ele>403.0</ele><time>2026-04-18T08:56:20.599Z</time></trkpt><trkpt lat="43.4868861" lon="10.9959035"><ele>404.0</ele><time>2026-04-18T08:56:21.602Z</time></trkpt><trkpt lat="43.4867931" lon="10.9955554"><ele>405.0</ele><time>2026-04-18T08:56:22.596Z</time></trkpt><trkpt lat="43.4867163" lon="10.9952444"><ele>405.0</ele><time>2026-04-18T08:56:23.597Z</time></trkpt><trkpt lat="43.4866554" lon="10.9950209"><ele>405.0</ele><time>2026-04-18T08:56:24.601Z</time></trkpt><trkpt lat="43.4866136" lon="10.9948104"><ele>405.0</ele><time>2026-04-18T08:56:25.608Z</time></trkpt><trkpt lat="43.4865843" lon="10.9945806"><ele>405.0</ele><time>2026-04-18T08:56:26.612Z</time></trkpt><trkpt lat="43.4865874" lon="10.9943313"><ele>405.0</ele><time>2026-04-18T08:56:27.614Z</time></trkpt><trkpt lat="43.4866054" lon="10.9941021"><ele>405.0</ele><time>2026-04-18T08:56:28.621Z</time></trkpt><trkpt lat="43.4866177" lon="10.9938801"><ele>405.0</ele><time>2026-04-18T08:56:29.607Z</time></trkpt><trkpt lat="43.4866285" lon="10.9936937"><ele>405.0</ele><time>2026-04-18T08:56:30.613Z</time></trkpt><trkpt lat="43.4866702" lon="10.9935021"><ele>405.0</ele><time>2026-04-18T08:56:31.617Z</time></trkpt><trkpt lat="43.4866945" lon="10.9932935"><ele>405.0</ele><time>2026-04-18T08:56:32.618Z</time></trkpt><trkpt lat="43.4867076" lon="10.9930667"><ele>406.33333333333337</ele><time>2026-04-18T08:56:33.621Z</time></trkpt><trkpt lat="43.4867338" lon="10.9928353"><ele>407.6666666666667</ele><time>2026-04-18T08:56:34.615Z</time></trkpt><trkpt lat="43.4867552" lon="10.9925823"><ele>409.0</ele><time>2026-04-18T08:56:35.613Z</time></trkpt><trkpt lat="43.4867993" lon="10.9923285"><ele>409.33333333333337</ele><time>2026-04-18T08:56:36.623Z</time></trkpt><trkpt lat="43.4868358" lon="10.992072"><ele>409.66666666666663</ele><time>2026-04-18T08:56:37.636Z</time></trkpt><trkpt lat="43.4868787" lon="10.9918203"><ele>410.0</ele><time>2026-04-18T08:56:38.63Z</time></trkpt><trkpt lat="43.4869322" lon="10.9915589"><ele>410.3333333333333</ele><time>2026-04-18T08:56:39.634Z</time></trkpt><trkpt lat="43.4869888" lon="10.9913066"><ele>410.66666666666663</ele><time>2026-04-18T08:56:40.629Z</time></trkpt><trkpt lat="43.4870399" lon="10.9910808"><ele>411.0</ele><time>2026-04-18T08:56:41.625Z</time></trkpt><trkpt lat="43.4870891" lon="10.9908605"><ele>412.0</ele><time>2026-04-18T08:56:42.62Z</time></trkpt><trkpt lat="43.4871348" lon="10.9906436"><ele>413.0</ele><time>2026-04-18T08:56:43.627Z</time></trkpt><trkpt lat="43.4871724" lon="10.9904319"><ele>414.0</ele><time>2026-04-18T08:56:44.614Z</time></trkpt><trkpt lat="43.487224" lon="10.990237"><ele>414.0</ele><time>2026-04-18T08:56:45.615Z</time></trkpt><trkpt lat="43.4872639" lon="10.9900606"><ele>414.0</ele><time>2026-04-18T08:56:46.618Z</time></trkpt><trkpt lat="43.4873191" lon="10.9898868"><ele>414.0</ele><time>2026-04-18T08:56:47.612Z</time></trkpt><trkpt lat="43.4873766" lon="10.9897172"><ele>414.0</ele><time>2026-04-18T08:56:48.616Z</time></trkpt><trkpt lat="43.4874383" lon="10.9895276"><ele>416.5</ele><time>2026-04-18T08:56:49.617Z</time></trkpt><trkpt lat="43.48751" lon="10.9893332"><ele>419.0</ele><time>2026-04-18T08:56:50.618Z</time></trkpt><trkpt lat="43.4875682" lon="10.9891415"><ele>421.5</ele><time>2026-04-18T08:56:51.616Z</time></trkpt><trkpt lat="43.4876241" lon="10.9889654"><ele>424.0</ele><time>2026-04-18T08:56:52.61Z</time></trkpt><trkpt lat="43.4876895" lon="10.9887739"><ele>426.0</ele><time>2026-04-18T08:56:53.615Z</time></trkpt><trkpt lat="43.4877488" lon="10.9885893"><ele>428.0</ele><time>2026-04-18T08:56:54.608Z</time></trkpt><trkpt lat="43.4878126" lon="10.9884152"><ele>430.0</ele><time>2026-04-18T08:56:55.6Z</time></trkpt><trkpt lat="43.487866" lon="10.9882474"><ele>432.0</ele><time>2026-04-18T08:56:56.595Z</time></trkpt><trkpt lat="43.4879033" lon="10.9881108"><ele>432.3333333333333</ele><time>2026-04-18T08:56:57.597Z</time></trkpt><trkpt lat="43.4879334" lon="10.9879911"><ele>432.66666666666663</ele><time>2026-04-18T08:56:58.599Z</time></trkpt><trkpt lat="43.4879567" lon="10.9878918"><ele>433.0</ele><time>2026-04-18T08:56:59.594Z</time></trkpt><trkpt lat="43.4879717" lon="10.9878048"><ele>433.3333333333333</ele><time>2026-04-18T08:57:00.611Z</time></trkpt><trkpt lat="43.4879523" lon="10.987717"><ele>433.66666666666663</ele><time>2026-04-18T08:57:01.602Z</time></trkpt><trkpt lat="43.4879099" lon="10.9876367"><ele>434.0</ele><time>2026-04-18T08:57:02.6Z</time></trkpt><trkpt lat="43.4878399" lon="10.9875499"><ele>434.42857142857144</ele><time>2026-04-18T08:57:03.6Z</time></trkpt><trkpt lat="43.4877896" lon="10.9874719"><ele>434.8571428571429</ele><time>2026-04-18T08:57:04.608Z</time></trkpt><trkpt lat="43.4877601" lon="10.9873863"><ele>435.2857142857143</ele><time>2026-04-18T08:57:05.615Z</time></trkpt><trkpt lat="43.4877403" lon="10.9872963"><ele>435.7142857142857</ele><time>2026-04-18T08:57:06.619Z</time></trkpt><trkpt lat="43.4877043" lon="10.9872123"><ele>436.14285714285717</ele><time>2026-04-18T08:57:07.614Z</time></trkpt><trkpt lat="43.4876726" lon="10.9871167"><ele>436.57142857142856</ele><time>2026-04-18T08:57:08.631Z</time></trkpt><trkpt lat="43.4876428" lon="10.9870158"><ele>437.0</ele><time>2026-04-18T08:57:09.618Z</time></trkpt><trkpt lat="43.4876131" lon="10.9869141"><ele>437.0</ele><time>2026-04-18T08:57:10.618Z</time></trkpt><trkpt lat="43.4875789" lon="10.9868005"><ele>437.00000000000006</ele><time>2026-04-18T08:57:11.613Z</time></trkpt><trkpt lat="43.4875447" lon="10.9866753"><ele>437.00000000000006</ele><time>2026-04-18T08:57:12.606Z</time></trkpt><trkpt lat="43.4875041" lon="10.986557"><ele>437.0</ele><time>2026-04-18T08:57:13.61Z</time></trkpt><trkpt lat="43.4874689" lon="10.9864364"><ele>437.0</ele><time>2026-04-18T08:57:14.608Z</time></trkpt><trkpt lat="43.4874263" lon="10.9863152"><ele>438.40000000000003</ele><time>2026-04-18T08:57:15.604Z</time></trkpt><trkpt lat="43.4873753" lon="10.986187"><ele>439.80000000000007</ele><time>2026-04-18T08:57:16.604Z</time></trkpt><trkpt lat="43.4873172" lon="10.986056"><ele>441.2</ele><time>2026-04-18T08:57:17.599Z</time></trkpt><trkpt lat="43.4872516" lon="10.9859306"><ele>442.6</ele><time>2026-04-18T08:57:18.597Z</time></trkpt><trkpt lat="43.487175" lon="10.9858255"><ele>444.0</ele><time>2026-04-18T08:57:19.598Z</time></trkpt><trkpt lat="43.4871052" lon="10.9857386"><ele>444.79999999999995</ele><time>2026-04-18T08:57:20.603Z</time></trkpt><trkpt lat="43.4870337" lon="10.9856582"><ele>445.59999999999997</ele><time>2026-04-18T08:57:21.604Z</time></trkpt><trkpt lat="43.4869496" lon="10.9855761"><ele>446.4</ele><time>2026-04-18T08:57:22.607Z</time></trkpt><trkpt lat="43.4868776" lon="10.9854723"><ele>447.2</ele><time>2026-04-18T08:57:23.606Z</time></trkpt><trkpt lat="43.4868164" lon="10.9853505"><ele>448.0</ele><time>2026-04-18T08:57:24.602Z</time></trkpt><trkpt lat="43.4867493" lon="10.9852275"><ele>448.0</ele><time>2026-04-18T08:57:25.613Z</time></trkpt><trkpt lat="43.4866871" lon="10.9851036"><ele>447.99999999999994</ele><time>2026-04-18T08:57:26.607Z</time></trkpt><trkpt lat="43.486635" lon="10.9849799"><ele>447.99999999999994</ele><time>2026-04-18T08:57:27.605Z</time></trkpt><trkpt lat="43.4865855" lon="10.9848543"><ele>448.0</ele><time>2026-04-18T08:57:28.605Z</time></trkpt><trkpt lat="43.4865197" lon="10.9847292"><ele>448.0</ele><time>2026-04-18T08:57:29.6Z</time></trkpt><trkpt lat="43.4864522" lon="10.9846257"><ele>447.75</ele><time>2026-04-18T08:57:30.597Z</time></trkpt><trkpt lat="43.4863843" lon="10.9845141"><ele>447.5</ele><time>2026-04-18T08:57:31.59Z</time></trkpt><trkpt lat="43.4863104" lon="10.9844001"><ele>447.25</ele><time>2026-04-18T08:57:32.6Z</time></trkpt><trkpt lat="43.4862234" lon="10.984298"><ele>447.0</ele><time>2026-04-18T08:57:33.596Z</time></trkpt><trkpt lat="43.4861262" lon="10.9841959"><ele>443.75</ele><time>2026-04-18T08:57:34.605Z</time></trkpt><trkpt lat="43.4860269" lon="10.9841036"><ele>440.5</ele><time>2026-04-18T08:57:35.596Z</time></trkpt><trkpt lat="43.4859305" lon="10.9840165"><ele>437.25</ele><time>2026-04-18T08:57:36.599Z</time></trkpt><trkpt lat="43.4858461" lon="10.9839233"><ele>434.0</ele><time>2026-04-18T08:57:37.597Z</time></trkpt><trkpt lat="43.4857509" lon="10.9838554"><ele>434.0</ele><time>2026-04-18T08:57:38.598Z</time></trkpt><trkpt lat="43.4856441" lon="10.9838043"><ele>434.0</ele><time>2026-04-18T08:57:39.603Z</time></trkpt><trkpt lat="43.4855322" lon="10.9837538"><ele>434.0</ele><time>2026-04-18T08:57:40.59Z</time></trkpt><trkpt lat="43.4854159" lon="10.9837"><ele>434.0</ele><time>2026-04-18T08:57:41.592Z</time></trkpt><trkpt lat="43.4852832" lon="10.983652"><ele>430.5</ele><time>2026-04-18T08:57:42.596Z</time></trkpt><trkpt lat="43.4851531" lon="10.983618"><ele>427.0</ele><time>2026-04-18T08:57:43.595Z</time></trkpt><trkpt lat="43.4850298" lon="10.983603"><ele>423.5</ele><time>2026-04-18T08:57:44.586Z</time></trkpt><trkpt lat="43.4849206" lon="10.9835739"><ele>420.0</ele><time>2026-04-18T08:57:45.595Z</time></trkpt><trkpt lat="43.4848086" lon="10.9835318"><ele>420.0</ele><time>2026-04-18T08:57:46.598Z</time></trkpt><trkpt lat="43.484692" lon="10.9834575"><ele>420.0</ele><time>2026-04-18T08:57:47.6Z</time></trkpt><trkpt lat="43.484576" lon="10.9833632"><ele>420.0</ele><time>2026-04-18T08:57:48.604Z</time></trkpt><trkpt lat="43.4844767" lon="10.9832741"><ele>420.0</ele><time>2026-04-18T08:57:49.609Z</time></trkpt><trkpt lat="43.4843902" lon="10.9832006"><ele>417.8</ele><time>2026-04-18T08:57:50.609Z</time></trkpt><trkpt lat="43.4843102" lon="10.9831419"><ele>415.6</ele><time>2026-04-18T08:57:51.62Z</time></trkpt><trkpt lat="43.4842244" lon="10.9830897"><ele>413.4</ele><time>2026-04-18T08:57:52.612Z</time></trkpt><trkpt lat="43.4841424" lon="10.9830347"><ele>411.2</ele><time>2026-04-18T08:57:53.605Z</time></trkpt><trkpt lat="43.4840643" lon="10.9829537"><ele>409.0</ele><time>2026-04-18T08:57:54.606Z</time></trkpt><trkpt lat="43.4839978" lon="10.9828579"><ele>409.0</ele><time>2026-04-18T08:57:55.61Z</time></trkpt><trkpt lat="43.4839343" lon="10.9827672"><ele>409.0</ele><time>2026-04-18T08:57:56.608Z</time></trkpt><trkpt lat="43.4838889" lon="10.9826669"><ele>409.0</ele><time>2026-04-18T08:57:57.615Z</time></trkpt><trkpt lat="43.4838665" lon="10.9825491"><ele>409.0</ele><time>2026-04-18T08:57:58.612Z</time></trkpt><trkpt lat="43.4838693" lon="10.9824115"><ele>409.0</ele><time>2026-04-18T08:57:59.614Z</time></trkpt><trkpt lat="43.4838874" lon="10.982287"><ele>411.0</ele><time>2026-04-18T08:58:00.606Z</time></trkpt><trkpt lat="43.4839181" lon="10.9821643"><ele>413.0</ele><time>2026-04-18T08:58:01.603Z</time></trkpt><trkpt lat="43.4839713" lon="10.9820564"><ele>415.0</ele><time>2026-04-18T08:58:02.605Z</time></trkpt><trkpt lat="43.4840342" lon="10.9819484"><ele>417.0</ele><time>2026-04-18T08:58:03.606Z</time></trkpt><trkpt lat="43.4841059" lon="10.9818388"><ele>419.0</ele><time>2026-04-18T08:58:04.607Z</time></trkpt><trkpt lat="43.4841787" lon="10.9817402"><ele>417.3333333333333</ele><time>2026-04-18T08:58:05.603Z</time></trkpt><trkpt lat="43.4842515" lon="10.9816508"><ele>415.66666666666663</ele><time>2026-04-18T08:58:06.611Z</time></trkpt><trkpt lat="43.4843239" lon="10.9815751"><ele>414.0</ele><time>2026-04-18T08:58:07.603Z</time></trkpt><trkpt lat="43.4843751" lon="10.9814966"><ele>412.33333333333337</ele><time>2026-04-18T08:58:08.599Z</time></trkpt><trkpt lat="43.4844161" lon="10.9813954"><ele>410.6666666666667</ele><time>2026-04-18T08:58:09.593Z</time></trkpt><trkpt lat="43.4844469" lon="10.9812792"><ele>409.0</ele><time>2026-04-18T08:58:10.611Z</time></trkpt><trkpt lat="43.4844552" lon="10.9811446"><ele>409.0</ele><time>2026-04-18T08:58:11.589Z</time></trkpt><trkpt lat="43.4844702" lon="10.9810268"><ele>409.0</ele><time>2026-04-18T08:58:12.585Z</time></trkpt><trkpt lat="43.4845013" lon="10.9809277"><ele>409.0</ele><time>2026-04-18T08:58:13.601Z</time></trkpt><trkpt lat="43.484529" lon="10.9808365"><ele>409.0</ele><time>2026-04-18T08:58:14.592Z</time></trkpt><trkpt lat="43.4845494" lon="10.9807434"><ele>409.0</ele><time>2026-04-18T08:58:15.59Z</time></trkpt><trkpt lat="43.484563" lon="10.9806464"><ele>409.0</ele><time>2026-04-18T08:58:16.599Z</time></trkpt><trkpt lat="43.4845622" lon="10.9805506"><ele>409.0</ele><time>2026-04-18T08:58:17.597Z</time></trkpt><trkpt lat="43.4844658" lon="10.9804509"><ele>408.0</ele><time>2026-04-18T08:58:19.592Z</time></trkpt><trkpt lat="43.484384" lon="10.9804588"><ele>407.0</ele><time>2026-04-18T08:58:20.588Z</time></trkpt><trkpt lat="43.4842848" lon="10.980503"><ele>406.0</ele><time>2026-04-18T08:58:21.59Z</time></trkpt><trkpt lat="43.4841937" lon="10.9805468"><ele>405.0</ele><time>2026-04-18T08:58:22.591Z</time></trkpt><trkpt lat="43.4841071" lon="10.9805958"><ele>404.0</ele><time>2026-04-18T08:58:23.599Z</time></trkpt><trkpt lat="43.4839971" lon="10.9806384"><ele>404.0</ele><time>2026-04-18T08:58:24.586Z</time></trkpt><trkpt lat="43.4838947" lon="10.9806625"><ele>404.0</ele><time>2026-04-18T08:58:25.596Z</time></trkpt><trkpt lat="43.4837908" lon="10.9806652"><ele>404.0</ele><time>2026-04-18T08:58:26.591Z</time></trkpt><trkpt lat="43.4836885" lon="10.9806343"><ele>404.0</ele><time>2026-04-18T08:58:27.592Z</time></trkpt><trkpt lat="43.4836098" lon="10.9806001"><ele>404.0</ele><time>2026-04-18T08:58:28.605Z</time></trkpt><trkpt lat="43.4835226" lon="10.980593"><ele>402.0</ele><time>2026-04-18T08:58:29.598Z</time></trkpt><trkpt lat="43.4834412" lon="10.9805963"><ele>400.0</ele><time>2026-04-18T08:58:30.596Z</time></trkpt><trkpt lat="43.4833553" lon="10.9806434"><ele>398.0</ele><time>2026-04-18T08:58:31.591Z</time></trkpt><trkpt lat="43.4832639" lon="10.9807205"><ele>396.0</ele><time>2026-04-18T08:58:32.601Z</time></trkpt><trkpt lat="43.4831712" lon="10.9808272"><ele>394.0</ele><time>2026-04-18T08:58:33.589Z</time></trkpt><trkpt lat="43.4830897" lon="10.9809338"><ele>392.6</ele><time>2026-04-18T08:58:34.596Z</time></trkpt><trkpt lat="43.4830158" lon="10.9810323"><ele>391.2</ele><time>2026-04-18T08:58:35.586Z</time></trkpt><trkpt lat="43.4829446" lon="10.9811311"><ele>389.8</ele><time>2026-04-18T08:58:36.592Z</time></trkpt><trkpt lat="43.4828723" lon="10.9812187"><ele>388.40000000000003</ele><time>2026-04-18T08:58:37.584Z</time></trkpt><trkpt lat="43.4827895" lon="10.9812922"><ele>387.0</ele><time>2026-04-18T08:58:38.593Z</time></trkpt><trkpt lat="43.4826695" lon="10.9812869"><ele>386.8333333333333</ele><time>2026-04-18T08:58:40.592Z</time></trkpt><trkpt lat="43.4826086" lon="10.9812349"><ele>386.66666666666663</ele><time>2026-04-18T08:58:41.624Z</time></trkpt><trkpt lat="43.4825633" lon="10.9811511"><ele>386.5</ele><time>2026-04-18T08:58:42.597Z</time></trkpt><trkpt lat="43.4825436" lon="10.9810303"><ele>386.3333333333333</ele><time>2026-04-18T08:58:43.601Z</time></trkpt><trkpt lat="43.4825375" lon="10.9808867"><ele>386.16666666666663</ele><time>2026-04-18T08:58:44.604Z</time></trkpt><trkpt lat="43.4825613" lon="10.9807528"><ele>386.0</ele><time>2026-04-18T08:58:45.596Z</time></trkpt><trkpt lat="43.4825665" lon="10.9806291"><ele>386.0</ele><time>2026-04-18T08:58:46.593Z</time></trkpt><trkpt lat="43.4825404" lon="10.9805146"><ele>386.0</ele><time>2026-04-18T08:58:47.599Z</time></trkpt><trkpt lat="43.4824883" lon="10.9804088"><ele>386.0</ele><time>2026-04-18T08:58:48.595Z</time></trkpt><trkpt lat="43.4824069" lon="10.9803544"><ele>386.0</ele><time>2026-04-18T08:58:49.607Z</time></trkpt><trkpt lat="43.4823074" lon="10.9803339"><ele>386.0</ele><time>2026-04-18T08:58:50.597Z</time></trkpt><trkpt lat="43.4822154" lon="10.9803028"><ele>386.0</ele><time>2026-04-18T08:58:51.597Z</time></trkpt><trkpt lat="43.4821403" lon="10.9802678"><ele>386.0</ele><time>2026-04-18T08:58:52.602Z</time></trkpt><trkpt lat="43.482066" lon="10.9802198"><ele>386.0</ele><time>2026-04-18T08:58:53.594Z</time></trkpt><trkpt lat="43.4819858" lon="10.9801386"><ele>386.0</ele><time>2026-04-18T08:58:54.596Z</time></trkpt><trkpt lat="43.4819213" lon="10.9800203"><ele>386.0</ele><time>2026-04-18T08:58:55.602Z</time></trkpt><trkpt lat="43.481847" lon="10.9799005"><ele>384.4</ele><time>2026-04-18T08:58:56.604Z</time></trkpt><trkpt lat="43.4817653" lon="10.9797858"><ele>382.8</ele><time>2026-04-18T08:58:57.598Z</time></trkpt><trkpt lat="43.4816935" lon="10.9796691"><ele>381.2</ele><time>2026-04-18T08:58:58.6Z</time></trkpt><trkpt lat="43.4816327" lon="10.9795625"><ele>379.59999999999997</ele><time>2026-04-18T08:58:59.615Z</time></trkpt><trkpt lat="43.4815752" lon="10.9794767"><ele>378.0</ele><time>2026-04-18T08:59:00.609Z</time></trkpt><trkpt lat="43.4815351" lon="10.9793883"><ele>378.0</ele><time>2026-04-18T08:59:01.608Z</time></trkpt><trkpt lat="43.481519" lon="10.9792925"><ele>378.0</ele><time>2026-04-18T08:59:02.612Z</time></trkpt><trkpt lat="43.4815308" lon="10.9791956"><ele>378.0</ele><time>2026-04-18T08:59:03.599Z</time></trkpt><trkpt lat="43.4815674" lon="10.9790878"><ele>378.0</ele><time>2026-04-18T08:59:04.605Z</time></trkpt><trkpt lat="43.4816279" lon="10.9789593"><ele>378.0</ele><time>2026-04-18T08:59:05.612Z</time></trkpt><trkpt lat="43.4816971" lon="10.9788151"><ele>378.2</ele><time>2026-04-18T08:59:06.617Z</time></trkpt><trkpt lat="43.4817388" lon="10.9786811"><ele>378.4</ele><time>2026-04-18T08:59:07.61Z</time></trkpt><trkpt lat="43.481763" lon="10.9785358"><ele>378.59999999999997</ele><time>2026-04-18T08:59:08.618Z</time></trkpt><trkpt lat="43.4817775" lon="10.9783846"><ele>378.79999999999995</ele><time>2026-04-18T08:59:09.618Z</time></trkpt><trkpt lat="43.4817919" lon="10.9782202"><ele>379.0</ele><time>2026-04-18T08:59:10.61Z</time></trkpt><trkpt lat="43.4817902" lon="10.9780577"><ele>377.79999999999995</ele><time>2026-04-18T08:59:11.61Z</time></trkpt><trkpt lat="43.4817726" lon="10.9779173"><ele>376.59999999999997</ele><time>2026-04-18T08:59:12.632Z</time></trkpt><trkpt lat="43.481754" lon="10.9777829"><ele>375.4</ele><time>2026-04-18T08:59:13.625Z</time></trkpt><trkpt lat="43.4817193" lon="10.9776481"><ele>374.2</ele><time>2026-04-18T08:59:14.623Z</time></trkpt><trkpt lat="43.4816677" lon="10.977517"><ele>373.0</ele><time>2026-04-18T08:59:15.617Z</time></trkpt><trkpt lat="43.481613" lon="10.9774012"><ele>372.5</ele><time>2026-04-18T08:59:16.623Z</time></trkpt><trkpt lat="43.4815727" lon="10.9772824"><ele>372.0</ele><time>2026-04-18T08:59:17.611Z</time></trkpt><trkpt lat="43.4815616" lon="10.9771341"><ele>371.5</ele><time>2026-04-18T08:59:18.608Z</time></trkpt><trkpt lat="43.4815694" lon="10.9769659"><ele>371.0</ele><time>2026-04-18T08:59:19.604Z</time></trkpt><trkpt lat="43.4815859" lon="10.97679"><ele>370.6666666666667</ele><time>2026-04-18T08:59:20.601Z</time></trkpt><trkpt lat="43.4816068" lon="10.9766475"><ele>370.33333333333337</ele><time>2026-04-18T08:59:21.597Z</time></trkpt><trkpt lat="43.4816201" lon="10.9765311"><ele>370.0</ele><time>2026-04-18T08:59:22.589Z</time></trkpt><trkpt lat="43.4816132" lon="10.9764315"><ele>369.6666666666667</ele><time>2026-04-18T08:59:23.601Z</time></trkpt><trkpt lat="43.4815804" lon="10.9763473"><ele>369.3333333333333</ele><time>2026-04-18T08:59:24.603Z</time></trkpt><trkpt lat="43.4815263" lon="10.9763004"><ele>369.0</ele><time>2026-04-18T08:59:25.617Z</time></trkpt><trkpt lat="43.4814459" lon="10.9762994"><ele>369.0</ele><time>2026-04-18T08:59:26.602Z</time></trkpt><trkpt lat="43.4813572" lon="10.9763228"><ele>369.0</ele><time>2026-04-18T08:59:27.6Z</time></trkpt><trkpt lat="43.4812525" lon="10.97638"><ele>369.0</ele><time>2026-04-18T08:59:28.606Z</time></trkpt><trkpt lat="43.4811436" lon="10.9764289"><ele>369.0</ele><time>2026-04-18T08:59:29.596Z</time></trkpt><trkpt lat="43.4810465" lon="10.9764633"><ele>369.0</ele><time>2026-04-18T08:59:30.598Z</time></trkpt><trkpt lat="43.4809467" lon="10.9764789"><ele>369.6</ele><time>2026-04-18T08:59:31.609Z</time></trkpt><trkpt lat="43.4808394" lon="10.9764547"><ele>370.2</ele><time>2026-04-18T08:59:32.599Z</time></trkpt><trkpt lat="43.480742" lon="10.976405"><ele>370.8</ele><time>2026-04-18T08:59:33.601Z</time></trkpt><trkpt lat="43.4806483" lon="10.9763402"><ele>371.40000000000003</ele><time>2026-04-18T08:59:34.607Z</time></trkpt><trkpt lat="43.4805701" lon="10.9762338"><ele>372.0</ele><time>2026-04-18T08:59:35.603Z</time></trkpt><trkpt lat="43.4805016" lon="10.9761131"><ele>372.0</ele><time>2026-04-18T08:59:36.602Z</time></trkpt><trkpt lat="43.480442" lon="10.9759966"><ele>372.0</ele><time>2026-04-18T08:59:37.601Z</time></trkpt><trkpt lat="43.4803806" lon="10.9758962"><ele>372.0</ele><time>2026-04-18T08:59:38.586Z</time></trkpt><trkpt lat="43.480305" lon="10.9758287"><ele>372.0</ele><time>2026-04-18T08:59:39.599Z</time></trkpt><trkpt lat="43.4802075" lon="10.9757975"><ele>372.0</ele><time>2026-04-18T08:59:40.616Z</time></trkpt><trkpt lat="43.4801057" lon="10.9757587"><ele>373.8333333333333</ele><time>2026-04-18T08:59:41.6Z</time></trkpt><trkpt lat="43.480012" lon="10.975693"><ele>375.6666666666667</ele><time>2026-04-18T08:59:42.605Z</time></trkpt><trkpt lat="43.4799412" lon="10.9756248"><ele>377.5</ele><time>2026-04-18T08:59:43.603Z</time></trkpt><trkpt lat="43.4798852" lon="10.9755461"><ele>379.33333333333337</ele><time>2026-04-18T08:59:45.605Z</time></trkpt><trkpt lat="43.4798466" lon="10.9754681"><ele>381.1666666666667</ele><time>2026-04-18T09:01:19.634Z</time></trkpt><trkpt lat="43.4798479" lon="10.9753757"><ele>383.0</ele><time>2026-04-18T09:01:23.634Z</time></trkpt><trkpt lat="43.4798121" lon="10.9752828"><ele>383.0</ele><time>2026-04-18T09:01:29.625Z</time></trkpt><trkpt lat="43.4797772" lon="10.9751944"><ele>383.0</ele><time>2026-04-18T09:01:33.629Z</time></trkpt><trkpt lat="43.4797656" lon="10.9750839"><ele>383.0</ele><time>2026-04-18T09:01:38.63Z</time></trkpt><trkpt lat="43.4797383" lon="10.9750051"><ele>383.0</ele><time>2026-04-18T09:01:41.612Z</time></trkpt><trkpt lat="43.4797175" lon="10.9749069"><ele>383.0</ele><time>2026-04-18T09:01:45.608Z</time></trkpt><trkpt lat="43.4797079" lon="10.9747941"><ele>383.0</ele><time>2026-04-18T09:01:47.633Z</time></trkpt><trkpt lat="43.4796816" lon="10.9746933"><ele>382.83333333333337</ele><time>2026-04-18T09:01:49.614Z</time></trkpt><trkpt lat="43.4796566" lon="10.9746018"><ele>382.6666666666667</ele><time>2026-04-18T09:01:51.628Z</time></trkpt><trkpt lat="43.4796146" lon="10.9745266"><ele>382.5</ele><time>2026-04-18T09:01:53.629Z</time></trkpt><trkpt lat="43.4795489" lon="10.9744604"><ele>382.3333333333333</ele><time>2026-04-18T09:01:56.619Z</time></trkpt><trkpt lat="43.4794627" lon="10.974385"><ele>382.16666666666663</ele><time>2026-04-18T09:01:58.628Z</time></trkpt><trkpt lat="43.4793836" lon="10.9743064"><ele>382.0</ele><time>2026-04-18T09:02:00.632Z</time></trkpt><trkpt lat="43.4793068" lon="10.9742474"><ele>382.6</ele><time>2026-04-18T09:02:02.62Z</time></trkpt><trkpt lat="43.4792199" lon="10.9741944"><ele>383.20000000000005</ele><time>2026-04-18T09:02:04.615Z</time></trkpt><trkpt lat="43.4791451" lon="10.9741071"><ele>383.8</ele><time>2026-04-18T09:02:06.609Z</time></trkpt><trkpt lat="43.4790961" lon="10.9740047"><ele>384.4</ele><time>2026-04-18T09:02:08.602Z</time></trkpt><trkpt lat="43.4790095" lon="10.973954"><ele>385.0</ele><time>2026-04-18T09:02:11.614Z</time></trkpt><trkpt lat="43.4789258" lon="10.9738965"><ele>385.00000000000006</ele><time>2026-04-18T09:02:13.61Z</time></trkpt><trkpt lat="43.4788487" lon="10.9738441"><ele>385.0</ele><time>2026-04-18T09:02:16.609Z</time></trkpt><trkpt lat="43.4788326" lon="10.9737502"><ele>385.0</ele><time>2026-04-18T09:02:23.623Z</time></trkpt><trkpt lat="43.4787931" lon="10.9736595"><ele>385.0</ele><time>2026-04-18T09:02:34.605Z</time></trkpt><trkpt lat="43.4787568" lon="10.9735645"><ele>385.00000000000006</ele><time>2026-04-18T09:02:36.604Z</time></trkpt><trkpt lat="43.4787088" lon="10.973463"><ele>385.0</ele><time>2026-04-18T09:02:38.6Z</time></trkpt><trkpt lat="43.4786446" lon="10.9733875"><ele>386.00000000000006</ele><time>2026-04-18T09:02:41.608Z</time></trkpt><trkpt lat="43.4786041" lon="10.9732913"><ele>387.0</ele><time>2026-04-18T09:02:43.599Z</time></trkpt><trkpt lat="43.4785834" lon="10.9731576"><ele>388.0</ele><time>2026-04-18T09:02:45.604Z</time></trkpt><trkpt lat="43.4785801" lon="10.9730664"><ele>389.0</ele><time>2026-04-18T09:02:50.613Z</time></trkpt><trkpt lat="43.4785634" lon="10.9729668"><ele>390.00000000000006</ele><time>2026-04-18T09:02:54.616Z</time></trkpt><trkpt lat="43.4785437" lon="10.9728575"><ele>391.0</ele><time>2026-04-18T09:02:57.614Z</time></trkpt><trkpt lat="43.478519" lon="10.9727526"><ele>391.0</ele><time>2026-04-18T09:02:59.594Z</time></trkpt><trkpt lat="43.4784693" lon="10.972599"><ele>391.0</ele><time>2026-04-18T09:03:01.608Z</time></trkpt><trkpt lat="43.4783944" lon="10.972477"><ele>391.0</ele><time>2026-04-18T09:03:03.617Z</time></trkpt><trkpt lat="43.4783315" lon="10.9723814"><ele>391.0</ele><time>2026-04-18T09:03:05.621Z</time></trkpt><trkpt lat="43.4782505" lon="10.9722996"><ele>391.0</ele><time>2026-04-18T09:03:07.619Z</time></trkpt><trkpt lat="43.4781744" lon="10.972235"><ele>390.2857142857143</ele><time>2026-04-18T09:03:09.615Z</time></trkpt><trkpt lat="43.4781145" lon="10.9721895"><ele>389.57142857142856</ele><time>2026-04-18T09:03:13.613Z</time></trkpt><trkpt lat="43.4780606" lon="10.9721372"><ele>388.8571428571429</ele><time>2026-04-18T09:03:15.611Z</time></trkpt><trkpt lat="43.4779923" lon="10.9721271"><ele>388.1428571428571</ele><time>2026-04-18T09:03:17.608Z</time></trkpt><trkpt lat="43.4779229" lon="10.9721202"><ele>387.42857142857144</ele><time>2026-04-18T09:03:20.624Z</time></trkpt><trkpt lat="43.4778663" lon="10.9720624"><ele>386.7142857142857</ele><time>2026-04-18T09:03:22.611Z</time></trkpt><trkpt lat="43.477778" lon="10.9719903"><ele>386.0</ele><time>2026-04-18T09:03:24.608Z</time></trkpt><trkpt lat="43.4776985" lon="10.9719706"><ele>385.99999999999994</ele><time>2026-04-18T09:03:26.599Z</time></trkpt><trkpt lat="43.4776072" lon="10.9719827"><ele>386.0</ele><time>2026-04-18T09:03:28.608Z</time></trkpt><trkpt lat="43.4775302" lon="10.9719655"><ele>386.0</ele><time>2026-04-18T09:03:30.61Z</time></trkpt><trkpt lat="43.4774701" lon="10.971915"><ele>386.0</ele><time>2026-04-18T09:03:32.607Z</time></trkpt><trkpt lat="43.4774449" lon="10.971805"><ele>385.99999999999994</ele><time>2026-04-18T09:03:34.609Z</time></trkpt><trkpt lat="43.4774341" lon="10.971713"><ele>386.0</ele><time>2026-04-18T09:03:35.608Z</time></trkpt><trkpt lat="43.4774035" lon="10.9715725"><ele>384.8333333333333</ele><time>2026-04-18T09:03:37.62Z</time></trkpt><trkpt lat="43.4773696" lon="10.9714659"><ele>383.66666666666663</ele><time>2026-04-18T09:03:40.622Z</time></trkpt><trkpt lat="43.4773725" lon="10.9713748"><ele>382.5</ele><time>2026-04-18T09:03:43.612Z</time></trkpt><trkpt lat="43.4774183" lon="10.9712774"><ele>381.3333333333333</ele><time>2026-04-18T09:03:46.614Z</time></trkpt><trkpt lat="43.4774905" lon="10.9712171"><ele>380.16666666666663</ele><time>2026-04-18T09:03:50.611Z</time></trkpt><trkpt lat="43.4775436" lon="10.9711692"><ele>379.0</ele><time>2026-04-18T09:03:53.618Z</time></trkpt><trkpt lat="43.4775862" lon="10.9710921"><ele>379.0</ele><time>2026-04-18T09:03:56.615Z</time></trkpt><trkpt lat="43.4776355" lon="10.970984"><ele>379.0</ele><time>2026-04-18T09:03:58.617Z</time></trkpt><trkpt lat="43.4777017" lon="10.9708698"><ele>379.0</ele><time>2026-04-18T09:04:00.616Z</time></trkpt><trkpt lat="43.4777349" lon="10.970746"><ele>379.0</ele><time>2026-04-18T09:04:03.617Z</time></trkpt><trkpt lat="43.4777672" lon="10.9706208"><ele>379.0</ele><time>2026-04-18T09:04:05.62Z</time></trkpt><trkpt lat="43.4778253" lon="10.9704575"><ele>378.8333333333333</ele><time>2026-04-18T09:04:07.617Z</time></trkpt><trkpt lat="43.4778579" lon="10.9703571"><ele>378.66666666666663</ele><time>2026-04-18T09:04:08.618Z</time></trkpt><trkpt lat="43.4778996" lon="10.9702535"><ele>378.5</ele><time>2026-04-18T09:04:09.613Z</time></trkpt><trkpt lat="43.4779383" lon="10.9701171"><ele>378.3333333333333</ele><time>2026-04-18T09:04:11.62Z</time></trkpt><trkpt lat="43.4779677" lon="10.9700056"><ele>378.1666666666667</ele><time>2026-04-18T09:04:13.614Z</time></trkpt><trkpt lat="43.4779532" lon="10.969882"><ele>378.0</ele><time>2026-04-18T09:04:15.618Z</time></trkpt><trkpt lat="43.4778976" lon="10.9697791"><ele>379.2857142857143</ele><time>2026-04-18T09:04:17.625Z</time></trkpt><trkpt lat="43.4778513" lon="10.969697"><ele>380.57142857142856</ele><time>2026-04-18T09:04:19.611Z</time></trkpt><trkpt lat="43.4777856" lon="10.9697426"><ele>381.8571428571429</ele><time>2026-04-18T09:04:24.615Z</time></trkpt><trkpt lat="43.4777105" lon="10.9697947"><ele>383.1428571428571</ele><time>2026-04-18T09:04:26.612Z</time></trkpt><trkpt lat="43.4776491" lon="10.9698249"><ele>384.42857142857144</ele><time>2026-04-18T09:04:27.625Z</time></trkpt><trkpt lat="43.4775748" lon="10.9698495"><ele>385.7142857142857</ele><time>2026-04-18T09:04:28.618Z</time></trkpt><trkpt lat="43.4775073" lon="10.9698606"><ele>387.0</ele><time>2026-04-18T09:04:29.611Z</time></trkpt><trkpt lat="43.4774085" lon="10.9698628"><ele>387.0</ele><time>2026-04-18T09:04:31.607Z</time></trkpt><trkpt lat="43.477334" lon="10.9698514"><ele>387.0</ele><time>2026-04-18T09:04:33.609Z</time></trkpt><trkpt lat="43.4772708" lon="10.9698408"><ele>387.0</ele><time>2026-04-18T09:04:35.612Z</time></trkpt><trkpt lat="43.4771709" lon="10.9698273"><ele>387.0</ele><time>2026-04-18T09:04:38.613Z</time></trkpt><trkpt lat="43.4771046" lon="10.969779"><ele>387.0</ele><time>2026-04-18T09:04:43.607Z</time></trkpt><trkpt lat="43.4770384" lon="10.969708"><ele>387.0</ele><time>2026-04-18T09:04:47.609Z</time></trkpt><trkpt lat="43.4769761" lon="10.969666"><ele>388.8</ele><time>2026-04-18T09:04:54.606Z</time></trkpt><trkpt lat="43.4769111" lon="10.969696"><ele>390.6</ele><time>2026-04-18T09:05:04.597Z</time></trkpt><trkpt lat="43.4768236" lon="10.9696862"><ele>392.40000000000003</ele><time>2026-04-18T09:05:06.605Z</time></trkpt><trkpt lat="43.4767145" lon="10.9697067"><ele>394.20000000000005</ele><time>2026-04-18T09:05:08.605Z</time></trkpt><trkpt lat="43.4765929" lon="10.9697498"><ele>396.0</ele><time>2026-04-18T09:05:10.605Z</time></trkpt><trkpt lat="43.476528" lon="10.9697447"><ele>396.0</ele><time>2026-04-18T09:05:11.606Z</time></trkpt><trkpt lat="43.4764207" lon="10.9697458"><ele>396.0</ele><time>2026-04-18T09:05:13.594Z</time></trkpt><trkpt lat="43.4763568" lon="10.9697309"><ele>396.0</ele><time>2026-04-18T09:05:14.612Z</time></trkpt><trkpt lat="43.476298" lon="10.969671"><ele>396.0</ele><time>2026-04-18T09:05:16.612Z</time></trkpt><trkpt lat="43.4762374" lon="10.9696028"><ele>396.0</ele><time>2026-04-18T09:05:21.613Z</time></trkpt><trkpt lat="43.4761653" lon="10.9695827"><ele>396.0</ele><time>2026-04-18T09:05:24.617Z</time></trkpt><trkpt lat="43.4760621" lon="10.9696131"><ele>397.3333333333333</ele><time>2026-04-18T09:05:26.606Z</time></trkpt><trkpt lat="43.4759936" lon="10.9696355"><ele>398.66666666666663</ele><time>2026-04-18T09:05:27.602Z</time></trkpt><trkpt lat="43.4759225" lon="10.9696579"><ele>400.0</ele><time>2026-04-18T09:05:28.6Z</time></trkpt><trkpt lat="43.4758398" lon="10.969674"><ele>401.3333333333333</ele><time>2026-04-18T09:05:29.599Z</time></trkpt><trkpt lat="43.4757573" lon="10.9696937"><ele>402.66666666666663</ele><time>2026-04-18T09:05:30.596Z</time></trkpt><trkpt lat="43.4756875" lon="10.9697214"><ele>404.0</ele><time>2026-04-18T09:05:31.592Z</time></trkpt><trkpt lat="43.4756135" lon="10.9697194"><ele>403.99999999999994</ele><time>2026-04-18T09:05:32.597Z</time></trkpt><trkpt lat="43.4755396" lon="10.9697019"><ele>404.0</ele><time>2026-04-18T09:05:33.595Z</time></trkpt><trkpt lat="43.4754668" lon="10.9696693"><ele>404.0</ele><time>2026-04-18T09:05:34.595Z</time></trkpt><trkpt lat="43.4753827" lon="10.9696423"><ele>404.0</ele><time>2026-04-18T09:05:35.597Z</time></trkpt><trkpt lat="43.4752961" lon="10.9696081"><ele>403.99999999999994</ele><time>2026-04-18T09:05:36.6Z</time></trkpt><trkpt lat="43.4752227" lon="10.9695848"><ele>404.0</ele><time>2026-04-18T09:05:37.596Z</time></trkpt><trkpt lat="43.4751418" lon="10.9695677"><ele>405.6</ele><time>2026-04-18T09:05:38.594Z</time></trkpt><trkpt lat="43.4750363" lon="10.9695806"><ele>407.2</ele><time>2026-04-18T09:05:40.605Z</time></trkpt><trkpt lat="43.4749251" lon="10.9695311"><ele>408.8</ele><time>2026-04-18T09:05:42.61Z</time></trkpt><trkpt lat="43.4748682" lon="10.9694812"><ele>410.40000000000003</ele><time>2026-04-18T09:05:43.609Z</time></trkpt><trkpt lat="43.4748077" lon="10.9694302"><ele>412.0</ele><time>2026-04-18T09:05:44.622Z</time></trkpt><trkpt lat="43.4747112" lon="10.9693891"><ele>412.00000000000006</ele><time>2026-04-18T09:05:46.603Z</time></trkpt><trkpt lat="43.4746373" lon="10.9693704"><ele>412.0</ele><time>2026-04-18T09:05:49.608Z</time></trkpt><trkpt lat="43.4745446" lon="10.9693988"><ele>412.0</ele><time>2026-04-18T09:06:11.59Z</time></trkpt><trkpt lat="43.474478" lon="10.9693837"><ele>412.0</ele><time>2026-04-18T09:06:12.593Z</time></trkpt><trkpt lat="43.4744084" lon="10.9693363"><ele>412.00000000000006</ele><time>2026-04-18T09:06:13.588Z</time></trkpt><trkpt lat="43.4743329" lon="10.9692672"><ele>412.0</ele><time>2026-04-18T09:06:14.596Z</time></trkpt><trkpt lat="43.4742629" lon="10.9691941"><ele>413.85714285714283</ele><time>2026-04-18T09:06:15.591Z</time></trkpt><trkpt lat="43.4742111" lon="10.9691308"><ele>415.7142857142857</ele><time>2026-04-18T09:06:16.6Z</time></trkpt><trkpt lat="43.4741678" lon="10.9690589"><ele>417.57142857142856</ele><time>2026-04-18T09:06:17.594Z</time></trkpt><trkpt lat="43.4741243" lon="10.9689852"><ele>419.42857142857144</ele><time>2026-04-18T09:06:18.606Z</time></trkpt><trkpt lat="43.4740729" lon="10.9689139"><ele>421.2857142857143</ele><time>2026-04-18T09:06:19.616Z</time></trkpt><trkpt lat="43.4740095" lon="10.9688733"><ele>423.1428571428571</ele><time>2026-04-18T09:06:20.601Z</time></trkpt><trkpt lat="43.4739357" lon="10.9688588"><ele>425.0</ele><time>2026-04-18T09:06:21.609Z</time></trkpt><trkpt lat="43.4738665" lon="10.968865"><ele>426.0</ele><time>2026-04-18T09:06:22.599Z</time></trkpt><trkpt lat="43.4737692" lon="10.9689149"><ele>427.0</ele><time>2026-04-18T09:06:24.602Z</time></trkpt><trkpt lat="43.4737181" lon="10.968824"><ele>428.0</ele><time>2026-04-18T09:06:27.605Z</time></trkpt><trkpt lat="43.473688" lon="10.9687298"><ele>429.0</ele><time>2026-04-18T09:06:29.599Z</time></trkpt><trkpt lat="43.4736292" lon="10.9686265"><ele>430.0</ele><time>2026-04-18T09:06:31.593Z</time></trkpt><trkpt lat="43.4735944" lon="10.9684824"><ele>429.2</ele><time>2026-04-18T09:06:33.597Z</time></trkpt><trkpt lat="43.4735608" lon="10.9683527"><ele>428.4</ele><time>2026-04-18T09:06:35.604Z</time></trkpt><trkpt lat="43.4735041" lon="10.9682001"><ele>427.6</ele><time>2026-04-18T09:06:37.596Z</time></trkpt><trkpt lat="43.4734639" lon="10.9680949"><ele>426.8</ele><time>2026-04-18T09:06:38.593Z</time></trkpt><trkpt lat="43.4734144" lon="10.9679993"><ele>426.0</ele><time>2026-04-18T09:06:39.587Z</time></trkpt><trkpt lat="43.4733582" lon="10.9678936"><ele>426.0</ele><time>2026-04-18T09:06:40.586Z</time></trkpt><trkpt lat="43.4733151" lon="10.9677968"><ele>426.0</ele><time>2026-04-18T09:06:41.59Z</time></trkpt><trkpt lat="43.4732771" lon="10.9677094"><ele>426.0</ele><time>2026-04-18T09:06:42.591Z</time></trkpt><trkpt lat="43.4732429" lon="10.9676026"><ele>426.0</ele><time>2026-04-18T09:06:43.586Z</time></trkpt><trkpt lat="43.4732302" lon="10.9675051"><ele>426.0</ele><time>2026-04-18T09:06:44.593Z</time></trkpt><trkpt lat="43.4732279" lon="10.9674127"><ele>426.0</ele><time>2026-04-18T09:06:45.592Z</time></trkpt><trkpt lat="43.4732273" lon="10.9672732"><ele>425.3333333333333</ele><time>2026-04-18T09:06:47.594Z</time></trkpt><trkpt lat="43.4732612" lon="10.9671601"><ele>424.66666666666663</ele><time>2026-04-18T09:06:49.592Z</time></trkpt><trkpt lat="43.47324" lon="10.9670606"><ele>424.0</ele><time>2026-04-18T09:06:51.597Z</time></trkpt><trkpt lat="43.4731828" lon="10.9669654"><ele>423.3333333333333</ele><time>2026-04-18T09:06:53.608Z</time></trkpt><trkpt lat="43.4731349" lon="10.9668179"><ele>422.66666666666663</ele><time>2026-04-18T09:06:55.598Z</time></trkpt><trkpt lat="43.4731113" lon="10.966715"><ele>422.0</ele><time>2026-04-18T09:06:56.596Z</time></trkpt><trkpt lat="43.47309" lon="10.9666146"><ele>420.99999999999994</ele><time>2026-04-18T09:06:57.621Z</time></trkpt><trkpt lat="43.4730627" lon="10.9665358"><ele>420.0</ele><time>2026-04-18T09:06:58.608Z</time></trkpt><trkpt lat="43.4730354" lon="10.966446"><ele>419.0</ele><time>2026-04-18T09:06:59.606Z</time></trkpt><trkpt lat="43.4730321" lon="10.9663442"><ele>418.0</ele><time>2026-04-18T09:07:00.604Z</time></trkpt><trkpt lat="43.4730444" lon="10.9662493"><ele>416.99999999999994</ele><time>2026-04-18T09:07:01.601Z</time></trkpt><trkpt lat="43.4730665" lon="10.966156"><ele>416.0</ele><time>2026-04-18T09:07:02.601Z</time></trkpt><trkpt lat="43.4731181" lon="10.966028"><ele>415.99999999999994</ele><time>2026-04-18T09:07:04.615Z</time></trkpt><trkpt lat="43.4731719" lon="10.9659293"><ele>416.0</ele><time>2026-04-18T09:07:06.622Z</time></trkpt><trkpt lat="43.4732412" lon="10.96591"><ele>416.0</ele><time>2026-04-18T09:07:08.617Z</time></trkpt><trkpt lat="43.4733188" lon="10.9658973"><ele>416.0</ele><time>2026-04-18T09:07:10.612Z</time></trkpt><trkpt lat="43.4734004" lon="10.9658482"><ele>415.99999999999994</ele><time>2026-04-18T09:07:12.611Z</time></trkpt><trkpt lat="43.4734684" lon="10.9657947"><ele>416.0</ele><time>2026-04-18T09:07:14.609Z</time></trkpt><trkpt lat="43.4735011" lon="10.9657057"><ele>414.8333333333333</ele><time>2026-04-18T09:07:16.61Z</time></trkpt><trkpt lat="43.4734602" lon="10.9656088"><ele>413.66666666666663</ele><time>2026-04-18T09:07:18.611Z</time></trkpt><trkpt lat="43.4733654" lon="10.9655048"><ele>412.5</ele><time>2026-04-18T09:07:20.614Z</time></trkpt><trkpt lat="43.4732896" lon="10.9654456"><ele>411.33333333333337</ele><time>2026-04-18T09:07:22.615Z</time></trkpt><trkpt lat="43.4732099" lon="10.9654223"><ele>410.1666666666667</ele><time>2026-04-18T09:07:25.615Z</time></trkpt><trkpt lat="43.473228" lon="10.9653326"><ele>409.0</ele><time>2026-04-18T09:07:29.612Z</time></trkpt><trkpt lat="43.4732983" lon="10.9652813"><ele>409.00000000000006</ele><time>2026-04-18T09:07:32.609Z</time></trkpt><trkpt lat="43.4733978" lon="10.9652803"><ele>409.0</ele><time>2026-04-18T09:07:35.607Z</time></trkpt><trkpt lat="43.4735062" lon="10.965332"><ele>409.0</ele><time>2026-04-18T09:07:37.61Z</time></trkpt><trkpt lat="43.4735628" lon="10.9653925"><ele>409.0</ele><time>2026-04-18T09:07:38.606Z</time></trkpt><trkpt lat="43.4736059" lon="10.9654686"><ele>409.00000000000006</ele><time>2026-04-18T09:07:39.612Z</time></trkpt><trkpt lat="43.4736392" lon="10.9655499"><ele>409.0</ele><time>2026-04-18T09:07:40.612Z</time></trkpt><trkpt lat="43.4737087" lon="10.9656508"><ele>406.4</ele><time>2026-04-18T09:07:42.612Z</time></trkpt><trkpt lat="43.4737912" lon="10.9656507"><ele>403.79999999999995</ele><time>2026-04-18T09:07:44.61Z</time></trkpt><trkpt lat="43.4738766" lon="10.9655968"><ele>401.20000000000005</ele><time>2026-04-18T09:07:46.608Z</time></trkpt><trkpt lat="43.4739441" lon="10.9655325"><ele>398.6</ele><time>2026-04-18T09:07:48.604Z</time></trkpt><trkpt lat="43.4740338" lon="10.9654265"><ele>396.0</ele><time>2026-04-18T09:07:50.605Z</time></trkpt><trkpt lat="43.4741209" lon="10.9653223"><ele>396.0</ele><time>2026-04-18T09:07:52.609Z</time></trkpt><trkpt lat="43.4741962" lon="10.9652754"><ele>396.0</ele><time>2026-04-18T09:07:54.605Z</time></trkpt><trkpt lat="43.4742283" lon="10.9651913"><ele>396.0</ele><time>2026-04-18T09:07:56.611Z</time></trkpt><trkpt lat="43.4742407" lon="10.9650994"><ele>396.0</ele><time>2026-04-18T09:07:58.614Z</time></trkpt><trkpt lat="43.4742331" lon="10.9649692"><ele>396.0</ele><time>2026-04-18T09:08:01.618Z</time></trkpt><trkpt lat="43.4742233" lon="10.9648593"><ele>396.0</ele><time>2026-04-18T09:08:03.61Z</time></trkpt><trkpt lat="43.4742264" lon="10.9647579"><ele>395.1666666666667</ele><time>2026-04-18T09:08:05.607Z</time></trkpt><trkpt lat="43.4742349" lon="10.9646289"><ele>394.33333333333337</ele><time>2026-04-18T09:08:07.609Z</time></trkpt><trkpt lat="43.4742527" lon="10.9644801"><ele>393.5</ele><time>2026-04-18T09:08:09.605Z</time></trkpt><trkpt lat="43.4742778" lon="10.9643464"><ele>392.6666666666667</ele><time>2026-04-18T09:08:11.604Z</time></trkpt><trkpt lat="43.4742739" lon="10.9642572"><ele>391.83333333333337</ele><time>2026-04-18T09:08:13.6Z</time></trkpt><trkpt lat="43.4742204" lon="10.9641975"><ele>391.0</ele><time>2026-04-18T09:08:15.599Z</time></trkpt><trkpt lat="43.4741075" lon="10.9641016"><ele>390.1666666666667</ele><time>2026-04-18T09:08:17.607Z</time></trkpt><trkpt lat="43.4740443" lon="10.9640304"><ele>389.33333333333337</ele><time>2026-04-18T09:08:18.602Z</time></trkpt><trkpt lat="43.4739915" lon="10.9639701"><ele>388.5</ele><time>2026-04-18T09:08:19.6Z</time></trkpt><trkpt lat="43.4739143" lon="10.9638673"><ele>387.66666666666663</ele><time>2026-04-18T09:08:21.597Z</time></trkpt><trkpt lat="43.4738377" lon="10.9637793"><ele>386.8333333333333</ele><time>2026-04-18T09:08:23.593Z</time></trkpt><trkpt lat="43.4737773" lon="10.9637479"><ele>386.0</ele><time>2026-04-18T09:08:27.601Z</time></trkpt><trkpt lat="43.473759" lon="10.9636536"><ele>385.99999999999994</ele><time>2026-04-18T09:08:39.597Z</time></trkpt><trkpt lat="43.4737758" lon="10.9635572"><ele>386.0</ele><time>2026-04-18T09:08:41.597Z</time></trkpt><trkpt lat="43.4737759" lon="10.9634632"><ele>386.0</ele><time>2026-04-18T09:09:35.609Z</time></trkpt><trkpt lat="43.473751" lon="10.9633747"><ele>386.0</ele><time>2026-04-18T09:09:37.609Z</time></trkpt><trkpt lat="43.4736947" lon="10.9632662"><ele>385.99999999999994</ele><time>2026-04-18T09:09:39.608Z</time></trkpt><trkpt lat="43.4736876" lon="10.9631559"><ele>386.0</ele><time>2026-04-18T09:09:44.608Z</time></trkpt><trkpt lat="43.4736584" lon="10.9630575"><ele>385.8333333333333</ele><time>2026-04-18T09:09:46.601Z</time></trkpt><trkpt lat="43.4735988" lon="10.9629359"><ele>385.66666666666663</ele><time>2026-04-18T09:09:48.597Z</time></trkpt><trkpt lat="43.4735602" lon="10.9628524"><ele>385.5</ele><time>2026-04-18T09:09:53.603Z</time></trkpt><trkpt lat="43.4735521" lon="10.9627615"><ele>385.33333333333337</ele><time>2026-04-18T09:09:55.604Z</time></trkpt><trkpt lat="43.4735306" lon="10.962637"><ele>385.1666666666667</ele><time>2026-04-18T09:09:57.599Z</time></trkpt><trkpt lat="43.4735111" lon="10.962522"><ele>385.0</ele><time>2026-04-18T09:09:59.603Z</time></trkpt><trkpt lat="43.4735208" lon="10.9623857"><ele>385.00000000000006</ele><time>2026-04-18T09:10:01.6Z</time></trkpt><trkpt lat="43.4735441" lon="10.9622684"><ele>385.0</ele><time>2026-04-18T09:10:03.616Z</time></trkpt><trkpt lat="43.4735731" lon="10.9621403"><ele>385.0</ele><time>2026-04-18T09:10:05.61Z</time></trkpt><trkpt lat="43.4735799" lon="10.9620429"><ele>385.0</ele><time>2026-04-18T09:10:08.606Z</time></trkpt><trkpt lat="43.4735169" lon="10.9619886"><ele>385.00000000000006</ele><time>2026-04-18T09:10:11.614Z</time></trkpt><trkpt lat="43.4734343" lon="10.961968"><ele>385.0</ele><time>2026-04-18T09:10:14.617Z</time></trkpt><trkpt lat="43.4733614" lon="10.9619329"><ele>385.00000000000006</ele><time>2026-04-18T09:10:17.605Z</time></trkpt><trkpt lat="43.4733005" lon="10.9618952"><ele>385.0</ele><time>2026-04-18T09:10:19.608Z</time></trkpt><trkpt lat="43.473229" lon="10.9618513"><ele>385.0</ele><time>2026-04-18T09:10:21.601Z</time></trkpt><trkpt lat="43.4731628" lon="10.9617764"><ele>385.0</ele><time>2026-04-18T09:10:23.601Z</time></trkpt><trkpt lat="43.4730839" lon="10.9616975"><ele>385.00000000000006</ele><time>2026-04-18T09:10:25.604Z</time></trkpt><trkpt lat="43.4730009" lon="10.9616795"><ele>385.0</ele><time>2026-04-18T09:10:27.601Z</time></trkpt><trkpt lat="43.4729198" lon="10.9616423"><ele>386.2</ele><time>2026-04-18T09:10:32.602Z</time></trkpt><trkpt lat="43.472847" lon="10.9616327"><ele>387.4</ele><time>2026-04-18T09:10:34.629Z</time></trkpt><trkpt lat="43.4727615" lon="10.9616265"><ele>388.6</ele><time>2026-04-18T09:10:36.608Z</time></trkpt><trkpt lat="43.4726754" lon="10.9616303"><ele>389.8</ele><time>2026-04-18T09:10:38.597Z</time></trkpt><trkpt lat="43.4725485" lon="10.9616068"><ele>391.0</ele><time>2026-04-18T09:10:40.605Z</time></trkpt><trkpt lat="43.4724395" lon="10.9615822"><ele>391.0</ele><time>2026-04-18T09:10:42.614Z</time></trkpt><trkpt lat="43.4723511" lon="10.9615894"><ele>391.0</ele><time>2026-04-18T09:10:44.617Z</time></trkpt><trkpt lat="43.4722742" lon="10.9615842"><ele>391.0</ele><time>2026-04-18T09:10:46.628Z</time></trkpt><trkpt lat="43.4721916" lon="10.9615973"><ele>391.0</ele><time>2026-04-18T09:10:48.617Z</time></trkpt><trkpt lat="43.4720978" lon="10.9616502"><ele>391.0</ele><time>2026-04-18T09:10:50.601Z</time></trkpt><trkpt lat="43.4719853" lon="10.9616862"><ele>390.0</ele><time>2026-04-18T09:10:52.606Z</time></trkpt><trkpt lat="43.4719099" lon="10.9617163"><ele>389.0</ele><time>2026-04-18T09:10:54.606Z</time></trkpt><trkpt lat="43.4718265" lon="10.9617714"><ele>388.0</ele><time>2026-04-18T09:10:56.604Z</time></trkpt><trkpt lat="43.4717537" lon="10.9618363"><ele>387.0</ele><time>2026-04-18T09:10:58.608Z</time></trkpt><trkpt lat="43.4716579" lon="10.9618915"><ele>386.0</ele><time>2026-04-18T09:11:01.598Z</time></trkpt><trkpt lat="43.4715675" lon="10.9619279"><ele>386.00000000000006</ele><time>2026-04-18T09:11:03.605Z</time></trkpt><trkpt lat="43.4715028" lon="10.9619435"><ele>386.0</ele><time>2026-04-18T09:11:05.622Z</time></trkpt><trkpt lat="43.4714461" lon="10.9618824"><ele>386.0</ele><time>2026-04-18T09:11:07.599Z</time></trkpt><trkpt lat="43.4714125" lon="10.9617791"><ele>386.0</ele><time>2026-04-18T09:11:09.603Z</time></trkpt><trkpt lat="43.4714129" lon="10.9616661"><ele>386.0</ele><time>2026-04-18T09:11:11.607Z</time></trkpt><trkpt lat="43.4713935" lon="10.9615753"><ele>386.00000000000006</ele><time>2026-04-18T09:11:13.603Z</time></trkpt><trkpt lat="43.4713315" lon="10.961553"><ele>386.0</ele><time>2026-04-18T09:11:15.601Z</time></trkpt><trkpt lat="43.4712491" lon="10.9615744"><ele>387.49999999999994</ele><time>2026-04-18T09:11:17.609Z</time></trkpt><trkpt lat="43.4711808" lon="10.9615623"><ele>389.0</ele><time>2026-04-18T09:11:19.599Z</time></trkpt><trkpt lat="43.4710988" lon="10.9615354"><ele>390.5</ele><time>2026-04-18T09:11:22.604Z</time></trkpt><trkpt lat="43.4710264" lon="10.9615378"><ele>392.0</ele><time>2026-04-18T09:11:24.602Z</time></trkpt><trkpt lat="43.4709417" lon="10.9615762"><ele>393.49999999999994</ele><time>2026-04-18T09:11:26.598Z</time></trkpt><trkpt lat="43.470812" lon="10.9615862"><ele>395.0</ele><time>2026-04-18T09:11:28.602Z</time></trkpt><trkpt lat="43.47074" lon="10.96159"><ele>395.0</ele><time>2026-04-18T09:11:29.608Z</time></trkpt><trkpt lat="43.4706693" lon="10.9615879"><ele>395.0</ele><time>2026-04-18T09:11:30.597Z</time></trkpt><trkpt lat="43.4706016" lon="10.9615881"><ele>395.0</ele><time>2026-04-18T09:11:31.597Z</time></trkpt><trkpt lat="43.4705326" lon="10.9615798"><ele>395.0</ele><time>2026-04-18T09:11:32.604Z</time></trkpt><trkpt lat="43.4704541" lon="10.9615633"><ele>395.0</ele><time>2026-04-18T09:11:33.604Z</time></trkpt><trkpt lat="43.4703676" lon="10.9615509"><ele>395.0</ele><time>2026-04-18T09:11:34.603Z</time></trkpt><trkpt lat="43.4702944" lon="10.9615443"><ele>395.0</ele><time>2026-04-18T09:11:35.605Z</time></trkpt><trkpt lat="43.4702285" lon="10.9615252"><ele>394.8</ele><time>2026-04-18T09:11:36.614Z</time></trkpt><trkpt lat="43.4701172" lon="10.9615458"><ele>394.6</ele><time>2026-04-18T09:11:38.617Z</time></trkpt><trkpt lat="43.4700236" lon="10.9616009"><ele>394.4</ele><time>2026-04-18T09:11:40.599Z</time></trkpt><trkpt lat="43.4699637" lon="10.9616533"><ele>394.2</ele><time>2026-04-18T09:11:43.602Z</time></trkpt><trkpt lat="43.4698823" lon="10.9617296"><ele>394.0</ele><time>2026-04-18T09:11:45.6Z</time></trkpt><trkpt lat="43.469776" lon="10.9618264"><ele>394.00000000000006</ele><time>2026-04-18T09:11:47.598Z</time></trkpt><trkpt lat="43.4697144" lon="10.9618603"><ele>394.0</ele><time>2026-04-18T09:11:48.596Z</time></trkpt><trkpt lat="43.46962" lon="10.9619028"><ele>394.0</ele><time>2026-04-18T09:11:50.596Z</time></trkpt><trkpt lat="43.4695321" lon="10.96193"><ele>394.0</ele><time>2026-04-18T09:11:52.603Z</time></trkpt><trkpt lat="43.4694547" lon="10.9619107"><ele>394.00000000000006</ele><time>2026-04-18T09:11:54.603Z</time></trkpt><trkpt lat="43.469348" lon="10.9619047"><ele>394.0</ele><time>2026-04-18T09:11:56.602Z</time></trkpt><trkpt lat="43.4692478" lon="10.9619046"><ele>396.00000000000006</ele><time>2026-04-18T09:11:58.605Z</time></trkpt><trkpt lat="43.4691406" lon="10.961831"><ele>398.0</ele><time>2026-04-18T09:12:00.606Z</time></trkpt><trkpt lat="43.4690916" lon="10.9617671"><ele>400.0</ele><time>2026-04-18T09:12:01.597Z</time></trkpt><trkpt lat="43.4690327" lon="10.9617337"><ele>402.0</ele><time>2026-04-18T09:12:02.597Z</time></trkpt><trkpt lat="43.4689699" lon="10.9617095"><ele>404.00000000000006</ele><time>2026-04-18T09:12:03.602Z</time></trkpt><trkpt lat="43.4689065" lon="10.9616868"><ele>406.0</ele><time>2026-04-18T09:12:04.605Z</time></trkpt><trkpt lat="43.4688127" lon="10.9616064"><ele>408.0</ele><time>2026-04-18T09:12:06.607Z</time></trkpt><trkpt lat="43.4687278" lon="10.9615236"><ele>410.0</ele><time>2026-04-18T09:12:08.603Z</time></trkpt><trkpt lat="43.4686416" lon="10.9614765"><ele>412.0</ele><time>2026-04-18T09:12:10.595Z</time></trkpt><trkpt lat="43.4685502" lon="10.961446"><ele>414.0</ele><time>2026-04-18T09:12:12.597Z</time></trkpt><trkpt lat="43.4684428" lon="10.96137"><ele>416.0</ele><time>2026-04-18T09:12:14.601Z</time></trkpt><trkpt lat="43.4683791" lon="10.9612862"><ele>415.99999999999994</ele><time>2026-04-18T09:12:16.602Z</time></trkpt><trkpt lat="43.4683316" lon="10.9612101"><ele>416.0</ele><time>2026-04-18T09:12:19.602Z</time></trkpt><trkpt lat="43.4682449" lon="10.9612284"><ele>416.0</ele><time>2026-04-18T09:12:21.608Z</time></trkpt><trkpt lat="43.468134" lon="10.9612917"><ele>416.0</ele><time>2026-04-18T09:12:23.603Z</time></trkpt><trkpt lat="43.468063" lon="10.9613408"><ele>415.99999999999994</ele><time>2026-04-18T09:12:24.602Z</time></trkpt><trkpt lat="43.4680045" lon="10.9613901"><ele>416.0</ele><time>2026-04-18T09:12:25.601Z</time></trkpt><trkpt lat="43.4679143" lon="10.9614824"><ele>418.0</ele><time>2026-04-18T09:12:27.605Z</time></trkpt><trkpt lat="43.467825" lon="10.9615943"><ele>420.0</ele><time>2026-04-18T09:12:29.61Z</time></trkpt><trkpt lat="43.4677601" lon="10.9617419"><ele>422.0</ele><time>2026-04-18T09:12:31.607Z</time></trkpt><trkpt lat="43.4676986" lon="10.9618767"><ele>424.0</ele><time>2026-04-18T09:12:33.607Z</time></trkpt><trkpt lat="43.4676041" lon="10.9619745"><ele>424.6</ele><time>2026-04-18T09:12:35.606Z</time></trkpt><trkpt lat="43.4675491" lon="10.9620252"><ele>425.2</ele><time>2026-04-18T09:12:36.608Z</time></trkpt><trkpt lat="43.4674707" lon="10.9621321"><ele>425.80000000000007</ele><time>2026-04-18T09:12:38.617Z</time></trkpt><trkpt lat="43.467395" lon="10.9622013"><ele>426.40000000000003</ele><time>2026-04-18T09:12:40.592Z</time></trkpt><trkpt lat="43.4673374" lon="10.9622415"><ele>427.0</ele><time>2026-04-18T09:12:41.6Z</time></trkpt><trkpt lat="43.4672007" lon="10.9623054"><ele>427.0</ele><time>2026-04-18T09:12:43.605Z</time></trkpt><trkpt lat="43.467123" lon="10.9623468"><ele>427.00000000000006</ele><time>2026-04-18T09:12:44.603Z</time></trkpt><trkpt lat="43.4670557" lon="10.9623781"><ele>427.00000000000006</ele><time>2026-04-18T09:12:45.597Z</time></trkpt><trkpt lat="43.4669528" lon="10.9624433"><ele>427.0</ele><time>2026-04-18T09:12:47.593Z</time></trkpt><trkpt lat="43.466864" lon="10.9624755"><ele>427.0</ele><time>2026-04-18T09:12:49.584Z</time></trkpt><trkpt lat="43.466745" lon="10.9624574"><ele>426.50000000000006</ele><time>2026-04-18T09:12:51.598Z</time></trkpt><trkpt lat="43.466686" lon="10.9624213"><ele>426.0</ele><time>2026-04-18T09:12:52.597Z</time></trkpt><trkpt lat="43.4665929" lon="10.9623822"><ele>425.5</ele><time>2026-04-18T09:12:54.593Z</time></trkpt><trkpt lat="43.4664983" lon="10.9624145"><ele>425.0</ele><time>2026-04-18T09:12:56.592Z</time></trkpt><trkpt lat="43.4664356" lon="10.9624448"><ele>424.50000000000006</ele><time>2026-04-18T09:12:57.595Z</time></trkpt><trkpt lat="43.4663631" lon="10.962453"><ele>424.0</ele><time>2026-04-18T09:12:58.595Z</time></trkpt><trkpt lat="43.4662869" lon="10.9624335"><ele>423.6</ele><time>2026-04-18T09:12:59.598Z</time></trkpt><trkpt lat="43.4662057" lon="10.9623825"><ele>423.2</ele><time>2026-04-18T09:13:00.592Z</time></trkpt><trkpt lat="43.4661243" lon="10.962323"><ele>422.8</ele><time>2026-04-18T09:13:01.596Z</time></trkpt><trkpt lat="43.4660346" lon="10.9622752"><ele>422.40000000000003</ele><time>2026-04-18T09:13:02.594Z</time></trkpt><trkpt lat="43.4659311" lon="10.9622383"><ele>422.0</ele><time>2026-04-18T09:13:03.591Z</time></trkpt><trkpt lat="43.465826" lon="10.9622104"><ele>422.0</ele><time>2026-04-18T09:13:04.591Z</time></trkpt><trkpt lat="43.4657224" lon="10.9621808"><ele>422.0</ele><time>2026-04-18T09:13:05.592Z</time></trkpt><trkpt lat="43.4656192" lon="10.9621514"><ele>422.0</ele><time>2026-04-18T09:13:06.596Z</time></trkpt><trkpt lat="43.4655086" lon="10.9621136"><ele>422.0</ele><time>2026-04-18T09:13:07.594Z</time></trkpt><trkpt lat="43.4654082" lon="10.9620622"><ele>422.0</ele><time>2026-04-18T09:13:08.591Z</time></trkpt><trkpt lat="43.4653112" lon="10.9620131"><ele>422.8</ele><time>2026-04-18T09:13:09.619Z</time></trkpt><trkpt lat="43.4652099" lon="10.9619775"><ele>423.6</ele><time>2026-04-18T09:13:10.593Z</time></trkpt><trkpt lat="43.4651058" lon="10.9619582"><ele>424.40000000000003</ele><time>2026-04-18T09:13:11.594Z</time></trkpt><trkpt lat="43.4650052" lon="10.9619158"><ele>425.20000000000005</ele><time>2026-04-18T09:13:12.592Z</time></trkpt><trkpt lat="43.4649078" lon="10.9618778"><ele>426.0</ele><time>2026-04-18T09:13:13.591Z</time></trkpt><trkpt lat="43.4648157" lon="10.9618383"><ele>426.0</ele><time>2026-04-18T09:13:14.597Z</time></trkpt><trkpt lat="43.4647275" lon="10.9618043"><ele>426.0</ele><time>2026-04-18T09:13:15.596Z</time></trkpt><trkpt lat="43.4646388" lon="10.9617669"><ele>426.0</ele><time>2026-04-18T09:13:16.602Z</time></trkpt><trkpt lat="43.4645542" lon="10.9617282"><ele>426.0</ele><time>2026-04-18T09:13:17.597Z</time></trkpt><trkpt lat="43.4644863" lon="10.9616987"><ele>426.0</ele><time>2026-04-18T09:13:18.598Z</time></trkpt><trkpt lat="43.4644136" lon="10.9616754"><ele>426.0</ele><time>2026-04-18T09:13:19.599Z</time></trkpt><trkpt lat="43.4643444" lon="10.9616692"><ele>426.8333333333333</ele><time>2026-04-18T09:13:20.6Z</time></trkpt><trkpt lat="43.4642777" lon="10.9616751"><ele>427.66666666666663</ele><time>2026-04-18T09:13:21.613Z</time></trkpt><trkpt lat="43.4642044" lon="10.9616992"><ele>428.5</ele><time>2026-04-18T09:13:22.609Z</time></trkpt><trkpt lat="43.4641337" lon="10.9617383"><ele>429.3333333333333</ele><time>2026-04-18T09:13:23.605Z</time></trkpt><trkpt lat="43.4640638" lon="10.9617945"><ele>430.16666666666663</ele><time>2026-04-18T09:13:24.6Z</time></trkpt><trkpt lat="43.4640018" lon="10.9618593"><ele>431.0</ele><time>2026-04-18T09:13:25.601Z</time></trkpt><trkpt lat="43.4639401" lon="10.9619231"><ele>430.99999999999994</ele><time>2026-04-18T09:13:26.595Z</time></trkpt><trkpt lat="43.4638736" lon="10.9619901"><ele>431.0</ele><time>2026-04-18T09:13:27.604Z</time></trkpt><trkpt lat="43.4637958" lon="10.9620404"><ele>431.0</ele><time>2026-04-18T09:13:28.605Z</time></trkpt><trkpt lat="43.4637164" lon="10.962094"><ele>431.0</ele><time>2026-04-18T09:13:29.582Z</time></trkpt><trkpt lat="43.4636501" lon="10.962161"><ele>430.99999999999994</ele><time>2026-04-18T09:13:30.585Z</time></trkpt><trkpt lat="43.4635879" lon="10.9622372"><ele>431.0</ele><time>2026-04-18T09:13:31.584Z</time></trkpt><trkpt lat="43.4635375" lon="10.9623211"><ele>433.3333333333333</ele><time>2026-04-18T09:13:32.596Z</time></trkpt><trkpt lat="43.463486" lon="10.9624056"><ele>435.66666666666663</ele><time>2026-04-18T09:13:33.597Z</time></trkpt><trkpt lat="43.46344" lon="10.9624785"><ele>438.0</ele><time>2026-04-18T09:13:34.598Z</time></trkpt><trkpt lat="43.4633917" lon="10.9625524"><ele>440.33333333333337</ele><time>2026-04-18T09:13:35.596Z</time></trkpt><trkpt lat="43.4633566" lon="10.9626376"><ele>442.6666666666667</ele><time>2026-04-18T09:13:36.595Z</time></trkpt><trkpt lat="43.4633203" lon="10.9627387"><ele>445.0</ele><time>2026-04-18T09:13:37.602Z</time></trkpt><trkpt lat="43.4632837" lon="10.9628406"><ele>445.00000000000006</ele><time>2026-04-18T09:13:38.602Z</time></trkpt><trkpt lat="43.4632385" lon="10.9629266"><ele>445.0</ele><time>2026-04-18T09:13:39.607Z</time></trkpt><trkpt lat="43.4631784" lon="10.963052"><ele>445.0</ele><time>2026-04-18T09:13:41.596Z</time></trkpt><trkpt lat="43.4631156" lon="10.9630913"><ele>445.0</ele><time>2026-04-18T09:13:43.597Z</time></trkpt><trkpt lat="43.4630557" lon="10.9630479"><ele>445.00000000000006</ele><time>2026-04-18T09:28:03.625Z</time></trkpt><trkpt lat="43.4630695" lon="10.9629211"><ele>445.0</ele><time>2026-04-18T09:28:09.616Z</time></trkpt><trkpt lat="43.4630478" lon="10.9627923"><ele>445.00000000000006</ele><time>2026-04-18T09:28:11.618Z</time></trkpt><trkpt lat="43.4630169" lon="10.9626969"><ele>445.0</ele><time>2026-04-18T09:28:12.612Z</time></trkpt><trkpt lat="43.4629909" lon="10.9626027"><ele>445.0</ele><time>2026-04-18T09:28:13.61Z</time></trkpt><trkpt lat="43.4629747" lon="10.9624827"><ele>445.0</ele><time>2026-04-18T09:28:14.618Z</time></trkpt><trkpt lat="43.4629623" lon="10.9623667"><ele>445.00000000000006</ele><time>2026-04-18T09:28:15.6Z</time></trkpt><trkpt lat="43.4629599" lon="10.9622677"><ele>445.0</ele><time>2026-04-18T09:28:16.62Z</time></trkpt><trkpt lat="43.4629579" lon="10.9621326"><ele>446.33333333333337</ele><time>2026-04-18T09:28:18.621Z</time></trkpt><trkpt lat="43.4629356" lon="10.962039"><ele>447.6666666666667</ele><time>2026-04-18T09:28:20.622Z</time></trkpt><trkpt lat="43.4628403" lon="10.9619512"><ele>449.0</ele><time>2026-04-18T09:28:22.607Z</time></trkpt><trkpt lat="43.4627662" lon="10.9619045"><ele>450.33333333333337</ele><time>2026-04-18T09:28:23.616Z</time></trkpt><trkpt lat="43.4626843" lon="10.9618793"><ele>451.6666666666667</ele><time>2026-04-18T09:28:24.616Z</time></trkpt><trkpt lat="43.4626052" lon="10.9618537"><ele>453.0</ele><time>2026-04-18T09:28:25.611Z</time></trkpt><trkpt lat="43.4625382" lon="10.9618143"><ele>452.99999999999994</ele><time>2026-04-18T09:28:26.606Z</time></trkpt><trkpt lat="43.4624855" lon="10.9617613"><ele>453.0</ele><time>2026-04-18T09:28:27.608Z</time></trkpt><trkpt lat="43.4624428" lon="10.9616861"><ele>452.99999999999994</ele><time>2026-04-18T09:28:28.62Z</time></trkpt><trkpt lat="43.462399" lon="10.9616054"><ele>452.99999999999994</ele><time>2026-04-18T09:28:29.615Z</time></trkpt><trkpt lat="43.4623527" lon="10.961534"><ele>453.0</ele><time>2026-04-18T09:28:30.619Z</time></trkpt><trkpt lat="43.4623048" lon="10.9614588"><ele>452.99999999999994</ele><time>2026-04-18T09:28:31.612Z</time></trkpt><trkpt lat="43.4622514" lon="10.9613878"><ele>452.99999999999994</ele><time>2026-04-18T09:28:32.61Z</time></trkpt><trkpt lat="43.4621958" lon="10.9613106"><ele>453.2</ele><time>2026-04-18T09:28:33.611Z</time></trkpt><trkpt lat="43.4621413" lon="10.961225"><ele>453.4</ele><time>2026-04-18T09:28:34.616Z</time></trkpt><trkpt lat="43.462092" lon="10.9611548"><ele>453.59999999999997</ele><time>2026-04-18T09:28:35.616Z</time></trkpt><trkpt lat="43.4620441" lon="10.9610924"><ele>453.79999999999995</ele><time>2026-04-18T09:28:36.624Z</time></trkpt><trkpt lat="43.4619327" lon="10.9610193"><ele>454.0</ele><time>2026-04-18T09:28:38.615Z</time></trkpt><trkpt lat="43.4618195" lon="10.9609889"><ele>453.2</ele><time>2026-04-18T09:28:40.608Z</time></trkpt><trkpt lat="43.4616845" lon="10.9609865"><ele>452.4</ele><time>2026-04-18T09:28:42.61Z</time></trkpt><trkpt lat="43.4615957" lon="10.9609944"><ele>451.6</ele><time>2026-04-18T09:28:43.614Z</time></trkpt><trkpt lat="43.4614909" lon="10.9609837"><ele>450.8</ele><time>2026-04-18T09:28:44.614Z</time></trkpt><trkpt lat="43.4614031" lon="10.9609896"><ele>450.0</ele><time>2026-04-18T09:28:45.61Z</time></trkpt><trkpt lat="43.4613282" lon="10.9609903"><ele>450.1428571428572</ele><time>2026-04-18T09:28:46.611Z</time></trkpt><trkpt lat="43.4612619" lon="10.9609783"><ele>450.28571428571433</ele><time>2026-04-18T09:28:47.612Z</time></trkpt><trkpt lat="43.461199" lon="10.9609406"><ele>450.42857142857144</ele><time>2026-04-18T09:28:48.612Z</time></trkpt><trkpt lat="43.4611391" lon="10.9608861"><ele>450.5714285714286</ele><time>2026-04-18T09:28:49.605Z</time></trkpt><trkpt lat="43.4610916" lon="10.9608068"><ele>450.7142857142858</ele><time>2026-04-18T09:28:50.609Z</time></trkpt><trkpt lat="43.4610595" lon="10.9607238"><ele>450.85714285714283</ele><time>2026-04-18T09:28:51.609Z</time></trkpt><trkpt lat="43.4610405" lon="10.9606404"><ele>451.0</ele><time>2026-04-18T09:28:52.605Z</time></trkpt><trkpt lat="43.4610449" lon="10.9604673"><ele>452.1666666666667</ele><time>2026-04-18T09:28:54.616Z</time></trkpt><trkpt lat="43.4610307" lon="10.960345"><ele>453.33333333333337</ele><time>2026-04-18T09:28:55.617Z</time></trkpt><trkpt lat="43.4610083" lon="10.9602367"><ele>454.5</ele><time>2026-04-18T09:28:56.614Z</time></trkpt><trkpt lat="43.4609743" lon="10.9601459"><ele>455.66666666666663</ele><time>2026-04-18T09:28:57.617Z</time></trkpt><trkpt lat="43.4609197" lon="10.9600852"><ele>456.8333333333333</ele><time>2026-04-18T09:28:58.602Z</time></trkpt><trkpt lat="43.460858" lon="10.9600168"><ele>458.0</ele><time>2026-04-18T09:28:59.607Z</time></trkpt><trkpt lat="43.4607957" lon="10.9599803"><ele>459.3333333333333</ele><time>2026-04-18T09:29:00.608Z</time></trkpt><trkpt lat="43.4607255" lon="10.9599759"><ele>460.66666666666663</ele><time>2026-04-18T09:29:01.607Z</time></trkpt><trkpt lat="43.4606487" lon="10.9599641"><ele>462.0</ele><time>2026-04-18T09:29:02.6Z</time></trkpt><trkpt lat="43.4605844" lon="10.9599623"><ele>463.33333333333337</ele><time>2026-04-18T09:29:03.611Z</time></trkpt><trkpt lat="43.46049" lon="10.9599392"><ele>464.6666666666667</ele><time>2026-04-18T09:29:05.611Z</time></trkpt><trkpt lat="43.4603917" lon="10.9598909"><ele>466.0</ele><time>2026-04-18T09:29:07.614Z</time></trkpt><trkpt lat="43.4603312" lon="10.9598329"><ele>466.0</ele><time>2026-04-18T09:29:09.621Z</time></trkpt><trkpt lat="43.4602684" lon="10.9597751"><ele>466.0</ele><time>2026-04-18T09:29:13.617Z</time></trkpt><trkpt lat="43.4601908" lon="10.959714"><ele>466.0</ele><time>2026-04-18T09:29:18.6Z</time></trkpt><trkpt lat="43.4601115" lon="10.9596598"><ele>466.0</ele><time>2026-04-18T09:29:20.611Z</time></trkpt><trkpt lat="43.4599925" lon="10.9596144"><ele>466.0</ele><time>2026-04-18T09:29:22.599Z</time></trkpt><trkpt lat="43.4598732" lon="10.9596377"><ele>466.00000000000006</ele><time>2026-04-18T09:29:24.597Z</time></trkpt><trkpt lat="43.4597994" lon="10.9596982"><ele>466.0</ele><time>2026-04-18T09:29:26.598Z</time></trkpt><trkpt lat="43.4597255" lon="10.9597449"><ele>466.0</ele><time>2026-04-18T09:29:28.594Z</time></trkpt><trkpt lat="43.4596152" lon="10.9597524"><ele>466.0</ele><time>2026-04-18T09:29:30.596Z</time></trkpt><trkpt lat="43.4595484" lon="10.9597444"><ele>466.00000000000006</ele><time>2026-04-18T09:29:31.587Z</time></trkpt><trkpt lat="43.4594826" lon="10.9597493"><ele>466.0</ele><time>2026-04-18T09:29:32.605Z</time></trkpt><trkpt lat="43.459418" lon="10.9597544"><ele>466.8</ele><time>2026-04-18T09:29:33.6Z</time></trkpt><trkpt lat="43.4593146" lon="10.9597621"><ele>467.6</ele><time>2026-04-18T09:29:35.599Z</time></trkpt><trkpt lat="43.4592406" lon="10.9598346"><ele>468.4</ele><time>2026-04-18T09:29:37.61Z</time></trkpt><trkpt lat="43.4591787" lon="10.9599745"><ele>469.2</ele><time>2026-04-18T09:29:39.606Z</time></trkpt><trkpt lat="43.4591259" lon="10.9600242"><ele>470.0</ele><time>2026-04-18T09:29:40.606Z</time></trkpt><trkpt lat="43.4590412" lon="10.9600935"><ele>468.49999999999994</ele><time>2026-04-18T09:29:42.622Z</time></trkpt><trkpt lat="43.4589832" lon="10.9601977"><ele>467.0</ele><time>2026-04-18T09:29:44.614Z</time></trkpt><trkpt lat="43.4589441" lon="10.9603223"><ele>465.5</ele><time>2026-04-18T09:29:46.619Z</time></trkpt><trkpt lat="43.4589325" lon="10.9604514"><ele>464.0</ele><time>2026-04-18T09:29:48.617Z</time></trkpt><trkpt lat="43.458924" lon="10.9605603"><ele>462.49999999999994</ele><time>2026-04-18T09:29:50.614Z</time></trkpt><trkpt lat="43.4589261" lon="10.9606632"><ele>461.0</ele><time>2026-04-18T09:29:52.615Z</time></trkpt><trkpt lat="43.4589223" lon="10.9607865"><ele>459.8333333333333</ele><time>2026-04-18T09:29:54.613Z</time></trkpt><trkpt lat="43.4589026" lon="10.9609034"><ele>458.66666666666663</ele><time>2026-04-18T09:29:56.616Z</time></trkpt><trkpt lat="43.4588657" lon="10.961017"><ele>457.5</ele><time>2026-04-18T09:29:58.617Z</time></trkpt><trkpt lat="43.458827" lon="10.961136"><ele>456.33333333333337</ele><time>2026-04-18T09:30:00.615Z</time></trkpt><trkpt lat="43.4588071" lon="10.9612756"><ele>455.1666666666667</ele><time>2026-04-18T09:30:02.614Z</time></trkpt><trkpt lat="43.4587929" lon="10.9613614"><ele>454.0</ele><time>2026-04-18T09:30:03.612Z</time></trkpt><trkpt lat="43.4587793" lon="10.9614577"><ele>453.83333333333337</ele><time>2026-04-18T09:30:04.613Z</time></trkpt><trkpt lat="43.4587637" lon="10.9615653"><ele>453.6666666666667</ele><time>2026-04-18T09:30:05.617Z</time></trkpt><trkpt lat="43.4587448" lon="10.9616772"><ele>453.5</ele><time>2026-04-18T09:30:06.613Z</time></trkpt><trkpt lat="43.4587175" lon="10.9618035"><ele>453.33333333333337</ele><time>2026-04-18T09:30:07.614Z</time></trkpt><trkpt lat="43.4586901" lon="10.9619225"><ele>453.1666666666667</ele><time>2026-04-18T09:30:08.607Z</time></trkpt><trkpt lat="43.4586608" lon="10.9620177"><ele>453.0</ele><time>2026-04-18T09:30:09.614Z</time></trkpt><trkpt lat="43.4586269" lon="10.9621023"><ele>452.3333333333333</ele><time>2026-04-18T09:30:10.612Z</time></trkpt><trkpt lat="43.4585856" lon="10.9621682"><ele>451.66666666666663</ele><time>2026-04-18T09:30:11.614Z</time></trkpt><trkpt lat="43.4585391" lon="10.9622341"><ele>451.0</ele><time>2026-04-18T09:30:12.627Z</time></trkpt><trkpt lat="43.4584781" lon="10.9623006"><ele>450.3333333333333</ele><time>2026-04-18T09:30:13.617Z</time></trkpt><trkpt lat="43.4584128" lon="10.9623662"><ele>449.66666666666663</ele><time>2026-04-18T09:30:14.615Z</time></trkpt><trkpt lat="43.4583236" lon="10.9624515"><ele>449.0</ele><time>2026-04-18T09:30:16.616Z</time></trkpt><trkpt lat="43.4582638" lon="10.9625536"><ele>448.16666666666663</ele><time>2026-04-18T09:30:18.611Z</time></trkpt><trkpt lat="43.4582556" lon="10.9627197"><ele>447.3333333333333</ele><time>2026-04-18T09:30:20.606Z</time></trkpt><trkpt lat="43.4582735" lon="10.9628239"><ele>446.5</ele><time>2026-04-18T09:30:21.609Z</time></trkpt><trkpt lat="43.4582961" lon="10.9629352"><ele>445.66666666666663</ele><time>2026-04-18T09:30:22.613Z</time></trkpt><trkpt lat="43.4583245" lon="10.9630393"><ele>444.8333333333333</ele><time>2026-04-18T09:30:23.614Z</time></trkpt><trkpt lat="43.4583467" lon="10.9631451"><ele>444.0</ele><time>2026-04-18T09:30:24.613Z</time></trkpt><trkpt lat="43.4583605" lon="10.9632424"><ele>443.0</ele><time>2026-04-18T09:30:25.615Z</time></trkpt><trkpt lat="43.4583783" lon="10.9634218"><ele>442.0</ele><time>2026-04-18T09:30:27.609Z</time></trkpt><trkpt lat="43.4583866" lon="10.9635143"><ele>441.0</ele><time>2026-04-18T09:30:28.611Z</time></trkpt><trkpt lat="43.4583997" lon="10.9636209"><ele>440.0</ele><time>2026-04-18T09:30:29.61Z</time></trkpt><trkpt lat="43.4584182" lon="10.9637242"><ele>439.0</ele><time>2026-04-18T09:30:30.612Z</time></trkpt><trkpt lat="43.4584331" lon="10.9638298"><ele>438.0</ele><time>2026-04-18T09:30:31.614Z</time></trkpt><trkpt lat="43.4584292" lon="10.9639459"><ele>438.0</ele><time>2026-04-18T09:30:32.61Z</time></trkpt><trkpt lat="43.4584105" lon="10.964077"><ele>437.99999999999994</ele><time>2026-04-18T09:30:33.612Z</time></trkpt><trkpt lat="43.4583796" lon="10.9642088"><ele>437.99999999999994</ele><time>2026-04-18T09:30:34.609Z</time></trkpt><trkpt lat="43.458354" lon="10.9643412"><ele>438.0</ele><time>2026-04-18T09:30:35.603Z</time></trkpt><trkpt lat="43.4583303" lon="10.9644916"><ele>438.0</ele><time>2026-04-18T09:30:36.607Z</time></trkpt><trkpt lat="43.4583197" lon="10.9646328"><ele>437.8333333333333</ele><time>2026-04-18T09:30:37.607Z</time></trkpt><trkpt lat="43.4583037" lon="10.9647562"><ele>437.66666666666663</ele><time>2026-04-18T09:30:38.612Z</time></trkpt><trkpt lat="43.4582958" lon="10.9648592"><ele>437.5</ele><time>2026-04-18T09:30:39.602Z</time></trkpt><trkpt lat="43.4582937" lon="10.9650076"><ele>437.3333333333333</ele><time>2026-04-18T09:30:41.611Z</time></trkpt><trkpt lat="43.4582616" lon="10.9651216"><ele>437.16666666666663</ele><time>2026-04-18T09:30:44.606Z</time></trkpt><trkpt lat="43.4581917" lon="10.9651641"><ele>437.0</ele><time>2026-04-18T09:30:46.609Z</time></trkpt><trkpt lat="43.4581023" lon="10.9652065"><ele>436.99999999999994</ele><time>2026-04-18T09:30:48.61Z</time></trkpt><trkpt lat="43.4579934" lon="10.9652663"><ele>437.0</ele><time>2026-04-18T09:30:50.602Z</time></trkpt><trkpt lat="43.4579204" lon="10.9653125"><ele>437.0</ele><time>2026-04-18T09:30:51.6Z</time></trkpt><trkpt lat="43.4578503" lon="10.9653583"><ele>437.0</ele><time>2026-04-18T09:30:52.598Z</time></trkpt><trkpt lat="43.4577737" lon="10.9654053"><ele>436.99999999999994</ele><time>2026-04-18T09:30:53.595Z</time></trkpt><trkpt lat="43.4577064" lon="10.9654592"><ele>437.0</ele><time>2026-04-18T09:30:54.597Z</time></trkpt><trkpt lat="43.4576484" lon="10.9655076"><ele>434.66666666666663</ele><time>2026-04-18T09:30:55.597Z</time></trkpt><trkpt lat="43.4575985" lon="10.9655682"><ele>432.3333333333333</ele><time>2026-04-18T09:30:56.597Z</time></trkpt><trkpt lat="43.4575462" lon="10.9656331"><ele>430.0</ele><time>2026-04-18T09:30:57.601Z</time></trkpt><trkpt lat="43.4574569" lon="10.9657109"><ele>427.66666666666663</ele><time>2026-04-18T09:30:59.603Z</time></trkpt><trkpt lat="43.4573966" lon="10.9658054"><ele>425.3333333333333</ele><time>2026-04-18T09:31:02.612Z</time></trkpt><trkpt lat="43.4573608" lon="10.9658857"><ele>423.0</ele><time>2026-04-18T09:31:04.608Z</time></trkpt><trkpt lat="43.457315" lon="10.9660435"><ele>422.4285714285714</ele><time>2026-04-18T09:31:06.606Z</time></trkpt><trkpt lat="43.4572887" lon="10.9661378"><ele>421.8571428571429</ele><time>2026-04-18T09:31:07.608Z</time></trkpt><trkpt lat="43.4572568" lon="10.9662361"><ele>421.2857142857143</ele><time>2026-04-18T09:31:08.608Z</time></trkpt><trkpt lat="43.4572217" lon="10.9663142"><ele>420.71428571428567</ele><time>2026-04-18T09:31:09.605Z</time></trkpt><trkpt lat="43.4571787" lon="10.9663882"><ele>420.1428571428571</ele><time>2026-04-18T09:31:10.606Z</time></trkpt><trkpt lat="43.4571324" lon="10.9664564"><ele>419.57142857142856</ele><time>2026-04-18T09:31:11.618Z</time></trkpt><trkpt lat="43.457066" lon="10.9665227"><ele>419.0</ele><time>2026-04-18T09:31:12.606Z</time></trkpt><trkpt lat="43.4569858" lon="10.9665855"><ele>418.99999999999994</ele><time>2026-04-18T09:31:13.604Z</time></trkpt><trkpt lat="43.4568942" lon="10.9666493"><ele>419.0</ele><time>2026-04-18T09:31:14.629Z</time></trkpt><trkpt lat="43.4568142" lon="10.9667079"><ele>419.0</ele><time>2026-04-18T09:31:15.608Z</time></trkpt><trkpt lat="43.456749" lon="10.9667588"><ele>419.0</ele><time>2026-04-18T09:31:16.628Z</time></trkpt><trkpt lat="43.4566836" lon="10.9668165"><ele>418.99999999999994</ele><time>2026-04-18T09:31:17.621Z</time></trkpt><trkpt lat="43.456608" lon="10.9668657"><ele>419.0</ele><time>2026-04-18T09:31:18.614Z</time></trkpt><trkpt lat="43.4565239" lon="10.9669096"><ele>418.4285714285714</ele><time>2026-04-18T09:31:19.616Z</time></trkpt><trkpt lat="43.45645" lon="10.9669547"><ele>417.85714285714283</ele><time>2026-04-18T09:31:20.614Z</time></trkpt><trkpt lat="43.4563828" lon="10.9669868"><ele>417.2857142857143</ele><time>2026-04-18T09:31:21.617Z</time></trkpt><trkpt lat="43.4563202" lon="10.9670049"><ele>416.71428571428567</ele><time>2026-04-18T09:31:22.615Z</time></trkpt><trkpt lat="43.4562532" lon="10.9670015"><ele>416.14285714285717</ele><time>2026-04-18T09:31:23.615Z</time></trkpt><trkpt lat="43.4561854" lon="10.9669708"><ele>415.57142857142856</ele><time>2026-04-18T09:31:24.606Z</time></trkpt><trkpt lat="43.4561182" lon="10.9669207"><ele>415.0</ele><time>2026-04-18T09:31:25.618Z</time></trkpt><trkpt lat="43.4560472" lon="10.9668671"><ele>417.00000000000006</ele><time>2026-04-18T09:31:26.617Z</time></trkpt><trkpt lat="43.4559754" lon="10.9668288"><ele>419.0</ele><time>2026-04-18T09:31:27.612Z</time></trkpt><trkpt lat="43.4559031" lon="10.9668107"><ele>421.0</ele><time>2026-04-18T09:31:28.617Z</time></trkpt><trkpt lat="43.4558263" lon="10.9668112"><ele>423.0</ele><time>2026-04-18T09:31:29.613Z</time></trkpt><trkpt lat="43.4557415" lon="10.9668292"><ele>425.00000000000006</ele><time>2026-04-18T09:31:30.611Z</time></trkpt><trkpt lat="43.4556548" lon="10.9668588"><ele>427.0</ele><time>2026-04-18T09:31:31.613Z</time></trkpt><trkpt lat="43.4555707" lon="10.9669042"><ele>427.0</ele><time>2026-04-18T09:31:32.615Z</time></trkpt><trkpt lat="43.4554875" lon="10.966952"><ele>427.00000000000006</ele><time>2026-04-18T09:31:33.614Z</time></trkpt><trkpt lat="43.4554045" lon="10.9670022"><ele>427.00000000000006</ele><time>2026-04-18T09:31:34.625Z</time></trkpt><trkpt lat="43.4553151" lon="10.9670576"><ele>427.0</ele><time>2026-04-18T09:31:35.616Z</time></trkpt><trkpt lat="43.4552194" lon="10.9671349"><ele>427.0</ele><time>2026-04-18T09:31:36.615Z</time></trkpt><trkpt lat="43.4551291" lon="10.9672218"><ele>427.83333333333337</ele><time>2026-04-18T09:31:37.616Z</time></trkpt><trkpt lat="43.4550381" lon="10.9673072"><ele>428.6666666666667</ele><time>2026-04-18T09:31:38.618Z</time></trkpt><trkpt lat="43.4549622" lon="10.9673851"><ele>429.5</ele><time>2026-04-18T09:31:39.615Z</time></trkpt><trkpt lat="43.4548945" lon="10.9674434"><ele>430.33333333333337</ele><time>2026-04-18T09:31:40.611Z</time></trkpt><trkpt lat="43.4548373" lon="10.9674983"><ele>431.1666666666667</ele><time>2026-04-18T09:31:41.613Z</time></trkpt><trkpt lat="43.4547624" lon="10.9675667"><ele>432.0</ele><time>2026-04-18T09:31:43.613Z</time></trkpt><trkpt lat="43.4546897" lon="10.9676262"><ele>431.20000000000005</ele><time>2026-04-18T09:31:46.614Z</time></trkpt><trkpt lat="43.4546132" lon="10.96768"><ele>430.40000000000003</ele><time>2026-04-18T09:31:48.607Z</time></trkpt><trkpt lat="43.4545107" lon="10.9677563"><ele>429.59999999999997</ele><time>2026-04-18T09:31:50.609Z</time></trkpt><trkpt lat="43.4544007" lon="10.9678484"><ele>428.79999999999995</ele><time>2026-04-18T09:31:52.613Z</time></trkpt><trkpt lat="43.4543442" lon="10.967898"><ele>428.0</ele><time>2026-04-18T09:31:53.613Z</time></trkpt><trkpt lat="43.4542901" lon="10.9679492"><ele>428.0</ele><time>2026-04-18T09:31:54.614Z</time></trkpt><trkpt lat="43.4542024" lon="10.968052"><ele>427.99999999999994</ele><time>2026-04-18T09:31:56.613Z</time></trkpt><trkpt lat="43.4541245" lon="10.968154"><ele>427.99999999999994</ele><time>2026-04-18T09:31:58.616Z</time></trkpt><trkpt lat="43.4540455" lon="10.9681891"><ele>428.0</ele><time>2026-04-18T09:32:00.617Z</time></trkpt><trkpt lat="43.4539672" lon="10.9681279"><ele>428.0</ele><time>2026-04-18T09:32:02.615Z</time></trkpt><trkpt lat="43.4539209" lon="10.9680638"><ele>427.99999999999994</ele><time>2026-04-18T09:32:03.613Z</time></trkpt><trkpt lat="43.4538747" lon="10.9679858"><ele>428.0</ele><time>2026-04-18T09:32:04.607Z</time></trkpt><trkpt lat="43.4538221" lon="10.9679044"><ele>428.0</ele><time>2026-04-18T09:32:05.613Z</time></trkpt><trkpt lat="43.4537735" lon="10.967808"><ele>428.0</ele><time>2026-04-18T09:32:06.612Z</time></trkpt><trkpt lat="43.4537305" lon="10.9677201"><ele>427.99999999999994</ele><time>2026-04-18T09:32:07.607Z</time></trkpt><trkpt lat="43.4536831" lon="10.967655"><ele>428.0</ele><time>2026-04-18T09:32:08.605Z</time></trkpt><trkpt lat="43.4536263" lon="10.967595"><ele>428.66666666666663</ele><time>2026-04-18T09:32:09.611Z</time></trkpt><trkpt lat="43.4535635" lon="10.9675268"><ele>429.3333333333333</ele><time>2026-04-18T09:32:10.599Z</time></trkpt><trkpt lat="43.4534875" lon="10.9674519"><ele>430.0</ele><time>2026-04-18T09:32:11.609Z</time></trkpt><trkpt lat="43.453398" lon="10.9673898"><ele>430.66666666666663</ele><time>2026-04-18T09:32:12.61Z</time></trkpt><trkpt lat="43.4533169" lon="10.9673453"><ele>431.3333333333333</ele><time>2026-04-18T09:32:13.615Z</time></trkpt><trkpt lat="43.4532508" lon="10.9673055"><ele>432.0</ele><time>2026-04-18T09:32:14.611Z</time></trkpt><trkpt lat="43.4531538" lon="10.9672337"><ele>432.0</ele><time>2026-04-18T09:32:16.628Z</time></trkpt><trkpt lat="43.4530349" lon="10.9671503"><ele>432.00000000000006</ele><time>2026-04-18T09:32:18.621Z</time></trkpt><trkpt lat="43.4529206" lon="10.967114"><ele>432.00000000000006</ele><time>2026-04-18T09:32:20.609Z</time></trkpt><trkpt lat="43.4528475" lon="10.9671141"><ele>432.0</ele><time>2026-04-18T09:32:21.611Z</time></trkpt><trkpt lat="43.4527633" lon="10.9671317"><ele>432.0</ele><time>2026-04-18T09:32:22.62Z</time></trkpt><trkpt lat="43.4526779" lon="10.9671485"><ele>432.40000000000003</ele><time>2026-04-18T09:32:23.619Z</time></trkpt><trkpt lat="43.4525866" lon="10.9671641"><ele>432.80000000000007</ele><time>2026-04-18T09:32:24.617Z</time></trkpt><trkpt lat="43.4524854" lon="10.967176"><ele>433.2</ele><time>2026-04-18T09:32:25.621Z</time></trkpt><trkpt lat="43.4523858" lon="10.9671969"><ele>433.6</ele><time>2026-04-18T09:32:26.619Z</time></trkpt><trkpt lat="43.4522883" lon="10.967212"><ele>434.0</ele><time>2026-04-18T09:32:27.628Z</time></trkpt><trkpt lat="43.4522008" lon="10.9672188"><ele>434.66666666666663</ele><time>2026-04-18T09:32:28.618Z</time></trkpt><trkpt lat="43.4521194" lon="10.9672226"><ele>435.3333333333333</ele><time>2026-04-18T09:32:29.618Z</time></trkpt><trkpt lat="43.4520486" lon="10.9672265"><ele>436.0</ele><time>2026-04-18T09:32:30.622Z</time></trkpt><trkpt lat="43.4519753" lon="10.9672324"><ele>436.66666666666663</ele><time>2026-04-18T09:32:31.618Z</time></trkpt><trkpt lat="43.4518941" lon="10.9672456"><ele>437.3333333333333</ele><time>2026-04-18T09:32:32.618Z</time></trkpt><trkpt lat="43.4518012" lon="10.9672569"><ele>438.0</ele><time>2026-04-18T09:32:33.618Z</time></trkpt><trkpt lat="43.4516947" lon="10.9672596"><ele>438.0</ele><time>2026-04-18T09:32:34.617Z</time></trkpt><trkpt lat="43.4515882" lon="10.9672671"><ele>437.99999999999994</ele><time>2026-04-18T09:32:35.616Z</time></trkpt><trkpt lat="43.4514845" lon="10.9672706"><ele>437.99999999999994</ele><time>2026-04-18T09:32:36.613Z</time></trkpt><trkpt lat="43.4513837" lon="10.9672779"><ele>438.0</ele><time>2026-04-18T09:32:37.619Z</time></trkpt><trkpt lat="43.4512788" lon="10.9672793"><ele>438.0</ele><time>2026-04-18T09:32:38.608Z</time></trkpt><trkpt lat="43.4511978" lon="10.9672793"><ele>439.0</ele><time>2026-04-18T09:32:39.613Z</time></trkpt><trkpt lat="43.4510942" lon="10.9672845"><ele>440.0</ele><time>2026-04-18T09:32:41.617Z</time></trkpt><trkpt lat="43.4510086" lon="10.9673052"><ele>441.0</ele><time>2026-04-18T09:32:43.617Z</time></trkpt><trkpt lat="43.4509431" lon="10.9673365"><ele>442.0</ele><time>2026-04-18T09:32:45.615Z</time></trkpt><trkpt lat="43.450865" lon="10.9673811"><ele>443.0</ele><time>2026-04-18T09:32:47.627Z</time></trkpt><trkpt lat="43.4507819" lon="10.9674218"><ele>444.0</ele><time>2026-04-18T09:32:49.62Z</time></trkpt><trkpt lat="43.4507074" lon="10.9674024"><ele>444.0</ele><time>2026-04-18T09:32:51.626Z</time></trkpt><trkpt lat="43.4506551" lon="10.967322"><ele>444.0</ele><time>2026-04-18T09:32:56.632Z</time></trkpt><trkpt lat="43.4505985" lon="10.9672307"><ele>444.0</ele><time>2026-04-18T09:34:49.619Z</time></trkpt><trkpt lat="43.4505056" lon="10.9671769"><ele>444.0</ele><time>2026-04-18T09:34:51.637Z</time></trkpt><trkpt lat="43.4504439" lon="10.9671396"><ele>444.0</ele><time>2026-04-18T09:34:52.617Z</time></trkpt><trkpt lat="43.4503816" lon="10.9671076"><ele>444.0</ele><time>2026-04-18T09:34:53.611Z</time></trkpt><trkpt lat="43.4503119" lon="10.9670815"><ele>442.4</ele><time>2026-04-18T09:34:54.614Z</time></trkpt><trkpt lat="43.4502488" lon="10.9670544"><ele>440.79999999999995</ele><time>2026-04-18T09:34:55.618Z</time></trkpt><trkpt lat="43.4501461" lon="10.9669737"><ele>439.20000000000005</ele><time>2026-04-18T09:34:57.617Z</time></trkpt><trkpt lat="43.4500908" lon="10.9669076"><ele>437.6</ele><time>2026-04-18T09:34:58.615Z</time></trkpt><trkpt lat="43.4500104" lon="10.9668073"><ele>436.0</ele><time>2026-04-18T09:35:00.618Z</time></trkpt><trkpt lat="43.44997" lon="10.9666983"><ele>436.1666666666667</ele><time>2026-04-18T09:35:02.627Z</time></trkpt><trkpt lat="43.4499541" lon="10.9666065"><ele>436.33333333333337</ele><time>2026-04-18T09:35:04.613Z</time></trkpt><trkpt lat="43.4499367" lon="10.9665114"><ele>436.5</ele><time>2026-04-18T09:35:06.615Z</time></trkpt><trkpt lat="43.4498938" lon="10.9664218"><ele>436.66666666666663</ele><time>2026-04-18T09:35:08.623Z</time></trkpt><trkpt lat="43.4498259" lon="10.9663749"><ele>436.8333333333333</ele><time>2026-04-18T09:35:10.617Z</time></trkpt><trkpt lat="43.4497173" lon="10.966376"><ele>437.0</ele><time>2026-04-18T09:35:12.611Z</time></trkpt><trkpt lat="43.4496497" lon="10.9663903"><ele>434.49999999999994</ele><time>2026-04-18T09:35:13.609Z</time></trkpt><trkpt lat="43.4495764" lon="10.966395"><ele>432.0</ele><time>2026-04-18T09:35:14.611Z</time></trkpt><trkpt lat="43.4494646" lon="10.9664044"><ele>429.5</ele><time>2026-04-18T09:35:16.61Z</time></trkpt><trkpt lat="43.449364" lon="10.9664102"><ele>427.0</ele><time>2026-04-18T09:35:18.604Z</time></trkpt><trkpt lat="43.4493013" lon="10.9664186"><ele>424.49999999999994</ele><time>2026-04-18T09:35:19.597Z</time></trkpt><trkpt lat="43.4492374" lon="10.9664323"><ele>422.0</ele><time>2026-04-18T09:35:20.598Z</time></trkpt><trkpt lat="43.4491707" lon="10.9664692"><ele>421.99999999999994</ele><time>2026-04-18T09:35:21.606Z</time></trkpt><trkpt lat="43.4491057" lon="10.9665101"><ele>422.0</ele><time>2026-04-18T09:35:22.611Z</time></trkpt><trkpt lat="43.4490513" lon="10.9665724"><ele>422.0</ele><time>2026-04-18T09:35:23.605Z</time></trkpt><trkpt lat="43.4489745" lon="10.9666762"><ele>422.0</ele><time>2026-04-18T09:35:25.611Z</time></trkpt><trkpt lat="43.4488883" lon="10.9667744"><ele>421.99999999999994</ele><time>2026-04-18T09:35:27.612Z</time></trkpt><trkpt lat="43.4488211" lon="10.9668146"><ele>422.0</ele><time>2026-04-18T09:35:28.606Z</time></trkpt><trkpt lat="43.448665" lon="10.9667839"><ele>419.8</ele><time>2026-04-18T09:35:30.606Z</time></trkpt><trkpt lat="43.4485717" lon="10.9667635"><ele>417.6</ele><time>2026-04-18T09:35:31.616Z</time></trkpt><trkpt lat="43.4484796" lon="10.9667334"><ele>415.40000000000003</ele><time>2026-04-18T09:35:32.626Z</time></trkpt><trkpt lat="43.4483866" lon="10.9666818"><ele>413.20000000000005</ele><time>2026-04-18T09:35:33.625Z</time></trkpt><trkpt lat="43.4482939" lon="10.9666318"><ele>411.0</ele><time>2026-04-18T09:35:34.625Z</time></trkpt><trkpt lat="43.4481821" lon="10.966556"><ele>411.0</ele><time>2026-04-18T09:35:35.628Z</time></trkpt><trkpt lat="43.4480768" lon="10.9664742"><ele>411.0</ele><time>2026-04-18T09:35:36.63Z</time></trkpt><trkpt lat="43.4479736" lon="10.9664054"><ele>411.0</ele><time>2026-04-18T09:35:37.621Z</time></trkpt><trkpt lat="43.447885" lon="10.9663491"><ele>411.0</ele><time>2026-04-18T09:35:38.626Z</time></trkpt><trkpt lat="43.447801" lon="10.9662828"><ele>411.0</ele><time>2026-04-18T09:35:39.62Z</time></trkpt><trkpt lat="43.4477235" lon="10.9661989"><ele>412.6666666666667</ele><time>2026-04-18T09:35:40.617Z</time></trkpt><trkpt lat="43.4476502" lon="10.9661215"><ele>414.33333333333337</ele><time>2026-04-18T09:35:41.609Z</time></trkpt><trkpt lat="43.447592" lon="10.9660587"><ele>416.0</ele><time>2026-04-18T09:35:42.61Z</time></trkpt><trkpt lat="43.4475095" lon="10.9659361"><ele>417.6666666666667</ele><time>2026-04-18T09:35:44.612Z</time></trkpt><trkpt lat="43.447464" lon="10.9658739"><ele>419.33333333333337</ele><time>2026-04-18T09:35:45.622Z</time></trkpt><trkpt lat="43.4474058" lon="10.9658136"><ele>421.0</ele><time>2026-04-18T09:35:46.621Z</time></trkpt><trkpt lat="43.447348" lon="10.9657654"><ele>421.00000000000006</ele><time>2026-04-18T09:35:47.614Z</time></trkpt><trkpt lat="43.4472827" lon="10.965727"><ele>421.0</ele><time>2026-04-18T09:35:48.614Z</time></trkpt><trkpt lat="43.4472172" lon="10.965678"><ele>421.0</ele><time>2026-04-18T09:35:49.617Z</time></trkpt><trkpt lat="43.4471396" lon="10.9656433"><ele>421.0</ele><time>2026-04-18T09:35:50.616Z</time></trkpt><trkpt lat="43.4470562" lon="10.9656116"><ele>421.00000000000006</ele><time>2026-04-18T09:35:51.617Z</time></trkpt><trkpt lat="43.4469836" lon="10.9656009"><ele>421.0</ele><time>2026-04-18T09:35:52.617Z</time></trkpt><trkpt lat="43.4469141" lon="10.9655983"><ele>423.6</ele><time>2026-04-18T09:35:53.631Z</time></trkpt><trkpt lat="43.4468393" lon="10.9656185"><ele>426.20000000000005</ele><time>2026-04-18T09:35:54.617Z</time></trkpt><trkpt lat="43.4467476" lon="10.9656783"><ele>428.79999999999995</ele><time>2026-04-18T09:35:55.617Z</time></trkpt><trkpt lat="43.4466541" lon="10.9657548"><ele>431.4</ele><time>2026-04-18T09:35:56.61Z</time></trkpt><trkpt lat="43.4465504" lon="10.965812"><ele>434.0</ele><time>2026-04-18T09:35:57.612Z</time></trkpt><trkpt lat="43.4464503" lon="10.9658245"><ele>433.99999999999994</ele><time>2026-04-18T09:35:58.619Z</time></trkpt><trkpt lat="43.4463575" lon="10.9658437"><ele>434.0</ele><time>2026-04-18T09:35:59.611Z</time></trkpt><trkpt lat="43.4462829" lon="10.9658493"><ele>434.0</ele><time>2026-04-18T09:36:00.627Z</time></trkpt><trkpt lat="43.4462117" lon="10.9658676"><ele>434.0</ele><time>2026-04-18T09:36:01.619Z</time></trkpt><trkpt lat="43.4461484" lon="10.96588"><ele>433.99999999999994</ele><time>2026-04-18T09:36:02.614Z</time></trkpt><trkpt lat="43.4460644" lon="10.9658859"><ele>434.0</ele><time>2026-04-18T09:36:03.616Z</time></trkpt><trkpt lat="43.4459711" lon="10.9658763"><ele>435.4</ele><time>2026-04-18T09:36:04.619Z</time></trkpt><trkpt lat="43.4458679" lon="10.965854"><ele>436.79999999999995</ele><time>2026-04-18T09:36:05.626Z</time></trkpt><trkpt lat="43.4457691" lon="10.9658303"><ele>438.20000000000005</ele><time>2026-04-18T09:36:06.622Z</time></trkpt><trkpt lat="43.4456695" lon="10.9657995"><ele>439.6</ele><time>2026-04-18T09:36:07.622Z</time></trkpt><trkpt lat="43.4455803" lon="10.9657772"><ele>441.0</ele><time>2026-04-18T09:36:08.615Z</time></trkpt><trkpt lat="43.4454962" lon="10.9657696"><ele>442.2857142857143</ele><time>2026-04-18T09:36:09.623Z</time></trkpt><trkpt lat="43.4454216" lon="10.9657578"><ele>443.57142857142856</ele><time>2026-04-18T09:36:10.622Z</time></trkpt><trkpt lat="43.4453481" lon="10.9657517"><ele>444.8571428571429</ele><time>2026-04-18T09:36:11.623Z</time></trkpt><trkpt lat="43.4452678" lon="10.9657336"><ele>446.14285714285717</ele><time>2026-04-18T09:36:12.618Z</time></trkpt><trkpt lat="43.4451984" lon="10.9657043"><ele>447.42857142857144</ele><time>2026-04-18T09:36:13.62Z</time></trkpt><trkpt lat="43.44514" lon="10.9656595"><ele>448.7142857142858</ele><time>2026-04-18T09:36:14.609Z</time></trkpt><trkpt lat="43.445083" lon="10.9655829"><ele>450.00000000000006</ele><time>2026-04-18T09:36:16.617Z</time></trkpt><trkpt lat="43.4450659" lon="10.9654515"><ele>450.0</ele><time>2026-04-18T09:36:18.61Z</time></trkpt><trkpt lat="43.4450582" lon="10.9653591"><ele>450.0</ele><time>2026-04-18T09:36:19.616Z</time></trkpt><trkpt lat="43.4450535" lon="10.9652396"><ele>450.0</ele><time>2026-04-18T09:36:20.617Z</time></trkpt><trkpt lat="43.4450511" lon="10.965139"><ele>450.0</ele><time>2026-04-18T09:36:21.615Z</time></trkpt><trkpt lat="43.4450327" lon="10.9649803"><ele>450.0</ele><time>2026-04-18T09:36:23.618Z</time></trkpt><trkpt lat="43.4449978" lon="10.9649039"><ele>450.0</ele><time>2026-04-18T09:36:24.64Z</time></trkpt><trkpt lat="43.4449661" lon="10.9648214"><ele>450.8</ele><time>2026-04-18T09:36:25.625Z</time></trkpt><trkpt lat="43.4448838" lon="10.9647057"><ele>451.6</ele><time>2026-04-18T09:36:27.611Z</time></trkpt><trkpt lat="43.4447783" lon="10.9646078"><ele>452.4</ele><time>2026-04-18T09:36:29.61Z</time></trkpt><trkpt lat="43.4447268" lon="10.9645353"><ele>453.2</ele><time>2026-04-18T09:36:30.612Z</time></trkpt><trkpt lat="43.4446696" lon="10.9644692"><ele>454.0</ele><time>2026-04-18T09:36:31.601Z</time></trkpt><trkpt lat="43.4446163" lon="10.9644131"><ele>454.42857142857144</ele><time>2026-04-18T09:36:32.608Z</time></trkpt><trkpt lat="43.4445722" lon="10.964348"><ele>454.8571428571429</ele><time>2026-04-18T09:36:33.607Z</time></trkpt><trkpt lat="43.4445159" lon="10.9642815"><ele>455.28571428571433</ele><time>2026-04-18T09:36:34.6Z</time></trkpt><trkpt lat="43.4444507" lon="10.9642088"><ele>455.7142857142858</ele><time>2026-04-18T09:36:35.602Z</time></trkpt><trkpt lat="43.4443771" lon="10.9641519"><ele>456.14285714285717</ele><time>2026-04-18T09:36:36.614Z</time></trkpt><trkpt lat="43.4443104" lon="10.9641135"><ele>456.57142857142867</ele><time>2026-04-18T09:36:37.613Z</time></trkpt><trkpt lat="43.444252" lon="10.9640796"><ele>457.00000000000006</ele><time>2026-04-18T09:36:38.625Z</time></trkpt><trkpt lat="43.4441592" lon="10.9640256"><ele>459.20000000000005</ele><time>2026-04-18T09:36:40.62Z</time></trkpt><trkpt lat="43.4440971" lon="10.9639509"><ele>461.40000000000003</ele><time>2026-04-18T09:36:42.618Z</time></trkpt><trkpt lat="43.4440518" lon="10.9637854"><ele>463.59999999999997</ele><time>2026-04-18T09:36:44.628Z</time></trkpt><trkpt lat="43.4440178" lon="10.9636866"><ele>465.79999999999995</ele><time>2026-04-18T09:36:45.624Z</time></trkpt><trkpt lat="43.4439719" lon="10.9635836"><ele>468.0</ele><time>2026-04-18T09:36:46.628Z</time></trkpt><trkpt lat="43.4439343" lon="10.9634621"><ele>469.0</ele><time>2026-04-18T09:36:47.628Z</time></trkpt><trkpt lat="43.4439097" lon="10.9633454"><ele>470.0</ele><time>2026-04-18T09:36:48.628Z</time></trkpt><trkpt lat="43.4438892" lon="10.9632297"><ele>471.0</ele><time>2026-04-18T09:36:49.626Z</time></trkpt><trkpt lat="43.4438681" lon="10.9631226"><ele>472.0</ele><time>2026-04-18T09:36:50.621Z</time></trkpt><trkpt lat="43.4438562" lon="10.9630152"><ele>473.0</ele><time>2026-04-18T09:36:51.624Z</time></trkpt><trkpt lat="43.4438509" lon="10.9629144"><ele>474.0</ele><time>2026-04-18T09:36:52.622Z</time></trkpt><trkpt lat="43.4438415" lon="10.9628131"><ele>474.0</ele><time>2026-04-18T09:36:53.617Z</time></trkpt><trkpt lat="43.4438205" lon="10.9626519"><ele>474.0</ele><time>2026-04-18T09:36:55.646Z</time></trkpt><trkpt lat="43.4437871" lon="10.9625186"><ele>474.0</ele><time>2026-04-18T09:36:57.611Z</time></trkpt><trkpt lat="43.4437312" lon="10.9624615"><ele>474.0</ele><time>2026-04-18T09:37:00.626Z</time></trkpt><trkpt lat="43.4436428" lon="10.9625436"><ele>474.0</ele><time>2026-04-18T09:37:02.615Z</time></trkpt><trkpt lat="43.4435793" lon="10.9626178"><ele>476.0</ele><time>2026-04-18T09:37:03.614Z</time></trkpt><trkpt lat="43.4434905" lon="10.9626817"><ele>478.0</ele><time>2026-04-18T09:37:04.615Z</time></trkpt><trkpt lat="43.4434084" lon="10.962733"><ele>480.0</ele><time>2026-04-18T09:37:05.61Z</time></trkpt><trkpt lat="43.4433322" lon="10.9627666"><ele>482.0</ele><time>2026-04-18T09:37:06.606Z</time></trkpt><trkpt lat="43.4432329" lon="10.9627804"><ele>484.0</ele><time>2026-04-18T09:37:08.602Z</time></trkpt><trkpt lat="43.4432318" lon="10.9626544"><ele>487.6666666666667</ele><time>2026-04-18T09:37:11.606Z</time></trkpt><trkpt lat="43.4432821" lon="10.9625138"><ele>491.33333333333337</ele><time>2026-04-18T09:37:13.609Z</time></trkpt><trkpt lat="43.4433149" lon="10.96242"><ele>495.0</ele><time>2026-04-18T09:37:14.612Z</time></trkpt><trkpt lat="43.4433452" lon="10.9623224"><ele>498.66666666666663</ele><time>2026-04-18T09:37:15.615Z</time></trkpt><trkpt lat="43.4433701" lon="10.9622071"><ele>502.3333333333333</ele><time>2026-04-18T09:37:16.616Z</time></trkpt><trkpt lat="43.4433983" lon="10.9621025"><ele>506.0</ele><time>2026-04-18T09:37:17.616Z</time></trkpt><trkpt lat="43.4434214" lon="10.9619968"><ele>506.00000000000006</ele><time>2026-04-18T09:37:18.619Z</time></trkpt><trkpt lat="43.4434375" lon="10.9618944"><ele>506.0</ele><time>2026-04-18T09:37:19.614Z</time></trkpt><trkpt lat="43.4434524" lon="10.9618049"><ele>506.00000000000006</ele><time>2026-04-18T09:37:20.62Z</time></trkpt><trkpt lat="43.4434689" lon="10.9617096"><ele>506.00000000000006</ele><time>2026-04-18T09:37:21.62Z</time></trkpt><trkpt lat="43.443482" lon="10.9616157"><ele>506.0</ele><time>2026-04-18T09:37:22.624Z</time></trkpt><trkpt lat="43.4434867" lon="10.9615103"><ele>506.00000000000006</ele><time>2026-04-18T09:37:23.62Z</time></trkpt><trkpt lat="43.4434973" lon="10.9613979"><ele>506.00000000000006</ele><time>2026-04-18T09:37:24.619Z</time></trkpt><trkpt lat="43.4435147" lon="10.9612837"><ele>507.8571428571429</ele><time>2026-04-18T09:37:25.635Z</time></trkpt><trkpt lat="43.4435295" lon="10.9611765"><ele>509.7142857142857</ele><time>2026-04-18T09:37:26.621Z</time></trkpt><trkpt lat="43.4435514" lon="10.9610822"><ele>511.57142857142856</ele><time>2026-04-18T09:37:27.617Z</time></trkpt><trkpt lat="43.4435884" lon="10.9609895"><ele>513.4285714285714</ele><time>2026-04-18T09:37:28.629Z</time></trkpt><trkpt lat="43.4436292" lon="10.960913"><ele>515.2857142857142</ele><time>2026-04-18T09:37:29.621Z</time></trkpt><trkpt lat="43.4436543" lon="10.9608278"><ele>517.1428571428571</ele><time>2026-04-18T09:37:30.624Z</time></trkpt><trkpt lat="43.4436548" lon="10.960739"><ele>519.0</ele><time>2026-04-18T09:37:31.617Z</time></trkpt><trkpt lat="43.4436368" lon="10.9606406"><ele>521.0</ele><time>2026-04-18T09:37:32.613Z</time></trkpt><trkpt lat="43.4436019" lon="10.9605395"><ele>523.0</ele><time>2026-04-18T09:37:33.615Z</time></trkpt><trkpt lat="43.4435638" lon="10.9604289"><ele>525.0</ele><time>2026-04-18T09:37:34.613Z</time></trkpt><trkpt lat="43.4435447" lon="10.9603414"><ele>527.0</ele><time>2026-04-18T09:37:35.619Z</time></trkpt><trkpt lat="43.4435374" lon="10.9602512"><ele>529.0</ele><time>2026-04-18T09:37:36.609Z</time></trkpt><trkpt lat="43.4435507" lon="10.9601487"><ele>531.0</ele><time>2026-04-18T09:37:37.616Z</time></trkpt><trkpt lat="43.4435707" lon="10.9600454"><ele>533.6</ele><time>2026-04-18T09:37:38.618Z</time></trkpt><trkpt lat="43.4435779" lon="10.9599405"><ele>536.2</ele><time>2026-04-18T09:37:39.623Z</time></trkpt><trkpt lat="43.4435758" lon="10.9598375"><ele>538.8</ele><time>2026-04-18T09:37:40.608Z</time></trkpt><trkpt lat="43.4435047" lon="10.9597287"><ele>541.4</ele><time>2026-04-18T09:37:42.6Z</time></trkpt><trkpt lat="43.4433824" lon="10.9597521"><ele>544.0</ele><time>2026-04-18T09:37:44.608Z</time></trkpt><trkpt lat="43.4433038" lon="10.9597867"><ele>544.0</ele><time>2026-04-18T09:37:45.601Z</time></trkpt><trkpt lat="43.4432158" lon="10.9598405"><ele>544.0</ele><time>2026-04-18T09:37:46.613Z</time></trkpt><trkpt lat="43.4431216" lon="10.9599057"><ele>544.0</ele><time>2026-04-18T09:37:47.609Z</time></trkpt><trkpt lat="43.4430273" lon="10.9599719"><ele>544.0</ele><time>2026-04-18T09:37:48.612Z</time></trkpt><trkpt lat="43.4429261" lon="10.9600228"><ele>544.0</ele><time>2026-04-18T09:37:49.612Z</time></trkpt><trkpt lat="43.4428236" lon="10.960072"><ele>544.2</ele><time>2026-04-18T09:37:50.61Z</time></trkpt><trkpt lat="43.4427196" lon="10.9601174"><ele>544.4</ele><time>2026-04-18T09:37:51.612Z</time></trkpt><trkpt lat="43.4426227" lon="10.9601834"><ele>544.6</ele><time>2026-04-18T09:37:52.61Z</time></trkpt><trkpt lat="43.4425284" lon="10.9602358"><ele>544.8</ele><time>2026-04-18T09:37:53.603Z</time></trkpt><trkpt lat="43.4424337" lon="10.9602853"><ele>545.0</ele><time>2026-04-18T09:37:54.603Z</time></trkpt><trkpt lat="43.4423455" lon="10.9603233"><ele>545.0</ele><time>2026-04-18T09:37:55.598Z</time></trkpt><trkpt lat="43.4422729" lon="10.9603608"><ele>545.0</ele><time>2026-04-18T09:37:56.615Z</time></trkpt><trkpt lat="43.4421886" lon="10.960398"><ele>545.0</ele><time>2026-04-18T09:37:57.596Z</time></trkpt><trkpt lat="43.4421169" lon="10.9604229"><ele>545.0</ele><time>2026-04-18T09:37:58.59Z</time></trkpt><trkpt lat="43.4420179" lon="10.9604148"><ele>545.0</ele><time>2026-04-18T09:37:59.603Z</time></trkpt><trkpt lat="43.4419041" lon="10.9603588"><ele>545.4</ele><time>2026-04-18T09:38:00.603Z</time></trkpt><trkpt lat="43.4418002" lon="10.9603073"><ele>545.8</ele><time>2026-04-18T09:38:01.603Z</time></trkpt><trkpt lat="43.4417075" lon="10.9602466"><ele>546.2</ele><time>2026-04-18T09:38:02.608Z</time></trkpt><trkpt lat="43.4416234" lon="10.9601933"><ele>546.6</ele><time>2026-04-18T09:38:03.607Z</time></trkpt><trkpt lat="43.4415452" lon="10.9601323"><ele>547.0</ele><time>2026-04-18T09:38:04.609Z</time></trkpt><trkpt lat="43.4414703" lon="10.960045"><ele>552.2</ele><time>2026-04-18T09:38:05.607Z</time></trkpt><trkpt lat="43.4413866" lon="10.9599519"><ele>557.4000000000001</ele><time>2026-04-18T09:38:06.609Z</time></trkpt><trkpt lat="43.441316" lon="10.9598563"><ele>562.5999999999999</ele><time>2026-04-18T09:38:07.608Z</time></trkpt><trkpt lat="43.4412387" lon="10.9597582"><ele>567.8</ele><time>2026-04-18T09:38:08.608Z</time></trkpt><trkpt lat="43.4411763" lon="10.9596668"><ele>573.0</ele><time>2026-04-18T09:38:09.613Z</time></trkpt><trkpt lat="43.4411166" lon="10.9595767"><ele>573.1666666666666</ele><time>2026-04-18T09:38:10.605Z</time></trkpt><trkpt lat="43.4410618" lon="10.9594786"><ele>573.3333333333334</ele><time>2026-04-18T09:38:11.614Z</time></trkpt><trkpt lat="43.4409969" lon="10.9593916"><ele>573.5</ele><time>2026-04-18T09:38:12.6Z</time></trkpt><trkpt lat="43.4409283" lon="10.9593249"><ele>573.6666666666667</ele><time>2026-04-18T09:38:13.604Z</time></trkpt><trkpt lat="43.4408501" lon="10.9592871"><ele>573.8333333333334</ele><time>2026-04-18T09:38:14.609Z</time></trkpt><trkpt lat="43.4407675" lon="10.9592768"><ele>574.0</ele><time>2026-04-18T09:38:15.61Z</time></trkpt><trkpt lat="43.440679" lon="10.9592892"><ele>574.0</ele><time>2026-04-18T09:38:16.612Z</time></trkpt><trkpt lat="43.4405794" lon="10.9593199"><ele>574.0</ele><time>2026-04-18T09:38:17.614Z</time></trkpt><trkpt lat="43.4404714" lon="10.9593633"><ele>574.0</ele><time>2026-04-18T09:38:18.619Z</time></trkpt><trkpt lat="43.4403537" lon="10.9594009"><ele>574.0</ele><time>2026-04-18T09:38:19.618Z</time></trkpt><trkpt lat="43.4402542" lon="10.9594121"><ele>574.0</ele><time>2026-04-18T09:38:20.619Z</time></trkpt><trkpt lat="43.4401589" lon="10.9594203"><ele>576.2</ele><time>2026-04-18T09:38:21.617Z</time></trkpt><trkpt lat="43.4400685" lon="10.9594332"><ele>578.4</ele><time>2026-04-18T09:38:22.616Z</time></trkpt><trkpt lat="43.4399739" lon="10.9594669"><ele>580.6</ele><time>2026-04-18T09:38:23.615Z</time></trkpt><trkpt lat="43.4398765" lon="10.9595194"><ele>582.8</ele><time>2026-04-18T09:38:24.611Z</time></trkpt><trkpt lat="43.4397722" lon="10.959595"><ele>585.0</ele><time>2026-04-18T09:38:25.616Z</time></trkpt><trkpt lat="43.4396684" lon="10.9596871"><ele>586.25</ele><time>2026-04-18T09:38:26.616Z</time></trkpt><trkpt lat="43.4395622" lon="10.9597928"><ele>587.5</ele><time>2026-04-18T09:38:27.621Z</time></trkpt><trkpt lat="43.4394556" lon="10.9598848"><ele>588.75</ele><time>2026-04-18T09:38:28.608Z</time></trkpt><trkpt lat="43.4393428" lon="10.9599559"><ele>590.0</ele><time>2026-04-18T09:38:29.612Z</time></trkpt><trkpt lat="43.4392473" lon="10.9600048"><ele>589.6666666666666</ele><time>2026-04-18T09:38:30.617Z</time></trkpt><trkpt lat="43.4391524" lon="10.9600507"><ele>589.3333333333333</ele><time>2026-04-18T09:38:31.607Z</time></trkpt><trkpt lat="43.4390809" lon="10.9600949"><ele>589.0</ele><time>2026-04-18T09:38:32.621Z</time></trkpt><trkpt lat="43.4390228" lon="10.960136"><ele>588.6666666666666</ele><time>2026-04-18T09:38:33.614Z</time></trkpt><trkpt lat="43.4389579" lon="10.9602118"><ele>588.3333333333334</ele><time>2026-04-18T09:38:35.616Z</time></trkpt><trkpt lat="43.4388823" lon="10.960188"><ele>588.0</ele><time>2026-04-18T09:38:37.624Z</time></trkpt><trkpt lat="43.4388177" lon="10.9600683"><ele>588.5</ele><time>2026-04-18T09:38:39.612Z</time></trkpt><trkpt lat="43.4388209" lon="10.959935"><ele>589.0</ele><time>2026-04-18T09:38:41.611Z</time></trkpt><trkpt lat="43.438925" lon="10.9598298"><ele>589.5</ele><time>2026-04-18T09:38:43.623Z</time></trkpt><trkpt lat="43.4390207" lon="10.9597644"><ele>590.0</ele><time>2026-04-18T09:38:44.612Z</time></trkpt><trkpt lat="43.4391213" lon="10.9596594"><ele>590.0</ele><time>2026-04-18T09:38:45.625Z</time></trkpt><trkpt lat="43.439236" lon="10.9595074"><ele>590.0</ele><time>2026-04-18T09:38:46.613Z</time></trkpt><trkpt lat="43.4393549" lon="10.9593356"><ele>590.0</ele><time>2026-04-18T09:38:47.615Z</time></trkpt><trkpt lat="43.4394893" lon="10.9591104"><ele>590.3333333333333</ele><time>2026-04-18T09:38:48.625Z</time></trkpt><trkpt lat="43.4396142" lon="10.958916"><ele>590.6666666666666</ele><time>2026-04-18T09:38:49.619Z</time></trkpt><trkpt lat="43.439723" lon="10.9587414"><ele>591.0</ele><time>2026-04-18T09:38:50.626Z</time></trkpt><trkpt lat="43.4398302" lon="10.9585688"><ele>591.3333333333334</ele><time>2026-04-18T09:38:51.621Z</time></trkpt><trkpt lat="43.43992" lon="10.9584156"><ele>591.6666666666667</ele><time>2026-04-18T09:38:52.623Z</time></trkpt><trkpt lat="43.4399942" lon="10.958254"><ele>592.0</ele><time>2026-04-18T09:38:53.617Z</time></trkpt><trkpt lat="43.4400976" lon="10.9580666"><ele>594.0</ele><time>2026-04-18T09:38:54.617Z</time></trkpt><trkpt lat="43.4402095" lon="10.9578756"><ele>596.0</ele><time>2026-04-18T09:38:55.621Z</time></trkpt><trkpt lat="43.4403268" lon="10.9576977"><ele>598.0</ele><time>2026-04-18T09:38:56.619Z</time></trkpt><trkpt lat="43.4404327" lon="10.9575415"><ele>599.0</ele><time>2026-04-18T09:38:57.619Z</time></trkpt><trkpt lat="43.4405257" lon="10.9574036"><ele>600.0</ele><time>2026-04-18T09:38:58.633Z</time></trkpt><trkpt lat="43.4406128" lon="10.9572632"><ele>601.0</ele><time>2026-04-18T09:38:59.625Z</time></trkpt><trkpt lat="43.4407071" lon="10.9571208"><ele>602.0</ele><time>2026-04-18T09:39:00.623Z</time></trkpt><trkpt lat="43.440793" lon="10.9569805"><ele>602.0</ele><time>2026-04-18T09:39:01.62Z</time></trkpt><trkpt lat="43.4408849" lon="10.9568356"><ele>602.0</ele><time>2026-04-18T09:39:02.621Z</time></trkpt><trkpt lat="43.4409712" lon="10.9567021"><ele>602.0</ele><time>2026-04-18T09:39:03.62Z</time></trkpt><trkpt lat="43.4410581" lon="10.9565681"><ele>602.0</ele><time>2026-04-18T09:39:04.616Z</time></trkpt><trkpt lat="43.4411486" lon="10.9564144"><ele>601.75</ele><time>2026-04-18T09:39:05.621Z</time></trkpt><trkpt lat="43.4412547" lon="10.9562495"><ele>601.5</ele><time>2026-04-18T09:39:06.622Z</time></trkpt><trkpt lat="43.4413379" lon="10.9560947"><ele>601.25</ele><time>2026-04-18T09:39:07.615Z</time></trkpt><trkpt lat="43.4414047" lon="10.9559556"><ele>601.0</ele><time>2026-04-18T09:39:08.617Z</time></trkpt><trkpt lat="43.4414609" lon="10.9558145"><ele>601.0</ele><time>2026-04-18T09:39:09.624Z</time></trkpt><trkpt lat="43.4415108" lon="10.9556637"><ele>601.0</ele><time>2026-04-18T09:39:10.62Z</time></trkpt><trkpt lat="43.4415567" lon="10.9555208"><ele>601.0</ele><time>2026-04-18T09:39:11.621Z</time></trkpt><trkpt lat="43.441587" lon="10.955359"><ele>601.0</ele><time>2026-04-18T09:39:12.621Z</time></trkpt><trkpt lat="43.4416206" lon="10.9551848"><ele>601.5</ele><time>2026-04-18T09:39:13.618Z</time></trkpt><trkpt lat="43.4416566" lon="10.9550036"><ele>602.0</ele><time>2026-04-18T09:39:14.623Z</time></trkpt><trkpt lat="43.4416781" lon="10.9548336"><ele>602.5</ele><time>2026-04-18T09:39:15.618Z</time></trkpt><trkpt lat="43.4417032" lon="10.9546665"><ele>603.0</ele><time>2026-04-18T09:39:16.623Z</time></trkpt><trkpt lat="43.4417227" lon="10.9545002"><ele>603.0</ele><time>2026-04-18T09:39:17.621Z</time></trkpt><trkpt lat="43.4417418" lon="10.9543319"><ele>603.0</ele><time>2026-04-18T09:39:18.62Z</time></trkpt><trkpt lat="43.4417513" lon="10.9541638"><ele>603.0</ele><time>2026-04-18T09:39:19.622Z</time></trkpt><trkpt lat="43.4417511" lon="10.9539794"><ele>603.0</ele><time>2026-04-18T09:39:20.616Z</time></trkpt><trkpt lat="43.4417446" lon="10.953797"><ele>603.25</ele><time>2026-04-18T09:39:21.624Z</time></trkpt><trkpt lat="43.4417364" lon="10.9536107"><ele>603.5</ele><time>2026-04-18T09:39:22.619Z</time></trkpt><trkpt lat="43.4417202" lon="10.9534344"><ele>603.75</ele><time>2026-04-18T09:39:23.615Z</time></trkpt><trkpt lat="43.4417132" lon="10.9532736"><ele>604.0</ele><time>2026-04-18T09:39:24.616Z</time></trkpt><trkpt lat="43.4417045" lon="10.9531221"><ele>604.0</ele><time>2026-04-18T09:39:25.612Z</time></trkpt><trkpt lat="43.4416927" lon="10.9529917"><ele>604.0</ele><time>2026-04-18T09:39:26.608Z</time></trkpt><trkpt lat="43.441688" lon="10.9528836"><ele>604.0</ele><time>2026-04-18T09:39:27.617Z</time></trkpt><trkpt lat="43.4416876" lon="10.9527783"><ele>604.0</ele><time>2026-04-18T09:39:28.61Z</time></trkpt><trkpt lat="43.4417022" lon="10.9526886"><ele>604.0</ele><time>2026-04-18T09:39:29.636Z</time></trkpt><trkpt lat="43.4417356" lon="10.9525487"><ele>604.0</ele><time>2026-04-18T09:39:31.62Z</time></trkpt><trkpt lat="43.4416857" lon="10.9524601"><ele>603.4</ele><time>2026-04-18T09:39:33.616Z</time></trkpt><trkpt lat="43.4415666" lon="10.952395"><ele>602.8</ele><time>2026-04-18T09:39:35.606Z</time></trkpt><trkpt lat="43.4414927" lon="10.9523777"><ele>602.2</ele><time>2026-04-18T09:39:36.606Z</time></trkpt><trkpt lat="43.4414245" lon="10.9523741"><ele>601.6</ele><time>2026-04-18T09:39:37.623Z</time></trkpt><trkpt lat="43.4413575" lon="10.9523947"><ele>601.0</ele><time>2026-04-18T09:39:38.619Z</time></trkpt><trkpt lat="43.4412566" lon="10.9524837"><ele>599.2</ele><time>2026-04-18T09:39:40.612Z</time></trkpt><trkpt lat="43.4412142" lon="10.9526247"><ele>597.4000000000001</ele><time>2026-04-18T09:39:42.612Z</time></trkpt><trkpt lat="43.4412048" lon="10.9528073"><ele>595.6</ele><time>2026-04-18T09:39:44.615Z</time></trkpt><trkpt lat="43.4411979" lon="10.9529174"><ele>593.8000000000001</ele><time>2026-04-18T09:39:45.619Z</time></trkpt><trkpt lat="43.441166" lon="10.9530179"><ele>592.0</ele><time>2026-04-18T09:39:46.614Z</time></trkpt><trkpt lat="43.4411179" lon="10.9530943"><ele>592.0</ele><time>2026-04-18T09:39:47.612Z</time></trkpt><trkpt lat="43.4410507" lon="10.9531351"><ele>592.0</ele><time>2026-04-18T09:39:48.626Z</time></trkpt><trkpt lat="43.44097" lon="10.9531495"><ele>592.0</ele><time>2026-04-18T09:39:49.615Z</time></trkpt><trkpt lat="43.4408866" lon="10.9531371"><ele>592.0</ele><time>2026-04-18T09:39:50.636Z</time></trkpt><trkpt lat="43.4408008" lon="10.9530877"><ele>592.0</ele><time>2026-04-18T09:39:51.62Z</time></trkpt><trkpt lat="43.4407096" lon="10.953016"><ele>592.0</ele><time>2026-04-18T09:39:52.624Z</time></trkpt><trkpt lat="43.4406068" lon="10.9529189"><ele>592.0</ele><time>2026-04-18T09:39:53.617Z</time></trkpt><trkpt lat="43.4405008" lon="10.952808"><ele>592.0</ele><time>2026-04-18T09:39:54.616Z</time></trkpt><trkpt lat="43.4403956" lon="10.9526954"><ele>592.0</ele><time>2026-04-18T09:39:55.629Z</time></trkpt><trkpt lat="43.4402921" lon="10.9525786"><ele>592.0</ele><time>2026-04-18T09:39:56.626Z</time></trkpt><trkpt lat="43.4401971" lon="10.9524799"><ele>589.25</ele><time>2026-04-18T09:39:57.632Z</time></trkpt><trkpt lat="43.440108" lon="10.9523712"><ele>586.5</ele><time>2026-04-18T09:39:58.628Z</time></trkpt><trkpt lat="43.4400171" lon="10.9522586"><ele>583.75</ele><time>2026-04-18T09:39:59.628Z</time></trkpt><trkpt lat="43.4399278" lon="10.9521524"><ele>581.0</ele><time>2026-04-18T09:40:00.638Z</time></trkpt><trkpt lat="43.4398398" lon="10.9520476"><ele>581.0</ele><time>2026-04-18T09:40:01.626Z</time></trkpt><trkpt lat="43.4397534" lon="10.9519553"><ele>581.0</ele><time>2026-04-18T09:40:02.618Z</time></trkpt><trkpt lat="43.4396684" lon="10.9518585"><ele>581.0</ele><time>2026-04-18T09:40:03.625Z</time></trkpt><trkpt lat="43.4395823" lon="10.9517622"><ele>581.0</ele><time>2026-04-18T09:40:04.626Z</time></trkpt><trkpt lat="43.439493" lon="10.9516794"><ele>581.0</ele><time>2026-04-18T09:40:05.625Z</time></trkpt><trkpt lat="43.4394031" lon="10.9515874"><ele>578.5</ele><time>2026-04-18T09:40:06.628Z</time></trkpt><trkpt lat="43.4393119" lon="10.9514997"><ele>576.0</ele><time>2026-04-18T09:40:07.624Z</time></trkpt><trkpt lat="43.4392241" lon="10.9514025"><ele>573.5</ele><time>2026-04-18T09:40:08.623Z</time></trkpt><trkpt lat="43.4391226" lon="10.9512942"><ele>571.0</ele><time>2026-04-18T09:40:09.633Z</time></trkpt><trkpt lat="43.4390063" lon="10.9511747"><ele>571.0</ele><time>2026-04-18T09:40:10.629Z</time></trkpt><trkpt lat="43.4388845" lon="10.9510528"><ele>571.0</ele><time>2026-04-18T09:40:11.63Z</time></trkpt><trkpt lat="43.4387663" lon="10.9509444"><ele>571.0</ele><time>2026-04-18T09:40:12.628Z</time></trkpt><trkpt lat="43.4386377" lon="10.9508321"><ele>571.0</ele><time>2026-04-18T09:40:13.631Z</time></trkpt><trkpt lat="43.4385185" lon="10.9507184"><ele>569.5</ele><time>2026-04-18T09:40:14.63Z</time></trkpt><trkpt lat="43.4383985" lon="10.9505953"><ele>568.0</ele><time>2026-04-18T09:40:15.627Z</time></trkpt><trkpt lat="43.4382776" lon="10.9504795"><ele>566.5</ele><time>2026-04-18T09:40:16.64Z</time></trkpt><trkpt lat="43.438174" lon="10.9503668"><ele>565.0</ele><time>2026-04-18T09:40:17.629Z</time></trkpt><trkpt lat="43.4380828" lon="10.9502471"><ele>565.0</ele><time>2026-04-18T09:40:18.63Z</time></trkpt><trkpt lat="43.4379915" lon="10.9501493"><ele>565.0</ele><time>2026-04-18T09:40:19.631Z</time></trkpt><trkpt lat="43.4379211" lon="10.9500801"><ele>565.0</ele><time>2026-04-18T09:40:20.631Z</time></trkpt><trkpt lat="43.437842" lon="10.9499957"><ele>565.0</ele><time>2026-04-18T09:40:21.641Z</time></trkpt><trkpt lat="43.437766" lon="10.9499081"><ele>565.0</ele><time>2026-04-18T09:40:22.621Z</time></trkpt><trkpt lat="43.4376802" lon="10.9498382"><ele>564.75</ele><time>2026-04-18T09:40:23.62Z</time></trkpt><trkpt lat="43.4375832" lon="10.9497885"><ele>564.5</ele><time>2026-04-18T09:40:24.618Z</time></trkpt><trkpt lat="43.4374717" lon="10.9497557"><ele>564.25</ele><time>2026-04-18T09:40:25.614Z</time></trkpt><trkpt lat="43.4373505" lon="10.9497212"><ele>564.0</ele><time>2026-04-18T09:40:26.62Z</time></trkpt><trkpt lat="43.437231" lon="10.9497081"><ele>563.2</ele><time>2026-04-18T09:40:27.62Z</time></trkpt><trkpt lat="43.437104" lon="10.9496994"><ele>562.4</ele><time>2026-04-18T09:40:28.623Z</time></trkpt><trkpt lat="43.4370065" lon="10.9496873"><ele>561.6</ele><time>2026-04-18T09:40:29.635Z</time></trkpt><trkpt lat="43.4368979" lon="10.9496646"><ele>560.8</ele><time>2026-04-18T09:40:30.631Z</time></trkpt><trkpt lat="43.4367893" lon="10.9496276"><ele>560.0</ele><time>2026-04-18T09:40:31.632Z</time></trkpt><trkpt lat="43.436686" lon="10.949551"><ele>560.0</ele><time>2026-04-18T09:40:32.611Z</time></trkpt><trkpt lat="43.4365823" lon="10.9494433"><ele>560.0</ele><time>2026-04-18T09:40:33.62Z</time></trkpt><trkpt lat="43.4364899" lon="10.9493155"><ele>560.0</ele><time>2026-04-18T09:40:34.614Z</time></trkpt><trkpt lat="43.4364185" lon="10.9491648"><ele>560.0</ele><time>2026-04-18T09:40:35.623Z</time></trkpt><trkpt lat="43.4363572" lon="10.9490124"><ele>560.0</ele><time>2026-04-18T09:40:36.626Z</time></trkpt><trkpt lat="43.4363113" lon="10.9488609"><ele>560.0</ele><time>2026-04-18T09:40:37.618Z</time></trkpt><trkpt lat="43.4362814" lon="10.9487096"><ele>560.0</ele><time>2026-04-18T09:40:38.623Z</time></trkpt><trkpt lat="43.4362357" lon="10.9485991"><ele>560.0</ele><time>2026-04-18T09:40:39.623Z</time></trkpt><trkpt lat="43.4362029" lon="10.9484968"><ele>560.0</ele><time>2026-04-18T09:40:40.614Z</time></trkpt><trkpt lat="43.4361676" lon="10.9483929"><ele>561.2</ele><time>2026-04-18T09:40:41.616Z</time></trkpt><trkpt lat="43.4361311" lon="10.9482742"><ele>562.4</ele><time>2026-04-18T09:40:42.61Z</time></trkpt><trkpt lat="43.4361144" lon="10.9481514"><ele>563.6</ele><time>2026-04-18T09:40:43.611Z</time></trkpt><trkpt lat="43.4361223" lon="10.9480208"><ele>564.8</ele><time>2026-04-18T09:40:44.616Z</time></trkpt><trkpt lat="43.4361242" lon="10.9478987"><ele>566.0</ele><time>2026-04-18T09:40:45.613Z</time></trkpt><trkpt lat="43.4361398" lon="10.947782"><ele>566.0</ele><time>2026-04-18T09:40:46.615Z</time></trkpt><trkpt lat="43.4361647" lon="10.9476636"><ele>566.0</ele><time>2026-04-18T09:40:47.612Z</time></trkpt><trkpt lat="43.4361968" lon="10.9475625"><ele>566.0</ele><time>2026-04-18T09:40:48.608Z</time></trkpt><trkpt lat="43.436234" lon="10.9474699"><ele>566.0</ele><time>2026-04-18T09:40:49.605Z</time></trkpt><trkpt lat="43.436267" lon="10.947389"><ele>566.0</ele><time>2026-04-18T09:40:50.614Z</time></trkpt><trkpt lat="43.4362702" lon="10.9472551"><ele>566.0</ele><time>2026-04-18T09:40:52.606Z</time></trkpt><trkpt lat="43.4362444" lon="10.9471614"><ele>566.2</ele><time>2026-04-18T09:40:53.596Z</time></trkpt><trkpt lat="43.4361927" lon="10.9470713"><ele>566.4000000000001</ele><time>2026-04-18T09:40:54.604Z</time></trkpt><trkpt lat="43.436135" lon="10.9469464"><ele>566.6</ele><time>2026-04-18T09:40:55.601Z</time></trkpt><trkpt lat="43.4360679" lon="10.9468254"><ele>566.8000000000001</ele><time>2026-04-18T09:40:56.592Z</time></trkpt><trkpt lat="43.4360031" lon="10.9467251"><ele>567.0</ele><time>2026-04-18T09:40:57.588Z</time></trkpt><trkpt lat="43.4359462" lon="10.9466244"><ele>563.8000000000001</ele><time>2026-04-18T09:40:58.595Z</time></trkpt><trkpt lat="43.4358713" lon="10.9465241"><ele>560.6</ele><time>2026-04-18T09:40:59.602Z</time></trkpt><trkpt lat="43.4357964" lon="10.9464356"><ele>557.4000000000001</ele><time>2026-04-18T09:41:00.606Z</time></trkpt><trkpt lat="43.4357033" lon="10.9463766"><ele>554.2</ele><time>2026-04-18T09:41:01.597Z</time></trkpt><trkpt lat="43.4356078" lon="10.9463363"><ele>551.0</ele><time>2026-04-18T09:41:02.624Z</time></trkpt><trkpt lat="43.4355218" lon="10.9462958"><ele>551.8</ele><time>2026-04-18T09:41:03.596Z</time></trkpt><trkpt lat="43.4354445" lon="10.9462467"><ele>552.6</ele><time>2026-04-18T09:41:04.605Z</time></trkpt><trkpt lat="43.4353691" lon="10.9461888"><ele>553.4</ele><time>2026-04-18T09:41:05.597Z</time></trkpt><trkpt lat="43.4353051" lon="10.9461048"><ele>554.2</ele><time>2026-04-18T09:41:06.6Z</time></trkpt><trkpt lat="43.4352196" lon="10.945952"><ele>555.0</ele><time>2026-04-18T09:41:08.597Z</time></trkpt><trkpt lat="43.4351658" lon="10.9458653"><ele>553.0</ele><time>2026-04-18T09:41:09.594Z</time></trkpt><trkpt lat="43.4350981" lon="10.9457987"><ele>551.0</ele><time>2026-04-18T09:41:10.601Z</time></trkpt><trkpt lat="43.4350155" lon="10.9457287"><ele>549.0</ele><time>2026-04-18T09:41:11.601Z</time></trkpt><trkpt lat="43.4349361" lon="10.9456627"><ele>547.0</ele><time>2026-04-18T09:41:12.592Z</time></trkpt><trkpt lat="43.4348707" lon="10.9455816"><ele>545.0</ele><time>2026-04-18T09:41:13.599Z</time></trkpt><trkpt lat="43.4348252" lon="10.9454955"><ele>543.0</ele><time>2026-04-18T09:41:14.591Z</time></trkpt><trkpt lat="43.4347915" lon="10.9453884"><ele>543.0</ele><time>2026-04-18T09:41:15.6Z</time></trkpt><trkpt lat="43.4347872" lon="10.9452841"><ele>543.0</ele><time>2026-04-18T09:41:16.616Z</time></trkpt><trkpt lat="43.4347762" lon="10.9451888"><ele>543.0</ele><time>2026-04-18T09:41:17.614Z</time></trkpt><trkpt lat="43.4347499" lon="10.9451017"><ele>543.0</ele><time>2026-04-18T09:41:18.615Z</time></trkpt><trkpt lat="43.4346979" lon="10.9450301"><ele>543.0</ele><time>2026-04-18T09:41:19.612Z</time></trkpt><trkpt lat="43.4346395" lon="10.9449721"><ele>543.0</ele><time>2026-04-18T09:41:20.605Z</time></trkpt><trkpt lat="43.4345697" lon="10.9449433"><ele>543.0</ele><time>2026-04-18T09:41:21.611Z</time></trkpt><trkpt lat="43.4344729" lon="10.9449252"><ele>539.25</ele><time>2026-04-18T09:41:22.606Z</time></trkpt><trkpt lat="43.4343606" lon="10.9449141"><ele>535.5</ele><time>2026-04-18T09:41:23.618Z</time></trkpt><trkpt lat="43.4342324" lon="10.9448825"><ele>531.75</ele><time>2026-04-18T09:41:24.619Z</time></trkpt><trkpt lat="43.4341075" lon="10.9448348"><ele>528.0</ele><time>2026-04-18T09:41:25.612Z</time></trkpt><trkpt lat="43.433974" lon="10.944762"><ele>528.0</ele><time>2026-04-18T09:41:26.621Z</time></trkpt><trkpt lat="43.4338499" lon="10.944672"><ele>528.0</ele><time>2026-04-18T09:41:27.621Z</time></trkpt><trkpt lat="43.4337391" lon="10.9445837"><ele>528.0</ele><time>2026-04-18T09:41:28.624Z</time></trkpt><trkpt lat="43.4336374" lon="10.9444953"><ele>528.0</ele><time>2026-04-18T09:41:29.624Z</time></trkpt><trkpt lat="43.4335473" lon="10.9444006"><ele>525.8</ele><time>2026-04-18T09:41:30.62Z</time></trkpt><trkpt lat="43.433455" lon="10.9443242"><ele>523.5999999999999</ele><time>2026-04-18T09:41:31.626Z</time></trkpt><trkpt lat="43.4333643" lon="10.9442889"><ele>521.4000000000001</ele><time>2026-04-18T09:41:32.633Z</time></trkpt><trkpt lat="43.433266" lon="10.9442903"><ele>519.2</ele><time>2026-04-18T09:41:33.613Z</time></trkpt><trkpt lat="43.4331388" lon="10.9443216"><ele>517.0</ele><time>2026-04-18T09:41:34.609Z</time></trkpt><trkpt lat="43.4330052" lon="10.9443676"><ele>515.5</ele><time>2026-04-18T09:41:35.618Z</time></trkpt><trkpt lat="43.4328675" lon="10.9444112"><ele>514.0</ele><time>2026-04-18T09:41:36.623Z</time></trkpt><trkpt lat="43.4327305" lon="10.9444535"><ele>512.5</ele><time>2026-04-18T09:41:37.624Z</time></trkpt><trkpt lat="43.4325981" lon="10.9444817"><ele>511.0</ele><time>2026-04-18T09:41:38.621Z</time></trkpt><trkpt lat="43.4324812" lon="10.944505"><ele>511.00000000000006</ele><time>2026-04-18T09:41:39.635Z</time></trkpt><trkpt lat="43.4323827" lon="10.9445267"><ele>511.0</ele><time>2026-04-18T09:41:40.62Z</time></trkpt><trkpt lat="43.432296" lon="10.9445536"><ele>511.0</ele><time>2026-04-18T09:41:41.624Z</time></trkpt><trkpt lat="43.4322152" lon="10.9445564"><ele>511.0</ele><time>2026-04-18T09:41:42.626Z</time></trkpt><trkpt lat="43.4321364" lon="10.9445442"><ele>511.00000000000006</ele><time>2026-04-18T09:41:43.619Z</time></trkpt><trkpt lat="43.4320595" lon="10.9444942"><ele>511.0</ele><time>2026-04-18T09:41:44.621Z</time></trkpt><trkpt lat="43.4319928" lon="10.9444275"><ele>510.25</ele><time>2026-04-18T09:41:45.629Z</time></trkpt><trkpt lat="43.4319353" lon="10.9443135"><ele>509.5</ele><time>2026-04-18T09:41:46.615Z</time></trkpt><trkpt lat="43.4318968" lon="10.9441784"><ele>508.75</ele><time>2026-04-18T09:41:47.626Z</time></trkpt><trkpt lat="43.4318788" lon="10.9440087"><ele>508.0</ele><time>2026-04-18T09:41:48.622Z</time></trkpt><trkpt lat="43.4318719" lon="10.9438238"><ele>508.0</ele><time>2026-04-18T09:41:49.618Z</time></trkpt><trkpt lat="43.4318715" lon="10.9436364"><ele>508.0</ele><time>2026-04-18T09:41:50.612Z</time></trkpt><trkpt lat="43.4318731" lon="10.9434467"><ele>508.0</ele><time>2026-04-18T09:41:51.625Z</time></trkpt><trkpt lat="43.4318776" lon="10.9432437"><ele>508.0</ele><time>2026-04-18T09:41:52.618Z</time></trkpt><trkpt lat="43.4318857" lon="10.9430258"><ele>508.75</ele><time>2026-04-18T09:41:53.621Z</time></trkpt><trkpt lat="43.4318751" lon="10.9428113"><ele>509.5</ele><time>2026-04-18T09:41:54.621Z</time></trkpt><trkpt lat="43.4318562" lon="10.9426234"><ele>510.25</ele><time>2026-04-18T09:41:55.608Z</time></trkpt><trkpt lat="43.431868" lon="10.9424351"><ele>511.0</ele><time>2026-04-18T09:41:56.618Z</time></trkpt><trkpt lat="43.4318785" lon="10.942265"><ele>512.0</ele><time>2026-04-18T09:41:57.621Z</time></trkpt><trkpt lat="43.4318808" lon="10.942092"><ele>513.0</ele><time>2026-04-18T09:41:58.623Z</time></trkpt><trkpt lat="43.4318858" lon="10.9419234"><ele>514.0</ele><time>2026-04-18T09:41:59.619Z</time></trkpt><trkpt lat="43.4318842" lon="10.9417628"><ele>515.0</ele><time>2026-04-18T09:42:00.625Z</time></trkpt><trkpt lat="43.4318845" lon="10.941577"><ele>515.0</ele><time>2026-04-18T09:42:01.618Z</time></trkpt><trkpt lat="43.4318845" lon="10.9413894"><ele>515.0</ele><time>2026-04-18T09:42:02.616Z</time></trkpt><trkpt lat="43.4319052" lon="10.9412231"><ele>515.0</ele><time>2026-04-18T09:42:03.638Z</time></trkpt><trkpt lat="43.4319188" lon="10.9410771"><ele>515.0</ele><time>2026-04-18T09:42:04.619Z</time></trkpt><trkpt lat="43.4319372" lon="10.9409098"><ele>514.0</ele><time>2026-04-18T09:42:05.63Z</time></trkpt><trkpt lat="43.4319673" lon="10.9407486"><ele>513.0</ele><time>2026-04-18T09:42:06.625Z</time></trkpt><trkpt lat="43.4319986" lon="10.940596"><ele>512.0</ele><time>2026-04-18T09:42:07.62Z</time></trkpt><trkpt lat="43.4320297" lon="10.9404634"><ele>511.0</ele><time>2026-04-18T09:42:08.623Z</time></trkpt><trkpt lat="43.4320477" lon="10.940353"><ele>510.0</ele><time>2026-04-18T09:42:09.618Z</time></trkpt><trkpt lat="43.432058" lon="10.9402511"><ele>510.0</ele><time>2026-04-18T09:42:10.619Z</time></trkpt><trkpt lat="43.4320681" lon="10.9401562"><ele>510.0</ele><time>2026-04-18T09:42:11.615Z</time></trkpt><trkpt lat="43.4320825" lon="10.9400672"><ele>510.0</ele><time>2026-04-18T09:42:12.619Z</time></trkpt><trkpt lat="43.4320965" lon="10.9399713"><ele>510.0</ele><time>2026-04-18T09:42:13.617Z</time></trkpt><trkpt lat="43.43208" lon="10.939809"><ele>510.0</ele><time>2026-04-18T09:42:15.608Z</time></trkpt><trkpt lat="43.4320394" lon="10.9397248"><ele>510.0</ele><time>2026-04-18T09:42:16.612Z</time></trkpt><trkpt lat="43.4319844" lon="10.9396237"><ele>508.8</ele><time>2026-04-18T09:42:17.603Z</time></trkpt><trkpt lat="43.4319479" lon="10.939499"><ele>507.6</ele><time>2026-04-18T09:42:18.605Z</time></trkpt><trkpt lat="43.4319249" lon="10.9393534"><ele>506.4</ele><time>2026-04-18T09:42:19.605Z</time></trkpt><trkpt lat="43.4319348" lon="10.9392037"><ele>505.2</ele><time>2026-04-18T09:42:20.61Z</time></trkpt><trkpt lat="43.4319574" lon="10.9390481"><ele>504.0</ele><time>2026-04-18T09:42:21.624Z</time></trkpt><trkpt lat="43.4319591" lon="10.9389013"><ele>503.0</ele><time>2026-04-18T09:42:22.626Z</time></trkpt><trkpt lat="43.4319387" lon="10.9387439"><ele>502.0</ele><time>2026-04-18T09:42:23.614Z</time></trkpt><trkpt lat="43.4319079" lon="10.9385796"><ele>501.0</ele><time>2026-04-18T09:42:24.619Z</time></trkpt><trkpt lat="43.4318536" lon="10.9384049"><ele>500.0</ele><time>2026-04-18T09:42:25.62Z</time></trkpt><trkpt lat="43.4317903" lon="10.9382384"><ele>500.0</ele><time>2026-04-18T09:42:26.621Z</time></trkpt><trkpt lat="43.4317187" lon="10.9380996"><ele>500.0</ele><time>2026-04-18T09:42:27.621Z</time></trkpt><trkpt lat="43.4316447" lon="10.937984"><ele>500.0</ele><time>2026-04-18T09:42:28.621Z</time></trkpt><trkpt lat="43.4315823" lon="10.937873"><ele>500.0</ele><time>2026-04-18T09:42:29.625Z</time></trkpt><trkpt lat="43.4314963" lon="10.9377614"><ele>500.0</ele><time>2026-04-18T09:42:30.622Z</time></trkpt><trkpt lat="43.4313997" lon="10.9376641"><ele>500.0</ele><time>2026-04-18T09:42:31.623Z</time></trkpt><trkpt lat="43.4313004" lon="10.9375955"><ele>500.0</ele><time>2026-04-18T09:42:32.611Z</time></trkpt><trkpt lat="43.4312109" lon="10.9375401"><ele>500.0</ele><time>2026-04-18T09:42:33.614Z</time></trkpt><trkpt lat="43.4311229" lon="10.9374751"><ele>500.0</ele><time>2026-04-18T09:42:34.628Z</time></trkpt><trkpt lat="43.4310395" lon="10.937371"><ele>499.8</ele><time>2026-04-18T09:42:35.614Z</time></trkpt><trkpt lat="43.4309715" lon="10.9372606"><ele>499.6</ele><time>2026-04-18T09:42:36.61Z</time></trkpt><trkpt lat="43.4309193" lon="10.9371457"><ele>499.4</ele><time>2026-04-18T09:42:37.605Z</time></trkpt><trkpt lat="43.4308686" lon="10.937005"><ele>499.2</ele><time>2026-04-18T09:42:38.613Z</time></trkpt><trkpt lat="43.4308214" lon="10.9368446"><ele>499.0</ele><time>2026-04-18T09:42:39.605Z</time></trkpt><trkpt lat="43.4307745" lon="10.9366827"><ele>499.0</ele><time>2026-04-18T09:42:40.613Z</time></trkpt><trkpt lat="43.4307075" lon="10.9365063"><ele>499.0</ele><time>2026-04-18T09:42:41.611Z</time></trkpt><trkpt lat="43.4306442" lon="10.9363225"><ele>499.0</ele><time>2026-04-18T09:42:42.611Z</time></trkpt><trkpt lat="43.4305838" lon="10.9361728"><ele>499.0</ele><time>2026-04-18T09:42:43.613Z</time></trkpt><trkpt lat="43.4305188" lon="10.9360202"><ele>497.2</ele><time>2026-04-18T09:42:44.607Z</time></trkpt><trkpt lat="43.4304473" lon="10.9358952"><ele>495.4</ele><time>2026-04-18T09:42:45.61Z</time></trkpt><trkpt lat="43.4303572" lon="10.9358157"><ele>493.6</ele><time>2026-04-18T09:42:46.621Z</time></trkpt><trkpt lat="43.4302934" lon="10.9357222"><ele>491.8</ele><time>2026-04-18T09:42:47.622Z</time></trkpt><trkpt lat="43.4302458" lon="10.9356199"><ele>490.0</ele><time>2026-04-18T09:42:48.622Z</time></trkpt><trkpt lat="43.4301912" lon="10.9355149"><ele>490.0</ele><time>2026-04-18T09:42:49.622Z</time></trkpt><trkpt lat="43.430126" lon="10.9354163"><ele>490.0</ele><time>2026-04-18T09:42:50.622Z</time></trkpt><trkpt lat="43.4300343" lon="10.9353224"><ele>490.0</ele><time>2026-04-18T09:42:51.624Z</time></trkpt><trkpt lat="43.4299297" lon="10.9352533"><ele>490.0</ele><time>2026-04-18T09:42:52.616Z</time></trkpt><trkpt lat="43.4298052" lon="10.9351619"><ele>489.6666666666667</ele><time>2026-04-18T09:42:53.608Z</time></trkpt><trkpt lat="43.4296894" lon="10.9350536"><ele>489.33333333333337</ele><time>2026-04-18T09:42:54.615Z</time></trkpt><trkpt lat="43.4295623" lon="10.9349502"><ele>489.0</ele><time>2026-04-18T09:42:55.607Z</time></trkpt><trkpt lat="43.4294127" lon="10.9348569"><ele>489.0</ele><time>2026-04-18T09:42:56.632Z</time></trkpt><trkpt lat="43.4292654" lon="10.934768"><ele>489.0</ele><time>2026-04-18T09:42:57.622Z</time></trkpt><trkpt lat="43.4291305" lon="10.9347005"><ele>489.0</ele><time>2026-04-18T09:42:58.619Z</time></trkpt><trkpt lat="43.4290151" lon="10.9346443"><ele>489.0</ele><time>2026-04-18T09:42:59.617Z</time></trkpt><trkpt lat="43.4289158" lon="10.9345657"><ele>489.0</ele><time>2026-04-18T09:43:00.621Z</time></trkpt><trkpt lat="43.4288328" lon="10.9344641"><ele>489.0</ele><time>2026-04-18T09:43:01.616Z</time></trkpt><trkpt lat="43.4287286" lon="10.9343218"><ele>489.0</ele><time>2026-04-18T09:43:02.617Z</time></trkpt><trkpt lat="43.4286173" lon="10.9342032"><ele>489.0</ele><time>2026-04-18T09:43:03.618Z</time></trkpt><trkpt lat="43.428492" lon="10.9340994"><ele>491.0</ele><time>2026-04-18T09:43:04.615Z</time></trkpt><trkpt lat="43.4283699" lon="10.934009"><ele>493.0</ele><time>2026-04-18T09:43:05.633Z</time></trkpt><trkpt lat="43.4282942" lon="10.9339298"><ele>495.0</ele><time>2026-04-18T09:43:06.623Z</time></trkpt><trkpt lat="43.4282169" lon="10.9338598"><ele>497.0</ele><time>2026-04-18T09:43:07.631Z</time></trkpt><trkpt lat="43.4281326" lon="10.9337672"><ele>499.0</ele><time>2026-04-18T09:43:08.624Z</time></trkpt><trkpt lat="43.4280553" lon="10.9336378"><ele>499.0</ele><time>2026-04-18T09:43:09.631Z</time></trkpt><trkpt lat="43.4280099" lon="10.9335098"><ele>499.0</ele><time>2026-04-18T09:43:10.622Z</time></trkpt><trkpt lat="43.4279721" lon="10.9333792"><ele>499.0</ele><time>2026-04-18T09:43:11.632Z</time></trkpt><trkpt lat="43.4279419" lon="10.9332524"><ele>499.0</ele><time>2026-04-18T09:43:12.628Z</time></trkpt><trkpt lat="43.4279098" lon="10.9331315"><ele>499.0</ele><time>2026-04-18T09:43:13.629Z</time></trkpt><trkpt lat="43.4278663" lon="10.9330266"><ele>501.50000000000006</ele><time>2026-04-18T09:43:14.631Z</time></trkpt><trkpt lat="43.4278258" lon="10.9329222"><ele>504.0</ele><time>2026-04-18T09:43:15.626Z</time></trkpt><trkpt lat="43.4277865" lon="10.9328177"><ele>506.5</ele><time>2026-04-18T09:43:16.618Z</time></trkpt><trkpt lat="43.4277475" lon="10.9327355"><ele>509.0</ele><time>2026-04-18T09:43:17.625Z</time></trkpt><trkpt lat="43.4277106" lon="10.9326481"><ele>511.50000000000006</ele><time>2026-04-18T09:43:18.614Z</time></trkpt><trkpt lat="43.4276847" lon="10.9325015"><ele>514.0</ele><time>2026-04-18T09:43:20.607Z</time></trkpt><trkpt lat="43.427758" lon="10.9323544"><ele>514.2857142857142</ele><time>2026-04-18T09:43:22.605Z</time></trkpt><trkpt lat="43.4278247" lon="10.9323086"><ele>514.5714285714286</ele><time>2026-04-18T09:43:23.606Z</time></trkpt><trkpt lat="43.4279034" lon="10.9322664"><ele>514.8571428571429</ele><time>2026-04-18T09:43:24.604Z</time></trkpt><trkpt lat="43.4279692" lon="10.9322308"><ele>515.1428571428571</ele><time>2026-04-18T09:43:25.605Z</time></trkpt><trkpt lat="43.4280392" lon="10.932189"><ele>515.4285714285714</ele><time>2026-04-18T09:43:26.604Z</time></trkpt><trkpt lat="43.4280994" lon="10.9321312"><ele>515.7142857142857</ele><time>2026-04-18T09:43:27.601Z</time></trkpt><trkpt lat="43.4281335" lon="10.9320484"><ele>516.0</ele><time>2026-04-18T09:43:28.599Z</time></trkpt><trkpt lat="43.4281659" lon="10.9319734"><ele>515.2</ele><time>2026-04-18T09:43:29.596Z</time></trkpt><trkpt lat="43.4281763" lon="10.9318799"><ele>514.4000000000001</ele><time>2026-04-18T09:43:30.595Z</time></trkpt><trkpt lat="43.4281646" lon="10.9317668"><ele>513.6</ele><time>2026-04-18T09:43:31.594Z</time></trkpt><trkpt lat="43.4281428" lon="10.9316246"><ele>512.8000000000001</ele><time>2026-04-18T09:43:32.595Z</time></trkpt><trkpt lat="43.4281039" lon="10.9314892"><ele>512.0</ele><time>2026-04-18T09:43:33.604Z</time></trkpt><trkpt lat="43.4280678" lon="10.9313537"><ele>510.6</ele><time>2026-04-18T09:43:34.603Z</time></trkpt><trkpt lat="43.4280477" lon="10.9312277"><ele>509.20000000000005</ele><time>2026-04-18T09:43:35.598Z</time></trkpt><trkpt lat="43.4280537" lon="10.93108"><ele>507.8</ele><time>2026-04-18T09:43:36.605Z</time></trkpt><trkpt lat="43.4280676" lon="10.9309292"><ele>506.4</ele><time>2026-04-18T09:43:37.596Z</time></trkpt><trkpt lat="43.4280952" lon="10.9307767"><ele>505.0</ele><time>2026-04-18T09:43:38.605Z</time></trkpt><trkpt lat="43.428131" lon="10.9306171"><ele>502.8</ele><time>2026-04-18T09:43:39.596Z</time></trkpt><trkpt lat="43.428167" lon="10.9304629"><ele>500.6</ele><time>2026-04-18T09:43:40.592Z</time></trkpt><trkpt lat="43.4282074" lon="10.9303184"><ele>498.4</ele><time>2026-04-18T09:43:41.59Z</time></trkpt><trkpt lat="43.4282472" lon="10.9301943"><ele>496.2</ele><time>2026-04-18T09:43:42.588Z</time></trkpt><trkpt lat="43.428267" lon="10.9300774"><ele>494.0</ele><time>2026-04-18T09:43:43.592Z</time></trkpt><trkpt lat="43.4282856" lon="10.9299663"><ele>492.2</ele><time>2026-04-18T09:43:44.595Z</time></trkpt><trkpt lat="43.42829" lon="10.9298483"><ele>490.4</ele><time>2026-04-18T09:43:45.588Z</time></trkpt><trkpt lat="43.4282778" lon="10.9297274"><ele>488.6</ele><time>2026-04-18T09:43:46.604Z</time></trkpt><trkpt lat="43.4282479" lon="10.929585"><ele>486.8</ele><time>2026-04-18T09:43:47.598Z</time></trkpt><trkpt lat="43.4281991" lon="10.9294349"><ele>485.0</ele><time>2026-04-18T09:43:48.597Z</time></trkpt><trkpt lat="43.4281411" lon="10.9292871"><ele>487.4</ele><time>2026-04-18T09:43:49.601Z</time></trkpt><trkpt lat="43.4280825" lon="10.9291495"><ele>489.8</ele><time>2026-04-18T09:43:50.589Z</time></trkpt><trkpt lat="43.4280305" lon="10.929027"><ele>492.20000000000005</ele><time>2026-04-18T09:43:51.603Z</time></trkpt><trkpt lat="43.4279889" lon="10.9289052"><ele>494.6</ele><time>2026-04-18T09:43:52.603Z</time></trkpt><trkpt lat="43.4279719" lon="10.9287677"><ele>497.0</ele><time>2026-04-18T09:43:53.602Z</time></trkpt><trkpt lat="43.4279664" lon="10.9286326"><ele>497.0</ele><time>2026-04-18T09:43:54.602Z</time></trkpt><trkpt lat="43.427958" lon="10.9285049"><ele>497.00000000000006</ele><time>2026-04-18T09:43:55.605Z</time></trkpt><trkpt lat="43.4279459" lon="10.9283806"><ele>497.00000000000006</ele><time>2026-04-18T09:43:56.599Z</time></trkpt><trkpt lat="43.427938" lon="10.9282552"><ele>497.0</ele><time>2026-04-18T09:43:57.606Z</time></trkpt><trkpt lat="43.4278965" lon="10.9281201"><ele>497.0</ele><time>2026-04-18T09:43:58.6Z</time></trkpt><trkpt lat="43.4278423" lon="10.9279987"><ele>494.0</ele><time>2026-04-18T09:43:59.604Z</time></trkpt><trkpt lat="43.4277883" lon="10.9278828"><ele>491.00000000000006</ele><time>2026-04-18T09:44:00.612Z</time></trkpt><trkpt lat="43.4277322" lon="10.9277615"><ele>488.00000000000006</ele><time>2026-04-18T09:44:01.609Z</time></trkpt><trkpt lat="43.4276746" lon="10.9276508"><ele>485.0</ele><time>2026-04-18T09:44:02.607Z</time></trkpt><trkpt lat="43.4276217" lon="10.9275519"><ele>482.0</ele><time>2026-04-18T09:44:03.615Z</time></trkpt><trkpt lat="43.4275738" lon="10.9274607"><ele>479.3333333333333</ele><time>2026-04-18T09:44:04.61Z</time></trkpt><trkpt lat="43.4275354" lon="10.9273684"><ele>476.66666666666663</ele><time>2026-04-18T09:44:05.614Z</time></trkpt><trkpt lat="43.4275031" lon="10.9272802"><ele>474.0</ele><time>2026-04-18T09:44:06.616Z</time></trkpt><trkpt lat="43.4274406" lon="10.9272191"><ele>471.33333333333337</ele><time>2026-04-18T09:44:07.617Z</time></trkpt><trkpt lat="43.4273642" lon="10.9271663"><ele>468.6666666666667</ele><time>2026-04-18T09:44:08.609Z</time></trkpt><trkpt lat="43.4272852" lon="10.9271177"><ele>466.0</ele><time>2026-04-18T09:44:09.615Z</time></trkpt><trkpt lat="43.427204" lon="10.9270823"><ele>466.33333333333337</ele><time>2026-04-18T09:44:10.604Z</time></trkpt><trkpt lat="43.4271338" lon="10.9270456"><ele>466.6666666666667</ele><time>2026-04-18T09:44:11.605Z</time></trkpt><trkpt lat="43.4270687" lon="10.9270212"><ele>467.0</ele><time>2026-04-18T09:44:12.607Z</time></trkpt><trkpt lat="43.4269627" lon="10.9269289"><ele>467.33333333333337</ele><time>2026-04-18T09:44:14.606Z</time></trkpt><trkpt lat="43.4269312" lon="10.9268474"><ele>467.6666666666667</ele><time>2026-04-18T09:44:15.6Z</time></trkpt><trkpt lat="43.4269295" lon="10.9267511"><ele>468.0</ele><time>2026-04-18T09:44:16.601Z</time></trkpt><trkpt lat="43.4269603" lon="10.9266334"><ele>468.0</ele><time>2026-04-18T09:44:17.602Z</time></trkpt><trkpt lat="43.4270145" lon="10.9265231"><ele>467.99999999999994</ele><time>2026-04-18T09:44:18.607Z</time></trkpt><trkpt lat="43.4270877" lon="10.9264422"><ele>467.99999999999994</ele><time>2026-04-18T09:44:19.616Z</time></trkpt><trkpt lat="43.4271962" lon="10.9264105"><ele>468.0</ele><time>2026-04-18T09:44:20.615Z</time></trkpt><trkpt lat="43.4272985" lon="10.9264026"><ele>468.0</ele><time>2026-04-18T09:44:21.623Z</time></trkpt><trkpt lat="43.4274021" lon="10.9264006"><ele>465.4</ele><time>2026-04-18T09:44:22.621Z</time></trkpt><trkpt lat="43.4274916" lon="10.9263907"><ele>462.79999999999995</ele><time>2026-04-18T09:44:23.626Z</time></trkpt><trkpt lat="43.4275747" lon="10.9263517"><ele>460.2</ele><time>2026-04-18T09:44:24.624Z</time></trkpt><trkpt lat="43.4276534" lon="10.9262918"><ele>457.6</ele><time>2026-04-18T09:44:25.619Z</time></trkpt><trkpt lat="43.4277247" lon="10.9262066"><ele>455.0</ele><time>2026-04-18T09:44:26.617Z</time></trkpt><trkpt lat="43.4277895" lon="10.9260903"><ele>455.0</ele><time>2026-04-18T09:44:27.62Z</time></trkpt><trkpt lat="43.4278376" lon="10.9259455"><ele>455.0</ele><time>2026-04-18T09:44:28.625Z</time></trkpt><trkpt lat="43.4278825" lon="10.9258148"><ele>455.0</ele><time>2026-04-18T09:44:29.614Z</time></trkpt><trkpt lat="43.4279015" lon="10.9256794"><ele>455.0</ele><time>2026-04-18T09:44:30.609Z</time></trkpt><trkpt lat="43.4279029" lon="10.9255131"><ele>455.0</ele><time>2026-04-18T09:44:31.612Z</time></trkpt><trkpt lat="43.427898" lon="10.925335"><ele>456.0</ele><time>2026-04-18T09:44:32.61Z</time></trkpt><trkpt lat="43.4278802" lon="10.925143"><ele>457.0</ele><time>2026-04-18T09:44:33.605Z</time></trkpt><trkpt lat="43.4278664" lon="10.9249276"><ele>458.0</ele><time>2026-04-18T09:44:34.616Z</time></trkpt><trkpt lat="43.4278354" lon="10.9246991"><ele>458.5</ele><time>2026-04-18T09:44:35.607Z</time></trkpt><trkpt lat="43.4278312" lon="10.924476"><ele>459.0</ele><time>2026-04-18T09:44:36.61Z</time></trkpt><trkpt lat="43.4278303" lon="10.9242803"><ele>459.5</ele><time>2026-04-18T09:44:37.612Z</time></trkpt><trkpt lat="43.4278289" lon="10.9241049"><ele>460.0</ele><time>2026-04-18T09:44:38.625Z</time></trkpt><trkpt lat="43.4278322" lon="10.9239371"><ele>458.75</ele><time>2026-04-18T09:44:39.611Z</time></trkpt><trkpt lat="43.4278595" lon="10.9237619"><ele>457.5</ele><time>2026-04-18T09:44:40.618Z</time></trkpt><trkpt lat="43.4278984" lon="10.9235769"><ele>456.25</ele><time>2026-04-18T09:44:41.611Z</time></trkpt><trkpt lat="43.4279411" lon="10.9233965"><ele>455.0</ele><time>2026-04-18T09:44:42.616Z</time></trkpt><trkpt lat="43.4279987" lon="10.9231899"><ele>444.3333333333333</ele><time>2026-04-18T09:44:43.614Z</time></trkpt><trkpt lat="43.428055" lon="10.923004"><ele>433.66666666666663</ele><time>2026-04-18T09:44:44.618Z</time></trkpt><trkpt lat="43.4281071" lon="10.9228052"><ele>423.0</ele><time>2026-04-18T09:44:45.616Z</time></trkpt><trkpt lat="43.4281562" lon="10.9226052"><ele>422.75</ele><time>2026-04-18T09:44:46.618Z</time></trkpt><trkpt lat="43.4282085" lon="10.9224194"><ele>422.5</ele><time>2026-04-18T09:44:47.624Z</time></trkpt><trkpt lat="43.4282699" lon="10.9222473"><ele>422.25</ele><time>2026-04-18T09:44:48.612Z</time></trkpt><trkpt lat="43.4283455" lon="10.9220933"><ele>422.0</ele><time>2026-04-18T09:44:49.611Z</time></trkpt><trkpt lat="43.4284324" lon="10.9219497"><ele>422.0</ele><time>2026-04-18T09:44:50.61Z</time></trkpt><trkpt lat="43.4285319" lon="10.9218174"><ele>422.0</ele><time>2026-04-18T09:44:51.616Z</time></trkpt><trkpt lat="43.4286507" lon="10.9217111"><ele>422.0</ele><time>2026-04-18T09:44:52.623Z</time></trkpt><trkpt lat="43.4287369" lon="10.9216357"><ele>422.0</ele><time>2026-04-18T09:44:53.614Z</time></trkpt><trkpt lat="43.4288214" lon="10.9215659"><ele>422.0</ele><time>2026-04-18T09:44:54.621Z</time></trkpt><trkpt lat="43.4289039" lon="10.9214693"><ele>422.0</ele><time>2026-04-18T09:44:55.618Z</time></trkpt><trkpt lat="43.4289599" lon="10.9213692"><ele>422.0</ele><time>2026-04-18T09:44:56.615Z</time></trkpt><trkpt lat="43.4290031" lon="10.921252"><ele>422.0</ele><time>2026-04-18T09:44:57.619Z</time></trkpt><trkpt lat="43.4290321" lon="10.9211149"><ele>422.0</ele><time>2026-04-18T09:44:58.617Z</time></trkpt><trkpt lat="43.429047" lon="10.9209873"><ele>422.8</ele><time>2026-04-18T09:44:59.574Z</time></trkpt><trkpt lat="43.4290373" lon="10.9208569"><ele>423.6</ele><time>2026-04-18T09:45:00.577Z</time></trkpt><trkpt lat="43.4290168" lon="10.9207209"><ele>424.40000000000003</ele><time>2026-04-18T09:45:01.573Z</time></trkpt><trkpt lat="43.428986" lon="10.9205898"><ele>425.20000000000005</ele><time>2026-04-18T09:45:02.572Z</time></trkpt><trkpt lat="43.4289513" lon="10.9204706"><ele>426.0</ele><time>2026-04-18T09:45:03.573Z</time></trkpt><trkpt lat="43.4289172" lon="10.9203477"><ele>426.0</ele><time>2026-04-18T09:45:04.573Z</time></trkpt><trkpt lat="43.4288902" lon="10.9202322"><ele>426.0</ele><time>2026-04-18T09:45:05.576Z</time></trkpt><trkpt lat="43.4288778" lon="10.9201227"><ele>426.0</ele><time>2026-04-18T09:45:06.57Z</time></trkpt><trkpt lat="43.428885" lon="10.9200226"><ele>426.0</ele><time>2026-04-18T09:45:07.569Z</time></trkpt><trkpt lat="43.4289107" lon="10.9199141"><ele>426.0</ele><time>2026-04-18T09:45:08.572Z</time></trkpt><trkpt lat="43.4289571" lon="10.9197927"><ele>426.0</ele><time>2026-04-18T09:45:09.584Z</time></trkpt><trkpt lat="43.4290208" lon="10.9196493"><ele>426.0</ele><time>2026-04-18T09:45:10.573Z</time></trkpt><trkpt lat="43.4290872" lon="10.9194956"><ele>426.0</ele><time>2026-04-18T09:45:11.575Z</time></trkpt><trkpt lat="43.4291515" lon="10.9193341"><ele>426.0</ele><time>2026-04-18T09:45:12.574Z</time></trkpt><trkpt lat="43.4292142" lon="10.9191577"><ele>426.0</ele><time>2026-04-18T09:45:13.572Z</time></trkpt><trkpt lat="43.4292653" lon="10.9189789"><ele>424.75</ele><time>2026-04-18T09:45:14.575Z</time></trkpt><trkpt lat="43.4293012" lon="10.9187961"><ele>423.5</ele><time>2026-04-18T09:45:15.57Z</time></trkpt><trkpt lat="43.4293207" lon="10.918604"><ele>422.25</ele><time>2026-04-18T09:45:16.578Z</time></trkpt><trkpt lat="43.42933" lon="10.9184277"><ele>421.0</ele><time>2026-04-18T09:45:17.577Z</time></trkpt><trkpt lat="43.4293178" lon="10.918249"><ele>419.75</ele><time>2026-04-18T09:45:18.578Z</time></trkpt><trkpt lat="43.4293154" lon="10.918082"><ele>418.5</ele><time>2026-04-18T09:45:19.576Z</time></trkpt><trkpt lat="43.4292959" lon="10.9179211"><ele>417.25</ele><time>2026-04-18T09:45:20.572Z</time></trkpt><trkpt lat="43.4292531" lon="10.9177517"><ele>416.0</ele><time>2026-04-18T09:45:21.569Z</time></trkpt><trkpt lat="43.4292035" lon="10.9175895"><ele>416.0</ele><time>2026-04-18T09:45:22.573Z</time></trkpt><trkpt lat="43.4291554" lon="10.917413"><ele>416.0</ele><time>2026-04-18T09:45:23.571Z</time></trkpt><trkpt lat="43.4291126" lon="10.9172284"><ele>416.0</ele><time>2026-04-18T09:45:24.575Z</time></trkpt><trkpt lat="43.4290685" lon="10.9170647"><ele>416.0</ele><time>2026-04-18T09:45:25.569Z</time></trkpt><trkpt lat="43.4290387" lon="10.9169042"><ele>416.0</ele><time>2026-04-18T09:45:26.569Z</time></trkpt><trkpt lat="43.4290145" lon="10.9167493"><ele>416.0</ele><time>2026-04-18T09:45:27.564Z</time></trkpt><trkpt lat="43.4289921" lon="10.9165998"><ele>416.0</ele><time>2026-04-18T09:45:28.566Z</time></trkpt><trkpt lat="43.4289686" lon="10.9164509"><ele>416.0</ele><time>2026-04-18T09:45:29.562Z</time></trkpt><trkpt lat="43.4289491" lon="10.9163146"><ele>416.0</ele><time>2026-04-18T09:45:30.571Z</time></trkpt><trkpt lat="43.4289359" lon="10.9161908"><ele>415.66666666666663</ele><time>2026-04-18T09:45:31.56Z</time></trkpt><trkpt lat="43.4289301" lon="10.9160637"><ele>415.3333333333333</ele><time>2026-04-18T09:45:32.565Z</time></trkpt><trkpt lat="43.4289336" lon="10.9159389"><ele>415.0</ele><time>2026-04-18T09:45:33.563Z</time></trkpt><trkpt lat="43.4289301" lon="10.9158316"><ele>414.66666666666663</ele><time>2026-04-18T09:45:34.567Z</time></trkpt><trkpt lat="43.4289217" lon="10.9157313"><ele>414.3333333333333</ele><time>2026-04-18T09:45:35.563Z</time></trkpt><trkpt lat="43.4288961" lon="10.9156291"><ele>414.0</ele><time>2026-04-18T09:45:36.564Z</time></trkpt><trkpt lat="43.4288416" lon="10.9155412"><ele>409.6</ele><time>2026-04-18T09:45:37.556Z</time></trkpt><trkpt lat="43.4287687" lon="10.915467"><ele>405.2</ele><time>2026-04-18T09:45:38.556Z</time></trkpt><trkpt lat="43.428677" lon="10.9154268"><ele>400.8</ele><time>2026-04-18T09:45:39.557Z</time></trkpt><trkpt lat="43.4285776" lon="10.9153966"><ele>396.40000000000003</ele><time>2026-04-18T09:45:40.572Z</time></trkpt><trkpt lat="43.4284659" lon="10.9153749"><ele>392.0</ele><time>2026-04-18T09:45:41.566Z</time></trkpt><trkpt lat="43.4283548" lon="10.9153323"><ele>392.0</ele><time>2026-04-18T09:45:42.576Z</time></trkpt><trkpt lat="43.4282528" lon="10.9152493"><ele>392.0</ele><time>2026-04-18T09:45:43.574Z</time></trkpt><trkpt lat="43.4281579" lon="10.9151293"><ele>392.0</ele><time>2026-04-18T09:45:44.57Z</time></trkpt><trkpt lat="43.4280554" lon="10.9149633"><ele>392.0</ele><time>2026-04-18T09:45:45.569Z</time></trkpt><trkpt lat="43.4279616" lon="10.9147666"><ele>390.75</ele><time>2026-04-18T09:45:46.571Z</time></trkpt><trkpt lat="43.4278633" lon="10.9146009"><ele>389.5</ele><time>2026-04-18T09:45:47.567Z</time></trkpt><trkpt lat="43.4277768" lon="10.9144566"><ele>388.25</ele><time>2026-04-18T09:45:48.571Z</time></trkpt><trkpt lat="43.4277132" lon="10.9143255"><ele>387.0</ele><time>2026-04-18T09:45:49.572Z</time></trkpt><trkpt lat="43.4276424" lon="10.9142197"><ele>387.0</ele><time>2026-04-18T09:45:50.566Z</time></trkpt><trkpt lat="43.4275917" lon="10.9141215"><ele>387.0</ele><time>2026-04-18T09:45:51.569Z</time></trkpt><trkpt lat="43.4275473" lon="10.9140281"><ele>387.0</ele><time>2026-04-18T09:45:52.564Z</time></trkpt><trkpt lat="43.4274841" lon="10.9139344"><ele>387.0</ele><time>2026-04-18T09:45:53.561Z</time></trkpt><trkpt lat="43.4274214" lon="10.9138276"><ele>387.0</ele><time>2026-04-18T09:45:54.57Z</time></trkpt><trkpt lat="43.4273685" lon="10.9137222"><ele>387.0</ele><time>2026-04-18T09:45:55.563Z</time></trkpt><trkpt lat="43.4273443" lon="10.91362"><ele>387.0</ele><time>2026-04-18T09:45:56.572Z</time></trkpt><trkpt lat="43.4273382" lon="10.9135067"><ele>387.0</ele><time>2026-04-18T09:45:57.569Z</time></trkpt><trkpt lat="43.4273454" lon="10.9133806"><ele>387.0</ele><time>2026-04-18T09:45:58.573Z</time></trkpt><trkpt lat="43.4273816" lon="10.9132458"><ele>387.0</ele><time>2026-04-18T09:45:59.567Z</time></trkpt><trkpt lat="43.4274261" lon="10.9131222"><ele>387.20000000000005</ele><time>2026-04-18T09:46:00.571Z</time></trkpt><trkpt lat="43.4274896" lon="10.9129952"><ele>387.4</ele><time>2026-04-18T09:46:01.571Z</time></trkpt><trkpt lat="43.4275527" lon="10.9128666"><ele>387.6</ele><time>2026-04-18T09:46:02.568Z</time></trkpt><trkpt lat="43.4276125" lon="10.9127555"><ele>387.79999999999995</ele><time>2026-04-18T09:46:03.568Z</time></trkpt><trkpt lat="43.4276748" lon="10.9126416"><ele>388.0</ele><time>2026-04-18T09:46:04.565Z</time></trkpt><trkpt lat="43.427727" lon="10.9125266"><ele>388.59999999999997</ele><time>2026-04-18T09:46:05.569Z</time></trkpt><trkpt lat="43.427778" lon="10.9123923"><ele>389.2</ele><time>2026-04-18T09:46:06.571Z</time></trkpt><trkpt lat="43.4278192" lon="10.9122673"><ele>389.8</ele><time>2026-04-18T09:46:07.567Z</time></trkpt><trkpt lat="43.4278436" lon="10.912123"><ele>390.4</ele><time>2026-04-18T09:46:08.565Z</time></trkpt><trkpt lat="43.4278617" lon="10.9119615"><ele>391.0</ele><time>2026-04-18T09:46:09.563Z</time></trkpt><trkpt lat="43.427878" lon="10.9117701"><ele>389.25</ele><time>2026-04-18T09:46:10.567Z</time></trkpt><trkpt lat="43.4278928" lon="10.9115804"><ele>387.5</ele><time>2026-04-18T09:46:11.583Z</time></trkpt><trkpt lat="43.4279006" lon="10.9113975"><ele>385.75</ele><time>2026-04-18T09:46:12.565Z</time></trkpt><trkpt lat="43.4279131" lon="10.9112334"><ele>384.0</ele><time>2026-04-18T09:46:13.571Z</time></trkpt><trkpt lat="43.4279129" lon="10.9110887"><ele>384.0</ele><time>2026-04-18T09:46:14.572Z</time></trkpt><trkpt lat="43.4279127" lon="10.9109578"><ele>384.0</ele><time>2026-04-18T09:46:15.571Z</time></trkpt><trkpt lat="43.4279016" lon="10.910841"><ele>384.0</ele><time>2026-04-18T09:46:16.582Z</time></trkpt><trkpt lat="43.4279037" lon="10.9107298"><ele>384.0</ele><time>2026-04-18T09:46:17.573Z</time></trkpt><trkpt lat="43.4278889" lon="10.910618"><ele>384.0</ele><time>2026-04-18T09:46:18.571Z</time></trkpt><trkpt lat="43.4278582" lon="10.9105024"><ele>384.0</ele><time>2026-04-18T09:46:19.576Z</time></trkpt><trkpt lat="43.427801" lon="10.9103931"><ele>382.6666666666667</ele><time>2026-04-18T09:46:20.566Z</time></trkpt><trkpt lat="43.4277437" lon="10.9102932"><ele>381.3333333333333</ele><time>2026-04-18T09:46:21.566Z</time></trkpt><trkpt lat="43.4276997" lon="10.9101969"><ele>380.0</ele><time>2026-04-18T09:46:22.56Z</time></trkpt><trkpt lat="43.4276726" lon="10.9100875"><ele>378.66666666666663</ele><time>2026-04-18T09:46:23.55Z</time></trkpt><trkpt lat="43.4276599" lon="10.9099663"><ele>377.3333333333333</ele><time>2026-04-18T09:46:24.56Z</time></trkpt><trkpt lat="43.4276919" lon="10.9098417"><ele>376.0</ele><time>2026-04-18T09:46:25.554Z</time></trkpt><trkpt lat="43.4277134" lon="10.9097361"><ele>374.8333333333333</ele><time>2026-04-18T09:46:26.571Z</time></trkpt><trkpt lat="43.4277256" lon="10.909638"><ele>373.66666666666663</ele><time>2026-04-18T09:46:27.554Z</time></trkpt><trkpt lat="43.42772" lon="10.9095399"><ele>372.5</ele><time>2026-04-18T09:46:28.564Z</time></trkpt><trkpt lat="43.4276902" lon="10.9094429"><ele>371.3333333333333</ele><time>2026-04-18T09:46:29.565Z</time></trkpt><trkpt lat="43.4276443" lon="10.9093429"><ele>370.1666666666667</ele><time>2026-04-18T09:46:30.556Z</time></trkpt><trkpt lat="43.4275793" lon="10.9092533"><ele>369.0</ele><time>2026-04-18T09:46:31.566Z</time></trkpt><trkpt lat="43.4274888" lon="10.9091828"><ele>368.4</ele><time>2026-04-18T09:46:32.559Z</time></trkpt><trkpt lat="43.4273932" lon="10.9091154"><ele>367.79999999999995</ele><time>2026-04-18T09:46:33.547Z</time></trkpt><trkpt lat="43.4272939" lon="10.9090614"><ele>367.20000000000005</ele><time>2026-04-18T09:46:34.555Z</time></trkpt><trkpt lat="43.4272061" lon="10.9090131"><ele>366.6</ele><time>2026-04-18T09:46:35.555Z</time></trkpt><trkpt lat="43.427128" lon="10.9089711"><ele>366.0</ele><time>2026-04-18T09:46:36.557Z</time></trkpt><trkpt lat="43.4270671" lon="10.9089175"><ele>366.0</ele><time>2026-04-18T09:46:37.544Z</time></trkpt><trkpt lat="43.427071" lon="10.9087695"><ele>366.0</ele><time>2026-04-18T09:46:39.553Z</time></trkpt><trkpt lat="43.4271913" lon="10.9086652"><ele>366.0</ele><time>2026-04-18T09:46:41.548Z</time></trkpt><trkpt lat="43.4273199" lon="10.9085973"><ele>366.0</ele><time>2026-04-18T09:46:43.557Z</time></trkpt><trkpt lat="43.4273882" lon="10.9085532"><ele>364.8</ele><time>2026-04-18T09:46:44.561Z</time></trkpt><trkpt lat="43.427452" lon="10.9084847"><ele>363.6</ele><time>2026-04-18T09:46:45.557Z</time></trkpt><trkpt lat="43.4275134" lon="10.9083465"><ele>362.4</ele><time>2026-04-18T09:46:46.563Z</time></trkpt><trkpt lat="43.427577" lon="10.9082129"><ele>361.2</ele><time>2026-04-18T09:46:47.554Z</time></trkpt><trkpt lat="43.4276428" lon="10.9080807"><ele>360.0</ele><time>2026-04-18T09:46:48.559Z</time></trkpt><trkpt lat="43.4276935" lon="10.9079748"><ele>359.3333333333333</ele><time>2026-04-18T09:46:49.55Z</time></trkpt><trkpt lat="43.4277269" lon="10.907878"><ele>358.6666666666667</ele><time>2026-04-18T09:46:50.556Z</time></trkpt><trkpt lat="43.4277612" lon="10.9077781"><ele>358.0</ele><time>2026-04-18T09:46:51.558Z</time></trkpt><trkpt lat="43.4277946" lon="10.9076618"><ele>357.33333333333337</ele><time>2026-04-18T09:46:52.548Z</time></trkpt><trkpt lat="43.4278086" lon="10.9075284"><ele>356.6666666666667</ele><time>2026-04-18T09:46:53.548Z</time></trkpt><trkpt lat="43.4278109" lon="10.9074037"><ele>356.0</ele><time>2026-04-18T09:46:54.549Z</time></trkpt><trkpt lat="43.4277765" lon="10.9072548"><ele>355.0</ele><time>2026-04-18T09:46:55.543Z</time></trkpt><trkpt lat="43.4277274" lon="10.9071026"><ele>354.0</ele><time>2026-04-18T09:46:56.555Z</time></trkpt><trkpt lat="43.4276708" lon="10.9069546"><ele>353.0</ele><time>2026-04-18T09:46:57.548Z</time></trkpt><trkpt lat="43.4276155" lon="10.9068122"><ele>352.0</ele><time>2026-04-18T09:46:58.55Z</time></trkpt><trkpt lat="43.4275698" lon="10.9066923"><ele>350.3333333333333</ele><time>2026-04-18T09:46:59.554Z</time></trkpt><trkpt lat="43.4275364" lon="10.9065806"><ele>348.66666666666663</ele><time>2026-04-18T09:47:00.571Z</time></trkpt><trkpt lat="43.4275008" lon="10.9064848"><ele>347.0</ele><time>2026-04-18T09:47:01.571Z</time></trkpt><trkpt lat="43.4274614" lon="10.9064037"><ele>345.3333333333333</ele><time>2026-04-18T09:47:02.567Z</time></trkpt><trkpt lat="43.4274004" lon="10.906322"><ele>343.6666666666667</ele><time>2026-04-18T09:47:03.567Z</time></trkpt><trkpt lat="43.4273241" lon="10.9062462"><ele>342.0</ele><time>2026-04-18T09:47:04.563Z</time></trkpt><trkpt lat="43.4272268" lon="10.9061792"><ele>343.0</ele><time>2026-04-18T09:47:05.564Z</time></trkpt><trkpt lat="43.4271365" lon="10.9061197"><ele>344.0</ele><time>2026-04-18T09:47:06.564Z</time></trkpt><trkpt lat="43.4270476" lon="10.9060582"><ele>345.0</ele><time>2026-04-18T09:47:07.567Z</time></trkpt><trkpt lat="43.426967" lon="10.9060014"><ele>346.0</ele><time>2026-04-18T09:47:08.563Z</time></trkpt><trkpt lat="43.4268936" lon="10.9059313"><ele>347.0</ele><time>2026-04-18T09:47:09.562Z</time></trkpt><trkpt lat="43.426829" lon="10.9058696"><ele>344.33333333333337</ele><time>2026-04-18T09:47:10.563Z</time></trkpt><trkpt lat="43.4267646" lon="10.9058315"><ele>341.6666666666667</ele><time>2026-04-18T09:47:11.565Z</time></trkpt><trkpt lat="43.4267052" lon="10.9057988"><ele>339.0</ele><time>2026-04-18T09:47:12.559Z</time></trkpt><trkpt lat="43.4266216" lon="10.9057361"><ele>336.3333333333333</ele><time>2026-04-18T09:47:14.566Z</time></trkpt><trkpt lat="43.4266145" lon="10.9056167"><ele>333.66666666666663</ele><time>2026-04-18T09:47:16.565Z</time></trkpt><trkpt lat="43.4267236" lon="10.9055146"><ele>331.0</ele><time>2026-04-18T09:47:18.571Z</time></trkpt><trkpt lat="43.4268052" lon="10.9054815"><ele>331.0</ele><time>2026-04-18T09:47:19.569Z</time></trkpt><trkpt lat="43.4268814" lon="10.9054511"><ele>331.0</ele><time>2026-04-18T09:47:20.565Z</time></trkpt><trkpt lat="43.4269558" lon="10.9054024"><ele>331.0</ele><time>2026-04-18T09:47:21.565Z</time></trkpt><trkpt lat="43.4270233" lon="10.9053243"><ele>331.0</ele><time>2026-04-18T09:47:22.56Z</time></trkpt><trkpt lat="43.4270842" lon="10.9052255"><ele>331.0</ele><time>2026-04-18T09:47:23.561Z</time></trkpt><trkpt lat="43.4271287" lon="10.9051215"><ele>331.0</ele><time>2026-04-18T09:47:24.569Z</time></trkpt><trkpt lat="43.4271679" lon="10.9050219"><ele>328.8333333333333</ele><time>2026-04-18T09:47:25.567Z</time></trkpt><trkpt lat="43.4272076" lon="10.90494"><ele>326.66666666666663</ele><time>2026-04-18T09:47:26.574Z</time></trkpt><trkpt lat="43.4272534" lon="10.9048746"><ele>324.5</ele><time>2026-04-18T09:47:27.56Z</time></trkpt><trkpt lat="43.4273142" lon="10.9048192"><ele>322.3333333333333</ele><time>2026-04-18T09:47:28.556Z</time></trkpt><trkpt lat="43.4273808" lon="10.904787"><ele>320.1666666666667</ele><time>2026-04-18T09:47:29.553Z</time></trkpt><trkpt lat="43.4274536" lon="10.9047846"><ele>318.0</ele><time>2026-04-18T09:47:30.565Z</time></trkpt><trkpt lat="43.4275458" lon="10.9048243"><ele>318.0</ele><time>2026-04-18T09:47:31.564Z</time></trkpt><trkpt lat="43.4276581" lon="10.9048983"><ele>318.0</ele><time>2026-04-18T09:47:32.545Z</time></trkpt><trkpt lat="43.4277755" lon="10.9049767"><ele>318.0</ele><time>2026-04-18T09:47:33.57Z</time></trkpt><trkpt lat="43.4278933" lon="10.905077"><ele>318.0</ele><time>2026-04-18T09:47:34.564Z</time></trkpt><trkpt lat="43.4280038" lon="10.9051614"><ele>317.75</ele><time>2026-04-18T09:47:35.563Z</time></trkpt><trkpt lat="43.4281062" lon="10.9052404"><ele>317.5</ele><time>2026-04-18T09:47:36.567Z</time></trkpt><trkpt lat="43.4282165" lon="10.9053019"><ele>317.25</ele><time>2026-04-18T09:47:37.566Z</time></trkpt><trkpt lat="43.4283289" lon="10.9053551"><ele>317.0</ele><time>2026-04-18T09:47:38.566Z</time></trkpt><trkpt lat="43.4284345" lon="10.9054263"><ele>317.0</ele><time>2026-04-18T09:47:39.567Z</time></trkpt><trkpt lat="43.4285383" lon="10.905501"><ele>317.0</ele><time>2026-04-18T09:47:40.569Z</time></trkpt><trkpt lat="43.4286443" lon="10.9055751"><ele>317.0</ele><time>2026-04-18T09:47:41.569Z</time></trkpt><trkpt lat="43.428749" lon="10.9056439"><ele>317.0</ele><time>2026-04-18T09:47:42.569Z</time></trkpt><trkpt lat="43.4288464" lon="10.9056928"><ele>315.8</ele><time>2026-04-18T09:47:43.573Z</time></trkpt><trkpt lat="43.4289392" lon="10.9057572"><ele>314.6</ele><time>2026-04-18T09:47:44.581Z</time></trkpt><trkpt lat="43.429032" lon="10.9058126"><ele>313.40000000000003</ele><time>2026-04-18T09:47:45.569Z</time></trkpt><trkpt lat="43.4291063" lon="10.9058609"><ele>312.2</ele><time>2026-04-18T09:47:46.566Z</time></trkpt><trkpt lat="43.4291623" lon="10.9059046"><ele>311.0</ele><time>2026-04-18T09:47:47.565Z</time></trkpt><trkpt lat="43.4292723" lon="10.9059289"><ele>309.83333333333337</ele><time>2026-04-18T09:47:49.562Z</time></trkpt><trkpt lat="43.4293428" lon="10.9058799"><ele>308.6666666666667</ele><time>2026-04-18T09:47:50.566Z</time></trkpt><trkpt lat="43.4293917" lon="10.9057975"><ele>307.5</ele><time>2026-04-18T09:47:51.564Z</time></trkpt><trkpt lat="43.4294279" lon="10.9056998"><ele>306.3333333333333</ele><time>2026-04-18T09:47:52.564Z</time></trkpt><trkpt lat="43.4294491" lon="10.9056035"><ele>305.16666666666663</ele><time>2026-04-18T09:47:53.563Z</time></trkpt><trkpt lat="43.4294515" lon="10.9055001"><ele>304.0</ele><time>2026-04-18T09:47:54.558Z</time></trkpt><trkpt lat="43.4294312" lon="10.9053948"><ele>304.0</ele><time>2026-04-18T09:47:55.569Z</time></trkpt><trkpt lat="43.4293736" lon="10.905283"><ele>304.0</ele><time>2026-04-18T09:47:56.556Z</time></trkpt><trkpt lat="43.4293107" lon="10.9051621"><ele>304.0</ele><time>2026-04-18T09:47:57.56Z</time></trkpt><trkpt lat="43.4292164" lon="10.9050516"><ele>304.0</ele><time>2026-04-18T09:47:58.563Z</time></trkpt><trkpt lat="43.4291079" lon="10.9049583"><ele>302.0</ele><time>2026-04-18T09:47:59.564Z</time></trkpt><trkpt lat="43.4290189" lon="10.9048645"><ele>300.0</ele><time>2026-04-18T09:48:00.568Z</time></trkpt><trkpt lat="43.4289426" lon="10.9047548"><ele>298.0</ele><time>2026-04-18T09:48:01.564Z</time></trkpt><trkpt lat="43.4288863" lon="10.9046338"><ele>296.0</ele><time>2026-04-18T09:48:02.555Z</time></trkpt><trkpt lat="43.4288488" lon="10.9044839"><ele>294.0</ele><time>2026-04-18T09:48:03.561Z</time></trkpt><trkpt lat="43.4288179" lon="10.9043236"><ele>294.5</ele><time>2026-04-18T09:48:04.568Z</time></trkpt><trkpt lat="43.4287859" lon="10.9041627"><ele>295.0</ele><time>2026-04-18T09:48:05.56Z</time></trkpt><trkpt lat="43.4287466" lon="10.9039907"><ele>295.5</ele><time>2026-04-18T09:48:06.573Z</time></trkpt><trkpt lat="43.428704" lon="10.9038269"><ele>296.0</ele><time>2026-04-18T09:48:07.57Z</time></trkpt><trkpt lat="43.4286562" lon="10.9036898"><ele>296.0</ele><time>2026-04-18T09:48:08.565Z</time></trkpt><trkpt lat="43.428614" lon="10.9035604"><ele>296.0</ele><time>2026-04-18T09:48:09.579Z</time></trkpt><trkpt lat="43.428561" lon="10.9034378"><ele>296.0</ele><time>2026-04-18T09:48:10.574Z</time></trkpt><trkpt lat="43.428504" lon="10.9033231"><ele>296.0</ele><time>2026-04-18T09:48:11.568Z</time></trkpt><trkpt lat="43.4284573" lon="10.9032133"><ele>296.0</ele><time>2026-04-18T09:48:12.574Z</time></trkpt><trkpt lat="43.4284056" lon="10.9031139"><ele>293.75</ele><time>2026-04-18T09:48:13.569Z</time></trkpt><trkpt lat="43.4283205" lon="10.9030192"><ele>291.5</ele><time>2026-04-18T09:48:14.571Z</time></trkpt><trkpt lat="43.4282185" lon="10.9029392"><ele>289.25</ele><time>2026-04-18T09:48:15.575Z</time></trkpt><trkpt lat="43.4280981" lon="10.9028457"><ele>287.0</ele><time>2026-04-18T09:48:16.575Z</time></trkpt><trkpt lat="43.4279795" lon="10.9027613"><ele>285.8</ele><time>2026-04-18T09:48:17.57Z</time></trkpt><trkpt lat="43.4278876" lon="10.9026742"><ele>284.6</ele><time>2026-04-18T09:48:18.57Z</time></trkpt><trkpt lat="43.4278048" lon="10.9025946"><ele>283.40000000000003</ele><time>2026-04-18T09:48:19.568Z</time></trkpt><trkpt lat="43.4277406" lon="10.9025292"><ele>282.2</ele><time>2026-04-18T09:48:20.564Z</time></trkpt><trkpt lat="43.4276844" lon="10.9024786"><ele>281.0</ele><time>2026-04-18T09:48:21.565Z</time></trkpt><trkpt lat="43.4275934" lon="10.9023795"><ele>281.0</ele><time>2026-04-18T09:48:23.567Z</time></trkpt><trkpt lat="43.4275705" lon="10.902264"><ele>281.0</ele><time>2026-04-18T09:48:25.561Z</time></trkpt><trkpt lat="43.4276493" lon="10.9021597"><ele>281.0</ele><time>2026-04-18T09:48:27.577Z</time></trkpt><trkpt lat="43.427718" lon="10.9021591"><ele>281.0</ele><time>2026-04-18T09:48:28.575Z</time></trkpt><trkpt lat="43.4278108" lon="10.9021987"><ele>281.0</ele><time>2026-04-18T09:48:29.562Z</time></trkpt><trkpt lat="43.42792" lon="10.9022649"><ele>280.40000000000003</ele><time>2026-04-18T09:48:30.565Z</time></trkpt><trkpt lat="43.4280268" lon="10.9023292"><ele>279.8</ele><time>2026-04-18T09:48:31.57Z</time></trkpt><trkpt lat="43.4281314" lon="10.9023776"><ele>279.20000000000005</ele><time>2026-04-18T09:48:32.563Z</time></trkpt><trkpt lat="43.4282348" lon="10.9024043"><ele>278.6</ele><time>2026-04-18T09:48:33.566Z</time></trkpt><trkpt lat="43.4283446" lon="10.9024139"><ele>278.0</ele><time>2026-04-18T09:48:34.562Z</time></trkpt><trkpt lat="43.4284567" lon="10.9023841"><ele>278.0</ele><time>2026-04-18T09:48:35.583Z</time></trkpt><trkpt lat="43.4285724" lon="10.9023255"><ele>278.0</ele><time>2026-04-18T09:48:36.572Z</time></trkpt><trkpt lat="43.4286818" lon="10.9022838"><ele>278.0</ele><time>2026-04-18T09:48:37.565Z</time></trkpt><trkpt lat="43.4287782" lon="10.9022731"><ele>278.0</ele><time>2026-04-18T09:48:38.567Z</time></trkpt><trkpt lat="43.4288668" lon="10.9022928"><ele>278.0</ele><time>2026-04-18T09:48:39.564Z</time></trkpt><trkpt lat="43.4289594" lon="10.9023413"><ele>277.6</ele><time>2026-04-18T09:48:40.564Z</time></trkpt><trkpt lat="43.4290324" lon="10.9024208"><ele>277.20000000000005</ele><time>2026-04-18T09:48:41.566Z</time></trkpt><trkpt lat="43.4291048" lon="10.9025324"><ele>276.8</ele><time>2026-04-18T09:48:42.561Z</time></trkpt><trkpt lat="43.4291647" lon="10.9026639"><ele>276.40000000000003</ele><time>2026-04-18T09:48:43.568Z</time></trkpt><trkpt lat="43.4292219" lon="10.9027578"><ele>276.0</ele><time>2026-04-18T09:48:44.568Z</time></trkpt><trkpt lat="43.4292652" lon="10.9028418"><ele>276.0</ele><time>2026-04-18T09:48:45.561Z</time></trkpt><trkpt lat="43.4293279" lon="10.9028921"><ele>276.0</ele><time>2026-04-18T09:48:46.582Z</time></trkpt><trkpt lat="43.4294128" lon="10.9029099"><ele>276.0</ele><time>2026-04-18T09:48:47.559Z</time></trkpt><trkpt lat="43.4295061" lon="10.9029051"><ele>276.0</ele><time>2026-04-18T09:48:48.561Z</time></trkpt><trkpt lat="43.4295901" lon="10.9028798"><ele>276.0</ele><time>2026-04-18T09:48:49.562Z</time></trkpt><trkpt lat="43.4296563" lon="10.9028502"><ele>276.0</ele><time>2026-04-18T09:48:50.561Z</time></trkpt><trkpt lat="43.429732" lon="10.9027329"><ele>274.6</ele><time>2026-04-18T09:48:52.574Z</time></trkpt><trkpt lat="43.429716" lon="10.9026299"><ele>273.20000000000005</ele><time>2026-04-18T09:48:53.568Z</time></trkpt><trkpt lat="43.4296758" lon="10.9025265"><ele>271.79999999999995</ele><time>2026-04-18T09:48:54.567Z</time></trkpt><trkpt lat="43.4296143" lon="10.9024323"><ele>270.4</ele><time>2026-04-18T09:48:55.558Z</time></trkpt><trkpt lat="43.4295203" lon="10.9023353"><ele>269.0</ele><time>2026-04-18T09:48:56.561Z</time></trkpt><trkpt lat="43.429411" lon="10.9022413"><ele>268.75</ele><time>2026-04-18T09:48:57.568Z</time></trkpt><trkpt lat="43.4293143" lon="10.9021507"><ele>268.5</ele><time>2026-04-18T09:48:58.575Z</time></trkpt><trkpt lat="43.429228" lon="10.9020665"><ele>268.25</ele><time>2026-04-18T09:48:59.576Z</time></trkpt><trkpt lat="43.429138" lon="10.9019601"><ele>268.0</ele><time>2026-04-18T09:49:00.583Z</time></trkpt><trkpt lat="43.4290626" lon="10.9018491"><ele>267.4</ele><time>2026-04-18T09:49:01.572Z</time></trkpt><trkpt lat="43.4289995" lon="10.9017381"><ele>266.8</ele><time>2026-04-18T09:49:02.57Z</time></trkpt><trkpt lat="43.4289333" lon="10.9016464"><ele>266.2</ele><time>2026-04-18T09:49:03.571Z</time></trkpt><trkpt lat="43.4288574" lon="10.9015554"><ele>265.6</ele><time>2026-04-18T09:49:04.569Z</time></trkpt><trkpt lat="43.4287811" lon="10.9014665"><ele>265.0</ele><time>2026-04-18T09:49:05.568Z</time></trkpt><trkpt lat="43.428723" lon="10.9013625"><ele>265.0</ele><time>2026-04-18T09:49:06.574Z</time></trkpt><trkpt lat="43.4286769" lon="10.9012497"><ele>265.0</ele><time>2026-04-18T09:49:07.562Z</time></trkpt><trkpt lat="43.4286414" lon="10.9011317"><ele>265.0</ele><time>2026-04-18T09:49:08.569Z</time></trkpt><trkpt lat="43.4286228" lon="10.9010107"><ele>265.0</ele><time>2026-04-18T09:49:09.564Z</time></trkpt><trkpt lat="43.4286195" lon="10.9009061"><ele>265.0</ele><time>2026-04-18T09:49:10.561Z</time></trkpt><trkpt lat="43.4286495" lon="10.9007343"><ele>263.66666666666663</ele><time>2026-04-18T09:49:12.561Z</time></trkpt><trkpt lat="43.4287464" lon="10.9006155"><ele>262.3333333333333</ele><time>2026-04-18T09:49:14.56Z</time></trkpt><trkpt lat="43.4288099" lon="10.9005848"><ele>261.0</ele><time>2026-04-18T09:49:15.569Z</time></trkpt><trkpt lat="43.4288891" lon="10.900592"><ele>259.6666666666667</ele><time>2026-04-18T09:49:16.57Z</time></trkpt><trkpt lat="43.428964" lon="10.9005837"><ele>258.33333333333337</ele><time>2026-04-18T09:49:17.575Z</time></trkpt><trkpt lat="43.4290336" lon="10.9005594"><ele>257.0</ele><time>2026-04-18T09:49:18.564Z</time></trkpt><trkpt lat="43.4290891" lon="10.9005096"><ele>255.66666666666669</ele><time>2026-04-18T09:49:19.574Z</time></trkpt><trkpt lat="43.4291378" lon="10.9004256"><ele>254.33333333333334</ele><time>2026-04-18T09:49:20.573Z</time></trkpt><trkpt lat="43.4291847" lon="10.9003209"><ele>253.0</ele><time>2026-04-18T09:49:21.575Z</time></trkpt><trkpt lat="43.4292161" lon="10.9002095"><ele>251.66666666666669</ele><time>2026-04-18T09:49:22.573Z</time></trkpt><trkpt lat="43.4292342" lon="10.9001122"><ele>250.33333333333334</ele><time>2026-04-18T09:49:23.57Z</time></trkpt><trkpt lat="43.4292409" lon="10.9000078"><ele>249.0</ele><time>2026-04-18T09:49:24.574Z</time></trkpt><trkpt lat="43.4292191" lon="10.8998571"><ele>248.16666666666666</ele><time>2026-04-18T09:49:26.569Z</time></trkpt><trkpt lat="43.4291479" lon="10.8997167"><ele>247.33333333333331</ele><time>2026-04-18T09:49:28.564Z</time></trkpt><trkpt lat="43.4290977" lon="10.8996302"><ele>246.5</ele><time>2026-04-18T09:49:29.567Z</time></trkpt><trkpt lat="43.4290511" lon="10.8995397"><ele>245.66666666666666</ele><time>2026-04-18T09:49:30.568Z</time></trkpt><trkpt lat="43.4290164" lon="10.8994653"><ele>244.83333333333331</ele><time>2026-04-18T09:49:31.562Z</time></trkpt><trkpt lat="43.4289719" lon="10.8993666"><ele>244.0</ele><time>2026-04-18T09:49:33.557Z</time></trkpt><trkpt lat="43.4289966" lon="10.8992594"><ele>242.39999999999998</ele><time>2026-04-18T09:49:35.559Z</time></trkpt><trkpt lat="43.4290503" lon="10.899208"><ele>240.79999999999998</ele><time>2026-04-18T09:49:36.553Z</time></trkpt><trkpt lat="43.4291235" lon="10.8991472"><ele>239.20000000000002</ele><time>2026-04-18T09:49:37.558Z</time></trkpt><trkpt lat="43.4292285" lon="10.8990861"><ele>237.60000000000002</ele><time>2026-04-18T09:49:38.558Z</time></trkpt><trkpt lat="43.4293357" lon="10.8990368"><ele>236.0</ele><time>2026-04-18T09:49:39.56Z</time></trkpt><trkpt lat="43.429425" lon="10.8990094"><ele>236.0</ele><time>2026-04-18T09:49:40.558Z</time></trkpt><trkpt lat="43.4295206" lon="10.8989973"><ele>236.00000000000003</ele><time>2026-04-18T09:49:41.559Z</time></trkpt><trkpt lat="43.4296081" lon="10.8989957"><ele>236.00000000000003</ele><time>2026-04-18T09:49:42.564Z</time></trkpt><trkpt lat="43.429682" lon="10.8990144"><ele>236.0</ele><time>2026-04-18T09:49:43.565Z</time></trkpt><trkpt lat="43.4297524" lon="10.8990604"><ele>236.0</ele><time>2026-04-18T09:49:44.57Z</time></trkpt><trkpt lat="43.4298617" lon="10.8991134"><ele>234.4</ele><time>2026-04-18T09:49:46.57Z</time></trkpt><trkpt lat="43.4299591" lon="10.8990577"><ele>232.8</ele><time>2026-04-18T09:49:48.582Z</time></trkpt><trkpt lat="43.4299872" lon="10.8989743"><ele>231.20000000000002</ele><time>2026-04-18T09:49:49.57Z</time></trkpt><trkpt lat="43.4299958" lon="10.8988705"><ele>229.60000000000002</ele><time>2026-04-18T09:49:50.575Z</time></trkpt><trkpt lat="43.4299882" lon="10.8987325"><ele>228.0</ele><time>2026-04-18T09:49:51.571Z</time></trkpt><trkpt lat="43.4299621" lon="10.8985544"><ele>226.5</ele><time>2026-04-18T09:49:52.567Z</time></trkpt><trkpt lat="43.4299426" lon="10.8983798"><ele>225.0</ele><time>2026-04-18T09:49:53.567Z</time></trkpt><trkpt lat="43.429926" lon="10.8982157"><ele>223.5</ele><time>2026-04-18T09:49:54.567Z</time></trkpt><trkpt lat="43.4299239" lon="10.8980666"><ele>222.0</ele><time>2026-04-18T09:49:55.566Z</time></trkpt><trkpt lat="43.429925" lon="10.8979389"><ele>222.0</ele><time>2026-04-18T09:49:56.559Z</time></trkpt><trkpt lat="43.4299235" lon="10.897817"><ele>222.0</ele><time>2026-04-18T09:49:57.56Z</time></trkpt><trkpt lat="43.4299318" lon="10.8977162"><ele>222.0</ele><time>2026-04-18T09:49:58.564Z</time></trkpt><trkpt lat="43.4299335" lon="10.8976222"><ele>222.0</ele><time>2026-04-18T09:49:59.561Z</time></trkpt><trkpt lat="43.4299568" lon="10.8975337"><ele>222.0</ele><time>2026-04-18T09:50:00.564Z</time></trkpt><trkpt lat="43.4300006" lon="10.8974602"><ele>222.0</ele><time>2026-04-18T09:50:01.569Z</time></trkpt><trkpt lat="43.4300543" lon="10.8973833"><ele>222.0</ele><time>2026-04-18T09:50:02.562Z</time></trkpt><trkpt lat="43.4301452" lon="10.8973186"><ele>221.0</ele><time>2026-04-18T09:50:03.564Z</time></trkpt><trkpt lat="43.4302471" lon="10.8972631"><ele>220.0</ele><time>2026-04-18T09:50:04.569Z</time></trkpt><trkpt lat="43.4303373" lon="10.8972095"><ele>219.0</ele><time>2026-04-18T09:50:05.568Z</time></trkpt><trkpt lat="43.4304273" lon="10.8971666"><ele>218.0</ele><time>2026-04-18T09:50:06.564Z</time></trkpt><trkpt lat="43.4305054" lon="10.8971414"><ele>217.0</ele><time>2026-04-18T09:50:07.57Z</time></trkpt><trkpt lat="43.4305686" lon="10.8971534"><ele>216.0</ele><time>2026-04-18T09:50:08.573Z</time></trkpt><trkpt lat="43.4306323" lon="10.8971911"><ele>214.83333333333334</ele><time>2026-04-18T09:50:09.561Z</time></trkpt><trkpt lat="43.4306881" lon="10.8972673"><ele>213.66666666666669</ele><time>2026-04-18T09:50:10.562Z</time></trkpt><trkpt lat="43.4307421" lon="10.897353"><ele>212.5</ele><time>2026-04-18T09:50:11.555Z</time></trkpt><trkpt lat="43.4308133" lon="10.8974528"><ele>211.33333333333334</ele><time>2026-04-18T09:50:13.557Z</time></trkpt><trkpt lat="43.4309176" lon="10.8974292"><ele>210.16666666666669</ele><time>2026-04-18T09:50:15.554Z</time></trkpt><trkpt lat="43.4309677" lon="10.8973717"><ele>209.0</ele><time>2026-04-18T09:50:16.554Z</time></trkpt><trkpt lat="43.4310116" lon="10.8972837"><ele>209.00000000000003</ele><time>2026-04-18T09:50:17.557Z</time></trkpt><trkpt lat="43.4310432" lon="10.8971715"><ele>209.0</ele><time>2026-04-18T09:50:18.553Z</time></trkpt><trkpt lat="43.4310572" lon="10.8970554"><ele>209.0</ele><time>2026-04-18T09:50:19.572Z</time></trkpt><trkpt lat="43.4310506" lon="10.8969315"><ele>209.0</ele><time>2026-04-18T09:50:20.564Z</time></trkpt><trkpt lat="43.4310331" lon="10.8968199"><ele>209.00000000000003</ele><time>2026-04-18T09:50:21.567Z</time></trkpt><trkpt lat="43.4310155" lon="10.8967171"><ele>209.0</ele><time>2026-04-18T09:50:22.562Z</time></trkpt><trkpt lat="43.4309854" lon="10.8966117"><ele>207.39999999999998</ele><time>2026-04-18T09:50:23.562Z</time></trkpt><trkpt lat="43.4309432" lon="10.8965087"><ele>205.8</ele><time>2026-04-18T09:50:24.56Z</time></trkpt><trkpt lat="43.4308709" lon="10.8964012"><ele>204.2</ele><time>2026-04-18T09:50:25.567Z</time></trkpt><trkpt lat="43.4307857" lon="10.8962881"><ele>202.60000000000002</ele><time>2026-04-18T09:50:26.563Z</time></trkpt><trkpt lat="43.4307119" lon="10.8961895"><ele>201.0</ele><time>2026-04-18T09:50:27.56Z</time></trkpt><trkpt lat="43.4306561" lon="10.8961125"><ele>201.0</ele><time>2026-04-18T09:50:28.564Z</time></trkpt><trkpt lat="43.4306134" lon="10.8960133"><ele>201.0</ele><time>2026-04-18T09:50:30.567Z</time></trkpt><trkpt lat="43.4306166" lon="10.8959094"><ele>201.0</ele><time>2026-04-18T09:50:32.562Z</time></trkpt><trkpt lat="43.4307253" lon="10.8958442"><ele>201.0</ele><time>2026-04-18T09:50:34.577Z</time></trkpt><trkpt lat="43.4308055" lon="10.8958704"><ele>201.0</ele><time>2026-04-18T09:50:35.569Z</time></trkpt><trkpt lat="43.4309039" lon="10.8959145"><ele>201.0</ele><time>2026-04-18T09:50:36.565Z</time></trkpt><trkpt lat="43.4310023" lon="10.8959619"><ele>201.0</ele><time>2026-04-18T09:50:37.571Z</time></trkpt><trkpt lat="43.4310964" lon="10.8959959"><ele>201.0</ele><time>2026-04-18T09:50:38.571Z</time></trkpt><trkpt lat="43.4311823" lon="10.896015"><ele>201.0</ele><time>2026-04-18T09:50:39.578Z</time></trkpt><trkpt lat="43.4312561" lon="10.8960376"><ele>201.0</ele><time>2026-04-18T09:50:40.573Z</time></trkpt><trkpt lat="43.4313198" lon="10.8960693"><ele>201.0</ele><time>2026-04-18T09:50:41.575Z</time></trkpt><trkpt lat="43.431382" lon="10.8961173"><ele>198.0</ele><time>2026-04-18T09:50:42.568Z</time></trkpt><trkpt lat="43.431435" lon="10.8961826"><ele>195.0</ele><time>2026-04-18T09:50:43.57Z</time></trkpt><trkpt lat="43.4314815" lon="10.8962507"><ele>192.0</ele><time>2026-04-18T09:50:44.577Z</time></trkpt><trkpt lat="43.4315595" lon="10.896342"><ele>189.0</ele><time>2026-04-18T09:50:46.571Z</time></trkpt><trkpt lat="43.4316589" lon="10.8963268"><ele>186.0</ele><time>2026-04-18T09:50:48.554Z</time></trkpt><trkpt lat="43.4317119" lon="10.8961775"><ele>186.0</ele><time>2026-04-18T09:50:50.582Z</time></trkpt><trkpt lat="43.4317028" lon="10.8960442"><ele>186.0</ele><time>2026-04-18T09:50:51.557Z</time></trkpt><trkpt lat="43.4316822" lon="10.8958899"><ele>186.0</ele><time>2026-04-18T09:50:52.561Z</time></trkpt><trkpt lat="43.4316486" lon="10.8957118"><ele>186.0</ele><time>2026-04-18T09:50:53.566Z</time></trkpt><trkpt lat="43.4315982" lon="10.8955282"><ele>185.0</ele><time>2026-04-18T09:50:54.566Z</time></trkpt><trkpt lat="43.4315429" lon="10.8953833"><ele>184.0</ele><time>2026-04-18T09:50:55.558Z</time></trkpt><trkpt lat="43.4314953" lon="10.8952575"><ele>183.0</ele><time>2026-04-18T09:50:56.565Z</time></trkpt><trkpt lat="43.4314469" lon="10.8951539"><ele>182.0</ele><time>2026-04-18T09:50:57.559Z</time></trkpt><trkpt lat="43.4314206" lon="10.895057"><ele>181.0</ele><time>2026-04-18T09:50:58.562Z</time></trkpt><trkpt lat="43.4314044" lon="10.8948966"><ele>180.4</ele><time>2026-04-18T09:51:00.56Z</time></trkpt><trkpt lat="43.4314438" lon="10.8947774"><ele>179.8</ele><time>2026-04-18T09:51:01.566Z</time></trkpt><trkpt lat="43.4315036" lon="10.8946667"><ele>179.20000000000002</ele><time>2026-04-18T09:51:02.562Z</time></trkpt><trkpt lat="43.4315892" lon="10.8945594"><ele>178.60000000000002</ele><time>2026-04-18T09:51:03.565Z</time></trkpt><trkpt lat="43.4316705" lon="10.8944385"><ele>178.0</ele><time>2026-04-18T09:51:04.558Z</time></trkpt><trkpt lat="43.431732" lon="10.8943002"><ele>178.2</ele><time>2026-04-18T09:51:05.555Z</time></trkpt><trkpt lat="43.4317809" lon="10.8941781"><ele>178.4</ele><time>2026-04-18T09:51:06.557Z</time></trkpt><trkpt lat="43.4318321" lon="10.8940537"><ele>178.6</ele><time>2026-04-18T09:51:07.558Z</time></trkpt><trkpt lat="43.431874" lon="10.893935"><ele>178.79999999999998</ele><time>2026-04-18T09:51:08.561Z</time></trkpt><trkpt lat="43.4319114" lon="10.8937977"><ele>179.0</ele><time>2026-04-18T09:51:09.561Z</time></trkpt><trkpt lat="43.4319376" lon="10.8936454"><ele>179.0</ele><time>2026-04-18T09:51:10.568Z</time></trkpt><trkpt lat="43.4319361" lon="10.8934877"><ele>179.0</ele><time>2026-04-18T09:51:11.555Z</time></trkpt><trkpt lat="43.4319129" lon="10.8933158"><ele>179.0</ele><time>2026-04-18T09:51:12.56Z</time></trkpt><trkpt lat="43.4318724" lon="10.8931382"><ele>179.0</ele><time>2026-04-18T09:51:13.561Z</time></trkpt><trkpt lat="43.4318476" lon="10.8929529"><ele>178.75</ele><time>2026-04-18T09:51:14.559Z</time></trkpt><trkpt lat="43.4318171" lon="10.8927814"><ele>178.5</ele><time>2026-04-18T09:51:15.56Z</time></trkpt><trkpt lat="43.4317903" lon="10.8926188"><ele>178.25</ele><time>2026-04-18T09:51:16.566Z</time></trkpt><trkpt lat="43.4317599" lon="10.892467"><ele>178.0</ele><time>2026-04-18T09:51:17.565Z</time></trkpt><trkpt lat="43.4317412" lon="10.8923093"><ele>177.75</ele><time>2026-04-18T09:51:18.561Z</time></trkpt><trkpt lat="43.4317302" lon="10.8921489"><ele>177.5</ele><time>2026-04-18T09:51:19.561Z</time></trkpt><trkpt lat="43.4317191" lon="10.8919808"><ele>177.25</ele><time>2026-04-18T09:51:20.559Z</time></trkpt><trkpt lat="43.4317307" lon="10.8917916"><ele>177.0</ele><time>2026-04-18T09:51:21.576Z</time></trkpt><trkpt lat="43.431746" lon="10.8916053"><ele>176.5</ele><time>2026-04-18T09:51:22.557Z</time></trkpt><trkpt lat="43.4317611" lon="10.8914272"><ele>176.0</ele><time>2026-04-18T09:51:23.563Z</time></trkpt><trkpt lat="43.4317803" lon="10.8912465"><ele>175.5</ele><time>2026-04-18T09:51:24.569Z</time></trkpt><trkpt lat="43.4317971" lon="10.8910616"><ele>175.0</ele><time>2026-04-18T09:51:25.563Z</time></trkpt><trkpt lat="43.4318061" lon="10.890867"><ele>174.25</ele><time>2026-04-18T09:51:26.568Z</time></trkpt><trkpt lat="43.4318011" lon="10.8906572"><ele>173.5</ele><time>2026-04-18T09:51:27.573Z</time></trkpt><trkpt lat="43.431773" lon="10.890464"><ele>172.75</ele><time>2026-04-18T09:51:28.569Z</time></trkpt><trkpt lat="43.4317321" lon="10.8902978"><ele>172.0</ele><time>2026-04-18T09:51:29.572Z</time></trkpt><trkpt lat="43.4317049" lon="10.8901445"><ele>171.5</ele><time>2026-04-18T09:51:30.573Z</time></trkpt><trkpt lat="43.431684" lon="10.889989"><ele>171.0</ele><time>2026-04-18T09:51:31.576Z</time></trkpt><trkpt lat="43.4316398" lon="10.8898299"><ele>170.5</ele><time>2026-04-18T09:51:32.576Z</time></trkpt><trkpt lat="43.4316178" lon="10.8896767"><ele>170.0</ele><time>2026-04-18T09:51:33.583Z</time></trkpt><trkpt lat="43.431583" lon="10.8895202"><ele>170.0</ele><time>2026-04-18T09:51:34.575Z</time></trkpt><trkpt lat="43.431542" lon="10.8893682"><ele>170.0</ele><time>2026-04-18T09:51:35.575Z</time></trkpt><trkpt lat="43.4314834" lon="10.8892366"><ele>170.0</ele><time>2026-04-18T09:51:36.569Z</time></trkpt><trkpt lat="43.4314007" lon="10.8891178"><ele>170.0</ele><time>2026-04-18T09:51:37.57Z</time></trkpt><trkpt lat="43.4313154" lon="10.8890259"><ele>170.0</ele><time>2026-04-18T09:51:38.573Z</time></trkpt><trkpt lat="43.4312414" lon="10.8889444"><ele>170.0</ele><time>2026-04-18T09:51:39.569Z</time></trkpt><trkpt lat="43.4311808" lon="10.8888726"><ele>170.0</ele><time>2026-04-18T09:51:40.563Z</time></trkpt><trkpt lat="43.4311097" lon="10.888812"><ele>170.0</ele><time>2026-04-18T09:51:42.569Z</time></trkpt><trkpt lat="43.4310458" lon="10.8888039"><ele>170.0</ele><time>2026-04-18T09:51:45.573Z</time></trkpt><trkpt lat="43.4309884" lon="10.888741"><ele>170.0</ele><time>2026-04-18T09:55:07.583Z</time></trkpt><trkpt lat="43.4309304" lon="10.888703"><ele>170.0</ele><time>2026-04-18T09:55:10.575Z</time></trkpt><trkpt lat="43.4308356" lon="10.8886136"><ele>170.0</ele><time>2026-04-18T09:55:12.579Z</time></trkpt><trkpt lat="43.4307708" lon="10.888547"><ele>170.0</ele><time>2026-04-18T09:55:13.58Z</time></trkpt><trkpt lat="43.430704" lon="10.8884863"><ele>170.0</ele><time>2026-04-18T09:55:14.571Z</time></trkpt><trkpt lat="43.4306257" lon="10.8884107"><ele>170.0</ele><time>2026-04-18T09:55:15.578Z</time></trkpt><trkpt lat="43.4305294" lon="10.8883247"><ele>170.5</ele><time>2026-04-18T09:55:16.579Z</time></trkpt><trkpt lat="43.4304186" lon="10.8882408"><ele>171.0</ele><time>2026-04-18T09:55:17.579Z</time></trkpt><trkpt lat="43.4302991" lon="10.8881512"><ele>171.5</ele><time>2026-04-18T09:55:18.594Z</time></trkpt><trkpt lat="43.4301873" lon="10.888062"><ele>172.0</ele><time>2026-04-18T09:55:19.581Z</time></trkpt><trkpt lat="43.4300835" lon="10.8879814"><ele>172.0</ele><time>2026-04-18T09:55:20.579Z</time></trkpt><trkpt lat="43.4299722" lon="10.8878951"><ele>172.0</ele><time>2026-04-18T09:55:21.58Z</time></trkpt><trkpt lat="43.429864" lon="10.8878085"><ele>172.0</ele><time>2026-04-18T09:55:22.575Z</time></trkpt><trkpt lat="43.4297779" lon="10.887717"><ele>172.0</ele><time>2026-04-18T09:55:23.585Z</time></trkpt><trkpt lat="43.4297087" lon="10.8876296"><ele>172.6</ele><time>2026-04-18T09:55:24.578Z</time></trkpt><trkpt lat="43.4296586" lon="10.8875406"><ele>173.2</ele><time>2026-04-18T09:55:25.582Z</time></trkpt><trkpt lat="43.4296128" lon="10.887446"><ele>173.8</ele><time>2026-04-18T09:55:26.582Z</time></trkpt><trkpt lat="43.4295922" lon="10.8873329"><ele>174.4</ele><time>2026-04-18T09:55:27.577Z</time></trkpt><trkpt lat="43.4295665" lon="10.8871969"><ele>175.0</ele><time>2026-04-18T09:55:28.582Z</time></trkpt><trkpt lat="43.429561" lon="10.8870448"><ele>175.0</ele><time>2026-04-18T09:55:29.565Z</time></trkpt><trkpt lat="43.4295785" lon="10.8868772"><ele>175.0</ele><time>2026-04-18T09:55:30.566Z</time></trkpt><trkpt lat="43.4296089" lon="10.8866806"><ele>175.0</ele><time>2026-04-18T09:55:31.563Z</time></trkpt><trkpt lat="43.4296515" lon="10.8864688"><ele>175.0</ele><time>2026-04-18T09:55:32.58Z</time></trkpt><trkpt lat="43.4296998" lon="10.8862556"><ele>171.75</ele><time>2026-04-18T09:55:33.58Z</time></trkpt><trkpt lat="43.429733" lon="10.886065"><ele>168.5</ele><time>2026-04-18T09:55:34.584Z</time></trkpt><trkpt lat="43.4297656" lon="10.8858861"><ele>165.25</ele><time>2026-04-18T09:55:35.585Z</time></trkpt><trkpt lat="43.4297848" lon="10.8857159"><ele>162.0</ele><time>2026-04-18T09:55:36.586Z</time></trkpt><trkpt lat="43.4298104" lon="10.8855444"><ele>161.66666666666666</ele><time>2026-04-18T09:55:37.584Z</time></trkpt><trkpt lat="43.4298009" lon="10.8853571"><ele>161.33333333333331</ele><time>2026-04-18T09:55:38.57Z</time></trkpt><trkpt lat="43.4297616" lon="10.8851561"><ele>161.0</ele><time>2026-04-18T09:55:39.576Z</time></trkpt><trkpt lat="43.4297051" lon="10.8849408"><ele>162.33333333333331</ele><time>2026-04-18T09:55:40.576Z</time></trkpt><trkpt lat="43.4296284" lon="10.8847023"><ele>163.66666666666666</ele><time>2026-04-18T09:55:41.581Z</time></trkpt><trkpt lat="43.4295523" lon="10.8844267"><ele>165.0</ele><time>2026-04-18T09:55:42.587Z</time></trkpt><trkpt lat="43.4294739" lon="10.884162"><ele>165.0</ele><time>2026-04-18T09:55:43.579Z</time></trkpt><trkpt lat="43.429404" lon="10.8839016"><ele>165.0</ele><time>2026-04-18T09:55:44.587Z</time></trkpt><trkpt lat="43.4293395" lon="10.8836411"><ele>165.0</ele><time>2026-04-18T09:55:45.593Z</time></trkpt><trkpt lat="43.4292566" lon="10.8833827"><ele>163.0</ele><time>2026-04-18T09:55:46.596Z</time></trkpt><trkpt lat="43.4291717" lon="10.8831245"><ele>161.0</ele><time>2026-04-18T09:55:47.587Z</time></trkpt><trkpt lat="43.4291072" lon="10.8828638"><ele>159.0</ele><time>2026-04-18T09:55:48.602Z</time></trkpt><trkpt lat="43.4290407" lon="10.8825991"><ele>158.0</ele><time>2026-04-18T09:55:49.592Z</time></trkpt><trkpt lat="43.4289671" lon="10.8823393"><ele>157.0</ele><time>2026-04-18T09:55:50.585Z</time></trkpt><trkpt lat="43.4288955" lon="10.882093"><ele>156.0</ele><time>2026-04-18T09:55:51.593Z</time></trkpt><trkpt lat="43.4288333" lon="10.8818516"><ele>159.0</ele><time>2026-04-18T09:55:52.59Z</time></trkpt><trkpt lat="43.4287789" lon="10.881621"><ele>162.0</ele><time>2026-04-18T09:55:53.59Z</time></trkpt><trkpt lat="43.4287039" lon="10.8813992"><ele>165.0</ele><time>2026-04-18T09:55:54.589Z</time></trkpt><trkpt lat="43.4286358" lon="10.8811415"><ele>163.0</ele><time>2026-04-18T09:55:55.588Z</time></trkpt><trkpt lat="43.4285716" lon="10.8808925"><ele>161.0</ele><time>2026-04-18T09:55:56.591Z</time></trkpt><trkpt lat="43.4285056" lon="10.880664"><ele>159.0</ele><time>2026-04-18T09:55:57.586Z</time></trkpt><trkpt lat="43.4284347" lon="10.8804451"><ele>159.0</ele><time>2026-04-18T09:55:58.595Z</time></trkpt><trkpt lat="43.4283831" lon="10.8802168"><ele>159.0</ele><time>2026-04-18T09:55:59.601Z</time></trkpt><trkpt lat="43.4283238" lon="10.8799892"><ele>159.0</ele><time>2026-04-18T09:56:00.594Z</time></trkpt><trkpt lat="43.4282527" lon="10.8797582"><ele>157.0</ele><time>2026-04-18T09:56:01.585Z</time></trkpt><trkpt lat="43.4281832" lon="10.8795185"><ele>155.0</ele><time>2026-04-18T09:56:02.591Z</time></trkpt><trkpt lat="43.4281118" lon="10.8792765"><ele>153.0</ele><time>2026-04-18T09:56:03.59Z</time></trkpt><trkpt lat="43.4280476" lon="10.8790536"><ele>153.25</ele><time>2026-04-18T09:56:04.59Z</time></trkpt><trkpt lat="43.4279841" lon="10.878849"><ele>153.5</ele><time>2026-04-18T09:56:05.587Z</time></trkpt><trkpt lat="43.4279232" lon="10.87865"><ele>153.75</ele><time>2026-04-18T09:56:06.588Z</time></trkpt><trkpt lat="43.4278685" lon="10.8784867"><ele>154.0</ele><time>2026-04-18T09:56:07.585Z</time></trkpt><trkpt lat="43.4278128" lon="10.8783287"><ele>153.0</ele><time>2026-04-18T09:56:08.591Z</time></trkpt><trkpt lat="43.4277332" lon="10.8781996"><ele>152.0</ele><time>2026-04-18T09:56:09.578Z</time></trkpt><trkpt lat="43.4276305" lon="10.8780682"><ele>151.0</ele><time>2026-04-18T09:56:10.564Z</time></trkpt><trkpt lat="43.4275048" lon="10.877949"><ele>150.0</ele><time>2026-04-18T09:56:11.567Z</time></trkpt><trkpt lat="43.4273667" lon="10.8778338"><ele>150.0</ele><time>2026-04-18T09:56:12.583Z</time></trkpt><trkpt lat="43.4272097" lon="10.8777387"><ele>150.0</ele><time>2026-04-18T09:56:13.581Z</time></trkpt><trkpt lat="43.4270606" lon="10.8776188"><ele>150.0</ele><time>2026-04-18T09:56:14.576Z</time></trkpt><trkpt lat="43.4268894" lon="10.8774782"><ele>150.0</ele><time>2026-04-18T09:56:15.584Z</time></trkpt><trkpt lat="43.4267185" lon="10.8773405"><ele>150.0</ele><time>2026-04-18T09:56:16.587Z</time></trkpt><trkpt lat="43.4265524" lon="10.8772285"><ele>150.0</ele><time>2026-04-18T09:56:17.583Z</time></trkpt><trkpt lat="43.4263925" lon="10.8771101"><ele>152.33333333333334</ele><time>2026-04-18T09:56:18.583Z</time></trkpt><trkpt lat="43.426238" lon="10.8770197"><ele>154.66666666666669</ele><time>2026-04-18T09:56:19.585Z</time></trkpt><trkpt lat="43.4261007" lon="10.8769263"><ele>157.0</ele><time>2026-04-18T09:56:20.599Z</time></trkpt><trkpt lat="43.4259614" lon="10.8768397"><ele>156.5</ele><time>2026-04-18T09:56:21.585Z</time></trkpt><trkpt lat="43.4258166" lon="10.8767467"><ele>156.0</ele><time>2026-04-18T09:56:22.586Z</time></trkpt><trkpt lat="43.42569" lon="10.8766602"><ele>155.5</ele><time>2026-04-18T09:56:23.579Z</time></trkpt><trkpt lat="43.4255929" lon="10.8765829"><ele>155.0</ele><time>2026-04-18T09:56:24.58Z</time></trkpt><trkpt lat="43.4254823" lon="10.8765272"><ele>155.5</ele><time>2026-04-18T09:56:25.576Z</time></trkpt><trkpt lat="43.4253996" lon="10.8765106"><ele>156.0</ele><time>2026-04-18T09:56:26.579Z</time></trkpt><trkpt lat="43.4253344" lon="10.8764743"><ele>156.5</ele><time>2026-04-18T09:56:27.572Z</time></trkpt><trkpt lat="43.4252638" lon="10.8764445"><ele>157.0</ele><time>2026-04-18T09:56:28.562Z</time></trkpt><trkpt lat="43.425167" lon="10.8764313"><ele>157.5</ele><time>2026-04-18T09:56:30.587Z</time></trkpt><trkpt lat="43.4251129" lon="10.8763604"><ele>158.0</ele><time>2026-04-18T09:56:32.569Z</time></trkpt><trkpt lat="43.425115" lon="10.8761952"><ele>158.0</ele><time>2026-04-18T09:56:34.584Z</time></trkpt><trkpt lat="43.4251643" lon="10.8760599"><ele>158.0</ele><time>2026-04-18T09:56:35.569Z</time></trkpt><trkpt lat="43.4252213" lon="10.8758823"><ele>158.0</ele><time>2026-04-18T09:56:36.571Z</time></trkpt><trkpt lat="43.4252888" lon="10.8756668"><ele>158.0</ele><time>2026-04-18T09:56:37.565Z</time></trkpt><trkpt lat="43.4253912" lon="10.8754124"><ele>157.66666666666666</ele><time>2026-04-18T09:56:38.568Z</time></trkpt><trkpt lat="43.4254618" lon="10.8752155"><ele>157.33333333333334</ele><time>2026-04-18T09:56:39.573Z</time></trkpt><trkpt lat="43.4255382" lon="10.875019"><ele>157.0</ele><time>2026-04-18T09:56:40.574Z</time></trkpt><trkpt lat="43.425609" lon="10.874817"><ele>155.33333333333334</ele><time>2026-04-18T09:56:41.573Z</time></trkpt><trkpt lat="43.4256936" lon="10.8746121"><ele>153.66666666666666</ele><time>2026-04-18T09:56:42.586Z</time></trkpt><trkpt lat="43.4257763" lon="10.874414"><ele>152.0</ele><time>2026-04-18T09:56:43.579Z</time></trkpt><trkpt lat="43.4258751" lon="10.8742255"><ele>151.33333333333331</ele><time>2026-04-18T09:56:44.578Z</time></trkpt><trkpt lat="43.4259658" lon="10.8740376"><ele>150.66666666666666</ele><time>2026-04-18T09:56:45.589Z</time></trkpt><trkpt lat="43.4260628" lon="10.8738439"><ele>150.0</ele><time>2026-04-18T09:56:46.591Z</time></trkpt><trkpt lat="43.42617" lon="10.873663"><ele>150.0</ele><time>2026-04-18T09:56:47.583Z</time></trkpt><trkpt lat="43.4262548" lon="10.8734706"><ele>150.0</ele><time>2026-04-18T09:56:48.584Z</time></trkpt><trkpt lat="43.4263459" lon="10.8732604"><ele>150.0</ele><time>2026-04-18T09:56:49.588Z</time></trkpt><trkpt lat="43.4264409" lon="10.8730598"><ele>149.0</ele><time>2026-04-18T09:56:50.582Z</time></trkpt><trkpt lat="43.4265558" lon="10.8728498"><ele>148.0</ele><time>2026-04-18T09:56:51.588Z</time></trkpt><trkpt lat="43.4266552" lon="10.8726487"><ele>147.0</ele><time>2026-04-18T09:56:52.577Z</time></trkpt><trkpt lat="43.4267404" lon="10.8724453"><ele>148.75</ele><time>2026-04-18T09:56:53.574Z</time></trkpt><trkpt lat="43.4268227" lon="10.8722774"><ele>150.5</ele><time>2026-04-18T09:56:54.578Z</time></trkpt><trkpt lat="43.4269069" lon="10.8721092"><ele>152.25</ele><time>2026-04-18T09:56:55.579Z</time></trkpt><trkpt lat="43.4269846" lon="10.8719328"><ele>154.0</ele><time>2026-04-18T09:56:56.582Z</time></trkpt><trkpt lat="43.4270499" lon="10.8717373"><ele>155.66666666666669</ele><time>2026-04-18T09:56:57.572Z</time></trkpt><trkpt lat="43.4270954" lon="10.8715223"><ele>157.33333333333334</ele><time>2026-04-18T09:56:58.579Z</time></trkpt><trkpt lat="43.4271246" lon="10.8712922"><ele>159.0</ele><time>2026-04-18T09:56:59.572Z</time></trkpt><trkpt lat="43.4271402" lon="10.8710495"><ele>155.33333333333334</ele><time>2026-04-18T09:57:00.582Z</time></trkpt><trkpt lat="43.4271775" lon="10.8708056"><ele>151.66666666666669</ele><time>2026-04-18T09:57:01.585Z</time></trkpt><trkpt lat="43.4272107" lon="10.8705598"><ele>148.0</ele><time>2026-04-18T09:57:02.579Z</time></trkpt><trkpt lat="43.4272584" lon="10.8703339"><ele>148.0</ele><time>2026-04-18T09:57:03.577Z</time></trkpt><trkpt lat="43.4272927" lon="10.8701083"><ele>148.0</ele><time>2026-04-18T09:57:04.58Z</time></trkpt><trkpt lat="43.4273207" lon="10.8698822"><ele>148.0</ele><time>2026-04-18T09:57:05.569Z</time></trkpt><trkpt lat="43.4273842" lon="10.8696851"><ele>148.33333333333334</ele><time>2026-04-18T09:57:06.562Z</time></trkpt><trkpt lat="43.4274673" lon="10.8694948"><ele>148.66666666666666</ele><time>2026-04-18T09:57:07.563Z</time></trkpt><trkpt lat="43.4275953" lon="10.869307"><ele>149.0</ele><time>2026-04-18T09:57:08.562Z</time></trkpt><trkpt lat="43.4277162" lon="10.8690939"><ele>149.33333333333331</ele><time>2026-04-18T09:57:09.571Z</time></trkpt><trkpt lat="43.4278361" lon="10.8688696"><ele>149.66666666666666</ele><time>2026-04-18T09:57:10.57Z</time></trkpt><trkpt lat="43.4279667" lon="10.8686422"><ele>150.0</ele><time>2026-04-18T09:57:11.563Z</time></trkpt><trkpt lat="43.4280958" lon="10.868421"><ele>150.0</ele><time>2026-04-18T09:57:12.571Z</time></trkpt><trkpt lat="43.4282119" lon="10.8681947"><ele>150.0</ele><time>2026-04-18T09:57:13.567Z</time></trkpt><trkpt lat="43.4283364" lon="10.8679693"><ele>150.0</ele><time>2026-04-18T09:57:14.566Z</time></trkpt><trkpt lat="43.4284713" lon="10.8677764"><ele>150.0</ele><time>2026-04-18T09:57:15.565Z</time></trkpt><trkpt lat="43.4286106" lon="10.8676137"><ele>150.0</ele><time>2026-04-18T09:57:16.565Z</time></trkpt><trkpt lat="43.4287502" lon="10.867438"><ele>150.0</ele><time>2026-04-18T09:57:17.577Z</time></trkpt><trkpt lat="43.4288869" lon="10.8672834"><ele>149.33333333333334</ele><time>2026-04-18T09:57:18.571Z</time></trkpt><trkpt lat="43.4290503" lon="10.867107"><ele>148.66666666666669</ele><time>2026-04-18T09:57:19.564Z</time></trkpt><trkpt lat="43.4292038" lon="10.8669411"><ele>148.0</ele><time>2026-04-18T09:57:20.576Z</time></trkpt><trkpt lat="43.4293515" lon="10.8667552"><ele>146.66666666666669</ele><time>2026-04-18T09:57:21.581Z</time></trkpt><trkpt lat="43.4294912" lon="10.8665748"><ele>145.33333333333334</ele><time>2026-04-18T09:57:22.578Z</time></trkpt><trkpt lat="43.4296292" lon="10.8663857"><ele>144.0</ele><time>2026-04-18T09:57:23.585Z</time></trkpt><trkpt lat="43.429771" lon="10.8661852"><ele>144.0</ele><time>2026-04-18T09:57:24.579Z</time></trkpt><trkpt lat="43.4299039" lon="10.8659879"><ele>144.0</ele><time>2026-04-18T09:57:25.581Z</time></trkpt><trkpt lat="43.4300296" lon="10.8657943"><ele>144.0</ele><time>2026-04-18T09:57:26.581Z</time></trkpt><trkpt lat="43.4301593" lon="10.8656003"><ele>144.0</ele><time>2026-04-18T09:57:27.588Z</time></trkpt><trkpt lat="43.4302868" lon="10.8654203"><ele>144.0</ele><time>2026-04-18T09:57:28.584Z</time></trkpt><trkpt lat="43.4304258" lon="10.8652406"><ele>144.0</ele><time>2026-04-18T09:57:29.585Z</time></trkpt><trkpt lat="43.4305679" lon="10.8650474"><ele>143.33333333333334</ele><time>2026-04-18T09:57:30.587Z</time></trkpt><trkpt lat="43.4306955" lon="10.8648645"><ele>142.66666666666669</ele><time>2026-04-18T09:57:31.585Z</time></trkpt><trkpt lat="43.4308304" lon="10.8646641"><ele>142.0</ele><time>2026-04-18T09:57:32.598Z</time></trkpt><trkpt lat="43.4309639" lon="10.8644556"><ele>142.33333333333334</ele><time>2026-04-18T09:57:33.586Z</time></trkpt><trkpt lat="43.4311073" lon="10.8642592"><ele>142.66666666666666</ele><time>2026-04-18T09:57:34.589Z</time></trkpt><trkpt lat="43.4312385" lon="10.8640719"><ele>143.0</ele><time>2026-04-18T09:57:35.585Z</time></trkpt><trkpt lat="43.4313602" lon="10.8638997"><ele>142.0</ele><time>2026-04-18T09:57:36.585Z</time></trkpt><trkpt lat="43.4314784" lon="10.8637324"><ele>141.0</ele><time>2026-04-18T09:57:37.585Z</time></trkpt><trkpt lat="43.4315989" lon="10.8635639"><ele>140.0</ele><time>2026-04-18T09:57:38.581Z</time></trkpt><trkpt lat="43.4317046" lon="10.8634157"><ele>140.0</ele><time>2026-04-18T09:57:39.583Z</time></trkpt><trkpt lat="43.4317944" lon="10.8632838"><ele>140.0</ele><time>2026-04-18T09:57:40.58Z</time></trkpt><trkpt lat="43.4318843" lon="10.8631601"><ele>140.0</ele><time>2026-04-18T09:57:41.574Z</time></trkpt><trkpt lat="43.4320141" lon="10.8630532"><ele>140.0</ele><time>2026-04-18T09:57:42.565Z</time></trkpt><trkpt lat="43.432177" lon="10.862971"><ele>139.0</ele><time>2026-04-18T09:57:43.565Z</time></trkpt><trkpt lat="43.4323385" lon="10.8629422"><ele>138.0</ele><time>2026-04-18T09:57:44.568Z</time></trkpt><trkpt lat="43.4325196" lon="10.8629404"><ele>137.0</ele><time>2026-04-18T09:57:45.556Z</time></trkpt><trkpt lat="43.4327315" lon="10.8629132"><ele>137.0</ele><time>2026-04-18T09:57:46.573Z</time></trkpt><trkpt lat="43.4329552" lon="10.862898"><ele>137.0</ele><time>2026-04-18T09:57:47.558Z</time></trkpt><trkpt lat="43.4331877" lon="10.8629028"><ele>137.5</ele><time>2026-04-18T09:57:48.558Z</time></trkpt><trkpt lat="43.433433" lon="10.8628875"><ele>138.0</ele><time>2026-04-18T09:57:49.57Z</time></trkpt><trkpt lat="43.4336591" lon="10.8628746"><ele>138.5</ele><time>2026-04-18T09:57:50.565Z</time></trkpt><trkpt lat="43.4338992" lon="10.8628605"><ele>139.0</ele><time>2026-04-18T09:57:51.583Z</time></trkpt><trkpt lat="43.4341271" lon="10.8628434"><ele>139.0</ele><time>2026-04-18T09:57:52.583Z</time></trkpt><trkpt lat="43.4343579" lon="10.8628127"><ele>139.0</ele><time>2026-04-18T09:57:53.578Z</time></trkpt><trkpt lat="43.4345508" lon="10.8627859"><ele>139.0</ele><time>2026-04-18T09:57:54.575Z</time></trkpt><trkpt lat="43.4347504" lon="10.862776"><ele>140.0</ele><time>2026-04-18T09:57:55.57Z</time></trkpt><trkpt lat="43.4349092" lon="10.8627706"><ele>141.0</ele><time>2026-04-18T09:57:56.572Z</time></trkpt><trkpt lat="43.4350626" lon="10.8627538"><ele>142.0</ele><time>2026-04-18T09:57:57.567Z</time></trkpt><trkpt lat="43.435222" lon="10.8627315"><ele>142.0</ele><time>2026-04-18T09:57:58.567Z</time></trkpt><trkpt lat="43.4353891" lon="10.8626603"><ele>142.0</ele><time>2026-04-18T09:57:59.553Z</time></trkpt><trkpt lat="43.4355604" lon="10.8625327"><ele>142.0</ele><time>2026-04-18T09:58:00.564Z</time></trkpt><trkpt lat="43.4357186" lon="10.8623571"><ele>142.66666666666669</ele><time>2026-04-18T09:58:01.553Z</time></trkpt><trkpt lat="43.4358897" lon="10.8621735"><ele>143.33333333333334</ele><time>2026-04-18T09:58:02.562Z</time></trkpt><trkpt lat="43.4360635" lon="10.8619788"><ele>144.0</ele><time>2026-04-18T09:58:03.578Z</time></trkpt><trkpt lat="43.4362348" lon="10.861768"><ele>144.0</ele><time>2026-04-18T09:58:04.566Z</time></trkpt><trkpt lat="43.436395" lon="10.8615658"><ele>144.0</ele><time>2026-04-18T09:58:05.578Z</time></trkpt><trkpt lat="43.4365561" lon="10.8613785"><ele>144.0</ele><time>2026-04-18T09:58:06.574Z</time></trkpt><trkpt lat="43.4367177" lon="10.8611958"><ele>144.0</ele><time>2026-04-18T09:58:07.573Z</time></trkpt><trkpt lat="43.4368849" lon="10.8610213"><ele>144.0</ele><time>2026-04-18T09:58:08.58Z</time></trkpt><trkpt lat="43.4370275" lon="10.8608304"><ele>144.0</ele><time>2026-04-18T09:58:09.577Z</time></trkpt><trkpt lat="43.4371849" lon="10.8606583"><ele>143.33333333333334</ele><time>2026-04-18T09:58:10.581Z</time></trkpt><trkpt lat="43.4373234" lon="10.8605056"><ele>142.66666666666669</ele><time>2026-04-18T09:58:11.581Z</time></trkpt><trkpt lat="43.4374539" lon="10.860344"><ele>142.0</ele><time>2026-04-18T09:58:12.581Z</time></trkpt><trkpt lat="43.437582" lon="10.8601867"><ele>141.33333333333334</ele><time>2026-04-18T09:58:13.581Z</time></trkpt><trkpt lat="43.4377064" lon="10.8600228"><ele>140.66666666666666</ele><time>2026-04-18T09:58:14.586Z</time></trkpt><trkpt lat="43.4378411" lon="10.8598768"><ele>140.0</ele><time>2026-04-18T09:58:15.584Z</time></trkpt><trkpt lat="43.437959" lon="10.859738"><ele>143.66666666666666</ele><time>2026-04-18T09:58:16.585Z</time></trkpt><trkpt lat="43.4380991" lon="10.8596095"><ele>147.33333333333334</ele><time>2026-04-18T09:58:17.577Z</time></trkpt><trkpt lat="43.4382177" lon="10.8594801"><ele>151.0</ele><time>2026-04-18T09:58:18.583Z</time></trkpt><trkpt lat="43.4383696" lon="10.8593558"><ele>147.66666666666669</ele><time>2026-04-18T09:58:19.576Z</time></trkpt><trkpt lat="43.438504" lon="10.8592455"><ele>144.33333333333334</ele><time>2026-04-18T09:58:20.575Z</time></trkpt><trkpt lat="43.438674" lon="10.8591262"><ele>141.0</ele><time>2026-04-18T09:58:21.568Z</time></trkpt><trkpt lat="43.4388387" lon="10.858989"><ele>140.66666666666666</ele><time>2026-04-18T09:58:22.574Z</time></trkpt><trkpt lat="43.4390221" lon="10.8588647"><ele>140.33333333333331</ele><time>2026-04-18T09:58:23.568Z</time></trkpt><trkpt lat="43.439205" lon="10.8587347"><ele>140.0</ele><time>2026-04-18T09:58:24.566Z</time></trkpt><trkpt lat="43.4393837" lon="10.8586024"><ele>140.0</ele><time>2026-04-18T09:58:25.576Z</time></trkpt><trkpt lat="43.4395328" lon="10.858484"><ele>140.0</ele><time>2026-04-18T09:58:26.561Z</time></trkpt><trkpt lat="43.4396837" lon="10.8583525"><ele>140.0</ele><time>2026-04-18T09:58:27.573Z</time></trkpt><trkpt lat="43.4398244" lon="10.858228"><ele>138.66666666666666</ele><time>2026-04-18T09:58:28.567Z</time></trkpt><trkpt lat="43.4399676" lon="10.8581181"><ele>137.33333333333334</ele><time>2026-04-18T09:58:29.572Z</time></trkpt><trkpt lat="43.4401222" lon="10.8580135"><ele>136.0</ele><time>2026-04-18T09:58:30.574Z</time></trkpt><trkpt lat="43.4402654" lon="10.8579011"><ele>136.0</ele><time>2026-04-18T09:58:31.576Z</time></trkpt><trkpt lat="43.4404121" lon="10.8577738"><ele>136.0</ele><time>2026-04-18T09:58:32.568Z</time></trkpt><trkpt lat="43.4405783" lon="10.8576428"><ele>136.0</ele><time>2026-04-18T09:58:33.582Z</time></trkpt><trkpt lat="43.4407291" lon="10.857515"><ele>133.66666666666669</ele><time>2026-04-18T09:58:34.581Z</time></trkpt><trkpt lat="43.4408722" lon="10.8573552"><ele>131.33333333333334</ele><time>2026-04-18T09:58:35.568Z</time></trkpt><trkpt lat="43.4410017" lon="10.8571746"><ele>129.0</ele><time>2026-04-18T09:58:36.565Z</time></trkpt><trkpt lat="43.4411075" lon="10.8569543"><ele>127.66666666666666</ele><time>2026-04-18T09:58:37.569Z</time></trkpt><trkpt lat="43.4412231" lon="10.8567057"><ele>126.33333333333333</ele><time>2026-04-18T09:58:38.569Z</time></trkpt><trkpt lat="43.4413299" lon="10.8564772"><ele>125.0</ele><time>2026-04-18T09:58:39.577Z</time></trkpt><trkpt lat="43.4414339" lon="10.856259"><ele>125.0</ele><time>2026-04-18T09:58:40.579Z</time></trkpt><trkpt lat="43.4415382" lon="10.8560545"><ele>125.0</ele><time>2026-04-18T09:58:41.583Z</time></trkpt><trkpt lat="43.4416435" lon="10.8558698"><ele>125.0</ele><time>2026-04-18T09:58:42.579Z</time></trkpt><trkpt lat="43.4417504" lon="10.8556894"><ele>124.0</ele><time>2026-04-18T09:58:43.582Z</time></trkpt><trkpt lat="43.4418514" lon="10.8555135"><ele>123.0</ele><time>2026-04-18T09:58:44.581Z</time></trkpt><trkpt lat="43.4419401" lon="10.8553436"><ele>122.0</ele><time>2026-04-18T09:58:45.577Z</time></trkpt><trkpt lat="43.4420474" lon="10.8551872"><ele>121.33333333333333</ele><time>2026-04-18T09:58:46.588Z</time></trkpt><trkpt lat="43.4421638" lon="10.8550482"><ele>120.66666666666666</ele><time>2026-04-18T09:58:47.574Z</time></trkpt><trkpt lat="43.4423202" lon="10.8549247"><ele>120.0</ele><time>2026-04-18T09:58:48.569Z</time></trkpt><trkpt lat="43.4424961" lon="10.8548546"><ele>120.0</ele><time>2026-04-18T09:58:49.572Z</time></trkpt><trkpt lat="43.4427002" lon="10.8548148"><ele>120.0</ele><time>2026-04-18T09:58:50.573Z</time></trkpt><trkpt lat="43.4428887" lon="10.8547815"><ele>120.0</ele><time>2026-04-18T09:58:51.574Z</time></trkpt><trkpt lat="43.4430828" lon="10.854743"><ele>121.0</ele><time>2026-04-18T09:58:52.575Z</time></trkpt><trkpt lat="43.4432721" lon="10.854721"><ele>122.0</ele><time>2026-04-18T09:58:53.577Z</time></trkpt><trkpt lat="43.4434736" lon="10.8546949"><ele>123.0</ele><time>2026-04-18T09:58:54.582Z</time></trkpt><trkpt lat="43.4436632" lon="10.8546563"><ele>122.0</ele><time>2026-04-18T09:58:55.587Z</time></trkpt><trkpt lat="43.4438584" lon="10.8546191"><ele>121.0</ele><time>2026-04-18T09:58:56.581Z</time></trkpt><trkpt lat="43.4440416" lon="10.8545821"><ele>120.0</ele><time>2026-04-18T09:58:57.588Z</time></trkpt><trkpt lat="43.4442307" lon="10.8545473"><ele>120.0</ele><time>2026-04-18T09:58:58.582Z</time></trkpt><trkpt lat="43.444424" lon="10.8545135"><ele>120.0</ele><time>2026-04-18T09:58:59.582Z</time></trkpt><trkpt lat="43.4446127" lon="10.8544835"><ele>120.0</ele><time>2026-04-18T09:59:00.585Z</time></trkpt><trkpt lat="43.4448032" lon="10.8544489"><ele>119.66666666666666</ele><time>2026-04-18T09:59:01.583Z</time></trkpt><trkpt lat="43.4449921" lon="10.8544052"><ele>119.33333333333333</ele><time>2026-04-18T09:59:02.581Z</time></trkpt><trkpt lat="43.4451786" lon="10.8543686"><ele>119.0</ele><time>2026-04-18T09:59:03.59Z</time></trkpt><trkpt lat="43.4453582" lon="10.8543383"><ele>119.0</ele><time>2026-04-18T09:59:04.587Z</time></trkpt><trkpt lat="43.4455252" lon="10.8542995"><ele>119.0</ele><time>2026-04-18T09:59:05.611Z</time></trkpt><trkpt lat="43.4456976" lon="10.8542647"><ele>119.0</ele><time>2026-04-18T09:59:06.587Z</time></trkpt><trkpt lat="43.4458787" lon="10.854233"><ele>118.0</ele><time>2026-04-18T09:59:07.58Z</time></trkpt><trkpt lat="43.4460541" lon="10.854196"><ele>117.0</ele><time>2026-04-18T09:59:08.584Z</time></trkpt><trkpt lat="43.4462418" lon="10.8541302"><ele>116.0</ele><time>2026-04-18T09:59:09.583Z</time></trkpt><trkpt lat="43.4464192" lon="10.8540282"><ele>115.33333333333333</ele><time>2026-04-18T09:59:10.573Z</time></trkpt><trkpt lat="43.4466031" lon="10.8539138"><ele>114.66666666666666</ele><time>2026-04-18T09:59:11.58Z</time></trkpt><trkpt lat="43.4467725" lon="10.8537709"><ele>114.0</ele><time>2026-04-18T09:59:12.58Z</time></trkpt><trkpt lat="43.4469585" lon="10.8536397"><ele>114.33333333333334</ele><time>2026-04-18T09:59:13.584Z</time></trkpt><trkpt lat="43.4471482" lon="10.8535151"><ele>114.66666666666667</ele><time>2026-04-18T09:59:14.578Z</time></trkpt><trkpt lat="43.4473217" lon="10.8533758"><ele>115.0</ele><time>2026-04-18T09:59:15.578Z</time></trkpt><trkpt lat="43.4475157" lon="10.8532281"><ele>115.0</ele><time>2026-04-18T09:59:16.589Z</time></trkpt><trkpt lat="43.447722" lon="10.8530888"><ele>115.0</ele><time>2026-04-18T09:59:17.588Z</time></trkpt><trkpt lat="43.4479328" lon="10.8529516"><ele>115.33333333333334</ele><time>2026-04-18T09:59:18.584Z</time></trkpt><trkpt lat="43.4481391" lon="10.8528154"><ele>115.66666666666666</ele><time>2026-04-18T09:59:19.583Z</time></trkpt><trkpt lat="43.4483288" lon="10.8526732"><ele>116.0</ele><time>2026-04-18T09:59:20.58Z</time></trkpt><trkpt lat="43.4485213" lon="10.8525342"><ele>116.0</ele><time>2026-04-18T09:59:21.591Z</time></trkpt><trkpt lat="43.4487129" lon="10.8523867"><ele>116.0</ele><time>2026-04-18T09:59:22.584Z</time></trkpt><trkpt lat="43.4489019" lon="10.8522524"><ele>116.0</ele><time>2026-04-18T09:59:23.573Z</time></trkpt><trkpt lat="43.4491054" lon="10.8521324"><ele>115.33333333333333</ele><time>2026-04-18T09:59:24.58Z</time></trkpt><trkpt lat="43.4492744" lon="10.8520099"><ele>114.66666666666666</ele><time>2026-04-18T09:59:25.583Z</time></trkpt><trkpt lat="43.4494258" lon="10.8519039"><ele>114.0</ele><time>2026-04-18T09:59:26.582Z</time></trkpt><trkpt lat="43.4495879" lon="10.8518105"><ele>114.0</ele><time>2026-04-18T09:59:27.579Z</time></trkpt><trkpt lat="43.4497535" lon="10.8517256"><ele>114.0</ele><time>2026-04-18T09:59:28.584Z</time></trkpt><trkpt lat="43.4499132" lon="10.851647"><ele>114.0</ele><time>2026-04-18T09:59:29.586Z</time></trkpt><trkpt lat="43.4500864" lon="10.851571"><ele>114.0</ele><time>2026-04-18T09:59:30.584Z</time></trkpt><trkpt lat="43.4502515" lon="10.8515232"><ele>114.0</ele><time>2026-04-18T09:59:31.582Z</time></trkpt><trkpt lat="43.4504016" lon="10.8514701"><ele>114.0</ele><time>2026-04-18T09:59:32.579Z</time></trkpt><trkpt lat="43.4505578" lon="10.8514445"><ele>114.5</ele><time>2026-04-18T09:59:33.589Z</time></trkpt><trkpt lat="43.4507097" lon="10.8514406"><ele>115.0</ele><time>2026-04-18T09:59:34.581Z</time></trkpt><trkpt lat="43.4508586" lon="10.8514222"><ele>115.5</ele><time>2026-04-18T09:59:35.602Z</time></trkpt><trkpt lat="43.450999" lon="10.8514079"><ele>116.0</ele><time>2026-04-18T09:59:36.588Z</time></trkpt><trkpt lat="43.4511273" lon="10.8513979"><ele>116.0</ele><time>2026-04-18T09:59:37.588Z</time></trkpt><trkpt lat="43.4512662" lon="10.8513885"><ele>116.0</ele><time>2026-04-18T09:59:38.589Z</time></trkpt><trkpt lat="43.4514072" lon="10.8513872"><ele>116.0</ele><time>2026-04-18T09:59:39.589Z</time></trkpt><trkpt lat="43.4515318" lon="10.8513653"><ele>116.0</ele><time>2026-04-18T09:59:40.594Z</time></trkpt><trkpt lat="43.4516712" lon="10.8513442"><ele>116.5</ele><time>2026-04-18T09:59:41.587Z</time></trkpt><trkpt lat="43.4518048" lon="10.8512998"><ele>117.0</ele><time>2026-04-18T09:59:42.583Z</time></trkpt><trkpt lat="43.4519417" lon="10.8512275"><ele>117.5</ele><time>2026-04-18T09:59:43.585Z</time></trkpt><trkpt lat="43.4520534" lon="10.8511071"><ele>118.0</ele><time>2026-04-18T09:59:44.577Z</time></trkpt><trkpt lat="43.4521514" lon="10.850928"><ele>119.33333333333334</ele><time>2026-04-18T09:59:45.569Z</time></trkpt><trkpt lat="43.4522324" lon="10.8507566"><ele>120.66666666666666</ele><time>2026-04-18T09:59:46.585Z</time></trkpt><trkpt lat="43.452285" lon="10.8505474"><ele>122.0</ele><time>2026-04-18T09:59:47.574Z</time></trkpt><trkpt lat="43.452293" lon="10.8502986"><ele>121.0</ele><time>2026-04-18T09:59:48.578Z</time></trkpt><trkpt lat="43.4522716" lon="10.8500397"><ele>120.0</ele><time>2026-04-18T09:59:49.58Z</time></trkpt><trkpt lat="43.4522677" lon="10.8497803"><ele>119.0</ele><time>2026-04-18T09:59:50.578Z</time></trkpt><trkpt lat="43.4522429" lon="10.8495247"><ele>119.0</ele><time>2026-04-18T09:59:51.588Z</time></trkpt><trkpt lat="43.4522262" lon="10.8492696"><ele>119.0</ele><time>2026-04-18T09:59:52.579Z</time></trkpt><trkpt lat="43.4522157" lon="10.8490063"><ele>119.0</ele><time>2026-04-18T09:59:53.587Z</time></trkpt><trkpt lat="43.4522065" lon="10.8487436"><ele>119.0</ele><time>2026-04-18T09:59:54.588Z</time></trkpt><trkpt lat="43.4521774" lon="10.8484857"><ele>119.0</ele><time>2026-04-18T09:59:55.585Z</time></trkpt><trkpt lat="43.45217" lon="10.8482188"><ele>119.0</ele><time>2026-04-18T09:59:56.587Z</time></trkpt><trkpt lat="43.4521447" lon="10.8479606"><ele>118.66666666666666</ele><time>2026-04-18T09:59:57.584Z</time></trkpt><trkpt lat="43.4521348" lon="10.8476959"><ele>118.33333333333334</ele><time>2026-04-18T09:59:58.576Z</time></trkpt><trkpt lat="43.4521349" lon="10.8474362"><ele>118.0</ele><time>2026-04-18T09:59:59.587Z</time></trkpt><trkpt lat="43.4521226" lon="10.8471994"><ele>117.33333333333334</ele><time>2026-04-18T10:00:00.58Z</time></trkpt><trkpt lat="43.4521172" lon="10.8469678"><ele>116.66666666666666</ele><time>2026-04-18T10:00:01.578Z</time></trkpt><trkpt lat="43.4521155" lon="10.8467242"><ele>116.0</ele><time>2026-04-18T10:00:02.582Z</time></trkpt><trkpt lat="43.4521247" lon="10.8464688"><ele>116.0</ele><time>2026-04-18T10:00:03.578Z</time></trkpt><trkpt lat="43.4521526" lon="10.8462134"><ele>116.0</ele><time>2026-04-18T10:00:04.574Z</time></trkpt><trkpt lat="43.4521939" lon="10.8459389"><ele>116.0</ele><time>2026-04-18T10:00:05.579Z</time></trkpt><trkpt lat="43.4522349" lon="10.8456606"><ele>115.33333333333333</ele><time>2026-04-18T10:00:06.592Z</time></trkpt><trkpt lat="43.4523143" lon="10.8453928"><ele>114.66666666666666</ele><time>2026-04-18T10:00:07.574Z</time></trkpt><trkpt lat="43.4523958" lon="10.8451185"><ele>114.0</ele><time>2026-04-18T10:00:08.579Z</time></trkpt><trkpt lat="43.4525064" lon="10.8448264"><ele>112.0</ele><time>2026-04-18T10:00:09.582Z</time></trkpt><trkpt lat="43.4526135" lon="10.8445387"><ele>110.0</ele><time>2026-04-18T10:00:10.588Z</time></trkpt><trkpt lat="43.4527086" lon="10.8442662"><ele>109.33333333333333</ele><time>2026-04-18T10:00:11.593Z</time></trkpt><trkpt lat="43.4528086" lon="10.8439888"><ele>108.66666666666666</ele><time>2026-04-18T10:00:12.591Z</time></trkpt><trkpt lat="43.4528979" lon="10.8437265"><ele>108.0</ele><time>2026-04-18T10:00:13.592Z</time></trkpt><trkpt lat="43.4529977" lon="10.843463"><ele>107.66666666666666</ele><time>2026-04-18T10:00:14.586Z</time></trkpt><trkpt lat="43.4530805" lon="10.8432206"><ele>107.33333333333333</ele><time>2026-04-18T10:00:15.588Z</time></trkpt><trkpt lat="43.4531527" lon="10.8429981"><ele>107.0</ele><time>2026-04-18T10:00:16.588Z</time></trkpt><trkpt lat="43.4532368" lon="10.8427828"><ele>107.33333333333333</ele><time>2026-04-18T10:00:17.585Z</time></trkpt><trkpt lat="43.4533059" lon="10.8425634"><ele>107.66666666666666</ele><time>2026-04-18T10:00:18.585Z</time></trkpt><trkpt lat="43.4533801" lon="10.8423401"><ele>108.0</ele><time>2026-04-18T10:00:19.582Z</time></trkpt><trkpt lat="43.4534592" lon="10.842125"><ele>108.0</ele><time>2026-04-18T10:00:20.581Z</time></trkpt><trkpt lat="43.4535376" lon="10.8419027"><ele>108.0</ele><time>2026-04-18T10:00:21.583Z</time></trkpt><trkpt lat="43.453624" lon="10.841682"><ele>108.0</ele><time>2026-04-18T10:00:22.577Z</time></trkpt><trkpt lat="43.4537025" lon="10.8414459"><ele>107.66666666666666</ele><time>2026-04-18T10:00:23.581Z</time></trkpt><trkpt lat="43.4537878" lon="10.8411889"><ele>107.33333333333333</ele><time>2026-04-18T10:00:24.576Z</time></trkpt><trkpt lat="43.4538832" lon="10.8409042"><ele>107.0</ele><time>2026-04-18T10:00:25.58Z</time></trkpt><trkpt lat="43.4539909" lon="10.8406122"><ele>112.0</ele><time>2026-04-18T10:00:26.573Z</time></trkpt><trkpt lat="43.4540974" lon="10.8403206"><ele>117.0</ele><time>2026-04-18T10:00:27.579Z</time></trkpt><trkpt lat="43.4541835" lon="10.8400463"><ele>117.0</ele><time>2026-04-18T10:00:28.558Z</time></trkpt><trkpt lat="43.4542724" lon="10.8398037"><ele>117.0</ele><time>2026-04-18T10:00:29.564Z</time></trkpt><trkpt lat="43.454357" lon="10.8395706"><ele>117.0</ele><time>2026-04-18T10:00:30.561Z</time></trkpt><trkpt lat="43.4544682" lon="10.8393458"><ele>115.33333333333334</ele><time>2026-04-18T10:00:31.547Z</time></trkpt><trkpt lat="43.4545845" lon="10.8391206"><ele>113.66666666666667</ele><time>2026-04-18T10:00:32.551Z</time></trkpt><trkpt lat="43.4547169" lon="10.838906"><ele>112.0</ele><time>2026-04-18T10:00:33.561Z</time></trkpt><trkpt lat="43.4548671" lon="10.8386959"><ele>112.0</ele><time>2026-04-18T10:00:34.568Z</time></trkpt><trkpt lat="43.4550217" lon="10.8384886"><ele>112.0</ele><time>2026-04-18T10:00:35.579Z</time></trkpt><trkpt lat="43.4551654" lon="10.8382862"><ele>112.0</ele><time>2026-04-18T10:00:36.585Z</time></trkpt><trkpt lat="43.4553118" lon="10.8380851"><ele>111.0</ele><time>2026-04-18T10:00:37.584Z</time></trkpt><trkpt lat="43.4554632" lon="10.8378928"><ele>110.0</ele><time>2026-04-18T10:00:38.576Z</time></trkpt><trkpt lat="43.4556006" lon="10.8376993"><ele>109.0</ele><time>2026-04-18T10:00:39.569Z</time></trkpt><trkpt lat="43.4557447" lon="10.8375187"><ele>109.0</ele><time>2026-04-18T10:00:40.558Z</time></trkpt><trkpt lat="43.4558481" lon="10.8373361"><ele>109.0</ele><time>2026-04-18T10:00:41.566Z</time></trkpt><trkpt lat="43.4559698" lon="10.8371815"><ele>109.0</ele><time>2026-04-18T10:00:42.566Z</time></trkpt><trkpt lat="43.4560833" lon="10.837021"><ele>109.0</ele><time>2026-04-18T10:00:43.567Z</time></trkpt><trkpt lat="43.4561903" lon="10.8368644"><ele>109.0</ele><time>2026-04-18T10:00:44.566Z</time></trkpt><trkpt lat="43.4563423" lon="10.8367025"><ele>109.0</ele><time>2026-04-18T10:00:45.557Z</time></trkpt><trkpt lat="43.4564581" lon="10.8365048"><ele>108.33333333333334</ele><time>2026-04-18T10:00:46.548Z</time></trkpt><trkpt lat="43.4565516" lon="10.8362967"><ele>107.66666666666666</ele><time>2026-04-18T10:00:47.553Z</time></trkpt><trkpt lat="43.4566273" lon="10.8360602"><ele>107.0</ele><time>2026-04-18T10:00:48.558Z</time></trkpt><trkpt lat="43.4567092" lon="10.8358028"><ele>106.0</ele><time>2026-04-18T10:00:49.565Z</time></trkpt><trkpt lat="43.4567806" lon="10.8355254"><ele>105.0</ele><time>2026-04-18T10:00:50.56Z</time></trkpt><trkpt lat="43.4568449" lon="10.8352659"><ele>104.0</ele><time>2026-04-18T10:00:51.575Z</time></trkpt><trkpt lat="43.4568954" lon="10.8350184"><ele>104.0</ele><time>2026-04-18T10:00:52.574Z</time></trkpt><trkpt lat="43.4569532" lon="10.8347742"><ele>104.0</ele><time>2026-04-18T10:00:53.579Z</time></trkpt><trkpt lat="43.4570091" lon="10.8345291"><ele>104.0</ele><time>2026-04-18T10:00:54.588Z</time></trkpt><trkpt lat="43.4570644" lon="10.83428"><ele>104.0</ele><time>2026-04-18T10:00:55.587Z</time></trkpt><trkpt lat="43.4571044" lon="10.834028"><ele>104.0</ele><time>2026-04-18T10:00:56.577Z</time></trkpt><trkpt lat="43.457144" lon="10.8337709"><ele>104.0</ele><time>2026-04-18T10:00:57.589Z</time></trkpt><trkpt lat="43.4571548" lon="10.8334946"><ele>104.0</ele><time>2026-04-18T10:00:58.574Z</time></trkpt><trkpt lat="43.4571463" lon="10.8332213"><ele>104.0</ele><time>2026-04-18T10:00:59.575Z</time></trkpt><trkpt lat="43.4571309" lon="10.832945"><ele>104.0</ele><time>2026-04-18T10:01:00.591Z</time></trkpt><trkpt lat="43.4571179" lon="10.8326899"><ele>103.33333333333333</ele><time>2026-04-18T10:01:01.585Z</time></trkpt><trkpt lat="43.4571059" lon="10.8324514"><ele>102.66666666666666</ele><time>2026-04-18T10:01:02.593Z</time></trkpt><trkpt lat="43.4570979" lon="10.8322207"><ele>102.0</ele><time>2026-04-18T10:01:03.591Z</time></trkpt><trkpt lat="43.4570932" lon="10.8319749"><ele>102.0</ele><time>2026-04-18T10:01:04.59Z</time></trkpt><trkpt lat="43.4570844" lon="10.8317289"><ele>102.0</ele><time>2026-04-18T10:01:05.594Z</time></trkpt><trkpt lat="43.4570732" lon="10.8314804"><ele>102.0</ele><time>2026-04-18T10:01:06.598Z</time></trkpt><trkpt lat="43.4570562" lon="10.8312419"><ele>102.0</ele><time>2026-04-18T10:01:07.589Z</time></trkpt><trkpt lat="43.4570552" lon="10.8310294"><ele>102.0</ele><time>2026-04-18T10:01:08.604Z</time></trkpt><trkpt lat="43.457037" lon="10.8308273"><ele>102.0</ele><time>2026-04-18T10:01:09.583Z</time></trkpt><trkpt lat="43.4570347" lon="10.8306304"><ele>102.0</ele><time>2026-04-18T10:01:10.588Z</time></trkpt><trkpt lat="43.4570307" lon="10.8304639"><ele>101.8</ele><time>2026-04-18T10:01:11.587Z</time></trkpt><trkpt lat="43.4570341" lon="10.8302967"><ele>101.6</ele><time>2026-04-18T10:01:12.587Z</time></trkpt><trkpt lat="43.457032" lon="10.8301467"><ele>101.39999999999999</ele><time>2026-04-18T10:01:13.588Z</time></trkpt><trkpt lat="43.4570216" lon="10.8300133"><ele>101.19999999999999</ele><time>2026-04-18T10:01:14.589Z</time></trkpt><trkpt lat="43.4569828" lon="10.8298999"><ele>101.0</ele><time>2026-04-18T10:01:15.579Z</time></trkpt><trkpt lat="43.4569209" lon="10.8297943"><ele>100.75</ele><time>2026-04-18T10:01:16.597Z</time></trkpt><trkpt lat="43.4568265" lon="10.8297198"><ele>100.5</ele><time>2026-04-18T10:01:17.57Z</time></trkpt><trkpt lat="43.4567095" lon="10.8296746"><ele>100.25</ele><time>2026-04-18T10:01:18.594Z</time></trkpt><trkpt lat="43.4565693" lon="10.8296607"><ele>100.0</ele><time>2026-04-18T10:01:19.577Z</time></trkpt><trkpt lat="43.4564263" lon="10.8296915"><ele>100.66666666666667</ele><time>2026-04-18T10:01:20.58Z</time></trkpt><trkpt lat="43.4562858" lon="10.8297426"><ele>101.33333333333334</ele><time>2026-04-18T10:01:21.575Z</time></trkpt><trkpt lat="43.4561317" lon="10.8298425"><ele>102.0</ele><time>2026-04-18T10:01:22.577Z</time></trkpt><trkpt lat="43.4559796" lon="10.8298993"><ele>102.0</ele><time>2026-04-18T10:01:23.569Z</time></trkpt><trkpt lat="43.4558214" lon="10.8299784"><ele>102.0</ele><time>2026-04-18T10:01:24.568Z</time></trkpt><trkpt lat="43.4556613" lon="10.8300462"><ele>102.0</ele><time>2026-04-18T10:01:25.576Z</time></trkpt><trkpt lat="43.4554919" lon="10.8301264"><ele>102.0</ele><time>2026-04-18T10:01:26.574Z</time></trkpt><trkpt lat="43.4553252" lon="10.8302055"><ele>102.0</ele><time>2026-04-18T10:01:27.575Z</time></trkpt><trkpt lat="43.4551578" lon="10.8302826"><ele>102.0</ele><time>2026-04-18T10:01:28.573Z</time></trkpt><trkpt lat="43.4550118" lon="10.8303302"><ele>102.0</ele><time>2026-04-18T10:01:29.574Z</time></trkpt><trkpt lat="43.4548715" lon="10.8303797"><ele>102.0</ele><time>2026-04-18T10:01:30.578Z</time></trkpt><trkpt lat="43.4547453" lon="10.8304267"><ele>102.0</ele><time>2026-04-18T10:01:31.571Z</time></trkpt><trkpt lat="43.4546079" lon="10.8304518"><ele>102.0</ele><time>2026-04-18T10:01:32.584Z</time></trkpt><trkpt lat="43.4544905" lon="10.8304557"><ele>102.39999999999999</ele><time>2026-04-18T10:01:33.588Z</time></trkpt><trkpt lat="43.4543927" lon="10.8304432"><ele>102.8</ele><time>2026-04-18T10:01:34.582Z</time></trkpt><trkpt lat="43.454302" lon="10.8303827"><ele>103.2</ele><time>2026-04-18T10:01:35.573Z</time></trkpt><trkpt lat="43.454205" lon="10.8302949"><ele>103.6</ele><time>2026-04-18T10:01:36.569Z</time></trkpt><trkpt lat="43.4541483" lon="10.8301615"><ele>104.0</ele><time>2026-04-18T10:01:37.563Z</time></trkpt><trkpt lat="43.4541093" lon="10.8300075"><ele>104.33333333333333</ele><time>2026-04-18T10:01:38.581Z</time></trkpt><trkpt lat="43.4541001" lon="10.8298331"><ele>104.66666666666666</ele><time>2026-04-18T10:01:39.588Z</time></trkpt><trkpt lat="43.4540901" lon="10.829606"><ele>105.0</ele><time>2026-04-18T10:01:40.583Z</time></trkpt><trkpt lat="43.4540934" lon="10.8293349"><ele>105.0</ele><time>2026-04-18T10:01:41.582Z</time></trkpt><trkpt lat="43.4540815" lon="10.8290974"><ele>105.0</ele><time>2026-04-18T10:01:42.582Z</time></trkpt><trkpt lat="43.4540897" lon="10.8288831"><ele>105.0</ele><time>2026-04-18T10:01:43.591Z</time></trkpt><trkpt lat="43.4541287" lon="10.8286624"><ele>105.33333333333334</ele><time>2026-04-18T10:01:44.591Z</time></trkpt><trkpt lat="43.454149" lon="10.8284394"><ele>105.66666666666667</ele><time>2026-04-18T10:01:45.573Z</time></trkpt><trkpt lat="43.4541811" lon="10.8282363"><ele>106.0</ele><time>2026-04-18T10:01:46.586Z</time></trkpt><trkpt lat="43.4542124" lon="10.8280474"><ele>106.0</ele><time>2026-04-18T10:01:47.584Z</time></trkpt><trkpt lat="43.4542667" lon="10.8278297"><ele>106.0</ele><time>2026-04-18T10:01:48.573Z</time></trkpt><trkpt lat="43.4543075" lon="10.8276154"><ele>106.0</ele><time>2026-04-18T10:01:49.569Z</time></trkpt><trkpt lat="43.4542994" lon="10.8273789"><ele>106.33333333333334</ele><time>2026-04-18T10:01:50.578Z</time></trkpt><trkpt lat="43.4542548" lon="10.8271056"><ele>106.66666666666666</ele><time>2026-04-18T10:01:51.581Z</time></trkpt><trkpt lat="43.4542298" lon="10.8268362"><ele>107.0</ele><time>2026-04-18T10:01:52.575Z</time></trkpt><trkpt lat="43.4541918" lon="10.8265679"><ele>106.33333333333333</ele><time>2026-04-18T10:01:53.58Z</time></trkpt><trkpt lat="43.4541575" lon="10.8262947"><ele>105.66666666666666</ele><time>2026-04-18T10:01:54.577Z</time></trkpt><trkpt lat="43.4540949" lon="10.8260242"><ele>105.0</ele><time>2026-04-18T10:01:55.574Z</time></trkpt><trkpt lat="43.4540492" lon="10.8257107"><ele>105.0</ele><time>2026-04-18T10:01:56.581Z</time></trkpt><trkpt lat="43.4540132" lon="10.8254104"><ele>105.0</ele><time>2026-04-18T10:01:57.582Z</time></trkpt><trkpt lat="43.4539816" lon="10.8251072"><ele>105.0</ele><time>2026-04-18T10:01:58.578Z</time></trkpt><trkpt lat="43.4539419" lon="10.8248094"><ele>103.66666666666666</ele><time>2026-04-18T10:01:59.589Z</time></trkpt><trkpt lat="43.4538994" lon="10.8245368"><ele>102.33333333333333</ele><time>2026-04-18T10:02:00.577Z</time></trkpt><trkpt lat="43.4538337" lon="10.8242573"><ele>101.0</ele><time>2026-04-18T10:02:01.582Z</time></trkpt><trkpt lat="43.4537963" lon="10.8239803"><ele>109.33333333333333</ele><time>2026-04-18T10:02:02.581Z</time></trkpt><trkpt lat="43.4537542" lon="10.8237109"><ele>117.66666666666666</ele><time>2026-04-18T10:02:03.581Z</time></trkpt><trkpt lat="43.4537207" lon="10.8234366"><ele>126.0</ele><time>2026-04-18T10:02:04.578Z</time></trkpt><trkpt lat="43.4536883" lon="10.8231529"><ele>126.0</ele><time>2026-04-18T10:02:05.574Z</time></trkpt><trkpt lat="43.4536319" lon="10.8228692"><ele>126.0</ele><time>2026-04-18T10:02:06.582Z</time></trkpt><trkpt lat="43.4535602" lon="10.8225916"><ele>126.0</ele><time>2026-04-18T10:02:07.576Z</time></trkpt><trkpt lat="43.453486" lon="10.8222936"><ele>122.33333333333334</ele><time>2026-04-18T10:02:08.583Z</time></trkpt><trkpt lat="43.4534047" lon="10.8220127"><ele>118.66666666666667</ele><time>2026-04-18T10:02:09.575Z</time></trkpt><trkpt lat="43.4533424" lon="10.8217345"><ele>115.0</ele><time>2026-04-18T10:02:10.589Z</time></trkpt><trkpt lat="43.4532645" lon="10.8214753"><ele>112.0</ele><time>2026-04-18T10:02:11.573Z</time></trkpt><trkpt lat="43.4531824" lon="10.8212279"><ele>109.0</ele><time>2026-04-18T10:02:12.572Z</time></trkpt><trkpt lat="43.453114" lon="10.8209744"><ele>106.0</ele><time>2026-04-18T10:02:13.571Z</time></trkpt><trkpt lat="43.4530524" lon="10.8207225"><ele>105.0</ele><time>2026-04-18T10:02:14.581Z</time></trkpt><trkpt lat="43.4530061" lon="10.8204705"><ele>104.0</ele><time>2026-04-18T10:02:15.578Z</time></trkpt><trkpt lat="43.4529414" lon="10.8202136"><ele>103.0</ele><time>2026-04-18T10:02:16.574Z</time></trkpt><trkpt lat="43.4528876" lon="10.8199418"><ele>106.66666666666667</ele><time>2026-04-18T10:02:17.566Z</time></trkpt><trkpt lat="43.4528141" lon="10.8196848"><ele>110.33333333333334</ele><time>2026-04-18T10:02:18.578Z</time></trkpt><trkpt lat="43.4527342" lon="10.8194416"><ele>114.0</ele><time>2026-04-18T10:02:19.569Z</time></trkpt><trkpt lat="43.4526294" lon="10.8192134"><ele>114.0</ele><time>2026-04-18T10:02:20.592Z</time></trkpt><trkpt lat="43.4525532" lon="10.8189564"><ele>114.0</ele><time>2026-04-18T10:02:21.575Z</time></trkpt><trkpt lat="43.4524917" lon="10.8186694"><ele>114.0</ele><time>2026-04-18T10:02:22.57Z</time></trkpt><trkpt lat="43.4524546" lon="10.8183828"><ele>111.66666666666666</ele><time>2026-04-18T10:02:23.577Z</time></trkpt><trkpt lat="43.45241" lon="10.8181068"><ele>109.33333333333333</ele><time>2026-04-18T10:02:24.576Z</time></trkpt><trkpt lat="43.4523731" lon="10.8178274"><ele>107.0</ele><time>2026-04-18T10:02:25.58Z</time></trkpt><trkpt lat="43.4523357" lon="10.81756"><ele>105.0</ele><time>2026-04-18T10:02:26.572Z</time></trkpt><trkpt lat="43.4523112" lon="10.8172939"><ele>103.0</ele><time>2026-04-18T10:02:27.579Z</time></trkpt><trkpt lat="43.452262" lon="10.8170314"><ele>101.0</ele><time>2026-04-18T10:02:28.566Z</time></trkpt><trkpt lat="43.4522087" lon="10.8167711"><ele>100.0</ele><time>2026-04-18T10:02:29.57Z</time></trkpt><trkpt lat="43.4521266" lon="10.8165161"><ele>99.0</ele><time>2026-04-18T10:02:30.576Z</time></trkpt><trkpt lat="43.4520502" lon="10.8162541"><ele>98.0</ele><time>2026-04-18T10:02:31.574Z</time></trkpt><trkpt lat="43.4519738" lon="10.8160131"><ele>98.0</ele><time>2026-04-18T10:02:32.579Z</time></trkpt><trkpt lat="43.4519008" lon="10.8157733"><ele>98.0</ele><time>2026-04-18T10:02:33.576Z</time></trkpt><trkpt lat="43.451823" lon="10.815542"><ele>98.0</ele><time>2026-04-18T10:02:34.569Z</time></trkpt><trkpt lat="43.4517516" lon="10.8152983"><ele>99.0</ele><time>2026-04-18T10:02:35.569Z</time></trkpt><trkpt lat="43.4516934" lon="10.8150582"><ele>100.0</ele><time>2026-04-18T10:02:36.58Z</time></trkpt><trkpt lat="43.451631" lon="10.8148191"><ele>101.0</ele><time>2026-04-18T10:02:37.579Z</time></trkpt><trkpt lat="43.4515725" lon="10.8145819"><ele>101.0</ele><time>2026-04-18T10:02:38.581Z</time></trkpt><trkpt lat="43.4515095" lon="10.814355"><ele>101.0</ele><time>2026-04-18T10:02:39.583Z</time></trkpt><trkpt lat="43.4514688" lon="10.8141163"><ele>101.0</ele><time>2026-04-18T10:02:40.583Z</time></trkpt><trkpt lat="43.4514331" lon="10.8138768"><ele>101.0</ele><time>2026-04-18T10:02:41.585Z</time></trkpt><trkpt lat="43.4514118" lon="10.8136175"><ele>101.0</ele><time>2026-04-18T10:02:42.585Z</time></trkpt><trkpt lat="43.4513994" lon="10.8133854"><ele>101.0</ele><time>2026-04-18T10:02:43.572Z</time></trkpt><trkpt lat="43.4514123" lon="10.8131201"><ele>100.66666666666666</ele><time>2026-04-18T10:02:44.577Z</time></trkpt><trkpt lat="43.4514104" lon="10.8128388"><ele>100.33333333333334</ele><time>2026-04-18T10:02:45.574Z</time></trkpt><trkpt lat="43.4514034" lon="10.8125903"><ele>100.0</ele><time>2026-04-18T10:02:46.571Z</time></trkpt><trkpt lat="43.4513834" lon="10.8123256"><ele>99.0</ele><time>2026-04-18T10:02:47.572Z</time></trkpt><trkpt lat="43.4513566" lon="10.8120578"><ele>98.0</ele><time>2026-04-18T10:02:48.565Z</time></trkpt><trkpt lat="43.4513463" lon="10.8118001"><ele>97.0</ele><time>2026-04-18T10:02:49.574Z</time></trkpt><trkpt lat="43.4513018" lon="10.8115395"><ele>99.0</ele><time>2026-04-18T10:02:50.569Z</time></trkpt><trkpt lat="43.4512371" lon="10.8112922"><ele>101.0</ele><time>2026-04-18T10:02:51.576Z</time></trkpt><trkpt lat="43.4511681" lon="10.8110523"><ele>103.0</ele><time>2026-04-18T10:02:52.57Z</time></trkpt><trkpt lat="43.4511042" lon="10.8108052"><ele>103.0</ele><time>2026-04-18T10:02:53.576Z</time></trkpt><trkpt lat="43.4510278" lon="10.8105744"><ele>103.0</ele><time>2026-04-18T10:02:54.564Z</time></trkpt><trkpt lat="43.4509559" lon="10.810324"><ele>103.0</ele><time>2026-04-18T10:02:55.576Z</time></trkpt><trkpt lat="43.4509173" lon="10.8100657"><ele>101.0</ele><time>2026-04-18T10:02:56.577Z</time></trkpt><trkpt lat="43.4508863" lon="10.8097845"><ele>99.0</ele><time>2026-04-18T10:02:57.585Z</time></trkpt><trkpt lat="43.4508515" lon="10.8095093"><ele>97.0</ele><time>2026-04-18T10:02:58.577Z</time></trkpt><trkpt lat="43.4508217" lon="10.809226"><ele>96.66666666666667</ele><time>2026-04-18T10:02:59.588Z</time></trkpt><trkpt lat="43.4508058" lon="10.8089533"><ele>96.33333333333334</ele><time>2026-04-18T10:03:00.577Z</time></trkpt><trkpt lat="43.4507855" lon="10.8086704"><ele>96.0</ele><time>2026-04-18T10:03:01.583Z</time></trkpt><trkpt lat="43.4507535" lon="10.808419"><ele>95.66666666666667</ele><time>2026-04-18T10:03:02.574Z</time></trkpt><trkpt lat="43.4507296" lon="10.8081704"><ele>95.33333333333334</ele><time>2026-04-18T10:03:03.572Z</time></trkpt><trkpt lat="43.4507133" lon="10.8079039"><ele>95.0</ele><time>2026-04-18T10:03:04.575Z</time></trkpt><trkpt lat="43.4506945" lon="10.8076321"><ele>95.0</ele><time>2026-04-18T10:03:05.574Z</time></trkpt><trkpt lat="43.450703" lon="10.8073693"><ele>95.0</ele><time>2026-04-18T10:03:06.563Z</time></trkpt><trkpt lat="43.4507234" lon="10.8070952"><ele>95.0</ele><time>2026-04-18T10:03:07.565Z</time></trkpt><trkpt lat="43.450741" lon="10.8068436"><ele>94.66666666666667</ele><time>2026-04-18T10:03:08.557Z</time></trkpt><trkpt lat="43.4507761" lon="10.8066002"><ele>94.33333333333333</ele><time>2026-04-18T10:03:09.57Z</time></trkpt><trkpt lat="43.4508026" lon="10.806335"><ele>94.0</ele><time>2026-04-18T10:03:10.564Z</time></trkpt><trkpt lat="43.4508451" lon="10.8060829"><ele>94.66666666666666</ele><time>2026-04-18T10:03:11.568Z</time></trkpt><trkpt lat="43.4508819" lon="10.8058139"><ele>95.33333333333333</ele><time>2026-04-18T10:03:12.574Z</time></trkpt><trkpt lat="43.4509341" lon="10.8055572"><ele>96.0</ele><time>2026-04-18T10:03:13.57Z</time></trkpt><trkpt lat="43.4510116" lon="10.8052839"><ele>96.33333333333334</ele><time>2026-04-18T10:03:14.577Z</time></trkpt><trkpt lat="43.4510818" lon="10.8050329"><ele>96.66666666666667</ele><time>2026-04-18T10:03:15.565Z</time></trkpt><trkpt lat="43.4511384" lon="10.8047748"><ele>97.0</ele><time>2026-04-18T10:03:16.568Z</time></trkpt><trkpt lat="43.4511899" lon="10.8045237"><ele>96.0</ele><time>2026-04-18T10:03:17.573Z</time></trkpt><trkpt lat="43.4512417" lon="10.8042774"><ele>95.0</ele><time>2026-04-18T10:03:18.574Z</time></trkpt><trkpt lat="43.4513082" lon="10.8040388"><ele>94.0</ele><time>2026-04-18T10:03:19.583Z</time></trkpt><trkpt lat="43.4513693" lon="10.8037857"><ele>94.0</ele><time>2026-04-18T10:03:20.577Z</time></trkpt><trkpt lat="43.451436" lon="10.8035425"><ele>94.0</ele><time>2026-04-18T10:03:21.58Z</time></trkpt><trkpt lat="43.4514593" lon="10.8032823"><ele>94.0</ele><time>2026-04-18T10:03:22.576Z</time></trkpt><trkpt lat="43.4514698" lon="10.8030176"><ele>94.33333333333333</ele><time>2026-04-18T10:03:23.573Z</time></trkpt><trkpt lat="43.4514856" lon="10.8027938"><ele>94.66666666666667</ele><time>2026-04-18T10:03:24.571Z</time></trkpt><trkpt lat="43.4514864" lon="10.802577"><ele>95.0</ele><time>2026-04-18T10:03:25.572Z</time></trkpt><trkpt lat="43.4515056" lon="10.8023424"><ele>94.33333333333334</ele><time>2026-04-18T10:03:26.577Z</time></trkpt><trkpt lat="43.4515419" lon="10.8020887"><ele>93.66666666666667</ele><time>2026-04-18T10:03:27.579Z</time></trkpt><trkpt lat="43.4516037" lon="10.8018407"><ele>93.0</ele><time>2026-04-18T10:03:28.585Z</time></trkpt><trkpt lat="43.451674" lon="10.8015819"><ele>92.66666666666667</ele><time>2026-04-18T10:03:29.59Z</time></trkpt><trkpt lat="43.4517462" lon="10.8013341"><ele>92.33333333333334</ele><time>2026-04-18T10:03:30.583Z</time></trkpt><trkpt lat="43.4518066" lon="10.801089"><ele>92.0</ele><time>2026-04-18T10:03:31.584Z</time></trkpt><trkpt lat="43.4518664" lon="10.8008616"><ele>92.0</ele><time>2026-04-18T10:03:32.593Z</time></trkpt><trkpt lat="43.4519416" lon="10.8006408"><ele>92.0</ele><time>2026-04-18T10:03:33.589Z</time></trkpt><trkpt lat="43.4520039" lon="10.8004062"><ele>92.0</ele><time>2026-04-18T10:03:34.598Z</time></trkpt><trkpt lat="43.4520604" lon="10.8001759"><ele>91.66666666666667</ele><time>2026-04-18T10:03:35.588Z</time></trkpt><trkpt lat="43.452109" lon="10.7999634"><ele>91.33333333333333</ele><time>2026-04-18T10:03:36.588Z</time></trkpt><trkpt lat="43.4521689" lon="10.7997491"><ele>91.0</ele><time>2026-04-18T10:03:37.591Z</time></trkpt><trkpt lat="43.4522291" lon="10.7995425"><ele>90.33333333333333</ele><time>2026-04-18T10:03:38.603Z</time></trkpt><trkpt lat="43.4522824" lon="10.7993258"><ele>89.66666666666667</ele><time>2026-04-18T10:03:39.596Z</time></trkpt><trkpt lat="43.4523416" lon="10.7991106"><ele>89.0</ele><time>2026-04-18T10:03:40.591Z</time></trkpt><trkpt lat="43.4523946" lon="10.7988795"><ele>89.0</ele><time>2026-04-18T10:03:41.589Z</time></trkpt><trkpt lat="43.4524543" lon="10.7986456"><ele>89.0</ele><time>2026-04-18T10:03:42.588Z</time></trkpt><trkpt lat="43.4525178" lon="10.7984082"><ele>89.0</ele><time>2026-04-18T10:03:43.614Z</time></trkpt><trkpt lat="43.4525818" lon="10.7981617"><ele>89.0</ele><time>2026-04-18T10:03:44.591Z</time></trkpt><trkpt lat="43.4526444" lon="10.7979183"><ele>89.0</ele><time>2026-04-18T10:03:45.592Z</time></trkpt><trkpt lat="43.4527121" lon="10.7976844"><ele>89.0</ele><time>2026-04-18T10:03:46.588Z</time></trkpt><trkpt lat="43.4527735" lon="10.7974689"><ele>89.0</ele><time>2026-04-18T10:03:47.588Z</time></trkpt><trkpt lat="43.4528243" lon="10.7972352"><ele>89.0</ele><time>2026-04-18T10:03:48.594Z</time></trkpt><trkpt lat="43.4528814" lon="10.7970017"><ele>89.0</ele><time>2026-04-18T10:03:49.587Z</time></trkpt><trkpt lat="43.4529482" lon="10.7967906"><ele>89.33333333333334</ele><time>2026-04-18T10:03:50.587Z</time></trkpt><trkpt lat="43.4530101" lon="10.7965671"><ele>89.66666666666667</ele><time>2026-04-18T10:03:51.594Z</time></trkpt><trkpt lat="43.4530781" lon="10.7963303"><ele>90.0</ele><time>2026-04-18T10:03:52.583Z</time></trkpt><trkpt lat="43.453142" lon="10.7960827"><ele>89.33333333333333</ele><time>2026-04-18T10:03:53.59Z</time></trkpt><trkpt lat="43.4532137" lon="10.7958463"><ele>88.66666666666666</ele><time>2026-04-18T10:03:54.585Z</time></trkpt><trkpt lat="43.4532743" lon="10.7956109"><ele>88.0</ele><time>2026-04-18T10:03:55.592Z</time></trkpt><trkpt lat="43.453331" lon="10.7953626"><ele>87.33333333333333</ele><time>2026-04-18T10:03:56.586Z</time></trkpt><trkpt lat="43.4533925" lon="10.7951312"><ele>86.66666666666667</ele><time>2026-04-18T10:03:57.601Z</time></trkpt><trkpt lat="43.4534429" lon="10.7949066"><ele>86.0</ele><time>2026-04-18T10:03:58.602Z</time></trkpt><trkpt lat="43.4534882" lon="10.7946944"><ele>86.0</ele><time>2026-04-18T10:03:59.588Z</time></trkpt><trkpt lat="43.4535278" lon="10.7944721"><ele>86.0</ele><time>2026-04-18T10:04:00.587Z</time></trkpt><trkpt lat="43.4535242" lon="10.7942627"><ele>86.0</ele><time>2026-04-18T10:04:01.581Z</time></trkpt><trkpt lat="43.4535036" lon="10.7940756"><ele>86.0</ele><time>2026-04-18T10:04:02.569Z</time></trkpt><trkpt lat="43.453479" lon="10.79389"><ele>86.0</ele><time>2026-04-18T10:04:03.585Z</time></trkpt><trkpt lat="43.4534367" lon="10.7937292"><ele>86.0</ele><time>2026-04-18T10:04:04.581Z</time></trkpt><trkpt lat="43.4534212" lon="10.7935707"><ele>86.0</ele><time>2026-04-18T10:04:05.588Z</time></trkpt><trkpt lat="43.453406" lon="10.7934055"><ele>86.0</ele><time>2026-04-18T10:04:06.586Z</time></trkpt><trkpt lat="43.4533872" lon="10.7932517"><ele>86.0</ele><time>2026-04-18T10:04:07.582Z</time></trkpt><trkpt lat="43.4533701" lon="10.7930977"><ele>86.0</ele><time>2026-04-18T10:04:08.582Z</time></trkpt><trkpt lat="43.4533482" lon="10.7929652"><ele>86.0</ele><time>2026-04-18T10:04:09.584Z</time></trkpt><trkpt lat="43.4533254" lon="10.7928641"><ele>86.0</ele><time>2026-04-18T10:04:10.571Z</time></trkpt><trkpt lat="43.453295" lon="10.7927441"><ele>86.0</ele><time>2026-04-18T10:04:12.582Z</time></trkpt><trkpt lat="43.4532182" lon="10.7927348"><ele>86.0</ele><time>2026-04-18T10:04:14.566Z</time></trkpt><trkpt lat="43.4531528" lon="10.792771"><ele>86.0</ele><time>2026-04-18T10:04:15.574Z</time></trkpt><trkpt lat="43.4530677" lon="10.7928268"><ele>86.0</ele><time>2026-04-18T10:04:16.589Z</time></trkpt><trkpt lat="43.4529619" lon="10.7929002"><ele>86.0</ele><time>2026-04-18T10:04:17.591Z</time></trkpt><trkpt lat="43.4528558" lon="10.7929671"><ele>86.19999999999999</ele><time>2026-04-18T10:04:18.589Z</time></trkpt><trkpt lat="43.452757" lon="10.7930242"><ele>86.39999999999999</ele><time>2026-04-18T10:04:19.586Z</time></trkpt><trkpt lat="43.4526578" lon="10.7930813"><ele>86.6</ele><time>2026-04-18T10:04:20.587Z</time></trkpt><trkpt lat="43.4525586" lon="10.7931371"><ele>86.8</ele><time>2026-04-18T10:04:21.586Z</time></trkpt><trkpt lat="43.4524612" lon="10.7931942"><ele>87.0</ele><time>2026-04-18T10:04:22.583Z</time></trkpt><trkpt lat="43.4523643" lon="10.7932428"><ele>87.0</ele><time>2026-04-18T10:04:23.59Z</time></trkpt><trkpt lat="43.4522688" lon="10.7933067"><ele>87.0</ele><time>2026-04-18T10:04:24.591Z</time></trkpt><trkpt lat="43.452176" lon="10.7933691"><ele>87.0</ele><time>2026-04-18T10:04:25.591Z</time></trkpt><trkpt lat="43.4520782" lon="10.7934268"><ele>87.0</ele><time>2026-04-18T10:04:26.589Z</time></trkpt><trkpt lat="43.451982" lon="10.7934805"><ele>87.0</ele><time>2026-04-18T10:04:27.597Z</time></trkpt><trkpt lat="43.4518881" lon="10.7935451"><ele>86.75</ele><time>2026-04-18T10:04:28.593Z</time></trkpt><trkpt lat="43.4517894" lon="10.7936052"><ele>86.5</ele><time>2026-04-18T10:04:29.596Z</time></trkpt><trkpt lat="43.451681" lon="10.7936634"><ele>86.25</ele><time>2026-04-18T10:04:30.597Z</time></trkpt><trkpt lat="43.4515771" lon="10.7937256"><ele>86.0</ele><time>2026-04-18T10:04:31.597Z</time></trkpt><trkpt lat="43.4514707" lon="10.7937856"><ele>86.0</ele><time>2026-04-18T10:04:32.587Z</time></trkpt><trkpt lat="43.4513696" lon="10.7938529"><ele>86.0</ele><time>2026-04-18T10:04:33.604Z</time></trkpt><trkpt lat="43.4512686" lon="10.7939233"><ele>86.0</ele><time>2026-04-18T10:04:34.598Z</time></trkpt><trkpt lat="43.4511555" lon="10.7939933"><ele>86.0</ele><time>2026-04-18T10:04:35.588Z</time></trkpt><trkpt lat="43.4510347" lon="10.7940681"><ele>86.25</ele><time>2026-04-18T10:04:36.588Z</time></trkpt><trkpt lat="43.4509073" lon="10.794134"><ele>86.5</ele><time>2026-04-18T10:04:37.598Z</time></trkpt><trkpt lat="43.450792" lon="10.7941895"><ele>86.75</ele><time>2026-04-18T10:04:38.596Z</time></trkpt><trkpt lat="43.4506765" lon="10.7942491"><ele>87.0</ele><time>2026-04-18T10:04:39.596Z</time></trkpt><trkpt lat="43.4505609" lon="10.7943067"><ele>89.6</ele><time>2026-04-18T10:04:40.585Z</time></trkpt><trkpt lat="43.450456" lon="10.7943587"><ele>92.19999999999999</ele><time>2026-04-18T10:04:41.596Z</time></trkpt><trkpt lat="43.4503622" lon="10.79439"><ele>94.8</ele><time>2026-04-18T10:04:42.579Z</time></trkpt><trkpt lat="43.4502777" lon="10.7944262"><ele>97.4</ele><time>2026-04-18T10:04:43.581Z</time></trkpt><trkpt lat="43.4501927" lon="10.7944588"><ele>100.0</ele><time>2026-04-18T10:04:44.592Z</time></trkpt><trkpt lat="43.4501174" lon="10.7944731"><ele>100.0</ele><time>2026-04-18T10:04:45.57Z</time></trkpt><trkpt lat="43.4500438" lon="10.7944557"><ele>100.0</ele><time>2026-04-18T10:04:46.566Z</time></trkpt><trkpt lat="43.449979" lon="10.7944075"><ele>100.0</ele><time>2026-04-18T10:04:47.571Z</time></trkpt><trkpt lat="43.4499154" lon="10.7943305"><ele>100.0</ele><time>2026-04-18T10:04:48.557Z</time></trkpt><trkpt lat="43.4498638" lon="10.794202"><ele>100.0</ele><time>2026-04-18T10:04:49.571Z</time></trkpt><trkpt lat="43.4498119" lon="10.7940608"><ele>100.6</ele><time>2026-04-18T10:04:50.568Z</time></trkpt><trkpt lat="43.4497546" lon="10.7939301"><ele>101.2</ele><time>2026-04-18T10:04:51.576Z</time></trkpt><trkpt lat="43.4497049" lon="10.7938234"><ele>101.80000000000001</ele><time>2026-04-18T10:04:52.576Z</time></trkpt><trkpt lat="43.4496557" lon="10.793716"><ele>102.4</ele><time>2026-04-18T10:04:53.574Z</time></trkpt><trkpt lat="43.4496165" lon="10.7935849"><ele>103.0</ele><time>2026-04-18T10:04:54.577Z</time></trkpt><trkpt lat="43.4495767" lon="10.793422"><ele>103.0</ele><time>2026-04-18T10:04:55.566Z</time></trkpt><trkpt lat="43.4495262" lon="10.7932567"><ele>103.0</ele><time>2026-04-18T10:04:56.574Z</time></trkpt><trkpt lat="43.4494616" lon="10.7931047"><ele>103.0</ele><time>2026-04-18T10:04:57.572Z</time></trkpt><trkpt lat="43.4493988" lon="10.7929821"><ele>103.0</ele><time>2026-04-18T10:04:58.572Z</time></trkpt><trkpt lat="43.4493371" lon="10.7928558"><ele>103.0</ele><time>2026-04-18T10:04:59.572Z</time></trkpt><trkpt lat="43.4492734" lon="10.792732"><ele>103.0</ele><time>2026-04-18T10:05:00.587Z</time></trkpt><trkpt lat="43.4492083" lon="10.7926067"><ele>103.0</ele><time>2026-04-18T10:05:01.576Z</time></trkpt><trkpt lat="43.4491449" lon="10.7924937"><ele>103.0</ele><time>2026-04-18T10:05:02.576Z</time></trkpt><trkpt lat="43.4490804" lon="10.7923877"><ele>103.0</ele><time>2026-04-18T10:05:03.569Z</time></trkpt><trkpt lat="43.4490213" lon="10.7923035"><ele>102.83333333333334</ele><time>2026-04-18T10:05:04.573Z</time></trkpt><trkpt lat="43.4489599" lon="10.7922244"><ele>102.66666666666667</ele><time>2026-04-18T10:05:05.58Z</time></trkpt><trkpt lat="43.4488871" lon="10.7921376"><ele>102.5</ele><time>2026-04-18T10:05:06.577Z</time></trkpt><trkpt lat="43.4488149" lon="10.7920584"><ele>102.33333333333334</ele><time>2026-04-18T10:05:07.58Z</time></trkpt><trkpt lat="43.4487442" lon="10.7919893"><ele>102.16666666666667</ele><time>2026-04-18T10:05:08.577Z</time></trkpt><trkpt lat="43.44867" lon="10.79193"><ele>102.0</ele><time>2026-04-18T10:05:09.575Z</time></trkpt><trkpt lat="43.4485892" lon="10.7918949"><ele>102.0</ele><time>2026-04-18T10:05:10.568Z</time></trkpt><trkpt lat="43.448504" lon="10.7918816"><ele>102.0</ele><time>2026-04-18T10:05:11.57Z</time></trkpt><trkpt lat="43.448406" lon="10.7919045"><ele>102.0</ele><time>2026-04-18T10:05:12.577Z</time></trkpt><trkpt lat="43.4482941" lon="10.7919532"><ele>102.0</ele><time>2026-04-18T10:05:13.57Z</time></trkpt><trkpt lat="43.4481636" lon="10.7920069"><ele>102.0</ele><time>2026-04-18T10:05:14.585Z</time></trkpt><trkpt lat="43.448033" lon="10.7920551"><ele>102.39999999999999</ele><time>2026-04-18T10:05:15.586Z</time></trkpt><trkpt lat="43.4479056" lon="10.7920791"><ele>102.8</ele><time>2026-04-18T10:05:16.574Z</time></trkpt><trkpt lat="43.4477866" lon="10.7920849"><ele>103.2</ele><time>2026-04-18T10:05:17.578Z</time></trkpt><trkpt lat="43.4476882" lon="10.7920878"><ele>103.6</ele><time>2026-04-18T10:05:18.568Z</time></trkpt><trkpt lat="43.4476063" lon="10.7920877"><ele>104.0</ele><time>2026-04-18T10:05:19.571Z</time></trkpt><trkpt lat="43.4475239" lon="10.7920665"><ele>103.99999999999999</ele><time>2026-04-18T10:05:20.561Z</time></trkpt><trkpt lat="43.4474479" lon="10.7920197"><ele>104.0</ele><time>2026-04-18T10:05:21.561Z</time></trkpt><trkpt lat="43.4473882" lon="10.7919306"><ele>104.0</ele><time>2026-04-18T10:05:22.564Z</time></trkpt><trkpt lat="43.4473464" lon="10.7918519"><ele>104.0</ele><time>2026-04-18T10:05:23.567Z</time></trkpt><trkpt lat="43.4472356" lon="10.7918118"><ele>103.99999999999999</ele><time>2026-04-18T10:05:25.568Z</time></trkpt><trkpt lat="43.4471767" lon="10.7918509"><ele>104.0</ele><time>2026-04-18T10:05:26.569Z</time></trkpt><trkpt lat="43.4471136" lon="10.7919176"><ele>105.80000000000001</ele><time>2026-04-18T10:05:27.567Z</time></trkpt><trkpt lat="43.4470544" lon="10.7920126"><ele>107.60000000000001</ele><time>2026-04-18T10:05:28.572Z</time></trkpt><trkpt lat="43.4469924" lon="10.7921142"><ele>109.4</ele><time>2026-04-18T10:05:29.574Z</time></trkpt><trkpt lat="43.4469153" lon="10.7922097"><ele>111.2</ele><time>2026-04-18T10:05:30.576Z</time></trkpt><trkpt lat="43.4468228" lon="10.7922943"><ele>113.0</ele><time>2026-04-18T10:05:31.568Z</time></trkpt><trkpt lat="43.4467128" lon="10.7923743"><ele>113.0</ele><time>2026-04-18T10:05:32.571Z</time></trkpt><trkpt lat="43.4466012" lon="10.7924629"><ele>113.0</ele><time>2026-04-18T10:05:33.571Z</time></trkpt><trkpt lat="43.4464835" lon="10.7925491"><ele>113.0</ele><time>2026-04-18T10:05:34.569Z</time></trkpt><trkpt lat="43.4463759" lon="10.7926501"><ele>113.0</ele><time>2026-04-18T10:05:35.575Z</time></trkpt><trkpt lat="43.4462709" lon="10.7927448"><ele>116.25</ele><time>2026-04-18T10:05:36.577Z</time></trkpt><trkpt lat="43.4461536" lon="10.7928392"><ele>119.5</ele><time>2026-04-18T10:05:37.576Z</time></trkpt><trkpt lat="43.4460283" lon="10.7929358"><ele>122.75</ele><time>2026-04-18T10:05:38.575Z</time></trkpt><trkpt lat="43.4459173" lon="10.7930301"><ele>126.0</ele><time>2026-04-18T10:05:39.577Z</time></trkpt><trkpt lat="43.4457987" lon="10.7931403"><ele>126.0</ele><time>2026-04-18T10:05:40.574Z</time></trkpt><trkpt lat="43.4456886" lon="10.7932407"><ele>126.0</ele><time>2026-04-18T10:05:41.573Z</time></trkpt><trkpt lat="43.4455913" lon="10.7933261"><ele>126.0</ele><time>2026-04-18T10:05:42.575Z</time></trkpt><trkpt lat="43.4454851" lon="10.7934116"><ele>126.0</ele><time>2026-04-18T10:05:43.574Z</time></trkpt><trkpt lat="43.4453743" lon="10.7934788"><ele>128.0</ele><time>2026-04-18T10:05:44.573Z</time></trkpt><trkpt lat="43.4452626" lon="10.7935494"><ele>130.0</ele><time>2026-04-18T10:05:45.577Z</time></trkpt><trkpt lat="43.4451426" lon="10.7936216"><ele>132.0</ele><time>2026-04-18T10:05:46.587Z</time></trkpt><trkpt lat="43.4450117" lon="10.7936912"><ele>134.0</ele><time>2026-04-18T10:05:47.577Z</time></trkpt><trkpt lat="43.4448869" lon="10.793766"><ele>134.0</ele><time>2026-04-18T10:05:48.583Z</time></trkpt><trkpt lat="43.4447805" lon="10.7938303"><ele>134.0</ele><time>2026-04-18T10:05:49.581Z</time></trkpt><trkpt lat="43.4446599" lon="10.7939147"><ele>134.0</ele><time>2026-04-18T10:05:50.577Z</time></trkpt><trkpt lat="43.444551" lon="10.7940019"><ele>134.0</ele><time>2026-04-18T10:05:51.574Z</time></trkpt><trkpt lat="43.4444639" lon="10.7940711"><ele>136.4</ele><time>2026-04-18T10:05:52.584Z</time></trkpt><trkpt lat="43.4443757" lon="10.7941447"><ele>138.8</ele><time>2026-04-18T10:05:53.575Z</time></trkpt><trkpt lat="43.4442996" lon="10.7942402"><ele>141.2</ele><time>2026-04-18T10:05:54.575Z</time></trkpt><trkpt lat="43.4442227" lon="10.7943496"><ele>143.6</ele><time>2026-04-18T10:05:55.575Z</time></trkpt><trkpt lat="43.4441675" lon="10.7944786"><ele>146.0</ele><time>2026-04-18T10:05:56.572Z</time></trkpt><trkpt lat="43.4441175" lon="10.7946212"><ele>147.25</ele><time>2026-04-18T10:05:57.577Z</time></trkpt><trkpt lat="43.4440885" lon="10.7947719"><ele>148.5</ele><time>2026-04-18T10:05:58.568Z</time></trkpt><trkpt lat="43.444079" lon="10.79495"><ele>149.75</ele><time>2026-04-18T10:05:59.572Z</time></trkpt><trkpt lat="43.4440749" lon="10.7951292"><ele>151.0</ele><time>2026-04-18T10:06:00.578Z</time></trkpt><trkpt lat="43.4440793" lon="10.7952924"><ele>152.16666666666669</ele><time>2026-04-18T10:06:01.568Z</time></trkpt><trkpt lat="43.4440862" lon="10.7954346"><ele>153.33333333333334</ele><time>2026-04-18T10:06:02.574Z</time></trkpt><trkpt lat="43.4440805" lon="10.7955566"><ele>154.5</ele><time>2026-04-18T10:06:03.573Z</time></trkpt><trkpt lat="43.4440659" lon="10.7956636"><ele>155.66666666666666</ele><time>2026-04-18T10:06:04.567Z</time></trkpt><trkpt lat="43.4440531" lon="10.79577"><ele>156.83333333333331</ele><time>2026-04-18T10:06:05.564Z</time></trkpt><trkpt lat="43.4440165" lon="10.7958567"><ele>158.0</ele><time>2026-04-18T10:06:06.565Z</time></trkpt><trkpt lat="43.4439805" lon="10.7959375"><ele>159.33333333333331</ele><time>2026-04-18T10:06:07.574Z</time></trkpt><trkpt lat="43.4439587" lon="10.7960246"><ele>160.66666666666666</ele><time>2026-04-18T10:06:08.56Z</time></trkpt><trkpt lat="43.4439472" lon="10.7961168"><ele>162.0</ele><time>2026-04-18T10:06:09.569Z</time></trkpt><trkpt lat="43.443994" lon="10.7962121"><ele>163.33333333333334</ele><time>2026-04-18T10:06:10.559Z</time></trkpt><trkpt lat="43.444056" lon="10.7963003"><ele>164.66666666666669</ele><time>2026-04-18T10:06:11.562Z</time></trkpt><trkpt lat="43.4441103" lon="10.796405"><ele>166.0</ele><time>2026-04-18T10:06:12.561Z</time></trkpt><trkpt lat="43.4441539" lon="10.7965291"><ele>166.0</ele><time>2026-04-18T10:06:13.563Z</time></trkpt><trkpt lat="43.4441855" lon="10.7966812"><ele>166.0</ele><time>2026-04-18T10:06:14.573Z</time></trkpt><trkpt lat="43.4442185" lon="10.7968185"><ele>166.0</ele><time>2026-04-18T10:06:15.576Z</time></trkpt><trkpt lat="43.4442536" lon="10.7969603"><ele>166.0</ele><time>2026-04-18T10:06:16.573Z</time></trkpt><trkpt lat="43.444282" lon="10.7970917"><ele>166.0</ele><time>2026-04-18T10:06:17.587Z</time></trkpt><trkpt lat="43.4443041" lon="10.7972115"><ele>166.0</ele><time>2026-04-18T10:06:18.572Z</time></trkpt><trkpt lat="43.444328" lon="10.7973325"><ele>166.0</ele><time>2026-04-18T10:06:19.576Z</time></trkpt><trkpt lat="43.4443594" lon="10.7974468"><ele>166.0</ele><time>2026-04-18T10:06:20.568Z</time></trkpt><trkpt lat="43.4444024" lon="10.7975589"><ele>166.0</ele><time>2026-04-18T10:06:21.567Z</time></trkpt><trkpt lat="43.4444593" lon="10.7976547"><ele>166.0</ele><time>2026-04-18T10:06:22.573Z</time></trkpt><trkpt lat="43.4445417" lon="10.7977499"><ele>166.0</ele><time>2026-04-18T10:06:23.573Z</time></trkpt><trkpt lat="43.444627" lon="10.7978342"><ele>166.0</ele><time>2026-04-18T10:06:24.575Z</time></trkpt><trkpt lat="43.4447196" lon="10.7979217"><ele>166.0</ele><time>2026-04-18T10:06:25.577Z</time></trkpt><trkpt lat="43.4448156" lon="10.7979966"><ele>166.0</ele><time>2026-04-18T10:06:26.567Z</time></trkpt><trkpt lat="43.4448969" lon="10.7980553"><ele>166.0</ele><time>2026-04-18T10:06:27.58Z</time></trkpt><trkpt lat="43.4449741" lon="10.7981069"><ele>167.33333333333334</ele><time>2026-04-18T10:06:28.576Z</time></trkpt><trkpt lat="43.4450415" lon="10.7981668"><ele>168.66666666666669</ele><time>2026-04-18T10:06:29.576Z</time></trkpt><trkpt lat="43.4451099" lon="10.7981838"><ele>170.0</ele><time>2026-04-18T10:06:30.579Z</time></trkpt><trkpt lat="43.4451929" lon="10.7981878"><ele>171.33333333333334</ele><time>2026-04-18T10:06:31.576Z</time></trkpt><trkpt lat="43.4452764" lon="10.7981822"><ele>172.66666666666666</ele><time>2026-04-18T10:06:32.576Z</time></trkpt><trkpt lat="43.4453521" lon="10.7981629"><ele>174.0</ele><time>2026-04-18T10:06:33.575Z</time></trkpt><trkpt lat="43.445437" lon="10.7981601"><ele>174.0</ele><time>2026-04-18T10:06:34.566Z</time></trkpt><trkpt lat="43.4455332" lon="10.7981769"><ele>174.0</ele><time>2026-04-18T10:06:35.561Z</time></trkpt><trkpt lat="43.4456257" lon="10.7982088"><ele>174.0</ele><time>2026-04-18T10:06:36.561Z</time></trkpt><trkpt lat="43.4457125" lon="10.7982615"><ele>174.0</ele><time>2026-04-18T10:06:37.563Z</time></trkpt><trkpt lat="43.4458049" lon="10.7983239"><ele>174.0</ele><time>2026-04-18T10:06:38.576Z</time></trkpt><trkpt lat="43.4458888" lon="10.7983832"><ele>174.0</ele><time>2026-04-18T10:06:39.569Z</time></trkpt><trkpt lat="43.4459762" lon="10.7984206"><ele>174.0</ele><time>2026-04-18T10:06:40.571Z</time></trkpt><trkpt lat="43.446056" lon="10.7984417"><ele>174.0</ele><time>2026-04-18T10:06:41.564Z</time></trkpt><trkpt lat="43.4461192" lon="10.7984507"><ele>174.0</ele><time>2026-04-18T10:06:42.572Z</time></trkpt><trkpt lat="43.4461834" lon="10.7984537"><ele>174.0</ele><time>2026-04-18T10:06:43.576Z</time></trkpt><trkpt lat="43.4462466" lon="10.7984559"><ele>174.0</ele><time>2026-04-18T10:06:44.582Z</time></trkpt><trkpt lat="43.4463296" lon="10.7984993"><ele>172.39999999999998</ele><time>2026-04-18T10:06:46.569Z</time></trkpt><trkpt lat="43.446327" lon="10.7986322"><ele>170.8</ele><time>2026-04-18T10:06:48.578Z</time></trkpt><trkpt lat="43.4462864" lon="10.7987079"><ele>169.2</ele><time>2026-04-18T10:06:49.567Z</time></trkpt><trkpt lat="43.4462312" lon="10.7988042"><ele>167.60000000000002</ele><time>2026-04-18T10:06:50.572Z</time></trkpt><trkpt lat="43.4461709" lon="10.7989247"><ele>166.0</ele><time>2026-04-18T10:06:51.566Z</time></trkpt><trkpt lat="43.4461091" lon="10.7990689"><ele>170.25</ele><time>2026-04-18T10:06:52.571Z</time></trkpt><trkpt lat="43.4460382" lon="10.7992501"><ele>174.5</ele><time>2026-04-18T10:06:53.57Z</time></trkpt><trkpt lat="43.4459692" lon="10.7994272"><ele>178.75</ele><time>2026-04-18T10:06:54.571Z</time></trkpt><trkpt lat="43.4459079" lon="10.7995759"><ele>183.0</ele><time>2026-04-18T10:06:55.572Z</time></trkpt><trkpt lat="43.4458465" lon="10.7997181"><ele>183.8</ele><time>2026-04-18T10:06:56.565Z</time></trkpt><trkpt lat="43.4457881" lon="10.7998415"><ele>184.60000000000002</ele><time>2026-04-18T10:06:57.565Z</time></trkpt><trkpt lat="43.4457112" lon="10.7999565"><ele>185.39999999999998</ele><time>2026-04-18T10:06:58.561Z</time></trkpt><trkpt lat="43.4456529" lon="10.8000896"><ele>186.2</ele><time>2026-04-18T10:06:59.553Z</time></trkpt><trkpt lat="43.4456202" lon="10.8002157"><ele>187.0</ele><time>2026-04-18T10:07:00.558Z</time></trkpt><trkpt lat="43.4456113" lon="10.8003584"><ele>186.75</ele><time>2026-04-18T10:07:01.553Z</time></trkpt><trkpt lat="43.4456245" lon="10.800502"><ele>186.5</ele><time>2026-04-18T10:07:02.56Z</time></trkpt><trkpt lat="43.4456574" lon="10.8006663"><ele>186.25</ele><time>2026-04-18T10:07:03.552Z</time></trkpt><trkpt lat="43.4457103" lon="10.8008457"><ele>186.0</ele><time>2026-04-18T10:07:04.555Z</time></trkpt><trkpt lat="43.4457644" lon="10.8010499"><ele>186.0</ele><time>2026-04-18T10:07:05.556Z</time></trkpt><trkpt lat="43.4458578" lon="10.8013173"><ele>186.0</ele><time>2026-04-18T10:07:06.558Z</time></trkpt><trkpt lat="43.4459544" lon="10.8015444"><ele>186.0</ele><time>2026-04-18T10:07:07.552Z</time></trkpt><trkpt lat="43.4460256" lon="10.801721"><ele>184.75</ele><time>2026-04-18T10:07:08.572Z</time></trkpt><trkpt lat="43.4460821" lon="10.8018922"><ele>183.5</ele><time>2026-04-18T10:07:09.564Z</time></trkpt><trkpt lat="43.4461204" lon="10.8020519"><ele>182.25</ele><time>2026-04-18T10:07:10.567Z</time></trkpt><trkpt lat="43.4461767" lon="10.802211"><ele>181.0</ele><time>2026-04-18T10:07:11.57Z</time></trkpt><trkpt lat="43.4462446" lon="10.8023583"><ele>185.0</ele><time>2026-04-18T10:07:12.565Z</time></trkpt><trkpt lat="43.4463262" lon="10.802504"><ele>189.0</ele><time>2026-04-18T10:07:13.57Z</time></trkpt><trkpt lat="43.4464464" lon="10.8026915"><ele>193.0</ele><time>2026-04-18T10:07:14.573Z</time></trkpt><trkpt lat="43.4465708" lon="10.8028471"><ele>193.16666666666666</ele><time>2026-04-18T10:07:15.565Z</time></trkpt><trkpt lat="43.4466555" lon="10.8029837"><ele>193.33333333333331</ele><time>2026-04-18T10:07:16.574Z</time></trkpt><trkpt lat="43.4467102" lon="10.8030834"><ele>193.5</ele><time>2026-04-18T10:07:17.568Z</time></trkpt><trkpt lat="43.4467549" lon="10.8031567"><ele>193.66666666666669</ele><time>2026-04-18T10:07:18.57Z</time></trkpt><trkpt lat="43.4468102" lon="10.8032152"><ele>193.83333333333334</ele><time>2026-04-18T10:07:19.581Z</time></trkpt><trkpt lat="43.4468546" lon="10.8032889"><ele>194.0</ele><time>2026-04-18T10:07:20.569Z</time></trkpt><trkpt lat="43.4468792" lon="10.8033863"><ele>194.0</ele><time>2026-04-18T10:07:21.572Z</time></trkpt><trkpt lat="43.4468674" lon="10.8034755"><ele>194.0</ele><time>2026-04-18T10:07:22.571Z</time></trkpt><trkpt lat="43.4468836" lon="10.8035909"><ele>194.0</ele><time>2026-04-18T10:07:23.566Z</time></trkpt><trkpt lat="43.4468851" lon="10.8037113"><ele>194.0</ele><time>2026-04-18T10:07:24.561Z</time></trkpt><trkpt lat="43.4468584" lon="10.8038434"><ele>194.0</ele><time>2026-04-18T10:07:25.554Z</time></trkpt><trkpt lat="43.4468091" lon="10.8039879"><ele>193.0</ele><time>2026-04-18T10:07:26.562Z</time></trkpt><trkpt lat="43.4467399" lon="10.8041319"><ele>192.0</ele><time>2026-04-18T10:07:27.569Z</time></trkpt><trkpt lat="43.4466665" lon="10.8042714"><ele>191.0</ele><time>2026-04-18T10:07:28.565Z</time></trkpt><trkpt lat="43.4466123" lon="10.8044351"><ele>190.0</ele><time>2026-04-18T10:07:29.577Z</time></trkpt><trkpt lat="43.4465593" lon="10.8045933"><ele>189.0</ele><time>2026-04-18T10:07:30.577Z</time></trkpt><trkpt lat="43.4464994" lon="10.8047537"><ele>188.0</ele><time>2026-04-18T10:07:31.571Z</time></trkpt><trkpt lat="43.4464449" lon="10.8049256"><ele>187.0</ele><time>2026-04-18T10:07:32.572Z</time></trkpt><trkpt lat="43.4463901" lon="10.805103"><ele>186.0</ele><time>2026-04-18T10:07:33.576Z</time></trkpt><trkpt lat="43.4463255" lon="10.8052777"><ele>184.0</ele><time>2026-04-18T10:07:34.576Z</time></trkpt><trkpt lat="43.4462765" lon="10.805449"><ele>182.0</ele><time>2026-04-18T10:07:35.574Z</time></trkpt><trkpt lat="43.446216" lon="10.8056218"><ele>180.0</ele><time>2026-04-18T10:07:36.582Z</time></trkpt><trkpt lat="43.4461504" lon="10.8057845"><ele>178.0</ele><time>2026-04-18T10:07:37.576Z</time></trkpt><trkpt lat="43.4460855" lon="10.805961"><ele>180.5</ele><time>2026-04-18T10:07:38.576Z</time></trkpt><trkpt lat="43.4460264" lon="10.8061303"><ele>183.0</ele><time>2026-04-18T10:07:39.576Z</time></trkpt><trkpt lat="43.4459814" lon="10.8063153"><ele>185.5</ele><time>2026-04-18T10:07:40.569Z</time></trkpt><trkpt lat="43.4459655" lon="10.8065063"><ele>188.0</ele><time>2026-04-18T10:07:41.569Z</time></trkpt><trkpt lat="43.4459698" lon="10.8067184"><ele>187.33333333333331</ele><time>2026-04-18T10:07:42.563Z</time></trkpt><trkpt lat="43.445974" lon="10.8069366"><ele>186.66666666666666</ele><time>2026-04-18T10:07:43.565Z</time></trkpt><trkpt lat="43.4459769" lon="10.8071687"><ele>186.0</ele><time>2026-04-18T10:07:44.563Z</time></trkpt><trkpt lat="43.4459597" lon="10.8074018"><ele>186.0</ele><time>2026-04-18T10:07:45.554Z</time></trkpt><trkpt lat="43.4459597" lon="10.8075766"><ele>186.0</ele><time>2026-04-18T10:07:46.561Z</time></trkpt><trkpt lat="43.4459553" lon="10.8077263"><ele>186.0</ele><time>2026-04-18T10:07:47.557Z</time></trkpt><trkpt lat="43.4459494" lon="10.807866"><ele>186.0</ele><time>2026-04-18T10:07:48.559Z</time></trkpt><trkpt lat="43.4459562" lon="10.8080144"><ele>186.0</ele><time>2026-04-18T10:07:49.558Z</time></trkpt><trkpt lat="43.4459584" lon="10.8081722"><ele>186.60000000000002</ele><time>2026-04-18T10:07:50.58Z</time></trkpt><trkpt lat="43.4459637" lon="10.8083018"><ele>187.2</ele><time>2026-04-18T10:07:51.552Z</time></trkpt><trkpt lat="43.4459598" lon="10.8084161"><ele>187.8</ele><time>2026-04-18T10:07:52.557Z</time></trkpt><trkpt lat="43.4459306" lon="10.8085447"><ele>188.39999999999998</ele><time>2026-04-18T10:07:53.551Z</time></trkpt><trkpt lat="43.445892" lon="10.8086713"><ele>189.0</ele><time>2026-04-18T10:07:54.549Z</time></trkpt><trkpt lat="43.4458326" lon="10.8087954"><ele>189.0</ele><time>2026-04-18T10:07:55.549Z</time></trkpt><trkpt lat="43.4457683" lon="10.8089166"><ele>189.0</ele><time>2026-04-18T10:07:56.55Z</time></trkpt><trkpt lat="43.4456864" lon="10.8090339"><ele>189.0</ele><time>2026-04-18T10:07:57.557Z</time></trkpt><trkpt lat="43.4455928" lon="10.8091607"><ele>189.0</ele><time>2026-04-18T10:07:58.55Z</time></trkpt><trkpt lat="43.4455004" lon="10.8092938"><ele>189.79999999999998</ele><time>2026-04-18T10:07:59.553Z</time></trkpt><trkpt lat="43.4454227" lon="10.8093944"><ele>190.6</ele><time>2026-04-18T10:08:00.562Z</time></trkpt><trkpt lat="43.4453509" lon="10.8095084"><ele>191.4</ele><time>2026-04-18T10:08:01.562Z</time></trkpt><trkpt lat="43.445278" lon="10.8096152"><ele>192.2</ele><time>2026-04-18T10:08:02.564Z</time></trkpt><trkpt lat="43.445205" lon="10.809704"><ele>193.0</ele><time>2026-04-18T10:08:03.563Z</time></trkpt><trkpt lat="43.4451231" lon="10.8098108"><ele>193.0</ele><time>2026-04-18T10:08:04.566Z</time></trkpt><trkpt lat="43.445012" lon="10.8099016"><ele>193.0</ele><time>2026-04-18T10:08:05.563Z</time></trkpt><trkpt lat="43.4448886" lon="10.8100006"><ele>193.0</ele><time>2026-04-18T10:08:06.567Z</time></trkpt><trkpt lat="43.4447846" lon="10.810079"><ele>193.0</ele><time>2026-04-18T10:08:07.572Z</time></trkpt><trkpt lat="43.4446949" lon="10.8101393"><ele>190.8</ele><time>2026-04-18T10:08:08.567Z</time></trkpt><trkpt lat="43.4446058" lon="10.8101961"><ele>188.60000000000002</ele><time>2026-04-18T10:08:09.572Z</time></trkpt><trkpt lat="43.4445102" lon="10.8102406"><ele>186.39999999999998</ele><time>2026-04-18T10:08:10.566Z</time></trkpt><trkpt lat="43.4444029" lon="10.8102802"><ele>184.2</ele><time>2026-04-18T10:08:11.576Z</time></trkpt><trkpt lat="43.4443017" lon="10.8103095"><ele>182.0</ele><time>2026-04-18T10:08:12.575Z</time></trkpt><trkpt lat="43.4442089" lon="10.8103218"><ele>182.0</ele><time>2026-04-18T10:08:13.567Z</time></trkpt><trkpt lat="43.4440975" lon="10.8103166"><ele>182.0</ele><time>2026-04-18T10:08:14.573Z</time></trkpt><trkpt lat="43.4439779" lon="10.8102961"><ele>182.0</ele><time>2026-04-18T10:08:15.573Z</time></trkpt><trkpt lat="43.4438547" lon="10.8102641"><ele>182.0</ele><time>2026-04-18T10:08:16.57Z</time></trkpt><trkpt lat="43.4437256" lon="10.8102113"><ele>184.25</ele><time>2026-04-18T10:08:17.569Z</time></trkpt><trkpt lat="43.4435987" lon="10.8101285"><ele>186.5</ele><time>2026-04-18T10:08:18.573Z</time></trkpt><trkpt lat="43.44347" lon="10.8100289"><ele>188.75</ele><time>2026-04-18T10:08:19.576Z</time></trkpt><trkpt lat="43.4433461" lon="10.809928"><ele>191.0</ele><time>2026-04-18T10:08:20.588Z</time></trkpt><trkpt lat="43.4432353" lon="10.8098705"><ele>191.0</ele><time>2026-04-18T10:08:21.58Z</time></trkpt><trkpt lat="43.4431259" lon="10.8098048"><ele>191.0</ele><time>2026-04-18T10:08:22.581Z</time></trkpt><trkpt lat="43.4430096" lon="10.8097277"><ele>191.0</ele><time>2026-04-18T10:08:23.579Z</time></trkpt><trkpt lat="43.4428953" lon="10.8096422"><ele>191.0</ele><time>2026-04-18T10:08:24.58Z</time></trkpt><trkpt lat="43.4427806" lon="10.8095605"><ele>189.75</ele><time>2026-04-18T10:08:25.58Z</time></trkpt><trkpt lat="43.4426626" lon="10.8094825"><ele>188.5</ele><time>2026-04-18T10:08:26.581Z</time></trkpt><trkpt lat="43.442549" lon="10.8094018"><ele>187.25</ele><time>2026-04-18T10:08:27.585Z</time></trkpt><trkpt lat="43.4424388" lon="10.8093054"><ele>186.0</ele><time>2026-04-18T10:08:28.577Z</time></trkpt><trkpt lat="43.4423395" lon="10.8092192"><ele>187.4</ele><time>2026-04-18T10:08:29.576Z</time></trkpt><trkpt lat="43.4422511" lon="10.8091423"><ele>188.8</ele><time>2026-04-18T10:08:30.581Z</time></trkpt><trkpt lat="43.4421625" lon="10.8090753"><ele>190.20000000000002</ele><time>2026-04-18T10:08:31.573Z</time></trkpt><trkpt lat="43.4420645" lon="10.8090274"><ele>191.60000000000002</ele><time>2026-04-18T10:08:32.573Z</time></trkpt><trkpt lat="43.4419552" lon="10.8089814"><ele>193.0</ele><time>2026-04-18T10:08:33.57Z</time></trkpt><trkpt lat="43.4418433" lon="10.8089597"><ele>192.99999999999997</ele><time>2026-04-18T10:08:34.568Z</time></trkpt><trkpt lat="43.4417452" lon="10.8089475"><ele>193.0</ele><time>2026-04-18T10:08:35.572Z</time></trkpt><trkpt lat="43.4416549" lon="10.8089588"><ele>193.0</ele><time>2026-04-18T10:08:36.561Z</time></trkpt><trkpt lat="43.4415825" lon="10.8089762"><ele>193.0</ele><time>2026-04-18T10:08:37.571Z</time></trkpt><trkpt lat="43.4415164" lon="10.8090113"><ele>192.99999999999997</ele><time>2026-04-18T10:08:38.565Z</time></trkpt><trkpt lat="43.4414386" lon="10.8090534"><ele>193.0</ele><time>2026-04-18T10:08:39.564Z</time></trkpt><trkpt lat="43.4413626" lon="10.809121"><ele>192.8</ele><time>2026-04-18T10:08:40.57Z</time></trkpt><trkpt lat="43.44128" lon="10.8091951"><ele>192.60000000000002</ele><time>2026-04-18T10:08:41.57Z</time></trkpt><trkpt lat="43.4411943" lon="10.8092791"><ele>192.39999999999998</ele><time>2026-04-18T10:08:42.577Z</time></trkpt><trkpt lat="43.4411233" lon="10.8093596"><ele>192.2</ele><time>2026-04-18T10:08:43.569Z</time></trkpt><trkpt lat="43.4410459" lon="10.8094465"><ele>192.0</ele><time>2026-04-18T10:08:44.57Z</time></trkpt><trkpt lat="43.4409629" lon="10.809539"><ele>192.0</ele><time>2026-04-18T10:08:45.562Z</time></trkpt><trkpt lat="43.4408826" lon="10.809648"><ele>192.0</ele><time>2026-04-18T10:08:46.558Z</time></trkpt><trkpt lat="43.4408032" lon="10.8097724"><ele>192.0</ele><time>2026-04-18T10:08:47.561Z</time></trkpt><trkpt lat="43.4407152" lon="10.8099156"><ele>192.0</ele><time>2026-04-18T10:08:48.561Z</time></trkpt><trkpt lat="43.4406284" lon="10.8100642"><ele>190.75</ele><time>2026-04-18T10:08:49.563Z</time></trkpt><trkpt lat="43.440546" lon="10.8102094"><ele>189.5</ele><time>2026-04-18T10:08:50.566Z</time></trkpt><trkpt lat="43.4404731" lon="10.8103532"><ele>188.25</ele><time>2026-04-18T10:08:51.582Z</time></trkpt><trkpt lat="43.4404064" lon="10.8105014"><ele>187.0</ele><time>2026-04-18T10:08:52.57Z</time></trkpt><trkpt lat="43.4403464" lon="10.8106625"><ele>187.0</ele><time>2026-04-18T10:08:53.569Z</time></trkpt><trkpt lat="43.4402928" lon="10.8108393"><ele>187.0</ele><time>2026-04-18T10:08:54.563Z</time></trkpt><trkpt lat="43.4402374" lon="10.8110139"><ele>187.0</ele><time>2026-04-18T10:08:55.566Z</time></trkpt><trkpt lat="43.4401897" lon="10.8111939"><ele>187.0</ele><time>2026-04-18T10:08:56.574Z</time></trkpt><trkpt lat="43.4401561" lon="10.8113864"><ele>189.25</ele><time>2026-04-18T10:08:57.574Z</time></trkpt><trkpt lat="43.4401246" lon="10.811582"><ele>191.5</ele><time>2026-04-18T10:08:58.575Z</time></trkpt><trkpt lat="43.4400922" lon="10.811767"><ele>193.75</ele><time>2026-04-18T10:08:59.576Z</time></trkpt><trkpt lat="43.4400658" lon="10.8119553"><ele>196.0</ele><time>2026-04-18T10:09:00.569Z</time></trkpt><trkpt lat="43.4400399" lon="10.8121294"><ele>196.60000000000002</ele><time>2026-04-18T10:09:01.571Z</time></trkpt><trkpt lat="43.4400116" lon="10.812281"><ele>197.2</ele><time>2026-04-18T10:09:02.568Z</time></trkpt><trkpt lat="43.439979" lon="10.8124297"><ele>197.8</ele><time>2026-04-18T10:09:03.567Z</time></trkpt><trkpt lat="43.4399627" lon="10.8125905"><ele>198.39999999999998</ele><time>2026-04-18T10:09:04.566Z</time></trkpt><trkpt lat="43.4399427" lon="10.8127241"><ele>199.0</ele><time>2026-04-18T10:09:05.558Z</time></trkpt><trkpt lat="43.4399268" lon="10.8128452"><ele>199.0</ele><time>2026-04-18T10:09:06.562Z</time></trkpt><trkpt lat="43.439935" lon="10.8129871"><ele>199.0</ele><time>2026-04-18T10:09:07.554Z</time></trkpt><trkpt lat="43.4399554" lon="10.8131452"><ele>199.0</ele><time>2026-04-18T10:09:08.563Z</time></trkpt><trkpt lat="43.4400143" lon="10.8133238"><ele>199.0</ele><time>2026-04-18T10:09:09.559Z</time></trkpt><trkpt lat="43.4400707" lon="10.8134913"><ele>198.6</ele><time>2026-04-18T10:09:10.554Z</time></trkpt><trkpt lat="43.4401232" lon="10.8136307"><ele>198.2</ele><time>2026-04-18T10:09:11.55Z</time></trkpt><trkpt lat="43.4401688" lon="10.8137436"><ele>197.79999999999998</ele><time>2026-04-18T10:09:12.551Z</time></trkpt><trkpt lat="43.4401981" lon="10.8138287"><ele>197.39999999999998</ele><time>2026-04-18T10:09:13.561Z</time></trkpt><trkpt lat="43.4402108" lon="10.8139238"><ele>197.0</ele><time>2026-04-18T10:09:14.561Z</time></trkpt><trkpt lat="43.4401679" lon="10.8140595"><ele>197.0</ele><time>2026-04-18T10:09:16.569Z</time></trkpt><trkpt lat="43.4401157" lon="10.8141238"><ele>197.0</ele><time>2026-04-18T10:09:17.555Z</time></trkpt><trkpt lat="43.4400414" lon="10.8141682"><ele>197.0</ele><time>2026-04-18T10:09:18.583Z</time></trkpt><trkpt lat="43.43995" lon="10.8141717"><ele>197.0</ele><time>2026-04-18T10:09:19.574Z</time></trkpt><trkpt lat="43.4398414" lon="10.8141434"><ele>197.0</ele><time>2026-04-18T10:09:20.561Z</time></trkpt><trkpt lat="43.4397179" lon="10.8141051"><ele>195.5</ele><time>2026-04-18T10:09:21.568Z</time></trkpt><trkpt lat="43.4395841" lon="10.8140609"><ele>194.0</ele><time>2026-04-18T10:09:22.586Z</time></trkpt><trkpt lat="43.4394501" lon="10.8140196"><ele>192.5</ele><time>2026-04-18T10:09:23.576Z</time></trkpt><trkpt lat="43.4393254" lon="10.8139889"><ele>191.0</ele><time>2026-04-18T10:09:24.572Z</time></trkpt><trkpt lat="43.4392078" lon="10.8139774"><ele>191.0</ele><time>2026-04-18T10:09:25.58Z</time></trkpt><trkpt lat="43.4390829" lon="10.8139721"><ele>191.0</ele><time>2026-04-18T10:09:26.579Z</time></trkpt><trkpt lat="43.4389535" lon="10.8139758"><ele>191.0</ele><time>2026-04-18T10:09:27.587Z</time></trkpt><trkpt lat="43.4388291" lon="10.8139972"><ele>191.0</ele><time>2026-04-18T10:09:28.575Z</time></trkpt><trkpt lat="43.4387207" lon="10.8140273"><ele>191.75</ele><time>2026-04-18T10:09:29.566Z</time></trkpt><trkpt lat="43.4386128" lon="10.814075"><ele>192.5</ele><time>2026-04-18T10:09:30.568Z</time></trkpt><trkpt lat="43.4385121" lon="10.8141506"><ele>193.25</ele><time>2026-04-18T10:09:31.553Z</time></trkpt><trkpt lat="43.4384094" lon="10.8142508"><ele>194.0</ele><time>2026-04-18T10:09:32.568Z</time></trkpt><trkpt lat="43.4383101" lon="10.814372"><ele>194.25</ele><time>2026-04-18T10:09:33.57Z</time></trkpt><trkpt lat="43.4382073" lon="10.8144924"><ele>194.5</ele><time>2026-04-18T10:09:34.576Z</time></trkpt><trkpt lat="43.438102" lon="10.8146029"><ele>194.75</ele><time>2026-04-18T10:09:35.566Z</time></trkpt><trkpt lat="43.4379977" lon="10.8147028"><ele>195.0</ele><time>2026-04-18T10:09:36.563Z</time></trkpt><trkpt lat="43.437903" lon="10.8147931"><ele>195.0</ele><time>2026-04-18T10:09:37.562Z</time></trkpt><trkpt lat="43.4378189" lon="10.8148792"><ele>195.0</ele><time>2026-04-18T10:09:38.562Z</time></trkpt><trkpt lat="43.4377419" lon="10.8149508"><ele>195.0</ele><time>2026-04-18T10:09:39.563Z</time></trkpt><trkpt lat="43.4376729" lon="10.8150309"><ele>195.0</ele><time>2026-04-18T10:09:40.563Z</time></trkpt><trkpt lat="43.4376172" lon="10.8151529"><ele>195.0</ele><time>2026-04-18T10:09:41.57Z</time></trkpt><trkpt lat="43.4375969" lon="10.815306"><ele>194.25</ele><time>2026-04-18T10:09:42.572Z</time></trkpt><trkpt lat="43.4375972" lon="10.8154763"><ele>193.5</ele><time>2026-04-18T10:09:43.556Z</time></trkpt><trkpt lat="43.4376151" lon="10.8156647"><ele>192.75</ele><time>2026-04-18T10:09:44.586Z</time></trkpt><trkpt lat="43.4376372" lon="10.8158422"><ele>192.0</ele><time>2026-04-18T10:09:45.572Z</time></trkpt><trkpt lat="43.4376596" lon="10.8160004"><ele>190.25</ele><time>2026-04-18T10:09:46.574Z</time></trkpt><trkpt lat="43.4376787" lon="10.8161512"><ele>188.5</ele><time>2026-04-18T10:09:47.574Z</time></trkpt><trkpt lat="43.4376984" lon="10.8162992"><ele>186.75</ele><time>2026-04-18T10:09:48.574Z</time></trkpt><trkpt lat="43.4377255" lon="10.8164535"><ele>185.0</ele><time>2026-04-18T10:09:49.575Z</time></trkpt><trkpt lat="43.437765" lon="10.8166028"><ele>185.0</ele><time>2026-04-18T10:09:50.578Z</time></trkpt><trkpt lat="43.4378131" lon="10.8167527"><ele>185.0</ele><time>2026-04-18T10:09:51.576Z</time></trkpt><trkpt lat="43.4378539" lon="10.8168997"><ele>185.0</ele><time>2026-04-18T10:09:52.575Z</time></trkpt><trkpt lat="43.437891" lon="10.8170493"><ele>185.0</ele><time>2026-04-18T10:09:53.59Z</time></trkpt><trkpt lat="43.4379235" lon="10.8172046"><ele>186.25</ele><time>2026-04-18T10:09:54.572Z</time></trkpt><trkpt lat="43.4379571" lon="10.8173701"><ele>187.5</ele><time>2026-04-18T10:09:55.572Z</time></trkpt><trkpt lat="43.437987" lon="10.8175419"><ele>188.75</ele><time>2026-04-18T10:09:56.573Z</time></trkpt><trkpt lat="43.4380166" lon="10.8177259"><ele>190.0</ele><time>2026-04-18T10:09:57.579Z</time></trkpt><trkpt lat="43.4380473" lon="10.8179253"><ele>190.75</ele><time>2026-04-18T10:09:58.576Z</time></trkpt><trkpt lat="43.4380855" lon="10.8181339"><ele>191.5</ele><time>2026-04-18T10:09:59.58Z</time></trkpt><trkpt lat="43.4381319" lon="10.8183151"><ele>192.25</ele><time>2026-04-18T10:10:00.572Z</time></trkpt><trkpt lat="43.4381633" lon="10.8185024"><ele>193.0</ele><time>2026-04-18T10:10:01.57Z</time></trkpt><trkpt lat="43.438179" lon="10.8186792"><ele>194.25</ele><time>2026-04-18T10:10:02.57Z</time></trkpt><trkpt lat="43.4381844" lon="10.8188322"><ele>195.5</ele><time>2026-04-18T10:10:03.569Z</time></trkpt><trkpt lat="43.4382022" lon="10.8189846"><ele>196.75</ele><time>2026-04-18T10:10:04.568Z</time></trkpt><trkpt lat="43.4382087" lon="10.8191384"><ele>198.0</ele><time>2026-04-18T10:10:05.568Z</time></trkpt><trkpt lat="43.4382172" lon="10.8192956"><ele>198.0</ele><time>2026-04-18T10:10:06.57Z</time></trkpt><trkpt lat="43.4382206" lon="10.8194535"><ele>198.0</ele><time>2026-04-18T10:10:07.57Z</time></trkpt><trkpt lat="43.4381954" lon="10.8195873"><ele>198.0</ele><time>2026-04-18T10:10:08.564Z</time></trkpt><trkpt lat="43.4381737" lon="10.8196864"><ele>198.0</ele><time>2026-04-18T10:10:09.564Z</time></trkpt><trkpt lat="43.4381448" lon="10.8197653"><ele>198.0</ele><time>2026-04-18T10:10:10.573Z</time></trkpt><trkpt lat="43.4380959" lon="10.8198344"><ele>198.0</ele><time>2026-04-18T10:10:11.566Z</time></trkpt><trkpt lat="43.4380134" lon="10.8199006"><ele>198.75</ele><time>2026-04-18T10:10:12.586Z</time></trkpt><trkpt lat="43.4378962" lon="10.8199536"><ele>199.5</ele><time>2026-04-18T10:10:13.569Z</time></trkpt><trkpt lat="43.437774" lon="10.8199951"><ele>200.25</ele><time>2026-04-18T10:10:14.572Z</time></trkpt><trkpt lat="43.4376565" lon="10.8200484"><ele>201.0</ele><time>2026-04-18T10:10:15.568Z</time></trkpt><trkpt lat="43.4375332" lon="10.8201247"><ele>200.33333333333331</ele><time>2026-04-18T10:10:16.563Z</time></trkpt><trkpt lat="43.4374076" lon="10.8202151"><ele>199.66666666666666</ele><time>2026-04-18T10:10:17.559Z</time></trkpt><trkpt lat="43.4372741" lon="10.8203298"><ele>199.0</ele><time>2026-04-18T10:10:18.569Z</time></trkpt><trkpt lat="43.4371392" lon="10.820423"><ele>201.5</ele><time>2026-04-18T10:10:19.572Z</time></trkpt><trkpt lat="43.4370092" lon="10.8205334"><ele>204.0</ele><time>2026-04-18T10:10:20.575Z</time></trkpt><trkpt lat="43.4368808" lon="10.8206388"><ele>206.5</ele><time>2026-04-18T10:10:21.579Z</time></trkpt><trkpt lat="43.4367512" lon="10.8207091"><ele>209.0</ele><time>2026-04-18T10:10:22.576Z</time></trkpt><trkpt lat="43.4366567" lon="10.8207777"><ele>209.0</ele><time>2026-04-18T10:10:23.571Z</time></trkpt><trkpt lat="43.4365655" lon="10.8208431"><ele>209.0</ele><time>2026-04-18T10:10:24.581Z</time></trkpt><trkpt lat="43.43647" lon="10.8208993"><ele>209.0</ele><time>2026-04-18T10:10:25.57Z</time></trkpt><trkpt lat="43.4363706" lon="10.8209481"><ele>209.0</ele><time>2026-04-18T10:10:26.573Z</time></trkpt><trkpt lat="43.4362741" lon="10.8210003"><ele>209.0</ele><time>2026-04-18T10:10:27.578Z</time></trkpt><trkpt lat="43.4361843" lon="10.8210623"><ele>209.2</ele><time>2026-04-18T10:10:28.573Z</time></trkpt><trkpt lat="43.4361035" lon="10.8211383"><ele>209.39999999999998</ele><time>2026-04-18T10:10:29.581Z</time></trkpt><trkpt lat="43.436018" lon="10.8212258"><ele>209.6</ele><time>2026-04-18T10:10:30.58Z</time></trkpt><trkpt lat="43.4359185" lon="10.8213062"><ele>209.8</ele><time>2026-04-18T10:10:31.575Z</time></trkpt><trkpt lat="43.4358073" lon="10.8213831"><ele>210.0</ele><time>2026-04-18T10:10:32.576Z</time></trkpt><trkpt lat="43.4357152" lon="10.8214515"><ele>210.0</ele><time>2026-04-18T10:10:33.57Z</time></trkpt><trkpt lat="43.4356237" lon="10.821511"><ele>210.0</ele><time>2026-04-18T10:10:34.572Z</time></trkpt><trkpt lat="43.4355371" lon="10.8215445"><ele>210.0</ele><time>2026-04-18T10:10:35.573Z</time></trkpt><trkpt lat="43.4354546" lon="10.8215712"><ele>210.0</ele><time>2026-04-18T10:10:36.569Z</time></trkpt><trkpt lat="43.435356" lon="10.821573"><ele>210.0</ele><time>2026-04-18T10:10:37.569Z</time></trkpt><trkpt lat="43.4352432" lon="10.8215357"><ele>212.5</ele><time>2026-04-18T10:10:38.568Z</time></trkpt><trkpt lat="43.4351167" lon="10.8214802"><ele>215.0</ele><time>2026-04-18T10:10:39.572Z</time></trkpt><trkpt lat="43.4350009" lon="10.8214484"><ele>217.5</ele><time>2026-04-18T10:10:40.57Z</time></trkpt><trkpt lat="43.4348846" lon="10.8214263"><ele>220.0</ele><time>2026-04-18T10:10:41.566Z</time></trkpt><trkpt lat="43.4347563" lon="10.8214004"><ele>220.0</ele><time>2026-04-18T10:10:42.566Z</time></trkpt><trkpt lat="43.4346465" lon="10.8213852"><ele>220.0</ele><time>2026-04-18T10:10:43.567Z</time></trkpt><trkpt lat="43.4345563" lon="10.8213775"><ele>220.0</ele><time>2026-04-18T10:10:44.563Z</time></trkpt><trkpt lat="43.4344755" lon="10.8213556"><ele>220.0</ele><time>2026-04-18T10:10:45.576Z</time></trkpt><trkpt lat="43.4343741" lon="10.8213392"><ele>220.0</ele><time>2026-04-18T10:10:47.566Z</time></trkpt><trkpt lat="43.4342978" lon="10.8213513"><ele>218.8</ele><time>2026-04-18T10:10:49.575Z</time></trkpt><trkpt lat="43.4341808" lon="10.8213117"><ele>217.6</ele><time>2026-04-18T10:10:51.58Z</time></trkpt><trkpt lat="43.4341135" lon="10.821262"><ele>216.39999999999998</ele><time>2026-04-18T10:10:52.575Z</time></trkpt><trkpt lat="43.4340383" lon="10.8212001"><ele>215.2</ele><time>2026-04-18T10:10:53.575Z</time></trkpt><trkpt lat="43.4339667" lon="10.8211375"><ele>214.0</ele><time>2026-04-18T10:10:54.575Z</time></trkpt><trkpt lat="43.4338882" lon="10.8210749"><ele>212.79999999999998</ele><time>2026-04-18T10:10:55.586Z</time></trkpt><trkpt lat="43.4337989" lon="10.8210054"><ele>211.59999999999997</ele><time>2026-04-18T10:10:56.573Z</time></trkpt><trkpt lat="43.4337066" lon="10.820946"><ele>210.4</ele><time>2026-04-18T10:10:57.574Z</time></trkpt><trkpt lat="43.433615" lon="10.8208912"><ele>209.2</ele><time>2026-04-18T10:10:58.575Z</time></trkpt><trkpt lat="43.4335238" lon="10.8208234"><ele>208.0</ele><time>2026-04-18T10:10:59.578Z</time></trkpt><trkpt lat="43.4334343" lon="10.8207536"><ele>210.66666666666666</ele><time>2026-04-18T10:11:00.581Z</time></trkpt><trkpt lat="43.4333467" lon="10.8206858"><ele>213.33333333333331</ele><time>2026-04-18T10:11:01.574Z</time></trkpt><trkpt lat="43.433271" lon="10.8206323"><ele>216.0</ele><time>2026-04-18T10:11:02.585Z</time></trkpt><trkpt lat="43.4332012" lon="10.8205949"><ele>218.66666666666669</ele><time>2026-04-18T10:11:03.575Z</time></trkpt><trkpt lat="43.4331325" lon="10.8205412"><ele>221.33333333333334</ele><time>2026-04-18T10:11:04.574Z</time></trkpt><trkpt lat="43.4330732" lon="10.8204958"><ele>224.0</ele><time>2026-04-18T10:11:05.572Z</time></trkpt><trkpt lat="43.4329856" lon="10.8203928"><ele>223.28571428571428</ele><time>2026-04-18T10:11:07.574Z</time></trkpt><trkpt lat="43.43293" lon="10.8203335"><ele>222.57142857142856</ele><time>2026-04-18T10:11:08.577Z</time></trkpt><trkpt lat="43.4328846" lon="10.8202713"><ele>221.85714285714286</ele><time>2026-04-18T10:11:09.578Z</time></trkpt><trkpt lat="43.4328283" lon="10.8202068"><ele>221.14285714285714</ele><time>2026-04-18T10:11:10.575Z</time></trkpt><trkpt lat="43.4327744" lon="10.8201399"><ele>220.42857142857142</ele><time>2026-04-18T10:11:11.574Z</time></trkpt><trkpt lat="43.4327146" lon="10.820059"><ele>219.71428571428572</ele><time>2026-04-18T10:11:12.572Z</time></trkpt><trkpt lat="43.4326775" lon="10.8199879"><ele>219.0</ele><time>2026-04-18T10:11:13.569Z</time></trkpt><trkpt lat="43.4326092" lon="10.8198798"><ele>219.0</ele><time>2026-04-18T10:11:15.567Z</time></trkpt><trkpt lat="43.4325632" lon="10.8197879"><ele>219.0</ele><time>2026-04-18T10:11:18.579Z</time></trkpt><trkpt lat="43.4325283" lon="10.8197145"><ele>219.0</ele><time>2026-04-18T10:13:04.576Z</time></trkpt><trkpt lat="43.4324778" lon="10.8196171"><ele>219.0</ele><time>2026-04-18T10:13:06.577Z</time></trkpt><trkpt lat="43.4324114" lon="10.8194761"><ele>219.0</ele><time>2026-04-18T10:13:08.576Z</time></trkpt><trkpt lat="43.4323692" lon="10.8193993"><ele>219.0</ele><time>2026-04-18T10:13:09.574Z</time></trkpt><trkpt lat="43.4323234" lon="10.8193245"><ele>218.5</ele><time>2026-04-18T10:13:10.579Z</time></trkpt><trkpt lat="43.4322791" lon="10.8192541"><ele>218.0</ele><time>2026-04-18T10:13:11.578Z</time></trkpt><trkpt lat="43.4322302" lon="10.8191795"><ele>217.5</ele><time>2026-04-18T10:13:12.578Z</time></trkpt><trkpt lat="43.4321805" lon="10.8191027"><ele>217.0</ele><time>2026-04-18T10:13:13.576Z</time></trkpt><trkpt lat="43.432115" lon="10.8190359"><ele>216.5</ele><time>2026-04-18T10:13:14.582Z</time></trkpt><trkpt lat="43.4320505" lon="10.8189705"><ele>216.0</ele><time>2026-04-18T10:13:15.577Z</time></trkpt><trkpt lat="43.4319864" lon="10.818898"><ele>214.66666666666666</ele><time>2026-04-18T10:13:16.578Z</time></trkpt><trkpt lat="43.4319197" lon="10.8188309"><ele>213.33333333333331</ele><time>2026-04-18T10:13:17.577Z</time></trkpt><trkpt lat="43.4318463" lon="10.8187574"><ele>212.0</ele><time>2026-04-18T10:13:18.577Z</time></trkpt><trkpt lat="43.4317766" lon="10.818702"><ele>210.66666666666666</ele><time>2026-04-18T10:13:19.579Z</time></trkpt><trkpt lat="43.4317122" lon="10.8186589"><ele>209.33333333333331</ele><time>2026-04-18T10:13:20.584Z</time></trkpt><trkpt lat="43.4316391" lon="10.8186281"><ele>208.0</ele><time>2026-04-18T10:13:21.581Z</time></trkpt><trkpt lat="43.4315654" lon="10.8185859"><ele>207.99999999999997</ele><time>2026-04-18T10:13:22.575Z</time></trkpt><trkpt lat="43.4314942" lon="10.8185287"><ele>208.0</ele><time>2026-04-18T10:13:23.579Z</time></trkpt><trkpt lat="43.4314281" lon="10.818454"><ele>208.0</ele><time>2026-04-18T10:13:24.58Z</time></trkpt><trkpt lat="43.4313655" lon="10.8183756"><ele>208.0</ele><time>2026-04-18T10:13:25.581Z</time></trkpt><trkpt lat="43.4313082" lon="10.8182948"><ele>207.99999999999997</ele><time>2026-04-18T10:13:26.582Z</time></trkpt><trkpt lat="43.431245" lon="10.8182183"><ele>208.0</ele><time>2026-04-18T10:13:27.583Z</time></trkpt><trkpt lat="43.4311737" lon="10.8181429"><ele>208.66666666666666</ele><time>2026-04-18T10:13:28.574Z</time></trkpt><trkpt lat="43.4311152" lon="10.8180873"><ele>209.33333333333331</ele><time>2026-04-18T10:13:29.577Z</time></trkpt><trkpt lat="43.4310624" lon="10.8180384"><ele>210.0</ele><time>2026-04-18T10:13:30.587Z</time></trkpt><trkpt lat="43.4309892" lon="10.8179843"><ele>210.66666666666669</ele><time>2026-04-18T10:13:31.577Z</time></trkpt><trkpt lat="43.4309195" lon="10.8179432"><ele>211.33333333333334</ele><time>2026-04-18T10:13:32.572Z</time></trkpt><trkpt lat="43.430849" lon="10.8178823"><ele>212.0</ele><time>2026-04-18T10:13:34.567Z</time></trkpt><trkpt lat="43.4309122" lon="10.8179655"><ele>212.00000000000003</ele><time>2026-04-18T10:28:39.595Z</time></trkpt><trkpt lat="43.4309812" lon="10.8180168"><ele>212.0</ele><time>2026-04-18T10:28:42.598Z</time></trkpt><trkpt lat="43.4310638" lon="10.8180686"><ele>212.0</ele><time>2026-04-18T10:28:45.598Z</time></trkpt><trkpt lat="43.4311408" lon="10.8181257"><ele>212.0</ele><time>2026-04-18T10:28:48.597Z</time></trkpt><trkpt lat="43.4312204" lon="10.8181894"><ele>212.00000000000003</ele><time>2026-04-18T10:28:50.587Z</time></trkpt><trkpt lat="43.4312752" lon="10.8182323"><ele>212.0</ele><time>2026-04-18T10:28:51.596Z</time></trkpt><trkpt lat="43.4313308" lon="10.8182981"><ele>211.2</ele><time>2026-04-18T10:28:52.593Z</time></trkpt><trkpt lat="43.4313757" lon="10.818367"><ele>210.39999999999998</ele><time>2026-04-18T10:28:53.59Z</time></trkpt><trkpt lat="43.4314515" lon="10.818493"><ele>209.60000000000002</ele><time>2026-04-18T10:28:55.597Z</time></trkpt><trkpt lat="43.4315465" lon="10.8186125"><ele>208.8</ele><time>2026-04-18T10:28:57.6Z</time></trkpt><trkpt lat="43.431635" lon="10.818667"><ele>208.0</ele><time>2026-04-18T10:28:59.595Z</time></trkpt><trkpt lat="43.4316622" lon="10.8185828"><ele>208.0</ele><time>2026-04-18T10:29:04.575Z</time></trkpt><trkpt lat="43.431582" lon="10.8185045"><ele>208.0</ele><time>2026-04-18T10:29:06.573Z</time></trkpt><trkpt lat="43.4315188" lon="10.8184405"><ele>208.0</ele><time>2026-04-18T10:29:07.577Z</time></trkpt><trkpt lat="43.4314447" lon="10.8183149"><ele>208.0</ele><time>2026-04-18T10:29:08.567Z</time></trkpt><trkpt lat="43.4313872" lon="10.8181826"><ele>208.0</ele><time>2026-04-18T10:29:09.56Z</time></trkpt><trkpt lat="43.4313399" lon="10.8180365"><ele>208.8</ele><time>2026-04-18T10:29:10.561Z</time></trkpt><trkpt lat="43.4313045" lon="10.8178872"><ele>209.60000000000002</ele><time>2026-04-18T10:29:11.572Z</time></trkpt><trkpt lat="43.4312711" lon="10.8177349"><ele>210.39999999999998</ele><time>2026-04-18T10:29:12.576Z</time></trkpt><trkpt lat="43.4312502" lon="10.8176045"><ele>211.2</ele><time>2026-04-18T10:29:13.581Z</time></trkpt><trkpt lat="43.4312189" lon="10.8174762"><ele>212.0</ele><time>2026-04-18T10:29:14.579Z</time></trkpt><trkpt lat="43.4311872" lon="10.8173771"><ele>212.39999999999998</ele><time>2026-04-18T10:29:15.576Z</time></trkpt><trkpt lat="43.4311453" lon="10.8172768"><ele>212.79999999999998</ele><time>2026-04-18T10:29:16.579Z</time></trkpt><trkpt lat="43.4310994" lon="10.8171822"><ele>213.2</ele><time>2026-04-18T10:29:17.578Z</time></trkpt><trkpt lat="43.4310354" lon="10.8170788"><ele>213.6</ele><time>2026-04-18T10:29:18.575Z</time></trkpt><trkpt lat="43.4309589" lon="10.8169653"><ele>214.0</ele><time>2026-04-18T10:29:19.57Z</time></trkpt><trkpt lat="43.430873" lon="10.8168503"><ele>209.75</ele><time>2026-04-18T10:29:20.57Z</time></trkpt><trkpt lat="43.4307896" lon="10.8167338"><ele>205.5</ele><time>2026-04-18T10:29:21.576Z</time></trkpt><trkpt lat="43.4307061" lon="10.8166139"><ele>201.25</ele><time>2026-04-18T10:29:22.575Z</time></trkpt><trkpt lat="43.4306244" lon="10.8164992"><ele>197.0</ele><time>2026-04-18T10:29:23.573Z</time></trkpt><trkpt lat="43.4305505" lon="10.8163789"><ele>197.0</ele><time>2026-04-18T10:29:24.584Z</time></trkpt><trkpt lat="43.4304757" lon="10.8162502"><ele>197.0</ele><time>2026-04-18T10:29:25.584Z</time></trkpt><trkpt lat="43.4304046" lon="10.8161221"><ele>197.0</ele><time>2026-04-18T10:29:26.584Z</time></trkpt><trkpt lat="43.4303394" lon="10.8159906"><ele>197.0</ele><time>2026-04-18T10:29:27.587Z</time></trkpt><trkpt lat="43.4302762" lon="10.8158376"><ele>195.75</ele><time>2026-04-18T10:29:28.582Z</time></trkpt><trkpt lat="43.4302272" lon="10.8156737"><ele>194.5</ele><time>2026-04-18T10:29:29.602Z</time></trkpt><trkpt lat="43.4301994" lon="10.8155129"><ele>193.25</ele><time>2026-04-18T10:29:30.593Z</time></trkpt><trkpt lat="43.4301647" lon="10.8153398"><ele>192.0</ele><time>2026-04-18T10:29:31.587Z</time></trkpt><trkpt lat="43.4301303" lon="10.8151733"><ele>191.25</ele><time>2026-04-18T10:29:32.596Z</time></trkpt><trkpt lat="43.4300953" lon="10.8150197"><ele>190.5</ele><time>2026-04-18T10:29:33.597Z</time></trkpt><trkpt lat="43.430053" lon="10.8148765"><ele>189.75</ele><time>2026-04-18T10:29:34.594Z</time></trkpt><trkpt lat="43.4299968" lon="10.8147413"><ele>189.0</ele><time>2026-04-18T10:29:35.591Z</time></trkpt><trkpt lat="43.429912" lon="10.814611"><ele>189.0</ele><time>2026-04-18T10:29:36.577Z</time></trkpt><trkpt lat="43.4298087" lon="10.8144835"><ele>189.0</ele><time>2026-04-18T10:29:37.585Z</time></trkpt><trkpt lat="43.4297019" lon="10.8143797"><ele>189.0</ele><time>2026-04-18T10:29:38.578Z</time></trkpt><trkpt lat="43.4296072" lon="10.8142802"><ele>189.0</ele><time>2026-04-18T10:29:39.577Z</time></trkpt><trkpt lat="43.4295237" lon="10.8141891"><ele>188.39999999999998</ele><time>2026-04-18T10:29:40.582Z</time></trkpt><trkpt lat="43.4294434" lon="10.8141098"><ele>187.8</ele><time>2026-04-18T10:29:41.578Z</time></trkpt><trkpt lat="43.4293797" lon="10.8140416"><ele>187.2</ele><time>2026-04-18T10:29:42.577Z</time></trkpt><trkpt lat="43.4293108" lon="10.8139726"><ele>186.60000000000002</ele><time>2026-04-18T10:29:43.577Z</time></trkpt><trkpt lat="43.4292451" lon="10.8138892"><ele>186.0</ele><time>2026-04-18T10:29:44.587Z</time></trkpt><trkpt lat="43.4291769" lon="10.8137826"><ele>186.0</ele><time>2026-04-18T10:29:45.578Z</time></trkpt><trkpt lat="43.429116" lon="10.8136632"><ele>186.0</ele><time>2026-04-18T10:29:46.572Z</time></trkpt><trkpt lat="43.4290702" lon="10.8135345"><ele>186.0</ele><time>2026-04-18T10:29:47.57Z</time></trkpt><trkpt lat="43.4290138" lon="10.8133874"><ele>186.0</ele><time>2026-04-18T10:29:48.571Z</time></trkpt><trkpt lat="43.4289737" lon="10.8132202"><ele>187.75</ele><time>2026-04-18T10:29:49.581Z</time></trkpt><trkpt lat="43.4289431" lon="10.813036"><ele>189.5</ele><time>2026-04-18T10:29:50.576Z</time></trkpt><trkpt lat="43.4289157" lon="10.8128523"><ele>191.25</ele><time>2026-04-18T10:29:51.58Z</time></trkpt><trkpt lat="43.4288843" lon="10.8126765"><ele>193.0</ele><time>2026-04-18T10:29:52.577Z</time></trkpt><trkpt lat="43.4288445" lon="10.8125073"><ele>187.75</ele><time>2026-04-18T10:29:53.568Z</time></trkpt><trkpt lat="43.4287915" lon="10.8123367"><ele>182.5</ele><time>2026-04-18T10:29:54.572Z</time></trkpt><trkpt lat="43.4287315" lon="10.8121793"><ele>177.25</ele><time>2026-04-18T10:29:55.573Z</time></trkpt><trkpt lat="43.4286676" lon="10.8120488"><ele>172.0</ele><time>2026-04-18T10:29:56.572Z</time></trkpt><trkpt lat="43.4286104" lon="10.8119253"><ele>173.6</ele><time>2026-04-18T10:29:57.581Z</time></trkpt><trkpt lat="43.4285796" lon="10.8117956"><ele>175.2</ele><time>2026-04-18T10:29:58.574Z</time></trkpt><trkpt lat="43.4285329" lon="10.8116815"><ele>176.8</ele><time>2026-04-18T10:29:59.579Z</time></trkpt><trkpt lat="43.4284889" lon="10.8115818"><ele>178.4</ele><time>2026-04-18T10:30:00.589Z</time></trkpt><trkpt lat="43.4284439" lon="10.8114667"><ele>180.0</ele><time>2026-04-18T10:30:01.578Z</time></trkpt><trkpt lat="43.4283849" lon="10.8113493"><ele>180.0</ele><time>2026-04-18T10:30:02.585Z</time></trkpt><trkpt lat="43.4283407" lon="10.811243"><ele>180.0</ele><time>2026-04-18T10:30:03.587Z</time></trkpt><trkpt lat="43.4282982" lon="10.8111442"><ele>180.0</ele><time>2026-04-18T10:30:04.582Z</time></trkpt><trkpt lat="43.4282685" lon="10.8110326"><ele>180.0</ele><time>2026-04-18T10:30:05.575Z</time></trkpt><trkpt lat="43.4282574" lon="10.8108958"><ele>180.0</ele><time>2026-04-18T10:30:06.571Z</time></trkpt><trkpt lat="43.4282613" lon="10.8107369"><ele>180.0</ele><time>2026-04-18T10:30:07.576Z</time></trkpt><trkpt lat="43.4282766" lon="10.8105567"><ele>180.0</ele><time>2026-04-18T10:30:08.585Z</time></trkpt><trkpt lat="43.428297" lon="10.8103626"><ele>180.0</ele><time>2026-04-18T10:30:09.574Z</time></trkpt><trkpt lat="43.4283113" lon="10.8101697"><ele>180.0</ele><time>2026-04-18T10:30:10.575Z</time></trkpt><trkpt lat="43.4283215" lon="10.8099736"><ele>178.5</ele><time>2026-04-18T10:30:11.573Z</time></trkpt><trkpt lat="43.428347" lon="10.8097739"><ele>177.0</ele><time>2026-04-18T10:30:12.57Z</time></trkpt><trkpt lat="43.4283748" lon="10.8095823"><ele>175.5</ele><time>2026-04-18T10:30:13.576Z</time></trkpt><trkpt lat="43.4283818" lon="10.8094039"><ele>174.0</ele><time>2026-04-18T10:30:14.573Z</time></trkpt><trkpt lat="43.4283953" lon="10.809229"><ele>173.2</ele><time>2026-04-18T10:30:15.575Z</time></trkpt><trkpt lat="43.4284059" lon="10.8090533"><ele>172.39999999999998</ele><time>2026-04-18T10:30:16.577Z</time></trkpt><trkpt lat="43.4284204" lon="10.8088865"><ele>171.6</ele><time>2026-04-18T10:30:17.575Z</time></trkpt><trkpt lat="43.428427" lon="10.8087462"><ele>170.8</ele><time>2026-04-18T10:30:18.576Z</time></trkpt><trkpt lat="43.4284317" lon="10.8086168"><ele>170.0</ele><time>2026-04-18T10:30:19.576Z</time></trkpt><trkpt lat="43.4284436" lon="10.8084998"><ele>169.6</ele><time>2026-04-18T10:30:20.581Z</time></trkpt><trkpt lat="43.4284581" lon="10.8083989"><ele>169.2</ele><time>2026-04-18T10:30:21.573Z</time></trkpt><trkpt lat="43.4284973" lon="10.8082987"><ele>168.8</ele><time>2026-04-18T10:30:22.568Z</time></trkpt><trkpt lat="43.4285558" lon="10.8081934"><ele>168.4</ele><time>2026-04-18T10:30:23.557Z</time></trkpt><trkpt lat="43.4286551" lon="10.8080911"><ele>168.0</ele><time>2026-04-18T10:30:24.566Z</time></trkpt><trkpt lat="43.4287458" lon="10.8079851"><ele>165.6</ele><time>2026-04-18T10:30:25.565Z</time></trkpt><trkpt lat="43.4288223" lon="10.8078853"><ele>163.20000000000002</ele><time>2026-04-18T10:30:26.568Z</time></trkpt><trkpt lat="43.4288917" lon="10.8077963"><ele>160.8</ele><time>2026-04-18T10:30:27.573Z</time></trkpt><trkpt lat="43.4289589" lon="10.8077121"><ele>158.4</ele><time>2026-04-18T10:30:28.568Z</time></trkpt><trkpt lat="43.4290213" lon="10.8076067"><ele>156.0</ele><time>2026-04-18T10:30:29.567Z</time></trkpt><trkpt lat="43.4290725" lon="10.8074797"><ele>156.0</ele><time>2026-04-18T10:30:30.568Z</time></trkpt><trkpt lat="43.4291107" lon="10.8073191"><ele>156.0</ele><time>2026-04-18T10:30:31.583Z</time></trkpt><trkpt lat="43.42914" lon="10.8071499"><ele>156.0</ele><time>2026-04-18T10:30:32.574Z</time></trkpt><trkpt lat="43.4291852" lon="10.8069683"><ele>156.0</ele><time>2026-04-18T10:30:33.578Z</time></trkpt><trkpt lat="43.4292371" lon="10.8067898"><ele>155.25</ele><time>2026-04-18T10:30:34.573Z</time></trkpt><trkpt lat="43.4292868" lon="10.8066167"><ele>154.5</ele><time>2026-04-18T10:30:35.571Z</time></trkpt><trkpt lat="43.4293326" lon="10.8064623"><ele>153.75</ele><time>2026-04-18T10:30:36.569Z</time></trkpt><trkpt lat="43.4293827" lon="10.8063176"><ele>153.0</ele><time>2026-04-18T10:30:37.566Z</time></trkpt><trkpt lat="43.4294294" lon="10.8061588"><ele>152.25</ele><time>2026-04-18T10:30:38.569Z</time></trkpt><trkpt lat="43.4294658" lon="10.8059907"><ele>151.5</ele><time>2026-04-18T10:30:39.571Z</time></trkpt><trkpt lat="43.4295163" lon="10.8058137"><ele>150.75</ele><time>2026-04-18T10:30:40.561Z</time></trkpt><trkpt lat="43.4295705" lon="10.8056547"><ele>150.0</ele><time>2026-04-18T10:30:41.569Z</time></trkpt><trkpt lat="43.4296177" lon="10.8055095"><ele>147.4</ele><time>2026-04-18T10:30:42.569Z</time></trkpt><trkpt lat="43.4296692" lon="10.8053654"><ele>144.8</ele><time>2026-04-18T10:30:43.576Z</time></trkpt><trkpt lat="43.4297205" lon="10.8052317"><ele>142.2</ele><time>2026-04-18T10:30:44.577Z</time></trkpt><trkpt lat="43.4297692" lon="10.8051042"><ele>139.6</ele><time>2026-04-18T10:30:45.573Z</time></trkpt><trkpt lat="43.4298134" lon="10.8049672"><ele>137.0</ele><time>2026-04-18T10:30:46.574Z</time></trkpt><trkpt lat="43.4298597" lon="10.8048369"><ele>136.16666666666666</ele><time>2026-04-18T10:30:47.574Z</time></trkpt><trkpt lat="43.4298889" lon="10.8047209"><ele>135.33333333333331</ele><time>2026-04-18T10:30:48.572Z</time></trkpt><trkpt lat="43.4299139" lon="10.8046236"><ele>134.5</ele><time>2026-04-18T10:30:49.568Z</time></trkpt><trkpt lat="43.4299289" lon="10.8045212"><ele>133.66666666666666</ele><time>2026-04-18T10:30:50.57Z</time></trkpt><trkpt lat="43.4299211" lon="10.8044085"><ele>132.83333333333334</ele><time>2026-04-18T10:30:51.576Z</time></trkpt><trkpt lat="43.4298905" lon="10.8042831"><ele>132.0</ele><time>2026-04-18T10:30:52.571Z</time></trkpt><trkpt lat="43.4298485" lon="10.8041612"><ele>132.6</ele><time>2026-04-18T10:30:53.579Z</time></trkpt><trkpt lat="43.4297982" lon="10.8040536"><ele>133.2</ele><time>2026-04-18T10:30:54.571Z</time></trkpt><trkpt lat="43.4297292" lon="10.8039582"><ele>133.8</ele><time>2026-04-18T10:30:55.575Z</time></trkpt><trkpt lat="43.4296598" lon="10.8038768"><ele>134.4</ele><time>2026-04-18T10:30:56.564Z</time></trkpt><trkpt lat="43.4295861" lon="10.8038078"><ele>135.0</ele><time>2026-04-18T10:30:57.563Z</time></trkpt><trkpt lat="43.4294928" lon="10.8037615"><ele>135.0</ele><time>2026-04-18T10:30:58.549Z</time></trkpt><trkpt lat="43.4293896" lon="10.8037285"><ele>135.0</ele><time>2026-04-18T10:30:59.554Z</time></trkpt><trkpt lat="43.4292884" lon="10.8037249"><ele>135.0</ele><time>2026-04-18T10:31:00.561Z</time></trkpt><trkpt lat="43.4291908" lon="10.8037255"><ele>135.0</ele><time>2026-04-18T10:31:01.555Z</time></trkpt><trkpt lat="43.4291012" lon="10.8037243"><ele>135.0</ele><time>2026-04-18T10:31:02.57Z</time></trkpt><trkpt lat="43.4290176" lon="10.8037086"><ele>135.0</ele><time>2026-04-18T10:31:03.549Z</time></trkpt><trkpt lat="43.4289425" lon="10.8036817"><ele>135.0</ele><time>2026-04-18T10:31:04.547Z</time></trkpt><trkpt lat="43.4288771" lon="10.8036247"><ele>135.0</ele><time>2026-04-18T10:31:05.548Z</time></trkpt><trkpt lat="43.4288083" lon="10.803542"><ele>135.0</ele><time>2026-04-18T10:31:06.55Z</time></trkpt><trkpt lat="43.4287448" lon="10.8034284"><ele>135.0</ele><time>2026-04-18T10:31:07.557Z</time></trkpt><trkpt lat="43.4286724" lon="10.8033251"><ele>132.66666666666666</ele><time>2026-04-18T10:31:08.555Z</time></trkpt><trkpt lat="43.4286058" lon="10.8032319"><ele>130.33333333333334</ele><time>2026-04-18T10:31:09.554Z</time></trkpt><trkpt lat="43.4285553" lon="10.8031428"><ele>128.0</ele><time>2026-04-18T10:31:10.556Z</time></trkpt><trkpt lat="43.4284958" lon="10.8030716"><ele>125.66666666666667</ele><time>2026-04-18T10:31:11.556Z</time></trkpt><trkpt lat="43.4284233" lon="10.8030082"><ele>123.33333333333334</ele><time>2026-04-18T10:31:12.547Z</time></trkpt><trkpt lat="43.4283394" lon="10.802963"><ele>121.0</ele><time>2026-04-18T10:31:13.549Z</time></trkpt><trkpt lat="43.4282356" lon="10.8029395"><ele>121.0</ele><time>2026-04-18T10:31:14.548Z</time></trkpt><trkpt lat="43.4281231" lon="10.8029334"><ele>121.0</ele><time>2026-04-18T10:31:15.558Z</time></trkpt><trkpt lat="43.4280164" lon="10.8029377"><ele>121.0</ele><time>2026-04-18T10:31:16.554Z</time></trkpt><trkpt lat="43.4279215" lon="10.8029435"><ele>121.0</ele><time>2026-04-18T10:31:17.552Z</time></trkpt><trkpt lat="43.4278308" lon="10.8029404"><ele>121.0</ele><time>2026-04-18T10:31:18.553Z</time></trkpt><trkpt lat="43.4277445" lon="10.8029317"><ele>120.16666666666667</ele><time>2026-04-18T10:31:19.546Z</time></trkpt><trkpt lat="43.4276633" lon="10.802904"><ele>119.33333333333334</ele><time>2026-04-18T10:31:20.542Z</time></trkpt><trkpt lat="43.4275912" lon="10.8028449"><ele>118.5</ele><time>2026-04-18T10:31:21.547Z</time></trkpt><trkpt lat="43.4275228" lon="10.8027602"><ele>117.66666666666666</ele><time>2026-04-18T10:31:22.554Z</time></trkpt><trkpt lat="43.4274818" lon="10.802646"><ele>116.83333333333333</ele><time>2026-04-18T10:31:23.55Z</time></trkpt><trkpt lat="43.4274679" lon="10.802516"><ele>116.0</ele><time>2026-04-18T10:31:24.558Z</time></trkpt><trkpt lat="43.4274831" lon="10.8023693"><ele>115.25</ele><time>2026-04-18T10:31:25.552Z</time></trkpt><trkpt lat="43.4275199" lon="10.8022035"><ele>114.5</ele><time>2026-04-18T10:31:26.55Z</time></trkpt><trkpt lat="43.4275639" lon="10.8020228"><ele>113.75</ele><time>2026-04-18T10:31:27.565Z</time></trkpt><trkpt lat="43.4276001" lon="10.8018191"><ele>113.0</ele><time>2026-04-18T10:31:28.563Z</time></trkpt><trkpt lat="43.4276253" lon="10.8016292"><ele>113.0</ele><time>2026-04-18T10:31:29.573Z</time></trkpt><trkpt lat="43.4276381" lon="10.80146"><ele>113.0</ele><time>2026-04-18T10:31:30.566Z</time></trkpt><trkpt lat="43.4276586" lon="10.8012946"><ele>113.0</ele><time>2026-04-18T10:31:31.561Z</time></trkpt><trkpt lat="43.4276888" lon="10.8011372"><ele>113.0</ele><time>2026-04-18T10:31:32.559Z</time></trkpt><trkpt lat="43.427717" lon="10.8010034"><ele>112.80000000000001</ele><time>2026-04-18T10:31:33.576Z</time></trkpt><trkpt lat="43.4277401" lon="10.8008715"><ele>112.60000000000001</ele><time>2026-04-18T10:31:34.56Z</time></trkpt><trkpt lat="43.4277803" lon="10.8007613"><ele>112.39999999999999</ele><time>2026-04-18T10:31:35.561Z</time></trkpt><trkpt lat="43.4278446" lon="10.8006662"><ele>112.19999999999999</ele><time>2026-04-18T10:31:36.561Z</time></trkpt><trkpt lat="43.4279405" lon="10.8005904"><ele>112.0</ele><time>2026-04-18T10:31:37.561Z</time></trkpt><trkpt lat="43.4280438" lon="10.8005309"><ele>112.75</ele><time>2026-04-18T10:31:38.565Z</time></trkpt><trkpt lat="43.4281786" lon="10.8005011"><ele>113.5</ele><time>2026-04-18T10:31:39.563Z</time></trkpt><trkpt lat="43.4283129" lon="10.8004861"><ele>114.25</ele><time>2026-04-18T10:31:40.568Z</time></trkpt><trkpt lat="43.4284575" lon="10.8004797"><ele>115.0</ele><time>2026-04-18T10:31:41.568Z</time></trkpt><trkpt lat="43.4286201" lon="10.8004768"><ele>115.0</ele><time>2026-04-18T10:31:42.567Z</time></trkpt><trkpt lat="43.4288003" lon="10.8004971"><ele>115.0</ele><time>2026-04-18T10:31:43.573Z</time></trkpt><trkpt lat="43.4289681" lon="10.8005026"><ele>115.0</ele><time>2026-04-18T10:31:44.568Z</time></trkpt><trkpt lat="43.429111" lon="10.8004929"><ele>115.0</ele><time>2026-04-18T10:31:45.558Z</time></trkpt><trkpt lat="43.429244" lon="10.8005028"><ele>115.0</ele><time>2026-04-18T10:31:46.561Z</time></trkpt><trkpt lat="43.4293509" lon="10.8005147"><ele>115.0</ele><time>2026-04-18T10:31:47.562Z</time></trkpt><trkpt lat="43.4294469" lon="10.8005359"><ele>115.0</ele><time>2026-04-18T10:31:48.57Z</time></trkpt><trkpt lat="43.4295434" lon="10.8005559"><ele>115.0</ele><time>2026-04-18T10:31:49.568Z</time></trkpt><trkpt lat="43.4296481" lon="10.8005426"><ele>114.75</ele><time>2026-04-18T10:31:50.565Z</time></trkpt><trkpt lat="43.4297504" lon="10.800527"><ele>114.5</ele><time>2026-04-18T10:31:51.572Z</time></trkpt><trkpt lat="43.4298648" lon="10.8004983"><ele>114.25</ele><time>2026-04-18T10:31:52.564Z</time></trkpt><trkpt lat="43.4299824" lon="10.8004483"><ele>114.0</ele><time>2026-04-18T10:31:53.572Z</time></trkpt><trkpt lat="43.4300895" lon="10.8003871"><ele>114.0</ele><time>2026-04-18T10:31:54.567Z</time></trkpt><trkpt lat="43.4301881" lon="10.8003405"><ele>114.0</ele><time>2026-04-18T10:31:55.574Z</time></trkpt><trkpt lat="43.4302763" lon="10.8002979"><ele>114.0</ele><time>2026-04-18T10:31:56.576Z</time></trkpt><trkpt lat="43.4303528" lon="10.8002489"><ele>114.0</ele><time>2026-04-18T10:31:57.582Z</time></trkpt><trkpt lat="43.4304139" lon="10.8001865"><ele>114.0</ele><time>2026-04-18T10:31:58.575Z</time></trkpt><trkpt lat="43.4304769" lon="10.8001123"><ele>114.0</ele><time>2026-04-18T10:31:59.583Z</time></trkpt><trkpt lat="43.43052" lon="10.8000212"><ele>115.0</ele><time>2026-04-18T10:32:00.579Z</time></trkpt><trkpt lat="43.4305508" lon="10.7999279"><ele>116.0</ele><time>2026-04-18T10:32:01.572Z</time></trkpt><trkpt lat="43.4305696" lon="10.7998125"><ele>117.0</ele><time>2026-04-18T10:32:02.576Z</time></trkpt><trkpt lat="43.4305783" lon="10.7996785"><ele>118.0</ele><time>2026-04-18T10:32:03.569Z</time></trkpt><trkpt lat="43.4305787" lon="10.799544"><ele>119.0</ele><time>2026-04-18T10:32:04.581Z</time></trkpt><trkpt lat="43.4305726" lon="10.79941"><ele>120.0</ele><time>2026-04-18T10:32:05.576Z</time></trkpt><trkpt lat="43.4305501" lon="10.7992872"><ele>121.0</ele><time>2026-04-18T10:32:06.566Z</time></trkpt><trkpt lat="43.4305332" lon="10.7991673"><ele>122.0</ele><time>2026-04-18T10:32:07.573Z</time></trkpt><trkpt lat="43.430494" lon="10.7990407"><ele>123.0</ele><time>2026-04-18T10:32:08.574Z</time></trkpt><trkpt lat="43.4304259" lon="10.7989097"><ele>124.0</ele><time>2026-04-18T10:32:09.562Z</time></trkpt><trkpt lat="43.4303596" lon="10.79878"><ele>126.0</ele><time>2026-04-18T10:32:10.567Z</time></trkpt><trkpt lat="43.4302766" lon="10.7986404"><ele>128.0</ele><time>2026-04-18T10:32:11.566Z</time></trkpt><trkpt lat="43.4301814" lon="10.7984958"><ele>130.0</ele><time>2026-04-18T10:32:12.568Z</time></trkpt><trkpt lat="43.4300855" lon="10.7983603"><ele>132.0</ele><time>2026-04-18T10:32:13.572Z</time></trkpt><trkpt lat="43.4299943" lon="10.7982341"><ele>132.0</ele><time>2026-04-18T10:32:14.577Z</time></trkpt><trkpt lat="43.4298934" lon="10.7981026"><ele>132.0</ele><time>2026-04-18T10:32:15.566Z</time></trkpt><trkpt lat="43.4298094" lon="10.7979664"><ele>132.0</ele><time>2026-04-18T10:32:16.57Z</time></trkpt><trkpt lat="43.4297449" lon="10.7977989"><ele>132.0</ele><time>2026-04-18T10:32:17.568Z</time></trkpt><trkpt lat="43.4296696" lon="10.797646"><ele>134.33333333333334</ele><time>2026-04-18T10:32:18.562Z</time></trkpt><trkpt lat="43.429569" lon="10.7974784"><ele>136.66666666666669</ele><time>2026-04-18T10:32:19.567Z</time></trkpt><trkpt lat="43.4294324" lon="10.7972742"><ele>139.0</ele><time>2026-04-18T10:32:20.575Z</time></trkpt><trkpt lat="43.429306" lon="10.7971072"><ele>139.0</ele><time>2026-04-18T10:32:21.58Z</time></trkpt><trkpt lat="43.4291991" lon="10.7969737"><ele>139.0</ele><time>2026-04-18T10:32:22.573Z</time></trkpt><trkpt lat="43.4290622" lon="10.796832"><ele>139.0</ele><time>2026-04-18T10:32:23.573Z</time></trkpt><trkpt lat="43.4289288" lon="10.7967028"><ele>142.5</ele><time>2026-04-18T10:32:24.569Z</time></trkpt><trkpt lat="43.4287989" lon="10.7965921"><ele>146.0</ele><time>2026-04-18T10:32:25.568Z</time></trkpt><trkpt lat="43.4286944" lon="10.7964879"><ele>149.5</ele><time>2026-04-18T10:32:26.564Z</time></trkpt><trkpt lat="43.4285977" lon="10.7963551"><ele>153.0</ele><time>2026-04-18T10:32:27.565Z</time></trkpt><trkpt lat="43.4285115" lon="10.7962666"><ele>153.0</ele><time>2026-04-18T10:32:28.563Z</time></trkpt><trkpt lat="43.4284215" lon="10.7961815"><ele>153.0</ele><time>2026-04-18T10:32:29.561Z</time></trkpt><trkpt lat="43.4283278" lon="10.7961174"><ele>153.0</ele><time>2026-04-18T10:32:30.56Z</time></trkpt><trkpt lat="43.4281967" lon="10.7960465"><ele>153.0</ele><time>2026-04-18T10:32:31.558Z</time></trkpt><trkpt lat="43.4280369" lon="10.7959742"><ele>153.66666666666666</ele><time>2026-04-18T10:32:32.56Z</time></trkpt><trkpt lat="43.4278831" lon="10.7958914"><ele>154.33333333333331</ele><time>2026-04-18T10:32:33.558Z</time></trkpt><trkpt lat="43.4277202" lon="10.7957929"><ele>155.0</ele><time>2026-04-18T10:32:34.561Z</time></trkpt><trkpt lat="43.4275717" lon="10.7957042"><ele>155.0</ele><time>2026-04-18T10:32:35.57Z</time></trkpt><trkpt lat="43.4274368" lon="10.7956277"><ele>155.0</ele><time>2026-04-18T10:32:36.554Z</time></trkpt><trkpt lat="43.4273136" lon="10.7955474"><ele>155.0</ele><time>2026-04-18T10:32:37.564Z</time></trkpt><trkpt lat="43.4271901" lon="10.7954618"><ele>155.0</ele><time>2026-04-18T10:32:38.561Z</time></trkpt><trkpt lat="43.4270935" lon="10.7953679"><ele>157.4</ele><time>2026-04-18T10:32:39.56Z</time></trkpt><trkpt lat="43.4269983" lon="10.7952709"><ele>159.8</ele><time>2026-04-18T10:32:40.563Z</time></trkpt><trkpt lat="43.4269349" lon="10.7951815"><ele>162.2</ele><time>2026-04-18T10:32:41.562Z</time></trkpt><trkpt lat="43.4268643" lon="10.795079"><ele>164.6</ele><time>2026-04-18T10:32:42.565Z</time></trkpt><trkpt lat="43.4268094" lon="10.7949686"><ele>167.0</ele><time>2026-04-18T10:32:43.565Z</time></trkpt><trkpt lat="43.4267539" lon="10.7948385"><ele>167.0</ele><time>2026-04-18T10:32:44.557Z</time></trkpt><trkpt lat="43.4267138" lon="10.7946697"><ele>167.0</ele><time>2026-04-18T10:32:45.567Z</time></trkpt><trkpt lat="43.4266734" lon="10.7944901"><ele>167.0</ele><time>2026-04-18T10:32:46.556Z</time></trkpt><trkpt lat="43.4266513" lon="10.7943039"><ele>167.0</ele><time>2026-04-18T10:32:47.561Z</time></trkpt><trkpt lat="43.4266404" lon="10.7941154"><ele>167.66666666666666</ele><time>2026-04-18T10:32:48.559Z</time></trkpt><trkpt lat="43.4266464" lon="10.7939201"><ele>168.33333333333334</ele><time>2026-04-18T10:32:49.55Z</time></trkpt><trkpt lat="43.4266673" lon="10.7936775"><ele>169.0</ele><time>2026-04-18T10:32:50.553Z</time></trkpt><trkpt lat="43.4266611" lon="10.7934236"><ele>170.0</ele><time>2026-04-18T10:32:51.553Z</time></trkpt><trkpt lat="43.4266537" lon="10.7931598"><ele>171.0</ele><time>2026-04-18T10:32:52.554Z</time></trkpt><trkpt lat="43.4266493" lon="10.7928773"><ele>172.0</ele><time>2026-04-18T10:32:53.55Z</time></trkpt><trkpt lat="43.4266527" lon="10.7925968"><ele>173.66666666666669</ele><time>2026-04-18T10:32:54.556Z</time></trkpt><trkpt lat="43.4266642" lon="10.7923228"><ele>175.33333333333334</ele><time>2026-04-18T10:32:55.556Z</time></trkpt><trkpt lat="43.426682" lon="10.792036"><ele>177.0</ele><time>2026-04-18T10:32:56.551Z</time></trkpt><trkpt lat="43.4266919" lon="10.7917643"><ele>179.0</ele><time>2026-04-18T10:32:57.565Z</time></trkpt><trkpt lat="43.4267196" lon="10.7915063"><ele>181.0</ele><time>2026-04-18T10:32:58.563Z</time></trkpt><trkpt lat="43.4267208" lon="10.7912257"><ele>183.0</ele><time>2026-04-18T10:32:59.564Z</time></trkpt><trkpt lat="43.426751" lon="10.7909342"><ele>183.66666666666666</ele><time>2026-04-18T10:33:00.563Z</time></trkpt><trkpt lat="43.4267498" lon="10.79064"><ele>184.33333333333331</ele><time>2026-04-18T10:33:01.556Z</time></trkpt><trkpt lat="43.4267456" lon="10.790366"><ele>185.0</ele><time>2026-04-18T10:33:02.557Z</time></trkpt><trkpt lat="43.4267563" lon="10.7900834"><ele>186.0</ele><time>2026-04-18T10:33:03.56Z</time></trkpt><trkpt lat="43.4267581" lon="10.7898159"><ele>187.0</ele><time>2026-04-18T10:33:04.557Z</time></trkpt><trkpt lat="43.4267868" lon="10.789568"><ele>188.0</ele><time>2026-04-18T10:33:05.565Z</time></trkpt><trkpt lat="43.4268088" lon="10.7893421"><ele>188.75</ele><time>2026-04-18T10:33:06.574Z</time></trkpt><trkpt lat="43.4268192" lon="10.7891344"><ele>189.5</ele><time>2026-04-18T10:33:07.557Z</time></trkpt><trkpt lat="43.4268382" lon="10.7889392"><ele>190.25</ele><time>2026-04-18T10:33:08.562Z</time></trkpt><trkpt lat="43.4268474" lon="10.7887461"><ele>191.0</ele><time>2026-04-18T10:33:09.565Z</time></trkpt><trkpt lat="43.4268531" lon="10.7885632"><ele>193.25</ele><time>2026-04-18T10:33:10.571Z</time></trkpt><trkpt lat="43.4268721" lon="10.7883894"><ele>195.5</ele><time>2026-04-18T10:33:11.57Z</time></trkpt><trkpt lat="43.4269114" lon="10.788226"><ele>197.75</ele><time>2026-04-18T10:33:12.572Z</time></trkpt><trkpt lat="43.4269777" lon="10.7880443"><ele>200.0</ele><time>2026-04-18T10:33:13.564Z</time></trkpt><trkpt lat="43.4270564" lon="10.7878531"><ele>200.66666666666669</ele><time>2026-04-18T10:33:14.561Z</time></trkpt><trkpt lat="43.4271623" lon="10.7876911"><ele>201.33333333333331</ele><time>2026-04-18T10:33:15.562Z</time></trkpt><trkpt lat="43.427277" lon="10.7875288"><ele>202.0</ele><time>2026-04-18T10:33:16.568Z</time></trkpt><trkpt lat="43.4273991" lon="10.7873837"><ele>202.0</ele><time>2026-04-18T10:33:17.568Z</time></trkpt><trkpt lat="43.4275046" lon="10.7872421"><ele>202.0</ele><time>2026-04-18T10:33:18.568Z</time></trkpt><trkpt lat="43.4276045" lon="10.7871172"><ele>202.0</ele><time>2026-04-18T10:33:19.577Z</time></trkpt><trkpt lat="43.4277138" lon="10.7869937"><ele>202.0</ele><time>2026-04-18T10:33:20.573Z</time></trkpt><trkpt lat="43.4278427" lon="10.7868616"><ele>200.66666666666666</ele><time>2026-04-18T10:33:21.582Z</time></trkpt><trkpt lat="43.4279553" lon="10.7867151"><ele>199.33333333333331</ele><time>2026-04-18T10:33:22.577Z</time></trkpt><trkpt lat="43.4280767" lon="10.7865948"><ele>198.0</ele><time>2026-04-18T10:33:23.574Z</time></trkpt><trkpt lat="43.428201" lon="10.7864719"><ele>197.5</ele><time>2026-04-18T10:33:24.573Z</time></trkpt><trkpt lat="43.4283062" lon="10.7863178"><ele>197.0</ele><time>2026-04-18T10:33:25.574Z</time></trkpt><trkpt lat="43.4284063" lon="10.786166"><ele>196.5</ele><time>2026-04-18T10:33:26.573Z</time></trkpt><trkpt lat="43.4284901" lon="10.7860236"><ele>196.0</ele><time>2026-04-18T10:33:27.575Z</time></trkpt><trkpt lat="43.4285548" lon="10.7858653"><ele>196.0</ele><time>2026-04-18T10:33:28.572Z</time></trkpt><trkpt lat="43.428625" lon="10.7857253"><ele>196.0</ele><time>2026-04-18T10:33:29.571Z</time></trkpt><trkpt lat="43.428693" lon="10.7855609"><ele>196.0</ele><time>2026-04-18T10:33:30.574Z</time></trkpt><trkpt lat="43.4287393" lon="10.7853894"><ele>196.0</ele><time>2026-04-18T10:33:31.564Z</time></trkpt><trkpt lat="43.4287589" lon="10.7852181"><ele>194.25</ele><time>2026-04-18T10:33:32.58Z</time></trkpt><trkpt lat="43.4287504" lon="10.7850266"><ele>192.5</ele><time>2026-04-18T10:33:33.57Z</time></trkpt><trkpt lat="43.4287368" lon="10.7848387"><ele>190.75</ele><time>2026-04-18T10:33:34.576Z</time></trkpt><trkpt lat="43.428699" lon="10.7846533"><ele>189.0</ele><time>2026-04-18T10:33:35.586Z</time></trkpt><trkpt lat="43.4286614" lon="10.7844971"><ele>189.0</ele><time>2026-04-18T10:33:36.577Z</time></trkpt><trkpt lat="43.4286467" lon="10.7843643"><ele>189.0</ele><time>2026-04-18T10:33:37.595Z</time></trkpt><trkpt lat="43.4286193" lon="10.7842366"><ele>189.0</ele><time>2026-04-18T10:33:38.586Z</time></trkpt><trkpt lat="43.4285846" lon="10.7841043"><ele>189.0</ele><time>2026-04-18T10:33:39.586Z</time></trkpt><trkpt lat="43.4285586" lon="10.7839828"><ele>189.0</ele><time>2026-04-18T10:33:40.58Z</time></trkpt><trkpt lat="43.4285326" lon="10.7838658"><ele>189.79999999999998</ele><time>2026-04-18T10:33:41.58Z</time></trkpt><trkpt lat="43.4285101" lon="10.7837503"><ele>190.6</ele><time>2026-04-18T10:33:42.582Z</time></trkpt><trkpt lat="43.4284877" lon="10.7836285"><ele>191.4</ele><time>2026-04-18T10:33:43.57Z</time></trkpt><trkpt lat="43.4284505" lon="10.7834839"><ele>192.2</ele><time>2026-04-18T10:33:44.573Z</time></trkpt><trkpt lat="43.4284074" lon="10.7833309"><ele>193.0</ele><time>2026-04-18T10:33:45.575Z</time></trkpt><trkpt lat="43.4283614" lon="10.7831617"><ele>194.75</ele><time>2026-04-18T10:33:46.575Z</time></trkpt><trkpt lat="43.4283124" lon="10.7830005"><ele>196.5</ele><time>2026-04-18T10:33:47.58Z</time></trkpt><trkpt lat="43.4282633" lon="10.7828322"><ele>198.25</ele><time>2026-04-18T10:33:48.579Z</time></trkpt><trkpt lat="43.4282156" lon="10.7826793"><ele>200.0</ele><time>2026-04-18T10:33:49.585Z</time></trkpt><trkpt lat="43.4281607" lon="10.7825311"><ele>200.0</ele><time>2026-04-18T10:33:50.581Z</time></trkpt><trkpt lat="43.4281005" lon="10.7823891"><ele>200.0</ele><time>2026-04-18T10:33:51.584Z</time></trkpt><trkpt lat="43.4280184" lon="10.7822457"><ele>200.0</ele><time>2026-04-18T10:33:52.585Z</time></trkpt><trkpt lat="43.4279321" lon="10.7821172"><ele>200.0</ele><time>2026-04-18T10:33:53.584Z</time></trkpt><trkpt lat="43.4278565" lon="10.7819999"><ele>198.6</ele><time>2026-04-18T10:33:54.585Z</time></trkpt><trkpt lat="43.4277873" lon="10.7818921"><ele>197.2</ele><time>2026-04-18T10:33:55.585Z</time></trkpt><trkpt lat="43.4277146" lon="10.7817724"><ele>195.8</ele><time>2026-04-18T10:33:56.585Z</time></trkpt><trkpt lat="43.427639" lon="10.7816578"><ele>194.4</ele><time>2026-04-18T10:33:57.594Z</time></trkpt><trkpt lat="43.427559" lon="10.7815511"><ele>193.0</ele><time>2026-04-18T10:33:58.583Z</time></trkpt><trkpt lat="43.4274789" lon="10.7814242"><ele>193.0</ele><time>2026-04-18T10:33:59.588Z</time></trkpt><trkpt lat="43.4273979" lon="10.7812956"><ele>193.0</ele><time>2026-04-18T10:34:00.586Z</time></trkpt><trkpt lat="43.4273137" lon="10.7811666"><ele>193.0</ele><time>2026-04-18T10:34:01.581Z</time></trkpt><trkpt lat="43.4272188" lon="10.7810399"><ele>193.0</ele><time>2026-04-18T10:34:02.575Z</time></trkpt><trkpt lat="43.4271357" lon="10.7809188"><ele>191.60000000000002</ele><time>2026-04-18T10:34:03.584Z</time></trkpt><trkpt lat="43.4270586" lon="10.7808057"><ele>190.20000000000002</ele><time>2026-04-18T10:34:04.582Z</time></trkpt><trkpt lat="43.426992" lon="10.7806987"><ele>188.8</ele><time>2026-04-18T10:34:05.593Z</time></trkpt><trkpt lat="43.4269161" lon="10.780586"><ele>187.4</ele><time>2026-04-18T10:34:06.596Z</time></trkpt><trkpt lat="43.4268305" lon="10.7804762"><ele>186.0</ele><time>2026-04-18T10:34:07.586Z</time></trkpt><trkpt lat="43.4267358" lon="10.7803878"><ele>186.0</ele><time>2026-04-18T10:34:08.584Z</time></trkpt><trkpt lat="43.4266291" lon="10.7803361"><ele>186.0</ele><time>2026-04-18T10:34:09.588Z</time></trkpt><trkpt lat="43.426508" lon="10.7803042"><ele>186.0</ele><time>2026-04-18T10:34:10.59Z</time></trkpt><trkpt lat="43.4263837" lon="10.7802977"><ele>186.0</ele><time>2026-04-18T10:34:11.582Z</time></trkpt><trkpt lat="43.4262743" lon="10.7803061"><ele>186.4</ele><time>2026-04-18T10:34:12.594Z</time></trkpt><trkpt lat="43.4261709" lon="10.7803051"><ele>186.8</ele><time>2026-04-18T10:34:13.584Z</time></trkpt><trkpt lat="43.4260636" lon="10.7802845"><ele>187.20000000000002</ele><time>2026-04-18T10:34:14.582Z</time></trkpt><trkpt lat="43.4259586" lon="10.7802343"><ele>187.60000000000002</ele><time>2026-04-18T10:34:15.588Z</time></trkpt><trkpt lat="43.4258448" lon="10.7801782"><ele>188.0</ele><time>2026-04-18T10:34:16.575Z</time></trkpt><trkpt lat="43.4257583" lon="10.7801117"><ele>188.0</ele><time>2026-04-18T10:34:17.576Z</time></trkpt><trkpt lat="43.4256745" lon="10.7800437"><ele>188.0</ele><time>2026-04-18T10:34:18.57Z</time></trkpt><trkpt lat="43.4256018" lon="10.779968"><ele>188.0</ele><time>2026-04-18T10:34:19.573Z</time></trkpt><trkpt lat="43.4255312" lon="10.7798934"><ele>188.0</ele><time>2026-04-18T10:34:20.57Z</time></trkpt><trkpt lat="43.4254516" lon="10.7797992"><ele>188.0</ele><time>2026-04-18T10:34:21.575Z</time></trkpt><trkpt lat="43.4253639" lon="10.7796844"><ele>185.25</ele><time>2026-04-18T10:34:22.577Z</time></trkpt><trkpt lat="43.4252744" lon="10.7795339"><ele>182.5</ele><time>2026-04-18T10:34:23.564Z</time></trkpt><trkpt lat="43.4251895" lon="10.7793812"><ele>179.75</ele><time>2026-04-18T10:34:24.586Z</time></trkpt><trkpt lat="43.4251228" lon="10.7792333"><ele>177.0</ele><time>2026-04-18T10:34:25.574Z</time></trkpt><trkpt lat="43.4250614" lon="10.7791065"><ele>177.0</ele><time>2026-04-18T10:34:26.577Z</time></trkpt><trkpt lat="43.4250004" lon="10.7789838"><ele>177.0</ele><time>2026-04-18T10:34:27.589Z</time></trkpt><trkpt lat="43.4249322" lon="10.778879"><ele>177.0</ele><time>2026-04-18T10:34:28.589Z</time></trkpt><trkpt lat="43.4248696" lon="10.7787748"><ele>177.0</ele><time>2026-04-18T10:34:29.586Z</time></trkpt><trkpt lat="43.4248185" lon="10.778669"><ele>177.0</ele><time>2026-04-18T10:34:30.581Z</time></trkpt><trkpt lat="43.4247788" lon="10.7785757"><ele>177.16666666666666</ele><time>2026-04-18T10:34:31.582Z</time></trkpt><trkpt lat="43.4247394" lon="10.7785004"><ele>177.33333333333334</ele><time>2026-04-18T10:34:32.581Z</time></trkpt><trkpt lat="43.4247013" lon="10.7784076"><ele>177.5</ele><time>2026-04-18T10:34:33.588Z</time></trkpt><trkpt lat="43.4246704" lon="10.7783024"><ele>177.66666666666669</ele><time>2026-04-18T10:34:34.58Z</time></trkpt><trkpt lat="43.424656" lon="10.7781858"><ele>177.83333333333334</ele><time>2026-04-18T10:34:35.575Z</time></trkpt><trkpt lat="43.4246474" lon="10.7780545"><ele>178.0</ele><time>2026-04-18T10:34:36.575Z</time></trkpt><trkpt lat="43.4246528" lon="10.77792"><ele>178.0</ele><time>2026-04-18T10:34:37.578Z</time></trkpt><trkpt lat="43.4246537" lon="10.7777999"><ele>178.0</ele><time>2026-04-18T10:34:38.58Z</time></trkpt><trkpt lat="43.4246669" lon="10.7776922"><ele>178.0</ele><time>2026-04-18T10:34:39.583Z</time></trkpt><trkpt lat="43.4246889" lon="10.7775777"><ele>178.0</ele><time>2026-04-18T10:34:40.579Z</time></trkpt><trkpt lat="43.4247194" lon="10.7774613"><ele>178.0</ele><time>2026-04-18T10:34:41.582Z</time></trkpt><trkpt lat="43.4247574" lon="10.7773375"><ele>178.0</ele><time>2026-04-18T10:34:42.579Z</time></trkpt><trkpt lat="43.4248009" lon="10.7772072"><ele>176.60000000000002</ele><time>2026-04-18T10:34:43.579Z</time></trkpt><trkpt lat="43.4248504" lon="10.7770738"><ele>175.20000000000002</ele><time>2026-04-18T10:34:44.578Z</time></trkpt><trkpt lat="43.4248933" lon="10.776943"><ele>173.8</ele><time>2026-04-18T10:34:45.585Z</time></trkpt><trkpt lat="43.4249489" lon="10.7768261"><ele>172.4</ele><time>2026-04-18T10:34:46.582Z</time></trkpt><trkpt lat="43.4250037" lon="10.7767122"><ele>171.0</ele><time>2026-04-18T10:34:47.584Z</time></trkpt><trkpt lat="43.4250593" lon="10.7766035"><ele>169.60000000000002</ele><time>2026-04-18T10:34:48.585Z</time></trkpt><trkpt lat="43.4251065" lon="10.7765024"><ele>168.2</ele><time>2026-04-18T10:34:49.583Z</time></trkpt><trkpt lat="43.4251461" lon="10.7763968"><ele>166.8</ele><time>2026-04-18T10:34:50.585Z</time></trkpt><trkpt lat="43.4251778" lon="10.7762953"><ele>165.39999999999998</ele><time>2026-04-18T10:34:51.578Z</time></trkpt><trkpt lat="43.4251931" lon="10.7761761"><ele>164.0</ele><time>2026-04-18T10:34:52.576Z</time></trkpt><trkpt lat="43.4251925" lon="10.7760227"><ele>162.0</ele><time>2026-04-18T10:34:53.578Z</time></trkpt><trkpt lat="43.4251772" lon="10.7758567"><ele>160.0</ele><time>2026-04-18T10:34:54.578Z</time></trkpt><trkpt lat="43.4251558" lon="10.7757008"><ele>158.0</ele><time>2026-04-18T10:34:55.589Z</time></trkpt><trkpt lat="43.4251382" lon="10.7755482"><ele>156.0</ele><time>2026-04-18T10:34:56.584Z</time></trkpt><trkpt lat="43.4251264" lon="10.7753991"><ele>156.0</ele><time>2026-04-18T10:34:57.587Z</time></trkpt><trkpt lat="43.4251144" lon="10.7752645"><ele>156.0</ele><time>2026-04-18T10:34:58.59Z</time></trkpt><trkpt lat="43.4251033" lon="10.7751285"><ele>156.0</ele><time>2026-04-18T10:34:59.594Z</time></trkpt><trkpt lat="43.4250984" lon="10.7749999"><ele>156.0</ele><time>2026-04-18T10:35:00.589Z</time></trkpt><trkpt lat="43.4251024" lon="10.7748823"><ele>156.0</ele><time>2026-04-18T10:35:01.586Z</time></trkpt><trkpt lat="43.425099" lon="10.7747776"><ele>154.83333333333334</ele><time>2026-04-18T10:35:02.571Z</time></trkpt><trkpt lat="43.4250644" lon="10.7746261"><ele>153.66666666666666</ele><time>2026-04-18T10:35:04.576Z</time></trkpt><trkpt lat="43.425013" lon="10.7745633"><ele>152.5</ele><time>2026-04-18T10:35:05.58Z</time></trkpt><trkpt lat="43.4249473" lon="10.7745387"><ele>151.33333333333331</ele><time>2026-04-18T10:35:06.57Z</time></trkpt><trkpt lat="43.4248791" lon="10.7745346"><ele>150.16666666666666</ele><time>2026-04-18T10:35:07.585Z</time></trkpt><trkpt lat="43.4248135" lon="10.7745641"><ele>149.0</ele><time>2026-04-18T10:35:08.573Z</time></trkpt><trkpt lat="43.4247417" lon="10.7746168"><ele>149.0</ele><time>2026-04-18T10:35:09.574Z</time></trkpt><trkpt lat="43.4246857" lon="10.7747032"><ele>149.0</ele><time>2026-04-18T10:35:10.59Z</time></trkpt><trkpt lat="43.4246325" lon="10.7747925"><ele>149.0</ele><time>2026-04-18T10:35:11.58Z</time></trkpt><trkpt lat="43.4245745" lon="10.7748907"><ele>149.0</ele><time>2026-04-18T10:35:12.574Z</time></trkpt><trkpt lat="43.4245208" lon="10.7750183"><ele>149.0</ele><time>2026-04-18T10:35:13.579Z</time></trkpt><trkpt lat="43.4244618" lon="10.7751549"><ele>147.4</ele><time>2026-04-18T10:35:14.573Z</time></trkpt><trkpt lat="43.4244163" lon="10.7752856"><ele>145.8</ele><time>2026-04-18T10:35:15.573Z</time></trkpt><trkpt lat="43.4243879" lon="10.775423"><ele>144.2</ele><time>2026-04-18T10:35:16.574Z</time></trkpt><trkpt lat="43.4243672" lon="10.7755547"><ele>142.6</ele><time>2026-04-18T10:35:17.57Z</time></trkpt><trkpt lat="43.4243624" lon="10.7756796"><ele>141.0</ele><time>2026-04-18T10:35:18.57Z</time></trkpt><trkpt lat="43.4243467" lon="10.775784"><ele>141.0</ele><time>2026-04-18T10:35:19.569Z</time></trkpt><trkpt lat="43.4243165" lon="10.7758941"><ele>141.0</ele><time>2026-04-18T10:35:20.562Z</time></trkpt><trkpt lat="43.4242652" lon="10.7759997"><ele>141.0</ele><time>2026-04-18T10:35:21.558Z</time></trkpt><trkpt lat="43.4242062" lon="10.776094"><ele>141.0</ele><time>2026-04-18T10:35:22.57Z</time></trkpt><trkpt lat="43.4241144" lon="10.7761673"><ele>141.0</ele><time>2026-04-18T10:35:23.56Z</time></trkpt><trkpt lat="43.424003" lon="10.7762178"><ele>142.4</ele><time>2026-04-18T10:35:24.564Z</time></trkpt><trkpt lat="43.4238975" lon="10.7762623"><ele>143.8</ele><time>2026-04-18T10:35:25.57Z</time></trkpt><trkpt lat="43.4237891" lon="10.7763015"><ele>145.20000000000002</ele><time>2026-04-18T10:35:26.565Z</time></trkpt><trkpt lat="43.423681" lon="10.7763372"><ele>146.6</ele><time>2026-04-18T10:35:27.587Z</time></trkpt><trkpt lat="43.4235697" lon="10.776359"><ele>148.0</ele><time>2026-04-18T10:35:28.566Z</time></trkpt><trkpt lat="43.4234526" lon="10.7763595"><ele>144.8</ele><time>2026-04-18T10:35:29.571Z</time></trkpt><trkpt lat="43.4233314" lon="10.7763509"><ele>141.60000000000002</ele><time>2026-04-18T10:35:30.577Z</time></trkpt><trkpt lat="43.4232165" lon="10.7763482"><ele>138.39999999999998</ele><time>2026-04-18T10:35:31.565Z</time></trkpt><trkpt lat="43.4231136" lon="10.7763333"><ele>135.2</ele><time>2026-04-18T10:35:32.565Z</time></trkpt><trkpt lat="43.4230166" lon="10.7763002"><ele>132.0</ele><time>2026-04-18T10:35:33.559Z</time></trkpt><trkpt lat="43.4229261" lon="10.7762151"><ele>131.75</ele><time>2026-04-18T10:35:34.555Z</time></trkpt><trkpt lat="43.42284" lon="10.7760986"><ele>131.5</ele><time>2026-04-18T10:35:35.561Z</time></trkpt><trkpt lat="43.4227725" lon="10.7759386"><ele>131.25</ele><time>2026-04-18T10:35:36.556Z</time></trkpt><trkpt lat="43.4227054" lon="10.7757434"><ele>131.0</ele><time>2026-04-18T10:35:37.556Z</time></trkpt><trkpt lat="43.42265" lon="10.7755247"><ele>131.0</ele><time>2026-04-18T10:35:38.56Z</time></trkpt><trkpt lat="43.4225828" lon="10.7752896"><ele>131.0</ele><time>2026-04-18T10:35:39.566Z</time></trkpt><trkpt lat="43.4225165" lon="10.7750753"><ele>131.0</ele><time>2026-04-18T10:35:40.568Z</time></trkpt><trkpt lat="43.4224606" lon="10.7748865"><ele>130.6</ele><time>2026-04-18T10:35:41.581Z</time></trkpt><trkpt lat="43.4223964" lon="10.7747203"><ele>130.2</ele><time>2026-04-18T10:35:42.563Z</time></trkpt><trkpt lat="43.4223343" lon="10.7745835"><ele>129.8</ele><time>2026-04-18T10:35:43.577Z</time></trkpt><trkpt lat="43.4222975" lon="10.7744784"><ele>129.4</ele><time>2026-04-18T10:35:44.571Z</time></trkpt><trkpt lat="43.4222687" lon="10.774366"><ele>129.0</ele><time>2026-04-18T10:35:45.572Z</time></trkpt><trkpt lat="43.4222289" lon="10.7742912"><ele>128.5</ele><time>2026-04-18T10:35:46.578Z</time></trkpt><trkpt lat="43.4222124" lon="10.7742068"><ele>128.0</ele><time>2026-04-18T10:35:47.571Z</time></trkpt><trkpt lat="43.4221876" lon="10.7741239"><ele>127.5</ele><time>2026-04-18T10:35:49.567Z</time></trkpt><trkpt lat="43.4222211" lon="10.7740365"><ele>127.0</ele><time>2026-04-18T10:35:51.568Z</time></trkpt><trkpt lat="43.4222856" lon="10.7739862"><ele>126.5</ele><time>2026-04-18T10:35:52.567Z</time></trkpt><trkpt lat="43.4223715" lon="10.7739277"><ele>126.0</ele><time>2026-04-18T10:35:53.57Z</time></trkpt><trkpt lat="43.4224705" lon="10.773846"><ele>126.0</ele><time>2026-04-18T10:35:54.555Z</time></trkpt><trkpt lat="43.4225767" lon="10.7737337"><ele>126.0</ele><time>2026-04-18T10:35:55.568Z</time></trkpt><trkpt lat="43.4226631" lon="10.7736221"><ele>126.0</ele><time>2026-04-18T10:35:56.569Z</time></trkpt><trkpt lat="43.4227352" lon="10.7735258"><ele>126.0</ele><time>2026-04-18T10:35:57.573Z</time></trkpt><trkpt lat="43.4228068" lon="10.7734364"><ele>126.0</ele><time>2026-04-18T10:35:58.566Z</time></trkpt><trkpt lat="43.4228769" lon="10.7733602"><ele>125.66666666666667</ele><time>2026-04-18T10:35:59.577Z</time></trkpt><trkpt lat="43.4229393" lon="10.7732887"><ele>125.33333333333334</ele><time>2026-04-18T10:36:00.578Z</time></trkpt><trkpt lat="43.4229951" lon="10.7732296"><ele>125.0</ele><time>2026-04-18T10:36:01.579Z</time></trkpt><trkpt lat="43.4230812" lon="10.7731255"><ele>124.66666666666667</ele><time>2026-04-18T10:36:03.571Z</time></trkpt><trkpt lat="43.4231259" lon="10.7730553"><ele>124.33333333333334</ele><time>2026-04-18T10:37:03.566Z</time></trkpt><trkpt lat="43.4231994" lon="10.772963"><ele>124.0</ele><time>2026-04-18T10:37:05.57Z</time></trkpt><trkpt lat="43.4232538" lon="10.7728652"><ele>124.0</ele><time>2026-04-18T10:37:06.555Z</time></trkpt><trkpt lat="43.4233142" lon="10.7727049"><ele>124.0</ele><time>2026-04-18T10:37:07.572Z</time></trkpt><trkpt lat="43.4233188" lon="10.7725298"><ele>124.0</ele><time>2026-04-18T10:37:08.56Z</time></trkpt><trkpt lat="43.4232967" lon="10.7723643"><ele>124.0</ele><time>2026-04-18T10:37:09.557Z</time></trkpt><trkpt lat="43.4232692" lon="10.7722221"><ele>124.0</ele><time>2026-04-18T10:37:10.558Z</time></trkpt><trkpt lat="43.4232603" lon="10.7720747"><ele>124.0</ele><time>2026-04-18T10:37:11.563Z</time></trkpt><trkpt lat="43.4232963" lon="10.7719085"><ele>124.0</ele><time>2026-04-18T10:37:12.55Z</time></trkpt><trkpt lat="43.4233694" lon="10.7717643"><ele>124.0</ele><time>2026-04-18T10:37:13.569Z</time></trkpt><trkpt lat="43.4234853" lon="10.7716433"><ele>124.33333333333334</ele><time>2026-04-18T10:37:14.563Z</time></trkpt><trkpt lat="43.423659" lon="10.7715196"><ele>124.66666666666666</ele><time>2026-04-18T10:37:15.56Z</time></trkpt><trkpt lat="43.4238547" lon="10.7713658"><ele>125.0</ele><time>2026-04-18T10:37:16.567Z</time></trkpt><trkpt lat="43.4239805" lon="10.7711994"><ele>125.0</ele><time>2026-04-18T10:37:17.563Z</time></trkpt><trkpt lat="43.424084" lon="10.7710269"><ele>125.0</ele><time>2026-04-18T10:37:18.572Z</time></trkpt><trkpt lat="43.4241744" lon="10.7708887"><ele>125.0</ele><time>2026-04-18T10:37:19.57Z</time></trkpt><trkpt lat="43.424257" lon="10.770754"><ele>125.0</ele><time>2026-04-18T10:37:20.565Z</time></trkpt><trkpt lat="43.4243269" lon="10.7705953"><ele>125.5</ele><time>2026-04-18T10:37:21.567Z</time></trkpt><trkpt lat="43.4243601" lon="10.7704133"><ele>126.0</ele><time>2026-04-18T10:37:22.568Z</time></trkpt><trkpt lat="43.4243441" lon="10.7702142"><ele>126.5</ele><time>2026-04-18T10:37:23.564Z</time></trkpt><trkpt lat="43.4243036" lon="10.7700384"><ele>127.0</ele><time>2026-04-18T10:37:24.575Z</time></trkpt><trkpt lat="43.4242207" lon="10.7698679"><ele>126.0</ele><time>2026-04-18T10:37:25.573Z</time></trkpt><trkpt lat="43.4241278" lon="10.7697006"><ele>125.0</ele><time>2026-04-18T10:37:26.568Z</time></trkpt><trkpt lat="43.4240304" lon="10.7695537"><ele>124.0</ele><time>2026-04-18T10:37:27.574Z</time></trkpt><trkpt lat="43.4239748" lon="10.7694217"><ele>123.0</ele><time>2026-04-18T10:37:28.566Z</time></trkpt><trkpt lat="43.4239325" lon="10.7693029"><ele>122.5</ele><time>2026-04-18T10:37:29.566Z</time></trkpt><trkpt lat="43.42392" lon="10.7691763"><ele>122.0</ele><time>2026-04-18T10:37:30.575Z</time></trkpt><trkpt lat="43.4239645" lon="10.7690461"><ele>121.5</ele><time>2026-04-18T10:37:31.556Z</time></trkpt><trkpt lat="43.4240479" lon="10.7689131"><ele>121.0</ele><time>2026-04-18T10:37:32.577Z</time></trkpt><trkpt lat="43.4241634" lon="10.7687828"><ele>121.0</ele><time>2026-04-18T10:37:33.571Z</time></trkpt><trkpt lat="43.4242808" lon="10.7686305"><ele>121.0</ele><time>2026-04-18T10:37:34.57Z</time></trkpt><trkpt lat="43.424395" lon="10.7684514"><ele>121.0</ele><time>2026-04-18T10:37:35.567Z</time></trkpt><trkpt lat="43.4245015" lon="10.7682786"><ele>122.33333333333334</ele><time>2026-04-18T10:37:36.566Z</time></trkpt><trkpt lat="43.4246123" lon="10.7681322"><ele>123.66666666666666</ele><time>2026-04-18T10:37:37.56Z</time></trkpt><trkpt lat="43.4247521" lon="10.7680052"><ele>125.0</ele><time>2026-04-18T10:37:38.564Z</time></trkpt><trkpt lat="43.4249155" lon="10.7678744"><ele>125.0</ele><time>2026-04-18T10:37:39.56Z</time></trkpt><trkpt lat="43.4250709" lon="10.7676953"><ele>125.0</ele><time>2026-04-18T10:37:40.556Z</time></trkpt><trkpt lat="43.4251926" lon="10.7674374"><ele>125.0</ele><time>2026-04-18T10:37:41.584Z</time></trkpt><trkpt lat="43.4252809" lon="10.7671616"><ele>126.33333333333333</ele><time>2026-04-18T10:37:42.565Z</time></trkpt><trkpt lat="43.4253701" lon="10.766888"><ele>127.66666666666666</ele><time>2026-04-18T10:37:43.582Z</time></trkpt><trkpt lat="43.4254549" lon="10.7666493"><ele>129.0</ele><time>2026-04-18T10:37:44.567Z</time></trkpt><trkpt lat="43.4255302" lon="10.7664299"><ele>131.33333333333334</ele><time>2026-04-18T10:37:45.581Z</time></trkpt><trkpt lat="43.4256055" lon="10.7662195"><ele>133.66666666666669</ele><time>2026-04-18T10:37:46.574Z</time></trkpt><trkpt lat="43.4256892" lon="10.7660191"><ele>136.0</ele><time>2026-04-18T10:37:47.57Z</time></trkpt><trkpt lat="43.4257777" lon="10.7658332"><ele>136.0</ele><time>2026-04-18T10:37:48.559Z</time></trkpt><trkpt lat="43.4258914" lon="10.7656791"><ele>136.0</ele><time>2026-04-18T10:37:49.564Z</time></trkpt><trkpt lat="43.4260089" lon="10.7655428"><ele>136.0</ele><time>2026-04-18T10:37:50.566Z</time></trkpt><trkpt lat="43.426099" lon="10.7653852"><ele>136.0</ele><time>2026-04-18T10:37:51.573Z</time></trkpt><trkpt lat="43.4261589" lon="10.765215"><ele>136.0</ele><time>2026-04-18T10:37:52.559Z</time></trkpt><trkpt lat="43.4261707" lon="10.7650132"><ele>136.0</ele><time>2026-04-18T10:37:53.571Z</time></trkpt><trkpt lat="43.4261337" lon="10.7647997"><ele>136.0</ele><time>2026-04-18T10:37:54.567Z</time></trkpt><trkpt lat="43.4261391" lon="10.7646182"><ele>136.0</ele><time>2026-04-18T10:37:55.559Z</time></trkpt><trkpt lat="43.4261773" lon="10.7644441"><ele>136.0</ele><time>2026-04-18T10:37:56.573Z</time></trkpt><trkpt lat="43.4262729" lon="10.764317"><ele>136.0</ele><time>2026-04-18T10:37:57.568Z</time></trkpt><trkpt lat="43.4263857" lon="10.7642081"><ele>136.0</ele><time>2026-04-18T10:37:58.573Z</time></trkpt><trkpt lat="43.4264965" lon="10.7641257"><ele>139.0</ele><time>2026-04-18T10:37:59.564Z</time></trkpt><trkpt lat="43.4265959" lon="10.7640362"><ele>142.0</ele><time>2026-04-18T10:38:00.567Z</time></trkpt><trkpt lat="43.4266348" lon="10.7638671"><ele>145.0</ele><time>2026-04-18T10:38:01.579Z</time></trkpt><trkpt lat="43.4266459" lon="10.7636879"><ele>148.0</ele><time>2026-04-18T10:38:02.57Z</time></trkpt><trkpt lat="43.4266574" lon="10.7635324"><ele>147.25</ele><time>2026-04-18T10:38:03.574Z</time></trkpt><trkpt lat="43.4266786" lon="10.7633835"><ele>146.5</ele><time>2026-04-18T10:38:04.569Z</time></trkpt><trkpt lat="43.426726" lon="10.7632351"><ele>145.75</ele><time>2026-04-18T10:38:05.562Z</time></trkpt><trkpt lat="43.4267997" lon="10.7631009"><ele>145.0</ele><time>2026-04-18T10:38:06.558Z</time></trkpt><trkpt lat="43.426907" lon="10.7630045"><ele>145.0</ele><time>2026-04-18T10:38:07.573Z</time></trkpt><trkpt lat="43.4270504" lon="10.7629438"><ele>145.0</ele><time>2026-04-18T10:38:08.565Z</time></trkpt><trkpt lat="43.4271945" lon="10.762892"><ele>145.0</ele><time>2026-04-18T10:38:09.572Z</time></trkpt><trkpt lat="43.4273201" lon="10.7628425"><ele>145.0</ele><time>2026-04-18T10:38:10.57Z</time></trkpt><trkpt lat="43.4274225" lon="10.7627785"><ele>147.25</ele><time>2026-04-18T10:38:11.568Z</time></trkpt><trkpt lat="43.4274961" lon="10.7626634"><ele>149.5</ele><time>2026-04-18T10:38:12.569Z</time></trkpt><trkpt lat="43.4275347" lon="10.7625153"><ele>151.75</ele><time>2026-04-18T10:38:13.57Z</time></trkpt><trkpt lat="43.4275248" lon="10.7623363"><ele>154.0</ele><time>2026-04-18T10:38:14.566Z</time></trkpt><trkpt lat="43.4275021" lon="10.7621448"><ele>154.0</ele><time>2026-04-18T10:38:15.569Z</time></trkpt><trkpt lat="43.4274854" lon="10.761957"><ele>154.0</ele><time>2026-04-18T10:38:16.582Z</time></trkpt><trkpt lat="43.42747" lon="10.7617756"><ele>154.0</ele><time>2026-04-18T10:38:17.572Z</time></trkpt><trkpt lat="43.4274901" lon="10.7615963"><ele>154.0</ele><time>2026-04-18T10:38:18.57Z</time></trkpt><trkpt lat="43.4275344" lon="10.7614003"><ele>153.66666666666669</ele><time>2026-04-18T10:38:19.566Z</time></trkpt><trkpt lat="43.427634" lon="10.7612209"><ele>153.33333333333334</ele><time>2026-04-18T10:38:20.564Z</time></trkpt><trkpt lat="43.4277494" lon="10.7610469"><ele>153.0</ele><time>2026-04-18T10:38:21.582Z</time></trkpt><trkpt lat="43.4278408" lon="10.7608742"><ele>152.5</ele><time>2026-04-18T10:38:22.574Z</time></trkpt><trkpt lat="43.4278961" lon="10.7606993"><ele>152.0</ele><time>2026-04-18T10:38:23.577Z</time></trkpt><trkpt lat="43.4279568" lon="10.7605526"><ele>151.5</ele><time>2026-04-18T10:38:24.573Z</time></trkpt><trkpt lat="43.4280362" lon="10.7604257"><ele>151.0</ele><time>2026-04-18T10:38:25.577Z</time></trkpt><trkpt lat="43.428141" lon="10.7603309"><ele>152.75</ele><time>2026-04-18T10:38:26.582Z</time></trkpt><trkpt lat="43.4282566" lon="10.7602682"><ele>154.5</ele><time>2026-04-18T10:38:27.57Z</time></trkpt><trkpt lat="43.4283836" lon="10.7602264"><ele>156.25</ele><time>2026-04-18T10:38:28.567Z</time></trkpt><trkpt lat="43.4284932" lon="10.7601896"><ele>158.0</ele><time>2026-04-18T10:38:29.576Z</time></trkpt><trkpt lat="43.4286068" lon="10.7601181"><ele>158.66666666666666</ele><time>2026-04-18T10:38:30.573Z</time></trkpt><trkpt lat="43.4287252" lon="10.7600008"><ele>159.33333333333334</ele><time>2026-04-18T10:38:31.572Z</time></trkpt><trkpt lat="43.4288469" lon="10.7598523"><ele>160.0</ele><time>2026-04-18T10:38:32.577Z</time></trkpt><trkpt lat="43.4289657" lon="10.7596923"><ele>158.0</ele><time>2026-04-18T10:38:33.578Z</time></trkpt><trkpt lat="43.4290803" lon="10.7595771"><ele>156.0</ele><time>2026-04-18T10:38:34.57Z</time></trkpt><trkpt lat="43.4292025" lon="10.7595069"><ele>154.0</ele><time>2026-04-18T10:38:35.574Z</time></trkpt><trkpt lat="43.4293662" lon="10.7594852"><ele>152.0</ele><time>2026-04-18T10:38:36.587Z</time></trkpt><trkpt lat="43.4295276" lon="10.759508"><ele>150.33333333333331</ele><time>2026-04-18T10:38:37.585Z</time></trkpt><trkpt lat="43.429696" lon="10.7595661"><ele>148.66666666666666</ele><time>2026-04-18T10:38:38.586Z</time></trkpt><trkpt lat="43.4298604" lon="10.759626"><ele>147.0</ele><time>2026-04-18T10:38:39.585Z</time></trkpt><trkpt lat="43.4300108" lon="10.7597145"><ele>147.0</ele><time>2026-04-18T10:38:40.59Z</time></trkpt><trkpt lat="43.4301647" lon="10.7597724"><ele>147.0</ele><time>2026-04-18T10:38:41.58Z</time></trkpt><trkpt lat="43.4303151" lon="10.7597887"><ele>147.0</ele><time>2026-04-18T10:38:42.582Z</time></trkpt><trkpt lat="43.4304845" lon="10.7597794"><ele>147.66666666666666</ele><time>2026-04-18T10:38:43.574Z</time></trkpt><trkpt lat="43.4306486" lon="10.7597353"><ele>148.33333333333331</ele><time>2026-04-18T10:38:44.579Z</time></trkpt><trkpt lat="43.4308102" lon="10.7596806"><ele>149.0</ele><time>2026-04-18T10:38:45.581Z</time></trkpt><trkpt lat="43.4309778" lon="10.7596227"><ele>149.0</ele><time>2026-04-18T10:38:46.584Z</time></trkpt><trkpt lat="43.4311452" lon="10.7595659"><ele>149.0</ele><time>2026-04-18T10:38:47.593Z</time></trkpt><trkpt lat="43.4313069" lon="10.7594985"><ele>149.0</ele><time>2026-04-18T10:38:48.581Z</time></trkpt><trkpt lat="43.4314654" lon="10.759454"><ele>149.5</ele><time>2026-04-18T10:38:49.582Z</time></trkpt><trkpt lat="43.4316096" lon="10.7594126"><ele>150.0</ele><time>2026-04-18T10:38:50.575Z</time></trkpt><trkpt lat="43.4317355" lon="10.7593622"><ele>150.5</ele><time>2026-04-18T10:38:51.582Z</time></trkpt><trkpt lat="43.4318519" lon="10.759324"><ele>151.0</ele><time>2026-04-18T10:38:52.569Z</time></trkpt><trkpt lat="43.4319495" lon="10.7593001"><ele>149.66666666666669</ele><time>2026-04-18T10:38:53.569Z</time></trkpt><trkpt lat="43.4320201" lon="10.7592869"><ele>148.33333333333334</ele><time>2026-04-18T10:38:54.575Z</time></trkpt><trkpt lat="43.4321277" lon="10.7592724"><ele>147.0</ele><time>2026-04-18T10:38:56.581Z</time></trkpt><trkpt lat="43.4321973" lon="10.7592152"><ele>145.66666666666666</ele><time>2026-04-18T10:38:58.582Z</time></trkpt><trkpt lat="43.4322247" lon="10.7591324"><ele>144.33333333333331</ele><time>2026-04-18T10:38:59.581Z</time></trkpt><trkpt lat="43.4322393" lon="10.7590169"><ele>143.0</ele><time>2026-04-18T10:39:00.58Z</time></trkpt><trkpt lat="43.4322533" lon="10.7588788"><ele>141.75</ele><time>2026-04-18T10:39:01.573Z</time></trkpt><trkpt lat="43.4322764" lon="10.7587154"><ele>140.5</ele><time>2026-04-18T10:39:02.577Z</time></trkpt><trkpt lat="43.4323311" lon="10.7585469"><ele>139.25</ele><time>2026-04-18T10:39:03.572Z</time></trkpt><trkpt lat="43.4323897" lon="10.7583821"><ele>138.0</ele><time>2026-04-18T10:39:04.573Z</time></trkpt><trkpt lat="43.432459" lon="10.7582171"><ele>137.5</ele><time>2026-04-18T10:39:05.579Z</time></trkpt><trkpt lat="43.4325349" lon="10.7580633"><ele>137.0</ele><time>2026-04-18T10:39:06.579Z</time></trkpt><trkpt lat="43.4326365" lon="10.7579113"><ele>136.5</ele><time>2026-04-18T10:39:07.6Z</time></trkpt><trkpt lat="43.4327444" lon="10.7577606"><ele>136.0</ele><time>2026-04-18T10:39:08.601Z</time></trkpt><trkpt lat="43.4328544" lon="10.7576055"><ele>135.66666666666669</ele><time>2026-04-18T10:39:09.595Z</time></trkpt><trkpt lat="43.4329647" lon="10.7574567"><ele>135.33333333333334</ele><time>2026-04-18T10:39:10.604Z</time></trkpt><trkpt lat="43.433078" lon="10.7573059"><ele>135.0</ele><time>2026-04-18T10:39:11.59Z</time></trkpt><trkpt lat="43.4331863" lon="10.7571546"><ele>135.0</ele><time>2026-04-18T10:39:12.594Z</time></trkpt><trkpt lat="43.4332762" lon="10.7570225"><ele>135.0</ele><time>2026-04-18T10:39:13.599Z</time></trkpt><trkpt lat="43.4333577" lon="10.756895"><ele>135.0</ele><time>2026-04-18T10:39:14.598Z</time></trkpt><trkpt lat="43.4334381" lon="10.7567871"><ele>135.0</ele><time>2026-04-18T10:39:15.598Z</time></trkpt><trkpt lat="43.4335179" lon="10.7566875"><ele>135.0</ele><time>2026-04-18T10:39:16.587Z</time></trkpt><trkpt lat="43.4335945" lon="10.7565835"><ele>135.0</ele><time>2026-04-18T10:39:17.589Z</time></trkpt><trkpt lat="43.4336517" lon="10.7564708"><ele>135.0</ele><time>2026-04-18T10:39:18.597Z</time></trkpt><trkpt lat="43.4336862" lon="10.7563466"><ele>135.0</ele><time>2026-04-18T10:39:19.599Z</time></trkpt><trkpt lat="43.4336846" lon="10.7561925"><ele>135.0</ele><time>2026-04-18T10:39:20.59Z</time></trkpt><trkpt lat="43.4336614" lon="10.7560261"><ele>135.25</ele><time>2026-04-18T10:39:21.584Z</time></trkpt><trkpt lat="43.4336157" lon="10.7558392"><ele>135.5</ele><time>2026-04-18T10:39:22.577Z</time></trkpt><trkpt lat="43.4335837" lon="10.7556465"><ele>135.75</ele><time>2026-04-18T10:39:23.582Z</time></trkpt><trkpt lat="43.4335519" lon="10.7554497"><ele>136.0</ele><time>2026-04-18T10:39:24.583Z</time></trkpt><trkpt lat="43.4335163" lon="10.7552632"><ele>136.66666666666669</ele><time>2026-04-18T10:39:25.579Z</time></trkpt><trkpt lat="43.4334436" lon="10.7550571"><ele>137.33333333333334</ele><time>2026-04-18T10:39:26.577Z</time></trkpt><trkpt lat="43.4333433" lon="10.7548519"><ele>138.0</ele><time>2026-04-18T10:39:27.578Z</time></trkpt><trkpt lat="43.4332174" lon="10.7546392"><ele>138.0</ele><time>2026-04-18T10:39:28.578Z</time></trkpt><trkpt lat="43.4330887" lon="10.7544234"><ele>138.0</ele><time>2026-04-18T10:39:29.591Z</time></trkpt><trkpt lat="43.4329715" lon="10.7542132"><ele>138.0</ele><time>2026-04-18T10:39:30.584Z</time></trkpt><trkpt lat="43.4328541" lon="10.7540084"><ele>138.66666666666666</ele><time>2026-04-18T10:39:31.582Z</time></trkpt><trkpt lat="43.4327468" lon="10.7538119"><ele>139.33333333333331</ele><time>2026-04-18T10:39:32.581Z</time></trkpt><trkpt lat="43.4326452" lon="10.7536192"><ele>140.0</ele><time>2026-04-18T10:39:33.577Z</time></trkpt><trkpt lat="43.4325307" lon="10.753425"><ele>141.66666666666666</ele><time>2026-04-18T10:39:34.577Z</time></trkpt><trkpt lat="43.432412" lon="10.7532175"><ele>143.33333333333334</ele><time>2026-04-18T10:39:35.579Z</time></trkpt><trkpt lat="43.4322887" lon="10.7530206"><ele>145.0</ele><time>2026-04-18T10:39:36.579Z</time></trkpt><trkpt lat="43.4321675" lon="10.7528186"><ele>144.66666666666669</ele><time>2026-04-18T10:39:37.596Z</time></trkpt><trkpt lat="43.4320504" lon="10.7526141"><ele>144.33333333333334</ele><time>2026-04-18T10:39:38.593Z</time></trkpt><trkpt lat="43.4319349" lon="10.7524073"><ele>144.0</ele><time>2026-04-18T10:39:39.587Z</time></trkpt><trkpt lat="43.4318122" lon="10.752195"><ele>144.0</ele><time>2026-04-18T10:39:40.59Z</time></trkpt><trkpt lat="43.4316954" lon="10.7519894"><ele>144.0</ele><time>2026-04-18T10:39:41.59Z</time></trkpt><trkpt lat="43.4315955" lon="10.7518122"><ele>144.0</ele><time>2026-04-18T10:39:42.583Z</time></trkpt><trkpt lat="43.4314936" lon="10.7516433"><ele>144.25</ele><time>2026-04-18T10:39:43.591Z</time></trkpt><trkpt lat="43.4313982" lon="10.7514694"><ele>144.5</ele><time>2026-04-18T10:39:44.589Z</time></trkpt><trkpt lat="43.4313091" lon="10.7513112"><ele>144.75</ele><time>2026-04-18T10:39:45.58Z</time></trkpt><trkpt lat="43.4312315" lon="10.7511716"><ele>145.0</ele><time>2026-04-18T10:39:46.573Z</time></trkpt><trkpt lat="43.4311735" lon="10.7510095"><ele>145.75</ele><time>2026-04-18T10:39:47.566Z</time></trkpt><trkpt lat="43.4311339" lon="10.7508541"><ele>146.5</ele><time>2026-04-18T10:39:48.582Z</time></trkpt><trkpt lat="43.4311118" lon="10.7506606"><ele>147.25</ele><time>2026-04-18T10:39:49.589Z</time></trkpt><trkpt lat="43.4311046" lon="10.750472"><ele>148.0</ele><time>2026-04-18T10:39:50.578Z</time></trkpt><trkpt lat="43.4311076" lon="10.7502592"><ele>148.5</ele><time>2026-04-18T10:39:51.581Z</time></trkpt><trkpt lat="43.4311545" lon="10.7500716"><ele>149.0</ele><time>2026-04-18T10:39:52.571Z</time></trkpt><trkpt lat="43.4312087" lon="10.7498717"><ele>149.5</ele><time>2026-04-18T10:39:53.578Z</time></trkpt><trkpt lat="43.4312764" lon="10.7496947"><ele>150.0</ele><time>2026-04-18T10:39:54.574Z</time></trkpt><trkpt lat="43.4313253" lon="10.7495304"><ele>152.25</ele><time>2026-04-18T10:39:55.576Z</time></trkpt><trkpt lat="43.4313654" lon="10.7493857"><ele>154.5</ele><time>2026-04-18T10:39:56.577Z</time></trkpt><trkpt lat="43.4313967" lon="10.749225"><ele>156.75</ele><time>2026-04-18T10:39:57.573Z</time></trkpt><trkpt lat="43.4314148" lon="10.749076"><ele>159.0</ele><time>2026-04-18T10:39:58.577Z</time></trkpt><trkpt lat="43.4314091" lon="10.748926"><ele>159.0</ele><time>2026-04-18T10:39:59.569Z</time></trkpt><trkpt lat="43.4313717" lon="10.7487743"><ele>159.0</ele><time>2026-04-18T10:40:00.574Z</time></trkpt><trkpt lat="43.4313117" lon="10.7486163"><ele>159.0</ele><time>2026-04-18T10:40:01.572Z</time></trkpt><trkpt lat="43.4312269" lon="10.7484769"><ele>159.0</ele><time>2026-04-18T10:40:02.567Z</time></trkpt><trkpt lat="43.4311287" lon="10.7483814"><ele>158.2</ele><time>2026-04-18T10:40:03.572Z</time></trkpt><trkpt lat="43.4310377" lon="10.7483057"><ele>157.4</ele><time>2026-04-18T10:40:04.562Z</time></trkpt><trkpt lat="43.4309654" lon="10.7482248"><ele>156.6</ele><time>2026-04-18T10:40:05.586Z</time></trkpt><trkpt lat="43.4309217" lon="10.7481033"><ele>155.8</ele><time>2026-04-18T10:40:06.572Z</time></trkpt><trkpt lat="43.4309105" lon="10.7479593"><ele>155.0</ele><time>2026-04-18T10:40:07.563Z</time></trkpt><trkpt lat="43.4309283" lon="10.7477785"><ele>156.66666666666666</ele><time>2026-04-18T10:40:08.571Z</time></trkpt><trkpt lat="43.4309729" lon="10.747578"><ele>158.33333333333334</ele><time>2026-04-18T10:40:09.571Z</time></trkpt><trkpt lat="43.4310336" lon="10.7473707"><ele>160.0</ele><time>2026-04-18T10:40:10.562Z</time></trkpt><trkpt lat="43.4310945" lon="10.7471334"><ele>160.0</ele><time>2026-04-18T10:40:11.576Z</time></trkpt><trkpt lat="43.4311617" lon="10.7469131"><ele>160.0</ele><time>2026-04-18T10:40:12.568Z</time></trkpt><trkpt lat="43.4312239" lon="10.7466821"><ele>160.0</ele><time>2026-04-18T10:40:13.573Z</time></trkpt><trkpt lat="43.4312845" lon="10.7464456"><ele>161.33333333333334</ele><time>2026-04-18T10:40:14.575Z</time></trkpt><trkpt lat="43.4313598" lon="10.7462267"><ele>162.66666666666666</ele><time>2026-04-18T10:40:15.573Z</time></trkpt><trkpt lat="43.4314377" lon="10.7460171"><ele>164.0</ele><time>2026-04-18T10:40:16.572Z</time></trkpt><trkpt lat="43.4315355" lon="10.7458335"><ele>164.0</ele><time>2026-04-18T10:40:17.579Z</time></trkpt><trkpt lat="43.4316592" lon="10.7456609"><ele>164.0</ele><time>2026-04-18T10:40:18.571Z</time></trkpt><trkpt lat="43.4317972" lon="10.7454979"><ele>164.0</ele><time>2026-04-18T10:40:19.576Z</time></trkpt><trkpt lat="43.4319514" lon="10.7453107"><ele>163.0</ele><time>2026-04-18T10:40:20.582Z</time></trkpt><trkpt lat="43.4321137" lon="10.7451159"><ele>162.0</ele><time>2026-04-18T10:40:21.59Z</time></trkpt><trkpt lat="43.4322839" lon="10.7449226"><ele>161.0</ele><time>2026-04-18T10:40:22.581Z</time></trkpt><trkpt lat="43.4324729" lon="10.7447032"><ele>163.5</ele><time>2026-04-18T10:40:23.569Z</time></trkpt><trkpt lat="43.4326753" lon="10.7444724"><ele>166.0</ele><time>2026-04-18T10:40:24.574Z</time></trkpt><trkpt lat="43.4328896" lon="10.744227"><ele>168.5</ele><time>2026-04-18T10:40:25.583Z</time></trkpt><trkpt lat="43.4331005" lon="10.7439923"><ele>171.0</ele><time>2026-04-18T10:40:26.57Z</time></trkpt><trkpt lat="43.4332931" lon="10.7438036"><ele>171.0</ele><time>2026-04-18T10:40:27.588Z</time></trkpt><trkpt lat="43.4334762" lon="10.7436067"><ele>171.0</ele><time>2026-04-18T10:40:28.581Z</time></trkpt><trkpt lat="43.4336563" lon="10.7434012"><ele>171.66666666666666</ele><time>2026-04-18T10:40:29.581Z</time></trkpt><trkpt lat="43.4338298" lon="10.7432122"><ele>172.33333333333331</ele><time>2026-04-18T10:40:30.584Z</time></trkpt><trkpt lat="43.4339911" lon="10.7430217"><ele>173.0</ele><time>2026-04-18T10:40:31.575Z</time></trkpt><trkpt lat="43.4341476" lon="10.7428514"><ele>172.66666666666666</ele><time>2026-04-18T10:40:32.575Z</time></trkpt><trkpt lat="43.4342821" lon="10.7427043"><ele>172.33333333333334</ele><time>2026-04-18T10:40:33.571Z</time></trkpt><trkpt lat="43.434407" lon="10.742544"><ele>172.0</ele><time>2026-04-18T10:40:34.56Z</time></trkpt><trkpt lat="43.4345072" lon="10.7423549"><ele>172.0</ele><time>2026-04-18T10:40:35.568Z</time></trkpt><trkpt lat="43.4345953" lon="10.7421676"><ele>172.0</ele><time>2026-04-18T10:40:36.574Z</time></trkpt><trkpt lat="43.4346666" lon="10.7419643"><ele>172.0</ele><time>2026-04-18T10:40:37.585Z</time></trkpt><trkpt lat="43.4347148" lon="10.7417468"><ele>172.66666666666669</ele><time>2026-04-18T10:40:38.591Z</time></trkpt><trkpt lat="43.4347381" lon="10.7415062"><ele>173.33333333333334</ele><time>2026-04-18T10:40:39.58Z</time></trkpt><trkpt lat="43.4347574" lon="10.7412329"><ele>174.0</ele><time>2026-04-18T10:40:40.601Z</time></trkpt><trkpt lat="43.4347398" lon="10.7409119"><ele>174.5</ele><time>2026-04-18T10:40:41.595Z</time></trkpt><trkpt lat="43.4347355" lon="10.7405736"><ele>175.0</ele><time>2026-04-18T10:40:42.587Z</time></trkpt><trkpt lat="43.4347359" lon="10.7402364"><ele>176.5</ele><time>2026-04-18T10:40:43.589Z</time></trkpt><trkpt lat="43.4347353" lon="10.7399099"><ele>178.0</ele><time>2026-04-18T10:40:44.587Z</time></trkpt><trkpt lat="43.4347405" lon="10.7395826"><ele>179.0</ele><time>2026-04-18T10:40:45.584Z</time></trkpt><trkpt lat="43.4347533" lon="10.7392915"><ele>180.0</ele><time>2026-04-18T10:40:46.579Z</time></trkpt><trkpt lat="43.4347691" lon="10.7390169"><ele>181.0</ele><time>2026-04-18T10:40:47.586Z</time></trkpt><trkpt lat="43.4347728" lon="10.7387351"><ele>182.66666666666669</ele><time>2026-04-18T10:40:48.585Z</time></trkpt><trkpt lat="43.4347673" lon="10.7384509"><ele>184.33333333333334</ele><time>2026-04-18T10:40:49.587Z</time></trkpt><trkpt lat="43.4347716" lon="10.7381626"><ele>186.0</ele><time>2026-04-18T10:40:50.58Z</time></trkpt><trkpt lat="43.4347713" lon="10.7378762"><ele>187.0</ele><time>2026-04-18T10:40:51.6Z</time></trkpt><trkpt lat="43.4347749" lon="10.7376052"><ele>188.0</ele><time>2026-04-18T10:40:52.585Z</time></trkpt><trkpt lat="43.43478" lon="10.7373369"><ele>189.0</ele><time>2026-04-18T10:40:53.573Z</time></trkpt><trkpt lat="43.4347948" lon="10.7371016"><ele>189.0</ele><time>2026-04-18T10:40:54.58Z</time></trkpt><trkpt lat="43.4348133" lon="10.7369033"><ele>189.0</ele><time>2026-04-18T10:40:55.578Z</time></trkpt><trkpt lat="43.4348577" lon="10.7367359"><ele>189.0</ele><time>2026-04-18T10:40:56.584Z</time></trkpt><trkpt lat="43.4349313" lon="10.7365854"><ele>189.0</ele><time>2026-04-18T10:40:57.579Z</time></trkpt><trkpt lat="43.4350181" lon="10.7364389"><ele>190.0</ele><time>2026-04-18T10:40:58.581Z</time></trkpt><trkpt lat="43.4351194" lon="10.7362908"><ele>191.0</ele><time>2026-04-18T10:40:59.59Z</time></trkpt><trkpt lat="43.4351949" lon="10.736121"><ele>192.0</ele><time>2026-04-18T10:41:00.593Z</time></trkpt><trkpt lat="43.4352693" lon="10.7359379"><ele>193.0</ele><time>2026-04-18T10:41:01.591Z</time></trkpt><trkpt lat="43.4353576" lon="10.735775"><ele>194.0</ele><time>2026-04-18T10:41:02.593Z</time></trkpt><trkpt lat="43.4354364" lon="10.7356139"><ele>195.0</ele><time>2026-04-18T10:41:03.589Z</time></trkpt><trkpt lat="43.4355198" lon="10.7354473"><ele>196.0</ele><time>2026-04-18T10:41:04.594Z</time></trkpt><trkpt lat="43.4355877" lon="10.7352893"><ele>197.0</ele><time>2026-04-18T10:41:05.587Z</time></trkpt><trkpt lat="43.4356488" lon="10.7351509"><ele>198.75</ele><time>2026-04-18T10:41:06.595Z</time></trkpt><trkpt lat="43.435695" lon="10.7350098"><ele>200.5</ele><time>2026-04-18T10:41:07.585Z</time></trkpt><trkpt lat="43.4357147" lon="10.7348276"><ele>202.25</ele><time>2026-04-18T10:41:08.593Z</time></trkpt><trkpt lat="43.4357162" lon="10.7346269"><ele>204.0</ele><time>2026-04-18T10:41:09.574Z</time></trkpt><trkpt lat="43.4356978" lon="10.7344297"><ele>205.25</ele><time>2026-04-18T10:41:10.598Z</time></trkpt><trkpt lat="43.4356776" lon="10.7342421"><ele>206.5</ele><time>2026-04-18T10:41:11.61Z</time></trkpt><trkpt lat="43.43565" lon="10.7340563"><ele>207.75</ele><time>2026-04-18T10:41:12.608Z</time></trkpt><trkpt lat="43.4356205" lon="10.7338903"><ele>209.0</ele><time>2026-04-18T10:41:13.596Z</time></trkpt><trkpt lat="43.4356006" lon="10.7337382"><ele>209.0</ele><time>2026-04-18T10:41:14.591Z</time></trkpt><trkpt lat="43.435621" lon="10.7335985"><ele>209.0</ele><time>2026-04-18T10:41:15.586Z</time></trkpt><trkpt lat="43.4356562" lon="10.7334531"><ele>209.0</ele><time>2026-04-18T10:41:16.598Z</time></trkpt><trkpt lat="43.4357302" lon="10.7333292"><ele>209.0</ele><time>2026-04-18T10:41:17.588Z</time></trkpt><trkpt lat="43.4358394" lon="10.7332363"><ele>211.2</ele><time>2026-04-18T10:41:18.574Z</time></trkpt><trkpt lat="43.435953" lon="10.7331606"><ele>213.39999999999998</ele><time>2026-04-18T10:41:19.577Z</time></trkpt><trkpt lat="43.4360406" lon="10.7330787"><ele>215.6</ele><time>2026-04-18T10:41:20.581Z</time></trkpt><trkpt lat="43.4360973" lon="10.7329796"><ele>217.8</ele><time>2026-04-18T10:41:21.589Z</time></trkpt><trkpt lat="43.4361289" lon="10.7328528"><ele>220.0</ele><time>2026-04-18T10:41:22.587Z</time></trkpt><trkpt lat="43.4361429" lon="10.7327172"><ele>221.75</ele><time>2026-04-18T10:41:23.586Z</time></trkpt><trkpt lat="43.4361106" lon="10.7325774"><ele>223.5</ele><time>2026-04-18T10:41:24.586Z</time></trkpt><trkpt lat="43.4360346" lon="10.7324672"><ele>225.25</ele><time>2026-04-18T10:41:25.578Z</time></trkpt><trkpt lat="43.4359305" lon="10.7323859"><ele>227.0</ele><time>2026-04-18T10:41:26.582Z</time></trkpt><trkpt lat="43.4358023" lon="10.7323428"><ele>227.0</ele><time>2026-04-18T10:41:27.571Z</time></trkpt><trkpt lat="43.4356958" lon="10.732311"><ele>227.0</ele><time>2026-04-18T10:41:28.575Z</time></trkpt><trkpt lat="43.4356179" lon="10.732267"><ele>227.0</ele><time>2026-04-18T10:41:29.596Z</time></trkpt><trkpt lat="43.4355766" lon="10.7321887"><ele>227.0</ele><time>2026-04-18T10:41:30.579Z</time></trkpt><trkpt lat="43.4355533" lon="10.7320826"><ele>227.0</ele><time>2026-04-18T10:41:31.592Z</time></trkpt><trkpt lat="43.4355448" lon="10.7319199"><ele>229.5</ele><time>2026-04-18T10:41:32.587Z</time></trkpt><trkpt lat="43.4355574" lon="10.7317362"><ele>232.0</ele><time>2026-04-18T10:41:33.569Z</time></trkpt><trkpt lat="43.4355889" lon="10.7315548"><ele>234.5</ele><time>2026-04-18T10:41:34.574Z</time></trkpt><trkpt lat="43.4356329" lon="10.7313868"><ele>237.0</ele><time>2026-04-18T10:41:35.572Z</time></trkpt><trkpt lat="43.4356609" lon="10.7312338"><ele>237.0</ele><time>2026-04-18T10:41:36.581Z</time></trkpt><trkpt lat="43.4356492" lon="10.7310941"><ele>237.0</ele><time>2026-04-18T10:41:37.579Z</time></trkpt><trkpt lat="43.4355992" lon="10.730938"><ele>237.0</ele><time>2026-04-18T10:41:38.566Z</time></trkpt><trkpt lat="43.4355002" lon="10.7307882"><ele>237.0</ele><time>2026-04-18T10:41:39.568Z</time></trkpt><trkpt lat="43.435379" lon="10.7306441"><ele>239.0</ele><time>2026-04-18T10:41:40.564Z</time></trkpt><trkpt lat="43.4352342" lon="10.7304676"><ele>241.0</ele><time>2026-04-18T10:41:41.568Z</time></trkpt><trkpt lat="43.4351032" lon="10.7303048"><ele>243.0</ele><time>2026-04-18T10:41:42.572Z</time></trkpt><trkpt lat="43.4350189" lon="10.7301507"><ele>247.25</ele><time>2026-04-18T10:41:43.558Z</time></trkpt><trkpt lat="43.4349405" lon="10.7299937"><ele>251.5</ele><time>2026-04-18T10:41:44.562Z</time></trkpt><trkpt lat="43.4348832" lon="10.7298453"><ele>255.75</ele><time>2026-04-18T10:41:45.556Z</time></trkpt><trkpt lat="43.4348454" lon="10.7296677"><ele>260.0</ele><time>2026-04-18T10:41:46.556Z</time></trkpt><trkpt lat="43.4348134" lon="10.7294764"><ele>264.75</ele><time>2026-04-18T10:41:47.557Z</time></trkpt><trkpt lat="43.4347727" lon="10.7292909"><ele>269.5</ele><time>2026-04-18T10:41:48.557Z</time></trkpt><trkpt lat="43.4347421" lon="10.7291042"><ele>274.25</ele><time>2026-04-18T10:41:49.551Z</time></trkpt><trkpt lat="43.4347218" lon="10.7289363"><ele>279.0</ele><time>2026-04-18T10:41:50.558Z</time></trkpt><trkpt lat="43.4347129" lon="10.7287887"><ele>279.0</ele><time>2026-04-18T10:41:51.561Z</time></trkpt><trkpt lat="43.4347001" lon="10.7286326"><ele>279.0</ele><time>2026-04-18T10:41:52.552Z</time></trkpt><trkpt lat="43.4346987" lon="10.728468"><ele>279.0</ele><time>2026-04-18T10:41:53.565Z</time></trkpt><trkpt lat="43.4347146" lon="10.7282956"><ele>279.0</ele><time>2026-04-18T10:41:54.545Z</time></trkpt><trkpt lat="43.4347638" lon="10.7281106"><ele>281.25</ele><time>2026-04-18T10:41:55.544Z</time></trkpt><trkpt lat="43.4348034" lon="10.7279223"><ele>283.5</ele><time>2026-04-18T10:41:56.548Z</time></trkpt><trkpt lat="43.4348361" lon="10.7277678"><ele>285.75</ele><time>2026-04-18T10:41:57.557Z</time></trkpt><trkpt lat="43.4348541" lon="10.7276135"><ele>288.0</ele><time>2026-04-18T10:41:58.558Z</time></trkpt><trkpt lat="43.4348659" lon="10.7274804"><ele>288.0</ele><time>2026-04-18T10:41:59.566Z</time></trkpt><trkpt lat="43.4348862" lon="10.7273333"><ele>288.0</ele><time>2026-04-18T10:42:00.565Z</time></trkpt><trkpt lat="43.4349023" lon="10.727185"><ele>288.0</ele><time>2026-04-18T10:42:01.569Z</time></trkpt><trkpt lat="43.4349024" lon="10.7270292"><ele>288.0</ele><time>2026-04-18T10:42:02.568Z</time></trkpt><trkpt lat="43.4348736" lon="10.7268662"><ele>288.8</ele><time>2026-04-18T10:42:03.57Z</time></trkpt><trkpt lat="43.4348347" lon="10.7266953"><ele>289.6</ele><time>2026-04-18T10:42:04.572Z</time></trkpt><trkpt lat="43.4347918" lon="10.7265411"><ele>290.4</ele><time>2026-04-18T10:42:05.56Z</time></trkpt><trkpt lat="43.4347482" lon="10.726412"><ele>291.2</ele><time>2026-04-18T10:42:06.567Z</time></trkpt><trkpt lat="43.4346934" lon="10.7263069"><ele>292.0</ele><time>2026-04-18T10:42:07.563Z</time></trkpt><trkpt lat="43.434664" lon="10.7261895"><ele>293.4</ele><time>2026-04-18T10:42:08.553Z</time></trkpt><trkpt lat="43.4346542" lon="10.7260382"><ele>294.79999999999995</ele><time>2026-04-18T10:42:09.549Z</time></trkpt><trkpt lat="43.4346462" lon="10.7258776"><ele>296.2</ele><time>2026-04-18T10:42:10.55Z</time></trkpt><trkpt lat="43.4346392" lon="10.7257317"><ele>297.59999999999997</ele><time>2026-04-18T10:42:11.548Z</time></trkpt><trkpt lat="43.4346189" lon="10.72561"><ele>299.0</ele><time>2026-04-18T10:42:12.548Z</time></trkpt><trkpt lat="43.4346104" lon="10.7255216"><ele>299.0</ele><time>2026-04-18T10:42:13.564Z</time></trkpt><trkpt lat="43.4346212" lon="10.7253591"><ele>299.0</ele><time>2026-04-18T10:42:15.553Z</time></trkpt><trkpt lat="43.4346674" lon="10.7252745"><ele>299.0</ele><time>2026-04-18T10:42:16.556Z</time></trkpt><trkpt lat="43.4347357" lon="10.7251905"><ele>299.0</ele><time>2026-04-18T10:42:17.565Z</time></trkpt><trkpt lat="43.4348205" lon="10.7251132"><ele>299.0</ele><time>2026-04-18T10:42:18.555Z</time></trkpt><trkpt lat="43.4349002" lon="10.7250032"><ele>301.5</ele><time>2026-04-18T10:42:19.574Z</time></trkpt><trkpt lat="43.4349747" lon="10.7248759"><ele>304.0</ele><time>2026-04-18T10:42:20.569Z</time></trkpt><trkpt lat="43.435048" lon="10.724756"><ele>306.5</ele><time>2026-04-18T10:42:21.573Z</time></trkpt><trkpt lat="43.4351185" lon="10.7246321"><ele>309.0</ele><time>2026-04-18T10:42:22.571Z</time></trkpt><trkpt lat="43.435196" lon="10.7244962"><ele>311.4</ele><time>2026-04-18T10:42:23.571Z</time></trkpt><trkpt lat="43.4352552" lon="10.724364"><ele>313.79999999999995</ele><time>2026-04-18T10:42:24.581Z</time></trkpt><trkpt lat="43.4352981" lon="10.7242275"><ele>316.20000000000005</ele><time>2026-04-18T10:42:25.563Z</time></trkpt><trkpt lat="43.4353359" lon="10.7241052"><ele>318.6</ele><time>2026-04-18T10:42:26.562Z</time></trkpt><trkpt lat="43.4353625" lon="10.7240056"><ele>321.0</ele><time>2026-04-18T10:42:27.567Z</time></trkpt><trkpt lat="43.4353908" lon="10.7239114"><ele>321.0</ele><time>2026-04-18T10:42:28.554Z</time></trkpt><trkpt lat="43.4354439" lon="10.7237679"><ele>321.0</ele><time>2026-04-18T10:42:30.551Z</time></trkpt><trkpt lat="43.4354881" lon="10.7236577"><ele>321.0</ele><time>2026-04-18T10:42:32.548Z</time></trkpt><trkpt lat="43.4354828" lon="10.7235247"><ele>321.0</ele><time>2026-04-18T10:42:34.551Z</time></trkpt><trkpt lat="43.4354356" lon="10.7234246"><ele>321.0</ele><time>2026-04-18T10:42:37.552Z</time></trkpt><trkpt lat="43.4353664" lon="10.7233873"><ele>323.0</ele><time>2026-04-18T10:42:39.547Z</time></trkpt><trkpt lat="43.4352665" lon="10.7233238"><ele>325.0</ele><time>2026-04-18T10:42:41.539Z</time></trkpt><trkpt lat="43.4351816" lon="10.7232617"><ele>327.0</ele><time>2026-04-18T10:42:43.539Z</time></trkpt><trkpt lat="43.4351379" lon="10.7231799"><ele>329.0</ele><time>2026-04-18T10:42:45.525Z</time></trkpt><trkpt lat="43.4351699" lon="10.7230327"><ele>331.0</ele><time>2026-04-18T10:42:47.529Z</time></trkpt><trkpt lat="43.4351735" lon="10.7229227"><ele>331.0</ele><time>2026-04-18T10:42:48.529Z</time></trkpt><trkpt lat="43.4351573" lon="10.7228147"><ele>331.0</ele><time>2026-04-18T10:42:49.546Z</time></trkpt><trkpt lat="43.4351293" lon="10.7227094"><ele>331.0</ele><time>2026-04-18T10:42:50.539Z</time></trkpt><trkpt lat="43.4351148" lon="10.7225931"><ele>331.0</ele><time>2026-04-18T10:42:51.547Z</time></trkpt><trkpt lat="43.4350982" lon="10.7224661"><ele>331.0</ele><time>2026-04-18T10:42:52.535Z</time></trkpt><trkpt lat="43.4350885" lon="10.7223351"><ele>331.0</ele><time>2026-04-18T10:42:53.541Z</time></trkpt><trkpt lat="43.4350896" lon="10.722214"><ele>332.3333333333333</ele><time>2026-04-18T10:42:54.541Z</time></trkpt><trkpt lat="43.4350771" lon="10.7221054"><ele>333.66666666666663</ele><time>2026-04-18T10:42:55.545Z</time></trkpt><trkpt lat="43.4350674" lon="10.7220139"><ele>335.0</ele><time>2026-04-18T10:42:56.534Z</time></trkpt><trkpt lat="43.4350974" lon="10.721876"><ele>336.3333333333333</ele><time>2026-04-18T10:42:58.541Z</time></trkpt><trkpt lat="43.4351559" lon="10.7218231"><ele>337.6666666666667</ele><time>2026-04-18T10:42:59.553Z</time></trkpt><trkpt lat="43.4352212" lon="10.72176"><ele>339.0</ele><time>2026-04-18T10:43:00.557Z</time></trkpt><trkpt lat="43.4352717" lon="10.721681"><ele>340.3333333333333</ele><time>2026-04-18T10:43:01.555Z</time></trkpt><trkpt lat="43.4352928" lon="10.7215743"><ele>341.6666666666667</ele><time>2026-04-18T10:43:02.55Z</time></trkpt><trkpt lat="43.4353047" lon="10.7214636"><ele>343.0</ele><time>2026-04-18T10:43:03.555Z</time></trkpt><trkpt lat="43.435308" lon="10.7213527"><ele>344.33333333333337</ele><time>2026-04-18T10:43:04.551Z</time></trkpt><trkpt lat="43.4353122" lon="10.7212628"><ele>345.6666666666667</ele><time>2026-04-18T10:43:05.552Z</time></trkpt><trkpt lat="43.4353335" lon="10.7211377"><ele>347.0</ele><time>2026-04-18T10:43:07.56Z</time></trkpt><trkpt lat="43.4352853" lon="10.7210235"><ele>348.40000000000003</ele><time>2026-04-18T10:43:09.556Z</time></trkpt><trkpt lat="43.4352384" lon="10.7209345"><ele>349.8</ele><time>2026-04-18T10:43:10.553Z</time></trkpt><trkpt lat="43.4352029" lon="10.7208367"><ele>351.2</ele><time>2026-04-18T10:43:11.55Z</time></trkpt><trkpt lat="43.4351883" lon="10.7207048"><ele>352.6</ele><time>2026-04-18T10:43:12.56Z</time></trkpt><trkpt lat="43.4351736" lon="10.7205582"><ele>354.0</ele><time>2026-04-18T10:43:13.558Z</time></trkpt><trkpt lat="43.4351689" lon="10.7204067"><ele>354.0</ele><time>2026-04-18T10:43:14.562Z</time></trkpt><trkpt lat="43.4351557" lon="10.7202649"><ele>354.0</ele><time>2026-04-18T10:43:15.569Z</time></trkpt><trkpt lat="43.4351467" lon="10.7201436"><ele>354.0</ele><time>2026-04-18T10:43:16.554Z</time></trkpt><trkpt lat="43.4351341" lon="10.7200229"><ele>354.0</ele><time>2026-04-18T10:43:17.557Z</time></trkpt><trkpt lat="43.4351288" lon="10.719892"><ele>354.0</ele><time>2026-04-18T10:43:18.552Z</time></trkpt><trkpt lat="43.4351389" lon="10.7197716"><ele>354.5</ele><time>2026-04-18T10:43:19.557Z</time></trkpt><trkpt lat="43.4351663" lon="10.7196642"><ele>355.0</ele><time>2026-04-18T10:43:20.555Z</time></trkpt><trkpt lat="43.4352151" lon="10.7195726"><ele>355.5</ele><time>2026-04-18T10:43:21.559Z</time></trkpt><trkpt lat="43.435246" lon="10.719477"><ele>356.0</ele><time>2026-04-18T10:43:22.558Z</time></trkpt><trkpt lat="43.4352588" lon="10.7193651"><ele>356.5</ele><time>2026-04-18T10:43:23.553Z</time></trkpt><trkpt lat="43.4352435" lon="10.7192445"><ele>357.0</ele><time>2026-04-18T10:43:24.558Z</time></trkpt><trkpt lat="43.4352165" lon="10.7191375"><ele>358.1666666666667</ele><time>2026-04-18T10:43:25.562Z</time></trkpt><trkpt lat="43.4351818" lon="10.7190303"><ele>359.3333333333333</ele><time>2026-04-18T10:43:26.567Z</time></trkpt><trkpt lat="43.4351486" lon="10.7189108"><ele>360.5</ele><time>2026-04-18T10:43:27.564Z</time></trkpt><trkpt lat="43.4351191" lon="10.7188064"><ele>361.66666666666663</ele><time>2026-04-18T10:43:28.561Z</time></trkpt><trkpt lat="43.435095" lon="10.718697"><ele>362.8333333333333</ele><time>2026-04-18T10:43:29.56Z</time></trkpt><trkpt lat="43.435068" lon="10.7185916"><ele>364.0</ele><time>2026-04-18T10:43:30.558Z</time></trkpt><trkpt lat="43.4350249" lon="10.7184663"><ele>364.8333333333333</ele><time>2026-04-18T10:43:31.563Z</time></trkpt><trkpt lat="43.4349795" lon="10.7183457"><ele>365.66666666666663</ele><time>2026-04-18T10:43:32.565Z</time></trkpt><trkpt lat="43.4349451" lon="10.7182185"><ele>366.5</ele><time>2026-04-18T10:43:33.568Z</time></trkpt><trkpt lat="43.434916" lon="10.7181038"><ele>367.3333333333333</ele><time>2026-04-18T10:43:34.561Z</time></trkpt><trkpt lat="43.4348871" lon="10.7180078"><ele>368.1666666666667</ele><time>2026-04-18T10:43:35.559Z</time></trkpt><trkpt lat="43.434859" lon="10.7179007"><ele>369.0</ele><time>2026-04-18T10:43:36.553Z</time></trkpt><trkpt lat="43.4348292" lon="10.7178054"><ele>369.5</ele><time>2026-04-18T10:43:37.559Z</time></trkpt><trkpt lat="43.4347952" lon="10.7177058"><ele>370.0</ele><time>2026-04-18T10:43:38.559Z</time></trkpt><trkpt lat="43.4347592" lon="10.7176126"><ele>370.5</ele><time>2026-04-18T10:43:39.558Z</time></trkpt><trkpt lat="43.4347258" lon="10.7175285"><ele>371.0</ele><time>2026-04-18T10:43:40.561Z</time></trkpt><trkpt lat="43.4346744" lon="10.7174394"><ele>371.5</ele><time>2026-04-18T10:43:41.564Z</time></trkpt><trkpt lat="43.4346352" lon="10.7173245"><ele>372.0</ele><time>2026-04-18T10:43:42.566Z</time></trkpt><trkpt lat="43.4346084" lon="10.7172194"><ele>374.3333333333333</ele><time>2026-04-18T10:43:43.568Z</time></trkpt><trkpt lat="43.4345828" lon="10.7171088"><ele>376.66666666666663</ele><time>2026-04-18T10:43:44.565Z</time></trkpt><trkpt lat="43.4345738" lon="10.7169954"><ele>379.0</ele><time>2026-04-18T10:43:45.588Z</time></trkpt><trkpt lat="43.4345772" lon="10.7168979"><ele>381.3333333333333</ele><time>2026-04-18T10:43:46.575Z</time></trkpt><trkpt lat="43.4346056" lon="10.7167681"><ele>383.66666666666663</ele><time>2026-04-18T10:43:48.562Z</time></trkpt><trkpt lat="43.43458" lon="10.7166863"><ele>386.0</ele><time>2026-04-18T10:43:52.568Z</time></trkpt><trkpt lat="43.4345617" lon="10.7165944"><ele>387.0</ele><time>2026-04-18T10:44:29.573Z</time></trkpt><trkpt lat="43.434508" lon="10.7164476"><ele>388.0</ele><time>2026-04-18T10:44:31.564Z</time></trkpt><trkpt lat="43.4344582" lon="10.7163488"><ele>389.0</ele><time>2026-04-18T10:44:32.564Z</time></trkpt><trkpt lat="43.4344119" lon="10.7162475"><ele>390.0</ele><time>2026-04-18T10:44:33.568Z</time></trkpt><trkpt lat="43.434356" lon="10.7161445"><ele>391.0</ele><time>2026-04-18T10:44:34.57Z</time></trkpt><trkpt lat="43.4342893" lon="10.7160395"><ele>391.6</ele><time>2026-04-18T10:44:35.565Z</time></trkpt><trkpt lat="43.4342175" lon="10.7159505"><ele>392.20000000000005</ele><time>2026-04-18T10:44:36.562Z</time></trkpt><trkpt lat="43.4341317" lon="10.7158954"><ele>392.79999999999995</ele><time>2026-04-18T10:44:37.564Z</time></trkpt><trkpt lat="43.4340345" lon="10.7158667"><ele>393.4</ele><time>2026-04-18T10:44:38.568Z</time></trkpt><trkpt lat="43.4339256" lon="10.7158413"><ele>394.0</ele><time>2026-04-18T10:44:39.572Z</time></trkpt><trkpt lat="43.4338115" lon="10.7158139"><ele>396.0</ele><time>2026-04-18T10:44:40.575Z</time></trkpt><trkpt lat="43.4337088" lon="10.7157806"><ele>398.0</ele><time>2026-04-18T10:44:41.572Z</time></trkpt><trkpt lat="43.4336149" lon="10.7157578"><ele>400.0</ele><time>2026-04-18T10:44:42.581Z</time></trkpt><trkpt lat="43.4335168" lon="10.7157315"><ele>402.0</ele><time>2026-04-18T10:44:43.561Z</time></trkpt><trkpt lat="43.4334125" lon="10.7156991"><ele>404.0</ele><time>2026-04-18T10:44:44.565Z</time></trkpt><trkpt lat="43.4333263" lon="10.7156701"><ele>404.0</ele><time>2026-04-18T10:44:45.563Z</time></trkpt><trkpt lat="43.4332448" lon="10.7156501"><ele>404.0</ele><time>2026-04-18T10:44:46.563Z</time></trkpt><trkpt lat="43.4331496" lon="10.715618"><ele>404.0</ele><time>2026-04-18T10:44:47.554Z</time></trkpt><trkpt lat="43.4330523" lon="10.7155635"><ele>404.0</ele><time>2026-04-18T10:44:48.558Z</time></trkpt><trkpt lat="43.4329567" lon="10.7154994"><ele>404.0</ele><time>2026-04-18T10:44:49.559Z</time></trkpt><trkpt lat="43.4328612" lon="10.71541"><ele>404.79999999999995</ele><time>2026-04-18T10:44:50.554Z</time></trkpt><trkpt lat="43.4327715" lon="10.7153132"><ele>405.59999999999997</ele><time>2026-04-18T10:44:51.567Z</time></trkpt><trkpt lat="43.4327" lon="10.7152138"><ele>406.4</ele><time>2026-04-18T10:44:52.552Z</time></trkpt><trkpt lat="43.4326272" lon="10.715112"><ele>407.2</ele><time>2026-04-18T10:44:53.557Z</time></trkpt><trkpt lat="43.4325465" lon="10.7149998"><ele>408.0</ele><time>2026-04-18T10:44:54.55Z</time></trkpt><trkpt lat="43.432475" lon="10.7148857"><ele>408.0</ele><time>2026-04-18T10:44:55.561Z</time></trkpt><trkpt lat="43.4323944" lon="10.7147799"><ele>408.0</ele><time>2026-04-18T10:44:56.56Z</time></trkpt><trkpt lat="43.4323154" lon="10.7146762"><ele>408.0</ele><time>2026-04-18T10:44:57.568Z</time></trkpt><trkpt lat="43.4322346" lon="10.7145867"><ele>408.0</ele><time>2026-04-18T10:44:58.56Z</time></trkpt><trkpt lat="43.4321517" lon="10.7144967"><ele>408.0</ele><time>2026-04-18T10:44:59.576Z</time></trkpt><trkpt lat="43.4320554" lon="10.7144136"><ele>409.2</ele><time>2026-04-18T10:45:00.556Z</time></trkpt><trkpt lat="43.4319627" lon="10.7143397"><ele>410.4</ele><time>2026-04-18T10:45:01.556Z</time></trkpt><trkpt lat="43.4318791" lon="10.7142599"><ele>411.59999999999997</ele><time>2026-04-18T10:45:02.554Z</time></trkpt><trkpt lat="43.4318054" lon="10.7141674"><ele>412.79999999999995</ele><time>2026-04-18T10:45:03.56Z</time></trkpt><trkpt lat="43.4317526" lon="10.7140768"><ele>414.0</ele><time>2026-04-18T10:45:04.556Z</time></trkpt><trkpt lat="43.4317028" lon="10.7139954"><ele>414.0</ele><time>2026-04-18T10:45:05.556Z</time></trkpt><trkpt lat="43.4316571" lon="10.7139228"><ele>414.0</ele><time>2026-04-18T10:45:06.557Z</time></trkpt><trkpt lat="43.4315877" lon="10.7138335"><ele>414.0</ele><time>2026-04-18T10:45:08.547Z</time></trkpt><trkpt lat="43.4315182" lon="10.7138338"><ele>414.0</ele><time>2026-04-18T10:45:10.555Z</time></trkpt><trkpt lat="43.4314366" lon="10.7139531"><ele>414.0</ele><time>2026-04-18T10:45:12.553Z</time></trkpt><trkpt lat="43.4313774" lon="10.7140499"><ele>414.0</ele><time>2026-04-18T10:45:13.562Z</time></trkpt><trkpt lat="43.4313141" lon="10.7141563"><ele>415.2</ele><time>2026-04-18T10:45:14.558Z</time></trkpt><trkpt lat="43.4312448" lon="10.7142579"><ele>416.4</ele><time>2026-04-18T10:45:15.549Z</time></trkpt><trkpt lat="43.431176" lon="10.7143564"><ele>417.6</ele><time>2026-04-18T10:45:16.556Z</time></trkpt><trkpt lat="43.4311057" lon="10.7144592"><ele>418.8</ele><time>2026-04-18T10:45:17.552Z</time></trkpt><trkpt lat="43.431043" lon="10.7145642"><ele>420.0</ele><time>2026-04-18T10:45:18.548Z</time></trkpt><trkpt lat="43.4309805" lon="10.7146684"><ele>422.6</ele><time>2026-04-18T10:45:19.559Z</time></trkpt><trkpt lat="43.4309289" lon="10.7147674"><ele>425.2</ele><time>2026-04-18T10:45:20.547Z</time></trkpt><trkpt lat="43.4308776" lon="10.7148343"><ele>427.79999999999995</ele><time>2026-04-18T10:45:21.548Z</time></trkpt><trkpt lat="43.4307717" lon="10.714919"><ele>430.4</ele><time>2026-04-18T10:45:23.543Z</time></trkpt><trkpt lat="43.4306856" lon="10.7149337"><ele>433.0</ele><time>2026-04-18T10:45:24.555Z</time></trkpt><trkpt lat="43.4305651" lon="10.7149394"><ele>434.75</ele><time>2026-04-18T10:45:25.545Z</time></trkpt><trkpt lat="43.4304356" lon="10.7149448"><ele>436.5</ele><time>2026-04-18T10:45:26.547Z</time></trkpt><trkpt lat="43.4303084" lon="10.7149494"><ele>438.25</ele><time>2026-04-18T10:45:27.551Z</time></trkpt><trkpt lat="43.4301961" lon="10.7149535"><ele>440.0</ele><time>2026-04-18T10:45:28.552Z</time></trkpt><trkpt lat="43.4301028" lon="10.7149702"><ele>440.0</ele><time>2026-04-18T10:45:29.55Z</time></trkpt><trkpt lat="43.4300202" lon="10.714995"><ele>440.0</ele><time>2026-04-18T10:45:30.564Z</time></trkpt><trkpt lat="43.4299473" lon="10.7150373"><ele>440.0</ele><time>2026-04-18T10:45:31.547Z</time></trkpt><trkpt lat="43.4298648" lon="10.7150975"><ele>440.0</ele><time>2026-04-18T10:45:32.544Z</time></trkpt><trkpt lat="43.4297666" lon="10.7151851"><ele>440.0</ele><time>2026-04-18T10:45:33.543Z</time></trkpt><trkpt lat="43.4296584" lon="10.7152796"><ele>442.5</ele><time>2026-04-18T10:45:34.547Z</time></trkpt><trkpt lat="43.4295438" lon="10.7153705"><ele>445.0</ele><time>2026-04-18T10:45:35.542Z</time></trkpt><trkpt lat="43.4294347" lon="10.7154607"><ele>447.5</ele><time>2026-04-18T10:45:36.543Z</time></trkpt><trkpt lat="43.4293351" lon="10.7155363"><ele>450.0</ele><time>2026-04-18T10:45:37.544Z</time></trkpt><trkpt lat="43.4292449" lon="10.7156065"><ele>450.0</ele><time>2026-04-18T10:45:38.537Z</time></trkpt><trkpt lat="43.4291739" lon="10.7156699"><ele>450.0</ele><time>2026-04-18T10:45:39.533Z</time></trkpt><trkpt lat="43.4291119" lon="10.71573"><ele>450.0</ele><time>2026-04-18T10:45:40.535Z</time></trkpt><trkpt lat="43.4290505" lon="10.7157872"><ele>450.0</ele><time>2026-04-18T10:45:41.546Z</time></trkpt><trkpt lat="43.4289482" lon="10.715807"><ele>450.0</ele><time>2026-04-18T10:45:43.559Z</time></trkpt><trkpt lat="43.4288225" lon="10.7157503"><ele>449.3333333333333</ele><time>2026-04-18T10:45:45.56Z</time></trkpt><trkpt lat="43.428752" lon="10.7157124"><ele>448.66666666666663</ele><time>2026-04-18T10:45:46.561Z</time></trkpt><trkpt lat="43.4286759" lon="10.7156545"><ele>448.0</ele><time>2026-04-18T10:45:47.555Z</time></trkpt><trkpt lat="43.4285947" lon="10.7155715"><ele>447.3333333333333</ele><time>2026-04-18T10:45:48.558Z</time></trkpt><trkpt lat="43.4285237" lon="10.715489"><ele>446.66666666666663</ele><time>2026-04-18T10:45:49.553Z</time></trkpt><trkpt lat="43.4284624" lon="10.7154096"><ele>446.0</ele><time>2026-04-18T10:45:50.557Z</time></trkpt><trkpt lat="43.4284136" lon="10.7153519"><ele>446.0</ele><time>2026-04-18T10:45:51.556Z</time></trkpt><trkpt lat="43.4283399" lon="10.7152448"><ele>446.0</ele><time>2026-04-18T10:45:53.564Z</time></trkpt><trkpt lat="43.4282802" lon="10.715139"><ele>446.0</ele><time>2026-04-18T10:45:55.558Z</time></trkpt><trkpt lat="43.4281728" lon="10.7150141"><ele>446.0</ele><time>2026-04-18T10:45:57.56Z</time></trkpt><trkpt lat="43.4280913" lon="10.7149466"><ele>446.0</ele><time>2026-04-18T10:45:58.558Z</time></trkpt><trkpt lat="43.4280007" lon="10.714885"><ele>447.6</ele><time>2026-04-18T10:45:59.557Z</time></trkpt><trkpt lat="43.4279012" lon="10.7148395"><ele>449.20000000000005</ele><time>2026-04-18T10:46:00.564Z</time></trkpt><trkpt lat="43.4278035" lon="10.7148043"><ele>450.79999999999995</ele><time>2026-04-18T10:46:01.573Z</time></trkpt><trkpt lat="43.4277111" lon="10.7147579"><ele>452.4</ele><time>2026-04-18T10:46:02.558Z</time></trkpt><trkpt lat="43.427623" lon="10.7146954"><ele>454.0</ele><time>2026-04-18T10:46:03.568Z</time></trkpt><trkpt lat="43.4275478" lon="10.7146268"><ele>454.00000000000006</ele><time>2026-04-18T10:46:04.564Z</time></trkpt><trkpt lat="43.4274858" lon="10.7145572"><ele>454.0</ele><time>2026-04-18T10:46:05.565Z</time></trkpt><trkpt lat="43.4274198" lon="10.7144898"><ele>454.0</ele><time>2026-04-18T10:46:06.565Z</time></trkpt><trkpt lat="43.4273446" lon="10.7144316"><ele>454.0</ele><time>2026-04-18T10:46:07.561Z</time></trkpt><trkpt lat="43.4272703" lon="10.7143897"><ele>454.00000000000006</ele><time>2026-04-18T10:46:08.564Z</time></trkpt><trkpt lat="43.4272006" lon="10.7143572"><ele>454.0</ele><time>2026-04-18T10:46:09.56Z</time></trkpt><trkpt lat="43.4271294" lon="10.7143402"><ele>455.1666666666667</ele><time>2026-04-18T10:46:10.568Z</time></trkpt><trkpt lat="43.4270579" lon="10.7143468"><ele>456.33333333333337</ele><time>2026-04-18T10:46:11.553Z</time></trkpt><trkpt lat="43.4269929" lon="10.714372"><ele>457.5</ele><time>2026-04-18T10:46:12.56Z</time></trkpt><trkpt lat="43.426869" lon="10.7144469"><ele>458.66666666666663</ele><time>2026-04-18T10:46:14.559Z</time></trkpt><trkpt lat="43.4267964" lon="10.714488"><ele>459.8333333333333</ele><time>2026-04-18T10:46:15.558Z</time></trkpt><trkpt lat="43.4267179" lon="10.7145291"><ele>461.0</ele><time>2026-04-18T10:46:16.554Z</time></trkpt><trkpt lat="43.4266305" lon="10.7145696"><ele>461.0</ele><time>2026-04-18T10:46:17.558Z</time></trkpt><trkpt lat="43.4265568" lon="10.7145982"><ele>461.0</ele><time>2026-04-18T10:46:18.548Z</time></trkpt><trkpt lat="43.4264538" lon="10.7146621"><ele>461.0</ele><time>2026-04-18T10:46:20.546Z</time></trkpt><trkpt lat="43.4263716" lon="10.7147913"><ele>461.0</ele><time>2026-04-18T10:46:22.55Z</time></trkpt><trkpt lat="43.4263138" lon="10.7149452"><ele>461.0</ele><time>2026-04-18T10:46:24.556Z</time></trkpt><trkpt lat="43.4262739" lon="10.7150159"><ele>462.99999999999994</ele><time>2026-04-18T10:46:25.56Z</time></trkpt><trkpt lat="43.4262282" lon="10.7150885"><ele>465.0</ele><time>2026-04-18T10:46:26.56Z</time></trkpt><trkpt lat="43.4261782" lon="10.7151491"><ele>467.0</ele><time>2026-04-18T10:46:27.561Z</time></trkpt><trkpt lat="43.4261007" lon="10.7151801"><ele>469.0</ele><time>2026-04-18T10:46:29.557Z</time></trkpt><trkpt lat="43.4260402" lon="10.7151115"><ele>470.99999999999994</ele><time>2026-04-18T10:46:31.56Z</time></trkpt><trkpt lat="43.425941" lon="10.7149974"><ele>473.0</ele><time>2026-04-18T10:46:33.56Z</time></trkpt><trkpt lat="43.4258864" lon="10.714936"><ele>473.0</ele><time>2026-04-18T10:46:34.558Z</time></trkpt><trkpt lat="43.4258352" lon="10.7148734"><ele>473.0</ele><time>2026-04-18T10:46:35.556Z</time></trkpt><trkpt lat="43.4257783" lon="10.7148172"><ele>473.0</ele><time>2026-04-18T10:46:36.549Z</time></trkpt><trkpt lat="43.4257145" lon="10.7147623"><ele>473.0</ele><time>2026-04-18T10:46:37.551Z</time></trkpt><trkpt lat="43.4256506" lon="10.7147125"><ele>473.0</ele><time>2026-04-18T10:46:38.553Z</time></trkpt><trkpt lat="43.4255846" lon="10.7146696"><ele>473.0</ele><time>2026-04-18T10:46:39.553Z</time></trkpt><trkpt lat="43.42551" lon="10.7146582"><ele>473.0</ele><time>2026-04-18T10:46:40.558Z</time></trkpt><trkpt lat="43.4254345" lon="10.7146428"><ele>474.4</ele><time>2026-04-18T10:46:41.552Z</time></trkpt><trkpt lat="43.425361" lon="10.7146286"><ele>475.79999999999995</ele><time>2026-04-18T10:46:42.553Z</time></trkpt><trkpt lat="43.4252701" lon="10.7146181"><ele>477.2</ele><time>2026-04-18T10:46:43.554Z</time></trkpt><trkpt lat="43.4251726" lon="10.7146122"><ele>478.6</ele><time>2026-04-18T10:46:44.556Z</time></trkpt><trkpt lat="43.4250706" lon="10.7146286"><ele>480.0</ele><time>2026-04-18T10:46:45.549Z</time></trkpt><trkpt lat="43.424978" lon="10.7146562"><ele>480.0</ele><time>2026-04-18T10:46:46.549Z</time></trkpt><trkpt lat="43.4249044" lon="10.7146863"><ele>480.0</ele><time>2026-04-18T10:46:47.548Z</time></trkpt><trkpt lat="43.4247892" lon="10.7147121"><ele>480.0</ele><time>2026-04-18T10:46:49.548Z</time></trkpt><trkpt lat="43.4247156" lon="10.7146912"><ele>480.0</ele><time>2026-04-18T10:46:55.558Z</time></trkpt><trkpt lat="43.4246231" lon="10.7146705"><ele>480.0</ele><time>2026-04-18T10:46:57.572Z</time></trkpt><trkpt lat="43.4245573" lon="10.7146512"><ele>480.0</ele><time>2026-04-18T10:46:58.56Z</time></trkpt><trkpt lat="43.424491" lon="10.7146138"><ele>480.57142857142856</ele><time>2026-04-18T10:46:59.564Z</time></trkpt><trkpt lat="43.4244229" lon="10.7145667"><ele>481.1428571428571</ele><time>2026-04-18T10:47:00.554Z</time></trkpt><trkpt lat="43.4243632" lon="10.7145139"><ele>481.71428571428567</ele><time>2026-04-18T10:47:01.55Z</time></trkpt><trkpt lat="43.4243021" lon="10.7144683"><ele>482.2857142857143</ele><time>2026-04-18T10:47:02.548Z</time></trkpt><trkpt lat="43.4242307" lon="10.7144167"><ele>482.8571428571428</ele><time>2026-04-18T10:47:03.55Z</time></trkpt><trkpt lat="43.42416" lon="10.714376"><ele>483.4285714285714</ele><time>2026-04-18T10:47:04.541Z</time></trkpt><trkpt lat="43.4240964" lon="10.714347"><ele>484.0</ele><time>2026-04-18T10:47:05.539Z</time></trkpt><trkpt lat="43.4240241" lon="10.7143246"><ele>486.6666666666667</ele><time>2026-04-18T10:47:06.538Z</time></trkpt><trkpt lat="43.42395" lon="10.7143144"><ele>489.33333333333337</ele><time>2026-04-18T10:47:07.538Z</time></trkpt><trkpt lat="43.4238704" lon="10.7143163"><ele>492.0</ele><time>2026-04-18T10:47:08.533Z</time></trkpt><trkpt lat="43.4237898" lon="10.714315"><ele>494.66666666666663</ele><time>2026-04-18T10:47:09.537Z</time></trkpt><trkpt lat="43.4237075" lon="10.7142991"><ele>497.3333333333333</ele><time>2026-04-18T10:47:10.535Z</time></trkpt><trkpt lat="43.4236197" lon="10.7142769"><ele>500.0</ele><time>2026-04-18T10:47:11.535Z</time></trkpt><trkpt lat="43.4235251" lon="10.7142586"><ele>500.8333333333333</ele><time>2026-04-18T10:47:12.536Z</time></trkpt><trkpt lat="43.4234327" lon="10.714237"><ele>501.66666666666663</ele><time>2026-04-18T10:47:13.536Z</time></trkpt><trkpt lat="43.4233398" lon="10.7142282"><ele>502.5</ele><time>2026-04-18T10:47:14.545Z</time></trkpt><trkpt lat="43.423254" lon="10.7142383"><ele>503.33333333333337</ele><time>2026-04-18T10:47:15.542Z</time></trkpt><trkpt lat="43.4231705" lon="10.714259"><ele>504.1666666666667</ele><time>2026-04-18T10:47:16.548Z</time></trkpt><trkpt lat="43.4230869" lon="10.7142807"><ele>505.0</ele><time>2026-04-18T10:47:17.545Z</time></trkpt><trkpt lat="43.4230015" lon="10.7142971"><ele>505.83333333333337</ele><time>2026-04-18T10:47:18.54Z</time></trkpt><trkpt lat="43.4229211" lon="10.7143089"><ele>506.6666666666667</ele><time>2026-04-18T10:47:19.541Z</time></trkpt><trkpt lat="43.4228497" lon="10.7143096"><ele>507.5</ele><time>2026-04-18T10:47:20.54Z</time></trkpt><trkpt lat="43.422778" lon="10.7143053"><ele>508.33333333333337</ele><time>2026-04-18T10:47:21.551Z</time></trkpt><trkpt lat="43.4226921" lon="10.7143046"><ele>509.1666666666667</ele><time>2026-04-18T10:47:22.544Z</time></trkpt><trkpt lat="43.4225901" lon="10.7143105"><ele>510.0</ele><time>2026-04-18T10:47:23.545Z</time></trkpt><trkpt lat="43.4224942" lon="10.7143347"><ele>510.0</ele><time>2026-04-18T10:47:24.537Z</time></trkpt><trkpt lat="43.4223966" lon="10.7143799"><ele>510.0</ele><time>2026-04-18T10:47:25.541Z</time></trkpt><trkpt lat="43.4223068" lon="10.7144428"><ele>510.0</ele><time>2026-04-18T10:47:26.539Z</time></trkpt><trkpt lat="43.4222215" lon="10.7145194"><ele>510.0</ele><time>2026-04-18T10:47:27.549Z</time></trkpt><trkpt lat="43.422147" lon="10.7145972"><ele>510.0</ele><time>2026-04-18T10:47:28.549Z</time></trkpt><trkpt lat="43.4220667" lon="10.7146592"><ele>509.7142857142857</ele><time>2026-04-18T10:47:29.56Z</time></trkpt><trkpt lat="43.4219939" lon="10.71471"><ele>509.42857142857144</ele><time>2026-04-18T10:47:30.552Z</time></trkpt><trkpt lat="43.4219296" lon="10.7147516"><ele>509.14285714285717</ele><time>2026-04-18T10:47:31.549Z</time></trkpt><trkpt lat="43.421861" lon="10.7147847"><ele>508.8571428571429</ele><time>2026-04-18T10:47:32.55Z</time></trkpt><trkpt lat="43.4217972" lon="10.7147972"><ele>508.57142857142856</ele><time>2026-04-18T10:47:33.546Z</time></trkpt><trkpt lat="43.4217337" lon="10.7147983"><ele>508.28571428571433</ele><time>2026-04-18T10:47:34.545Z</time></trkpt><trkpt lat="43.4216498" lon="10.7147718"><ele>508.0</ele><time>2026-04-18T10:47:35.546Z</time></trkpt><trkpt lat="43.4215598" lon="10.7147272"><ele>508.00000000000006</ele><time>2026-04-18T10:47:36.544Z</time></trkpt><trkpt lat="43.4214671" lon="10.7146898"><ele>508.0</ele><time>2026-04-18T10:47:37.545Z</time></trkpt><trkpt lat="43.421386" lon="10.7146542"><ele>508.0</ele><time>2026-04-18T10:47:38.543Z</time></trkpt><trkpt lat="43.42132" lon="10.7146205"><ele>508.0</ele><time>2026-04-18T10:47:39.546Z</time></trkpt><trkpt lat="43.4212447" lon="10.7145545"><ele>508.00000000000006</ele><time>2026-04-18T10:47:41.554Z</time></trkpt><trkpt lat="43.4211877" lon="10.7144826"><ele>508.0</ele><time>2026-04-18T10:47:43.55Z</time></trkpt><trkpt lat="43.4210873" lon="10.7143711"><ele>508.0</ele><time>2026-04-18T10:47:45.537Z</time></trkpt><trkpt lat="43.4210424" lon="10.7143027"><ele>507.99999999999994</ele><time>2026-04-18T10:47:46.543Z</time></trkpt><trkpt lat="43.4209581" lon="10.7141529"><ele>507.99999999999994</ele><time>2026-04-18T10:47:48.545Z</time></trkpt><trkpt lat="43.4209192" lon="10.7140469"><ele>508.0</ele><time>2026-04-18T10:47:49.539Z</time></trkpt><trkpt lat="43.4208813" lon="10.7139164"><ele>508.0</ele><time>2026-04-18T10:47:50.529Z</time></trkpt><trkpt lat="43.4208352" lon="10.7137893"><ele>508.00000000000006</ele><time>2026-04-18T10:47:51.538Z</time></trkpt><trkpt lat="43.4207813" lon="10.7136744"><ele>508.0</ele><time>2026-04-18T10:47:52.532Z</time></trkpt><trkpt lat="43.4207385" lon="10.7135891"><ele>508.0</ele><time>2026-04-18T10:47:53.531Z</time></trkpt><trkpt lat="43.4206533" lon="10.7134916"><ele>508.0</ele><time>2026-04-18T10:47:55.533Z</time></trkpt><trkpt lat="43.4205891" lon="10.713464"><ele>508.00000000000006</ele><time>2026-04-18T10:47:56.533Z</time></trkpt><trkpt lat="43.4205017" lon="10.713449"><ele>508.0</ele><time>2026-04-18T10:47:57.538Z</time></trkpt><trkpt lat="43.4204138" lon="10.7134355"><ele>508.2</ele><time>2026-04-18T10:47:58.534Z</time></trkpt><trkpt lat="43.4203275" lon="10.7134068"><ele>508.4</ele><time>2026-04-18T10:47:59.542Z</time></trkpt><trkpt lat="43.4202476" lon="10.7133592"><ele>508.59999999999997</ele><time>2026-04-18T10:48:00.54Z</time></trkpt><trkpt lat="43.4201655" lon="10.7133075"><ele>508.79999999999995</ele><time>2026-04-18T10:48:01.539Z</time></trkpt><trkpt lat="43.4200947" lon="10.7132656"><ele>509.0</ele><time>2026-04-18T10:48:02.543Z</time></trkpt><trkpt lat="43.4200031" lon="10.7131645"><ele>509.0</ele><time>2026-04-18T10:48:04.549Z</time></trkpt><trkpt lat="43.4199048" lon="10.7130426"><ele>509.0</ele><time>2026-04-18T10:48:06.546Z</time></trkpt><trkpt lat="43.4198484" lon="10.7129671"><ele>509.0</ele><time>2026-04-18T10:48:07.543Z</time></trkpt><trkpt lat="43.4197919" lon="10.7128733"><ele>509.0</ele><time>2026-04-18T10:48:08.536Z</time></trkpt><trkpt lat="43.4197333" lon="10.7127705"><ele>509.0</ele><time>2026-04-18T10:48:09.537Z</time></trkpt><trkpt lat="43.4196775" lon="10.7126646"><ele>508.99999999999994</ele><time>2026-04-18T10:48:10.54Z</time></trkpt><trkpt lat="43.4196235" lon="10.7125574"><ele>509.0</ele><time>2026-04-18T10:48:11.539Z</time></trkpt><trkpt lat="43.4195743" lon="10.7124545"><ele>509.0</ele><time>2026-04-18T10:48:12.54Z</time></trkpt><trkpt lat="43.4195303" lon="10.7123555"><ele>509.0</ele><time>2026-04-18T10:48:13.544Z</time></trkpt><trkpt lat="43.4194938" lon="10.7122704"><ele>508.99999999999994</ele><time>2026-04-18T10:48:14.542Z</time></trkpt><trkpt lat="43.419447" lon="10.7121986"><ele>509.0</ele><time>2026-04-18T10:48:15.539Z</time></trkpt><trkpt lat="43.4193808" lon="10.7121313"><ele>508.99999999999994</ele><time>2026-04-18T10:48:16.537Z</time></trkpt><trkpt lat="43.4192983" lon="10.7120722"><ele>509.0</ele><time>2026-04-18T10:48:17.543Z</time></trkpt><trkpt lat="43.4192233" lon="10.7120122"><ele>509.0</ele><time>2026-04-18T10:48:18.54Z</time></trkpt><trkpt lat="43.4191599" lon="10.7119506"><ele>509.0</ele><time>2026-04-18T10:48:19.544Z</time></trkpt><trkpt lat="43.4190995" lon="10.7118899"><ele>508.99999999999994</ele><time>2026-04-18T10:48:20.546Z</time></trkpt><trkpt lat="43.4190386" lon="10.7118303"><ele>509.0</ele><time>2026-04-18T10:48:21.546Z</time></trkpt><trkpt lat="43.4189803" lon="10.7117678"><ele>508.0</ele><time>2026-04-18T10:48:22.541Z</time></trkpt><trkpt lat="43.4188945" lon="10.7116539"><ele>507.0</ele><time>2026-04-18T10:48:24.543Z</time></trkpt><trkpt lat="43.4188357" lon="10.7115035"><ele>506.0</ele><time>2026-04-18T10:48:26.547Z</time></trkpt><trkpt lat="43.4188215" lon="10.7114155"><ele>505.0</ele><time>2026-04-18T10:48:27.552Z</time></trkpt><trkpt lat="43.4188104" lon="10.7113076"><ele>504.0</ele><time>2026-04-18T10:48:28.544Z</time></trkpt><trkpt lat="43.4187982" lon="10.7111771"><ele>506.0</ele><time>2026-04-18T10:48:29.547Z</time></trkpt><trkpt lat="43.4187839" lon="10.711038"><ele>508.0</ele><time>2026-04-18T10:48:30.546Z</time></trkpt><trkpt lat="43.4187659" lon="10.7109122"><ele>510.0</ele><time>2026-04-18T10:48:31.546Z</time></trkpt><trkpt lat="43.418746" lon="10.710803"><ele>512.0</ele><time>2026-04-18T10:48:32.548Z</time></trkpt><trkpt lat="43.4186935" lon="10.7106642"><ele>514.0</ele><time>2026-04-18T10:48:34.542Z</time></trkpt><trkpt lat="43.4185885" lon="10.7106081"><ele>514.0</ele><time>2026-04-18T10:48:36.55Z</time></trkpt><trkpt lat="43.4185196" lon="10.7105949"><ele>514.0</ele><time>2026-04-18T10:48:37.538Z</time></trkpt><trkpt lat="43.4184516" lon="10.7105614"><ele>514.0</ele><time>2026-04-18T10:48:38.544Z</time></trkpt><trkpt lat="43.418391" lon="10.7105064"><ele>514.0</ele><time>2026-04-18T10:48:39.535Z</time></trkpt><trkpt lat="43.4183312" lon="10.7104361"><ele>514.0</ele><time>2026-04-18T10:48:40.536Z</time></trkpt><trkpt lat="43.4182727" lon="10.7103595"><ele>514.0</ele><time>2026-04-18T10:48:41.547Z</time></trkpt><trkpt lat="43.4182143" lon="10.710268"><ele>513.1666666666667</ele><time>2026-04-18T10:48:42.539Z</time></trkpt><trkpt lat="43.4181512" lon="10.7101583"><ele>512.3333333333334</ele><time>2026-04-18T10:48:43.555Z</time></trkpt><trkpt lat="43.4180854" lon="10.7100603"><ele>511.5</ele><time>2026-04-18T10:48:44.552Z</time></trkpt><trkpt lat="43.4180165" lon="10.7099769"><ele>510.66666666666663</ele><time>2026-04-18T10:48:45.55Z</time></trkpt><trkpt lat="43.4179564" lon="10.7099089"><ele>509.8333333333333</ele><time>2026-04-18T10:48:46.546Z</time></trkpt><trkpt lat="43.4179043" lon="10.709834"><ele>509.0</ele><time>2026-04-18T10:48:47.543Z</time></trkpt><trkpt lat="43.417859" lon="10.7097504"><ele>509.0</ele><time>2026-04-18T10:48:48.546Z</time></trkpt><trkpt lat="43.4178238" lon="10.7096484"><ele>509.0</ele><time>2026-04-18T10:48:49.554Z</time></trkpt><trkpt lat="43.4177736" lon="10.7095189"><ele>509.0</ele><time>2026-04-18T10:48:50.546Z</time></trkpt><trkpt lat="43.4177249" lon="10.7093983"><ele>509.0</ele><time>2026-04-18T10:48:51.558Z</time></trkpt><trkpt lat="43.4176813" lon="10.7092784"><ele>509.0</ele><time>2026-04-18T10:48:52.554Z</time></trkpt><trkpt lat="43.4176499" lon="10.7091649"><ele>509.66666666666663</ele><time>2026-04-18T10:48:53.552Z</time></trkpt><trkpt lat="43.4176157" lon="10.7090476"><ele>510.3333333333333</ele><time>2026-04-18T10:48:54.553Z</time></trkpt><trkpt lat="43.4175784" lon="10.7089313"><ele>511.0</ele><time>2026-04-18T10:48:55.553Z</time></trkpt><trkpt lat="43.4175426" lon="10.708823"><ele>511.66666666666663</ele><time>2026-04-18T10:48:56.555Z</time></trkpt><trkpt lat="43.4175116" lon="10.7087208"><ele>512.3333333333334</ele><time>2026-04-18T10:48:57.552Z</time></trkpt><trkpt lat="43.4174936" lon="10.7086193"><ele>513.0</ele><time>2026-04-18T10:48:58.555Z</time></trkpt><trkpt lat="43.4174723" lon="10.7085326"><ele>512.5</ele><time>2026-04-18T10:48:59.554Z</time></trkpt><trkpt lat="43.4174364" lon="10.7084251"><ele>512.0</ele><time>2026-04-18T10:49:01.551Z</time></trkpt><trkpt lat="43.4173631" lon="10.7083926"><ele>511.5</ele><time>2026-04-18T10:49:04.548Z</time></trkpt><trkpt lat="43.4172736" lon="10.7084077"><ele>511.0</ele><time>2026-04-18T10:49:06.545Z</time></trkpt><trkpt lat="43.417189" lon="10.7084084"><ele>510.5</ele><time>2026-04-18T10:49:08.548Z</time></trkpt><trkpt lat="43.4171175" lon="10.7083416"><ele>510.0</ele><time>2026-04-18T10:49:10.547Z</time></trkpt><trkpt lat="43.4170301" lon="10.7082406"><ele>510.0</ele><time>2026-04-18T10:49:12.55Z</time></trkpt><trkpt lat="43.4169524" lon="10.7081744"><ele>510.0</ele><time>2026-04-18T10:49:14.543Z</time></trkpt><trkpt lat="43.4168693" lon="10.708164"><ele>510.0</ele><time>2026-04-18T10:49:17.54Z</time></trkpt><trkpt lat="43.4168024" lon="10.7082079"><ele>510.0</ele><time>2026-04-18T10:49:20.554Z</time></trkpt><trkpt lat="43.4167299" lon="10.7082672"><ele>510.0</ele><time>2026-04-18T11:01:31.542Z</time></trkpt><trkpt lat="43.4166596" lon="10.7083091"><ele>510.0</ele><time>2026-04-18T11:01:34.533Z</time></trkpt><trkpt lat="43.4165927" lon="10.7082766"><ele>510.0</ele><time>2026-04-18T11:01:45.55Z</time></trkpt><trkpt lat="43.4165298" lon="10.708235"><ele>510.0</ele><time>2026-04-18T11:02:07.546Z</time></trkpt><trkpt lat="43.4164534" lon="10.7081826"><ele>510.0</ele><time>2026-04-18T11:02:23.542Z</time></trkpt><trkpt lat="43.4163781" lon="10.708137"><ele>510.0</ele><time>2026-04-18T11:02:26.539Z</time></trkpt><trkpt lat="43.4163237" lon="10.7080897"><ele>510.0</ele><time>2026-04-18T11:02:29.539Z</time></trkpt><trkpt lat="43.4162571" lon="10.7080574"><ele>510.0</ele><time>2026-04-18T11:03:26.534Z</time></trkpt><trkpt lat="43.4161977" lon="10.7079819"><ele>510.42857142857144</ele><time>2026-04-18T11:03:28.527Z</time></trkpt><trkpt lat="43.4161489" lon="10.7079258"><ele>510.8571428571429</ele><time>2026-04-18T11:03:37.533Z</time></trkpt><trkpt lat="43.4160968" lon="10.7078706"><ele>511.28571428571433</ele><time>2026-04-18T11:04:18.533Z</time></trkpt><trkpt lat="43.4160387" lon="10.7078107"><ele>511.7142857142858</ele><time>2026-04-18T11:04:22.533Z</time></trkpt><trkpt lat="43.4159782" lon="10.7077725"><ele>512.1428571428571</ele><time>2026-04-18T11:04:26.532Z</time></trkpt><trkpt lat="43.4159105" lon="10.7077514"><ele>512.5714285714287</ele><time>2026-04-18T11:04:29.543Z</time></trkpt><trkpt lat="43.4158449" lon="10.7077071"><ele>513.0</ele><time>2026-04-18T11:04:32.544Z</time></trkpt><trkpt lat="43.415764" lon="10.7076396"><ele>513.0</ele><time>2026-04-18T11:04:34.536Z</time></trkpt><trkpt lat="43.4156671" lon="10.7075884"><ele>513.0</ele><time>2026-04-18T11:04:36.523Z</time></trkpt><trkpt lat="43.4155618" lon="10.7075527"><ele>513.0</ele><time>2026-04-18T11:04:38.528Z</time></trkpt><trkpt lat="43.4154519" lon="10.7075417"><ele>513.0</ele><time>2026-04-18T11:04:40.535Z</time></trkpt><trkpt lat="43.4153459" lon="10.7075182"><ele>513.0</ele><time>2026-04-18T11:04:42.546Z</time></trkpt><trkpt lat="43.4152685" lon="10.70748"><ele>510.6666666666667</ele><time>2026-04-18T11:04:44.545Z</time></trkpt><trkpt lat="43.4152061" lon="10.7074477"><ele>508.33333333333337</ele><time>2026-04-18T11:04:46.546Z</time></trkpt><trkpt lat="43.4151498" lon="10.7073797"><ele>506.0</ele><time>2026-04-18T11:04:48.548Z</time></trkpt><trkpt lat="43.4150899" lon="10.7072981"><ele>503.6666666666667</ele><time>2026-04-18T11:04:50.541Z</time></trkpt><trkpt lat="43.4150171" lon="10.7071737"><ele>501.33333333333337</ele><time>2026-04-18T11:04:52.529Z</time></trkpt><trkpt lat="43.4149779" lon="10.7070988"><ele>499.0</ele><time>2026-04-18T11:04:53.523Z</time></trkpt><trkpt lat="43.4149041" lon="10.7070178"><ele>498.4</ele><time>2026-04-18T11:04:55.527Z</time></trkpt><trkpt lat="43.4148435" lon="10.7069071"><ele>497.79999999999995</ele><time>2026-04-18T11:04:57.532Z</time></trkpt><trkpt lat="43.4148114" lon="10.7067786"><ele>497.20000000000005</ele><time>2026-04-18T11:04:59.535Z</time></trkpt><trkpt lat="43.4147562" lon="10.7066423"><ele>496.6</ele><time>2026-04-18T11:05:01.529Z</time></trkpt><trkpt lat="43.4146925" lon="10.7065301"><ele>496.0</ele><time>2026-04-18T11:05:03.528Z</time></trkpt><trkpt lat="43.4146193" lon="10.7064263"><ele>496.0</ele><time>2026-04-18T11:05:05.549Z</time></trkpt><trkpt lat="43.4145539" lon="10.7063746"><ele>496.0</ele><time>2026-04-18T11:05:06.532Z</time></trkpt><trkpt lat="43.4144743" lon="10.706345"><ele>496.0</ele><time>2026-04-18T11:05:07.549Z</time></trkpt><trkpt lat="43.4144041" lon="10.7063465"><ele>496.0</ele><time>2026-04-18T11:05:08.54Z</time></trkpt><trkpt lat="43.4142786" lon="10.7063714"><ele>496.0</ele><time>2026-04-18T11:05:10.536Z</time></trkpt><trkpt lat="43.4141609" lon="10.7063705"><ele>496.00000000000006</ele><time>2026-04-18T11:05:12.533Z</time></trkpt><trkpt lat="43.4140943" lon="10.7063634"><ele>496.0</ele><time>2026-04-18T11:05:13.537Z</time></trkpt><trkpt lat="43.4140276" lon="10.7063431"><ele>496.0</ele><time>2026-04-18T11:05:14.531Z</time></trkpt><trkpt lat="43.4139203" lon="10.7063043"><ele>496.0</ele><time>2026-04-18T11:05:16.547Z</time></trkpt><trkpt lat="43.4138189" lon="10.7062233"><ele>496.00000000000006</ele><time>2026-04-18T11:05:18.541Z</time></trkpt><trkpt lat="43.4137685" lon="10.706145"><ele>496.0</ele><time>2026-04-18T11:05:19.534Z</time></trkpt><trkpt lat="43.4137199" lon="10.7060706"><ele>496.50000000000006</ele><time>2026-04-18T11:05:20.532Z</time></trkpt><trkpt lat="43.4136704" lon="10.7059829"><ele>497.0</ele><time>2026-04-18T11:05:21.538Z</time></trkpt><trkpt lat="43.4136203" lon="10.7059051"><ele>497.5</ele><time>2026-04-18T11:05:22.528Z</time></trkpt><trkpt lat="43.4135716" lon="10.7058367"><ele>498.0</ele><time>2026-04-18T11:05:23.536Z</time></trkpt><trkpt lat="43.4135213" lon="10.7057479"><ele>498.50000000000006</ele><time>2026-04-18T11:05:24.532Z</time></trkpt><trkpt lat="43.4134646" lon="10.7056734"><ele>499.0</ele><time>2026-04-18T11:05:25.534Z</time></trkpt><trkpt lat="43.4133949" lon="10.7055703"><ele>499.00000000000006</ele><time>2026-04-18T11:05:27.53Z</time></trkpt><trkpt lat="43.4133341" lon="10.7054604"><ele>499.0</ele><time>2026-04-18T11:05:29.532Z</time></trkpt><trkpt lat="43.4132445" lon="10.705361"><ele>499.0</ele><time>2026-04-18T11:05:31.527Z</time></trkpt><trkpt lat="43.4131852" lon="10.7053099"><ele>499.0</ele><time>2026-04-18T11:05:32.525Z</time></trkpt><trkpt lat="43.4131232" lon="10.7052713"><ele>499.00000000000006</ele><time>2026-04-18T11:05:33.518Z</time></trkpt><trkpt lat="43.4130543" lon="10.705259"><ele>499.0</ele><time>2026-04-18T11:05:34.526Z</time></trkpt><trkpt lat="43.4129899" lon="10.7052463"><ele>498.0</ele><time>2026-04-18T11:05:35.52Z</time></trkpt><trkpt lat="43.4129235" lon="10.705239"><ele>497.0</ele><time>2026-04-18T11:05:36.525Z</time></trkpt><trkpt lat="43.4128605" lon="10.7052267"><ele>496.0</ele><time>2026-04-18T11:05:37.524Z</time></trkpt><trkpt lat="43.412751" lon="10.7052163"><ele>495.0</ele><time>2026-04-18T11:05:39.536Z</time></trkpt><trkpt lat="43.4126443" lon="10.7052645"><ele>494.0</ele><time>2026-04-18T11:05:41.526Z</time></trkpt><trkpt lat="43.412544" lon="10.7053137"><ele>493.99999999999994</ele><time>2026-04-18T11:05:43.537Z</time></trkpt><trkpt lat="43.4124572" lon="10.7053439"><ele>494.0</ele><time>2026-04-18T11:05:45.524Z</time></trkpt><trkpt lat="43.412404" lon="10.7054222"><ele>494.0</ele><time>2026-04-18T11:05:47.532Z</time></trkpt><trkpt lat="43.4123664" lon="10.7054923"><ele>494.0</ele><time>2026-04-18T11:05:51.539Z</time></trkpt><trkpt lat="43.4122892" lon="10.705527"><ele>493.99999999999994</ele><time>2026-04-18T11:05:55.545Z</time></trkpt><trkpt lat="43.4122235" lon="10.7055416"><ele>494.0</ele><time>2026-04-18T11:06:02.536Z</time></trkpt><trkpt lat="43.4121411" lon="10.7055108"><ele>493.79999999999995</ele><time>2026-04-18T11:06:05.532Z</time></trkpt><trkpt lat="43.4120402" lon="10.7054603"><ele>493.59999999999997</ele><time>2026-04-18T11:06:08.548Z</time></trkpt><trkpt lat="43.4119292" lon="10.7054294"><ele>493.4</ele><time>2026-04-18T11:06:10.536Z</time></trkpt><trkpt lat="43.411866" lon="10.7054119"><ele>493.2</ele><time>2026-04-18T11:06:11.536Z</time></trkpt><trkpt lat="43.4117794" lon="10.7053702"><ele>493.0</ele><time>2026-04-18T11:06:13.526Z</time></trkpt><trkpt lat="43.4116675" lon="10.7053138"><ele>493.0</ele><time>2026-04-18T11:06:15.538Z</time></trkpt><trkpt lat="43.4116025" lon="10.7052966"><ele>492.99999999999994</ele><time>2026-04-18T11:06:16.534Z</time></trkpt><trkpt lat="43.4114884" lon="10.7052832"><ele>492.99999999999994</ele><time>2026-04-18T11:06:18.538Z</time></trkpt><trkpt lat="43.4113933" lon="10.7052841"><ele>493.0</ele><time>2026-04-18T11:06:20.541Z</time></trkpt><trkpt lat="43.4113157" lon="10.705327"><ele>493.0</ele><time>2026-04-18T11:06:22.534Z</time></trkpt><trkpt lat="43.4112122" lon="10.7054001"><ele>494.6666666666667</ele><time>2026-04-18T11:06:24.535Z</time></trkpt><trkpt lat="43.4111237" lon="10.7054984"><ele>496.33333333333337</ele><time>2026-04-18T11:06:26.528Z</time></trkpt><trkpt lat="43.4110752" lon="10.7055711"><ele>498.0</ele><time>2026-04-18T11:06:27.536Z</time></trkpt><trkpt lat="43.4110241" lon="10.7056546"><ele>499.66666666666663</ele><time>2026-04-18T11:06:28.529Z</time></trkpt><trkpt lat="43.4109745" lon="10.7057395"><ele>501.3333333333333</ele><time>2026-04-18T11:06:29.53Z</time></trkpt><trkpt lat="43.4109284" lon="10.7058109"><ele>503.0</ele><time>2026-04-18T11:06:30.521Z</time></trkpt><trkpt lat="43.4108872" lon="10.705877"><ele>502.99999999999994</ele><time>2026-04-18T11:06:31.526Z</time></trkpt><trkpt lat="43.4108144" lon="10.705984"><ele>503.0</ele><time>2026-04-18T11:06:33.53Z</time></trkpt><trkpt lat="43.4107152" lon="10.7060664"><ele>503.0</ele><time>2026-04-18T11:06:35.535Z</time></trkpt><trkpt lat="43.4106588" lon="10.7061067"><ele>503.0</ele><time>2026-04-18T11:06:36.527Z</time></trkpt><trkpt lat="43.4106033" lon="10.70615"><ele>502.99999999999994</ele><time>2026-04-18T11:06:37.531Z</time></trkpt><trkpt lat="43.4105426" lon="10.7061955"><ele>503.0</ele><time>2026-04-18T11:06:38.534Z</time></trkpt><trkpt lat="43.4104694" lon="10.7062496"><ele>502.99999999999994</ele><time>2026-04-18T11:06:39.544Z</time></trkpt><trkpt lat="43.4103958" lon="10.7063047"><ele>503.0</ele><time>2026-04-18T11:06:40.527Z</time></trkpt><trkpt lat="43.4103359" lon="10.706334"><ele>503.0</ele><time>2026-04-18T11:06:41.541Z</time></trkpt><trkpt lat="43.4102285" lon="10.7063478"><ele>503.0</ele><time>2026-04-18T11:06:43.528Z</time></trkpt><trkpt lat="43.4101628" lon="10.7063375"><ele>502.99999999999994</ele><time>2026-04-18T11:06:44.531Z</time></trkpt><trkpt lat="43.4100989" lon="10.7063237"><ele>503.0</ele><time>2026-04-18T11:06:45.539Z</time></trkpt><trkpt lat="43.4099873" lon="10.7063387"><ele>502.99999999999994</ele><time>2026-04-18T11:06:47.546Z</time></trkpt><trkpt lat="43.4099029" lon="10.7063527"><ele>503.0</ele><time>2026-04-18T11:06:49.538Z</time></trkpt><trkpt lat="43.4098314" lon="10.7063906"><ele>503.0</ele><time>2026-04-18T11:06:51.53Z</time></trkpt><trkpt lat="43.4097363" lon="10.7064991"><ele>503.0</ele><time>2026-04-18T11:06:53.519Z</time></trkpt><trkpt lat="43.4096853" lon="10.7065741"><ele>502.99999999999994</ele><time>2026-04-18T11:06:54.529Z</time></trkpt><trkpt lat="43.4096516" lon="10.7066545"><ele>503.0</ele><time>2026-04-18T11:06:55.525Z</time></trkpt><trkpt lat="43.4096208" lon="10.7067697"><ele>503.49999999999994</ele><time>2026-04-18T11:06:57.54Z</time></trkpt><trkpt lat="43.4095522" lon="10.706883"><ele>504.0</ele><time>2026-04-18T11:06:59.542Z</time></trkpt><trkpt lat="43.4094991" lon="10.7069502"><ele>504.5</ele><time>2026-04-18T11:07:00.531Z</time></trkpt><trkpt lat="43.4094374" lon="10.7070017"><ele>505.0</ele><time>2026-04-18T11:07:01.536Z</time></trkpt><trkpt lat="43.4093652" lon="10.7070553"><ele>505.49999999999994</ele><time>2026-04-18T11:07:02.524Z</time></trkpt><trkpt lat="43.4093057" lon="10.7071046"><ele>506.0</ele><time>2026-04-18T11:07:03.528Z</time></trkpt><trkpt lat="43.4092201" lon="10.707206"><ele>505.99999999999994</ele><time>2026-04-18T11:07:05.522Z</time></trkpt><trkpt lat="43.4091808" lon="10.7073383"><ele>506.0</ele><time>2026-04-18T11:07:07.526Z</time></trkpt><trkpt lat="43.4091636" lon="10.7074291"><ele>506.0</ele><time>2026-04-18T11:07:08.539Z</time></trkpt><trkpt lat="43.4091457" lon="10.7075149"><ele>506.0</ele><time>2026-04-18T11:07:09.53Z</time></trkpt><trkpt lat="43.4091297" lon="10.7076501"><ele>505.99999999999994</ele><time>2026-04-18T11:07:11.536Z</time></trkpt><trkpt lat="43.4091393" lon="10.7077603"><ele>506.0</ele><time>2026-04-18T11:07:13.541Z</time></trkpt><trkpt lat="43.4091359" lon="10.7078852"><ele>505.16666666666663</ele><time>2026-04-18T11:07:15.546Z</time></trkpt><trkpt lat="43.4091212" lon="10.7079934"><ele>504.3333333333333</ele><time>2026-04-18T11:07:17.538Z</time></trkpt><trkpt lat="43.4091101" lon="10.7081078"><ele>503.5</ele><time>2026-04-18T11:07:19.537Z</time></trkpt><trkpt lat="43.4090941" lon="10.7082302"><ele>502.66666666666663</ele><time>2026-04-18T11:07:21.536Z</time></trkpt><trkpt lat="43.4090941" lon="10.7083247"><ele>501.8333333333333</ele><time>2026-04-18T11:07:24.531Z</time></trkpt><trkpt lat="43.4090961" lon="10.7084346"><ele>501.0</ele><time>2026-04-18T11:07:28.539Z</time></trkpt><trkpt lat="43.4091271" lon="10.7085431"><ele>500.4</ele><time>2026-04-18T11:07:30.538Z</time></trkpt><trkpt lat="43.4091436" lon="10.7086451"><ele>499.8</ele><time>2026-04-18T11:07:31.533Z</time></trkpt><trkpt lat="43.4091519" lon="10.7087874"><ele>499.19999999999993</ele><time>2026-04-18T11:07:33.533Z</time></trkpt><trkpt lat="43.4091499" lon="10.70891"><ele>498.59999999999997</ele><time>2026-04-18T11:07:35.535Z</time></trkpt><trkpt lat="43.4091706" lon="10.7090308"><ele>498.0</ele><time>2026-04-18T11:07:37.53Z</time></trkpt><trkpt lat="43.4092023" lon="10.7091754"><ele>498.0</ele><time>2026-04-18T11:07:39.531Z</time></trkpt><trkpt lat="43.409219" lon="10.7093191"><ele>497.99999999999994</ele><time>2026-04-18T11:07:41.534Z</time></trkpt><trkpt lat="43.4091824" lon="10.7094784"><ele>497.99999999999994</ele><time>2026-04-18T11:07:43.55Z</time></trkpt><trkpt lat="43.4091434" lon="10.7096143"><ele>498.0</ele><time>2026-04-18T11:07:45.539Z</time></trkpt><trkpt lat="43.4091146" lon="10.7096987"><ele>498.0</ele><time>2026-04-18T11:07:46.543Z</time></trkpt><trkpt lat="43.4090806" lon="10.7097798"><ele>497.3333333333333</ele><time>2026-04-18T11:07:47.534Z</time></trkpt><trkpt lat="43.4090518" lon="10.7098643"><ele>496.66666666666663</ele><time>2026-04-18T11:07:48.532Z</time></trkpt><trkpt lat="43.4090197" lon="10.7099936"><ele>496.0</ele><time>2026-04-18T11:07:50.537Z</time></trkpt><trkpt lat="43.4089992" lon="10.7100798"><ele>495.3333333333333</ele><time>2026-04-18T11:07:51.535Z</time></trkpt><trkpt lat="43.4089937" lon="10.7101841"><ele>494.66666666666663</ele><time>2026-04-18T11:07:52.549Z</time></trkpt><trkpt lat="43.4089803" lon="10.7102918"><ele>494.0</ele><time>2026-04-18T11:07:53.535Z</time></trkpt><trkpt lat="43.4089579" lon="10.7103948"><ele>494.6</ele><time>2026-04-18T11:07:54.535Z</time></trkpt><trkpt lat="43.4089354" lon="10.7104979"><ele>495.2</ele><time>2026-04-18T11:07:55.537Z</time></trkpt><trkpt lat="43.4089173" lon="10.7105906"><ele>495.80000000000007</ele><time>2026-04-18T11:07:56.54Z</time></trkpt><trkpt lat="43.4088624" lon="10.7107245"><ele>496.40000000000003</ele><time>2026-04-18T11:07:58.54Z</time></trkpt><trkpt lat="43.4087904" lon="10.7108512"><ele>497.0</ele><time>2026-04-18T11:08:00.539Z</time></trkpt><trkpt lat="43.4086735" lon="10.7109281"><ele>496.99999999999994</ele><time>2026-04-18T11:08:02.536Z</time></trkpt><trkpt lat="43.4085944" lon="10.7109314"><ele>497.0</ele><time>2026-04-18T11:08:03.537Z</time></trkpt><trkpt lat="43.4085133" lon="10.710932"><ele>497.0</ele><time>2026-04-18T11:08:04.542Z</time></trkpt><trkpt lat="43.4084403" lon="10.7109615"><ele>497.0</ele><time>2026-04-18T11:08:05.548Z</time></trkpt><trkpt lat="43.4083561" lon="10.7109965"><ele>496.99999999999994</ele><time>2026-04-18T11:08:06.534Z</time></trkpt><trkpt lat="43.408266" lon="10.711052"><ele>497.0</ele><time>2026-04-18T11:08:07.538Z</time></trkpt><trkpt lat="43.4081728" lon="10.711117"><ele>496.20000000000005</ele><time>2026-04-18T11:08:08.535Z</time></trkpt><trkpt lat="43.4080917" lon="10.7111573"><ele>495.40000000000003</ele><time>2026-04-18T11:08:09.539Z</time></trkpt><trkpt lat="43.4080061" lon="10.7111923"><ele>494.59999999999997</ele><time>2026-04-18T11:08:10.536Z</time></trkpt><trkpt lat="43.4079218" lon="10.7112261"><ele>493.79999999999995</ele><time>2026-04-18T11:08:11.537Z</time></trkpt><trkpt lat="43.4078382" lon="10.7112641"><ele>493.0</ele><time>2026-04-18T11:08:12.549Z</time></trkpt><trkpt lat="43.4077422" lon="10.7113094"><ele>493.00000000000006</ele><time>2026-04-18T11:08:13.533Z</time></trkpt><trkpt lat="43.4076431" lon="10.711359"><ele>493.0</ele><time>2026-04-18T11:08:14.545Z</time></trkpt><trkpt lat="43.4075575" lon="10.711402"><ele>493.0</ele><time>2026-04-18T11:08:15.542Z</time></trkpt><trkpt lat="43.4074756" lon="10.7114446"><ele>493.0</ele><time>2026-04-18T11:08:16.537Z</time></trkpt><trkpt lat="43.4074053" lon="10.7114679"><ele>493.00000000000006</ele><time>2026-04-18T11:08:17.542Z</time></trkpt><trkpt lat="43.407328" lon="10.711471"><ele>493.0</ele><time>2026-04-18T11:08:18.545Z</time></trkpt><trkpt lat="43.4072501" lon="10.7114505"><ele>495.50000000000006</ele><time>2026-04-18T11:08:19.545Z</time></trkpt><trkpt lat="43.4071303" lon="10.7114402"><ele>498.0</ele><time>2026-04-18T11:08:21.551Z</time></trkpt><trkpt lat="43.4070629" lon="10.711474"><ele>500.5</ele><time>2026-04-18T11:08:22.535Z</time></trkpt><trkpt lat="43.4070057" lon="10.7115254"><ele>503.0</ele><time>2026-04-18T11:08:23.531Z</time></trkpt><trkpt lat="43.4069402" lon="10.7115855"><ele>505.50000000000006</ele><time>2026-04-18T11:08:24.539Z</time></trkpt><trkpt lat="43.4068586" lon="10.7116466"><ele>508.0</ele><time>2026-04-18T11:08:25.544Z</time></trkpt><trkpt lat="43.4067742" lon="10.7117177"><ele>508.00000000000006</ele><time>2026-04-18T11:08:26.537Z</time></trkpt><trkpt lat="43.4066908" lon="10.7117804"><ele>508.0</ele><time>2026-04-18T11:08:27.549Z</time></trkpt><trkpt lat="43.4066216" lon="10.7118416"><ele>508.0</ele><time>2026-04-18T11:08:28.539Z</time></trkpt><trkpt lat="43.4065591" lon="10.7119062"><ele>508.0</ele><time>2026-04-18T11:08:29.545Z</time></trkpt><trkpt lat="43.406492" lon="10.7119739"><ele>508.00000000000006</ele><time>2026-04-18T11:08:30.543Z</time></trkpt><trkpt lat="43.4064282" lon="10.712035"><ele>508.0</ele><time>2026-04-18T11:08:31.54Z</time></trkpt><trkpt lat="43.4063473" lon="10.7121453"><ele>507.4</ele><time>2026-04-18T11:08:33.538Z</time></trkpt><trkpt lat="43.4062964" lon="10.7123039"><ele>506.79999999999995</ele><time>2026-04-18T11:08:35.536Z</time></trkpt><trkpt lat="43.4062722" lon="10.7123986"><ele>506.2</ele><time>2026-04-18T11:08:36.54Z</time></trkpt><trkpt lat="43.4062382" lon="10.7125314"><ele>505.6</ele><time>2026-04-18T11:08:38.538Z</time></trkpt><trkpt lat="43.4061796" lon="10.7126727"><ele>505.0</ele><time>2026-04-18T11:08:40.541Z</time></trkpt><trkpt lat="43.4061136" lon="10.7128006"><ele>505.00000000000006</ele><time>2026-04-18T11:08:42.537Z</time></trkpt><trkpt lat="43.4060237" lon="10.7129336"><ele>505.0</ele><time>2026-04-18T11:08:44.534Z</time></trkpt><trkpt lat="43.4059648" lon="10.7130168"><ele>505.0</ele><time>2026-04-18T11:08:45.543Z</time></trkpt><trkpt lat="43.40592" lon="10.7130971"><ele>505.0</ele><time>2026-04-18T11:08:46.537Z</time></trkpt><trkpt lat="43.4058873" lon="10.7131798"><ele>505.00000000000006</ele><time>2026-04-18T11:08:47.542Z</time></trkpt><trkpt lat="43.4058458" lon="10.7132795"><ele>505.0</ele><time>2026-04-18T11:08:48.533Z</time></trkpt><trkpt lat="43.405813" lon="10.7133912"><ele>505.00000000000006</ele><time>2026-04-18T11:08:49.545Z</time></trkpt><trkpt lat="43.4057823" lon="10.7135098"><ele>505.0</ele><time>2026-04-18T11:08:50.536Z</time></trkpt><trkpt lat="43.4057468" lon="10.7136141"><ele>505.0</ele><time>2026-04-18T11:08:51.539Z</time></trkpt><trkpt lat="43.4057038" lon="10.7137154"><ele>505.0</ele><time>2026-04-18T11:08:52.534Z</time></trkpt><trkpt lat="43.4056587" lon="10.713817"><ele>505.00000000000006</ele><time>2026-04-18T11:08:53.533Z</time></trkpt><trkpt lat="43.4056202" lon="10.7139194"><ele>505.0</ele><time>2026-04-18T11:08:54.533Z</time></trkpt><trkpt lat="43.4055852" lon="10.7140248"><ele>503.33333333333337</ele><time>2026-04-18T11:08:55.524Z</time></trkpt><trkpt lat="43.4055514" lon="10.7141267"><ele>501.6666666666667</ele><time>2026-04-18T11:08:56.532Z</time></trkpt><trkpt lat="43.4055153" lon="10.7142194"><ele>500.0</ele><time>2026-04-18T11:08:57.535Z</time></trkpt><trkpt lat="43.4054858" lon="10.7143295"><ele>498.33333333333337</ele><time>2026-04-18T11:08:58.538Z</time></trkpt><trkpt lat="43.4054653" lon="10.7144326"><ele>496.6666666666667</ele><time>2026-04-18T11:08:59.524Z</time></trkpt><trkpt lat="43.405457" lon="10.7145459"><ele>495.0</ele><time>2026-04-18T11:09:00.535Z</time></trkpt><trkpt lat="43.4054571" lon="10.7146588"><ele>496.5</ele><time>2026-04-18T11:09:01.53Z</time></trkpt><trkpt lat="43.4054628" lon="10.7147588"><ele>498.0</ele><time>2026-04-18T11:09:02.539Z</time></trkpt><trkpt lat="43.4054635" lon="10.7148627"><ele>499.5</ele><time>2026-04-18T11:09:03.526Z</time></trkpt><trkpt lat="43.4054567" lon="10.7149685"><ele>501.0</ele><time>2026-04-18T11:09:04.536Z</time></trkpt><trkpt lat="43.4054435" lon="10.7150742"><ele>502.5</ele><time>2026-04-18T11:09:05.534Z</time></trkpt><trkpt lat="43.4054239" lon="10.7151898"><ele>504.0</ele><time>2026-04-18T11:09:06.534Z</time></trkpt><trkpt lat="43.4054036" lon="10.7153012"><ele>504.0</ele><time>2026-04-18T11:09:07.535Z</time></trkpt><trkpt lat="43.4053886" lon="10.7154077"><ele>504.0</ele><time>2026-04-18T11:09:08.533Z</time></trkpt><trkpt lat="43.4053675" lon="10.7155099"><ele>504.0</ele><time>2026-04-18T11:09:09.536Z</time></trkpt><trkpt lat="43.4053467" lon="10.7156139"><ele>504.0</ele><time>2026-04-18T11:09:10.539Z</time></trkpt><trkpt lat="43.405329" lon="10.7157056"><ele>504.0</ele><time>2026-04-18T11:09:11.531Z</time></trkpt><trkpt lat="43.405314" lon="10.7158045"><ele>504.0</ele><time>2026-04-18T11:09:12.529Z</time></trkpt><trkpt lat="43.405302" lon="10.715894"><ele>504.0</ele><time>2026-04-18T11:09:13.538Z</time></trkpt><trkpt lat="43.4052663" lon="10.7160211"><ele>499.79999999999995</ele><time>2026-04-18T11:09:15.534Z</time></trkpt><trkpt lat="43.4052119" lon="10.7160961"><ele>495.59999999999997</ele><time>2026-04-18T11:09:17.536Z</time></trkpt><trkpt lat="43.4050853" lon="10.7161433"><ele>491.4</ele><time>2026-04-18T11:09:19.537Z</time></trkpt><trkpt lat="43.404986" lon="10.7161748"><ele>487.2</ele><time>2026-04-18T11:09:20.523Z</time></trkpt><trkpt lat="43.4048778" lon="10.7162285"><ele>483.0</ele><time>2026-04-18T11:09:21.532Z</time></trkpt><trkpt lat="43.4047535" lon="10.7163024"><ele>486.0</ele><time>2026-04-18T11:09:22.518Z</time></trkpt><trkpt lat="43.4046354" lon="10.7163866"><ele>489.0</ele><time>2026-04-18T11:09:23.521Z</time></trkpt><trkpt lat="43.4045242" lon="10.7164636"><ele>492.0</ele><time>2026-04-18T11:09:24.524Z</time></trkpt><trkpt lat="43.4044214" lon="10.7165149"><ele>495.0</ele><time>2026-04-18T11:09:25.523Z</time></trkpt><trkpt lat="43.4043325" lon="10.7165548"><ele>495.0</ele><time>2026-04-18T11:09:26.509Z</time></trkpt><trkpt lat="43.4042354" lon="10.7165943"><ele>495.0</ele><time>2026-04-18T11:09:27.523Z</time></trkpt><trkpt lat="43.4041591" lon="10.7166169"><ele>495.0</ele><time>2026-04-18T11:09:28.514Z</time></trkpt><trkpt lat="43.4040769" lon="10.7166428"><ele>495.0</ele><time>2026-04-18T11:09:29.521Z</time></trkpt><trkpt lat="43.404015" lon="10.7166945"><ele>495.0</ele><time>2026-04-18T11:09:30.513Z</time></trkpt><trkpt lat="43.4039724" lon="10.7167629"><ele>495.0</ele><time>2026-04-18T11:09:31.5Z</time></trkpt><trkpt lat="43.4039627" lon="10.716854"><ele>491.75</ele><time>2026-04-18T11:09:32.508Z</time></trkpt><trkpt lat="43.4039835" lon="10.7170245"><ele>488.5</ele><time>2026-04-18T11:09:34.521Z</time></trkpt><trkpt lat="43.4040242" lon="10.7171661"><ele>485.25</ele><time>2026-04-18T11:09:36.533Z</time></trkpt><trkpt lat="43.4039838" lon="10.7172862"><ele>482.0</ele><time>2026-04-18T11:09:38.527Z</time></trkpt><trkpt lat="43.403861" lon="10.7172596"><ele>481.40000000000003</ele><time>2026-04-18T11:09:40.543Z</time></trkpt><trkpt lat="43.4037971" lon="10.7171789"><ele>480.80000000000007</ele><time>2026-04-18T11:09:41.531Z</time></trkpt><trkpt lat="43.4037357" lon="10.7171001"><ele>480.2</ele><time>2026-04-18T11:09:42.542Z</time></trkpt><trkpt lat="43.4036784" lon="10.7170031"><ele>479.6</ele><time>2026-04-18T11:09:43.537Z</time></trkpt><trkpt lat="43.4036257" lon="10.7168904"><ele>479.0</ele><time>2026-04-18T11:09:44.54Z</time></trkpt><trkpt lat="43.4035744" lon="10.7167742"><ele>481.6</ele><time>2026-04-18T11:09:45.548Z</time></trkpt><trkpt lat="43.4035214" lon="10.7166586"><ele>484.2</ele><time>2026-04-18T11:09:46.542Z</time></trkpt><trkpt lat="43.4034624" lon="10.7165432"><ele>486.80000000000007</ele><time>2026-04-18T11:09:47.547Z</time></trkpt><trkpt lat="43.4034096" lon="10.7164184"><ele>489.40000000000003</ele><time>2026-04-18T11:09:48.531Z</time></trkpt><trkpt lat="43.403365" lon="10.7162884"><ele>492.0</ele><time>2026-04-18T11:09:49.526Z</time></trkpt><trkpt lat="43.4033292" lon="10.7161419"><ele>495.0</ele><time>2026-04-18T11:09:50.518Z</time></trkpt><trkpt lat="43.4033119" lon="10.7159922"><ele>498.00000000000006</ele><time>2026-04-18T11:09:51.53Z</time></trkpt><trkpt lat="43.4032773" lon="10.7158398"><ele>501.00000000000006</ele><time>2026-04-18T11:09:52.527Z</time></trkpt><trkpt lat="43.4032332" lon="10.7156972"><ele>504.0</ele><time>2026-04-18T11:09:53.521Z</time></trkpt><trkpt lat="43.4031971" lon="10.7155729"><ele>507.0</ele><time>2026-04-18T11:09:54.523Z</time></trkpt><trkpt lat="43.4031678" lon="10.715454"><ele>507.0</ele><time>2026-04-18T11:09:55.524Z</time></trkpt><trkpt lat="43.4031511" lon="10.715318"><ele>507.00000000000006</ele><time>2026-04-18T11:09:56.522Z</time></trkpt><trkpt lat="43.4031436" lon="10.7151822"><ele>507.00000000000006</ele><time>2026-04-18T11:09:57.52Z</time></trkpt><trkpt lat="43.4031519" lon="10.7150472"><ele>507.0</ele><time>2026-04-18T11:09:58.516Z</time></trkpt><trkpt lat="43.4031808" lon="10.7148983"><ele>507.0</ele><time>2026-04-18T11:09:59.519Z</time></trkpt><trkpt lat="43.4031935" lon="10.7147433"><ele>509.40000000000003</ele><time>2026-04-18T11:10:00.534Z</time></trkpt><trkpt lat="43.4031917" lon="10.7146069"><ele>511.80000000000007</ele><time>2026-04-18T11:10:01.519Z</time></trkpt><trkpt lat="43.4031792" lon="10.7144747"><ele>514.2</ele><time>2026-04-18T11:10:02.518Z</time></trkpt><trkpt lat="43.4031484" lon="10.7143318"><ele>516.6</ele><time>2026-04-18T11:10:03.521Z</time></trkpt><trkpt lat="43.4031047" lon="10.7141879"><ele>519.0</ele><time>2026-04-18T11:10:04.52Z</time></trkpt><trkpt lat="43.4030609" lon="10.7140523"><ele>517.6</ele><time>2026-04-18T11:10:05.516Z</time></trkpt><trkpt lat="43.403016" lon="10.7139168"><ele>516.2</ele><time>2026-04-18T11:10:06.53Z</time></trkpt><trkpt lat="43.4029751" lon="10.7137692"><ele>514.8000000000001</ele><time>2026-04-18T11:10:07.521Z</time></trkpt><trkpt lat="43.4029263" lon="10.7136317"><ele>513.4</ele><time>2026-04-18T11:10:08.523Z</time></trkpt><trkpt lat="43.4028743" lon="10.7135076"><ele>512.0</ele><time>2026-04-18T11:10:09.528Z</time></trkpt><trkpt lat="43.4028147" lon="10.7133872"><ele>514.8000000000001</ele><time>2026-04-18T11:10:10.523Z</time></trkpt><trkpt lat="43.4027635" lon="10.7132641"><ele>517.6</ele><time>2026-04-18T11:10:11.522Z</time></trkpt><trkpt lat="43.4027217" lon="10.7131339"><ele>520.4000000000001</ele><time>2026-04-18T11:10:12.513Z</time></trkpt><trkpt lat="43.4026835" lon="10.7130116"><ele>523.2</ele><time>2026-04-18T11:10:13.513Z</time></trkpt><trkpt lat="43.4026518" lon="10.7128889"><ele>526.0</ele><time>2026-04-18T11:10:14.52Z</time></trkpt><trkpt lat="43.4026157" lon="10.7127714"><ele>529.2</ele><time>2026-04-18T11:10:15.524Z</time></trkpt><trkpt lat="43.4025647" lon="10.7126696"><ele>532.4000000000001</ele><time>2026-04-18T11:10:16.511Z</time></trkpt><trkpt lat="43.4024916" lon="10.7125954"><ele>535.6</ele><time>2026-04-18T11:10:17.51Z</time></trkpt><trkpt lat="43.4023973" lon="10.7124893"><ele>538.8000000000001</ele><time>2026-04-18T11:10:18.511Z</time></trkpt><trkpt lat="43.402301" lon="10.7124159"><ele>542.0</ele><time>2026-04-18T11:10:19.505Z</time></trkpt><trkpt lat="43.4022033" lon="10.7123458"><ele>542.2</ele><time>2026-04-18T11:10:20.506Z</time></trkpt><trkpt lat="43.4021117" lon="10.7123135"><ele>542.4000000000001</ele><time>2026-04-18T11:10:21.504Z</time></trkpt><trkpt lat="43.4020164" lon="10.7122941"><ele>542.5999999999999</ele><time>2026-04-18T11:10:22.509Z</time></trkpt><trkpt lat="43.4019212" lon="10.71227"><ele>542.8</ele><time>2026-04-18T11:10:23.51Z</time></trkpt><trkpt lat="43.4018138" lon="10.7122569"><ele>543.0</ele><time>2026-04-18T11:10:24.502Z</time></trkpt><trkpt lat="43.401684" lon="10.7122496"><ele>543.0</ele><time>2026-04-18T11:10:25.499Z</time></trkpt><trkpt lat="43.401554" lon="10.7122378"><ele>543.0</ele><time>2026-04-18T11:10:26.502Z</time></trkpt><trkpt lat="43.4014278" lon="10.7122223"><ele>543.0</ele><time>2026-04-18T11:10:27.51Z</time></trkpt><trkpt lat="43.4013177" lon="10.7122226"><ele>543.0</ele><time>2026-04-18T11:10:28.519Z</time></trkpt><trkpt lat="43.4012112" lon="10.7122407"><ele>543.0</ele><time>2026-04-18T11:10:29.516Z</time></trkpt><trkpt lat="43.4011071" lon="10.7122443"><ele>543.0</ele><time>2026-04-18T11:10:30.518Z</time></trkpt><trkpt lat="43.4010106" lon="10.7122629"><ele>543.0</ele><time>2026-04-18T11:10:31.521Z</time></trkpt><trkpt lat="43.4009066" lon="10.712288"><ele>543.0</ele><time>2026-04-18T11:10:32.517Z</time></trkpt><trkpt lat="43.4008118" lon="10.7123379"><ele>543.0</ele><time>2026-04-18T11:10:33.519Z</time></trkpt><trkpt lat="43.4007146" lon="10.7123813"><ele>543.0</ele><time>2026-04-18T11:10:34.519Z</time></trkpt><trkpt lat="43.4005867" lon="10.7124415"><ele>543.0</ele><time>2026-04-18T11:10:35.518Z</time></trkpt><trkpt lat="43.4004394" lon="10.7124995"><ele>543.0</ele><time>2026-04-18T11:10:36.524Z</time></trkpt><trkpt lat="43.4002858" lon="10.7125833"><ele>543.0</ele><time>2026-04-18T11:10:37.53Z</time></trkpt><trkpt lat="43.4001525" lon="10.7126309"><ele>543.0</ele><time>2026-04-18T11:10:38.524Z</time></trkpt><trkpt lat="43.4000404" lon="10.7126935"><ele>543.0</ele><time>2026-04-18T11:10:39.529Z</time></trkpt><trkpt lat="43.3999192" lon="10.7127257"><ele>543.0</ele><time>2026-04-18T11:10:40.529Z</time></trkpt><trkpt lat="43.3998037" lon="10.7127682"><ele>543.8333333333334</ele><time>2026-04-18T11:10:41.529Z</time></trkpt><trkpt lat="43.3997049" lon="10.7128138"><ele>544.6666666666666</ele><time>2026-04-18T11:10:42.528Z</time></trkpt><trkpt lat="43.3996113" lon="10.712842"><ele>545.5</ele><time>2026-04-18T11:10:43.524Z</time></trkpt><trkpt lat="43.3995329" lon="10.7128705"><ele>546.3333333333333</ele><time>2026-04-18T11:10:44.526Z</time></trkpt><trkpt lat="43.3994688" lon="10.7129148"><ele>547.1666666666666</ele><time>2026-04-18T11:10:45.524Z</time></trkpt><trkpt lat="43.399405" lon="10.7129911"><ele>548.0</ele><time>2026-04-18T11:10:46.525Z</time></trkpt><trkpt lat="43.3993514" lon="10.7131026"><ele>548.0</ele><time>2026-04-18T11:10:47.522Z</time></trkpt><trkpt lat="43.3993114" lon="10.7132187"><ele>548.0</ele><time>2026-04-18T11:10:48.531Z</time></trkpt><trkpt lat="43.3992664" lon="10.7133424"><ele>548.0</ele><time>2026-04-18T11:10:49.521Z</time></trkpt><trkpt lat="43.3991984" lon="10.7134448"><ele>548.0</ele><time>2026-04-18T11:10:50.521Z</time></trkpt><trkpt lat="43.3991061" lon="10.7135316"><ele>548.0</ele><time>2026-04-18T11:10:51.517Z</time></trkpt><trkpt lat="43.3990032" lon="10.7136194"><ele>545.5</ele><time>2026-04-18T11:10:52.519Z</time></trkpt><trkpt lat="43.3988917" lon="10.7137041"><ele>543.0</ele><time>2026-04-18T11:10:53.521Z</time></trkpt><trkpt lat="43.3987868" lon="10.7137855"><ele>540.5</ele><time>2026-04-18T11:10:54.519Z</time></trkpt><trkpt lat="43.398697" lon="10.7138855"><ele>538.0</ele><time>2026-04-18T11:10:55.526Z</time></trkpt><trkpt lat="43.3986132" lon="10.7140234"><ele>539.25</ele><time>2026-04-18T11:10:56.513Z</time></trkpt><trkpt lat="43.3985453" lon="10.7141788"><ele>540.5</ele><time>2026-04-18T11:10:57.51Z</time></trkpt><trkpt lat="43.3984927" lon="10.7143194"><ele>541.75</ele><time>2026-04-18T11:10:58.519Z</time></trkpt><trkpt lat="43.398437" lon="10.7144337"><ele>543.0</ele><time>2026-04-18T11:10:59.514Z</time></trkpt><trkpt lat="43.3983614" lon="10.7145311"><ele>543.0</ele><time>2026-04-18T11:11:00.521Z</time></trkpt><trkpt lat="43.3982738" lon="10.7145945"><ele>543.0</ele><time>2026-04-18T11:11:01.513Z</time></trkpt><trkpt lat="43.3981717" lon="10.7146749"><ele>543.0</ele><time>2026-04-18T11:11:02.515Z</time></trkpt><trkpt lat="43.3980685" lon="10.7147474"><ele>543.0</ele><time>2026-04-18T11:11:03.512Z</time></trkpt><trkpt lat="43.3979828" lon="10.7148182"><ele>543.0</ele><time>2026-04-18T11:11:04.521Z</time></trkpt><trkpt lat="43.3979075" lon="10.714876"><ele>545.1999999999999</ele><time>2026-04-18T11:11:05.526Z</time></trkpt><trkpt lat="43.397826" lon="10.7149206"><ele>547.4</ele><time>2026-04-18T11:11:06.518Z</time></trkpt><trkpt lat="43.3977226" lon="10.714961"><ele>549.5999999999999</ele><time>2026-04-18T11:11:07.525Z</time></trkpt><trkpt lat="43.3976088" lon="10.7149904"><ele>551.8</ele><time>2026-04-18T11:11:08.511Z</time></trkpt><trkpt lat="43.3974887" lon="10.7150243"><ele>554.0</ele><time>2026-04-18T11:11:09.518Z</time></trkpt><trkpt lat="43.3973678" lon="10.7150713"><ele>554.0</ele><time>2026-04-18T11:11:10.509Z</time></trkpt><trkpt lat="43.3972497" lon="10.7151186"><ele>554.0</ele><time>2026-04-18T11:11:11.518Z</time></trkpt><trkpt lat="43.3971414" lon="10.7151797"><ele>554.0</ele><time>2026-04-18T11:11:12.514Z</time></trkpt><trkpt lat="43.3970503" lon="10.7152294"><ele>554.0</ele><time>2026-04-18T11:11:13.515Z</time></trkpt><trkpt lat="43.3969722" lon="10.7152644"><ele>554.0</ele><time>2026-04-18T11:11:14.515Z</time></trkpt><trkpt lat="43.3968968" lon="10.7152651"><ele>554.0</ele><time>2026-04-18T11:11:15.509Z</time></trkpt><trkpt lat="43.396813" lon="10.7152332"><ele>554.0</ele><time>2026-04-18T11:11:16.529Z</time></trkpt><trkpt lat="43.3967355" lon="10.7151891"><ele>554.0</ele><time>2026-04-18T11:11:17.523Z</time></trkpt><trkpt lat="43.3966484" lon="10.7150916"><ele>554.0</ele><time>2026-04-18T11:11:18.515Z</time></trkpt><trkpt lat="43.3965508" lon="10.7149807"><ele>554.0</ele><time>2026-04-18T11:11:19.52Z</time></trkpt><trkpt lat="43.3964543" lon="10.7148581"><ele>554.0</ele><time>2026-04-18T11:11:20.519Z</time></trkpt><trkpt lat="43.3963618" lon="10.7147391"><ele>554.0</ele><time>2026-04-18T11:11:21.51Z</time></trkpt><trkpt lat="43.3962727" lon="10.7146302"><ele>554.0</ele><time>2026-04-18T11:11:22.525Z</time></trkpt><trkpt lat="43.3961769" lon="10.7145306"><ele>554.0</ele><time>2026-04-18T11:11:23.51Z</time></trkpt><trkpt lat="43.3960615" lon="10.7144533"><ele>554.75</ele><time>2026-04-18T11:11:24.515Z</time></trkpt><trkpt lat="43.3959399" lon="10.7143857"><ele>555.5</ele><time>2026-04-18T11:11:25.532Z</time></trkpt><trkpt lat="43.3958173" lon="10.7143228"><ele>556.25</ele><time>2026-04-18T11:11:26.521Z</time></trkpt><trkpt lat="43.3956906" lon="10.7142702"><ele>557.0</ele><time>2026-04-18T11:11:27.54Z</time></trkpt><trkpt lat="43.3955588" lon="10.71422"><ele>556.25</ele><time>2026-04-18T11:11:28.527Z</time></trkpt><trkpt lat="43.3954061" lon="10.7141606"><ele>555.5</ele><time>2026-04-18T11:11:29.538Z</time></trkpt><trkpt lat="43.3952786" lon="10.7141049"><ele>554.75</ele><time>2026-04-18T11:11:30.526Z</time></trkpt><trkpt lat="43.3951613" lon="10.7140679"><ele>554.0</ele><time>2026-04-18T11:11:31.523Z</time></trkpt><trkpt lat="43.3950467" lon="10.714026"><ele>554.0</ele><time>2026-04-18T11:11:32.524Z</time></trkpt><trkpt lat="43.3949423" lon="10.7139877"><ele>554.0</ele><time>2026-04-18T11:11:33.519Z</time></trkpt><trkpt lat="43.3948557" lon="10.7139492"><ele>554.0</ele><time>2026-04-18T11:11:34.524Z</time></trkpt><trkpt lat="43.3947925" lon="10.7139104"><ele>554.0</ele><time>2026-04-18T11:11:35.528Z</time></trkpt><trkpt lat="43.3947068" lon="10.7138902"><ele>554.0</ele><time>2026-04-18T11:11:37.518Z</time></trkpt><trkpt lat="43.3946137" lon="10.7139538"><ele>553.25</ele><time>2026-04-18T11:11:39.532Z</time></trkpt><trkpt lat="43.3945811" lon="10.7140472"><ele>552.5</ele><time>2026-04-18T11:11:40.535Z</time></trkpt><trkpt lat="43.3945474" lon="10.7141805"><ele>551.75</ele><time>2026-04-18T11:11:41.527Z</time></trkpt><trkpt lat="43.3945138" lon="10.714354"><ele>551.0</ele><time>2026-04-18T11:11:42.527Z</time></trkpt><trkpt lat="43.3944714" lon="10.7145463"><ele>551.0</ele><time>2026-04-18T11:11:43.532Z</time></trkpt><trkpt lat="43.3944222" lon="10.7147235"><ele>551.0</ele><time>2026-04-18T11:11:44.522Z</time></trkpt><trkpt lat="43.3943717" lon="10.7148733"><ele>551.0</ele><time>2026-04-18T11:11:45.542Z</time></trkpt><trkpt lat="43.3943142" lon="10.7150225"><ele>551.0</ele><time>2026-04-18T11:11:46.531Z</time></trkpt><trkpt lat="43.3942462" lon="10.7151624"><ele>551.3333333333333</ele><time>2026-04-18T11:11:47.532Z</time></trkpt><trkpt lat="43.3941455" lon="10.715315"><ele>551.6666666666666</ele><time>2026-04-18T11:11:48.527Z</time></trkpt><trkpt lat="43.3940214" lon="10.7154734"><ele>552.0</ele><time>2026-04-18T11:11:49.527Z</time></trkpt><trkpt lat="43.3938833" lon="10.71562"><ele>553.25</ele><time>2026-04-18T11:11:50.526Z</time></trkpt><trkpt lat="43.3937629" lon="10.7157438"><ele>554.5</ele><time>2026-04-18T11:11:51.533Z</time></trkpt><trkpt lat="43.3936613" lon="10.7158449"><ele>555.75</ele><time>2026-04-18T11:11:52.522Z</time></trkpt><trkpt lat="43.3935742" lon="10.7159701"><ele>557.0</ele><time>2026-04-18T11:11:53.526Z</time></trkpt><trkpt lat="43.3935176" lon="10.7161306"><ele>557.25</ele><time>2026-04-18T11:11:54.521Z</time></trkpt><trkpt lat="43.3934739" lon="10.7163379"><ele>557.5</ele><time>2026-04-18T11:11:55.523Z</time></trkpt><trkpt lat="43.3934543" lon="10.7165347"><ele>557.75</ele><time>2026-04-18T11:11:56.526Z</time></trkpt><trkpt lat="43.3934312" lon="10.7167344"><ele>558.0</ele><time>2026-04-18T11:11:57.517Z</time></trkpt><trkpt lat="43.393414" lon="10.7169412"><ele>558.0</ele><time>2026-04-18T11:11:58.529Z</time></trkpt><trkpt lat="43.3933954" lon="10.7171268"><ele>558.0</ele><time>2026-04-18T11:11:59.53Z</time></trkpt><trkpt lat="43.3933648" lon="10.7173191"><ele>558.0</ele><time>2026-04-18T11:12:00.525Z</time></trkpt><trkpt lat="43.3933364" lon="10.7175177"><ele>558.0</ele><time>2026-04-18T11:12:01.522Z</time></trkpt><trkpt lat="43.3932984" lon="10.7177243"><ele>556.75</ele><time>2026-04-18T11:12:02.515Z</time></trkpt><trkpt lat="43.3932551" lon="10.7179257"><ele>555.5</ele><time>2026-04-18T11:12:03.518Z</time></trkpt><trkpt lat="43.3932018" lon="10.7181015"><ele>554.25</ele><time>2026-04-18T11:12:04.526Z</time></trkpt><trkpt lat="43.3931292" lon="10.7182511"><ele>553.0</ele><time>2026-04-18T11:12:05.525Z</time></trkpt><trkpt lat="43.393076" lon="10.7184651"><ele>552.5</ele><time>2026-04-18T11:12:06.52Z</time></trkpt><trkpt lat="43.3929838" lon="10.7186444"><ele>552.0</ele><time>2026-04-18T11:12:07.519Z</time></trkpt><trkpt lat="43.392921" lon="10.7188151"><ele>551.5</ele><time>2026-04-18T11:12:08.535Z</time></trkpt><trkpt lat="43.392868" lon="10.7189765"><ele>551.0</ele><time>2026-04-18T11:12:09.532Z</time></trkpt><trkpt lat="43.3927951" lon="10.7191345"><ele>551.0</ele><time>2026-04-18T11:12:10.541Z</time></trkpt><trkpt lat="43.392698" lon="10.7192775"><ele>551.0</ele><time>2026-04-18T11:12:11.53Z</time></trkpt><trkpt lat="43.3926106" lon="10.7194266"><ele>551.0</ele><time>2026-04-18T11:12:12.526Z</time></trkpt><trkpt lat="43.3925311" lon="10.7195654"><ele>551.0</ele><time>2026-04-18T11:12:13.534Z</time></trkpt><trkpt lat="43.3924534" lon="10.7196815"><ele>549.25</ele><time>2026-04-18T11:12:14.524Z</time></trkpt><trkpt lat="43.3923867" lon="10.7198004"><ele>547.5</ele><time>2026-04-18T11:12:15.531Z</time></trkpt><trkpt lat="43.3923191" lon="10.7199237"><ele>545.75</ele><time>2026-04-18T11:12:16.527Z</time></trkpt><trkpt lat="43.3922494" lon="10.7200891"><ele>544.0</ele><time>2026-04-18T11:12:17.512Z</time></trkpt><trkpt lat="43.3921731" lon="10.7202681"><ele>540.25</ele><time>2026-04-18T11:12:18.535Z</time></trkpt><trkpt lat="43.3921165" lon="10.7204361"><ele>536.5</ele><time>2026-04-18T11:12:19.517Z</time></trkpt><trkpt lat="43.39207" lon="10.7205938"><ele>532.75</ele><time>2026-04-18T11:12:20.52Z</time></trkpt><trkpt lat="43.3920327" lon="10.7207475"><ele>529.0</ele><time>2026-04-18T11:12:21.528Z</time></trkpt><trkpt lat="43.3919697" lon="10.7208752"><ele>529.0</ele><time>2026-04-18T11:12:22.528Z</time></trkpt><trkpt lat="43.3919215" lon="10.7210021"><ele>529.0</ele><time>2026-04-18T11:12:23.518Z</time></trkpt><trkpt lat="43.3918864" lon="10.7211033"><ele>529.0</ele><time>2026-04-18T11:12:24.531Z</time></trkpt><trkpt lat="43.3918667" lon="10.7212309"><ele>529.0</ele><time>2026-04-18T11:12:25.526Z</time></trkpt><trkpt lat="43.3918426" lon="10.7213615"><ele>529.0</ele><time>2026-04-18T11:12:26.528Z</time></trkpt><trkpt lat="43.3918241" lon="10.7214898"><ele>528.75</ele><time>2026-04-18T11:12:27.534Z</time></trkpt><trkpt lat="43.3918165" lon="10.7216293"><ele>528.5</ele><time>2026-04-18T11:12:28.523Z</time></trkpt><trkpt lat="43.3918315" lon="10.7217881"><ele>528.25</ele><time>2026-04-18T11:12:29.525Z</time></trkpt><trkpt lat="43.3918577" lon="10.7219686"><ele>528.0</ele><time>2026-04-18T11:12:30.527Z</time></trkpt><trkpt lat="43.3918933" lon="10.722149"><ele>527.0</ele><time>2026-04-18T11:12:31.536Z</time></trkpt><trkpt lat="43.3919313" lon="10.7223233"><ele>526.0</ele><time>2026-04-18T11:12:32.532Z</time></trkpt><trkpt lat="43.3919642" lon="10.7224924"><ele>525.0</ele><time>2026-04-18T11:12:33.534Z</time></trkpt><trkpt lat="43.3920003" lon="10.7226568"><ele>524.0</ele><time>2026-04-18T11:12:34.528Z</time></trkpt><trkpt lat="43.3920253" lon="10.7228082"><ele>522.5</ele><time>2026-04-18T11:12:35.539Z</time></trkpt><trkpt lat="43.3920435" lon="10.7229494"><ele>521.0</ele><time>2026-04-18T11:12:36.528Z</time></trkpt><trkpt lat="43.3920725" lon="10.7230955"><ele>519.5</ele><time>2026-04-18T11:12:37.526Z</time></trkpt><trkpt lat="43.3921204" lon="10.7232616"><ele>518.0</ele><time>2026-04-18T11:12:38.521Z</time></trkpt><trkpt lat="43.39219" lon="10.7234406"><ele>516.25</ele><time>2026-04-18T11:12:39.518Z</time></trkpt><trkpt lat="43.3922704" lon="10.7236122"><ele>514.5</ele><time>2026-04-18T11:12:40.524Z</time></trkpt><trkpt lat="43.3923465" lon="10.723777"><ele>512.75</ele><time>2026-04-18T11:12:41.524Z</time></trkpt><trkpt lat="43.3924115" lon="10.7239317"><ele>511.0</ele><time>2026-04-18T11:12:42.528Z</time></trkpt><trkpt lat="43.392479" lon="10.7240881"><ele>511.0</ele><time>2026-04-18T11:12:43.524Z</time></trkpt><trkpt lat="43.3925501" lon="10.7242418"><ele>511.0</ele><time>2026-04-18T11:12:44.527Z</time></trkpt><trkpt lat="43.3926228" lon="10.7243805"><ele>511.0</ele><time>2026-04-18T11:12:45.528Z</time></trkpt><trkpt lat="43.3926997" lon="10.72452"><ele>511.0</ele><time>2026-04-18T11:12:46.536Z</time></trkpt><trkpt lat="43.3927736" lon="10.7246714"><ele>511.25</ele><time>2026-04-18T11:12:47.53Z</time></trkpt><trkpt lat="43.3928438" lon="10.7248118"><ele>511.5</ele><time>2026-04-18T11:12:48.531Z</time></trkpt><trkpt lat="43.3929096" lon="10.7249598"><ele>511.75</ele><time>2026-04-18T11:12:49.526Z</time></trkpt><trkpt lat="43.3929615" lon="10.7251172"><ele>512.0</ele><time>2026-04-18T11:12:50.527Z</time></trkpt><trkpt lat="43.3930151" lon="10.725265"><ele>512.0</ele><time>2026-04-18T11:12:51.532Z</time></trkpt><trkpt lat="43.3930452" lon="10.725401"><ele>512.0</ele><time>2026-04-18T11:12:52.519Z</time></trkpt><trkpt lat="43.3930535" lon="10.7255322"><ele>512.0</ele><time>2026-04-18T11:12:53.534Z</time></trkpt><trkpt lat="43.3930522" lon="10.7256778"><ele>512.0</ele><time>2026-04-18T11:12:54.525Z</time></trkpt><trkpt lat="43.3930349" lon="10.725833"><ele>512.0</ele><time>2026-04-18T11:12:55.523Z</time></trkpt><trkpt lat="43.392995" lon="10.7259718"><ele>513.0</ele><time>2026-04-18T11:12:56.519Z</time></trkpt><trkpt lat="43.3929272" lon="10.7261142"><ele>514.0</ele><time>2026-04-18T11:12:57.529Z</time></trkpt><trkpt lat="43.3928425" lon="10.7262681"><ele>515.0</ele><time>2026-04-18T11:12:58.531Z</time></trkpt><trkpt lat="43.392756" lon="10.7264354"><ele>516.0</ele><time>2026-04-18T11:12:59.529Z</time></trkpt><trkpt lat="43.3926709" lon="10.7266063"><ele>516.0</ele><time>2026-04-18T11:13:00.524Z</time></trkpt><trkpt lat="43.392611" lon="10.7267617"><ele>516.0</ele><time>2026-04-18T11:13:01.522Z</time></trkpt><trkpt lat="43.392555" lon="10.7269155"><ele>516.0</ele><time>2026-04-18T11:13:02.525Z</time></trkpt><trkpt lat="43.3925086" lon="10.7270784"><ele>516.0</ele><time>2026-04-18T11:13:03.525Z</time></trkpt><trkpt lat="43.3924783" lon="10.7272387"><ele>518.25</ele><time>2026-04-18T11:13:04.523Z</time></trkpt><trkpt lat="43.3924484" lon="10.72743"><ele>520.5</ele><time>2026-04-18T11:13:05.518Z</time></trkpt><trkpt lat="43.3924132" lon="10.7276487"><ele>522.75</ele><time>2026-04-18T11:13:06.525Z</time></trkpt><trkpt lat="43.3923778" lon="10.7278229"><ele>525.0</ele><time>2026-04-18T11:13:07.51Z</time></trkpt><trkpt lat="43.392328" lon="10.7279729"><ele>525.4</ele><time>2026-04-18T11:13:08.522Z</time></trkpt><trkpt lat="43.3922754" lon="10.728113"><ele>525.8</ele><time>2026-04-18T11:13:09.52Z</time></trkpt><trkpt lat="43.3922092" lon="10.7282347"><ele>526.2</ele><time>2026-04-18T11:13:10.529Z</time></trkpt><trkpt lat="43.3921433" lon="10.7283527"><ele>526.6</ele><time>2026-04-18T11:13:11.52Z</time></trkpt><trkpt lat="43.3920958" lon="10.7284813"><ele>527.0</ele><time>2026-04-18T11:13:12.522Z</time></trkpt><trkpt lat="43.3920816" lon="10.7286425"><ele>528.25</ele><time>2026-04-18T11:13:13.529Z</time></trkpt><trkpt lat="43.3920921" lon="10.7288428"><ele>529.5</ele><time>2026-04-18T11:13:14.52Z</time></trkpt><trkpt lat="43.3920908" lon="10.7290305"><ele>530.75</ele><time>2026-04-18T11:13:15.536Z</time></trkpt><trkpt lat="43.3921029" lon="10.7292266"><ele>532.0</ele><time>2026-04-18T11:13:16.518Z</time></trkpt><trkpt lat="43.3921014" lon="10.7294544"><ele>532.75</ele><time>2026-04-18T11:13:17.527Z</time></trkpt><trkpt lat="43.3920846" lon="10.7296616"><ele>533.5</ele><time>2026-04-18T11:13:18.525Z</time></trkpt><trkpt lat="43.3920753" lon="10.7298338"><ele>534.25</ele><time>2026-04-18T11:13:19.539Z</time></trkpt><trkpt lat="43.3920515" lon="10.7299848"><ele>535.0</ele><time>2026-04-18T11:13:20.53Z</time></trkpt><trkpt lat="43.3920369" lon="10.7301232"><ele>534.8</ele><time>2026-04-18T11:13:21.532Z</time></trkpt><trkpt lat="43.392008" lon="10.7302523"><ele>534.6</ele><time>2026-04-18T11:13:22.535Z</time></trkpt><trkpt lat="43.3919843" lon="10.7303859"><ele>534.4</ele><time>2026-04-18T11:13:23.534Z</time></trkpt><trkpt lat="43.391961" lon="10.7305083"><ele>534.2</ele><time>2026-04-18T11:13:24.53Z</time></trkpt><trkpt lat="43.3919425" lon="10.7306333"><ele>534.0</ele><time>2026-04-18T11:13:25.536Z</time></trkpt><trkpt lat="43.391917" lon="10.7307783"><ele>534.0</ele><time>2026-04-18T11:13:26.527Z</time></trkpt><trkpt lat="43.3918842" lon="10.7309382"><ele>534.0</ele><time>2026-04-18T11:13:27.529Z</time></trkpt><trkpt lat="43.3918479" lon="10.7311096"><ele>534.0</ele><time>2026-04-18T11:13:28.531Z</time></trkpt><trkpt lat="43.3918149" lon="10.7312782"><ele>534.0</ele><time>2026-04-18T11:13:29.536Z</time></trkpt><trkpt lat="43.3917823" lon="10.731443"><ele>533.0</ele><time>2026-04-18T11:13:30.532Z</time></trkpt><trkpt lat="43.3917498" lon="10.7315966"><ele>532.0</ele><time>2026-04-18T11:13:31.521Z</time></trkpt><trkpt lat="43.3917121" lon="10.7317502"><ele>531.0</ele><time>2026-04-18T11:13:32.521Z</time></trkpt><trkpt lat="43.3916671" lon="10.7318965"><ele>530.0</ele><time>2026-04-18T11:13:33.526Z</time></trkpt><trkpt lat="43.3916374" lon="10.73203"><ele>529.6</ele><time>2026-04-18T11:13:34.534Z</time></trkpt><trkpt lat="43.3915982" lon="10.7321651"><ele>529.2</ele><time>2026-04-18T11:13:35.527Z</time></trkpt><trkpt lat="43.3915582" lon="10.7323065"><ele>528.8</ele><time>2026-04-18T11:13:36.538Z</time></trkpt><trkpt lat="43.3915146" lon="10.7324422"><ele>528.4</ele><time>2026-04-18T11:13:37.532Z</time></trkpt><trkpt lat="43.3914756" lon="10.7325583"><ele>528.0</ele><time>2026-04-18T11:13:38.529Z</time></trkpt><trkpt lat="43.3914288" lon="10.7326718"><ele>527.0</ele><time>2026-04-18T11:13:39.529Z</time></trkpt><trkpt lat="43.391384" lon="10.7327759"><ele>526.0</ele><time>2026-04-18T11:13:40.52Z</time></trkpt><trkpt lat="43.3913427" lon="10.7328782"><ele>525.0</ele><time>2026-04-18T11:13:41.524Z</time></trkpt><trkpt lat="43.3912904" lon="10.7329791"><ele>524.0</ele><time>2026-04-18T11:13:42.534Z</time></trkpt><trkpt lat="43.391223" lon="10.7330896"><ele>523.0</ele><time>2026-04-18T11:13:43.521Z</time></trkpt><trkpt lat="43.3911437" lon="10.7331967"><ele>519.75</ele><time>2026-04-18T11:13:44.533Z</time></trkpt><trkpt lat="43.3910607" lon="10.7333099"><ele>516.5</ele><time>2026-04-18T11:13:45.522Z</time></trkpt><trkpt lat="43.3909792" lon="10.7334286"><ele>513.25</ele><time>2026-04-18T11:13:46.528Z</time></trkpt><trkpt lat="43.3908953" lon="10.733554"><ele>510.0</ele><time>2026-04-18T11:13:47.525Z</time></trkpt><trkpt lat="43.3908055" lon="10.7336813"><ele>510.0</ele><time>2026-04-18T11:13:48.532Z</time></trkpt><trkpt lat="43.3907222" lon="10.7338096"><ele>510.0</ele><time>2026-04-18T11:13:49.522Z</time></trkpt><trkpt lat="43.3906481" lon="10.7339207"><ele>510.0</ele><time>2026-04-18T11:13:50.529Z</time></trkpt><trkpt lat="43.3905767" lon="10.7340288"><ele>510.0</ele><time>2026-04-18T11:13:51.523Z</time></trkpt><trkpt lat="43.3905042" lon="10.7341345"><ele>510.0</ele><time>2026-04-18T11:13:52.53Z</time></trkpt><trkpt lat="43.3904329" lon="10.7342481"><ele>507.6</ele><time>2026-04-18T11:13:53.525Z</time></trkpt><trkpt lat="43.3903647" lon="10.7343563"><ele>505.2</ele><time>2026-04-18T11:13:54.527Z</time></trkpt><trkpt lat="43.3903079" lon="10.7344523"><ele>502.79999999999995</ele><time>2026-04-18T11:13:55.528Z</time></trkpt><trkpt lat="43.390254" lon="10.7345425"><ele>500.4</ele><time>2026-04-18T11:13:56.533Z</time></trkpt><trkpt lat="43.3901887" lon="10.7346425"><ele>498.0</ele><time>2026-04-18T11:13:57.529Z</time></trkpt><trkpt lat="43.3901256" lon="10.7347351"><ele>498.0</ele><time>2026-04-18T11:13:58.525Z</time></trkpt><trkpt lat="43.390065" lon="10.7348197"><ele>498.0</ele><time>2026-04-18T11:13:59.532Z</time></trkpt><trkpt lat="43.3900088" lon="10.7349023"><ele>498.0</ele><time>2026-04-18T11:14:00.544Z</time></trkpt><trkpt lat="43.3899598" lon="10.7349758"><ele>498.0</ele><time>2026-04-18T11:14:01.524Z</time></trkpt><trkpt lat="43.3898731" lon="10.7351167"><ele>498.0</ele><time>2026-04-18T11:14:03.527Z</time></trkpt><trkpt lat="43.3898354" lon="10.7351942"><ele>498.0</ele><time>2026-04-18T11:14:04.529Z</time></trkpt><trkpt lat="43.389807" lon="10.7353661"><ele>496.79999999999995</ele><time>2026-04-18T11:14:06.518Z</time></trkpt><trkpt lat="43.3898262" lon="10.7354796"><ele>495.59999999999997</ele><time>2026-04-18T11:14:07.531Z</time></trkpt><trkpt lat="43.3898726" lon="10.7356177"><ele>494.40000000000003</ele><time>2026-04-18T11:14:08.523Z</time></trkpt><trkpt lat="43.3899214" lon="10.7357538"><ele>493.20000000000005</ele><time>2026-04-18T11:14:09.53Z</time></trkpt><trkpt lat="43.3899917" lon="10.7358938"><ele>492.0</ele><time>2026-04-18T11:14:10.53Z</time></trkpt><trkpt lat="43.3900723" lon="10.7360233"><ele>489.40000000000003</ele><time>2026-04-18T11:14:11.526Z</time></trkpt><trkpt lat="43.3901622" lon="10.736131"><ele>486.80000000000007</ele><time>2026-04-18T11:14:12.532Z</time></trkpt><trkpt lat="43.3902447" lon="10.7362152"><ele>484.2</ele><time>2026-04-18T11:14:13.526Z</time></trkpt><trkpt lat="43.390325" lon="10.7362835"><ele>481.6</ele><time>2026-04-18T11:14:14.527Z</time></trkpt><trkpt lat="43.3903918" lon="10.73633"><ele>479.0</ele><time>2026-04-18T11:14:15.518Z</time></trkpt><trkpt lat="43.3904696" lon="10.7363428"><ele>479.16666666666663</ele><time>2026-04-18T11:14:16.524Z</time></trkpt><trkpt lat="43.3905615" lon="10.7362853"><ele>479.3333333333333</ele><time>2026-04-18T11:14:17.538Z</time></trkpt><trkpt lat="43.3906265" lon="10.7361916"><ele>479.5</ele><time>2026-04-18T11:14:18.525Z</time></trkpt><trkpt lat="43.390686" lon="10.736121"><ele>479.66666666666663</ele><time>2026-04-18T11:14:19.539Z</time></trkpt><trkpt lat="43.3907617" lon="10.7361047"><ele>479.8333333333333</ele><time>2026-04-18T11:14:20.533Z</time></trkpt><trkpt lat="43.3908396" lon="10.7361675"><ele>480.0</ele><time>2026-04-18T11:14:21.536Z</time></trkpt><trkpt lat="43.3909086" lon="10.736236"><ele>480.0</ele><time>2026-04-18T11:14:22.534Z</time></trkpt><trkpt lat="43.3909873" lon="10.736288"><ele>480.0</ele><time>2026-04-18T11:14:23.519Z</time></trkpt><trkpt lat="43.3910832" lon="10.7363186"><ele>480.0</ele><time>2026-04-18T11:14:24.516Z</time></trkpt><trkpt lat="43.3911867" lon="10.7363158"><ele>480.0</ele><time>2026-04-18T11:14:25.515Z</time></trkpt><trkpt lat="43.3912798" lon="10.7363066"><ele>480.0</ele><time>2026-04-18T11:14:26.509Z</time></trkpt><trkpt lat="43.3913616" lon="10.7363103"><ele>480.8571428571429</ele><time>2026-04-18T11:14:27.52Z</time></trkpt><trkpt lat="43.3914337" lon="10.7363231"><ele>481.71428571428567</ele><time>2026-04-18T11:14:28.519Z</time></trkpt><trkpt lat="43.391501" lon="10.7363192"><ele>482.57142857142856</ele><time>2026-04-18T11:14:29.53Z</time></trkpt><trkpt lat="43.391568" lon="10.7363163"><ele>483.42857142857144</ele><time>2026-04-18T11:14:30.522Z</time></trkpt><trkpt lat="43.3916371" lon="10.7363421"><ele>484.28571428571433</ele><time>2026-04-18T11:14:31.524Z</time></trkpt><trkpt lat="43.3917022" lon="10.7363939"><ele>485.1428571428571</ele><time>2026-04-18T11:14:32.523Z</time></trkpt><trkpt lat="43.3917526" lon="10.7364611"><ele>486.0</ele><time>2026-04-18T11:14:33.515Z</time></trkpt><trkpt lat="43.3917908" lon="10.7365514"><ele>486.0</ele><time>2026-04-18T11:14:34.518Z</time></trkpt><trkpt lat="43.3918094" lon="10.736676"><ele>486.0</ele><time>2026-04-18T11:14:35.512Z</time></trkpt><trkpt lat="43.3918199" lon="10.7368297"><ele>486.0</ele><time>2026-04-18T11:14:36.51Z</time></trkpt><trkpt lat="43.391813" lon="10.7370016"><ele>486.0</ele><time>2026-04-18T11:14:37.51Z</time></trkpt><trkpt lat="43.3917923" lon="10.7372061"><ele>483.75</ele><time>2026-04-18T11:14:38.512Z</time></trkpt><trkpt lat="43.3917197" lon="10.7374088"><ele>481.5</ele><time>2026-04-18T11:14:39.513Z</time></trkpt><trkpt lat="43.3916535" lon="10.7375813"><ele>479.25</ele><time>2026-04-18T11:14:40.508Z</time></trkpt><trkpt lat="43.3916135" lon="10.7377398"><ele>477.0</ele><time>2026-04-18T11:14:41.518Z</time></trkpt><trkpt lat="43.3915934" lon="10.7379072"><ele>474.75</ele><time>2026-04-18T11:14:42.501Z</time></trkpt><trkpt lat="43.3916263" lon="10.7380883"><ele>472.5</ele><time>2026-04-18T11:14:43.513Z</time></trkpt><trkpt lat="43.391663" lon="10.7382826"><ele>470.25</ele><time>2026-04-18T11:14:44.51Z</time></trkpt><trkpt lat="43.3916956" lon="10.7384412"><ele>468.0</ele><time>2026-04-18T11:14:45.522Z</time></trkpt><trkpt lat="43.391688" lon="10.7386054"><ele>467.3333333333333</ele><time>2026-04-18T11:14:46.527Z</time></trkpt><trkpt lat="43.3916711" lon="10.7387501"><ele>466.66666666666663</ele><time>2026-04-18T11:14:47.524Z</time></trkpt><trkpt lat="43.391648" lon="10.7388733"><ele>466.0</ele><time>2026-04-18T11:14:48.537Z</time></trkpt><trkpt lat="43.3916223" lon="10.7389853"><ele>465.3333333333333</ele><time>2026-04-18T11:14:49.525Z</time></trkpt><trkpt lat="43.3916013" lon="10.7390902"><ele>464.66666666666663</ele><time>2026-04-18T11:14:50.538Z</time></trkpt><trkpt lat="43.3915831" lon="10.739197"><ele>464.0</ele><time>2026-04-18T11:14:51.536Z</time></trkpt><trkpt lat="43.3915615" lon="10.7392911"><ele>464.0</ele><time>2026-04-18T11:14:52.538Z</time></trkpt><trkpt lat="43.3915288" lon="10.7393724"><ele>464.0</ele><time>2026-04-18T11:14:53.542Z</time></trkpt><trkpt lat="43.3914668" lon="10.7395087"><ele>464.0</ele><time>2026-04-18T11:14:55.547Z</time></trkpt><trkpt lat="43.3913816" lon="10.7395829"><ele>464.0</ele><time>2026-04-18T11:14:57.543Z</time></trkpt><trkpt lat="43.3912751" lon="10.7396265"><ele>464.0</ele><time>2026-04-18T11:14:59.544Z</time></trkpt><trkpt lat="43.3911866" lon="10.7396455"><ele>462.2</ele><time>2026-04-18T11:15:01.534Z</time></trkpt><trkpt lat="43.3911757" lon="10.7397898"><ele>460.4</ele><time>2026-04-18T11:15:04.525Z</time></trkpt><trkpt lat="43.3912307" lon="10.7399352"><ele>458.6</ele><time>2026-04-18T11:15:06.526Z</time></trkpt><trkpt lat="43.3912716" lon="10.7400149"><ele>456.8</ele><time>2026-04-18T11:15:07.531Z</time></trkpt><trkpt lat="43.3913082" lon="10.7401219"><ele>455.0</ele><time>2026-04-18T11:15:08.526Z</time></trkpt><trkpt lat="43.391345" lon="10.7402544"><ele>455.0</ele><time>2026-04-18T11:15:09.53Z</time></trkpt><trkpt lat="43.3913836" lon="10.740377"><ele>455.0</ele><time>2026-04-18T11:15:10.536Z</time></trkpt><trkpt lat="43.3914266" lon="10.7405121"><ele>455.0</ele><time>2026-04-18T11:15:11.526Z</time></trkpt><trkpt lat="43.3914647" lon="10.7406378"><ele>455.0</ele><time>2026-04-18T11:15:12.522Z</time></trkpt><trkpt lat="43.3915028" lon="10.7407719"><ele>455.0</ele><time>2026-04-18T11:15:13.528Z</time></trkpt><trkpt lat="43.3915373" lon="10.740902"><ele>455.0</ele><time>2026-04-18T11:15:14.526Z</time></trkpt><trkpt lat="43.3916014" lon="10.7410182"><ele>455.0</ele><time>2026-04-18T11:15:15.521Z</time></trkpt><trkpt lat="43.3916936" lon="10.7411186"><ele>455.0</ele><time>2026-04-18T11:15:16.533Z</time></trkpt><trkpt lat="43.3917879" lon="10.741183"><ele>455.0</ele><time>2026-04-18T11:15:17.521Z</time></trkpt><trkpt lat="43.391865" lon="10.7412358"><ele>455.0</ele><time>2026-04-18T11:15:18.515Z</time></trkpt><trkpt lat="43.3919227" lon="10.7412925"><ele>452.6</ele><time>2026-04-18T11:15:19.514Z</time></trkpt><trkpt lat="43.3919726" lon="10.741389"><ele>450.2</ele><time>2026-04-18T11:15:20.519Z</time></trkpt><trkpt lat="43.3919858" lon="10.7415171"><ele>447.79999999999995</ele><time>2026-04-18T11:15:21.514Z</time></trkpt><trkpt lat="43.3919582" lon="10.7416807"><ele>445.4</ele><time>2026-04-18T11:15:22.522Z</time></trkpt><trkpt lat="43.3919117" lon="10.7418718"><ele>443.0</ele><time>2026-04-18T11:15:23.506Z</time></trkpt><trkpt lat="43.3918714" lon="10.7420762"><ele>441.75</ele><time>2026-04-18T11:15:24.524Z</time></trkpt><trkpt lat="43.3918059" lon="10.7422812"><ele>440.5</ele><time>2026-04-18T11:15:25.515Z</time></trkpt><trkpt lat="43.3917806" lon="10.742472"><ele>439.25</ele><time>2026-04-18T11:15:26.525Z</time></trkpt><trkpt lat="43.391762" lon="10.7426585"><ele>438.0</ele><time>2026-04-18T11:15:27.517Z</time></trkpt><trkpt lat="43.3917607" lon="10.7428291"><ele>437.3333333333333</ele><time>2026-04-18T11:15:28.519Z</time></trkpt><trkpt lat="43.3917626" lon="10.7429669"><ele>436.66666666666663</ele><time>2026-04-18T11:15:29.517Z</time></trkpt><trkpt lat="43.3917626" lon="10.7430928"><ele>436.0</ele><time>2026-04-18T11:15:30.521Z</time></trkpt><trkpt lat="43.3917602" lon="10.7432077"><ele>435.3333333333333</ele><time>2026-04-18T11:15:31.517Z</time></trkpt><trkpt lat="43.3917791" lon="10.7432955"><ele>434.66666666666663</ele><time>2026-04-18T11:15:32.512Z</time></trkpt><trkpt lat="43.391752" lon="10.7434271"><ele>434.0</ele><time>2026-04-18T11:15:34.517Z</time></trkpt><trkpt lat="43.3916386" lon="10.743432"><ele>434.0</ele><time>2026-04-18T11:15:36.517Z</time></trkpt><trkpt lat="43.391583" lon="10.7433314"><ele>434.0</ele><time>2026-04-18T11:15:37.51Z</time></trkpt><trkpt lat="43.3915602" lon="10.7432009"><ele>434.0</ele><time>2026-04-18T11:15:38.509Z</time></trkpt><trkpt lat="43.3915725" lon="10.7430562"><ele>434.0</ele><time>2026-04-18T11:15:39.501Z</time></trkpt><trkpt lat="43.3915785" lon="10.7429299"><ele>434.0</ele><time>2026-04-18T11:15:40.512Z</time></trkpt><trkpt lat="43.3915724" lon="10.7428245"><ele>433.99999999999994</ele><time>2026-04-18T11:15:41.51Z</time></trkpt><trkpt lat="43.3915516" lon="10.7427323"><ele>434.0</ele><time>2026-04-18T11:15:42.509Z</time></trkpt><trkpt lat="43.3915125" lon="10.7426619"><ele>434.0</ele><time>2026-04-18T11:15:43.51Z</time></trkpt><trkpt lat="43.3914124" lon="10.7426867"><ele>434.0</ele><time>2026-04-18T11:15:45.51Z</time></trkpt><trkpt lat="43.3913848" lon="10.7427969"><ele>433.99999999999994</ele><time>2026-04-18T11:15:46.514Z</time></trkpt><trkpt lat="43.3913851" lon="10.7429462"><ele>434.0</ele><time>2026-04-18T11:15:47.502Z</time></trkpt><trkpt lat="43.3913875" lon="10.7431151"><ele>434.0</ele><time>2026-04-18T11:15:48.513Z</time></trkpt><trkpt lat="43.3913876" lon="10.743302"><ele>434.0</ele><time>2026-04-18T11:15:49.507Z</time></trkpt><trkpt lat="43.3913944" lon="10.7434881"><ele>434.0</ele><time>2026-04-18T11:15:50.498Z</time></trkpt><trkpt lat="43.3914405" lon="10.7436686"><ele>434.0</ele><time>2026-04-18T11:15:51.51Z</time></trkpt><trkpt lat="43.3914984" lon="10.743824"><ele>431.66666666666663</ele><time>2026-04-18T11:15:52.509Z</time></trkpt><trkpt lat="43.391547" lon="10.7439613"><ele>429.3333333333333</ele><time>2026-04-18T11:15:53.505Z</time></trkpt><trkpt lat="43.3915904" lon="10.7440824"><ele>427.0</ele><time>2026-04-18T11:15:54.504Z</time></trkpt><trkpt lat="43.3916257" lon="10.7441845"><ele>424.66666666666663</ele><time>2026-04-18T11:15:55.5Z</time></trkpt><trkpt lat="43.3916478" lon="10.7442848"><ele>422.3333333333333</ele><time>2026-04-18T11:15:56.498Z</time></trkpt><trkpt lat="43.3916767" lon="10.744367"><ele>420.0</ele><time>2026-04-18T11:15:57.505Z</time></trkpt><trkpt lat="43.3917069" lon="10.7444676"><ele>416.0</ele><time>2026-04-18T11:15:58.503Z</time></trkpt><trkpt lat="43.3917617" lon="10.7446014"><ele>412.0</ele><time>2026-04-18T11:15:59.517Z</time></trkpt><trkpt lat="43.391838" lon="10.7447368"><ele>408.0</ele><time>2026-04-18T11:16:00.508Z</time></trkpt><trkpt lat="43.3919255" lon="10.744869"><ele>404.0</ele><time>2026-04-18T11:16:01.519Z</time></trkpt><trkpt lat="43.3920018" lon="10.7449888"><ele>404.0</ele><time>2026-04-18T11:16:02.516Z</time></trkpt><trkpt lat="43.3920742" lon="10.7451124"><ele>404.0</ele><time>2026-04-18T11:16:03.512Z</time></trkpt><trkpt lat="43.3921449" lon="10.7452285"><ele>404.0</ele><time>2026-04-18T11:16:04.505Z</time></trkpt><trkpt lat="43.3922025" lon="10.7453408"><ele>404.0</ele><time>2026-04-18T11:16:05.5Z</time></trkpt><trkpt lat="43.3922312" lon="10.7454614"><ele>404.0</ele><time>2026-04-18T11:16:06.508Z</time></trkpt><trkpt lat="43.3922252" lon="10.7455897"><ele>403.75</ele><time>2026-04-18T11:16:07.514Z</time></trkpt><trkpt lat="43.3921722" lon="10.7457321"><ele>403.5</ele><time>2026-04-18T11:16:08.513Z</time></trkpt><trkpt lat="43.3921067" lon="10.7458717"><ele>403.25</ele><time>2026-04-18T11:16:09.517Z</time></trkpt><trkpt lat="43.3920197" lon="10.7460013"><ele>403.0</ele><time>2026-04-18T11:16:10.519Z</time></trkpt><trkpt lat="43.3919339" lon="10.7461282"><ele>403.0</ele><time>2026-04-18T11:16:11.52Z</time></trkpt><trkpt lat="43.3918634" lon="10.746235"><ele>403.0</ele><time>2026-04-18T11:16:12.518Z</time></trkpt><trkpt lat="43.3917938" lon="10.7463374"><ele>403.0</ele><time>2026-04-18T11:16:13.512Z</time></trkpt><trkpt lat="43.3917317" lon="10.7464463"><ele>403.0</ele><time>2026-04-18T11:16:14.514Z</time></trkpt><trkpt lat="43.3916622" lon="10.7465621"><ele>403.0</ele><time>2026-04-18T11:16:15.523Z</time></trkpt><trkpt lat="43.3916013" lon="10.7467008"><ele>403.0</ele><time>2026-04-18T11:16:16.503Z</time></trkpt><trkpt lat="43.391561" lon="10.7468494"><ele>403.0</ele><time>2026-04-18T11:16:17.512Z</time></trkpt><trkpt lat="43.3915356" lon="10.7469862"><ele>403.0</ele><time>2026-04-18T11:16:18.514Z</time></trkpt><trkpt lat="43.3915259" lon="10.7471147"><ele>403.0</ele><time>2026-04-18T11:16:19.522Z</time></trkpt><trkpt lat="43.3915168" lon="10.7472422"><ele>403.0</ele><time>2026-04-18T11:16:20.522Z</time></trkpt><trkpt lat="43.3915157" lon="10.7473847"><ele>402.79999999999995</ele><time>2026-04-18T11:16:21.529Z</time></trkpt><trkpt lat="43.391531" lon="10.7475413"><ele>402.6</ele><time>2026-04-18T11:16:22.521Z</time></trkpt><trkpt lat="43.3915732" lon="10.7476727"><ele>402.4</ele><time>2026-04-18T11:16:23.517Z</time></trkpt><trkpt lat="43.3916257" lon="10.7477834"><ele>402.20000000000005</ele><time>2026-04-18T11:16:24.525Z</time></trkpt><trkpt lat="43.3916894" lon="10.7478801"><ele>402.0</ele><time>2026-04-18T11:16:25.523Z</time></trkpt><trkpt lat="43.3917683" lon="10.7479679"><ele>400.0</ele><time>2026-04-18T11:16:26.517Z</time></trkpt><trkpt lat="43.3918587" lon="10.748065"><ele>398.0</ele><time>2026-04-18T11:16:27.522Z</time></trkpt><trkpt lat="43.391957" lon="10.7481529"><ele>396.0</ele><time>2026-04-18T11:16:28.524Z</time></trkpt><trkpt lat="43.3920549" lon="10.7482358"><ele>394.0</ele><time>2026-04-18T11:16:29.516Z</time></trkpt><trkpt lat="43.3921504" lon="10.7483298"><ele>394.75</ele><time>2026-04-18T11:16:30.527Z</time></trkpt><trkpt lat="43.3922246" lon="10.7484366"><ele>395.5</ele><time>2026-04-18T11:16:31.516Z</time></trkpt><trkpt lat="43.3922744" lon="10.7485677"><ele>396.25</ele><time>2026-04-18T11:16:32.509Z</time></trkpt><trkpt lat="43.3923187" lon="10.7487202"><ele>397.0</ele><time>2026-04-18T11:16:33.521Z</time></trkpt><trkpt lat="43.3923665" lon="10.7488982"><ele>397.0</ele><time>2026-04-18T11:16:34.515Z</time></trkpt><trkpt lat="43.3924097" lon="10.7490509"><ele>397.0</ele><time>2026-04-18T11:16:35.52Z</time></trkpt><trkpt lat="43.3924444" lon="10.7491859"><ele>397.0</ele><time>2026-04-18T11:16:36.511Z</time></trkpt><trkpt lat="43.3924765" lon="10.7493095"><ele>397.0</ele><time>2026-04-18T11:16:37.521Z</time></trkpt><trkpt lat="43.3925054" lon="10.7494232"><ele>397.0</ele><time>2026-04-18T11:16:38.514Z</time></trkpt><trkpt lat="43.3925373" lon="10.7495307"><ele>396.50000000000006</ele><time>2026-04-18T11:16:39.516Z</time></trkpt><trkpt lat="43.3925581" lon="10.7496407"><ele>396.0</ele><time>2026-04-18T11:16:40.517Z</time></trkpt><trkpt lat="43.392591" lon="10.7497353"><ele>395.5</ele><time>2026-04-18T11:16:41.506Z</time></trkpt><trkpt lat="43.392631" lon="10.7498299"><ele>395.0</ele><time>2026-04-18T11:16:42.515Z</time></trkpt><trkpt lat="43.3926703" lon="10.7498987"><ele>394.50000000000006</ele><time>2026-04-18T11:16:43.5Z</time></trkpt><trkpt lat="43.3927787" lon="10.7499582"><ele>394.0</ele><time>2026-04-18T11:16:45.518Z</time></trkpt><trkpt lat="43.3928634" lon="10.7499366"><ele>394.0</ele><time>2026-04-18T11:16:46.501Z</time></trkpt><trkpt lat="43.3929658" lon="10.749895"><ele>394.0</ele><time>2026-04-18T11:16:47.513Z</time></trkpt><trkpt lat="43.3930564" lon="10.7498107"><ele>394.0</ele><time>2026-04-18T11:16:48.509Z</time></trkpt><trkpt lat="43.3931301" lon="10.7496918"><ele>394.0</ele><time>2026-04-18T11:16:49.507Z</time></trkpt><trkpt lat="43.3931976" lon="10.7495529"><ele>392.5</ele><time>2026-04-18T11:16:50.505Z</time></trkpt><trkpt lat="43.3932533" lon="10.7493895"><ele>391.0</ele><time>2026-04-18T11:16:51.5Z</time></trkpt><trkpt lat="43.3933154" lon="10.7492243"><ele>389.5</ele><time>2026-04-18T11:16:52.505Z</time></trkpt><trkpt lat="43.3933738" lon="10.7490701"><ele>388.0</ele><time>2026-04-18T11:16:53.5Z</time></trkpt><trkpt lat="43.3934533" lon="10.7489346"><ele>388.0</ele><time>2026-04-18T11:16:54.518Z</time></trkpt><trkpt lat="43.3935226" lon="10.7488137"><ele>388.0</ele><time>2026-04-18T11:16:55.511Z</time></trkpt><trkpt lat="43.3935964" lon="10.7487118"><ele>388.0</ele><time>2026-04-18T11:16:56.504Z</time></trkpt><trkpt lat="43.3936719" lon="10.7486297"><ele>388.0</ele><time>2026-04-18T11:16:57.515Z</time></trkpt><trkpt lat="43.3937422" lon="10.7485634"><ele>388.0</ele><time>2026-04-18T11:16:58.517Z</time></trkpt><trkpt lat="43.3938314" lon="10.7485253"><ele>387.2</ele><time>2026-04-18T11:16:59.517Z</time></trkpt><trkpt lat="43.3939365" lon="10.7485063"><ele>386.4</ele><time>2026-04-18T11:17:00.526Z</time></trkpt><trkpt lat="43.3940579" lon="10.7485194"><ele>385.59999999999997</ele><time>2026-04-18T11:17:01.519Z</time></trkpt><trkpt lat="43.3941745" lon="10.7485355"><ele>384.79999999999995</ele><time>2026-04-18T11:17:02.514Z</time></trkpt><trkpt lat="43.3942787" lon="10.7485446"><ele>384.0</ele><time>2026-04-18T11:17:03.516Z</time></trkpt><trkpt lat="43.3943772" lon="10.748534"><ele>384.0</ele><time>2026-04-18T11:17:04.516Z</time></trkpt><trkpt lat="43.3944638" lon="10.7484745"><ele>384.0</ele><time>2026-04-18T11:17:05.513Z</time></trkpt><trkpt lat="43.3945315" lon="10.7484161"><ele>384.0</ele><time>2026-04-18T11:17:06.528Z</time></trkpt><trkpt lat="43.3945974" lon="10.7483504"><ele>384.0</ele><time>2026-04-18T11:17:07.513Z</time></trkpt><trkpt lat="43.3946701" lon="10.7483131"><ele>384.0</ele><time>2026-04-18T11:17:08.517Z</time></trkpt><trkpt lat="43.3947625" lon="10.7483109"><ele>384.0</ele><time>2026-04-18T11:17:09.518Z</time></trkpt><trkpt lat="43.3948703" lon="10.7483702"><ele>384.0</ele><time>2026-04-18T11:17:10.512Z</time></trkpt><trkpt lat="43.3949786" lon="10.7484478"><ele>384.0</ele><time>2026-04-18T11:17:11.515Z</time></trkpt><trkpt lat="43.3950797" lon="10.7485238"><ele>384.0</ele><time>2026-04-18T11:17:12.506Z</time></trkpt><trkpt lat="43.3951752" lon="10.7486011"><ele>384.0</ele><time>2026-04-18T11:17:13.502Z</time></trkpt><trkpt lat="43.3952661" lon="10.7486903"><ele>381.0</ele><time>2026-04-18T11:17:14.502Z</time></trkpt><trkpt lat="43.3953527" lon="10.7488058"><ele>378.0</ele><time>2026-04-18T11:17:15.504Z</time></trkpt><trkpt lat="43.3954434" lon="10.7489301"><ele>375.0</ele><time>2026-04-18T11:17:16.504Z</time></trkpt><trkpt lat="43.3955219" lon="10.7490521"><ele>372.0</ele><time>2026-04-18T11:17:17.503Z</time></trkpt><trkpt lat="43.395593" lon="10.7491711"><ele>372.0</ele><time>2026-04-18T11:17:18.507Z</time></trkpt><trkpt lat="43.3956691" lon="10.7492796"><ele>372.0</ele><time>2026-04-18T11:17:19.512Z</time></trkpt><trkpt lat="43.3957521" lon="10.7493461"><ele>372.0</ele><time>2026-04-18T11:17:20.505Z</time></trkpt><trkpt lat="43.3958527" lon="10.7493754"><ele>372.0</ele><time>2026-04-18T11:17:21.528Z</time></trkpt><trkpt lat="43.3959704" lon="10.7493416"><ele>372.0</ele><time>2026-04-18T11:17:22.52Z</time></trkpt><trkpt lat="43.3961052" lon="10.7492714"><ele>372.0</ele><time>2026-04-18T11:17:23.521Z</time></trkpt><trkpt lat="43.3962561" lon="10.7491939"><ele>372.0</ele><time>2026-04-18T11:17:24.508Z</time></trkpt><trkpt lat="43.3964175" lon="10.7490983"><ele>372.0</ele><time>2026-04-18T11:17:25.511Z</time></trkpt><trkpt lat="43.3965527" lon="10.7490343"><ele>369.5</ele><time>2026-04-18T11:17:26.509Z</time></trkpt><trkpt lat="43.3966826" lon="10.7489817"><ele>367.0</ele><time>2026-04-18T11:17:27.516Z</time></trkpt><trkpt lat="43.3968165" lon="10.7489345"><ele>364.5</ele><time>2026-04-18T11:17:28.512Z</time></trkpt><trkpt lat="43.3969494" lon="10.748891"><ele>362.0</ele><time>2026-04-18T11:17:29.512Z</time></trkpt><trkpt lat="43.3970754" lon="10.7488634"><ele>360.20000000000005</ele><time>2026-04-18T11:17:30.514Z</time></trkpt><trkpt lat="43.3971975" lon="10.7488259"><ele>358.4</ele><time>2026-04-18T11:17:31.51Z</time></trkpt><trkpt lat="43.3973083" lon="10.7487959"><ele>356.6</ele><time>2026-04-18T11:17:32.511Z</time></trkpt><trkpt lat="43.3974195" lon="10.7487708"><ele>354.79999999999995</ele><time>2026-04-18T11:17:33.502Z</time></trkpt><trkpt lat="43.3975017" lon="10.7487455"><ele>353.0</ele><time>2026-04-18T11:17:34.504Z</time></trkpt><trkpt lat="43.3975703" lon="10.7487214"><ele>353.0</ele><time>2026-04-18T11:17:35.5Z</time></trkpt><trkpt lat="43.3976815" lon="10.7487119"><ele>353.0</ele><time>2026-04-18T11:17:37.499Z</time></trkpt><trkpt lat="43.397736" lon="10.7487908"><ele>353.0</ele><time>2026-04-18T11:17:39.506Z</time></trkpt><trkpt lat="43.3976009" lon="10.7488933"><ele>353.0</ele><time>2026-04-18T11:17:41.51Z</time></trkpt><trkpt lat="43.397468" lon="10.7489343"><ele>353.0</ele><time>2026-04-18T11:17:42.504Z</time></trkpt><trkpt lat="43.3973372" lon="10.7489911"><ele>353.0</ele><time>2026-04-18T11:17:43.51Z</time></trkpt><trkpt lat="43.3972225" lon="10.7490709"><ele>353.0</ele><time>2026-04-18T11:17:44.509Z</time></trkpt><trkpt lat="43.3971317" lon="10.7491294"><ele>353.0</ele><time>2026-04-18T11:17:45.511Z</time></trkpt><trkpt lat="43.3970562" lon="10.7491886"><ele>354.79999999999995</ele><time>2026-04-18T11:17:46.521Z</time></trkpt><trkpt lat="43.3969947" lon="10.7492489"><ele>356.6</ele><time>2026-04-18T11:17:47.517Z</time></trkpt><trkpt lat="43.3969295" lon="10.7493644"><ele>358.4</ele><time>2026-04-18T11:17:49.514Z</time></trkpt><trkpt lat="43.3969341" lon="10.7495101"><ele>360.20000000000005</ele><time>2026-04-18T11:17:51.515Z</time></trkpt><trkpt lat="43.3970186" lon="10.7495618"><ele>362.0</ele><time>2026-04-18T11:17:52.516Z</time></trkpt><trkpt lat="43.3971048" lon="10.7495752"><ele>359.75</ele><time>2026-04-18T11:17:53.529Z</time></trkpt><trkpt lat="43.3972124" lon="10.749529"><ele>357.5</ele><time>2026-04-18T11:17:54.523Z</time></trkpt><trkpt lat="43.3973409" lon="10.7494552"><ele>355.25</ele><time>2026-04-18T11:17:55.55Z</time></trkpt><trkpt lat="43.3974894" lon="10.749384"><ele>353.0</ele><time>2026-04-18T11:17:56.518Z</time></trkpt><trkpt lat="43.3976443" lon="10.7493264"><ele>353.0</ele><time>2026-04-18T11:17:57.525Z</time></trkpt><trkpt lat="43.3978049" lon="10.7492741"><ele>353.0</ele><time>2026-04-18T11:17:58.517Z</time></trkpt><trkpt lat="43.3979586" lon="10.7492171"><ele>353.0</ele><time>2026-04-18T11:17:59.521Z</time></trkpt><trkpt lat="43.3981092" lon="10.7491565"><ele>347.0</ele><time>2026-04-18T11:18:00.523Z</time></trkpt><trkpt lat="43.3982647" lon="10.7490606"><ele>341.0</ele><time>2026-04-18T11:18:01.522Z</time></trkpt><trkpt lat="43.3984071" lon="10.7489561"><ele>335.0</ele><time>2026-04-18T11:18:02.515Z</time></trkpt><trkpt lat="43.3985447" lon="10.7488494"><ele>335.0</ele><time>2026-04-18T11:18:03.519Z</time></trkpt><trkpt lat="43.3986664" lon="10.7487358"><ele>335.0</ele><time>2026-04-18T11:18:04.525Z</time></trkpt><trkpt lat="43.3987906" lon="10.7486465"><ele>335.0</ele><time>2026-04-18T11:18:05.52Z</time></trkpt><trkpt lat="43.3989115" lon="10.7485505"><ele>335.0</ele><time>2026-04-18T11:18:06.521Z</time></trkpt><trkpt lat="43.3989994" lon="10.7484589"><ele>334.4</ele><time>2026-04-18T11:18:07.528Z</time></trkpt><trkpt lat="43.3990777" lon="10.7483287"><ele>333.8</ele><time>2026-04-18T11:18:08.524Z</time></trkpt><trkpt lat="43.39914" lon="10.7481986"><ele>333.20000000000005</ele><time>2026-04-18T11:18:09.518Z</time></trkpt><trkpt lat="43.3992055" lon="10.7480726"><ele>332.6</ele><time>2026-04-18T11:18:10.522Z</time></trkpt><trkpt lat="43.3992565" lon="10.7479591"><ele>332.0</ele><time>2026-04-18T11:18:11.518Z</time></trkpt><trkpt lat="43.3993243" lon="10.7478953"><ele>332.0</ele><time>2026-04-18T11:18:12.523Z</time></trkpt><trkpt lat="43.3994016" lon="10.7478949"><ele>332.0</ele><time>2026-04-18T11:18:13.525Z</time></trkpt><trkpt lat="43.3995048" lon="10.7479708"><ele>332.0</ele><time>2026-04-18T11:18:14.521Z</time></trkpt><trkpt lat="43.3995901" lon="10.7481116"><ele>332.0</ele><time>2026-04-18T11:18:15.521Z</time></trkpt><trkpt lat="43.3996638" lon="10.7482512"><ele>328.75</ele><time>2026-04-18T11:18:16.526Z</time></trkpt><trkpt lat="43.399721" lon="10.7484276"><ele>325.5</ele><time>2026-04-18T11:18:17.518Z</time></trkpt><trkpt lat="43.3997635" lon="10.7486046"><ele>322.25</ele><time>2026-04-18T11:18:18.525Z</time></trkpt><trkpt lat="43.3998042" lon="10.7487659"><ele>319.0</ele><time>2026-04-18T11:18:19.522Z</time></trkpt><trkpt lat="43.3998526" lon="10.7489028"><ele>317.2</ele><time>2026-04-18T11:18:20.53Z</time></trkpt><trkpt lat="43.3999164" lon="10.7490167"><ele>315.4</ele><time>2026-04-18T11:18:21.536Z</time></trkpt><trkpt lat="43.3999756" lon="10.7491132"><ele>313.6</ele><time>2026-04-18T11:18:22.526Z</time></trkpt><trkpt lat="43.4000592" lon="10.7491808"><ele>311.8</ele><time>2026-04-18T11:18:23.535Z</time></trkpt><trkpt lat="43.4001656" lon="10.7492214"><ele>310.0</ele><time>2026-04-18T11:18:24.531Z</time></trkpt><trkpt lat="43.400285" lon="10.7492441"><ele>310.0</ele><time>2026-04-18T11:18:25.524Z</time></trkpt><trkpt lat="43.4004159" lon="10.7492361"><ele>310.0</ele><time>2026-04-18T11:18:26.533Z</time></trkpt><trkpt lat="43.4005453" lon="10.7492049"><ele>310.0</ele><time>2026-04-18T11:18:27.531Z</time></trkpt><trkpt lat="43.400671" lon="10.7491607"><ele>310.0</ele><time>2026-04-18T11:18:28.535Z</time></trkpt><trkpt lat="43.4007879" lon="10.7490775"><ele>307.75</ele><time>2026-04-18T11:18:29.535Z</time></trkpt><trkpt lat="43.4008901" lon="10.7489568"><ele>305.5</ele><time>2026-04-18T11:18:30.54Z</time></trkpt><trkpt lat="43.4009709" lon="10.7488263"><ele>303.25</ele><time>2026-04-18T11:18:31.526Z</time></trkpt><trkpt lat="43.4010343" lon="10.7486848"><ele>301.0</ele><time>2026-04-18T11:18:32.538Z</time></trkpt><trkpt lat="43.4010883" lon="10.7485451"><ele>300.75</ele><time>2026-04-18T11:18:33.526Z</time></trkpt><trkpt lat="43.4011578" lon="10.7484168"><ele>300.5</ele><time>2026-04-18T11:18:34.53Z</time></trkpt><trkpt lat="43.4012433" lon="10.7483049"><ele>300.25</ele><time>2026-04-18T11:18:35.537Z</time></trkpt><trkpt lat="43.4013474" lon="10.748196"><ele>300.0</ele><time>2026-04-18T11:18:36.53Z</time></trkpt><trkpt lat="43.4014564" lon="10.7481124"><ele>300.0</ele><time>2026-04-18T11:18:37.542Z</time></trkpt><trkpt lat="43.4015755" lon="10.7480355"><ele>300.0</ele><time>2026-04-18T11:18:38.526Z</time></trkpt><trkpt lat="43.4017051" lon="10.7479988"><ele>300.0</ele><time>2026-04-18T11:18:39.53Z</time></trkpt><trkpt lat="43.4018366" lon="10.7480176"><ele>300.0</ele><time>2026-04-18T11:18:40.541Z</time></trkpt><trkpt lat="43.4019774" lon="10.7480649"><ele>300.0</ele><time>2026-04-18T11:18:41.536Z</time></trkpt><trkpt lat="43.4021245" lon="10.7481426"><ele>300.0</ele><time>2026-04-18T11:18:42.533Z</time></trkpt><trkpt lat="43.4022403" lon="10.7482624"><ele>300.0</ele><time>2026-04-18T11:18:43.537Z</time></trkpt><trkpt lat="43.4023338" lon="10.7484034"><ele>300.0</ele><time>2026-04-18T11:18:44.532Z</time></trkpt><trkpt lat="43.4023994" lon="10.7485741"><ele>298.75</ele><time>2026-04-18T11:18:45.529Z</time></trkpt><trkpt lat="43.4024381" lon="10.7487158"><ele>297.5</ele><time>2026-04-18T11:18:46.537Z</time></trkpt><trkpt lat="43.4024715" lon="10.7488715"><ele>296.25</ele><time>2026-04-18T11:18:47.531Z</time></trkpt><trkpt lat="43.4025263" lon="10.7490145"><ele>295.0</ele><time>2026-04-18T11:18:48.528Z</time></trkpt><trkpt lat="43.4026093" lon="10.7491372"><ele>295.0</ele><time>2026-04-18T11:18:49.514Z</time></trkpt><trkpt lat="43.4027033" lon="10.7492316"><ele>295.0</ele><time>2026-04-18T11:18:50.536Z</time></trkpt><trkpt lat="43.4027904" lon="10.7493151"><ele>295.0</ele><time>2026-04-18T11:18:51.528Z</time></trkpt><trkpt lat="43.4028809" lon="10.7493887"><ele>295.0</ele><time>2026-04-18T11:18:52.532Z</time></trkpt><trkpt lat="43.4029905" lon="10.7494207"><ele>295.0</ele><time>2026-04-18T11:18:53.527Z</time></trkpt><trkpt lat="43.4031133" lon="10.7494197"><ele>293.25</ele><time>2026-04-18T11:18:54.54Z</time></trkpt><trkpt lat="43.4032281" lon="10.7494234"><ele>291.5</ele><time>2026-04-18T11:18:55.54Z</time></trkpt><trkpt lat="43.4033315" lon="10.7494603"><ele>289.75</ele><time>2026-04-18T11:18:56.541Z</time></trkpt><trkpt lat="43.4034327" lon="10.7495336"><ele>288.0</ele><time>2026-04-18T11:18:57.535Z</time></trkpt><trkpt lat="43.4035294" lon="10.749643"><ele>288.0</ele><time>2026-04-18T11:18:58.532Z</time></trkpt><trkpt lat="43.4036102" lon="10.7498014"><ele>288.0</ele><time>2026-04-18T11:18:59.536Z</time></trkpt><trkpt lat="43.4036904" lon="10.7499778"><ele>288.0</ele><time>2026-04-18T11:19:00.544Z</time></trkpt><trkpt lat="43.4037841" lon="10.750133"><ele>288.0</ele><time>2026-04-18T11:19:01.532Z</time></trkpt><trkpt lat="43.4038761" lon="10.7502532"><ele>287.5</ele><time>2026-04-18T11:19:02.542Z</time></trkpt><trkpt lat="43.4039574" lon="10.7503536"><ele>287.0</ele><time>2026-04-18T11:19:03.536Z</time></trkpt><trkpt lat="43.4040257" lon="10.7504747"><ele>286.5</ele><time>2026-04-18T11:19:04.529Z</time></trkpt><trkpt lat="43.4040958" lon="10.7506185"><ele>286.0</ele><time>2026-04-18T11:19:05.534Z</time></trkpt><trkpt lat="43.4041062" lon="10.7508365"><ele>286.0</ele><time>2026-04-18T11:19:06.527Z</time></trkpt><trkpt lat="43.4041137" lon="10.7510237"><ele>286.0</ele><time>2026-04-18T11:19:07.534Z</time></trkpt><trkpt lat="43.4041242" lon="10.7512273"><ele>286.0</ele><time>2026-04-18T11:19:08.531Z</time></trkpt><trkpt lat="43.4041307" lon="10.7514329"><ele>286.0</ele><time>2026-04-18T11:19:09.534Z</time></trkpt><trkpt lat="43.4041354" lon="10.751641"><ele>284.0</ele><time>2026-04-18T11:19:10.532Z</time></trkpt><trkpt lat="43.4041453" lon="10.7518325"><ele>282.0</ele><time>2026-04-18T11:19:11.528Z</time></trkpt><trkpt lat="43.4041495" lon="10.7520322"><ele>280.0</ele><time>2026-04-18T11:19:12.535Z</time></trkpt><trkpt lat="43.4041572" lon="10.7522329"><ele>278.0</ele><time>2026-04-18T11:19:13.536Z</time></trkpt><trkpt lat="43.4041686" lon="10.7524345"><ele>276.25</ele><time>2026-04-18T11:19:14.53Z</time></trkpt><trkpt lat="43.4042037" lon="10.7526243"><ele>274.5</ele><time>2026-04-18T11:19:15.534Z</time></trkpt><trkpt lat="43.4042557" lon="10.7528153"><ele>272.75</ele><time>2026-04-18T11:19:16.526Z</time></trkpt><trkpt lat="43.4043294" lon="10.7529867"><ele>271.0</ele><time>2026-04-18T11:19:17.529Z</time></trkpt><trkpt lat="43.4043977" lon="10.7531395"><ele>269.25</ele><time>2026-04-18T11:19:18.528Z</time></trkpt><trkpt lat="43.404463" lon="10.7532655"><ele>267.5</ele><time>2026-04-18T11:19:19.533Z</time></trkpt><trkpt lat="43.4045504" lon="10.7533902"><ele>265.75</ele><time>2026-04-18T11:19:20.531Z</time></trkpt><trkpt lat="43.4046286" lon="10.7535287"><ele>264.0</ele><time>2026-04-18T11:19:21.533Z</time></trkpt><trkpt lat="43.4047233" lon="10.7536496"><ele>262.75</ele><time>2026-04-18T11:19:22.525Z</time></trkpt><trkpt lat="43.4048257" lon="10.7537525"><ele>261.5</ele><time>2026-04-18T11:19:23.515Z</time></trkpt><trkpt lat="43.4049249" lon="10.753833"><ele>260.25</ele><time>2026-04-18T11:19:24.514Z</time></trkpt><trkpt lat="43.4050429" lon="10.7538959"><ele>259.0</ele><time>2026-04-18T11:19:25.521Z</time></trkpt><trkpt lat="43.405171" lon="10.7539148"><ele>259.0</ele><time>2026-04-18T11:19:26.536Z</time></trkpt><trkpt lat="43.4053021" lon="10.7539218"><ele>259.0</ele><time>2026-04-18T11:19:27.532Z</time></trkpt><trkpt lat="43.4054256" lon="10.7539566"><ele>259.0</ele><time>2026-04-18T11:19:28.528Z</time></trkpt><trkpt lat="43.4055458" lon="10.7540267"><ele>259.0</ele><time>2026-04-18T11:19:29.524Z</time></trkpt><trkpt lat="43.4056505" lon="10.7541329"><ele>257.75</ele><time>2026-04-18T11:19:30.534Z</time></trkpt><trkpt lat="43.4057388" lon="10.7542695"><ele>256.5</ele><time>2026-04-18T11:19:31.516Z</time></trkpt><trkpt lat="43.4057932" lon="10.7544426"><ele>255.25</ele><time>2026-04-18T11:19:32.532Z</time></trkpt><trkpt lat="43.4058178" lon="10.7546215"><ele>254.0</ele><time>2026-04-18T11:19:33.532Z</time></trkpt><trkpt lat="43.4058559" lon="10.7547878"><ele>254.0</ele><time>2026-04-18T11:19:34.53Z</time></trkpt><trkpt lat="43.405895" lon="10.7549308"><ele>254.0</ele><time>2026-04-18T11:19:35.529Z</time></trkpt><trkpt lat="43.4059491" lon="10.75506"><ele>254.0</ele><time>2026-04-18T11:19:36.529Z</time></trkpt><trkpt lat="43.4060225" lon="10.7551779"><ele>254.0</ele><time>2026-04-18T11:19:37.526Z</time></trkpt><trkpt lat="43.4061208" lon="10.7552746"><ele>252.39999999999998</ele><time>2026-04-18T11:19:38.53Z</time></trkpt><trkpt lat="43.4062201" lon="10.7553457"><ele>250.79999999999998</ele><time>2026-04-18T11:19:39.526Z</time></trkpt><trkpt lat="43.4063094" lon="10.7553998"><ele>249.20000000000002</ele><time>2026-04-18T11:19:40.525Z</time></trkpt><trkpt lat="43.4063661" lon="10.75545"><ele>247.60000000000002</ele><time>2026-04-18T11:19:41.535Z</time></trkpt><trkpt lat="43.4064139" lon="10.7555772"><ele>246.0</ele><time>2026-04-18T11:19:43.532Z</time></trkpt><trkpt lat="43.4063082" lon="10.7557208"><ele>244.25</ele><time>2026-04-18T11:19:45.529Z</time></trkpt><trkpt lat="43.4062115" lon="10.7557556"><ele>242.5</ele><time>2026-04-18T11:19:46.53Z</time></trkpt><trkpt lat="43.4061093" lon="10.7557418"><ele>240.75</ele><time>2026-04-18T11:19:47.529Z</time></trkpt><trkpt lat="43.4059839" lon="10.7556233"><ele>239.0</ele><time>2026-04-18T11:19:48.527Z</time></trkpt><trkpt lat="43.4058663" lon="10.7554894"><ele>239.0</ele><time>2026-04-18T11:19:49.53Z</time></trkpt><trkpt lat="43.4057611" lon="10.7553637"><ele>239.0</ele><time>2026-04-18T11:19:50.516Z</time></trkpt><trkpt lat="43.4056686" lon="10.7552649"><ele>239.0</ele><time>2026-04-18T11:19:51.517Z</time></trkpt><trkpt lat="43.4055711" lon="10.7552013"><ele>239.0</ele><time>2026-04-18T11:19:52.536Z</time></trkpt><trkpt lat="43.4054497" lon="10.7551797"><ele>240.5</ele><time>2026-04-18T11:19:53.536Z</time></trkpt><trkpt lat="43.4053109" lon="10.7551905"><ele>242.0</ele><time>2026-04-18T11:19:54.527Z</time></trkpt><trkpt lat="43.4051748" lon="10.7552257"><ele>243.5</ele><time>2026-04-18T11:19:55.538Z</time></trkpt><trkpt lat="43.4050404" lon="10.7552678"><ele>245.0</ele><time>2026-04-18T11:19:56.52Z</time></trkpt><trkpt lat="43.4048926" lon="10.7552767"><ele>242.0</ele><time>2026-04-18T11:19:57.521Z</time></trkpt><trkpt lat="43.4047327" lon="10.7552586"><ele>239.0</ele><time>2026-04-18T11:19:58.526Z</time></trkpt><trkpt lat="43.4045613" lon="10.7552205"><ele>236.0</ele><time>2026-04-18T11:19:59.525Z</time></trkpt><trkpt lat="43.4044096" lon="10.7551832"><ele>236.0</ele><time>2026-04-18T11:20:00.528Z</time></trkpt><trkpt lat="43.4042765" lon="10.75515"><ele>236.0</ele><time>2026-04-18T11:20:01.521Z</time></trkpt><trkpt lat="43.4041566" lon="10.7550915"><ele>236.0</ele><time>2026-04-18T11:20:02.532Z</time></trkpt><trkpt lat="43.4040189" lon="10.7550856"><ele>236.0</ele><time>2026-04-18T11:20:03.524Z</time></trkpt><trkpt lat="43.403881" lon="10.7551107"><ele>234.4</ele><time>2026-04-18T11:20:04.524Z</time></trkpt><trkpt lat="43.4037564" lon="10.755165"><ele>232.8</ele><time>2026-04-18T11:20:05.519Z</time></trkpt><trkpt lat="43.4036508" lon="10.7552176"><ele>231.20000000000002</ele><time>2026-04-18T11:20:06.527Z</time></trkpt><trkpt lat="43.4035604" lon="10.7552833"><ele>229.60000000000002</ele><time>2026-04-18T11:20:07.521Z</time></trkpt><trkpt lat="43.4034837" lon="10.7553788"><ele>228.0</ele><time>2026-04-18T11:20:08.522Z</time></trkpt><trkpt lat="43.4034344" lon="10.7554743"><ele>225.0</ele><time>2026-04-18T11:20:09.525Z</time></trkpt><trkpt lat="43.4034122" lon="10.7556114"><ele>222.0</ele><time>2026-04-18T11:20:10.51Z</time></trkpt><trkpt lat="43.4034117" lon="10.7557722"><ele>219.0</ele><time>2026-04-18T11:20:11.517Z</time></trkpt><trkpt lat="43.4034367" lon="10.7559454"><ele>216.0</ele><time>2026-04-18T11:20:12.526Z</time></trkpt><trkpt lat="43.4034777" lon="10.7561171"><ele>214.0</ele><time>2026-04-18T11:20:13.516Z</time></trkpt><trkpt lat="43.4035367" lon="10.7562784"><ele>212.0</ele><time>2026-04-18T11:20:14.532Z</time></trkpt><trkpt lat="43.4036133" lon="10.7564222"><ele>210.0</ele><time>2026-04-18T11:20:15.533Z</time></trkpt><trkpt lat="43.4036945" lon="10.7565557"><ele>208.0</ele><time>2026-04-18T11:20:16.524Z</time></trkpt><trkpt lat="43.403786" lon="10.7566888"><ele>208.25</ele><time>2026-04-18T11:20:17.53Z</time></trkpt><trkpt lat="43.4038787" lon="10.7568201"><ele>208.5</ele><time>2026-04-18T11:20:18.527Z</time></trkpt><trkpt lat="43.4039635" lon="10.7569478"><ele>208.75</ele><time>2026-04-18T11:20:19.532Z</time></trkpt><trkpt lat="43.4040413" lon="10.7570718"><ele>209.0</ele><time>2026-04-18T11:20:20.528Z</time></trkpt><trkpt lat="43.4041098" lon="10.7571913"><ele>209.0</ele><time>2026-04-18T11:20:21.531Z</time></trkpt><trkpt lat="43.4041672" lon="10.7573091"><ele>209.0</ele><time>2026-04-18T11:20:22.54Z</time></trkpt><trkpt lat="43.4042138" lon="10.7574302"><ele>209.0</ele><time>2026-04-18T11:20:23.531Z</time></trkpt><trkpt lat="43.4042451" lon="10.7575676"><ele>209.0</ele><time>2026-04-18T11:20:24.535Z</time></trkpt><trkpt lat="43.4042531" lon="10.7577197"><ele>209.0</ele><time>2026-04-18T11:20:25.537Z</time></trkpt><trkpt lat="43.4042354" lon="10.7578792"><ele>207.75</ele><time>2026-04-18T11:20:26.527Z</time></trkpt><trkpt lat="43.404194" lon="10.7580341"><ele>206.5</ele><time>2026-04-18T11:20:27.538Z</time></trkpt><trkpt lat="43.4041238" lon="10.7581706"><ele>205.25</ele><time>2026-04-18T11:20:28.538Z</time></trkpt><trkpt lat="43.4040203" lon="10.7582781"><ele>204.0</ele><time>2026-04-18T11:20:29.537Z</time></trkpt><trkpt lat="43.4038991" lon="10.7583498"><ele>202.5</ele><time>2026-04-18T11:20:30.542Z</time></trkpt><trkpt lat="43.4037748" lon="10.7584141"><ele>201.0</ele><time>2026-04-18T11:20:31.535Z</time></trkpt><trkpt lat="43.4036372" lon="10.7584777"><ele>199.5</ele><time>2026-04-18T11:20:32.527Z</time></trkpt><trkpt lat="43.4034953" lon="10.7585488"><ele>198.0</ele><time>2026-04-18T11:20:33.525Z</time></trkpt><trkpt lat="43.4033339" lon="10.7586261"><ele>195.66666666666666</ele><time>2026-04-18T11:20:34.525Z</time></trkpt><trkpt lat="43.4031753" lon="10.7587135"><ele>193.33333333333331</ele><time>2026-04-18T11:20:35.528Z</time></trkpt><trkpt lat="43.4030287" lon="10.7587925"><ele>191.0</ele><time>2026-04-18T11:20:36.53Z</time></trkpt><trkpt lat="43.4028817" lon="10.7588603"><ele>190.25</ele><time>2026-04-18T11:20:37.53Z</time></trkpt><trkpt lat="43.4027443" lon="10.7589316"><ele>189.5</ele><time>2026-04-18T11:20:38.531Z</time></trkpt><trkpt lat="43.4026221" lon="10.7590024"><ele>188.75</ele><time>2026-04-18T11:20:39.535Z</time></trkpt><trkpt lat="43.4025085" lon="10.7590796"><ele>188.0</ele><time>2026-04-18T11:20:40.528Z</time></trkpt><trkpt lat="43.4024097" lon="10.7591411"><ele>188.0</ele><time>2026-04-18T11:20:41.523Z</time></trkpt><trkpt lat="43.4023165" lon="10.7591928"><ele>188.0</ele><time>2026-04-18T11:20:42.52Z</time></trkpt><trkpt lat="43.4022475" lon="10.7592587"><ele>188.0</ele><time>2026-04-18T11:20:43.534Z</time></trkpt><trkpt lat="43.4022072" lon="10.7593626"><ele>188.0</ele><time>2026-04-18T11:20:44.525Z</time></trkpt><trkpt lat="43.4021728" lon="10.7595145"><ele>188.0</ele><time>2026-04-18T11:20:45.525Z</time></trkpt><trkpt lat="43.4021705" lon="10.7597107"><ele>187.66666666666666</ele><time>2026-04-18T11:20:46.535Z</time></trkpt><trkpt lat="43.4022211" lon="10.7599345"><ele>187.33333333333334</ele><time>2026-04-18T11:20:47.526Z</time></trkpt><trkpt lat="43.4023203" lon="10.7601816"><ele>187.0</ele><time>2026-04-18T11:20:48.516Z</time></trkpt><trkpt lat="43.4024267" lon="10.7604247"><ele>188.5</ele><time>2026-04-18T11:20:49.53Z</time></trkpt><trkpt lat="43.4025477" lon="10.7606869"><ele>190.0</ele><time>2026-04-18T11:20:50.523Z</time></trkpt><trkpt lat="43.4026716" lon="10.7609805"><ele>194.5</ele><time>2026-04-18T11:20:51.522Z</time></trkpt><trkpt lat="43.4027902" lon="10.761272"><ele>199.0</ele><time>2026-04-18T11:20:52.539Z</time></trkpt><trkpt lat="43.4028939" lon="10.7615343"><ele>199.0</ele><time>2026-04-18T11:20:53.527Z</time></trkpt><trkpt lat="43.4029969" lon="10.7617905"><ele>199.0</ele><time>2026-04-18T11:20:54.52Z</time></trkpt><trkpt lat="43.4030966" lon="10.7620453"><ele>199.0</ele><time>2026-04-18T11:20:55.528Z</time></trkpt><trkpt lat="43.4031848" lon="10.7622659"><ele>198.66666666666666</ele><time>2026-04-18T11:20:56.527Z</time></trkpt><trkpt lat="43.4032714" lon="10.7624674"><ele>198.33333333333331</ele><time>2026-04-18T11:20:57.53Z</time></trkpt><trkpt lat="43.403337" lon="10.7626467"><ele>198.0</ele><time>2026-04-18T11:20:58.519Z</time></trkpt><trkpt lat="43.4034043" lon="10.7628204"><ele>201.0</ele><time>2026-04-18T11:20:59.538Z</time></trkpt><trkpt lat="43.4034768" lon="10.7629958"><ele>204.0</ele><time>2026-04-18T11:21:00.54Z</time></trkpt><trkpt lat="43.4035614" lon="10.7632021"><ele>207.0</ele><time>2026-04-18T11:21:01.525Z</time></trkpt><trkpt lat="43.4036424" lon="10.7634297"><ele>207.33333333333331</ele><time>2026-04-18T11:21:02.541Z</time></trkpt><trkpt lat="43.4037135" lon="10.7636589"><ele>207.66666666666666</ele><time>2026-04-18T11:21:03.528Z</time></trkpt><trkpt lat="43.4037689" lon="10.7638694"><ele>208.0</ele><time>2026-04-18T11:21:04.529Z</time></trkpt><trkpt lat="43.4038161" lon="10.7640553"><ele>207.25</ele><time>2026-04-18T11:21:05.532Z</time></trkpt><trkpt lat="43.403857" lon="10.764232"><ele>206.5</ele><time>2026-04-18T11:21:06.529Z</time></trkpt><trkpt lat="43.4038979" lon="10.7643895"><ele>205.75</ele><time>2026-04-18T11:21:07.529Z</time></trkpt><trkpt lat="43.4039183" lon="10.764543"><ele>205.0</ele><time>2026-04-18T11:21:08.542Z</time></trkpt><trkpt lat="43.4039059" lon="10.7647187"><ele>205.0</ele><time>2026-04-18T11:21:09.54Z</time></trkpt><trkpt lat="43.4038666" lon="10.7649046"><ele>205.0</ele><time>2026-04-18T11:21:10.537Z</time></trkpt><trkpt lat="43.4038101" lon="10.7650804"><ele>205.0</ele><time>2026-04-18T11:21:11.54Z</time></trkpt><trkpt lat="43.4037551" lon="10.765267"><ele>205.0</ele><time>2026-04-18T11:21:12.536Z</time></trkpt><trkpt lat="43.4036983" lon="10.7654644"><ele>202.0</ele><time>2026-04-18T11:21:13.544Z</time></trkpt><trkpt lat="43.4036483" lon="10.7656531"><ele>199.0</ele><time>2026-04-18T11:21:14.54Z</time></trkpt><trkpt lat="43.4035948" lon="10.7658602"><ele>196.0</ele><time>2026-04-18T11:21:15.538Z</time></trkpt><trkpt lat="43.403544" lon="10.7660606"><ele>195.25</ele><time>2026-04-18T11:21:16.539Z</time></trkpt><trkpt lat="43.4034963" lon="10.7662485"><ele>194.5</ele><time>2026-04-18T11:21:17.536Z</time></trkpt><trkpt lat="43.4034463" lon="10.7664293"><ele>193.75</ele><time>2026-04-18T11:21:18.55Z</time></trkpt><trkpt lat="43.4033908" lon="10.766621"><ele>193.0</ele><time>2026-04-18T11:21:19.539Z</time></trkpt><trkpt lat="43.4033614" lon="10.7668093"><ele>193.33333333333331</ele><time>2026-04-18T11:21:20.528Z</time></trkpt><trkpt lat="43.4033555" lon="10.7670039"><ele>193.66666666666669</ele><time>2026-04-18T11:21:21.549Z</time></trkpt><trkpt lat="43.4033901" lon="10.7672161"><ele>194.0</ele><time>2026-04-18T11:21:22.54Z</time></trkpt><trkpt lat="43.4034596" lon="10.7674216"><ele>194.0</ele><time>2026-04-18T11:21:23.536Z</time></trkpt><trkpt lat="43.4035291" lon="10.7676402"><ele>194.0</ele><time>2026-04-18T11:21:24.541Z</time></trkpt><trkpt lat="43.4035966" lon="10.7678337"><ele>194.0</ele><time>2026-04-18T11:21:25.534Z</time></trkpt><trkpt lat="43.4036675" lon="10.7680068"><ele>193.25</ele><time>2026-04-18T11:21:26.538Z</time></trkpt><trkpt lat="43.4037167" lon="10.7681729"><ele>192.5</ele><time>2026-04-18T11:21:27.538Z</time></trkpt><trkpt lat="43.4037626" lon="10.7683351"><ele>191.75</ele><time>2026-04-18T11:21:28.534Z</time></trkpt><trkpt lat="43.4037993" lon="10.7684916"><ele>191.0</ele><time>2026-04-18T11:21:29.533Z</time></trkpt><trkpt lat="43.4038044" lon="10.7686636"><ele>189.5</ele><time>2026-04-18T11:21:30.542Z</time></trkpt><trkpt lat="43.4037913" lon="10.7688295"><ele>188.0</ele><time>2026-04-18T11:21:31.531Z</time></trkpt><trkpt lat="43.4037666" lon="10.7690023"><ele>186.5</ele><time>2026-04-18T11:21:32.533Z</time></trkpt><trkpt lat="43.4037239" lon="10.7691742"><ele>185.0</ele><time>2026-04-18T11:21:33.537Z</time></trkpt><trkpt lat="43.4036603" lon="10.7693462"><ele>183.5</ele><time>2026-04-18T11:21:34.535Z</time></trkpt><trkpt lat="43.4036149" lon="10.7695324"><ele>182.0</ele><time>2026-04-18T11:21:35.533Z</time></trkpt><trkpt lat="43.4035912" lon="10.769714"><ele>180.5</ele><time>2026-04-18T11:21:36.533Z</time></trkpt><trkpt lat="43.4035708" lon="10.7698896"><ele>179.0</ele><time>2026-04-18T11:21:37.536Z</time></trkpt><trkpt lat="43.4035583" lon="10.7700933"><ele>177.33333333333331</ele><time>2026-04-18T11:21:38.524Z</time></trkpt><trkpt lat="43.4035621" lon="10.7703117"><ele>175.66666666666666</ele><time>2026-04-18T11:21:39.53Z</time></trkpt><trkpt lat="43.4035647" lon="10.7705344"><ele>174.0</ele><time>2026-04-18T11:21:40.536Z</time></trkpt><trkpt lat="43.4035775" lon="10.7707707"><ele>174.0</ele><time>2026-04-18T11:21:41.531Z</time></trkpt><trkpt lat="43.4035929" lon="10.7710165"><ele>174.0</ele><time>2026-04-18T11:21:42.529Z</time></trkpt><trkpt lat="43.4036133" lon="10.7712751"><ele>174.0</ele><time>2026-04-18T11:21:43.53Z</time></trkpt><trkpt lat="43.4036319" lon="10.7715182"><ele>172.0</ele><time>2026-04-18T11:21:44.533Z</time></trkpt><trkpt lat="43.4036459" lon="10.7717722"><ele>170.0</ele><time>2026-04-18T11:21:45.53Z</time></trkpt><trkpt lat="43.4036637" lon="10.7720205"><ele>168.0</ele><time>2026-04-18T11:21:46.534Z</time></trkpt><trkpt lat="43.4036654" lon="10.772258"><ele>166.66666666666666</ele><time>2026-04-18T11:21:47.528Z</time></trkpt><trkpt lat="43.4036724" lon="10.7724901"><ele>165.33333333333331</ele><time>2026-04-18T11:21:48.529Z</time></trkpt><trkpt lat="43.4036873" lon="10.7727043"><ele>164.0</ele><time>2026-04-18T11:21:49.533Z</time></trkpt><trkpt lat="43.4037016" lon="10.7729204"><ele>163.66666666666666</ele><time>2026-04-18T11:21:50.534Z</time></trkpt><trkpt lat="43.4036853" lon="10.7731276"><ele>163.33333333333334</ele><time>2026-04-18T11:21:51.532Z</time></trkpt><trkpt lat="43.40362" lon="10.7733363"><ele>163.0</ele><time>2026-04-18T11:21:52.537Z</time></trkpt><trkpt lat="43.4035213" lon="10.7735505"><ele>162.66666666666669</ele><time>2026-04-18T11:21:53.534Z</time></trkpt><trkpt lat="43.4034098" lon="10.7737583"><ele>162.33333333333334</ele><time>2026-04-18T11:21:54.523Z</time></trkpt><trkpt lat="43.403306" lon="10.7739482"><ele>162.0</ele><time>2026-04-18T11:21:55.535Z</time></trkpt><trkpt lat="43.4032228" lon="10.7741135"><ele>162.0</ele><time>2026-04-18T11:21:56.528Z</time></trkpt><trkpt lat="43.4031431" lon="10.7742792"><ele>162.0</ele><time>2026-04-18T11:21:57.54Z</time></trkpt><trkpt lat="43.4030557" lon="10.7744422"><ele>162.0</ele><time>2026-04-18T11:21:58.528Z</time></trkpt><trkpt lat="43.402955" lon="10.7745897"><ele>162.0</ele><time>2026-04-18T11:21:59.529Z</time></trkpt><trkpt lat="43.4028475" lon="10.7747058"><ele>161.8</ele><time>2026-04-18T11:22:00.531Z</time></trkpt><trkpt lat="43.4027424" lon="10.7747954"><ele>161.6</ele><time>2026-04-18T11:22:01.528Z</time></trkpt><trkpt lat="43.4026543" lon="10.7748872"><ele>161.4</ele><time>2026-04-18T11:22:02.528Z</time></trkpt><trkpt lat="43.4025778" lon="10.7749753"><ele>161.20000000000002</ele><time>2026-04-18T11:22:03.521Z</time></trkpt><trkpt lat="43.4025309" lon="10.7750912"><ele>161.0</ele><time>2026-04-18T11:22:04.522Z</time></trkpt><trkpt lat="43.4024962" lon="10.7752128"><ele>160.4</ele><time>2026-04-18T11:22:05.517Z</time></trkpt><trkpt lat="43.4024805" lon="10.7753421"><ele>159.8</ele><time>2026-04-18T11:22:06.526Z</time></trkpt><trkpt lat="43.4024882" lon="10.7754724"><ele>159.20000000000002</ele><time>2026-04-18T11:22:07.52Z</time></trkpt><trkpt lat="43.4024891" lon="10.7756083"><ele>158.60000000000002</ele><time>2026-04-18T11:22:08.528Z</time></trkpt><trkpt lat="43.4024578" lon="10.77577"><ele>158.0</ele><time>2026-04-18T11:22:09.528Z</time></trkpt><trkpt lat="43.4024007" lon="10.775966"><ele>158.0</ele><time>2026-04-18T11:22:10.523Z</time></trkpt><trkpt lat="43.402349" lon="10.7762071"><ele>158.0</ele><time>2026-04-18T11:22:11.527Z</time></trkpt><trkpt lat="43.402333" lon="10.776436"><ele>158.0</ele><time>2026-04-18T11:22:12.53Z</time></trkpt><trkpt lat="43.4023042" lon="10.7766584"><ele>157.33333333333331</ele><time>2026-04-18T11:22:13.534Z</time></trkpt><trkpt lat="43.4022651" lon="10.7768827"><ele>156.66666666666666</ele><time>2026-04-18T11:22:14.532Z</time></trkpt><trkpt lat="43.402211" lon="10.7771104"><ele>156.0</ele><time>2026-04-18T11:22:15.533Z</time></trkpt><trkpt lat="43.4021443" lon="10.7773465"><ele>158.66666666666666</ele><time>2026-04-18T11:22:16.548Z</time></trkpt><trkpt lat="43.4020874" lon="10.7775914"><ele>161.33333333333331</ele><time>2026-04-18T11:22:17.529Z</time></trkpt><trkpt lat="43.4020523" lon="10.7778552"><ele>164.0</ele><time>2026-04-18T11:22:18.527Z</time></trkpt><trkpt lat="43.4020314" lon="10.7781334"><ele>164.66666666666666</ele><time>2026-04-18T11:22:19.526Z</time></trkpt><trkpt lat="43.4020247" lon="10.778432"><ele>165.33333333333334</ele><time>2026-04-18T11:22:20.531Z</time></trkpt><trkpt lat="43.4020314" lon="10.7787186"><ele>166.0</ele><time>2026-04-18T11:22:21.528Z</time></trkpt><trkpt lat="43.4020477" lon="10.7790092"><ele>166.0</ele><time>2026-04-18T11:22:22.54Z</time></trkpt><trkpt lat="43.4020639" lon="10.7792933"><ele>166.0</ele><time>2026-04-18T11:22:23.539Z</time></trkpt><trkpt lat="43.4020704" lon="10.7795735"><ele>166.0</ele><time>2026-04-18T11:22:24.533Z</time></trkpt><trkpt lat="43.4020673" lon="10.7798404"><ele>166.0</ele><time>2026-04-18T11:22:25.535Z</time></trkpt><trkpt lat="43.4020628" lon="10.7801087"><ele>166.0</ele><time>2026-04-18T11:22:26.529Z</time></trkpt><trkpt lat="43.4020298" lon="10.7803663"><ele>166.0</ele><time>2026-04-18T11:22:27.532Z</time></trkpt><trkpt lat="43.4019921" lon="10.7806277"><ele>165.66666666666669</ele><time>2026-04-18T11:22:28.534Z</time></trkpt><trkpt lat="43.4019575" lon="10.7808811"><ele>165.33333333333334</ele><time>2026-04-18T11:22:29.532Z</time></trkpt><trkpt lat="43.4019238" lon="10.7811543"><ele>165.0</ele><time>2026-04-18T11:22:30.542Z</time></trkpt><trkpt lat="43.4018991" lon="10.7814221"><ele>165.0</ele><time>2026-04-18T11:22:31.536Z</time></trkpt><trkpt lat="43.4018867" lon="10.7816854"><ele>165.0</ele><time>2026-04-18T11:22:32.531Z</time></trkpt><trkpt lat="43.4018943" lon="10.7819612"><ele>165.0</ele><time>2026-04-18T11:22:33.534Z</time></trkpt><trkpt lat="43.4019134" lon="10.7822434"><ele>164.66666666666666</ele><time>2026-04-18T11:22:34.528Z</time></trkpt><trkpt lat="43.4019581" lon="10.7825343"><ele>164.33333333333331</ele><time>2026-04-18T11:22:35.532Z</time></trkpt><trkpt lat="43.4019754" lon="10.7828258"><ele>164.0</ele><time>2026-04-18T11:22:36.537Z</time></trkpt><trkpt lat="43.4020049" lon="10.7831307"><ele>163.0</ele><time>2026-04-18T11:22:37.536Z</time></trkpt><trkpt lat="43.402038" lon="10.7834239"><ele>162.0</ele><time>2026-04-18T11:22:38.534Z</time></trkpt><trkpt lat="43.4020667" lon="10.7837297"><ele>161.0</ele><time>2026-04-18T11:22:39.539Z</time></trkpt><trkpt lat="43.402092" lon="10.7840114"><ele>160.0</ele><time>2026-04-18T11:22:40.534Z</time></trkpt><trkpt lat="43.4021282" lon="10.7842774"><ele>159.0</ele><time>2026-04-18T11:22:41.535Z</time></trkpt><trkpt lat="43.4021695" lon="10.7845402"><ele>158.0</ele><time>2026-04-18T11:22:42.542Z</time></trkpt><trkpt lat="43.4022222" lon="10.7848094"><ele>160.0</ele><time>2026-04-18T11:22:43.532Z</time></trkpt><trkpt lat="43.4022876" lon="10.7850677"><ele>162.0</ele><time>2026-04-18T11:22:44.531Z</time></trkpt><trkpt lat="43.4023644" lon="10.7853218"><ele>164.0</ele><time>2026-04-18T11:22:45.533Z</time></trkpt><trkpt lat="43.4024341" lon="10.7855778"><ele>164.0</ele><time>2026-04-18T11:22:46.537Z</time></trkpt><trkpt lat="43.4024918" lon="10.7858346"><ele>164.0</ele><time>2026-04-18T11:22:47.536Z</time></trkpt><trkpt lat="43.4025599" lon="10.7860877"><ele>164.0</ele><time>2026-04-18T11:22:48.537Z</time></trkpt><trkpt lat="43.4026263" lon="10.7863393"><ele>164.66666666666666</ele><time>2026-04-18T11:22:49.531Z</time></trkpt><trkpt lat="43.402685" lon="10.7865701"><ele>165.33333333333334</ele><time>2026-04-18T11:22:50.529Z</time></trkpt><trkpt lat="43.4027393" lon="10.7867965"><ele>166.0</ele><time>2026-04-18T11:22:51.535Z</time></trkpt><trkpt lat="43.4027895" lon="10.7870052"><ele>166.66666666666669</ele><time>2026-04-18T11:22:52.538Z</time></trkpt><trkpt lat="43.4028374" lon="10.787207"><ele>167.33333333333334</ele><time>2026-04-18T11:22:53.535Z</time></trkpt><trkpt lat="43.4028785" lon="10.7874092"><ele>168.0</ele><time>2026-04-18T11:22:54.541Z</time></trkpt><trkpt lat="43.4029054" lon="10.7876145"><ele>169.75</ele><time>2026-04-18T11:22:55.53Z</time></trkpt><trkpt lat="43.40292" lon="10.7877977"><ele>171.5</ele><time>2026-04-18T11:22:56.53Z</time></trkpt><trkpt lat="43.402898" lon="10.7879718"><ele>173.25</ele><time>2026-04-18T11:22:57.527Z</time></trkpt><trkpt lat="43.4028405" lon="10.7881478"><ele>175.0</ele><time>2026-04-18T11:22:58.528Z</time></trkpt><trkpt lat="43.4027621" lon="10.7883153"><ele>175.0</ele><time>2026-04-18T11:22:59.535Z</time></trkpt><trkpt lat="43.402675" lon="10.7884887"><ele>175.0</ele><time>2026-04-18T11:23:00.534Z</time></trkpt><trkpt lat="43.4025646" lon="10.7886528"><ele>175.0</ele><time>2026-04-18T11:23:01.536Z</time></trkpt><trkpt lat="43.4024432" lon="10.7888023"><ele>174.25</ele><time>2026-04-18T11:23:02.53Z</time></trkpt><trkpt lat="43.4023253" lon="10.7889307"><ele>173.5</ele><time>2026-04-18T11:23:03.525Z</time></trkpt><trkpt lat="43.4022087" lon="10.7890203"><ele>172.75</ele><time>2026-04-18T11:23:04.527Z</time></trkpt><trkpt lat="43.4020806" lon="10.7890867"><ele>172.0</ele><time>2026-04-18T11:23:05.529Z</time></trkpt><trkpt lat="43.4019326" lon="10.789114"><ele>172.0</ele><time>2026-04-18T11:23:06.532Z</time></trkpt><trkpt lat="43.4017838" lon="10.7891061"><ele>172.0</ele><time>2026-04-18T11:23:07.536Z</time></trkpt><trkpt lat="43.4016458" lon="10.7890485"><ele>172.0</ele><time>2026-04-18T11:23:08.523Z</time></trkpt><trkpt lat="43.4015181" lon="10.7889943"><ele>172.0</ele><time>2026-04-18T11:23:09.52Z</time></trkpt><trkpt lat="43.4013966" lon="10.7889768"><ele>168.25</ele><time>2026-04-18T11:23:10.529Z</time></trkpt><trkpt lat="43.4012784" lon="10.7889904"><ele>164.5</ele><time>2026-04-18T11:23:11.526Z</time></trkpt><trkpt lat="43.4011706" lon="10.7890446"><ele>160.75</ele><time>2026-04-18T11:23:12.529Z</time></trkpt><trkpt lat="43.4010845" lon="10.7891418"><ele>157.0</ele><time>2026-04-18T11:23:13.521Z</time></trkpt><trkpt lat="43.4010294" lon="10.7893022"><ele>155.75</ele><time>2026-04-18T11:23:14.525Z</time></trkpt><trkpt lat="43.4010158" lon="10.7894841"><ele>154.5</ele><time>2026-04-18T11:23:15.536Z</time></trkpt><trkpt lat="43.4010363" lon="10.7896601"><ele>153.25</ele><time>2026-04-18T11:23:16.533Z</time></trkpt><trkpt lat="43.4010993" lon="10.7898427"><ele>152.0</ele><time>2026-04-18T11:23:17.523Z</time></trkpt><trkpt lat="43.4011893" lon="10.7900029"><ele>152.0</ele><time>2026-04-18T11:23:18.529Z</time></trkpt><trkpt lat="43.4012896" lon="10.7901488"><ele>152.0</ele><time>2026-04-18T11:23:19.52Z</time></trkpt><trkpt lat="43.4013858" lon="10.7902725"><ele>152.0</ele><time>2026-04-18T11:23:20.526Z</time></trkpt><trkpt lat="43.4014595" lon="10.7903998"><ele>152.0</ele><time>2026-04-18T11:23:21.528Z</time></trkpt><trkpt lat="43.401504" lon="10.7905611"><ele>151.5</ele><time>2026-04-18T11:23:22.53Z</time></trkpt><trkpt lat="43.401505" lon="10.7907373"><ele>151.0</ele><time>2026-04-18T11:23:23.533Z</time></trkpt><trkpt lat="43.401464" lon="10.7908992"><ele>150.5</ele><time>2026-04-18T11:23:24.532Z</time></trkpt><trkpt lat="43.4013878" lon="10.791016"><ele>150.0</ele><time>2026-04-18T11:23:25.525Z</time></trkpt><trkpt lat="43.4012779" lon="10.791117"><ele>150.0</ele><time>2026-04-18T11:23:26.525Z</time></trkpt><trkpt lat="43.4011418" lon="10.7911986"><ele>150.0</ele><time>2026-04-18T11:23:27.521Z</time></trkpt><trkpt lat="43.4009863" lon="10.7912602"><ele>150.0</ele><time>2026-04-18T11:23:28.521Z</time></trkpt><trkpt lat="43.4008392" lon="10.7913163"><ele>150.0</ele><time>2026-04-18T11:23:29.519Z</time></trkpt><trkpt lat="43.4007018" lon="10.7913706"><ele>150.0</ele><time>2026-04-18T11:23:30.534Z</time></trkpt><trkpt lat="43.4005765" lon="10.7914263"><ele>150.0</ele><time>2026-04-18T11:23:31.518Z</time></trkpt><trkpt lat="43.4004535" lon="10.7914933"><ele>150.0</ele><time>2026-04-18T11:23:32.526Z</time></trkpt><trkpt lat="43.4003311" lon="10.7915549"><ele>148.5</ele><time>2026-04-18T11:23:33.523Z</time></trkpt><trkpt lat="43.4002089" lon="10.7916555"><ele>147.0</ele><time>2026-04-18T11:23:34.519Z</time></trkpt><trkpt lat="43.4001084" lon="10.7917904"><ele>145.5</ele><time>2026-04-18T11:23:35.511Z</time></trkpt><trkpt lat="43.4000336" lon="10.7919793"><ele>144.0</ele><time>2026-04-18T11:23:36.529Z</time></trkpt><trkpt lat="43.3999766" lon="10.7921759"><ele>144.0</ele><time>2026-04-18T11:23:37.52Z</time></trkpt><trkpt lat="43.3999467" lon="10.792357"><ele>144.0</ele><time>2026-04-18T11:23:38.539Z</time></trkpt><trkpt lat="43.3998939" lon="10.7925188"><ele>144.0</ele><time>2026-04-18T11:23:39.52Z</time></trkpt><trkpt lat="43.3998089" lon="10.792645"><ele>144.0</ele><time>2026-04-18T11:23:40.527Z</time></trkpt><trkpt lat="43.3997056" lon="10.7927416"><ele>142.33333333333334</ele><time>2026-04-18T11:23:41.521Z</time></trkpt><trkpt lat="43.3995793" lon="10.7928136"><ele>140.66666666666669</ele><time>2026-04-18T11:23:42.538Z</time></trkpt><trkpt lat="43.3994271" lon="10.7928541"><ele>139.0</ele><time>2026-04-18T11:23:43.524Z</time></trkpt><trkpt lat="43.3992661" lon="10.792876"><ele>139.0</ele><time>2026-04-18T11:23:44.527Z</time></trkpt><trkpt lat="43.3991019" lon="10.7928852"><ele>139.0</ele><time>2026-04-18T11:23:45.531Z</time></trkpt><trkpt lat="43.3989382" lon="10.7928394"><ele>139.0</ele><time>2026-04-18T11:23:46.539Z</time></trkpt><trkpt lat="43.3987794" lon="10.7927557"><ele>138.0</ele><time>2026-04-18T11:23:47.525Z</time></trkpt><trkpt lat="43.398626" lon="10.7926595"><ele>137.0</ele><time>2026-04-18T11:23:48.538Z</time></trkpt><trkpt lat="43.3984658" lon="10.7925614"><ele>136.0</ele><time>2026-04-18T11:23:49.532Z</time></trkpt><trkpt lat="43.3983149" lon="10.7924701"><ele>136.0</ele><time>2026-04-18T11:23:50.538Z</time></trkpt><trkpt lat="43.3981602" lon="10.7924032"><ele>136.0</ele><time>2026-04-18T11:23:51.535Z</time></trkpt><trkpt lat="43.3979979" lon="10.7923692"><ele>136.0</ele><time>2026-04-18T11:23:52.525Z</time></trkpt><trkpt lat="43.3978341" lon="10.7923592"><ele>136.66666666666669</ele><time>2026-04-18T11:23:53.537Z</time></trkpt><trkpt lat="43.3976609" lon="10.7923773"><ele>137.33333333333334</ele><time>2026-04-18T11:23:54.529Z</time></trkpt><trkpt lat="43.3974827" lon="10.7924047"><ele>138.0</ele><time>2026-04-18T11:23:55.533Z</time></trkpt><trkpt lat="43.3973053" lon="10.7924311"><ele>137.33333333333334</ele><time>2026-04-18T11:23:56.536Z</time></trkpt><trkpt lat="43.3971219" lon="10.7924348"><ele>136.66666666666669</ele><time>2026-04-18T11:23:57.529Z</time></trkpt><trkpt lat="43.3969546" lon="10.792435"><ele>136.0</ele><time>2026-04-18T11:23:58.528Z</time></trkpt><trkpt lat="43.396806" lon="10.7924008"><ele>136.0</ele><time>2026-04-18T11:23:59.527Z</time></trkpt><trkpt lat="43.3966635" lon="10.7923994"><ele>136.0</ele><time>2026-04-18T11:24:00.537Z</time></trkpt><trkpt lat="43.3965036" lon="10.7924376"><ele>136.0</ele><time>2026-04-18T11:24:01.538Z</time></trkpt><trkpt lat="43.3963471" lon="10.7924973"><ele>136.0</ele><time>2026-04-18T11:24:02.521Z</time></trkpt><trkpt lat="43.3962039" lon="10.7925619"><ele>136.0</ele><time>2026-04-18T11:24:03.526Z</time></trkpt><trkpt lat="43.3960805" lon="10.7926802"><ele>136.0</ele><time>2026-04-18T11:24:04.526Z</time></trkpt><trkpt lat="43.3959528" lon="10.7928083"><ele>133.0</ele><time>2026-04-18T11:24:05.534Z</time></trkpt><trkpt lat="43.3958343" lon="10.7929641"><ele>130.0</ele><time>2026-04-18T11:24:06.528Z</time></trkpt><trkpt lat="43.3957215" lon="10.7931307"><ele>127.0</ele><time>2026-04-18T11:24:07.531Z</time></trkpt><trkpt lat="43.3956044" lon="10.7932839"><ele>127.75</ele><time>2026-04-18T11:24:08.541Z</time></trkpt><trkpt lat="43.3954974" lon="10.7934348"><ele>128.5</ele><time>2026-04-18T11:24:09.53Z</time></trkpt><trkpt lat="43.3953965" lon="10.7935711"><ele>129.25</ele><time>2026-04-18T11:24:10.54Z</time></trkpt><trkpt lat="43.3952944" lon="10.7937061"><ele>130.0</ele><time>2026-04-18T11:24:11.535Z</time></trkpt><trkpt lat="43.3951909" lon="10.7938367"><ele>128.25</ele><time>2026-04-18T11:24:12.537Z</time></trkpt><trkpt lat="43.3950886" lon="10.7939406"><ele>126.5</ele><time>2026-04-18T11:24:13.53Z</time></trkpt><trkpt lat="43.3949755" lon="10.7940036"><ele>124.75</ele><time>2026-04-18T11:24:14.531Z</time></trkpt><trkpt lat="43.3948436" lon="10.7940508"><ele>123.0</ele><time>2026-04-18T11:24:15.541Z</time></trkpt><trkpt lat="43.3947011" lon="10.7940603"><ele>121.33333333333334</ele><time>2026-04-18T11:24:16.54Z</time></trkpt><trkpt lat="43.3945572" lon="10.7940048"><ele>119.66666666666667</ele><time>2026-04-18T11:24:17.544Z</time></trkpt><trkpt lat="43.3944139" lon="10.7939157"><ele>118.0</ele><time>2026-04-18T11:24:18.53Z</time></trkpt><trkpt lat="43.3942767" lon="10.793825"><ele>118.0</ele><time>2026-04-18T11:24:19.546Z</time></trkpt><trkpt lat="43.3941443" lon="10.7937556"><ele>118.0</ele><time>2026-04-18T11:24:20.535Z</time></trkpt><trkpt lat="43.3939906" lon="10.7937124"><ele>118.0</ele><time>2026-04-18T11:24:21.537Z</time></trkpt><trkpt lat="43.39382" lon="10.7936983"><ele>116.33333333333334</ele><time>2026-04-18T11:24:22.528Z</time></trkpt><trkpt lat="43.3936666" lon="10.7936842"><ele>114.66666666666666</ele><time>2026-04-18T11:24:23.531Z</time></trkpt><trkpt lat="43.3935046" lon="10.793682"><ele>113.0</ele><time>2026-04-18T11:24:24.526Z</time></trkpt><trkpt lat="43.393353" lon="10.7936855"><ele>113.0</ele><time>2026-04-18T11:24:25.526Z</time></trkpt><trkpt lat="43.3931924" lon="10.7936864"><ele>113.0</ele><time>2026-04-18T11:24:26.538Z</time></trkpt><trkpt lat="43.3930252" lon="10.7936796"><ele>113.0</ele><time>2026-04-18T11:24:27.537Z</time></trkpt><trkpt lat="43.392856" lon="10.7936745"><ele>112.33333333333333</ele><time>2026-04-18T11:24:28.545Z</time></trkpt><trkpt lat="43.3926769" lon="10.7936663"><ele>111.66666666666666</ele><time>2026-04-18T11:24:29.54Z</time></trkpt><trkpt lat="43.3925014" lon="10.7936611"><ele>111.0</ele><time>2026-04-18T11:24:30.545Z</time></trkpt><trkpt lat="43.3923237" lon="10.7936572"><ele>110.66666666666666</ele><time>2026-04-18T11:24:31.538Z</time></trkpt><trkpt lat="43.392154" lon="10.793656"><ele>110.33333333333333</ele><time>2026-04-18T11:24:32.544Z</time></trkpt><trkpt lat="43.3919928" lon="10.7936546"><ele>110.0</ele><time>2026-04-18T11:24:33.532Z</time></trkpt><trkpt lat="43.3918411" lon="10.7936498"><ele>110.0</ele><time>2026-04-18T11:24:34.537Z</time></trkpt><trkpt lat="43.3916995" lon="10.7936505"><ele>110.0</ele><time>2026-04-18T11:24:35.532Z</time></trkpt><trkpt lat="43.3915742" lon="10.7936629"><ele>110.0</ele><time>2026-04-18T11:24:36.53Z</time></trkpt><trkpt lat="43.3914422" lon="10.7937233"><ele>110.0</ele><time>2026-04-18T11:24:37.541Z</time></trkpt><trkpt lat="43.3913097" lon="10.7938431"><ele>110.33333333333333</ele><time>2026-04-18T11:24:38.542Z</time></trkpt><trkpt lat="43.3911793" lon="10.7939995"><ele>110.66666666666666</ele><time>2026-04-18T11:24:39.527Z</time></trkpt><trkpt lat="43.3910795" lon="10.7942091"><ele>111.0</ele><time>2026-04-18T11:24:40.542Z</time></trkpt><trkpt lat="43.3909973" lon="10.7944235"><ele>111.0</ele><time>2026-04-18T11:24:41.536Z</time></trkpt><trkpt lat="43.3909138" lon="10.7946113"><ele>111.0</ele><time>2026-04-18T11:24:42.539Z</time></trkpt><trkpt lat="43.3908137" lon="10.7948038"><ele>111.0</ele><time>2026-04-18T11:24:43.531Z</time></trkpt><trkpt lat="43.3906992" lon="10.7949976"><ele>110.33333333333334</ele><time>2026-04-18T11:24:44.536Z</time></trkpt><trkpt lat="43.3905858" lon="10.7951799"><ele>109.66666666666667</ele><time>2026-04-18T11:24:45.533Z</time></trkpt><trkpt lat="43.3904811" lon="10.7953663"><ele>109.0</ele><time>2026-04-18T11:24:46.538Z</time></trkpt><trkpt lat="43.3903768" lon="10.7955431"><ele>109.0</ele><time>2026-04-18T11:24:47.539Z</time></trkpt><trkpt lat="43.3902882" lon="10.7957199"><ele>109.0</ele><time>2026-04-18T11:24:48.534Z</time></trkpt><trkpt lat="43.3901842" lon="10.7958954"><ele>109.0</ele><time>2026-04-18T11:24:49.537Z</time></trkpt><trkpt lat="43.3900651" lon="10.7960799"><ele>105.66666666666667</ele><time>2026-04-18T11:24:50.545Z</time></trkpt><trkpt lat="43.3899477" lon="10.7962568"><ele>102.33333333333334</ele><time>2026-04-18T11:24:51.537Z</time></trkpt><trkpt lat="43.3898249" lon="10.7964055"><ele>99.0</ele><time>2026-04-18T11:24:52.539Z</time></trkpt><trkpt lat="43.3897099" lon="10.7965273"><ele>99.66666666666666</ele><time>2026-04-18T11:24:53.539Z</time></trkpt><trkpt lat="43.3895789" lon="10.7966171"><ele>100.33333333333333</ele><time>2026-04-18T11:24:54.532Z</time></trkpt><trkpt lat="43.3894159" lon="10.7966863"><ele>101.0</ele><time>2026-04-18T11:24:55.539Z</time></trkpt><trkpt lat="43.3892432" lon="10.7966943"><ele>101.0</ele><time>2026-04-18T11:24:56.544Z</time></trkpt><trkpt lat="43.3890583" lon="10.7966515"><ele>101.0</ele><time>2026-04-18T11:24:57.535Z</time></trkpt><trkpt lat="43.3888933" lon="10.7966321"><ele>101.0</ele><time>2026-04-18T11:24:58.542Z</time></trkpt><trkpt lat="43.3887276" lon="10.7966134"><ele>100.66666666666666</ele><time>2026-04-18T11:24:59.531Z</time></trkpt><trkpt lat="43.3885689" lon="10.7965935"><ele>100.33333333333334</ele><time>2026-04-18T11:25:00.541Z</time></trkpt><trkpt lat="43.3884179" lon="10.7965652"><ele>100.0</ele><time>2026-04-18T11:25:01.54Z</time></trkpt><trkpt lat="43.388269" lon="10.7964926"><ele>100.0</ele><time>2026-04-18T11:25:02.544Z</time></trkpt><trkpt lat="43.3881303" lon="10.7963724"><ele>100.0</ele><time>2026-04-18T11:25:03.53Z</time></trkpt><trkpt lat="43.3880007" lon="10.7961939"><ele>100.0</ele><time>2026-04-18T11:25:04.537Z</time></trkpt><trkpt lat="43.3878759" lon="10.7960189"><ele>100.0</ele><time>2026-04-18T11:25:05.536Z</time></trkpt><trkpt lat="43.3877342" lon="10.7958351"><ele>100.0</ele><time>2026-04-18T11:25:06.539Z</time></trkpt><trkpt lat="43.3875953" lon="10.7956432"><ele>100.0</ele><time>2026-04-18T11:25:07.542Z</time></trkpt><trkpt lat="43.3874603" lon="10.7954735"><ele>100.0</ele><time>2026-04-18T11:25:08.54Z</time></trkpt><trkpt lat="43.3873063" lon="10.7953195"><ele>100.0</ele><time>2026-04-18T11:25:09.544Z</time></trkpt><trkpt lat="43.3871473" lon="10.7951804"><ele>100.0</ele><time>2026-04-18T11:25:10.541Z</time></trkpt><trkpt lat="43.386994" lon="10.7950469"><ele>98.0</ele><time>2026-04-18T11:25:11.541Z</time></trkpt><trkpt lat="43.3868442" lon="10.7949315"><ele>96.0</ele><time>2026-04-18T11:25:12.541Z</time></trkpt><trkpt lat="43.3866976" lon="10.7948212"><ele>94.0</ele><time>2026-04-18T11:25:13.544Z</time></trkpt><trkpt lat="43.3865599" lon="10.7947384"><ele>94.0</ele><time>2026-04-18T11:25:14.548Z</time></trkpt><trkpt lat="43.3864106" lon="10.7946761"><ele>94.0</ele><time>2026-04-18T11:25:15.538Z</time></trkpt><trkpt lat="43.3862665" lon="10.7946459"><ele>94.0</ele><time>2026-04-18T11:25:16.549Z</time></trkpt><trkpt lat="43.386115" lon="10.7946512"><ele>93.0</ele><time>2026-04-18T11:25:17.548Z</time></trkpt><trkpt lat="43.3859636" lon="10.7946983"><ele>92.0</ele><time>2026-04-18T11:25:18.546Z</time></trkpt><trkpt lat="43.3858046" lon="10.7948031"><ele>91.0</ele><time>2026-04-18T11:25:19.547Z</time></trkpt><trkpt lat="43.385644" lon="10.7949508"><ele>88.5</ele><time>2026-04-18T11:25:20.541Z</time></trkpt><trkpt lat="43.3854808" lon="10.7951333"><ele>86.0</ele><time>2026-04-18T11:25:21.533Z</time></trkpt><trkpt lat="43.3852956" lon="10.7953481"><ele>85.5</ele><time>2026-04-18T11:25:22.528Z</time></trkpt><trkpt lat="43.3850857" lon="10.7955725"><ele>85.0</ele><time>2026-04-18T11:25:23.539Z</time></trkpt><trkpt lat="43.3848888" lon="10.7957959"><ele>85.0</ele><time>2026-04-18T11:25:24.537Z</time></trkpt><trkpt lat="43.3846882" lon="10.796015"><ele>85.0</ele><time>2026-04-18T11:25:25.534Z</time></trkpt><trkpt lat="43.3844884" lon="10.7962315"><ele>83.5</ele><time>2026-04-18T11:25:26.547Z</time></trkpt><trkpt lat="43.3842859" lon="10.7964425"><ele>82.0</ele><time>2026-04-18T11:25:27.54Z</time></trkpt><trkpt lat="43.3840946" lon="10.7966423"><ele>82.5</ele><time>2026-04-18T11:25:28.542Z</time></trkpt><trkpt lat="43.3839089" lon="10.7968381"><ele>83.0</ele><time>2026-04-18T11:25:29.535Z</time></trkpt><trkpt lat="43.3837267" lon="10.7970232"><ele>82.33333333333334</ele><time>2026-04-18T11:25:30.547Z</time></trkpt><trkpt lat="43.3835558" lon="10.7972103"><ele>81.66666666666667</ele><time>2026-04-18T11:25:31.532Z</time></trkpt><trkpt lat="43.3833817" lon="10.7973982"><ele>81.0</ele><time>2026-04-18T11:25:32.537Z</time></trkpt><trkpt lat="43.383215" lon="10.7975774"><ele>81.33333333333333</ele><time>2026-04-18T11:25:33.534Z</time></trkpt><trkpt lat="43.3830496" lon="10.797762"><ele>81.66666666666666</ele><time>2026-04-18T11:25:34.531Z</time></trkpt><trkpt lat="43.3828857" lon="10.7979348"><ele>82.0</ele><time>2026-04-18T11:25:35.531Z</time></trkpt><trkpt lat="43.3827236" lon="10.7981076"><ele>82.0</ele><time>2026-04-18T11:25:36.529Z</time></trkpt><trkpt lat="43.3825592" lon="10.7982778"><ele>82.0</ele><time>2026-04-18T11:25:37.536Z</time></trkpt><trkpt lat="43.3823892" lon="10.7984418"><ele>82.0</ele><time>2026-04-18T11:25:38.532Z</time></trkpt><trkpt lat="43.3822239" lon="10.7986202"><ele>82.0</ele><time>2026-04-18T11:25:39.532Z</time></trkpt><trkpt lat="43.3820674" lon="10.7987968"><ele>82.0</ele><time>2026-04-18T11:25:40.527Z</time></trkpt><trkpt lat="43.3819081" lon="10.7989576"><ele>82.0</ele><time>2026-04-18T11:25:41.536Z</time></trkpt><trkpt lat="43.3817496" lon="10.79912"><ele>82.0</ele><time>2026-04-18T11:25:42.533Z</time></trkpt><trkpt lat="43.3815958" lon="10.7992768"><ele>82.0</ele><time>2026-04-18T11:25:43.526Z</time></trkpt><trkpt lat="43.3814464" lon="10.7994519"><ele>82.0</ele><time>2026-04-18T11:25:44.536Z</time></trkpt><trkpt lat="43.3812943" lon="10.799621"><ele>81.33333333333333</ele><time>2026-04-18T11:25:45.527Z</time></trkpt><trkpt lat="43.3811448" lon="10.7997869"><ele>80.66666666666667</ele><time>2026-04-18T11:25:46.53Z</time></trkpt><trkpt lat="43.3809892" lon="10.7999499"><ele>80.0</ele><time>2026-04-18T11:25:47.529Z</time></trkpt><trkpt lat="43.3808258" lon="10.8001115"><ele>80.33333333333334</ele><time>2026-04-18T11:25:48.54Z</time></trkpt><trkpt lat="43.3806776" lon="10.8002801"><ele>80.66666666666667</ele><time>2026-04-18T11:25:49.527Z</time></trkpt><trkpt lat="43.3805367" lon="10.8004341"><ele>81.0</ele><time>2026-04-18T11:25:50.541Z</time></trkpt><trkpt lat="43.3804052" lon="10.800571"><ele>80.5</ele><time>2026-04-18T11:25:51.534Z</time></trkpt><trkpt lat="43.3802823" lon="10.8007127"><ele>80.0</ele><time>2026-04-18T11:25:52.533Z</time></trkpt><trkpt lat="43.3801655" lon="10.8008176"><ele>79.5</ele><time>2026-04-18T11:25:53.53Z</time></trkpt><trkpt lat="43.3800353" lon="10.8009109"><ele>79.0</ele><time>2026-04-18T11:25:54.528Z</time></trkpt><trkpt lat="43.3798677" lon="10.8009607"><ele>79.0</ele><time>2026-04-18T11:25:55.536Z</time></trkpt><trkpt lat="43.379692" lon="10.8009721"><ele>79.0</ele><time>2026-04-18T11:25:56.531Z</time></trkpt><trkpt lat="43.3795022" lon="10.8009335"><ele>79.0</ele><time>2026-04-18T11:25:57.527Z</time></trkpt><trkpt lat="43.3793212" lon="10.8008881"><ele>78.66666666666666</ele><time>2026-04-18T11:25:58.542Z</time></trkpt><trkpt lat="43.3791298" lon="10.800827"><ele>78.33333333333333</ele><time>2026-04-18T11:25:59.53Z</time></trkpt><trkpt lat="43.3789363" lon="10.8007733"><ele>78.0</ele><time>2026-04-18T11:26:00.534Z</time></trkpt><trkpt lat="43.3787473" lon="10.8007276"><ele>78.0</ele><time>2026-04-18T11:26:01.532Z</time></trkpt><trkpt lat="43.3785419" lon="10.800693"><ele>78.0</ele><time>2026-04-18T11:26:02.526Z</time></trkpt><trkpt lat="43.378337" lon="10.8006485"><ele>78.0</ele><time>2026-04-18T11:26:03.529Z</time></trkpt><trkpt lat="43.3781397" lon="10.8006021"><ele>77.33333333333333</ele><time>2026-04-18T11:26:04.537Z</time></trkpt><trkpt lat="43.3779456" lon="10.8005625"><ele>76.66666666666666</ele><time>2026-04-18T11:26:05.532Z</time></trkpt><trkpt lat="43.3777442" lon="10.8005079"><ele>76.0</ele><time>2026-04-18T11:26:06.529Z</time></trkpt><trkpt lat="43.3775521" lon="10.8004595"><ele>76.0</ele><time>2026-04-18T11:26:07.531Z</time></trkpt><trkpt lat="43.377373" lon="10.8004024"><ele>76.0</ele><time>2026-04-18T11:26:08.536Z</time></trkpt><trkpt lat="43.3772123" lon="10.8003657"><ele>76.0</ele><time>2026-04-18T11:26:09.533Z</time></trkpt><trkpt lat="43.3770439" lon="10.8003489"><ele>77.0</ele><time>2026-04-18T11:26:10.541Z</time></trkpt><trkpt lat="43.3768615" lon="10.8003597"><ele>78.0</ele><time>2026-04-18T11:26:11.55Z</time></trkpt><trkpt lat="43.3766651" lon="10.8004149"><ele>79.0</ele><time>2026-04-18T11:26:12.526Z</time></trkpt><trkpt lat="43.3764666" lon="10.8004951"><ele>78.33333333333333</ele><time>2026-04-18T11:26:13.538Z</time></trkpt><trkpt lat="43.3762631" lon="10.8006023"><ele>77.66666666666667</ele><time>2026-04-18T11:26:14.533Z</time></trkpt><trkpt lat="43.3760768" lon="10.8007418"><ele>77.0</ele><time>2026-04-18T11:26:15.532Z</time></trkpt><trkpt lat="43.3758872" lon="10.8008893"><ele>77.0</ele><time>2026-04-18T11:26:16.533Z</time></trkpt><trkpt lat="43.375692" lon="10.8010382"><ele>77.0</ele><time>2026-04-18T11:26:17.526Z</time></trkpt><trkpt lat="43.3754913" lon="10.8011856"><ele>76.0</ele><time>2026-04-18T11:26:18.545Z</time></trkpt><trkpt lat="43.3752908" lon="10.801335"><ele>75.0</ele><time>2026-04-18T11:26:19.536Z</time></trkpt><trkpt lat="43.3750933" lon="10.8014873"><ele>75.0</ele><time>2026-04-18T11:26:20.545Z</time></trkpt><trkpt lat="43.3748997" lon="10.8016497"><ele>75.0</ele><time>2026-04-18T11:26:21.55Z</time></trkpt><trkpt lat="43.3747011" lon="10.8018051"><ele>74.66666666666667</ele><time>2026-04-18T11:26:22.542Z</time></trkpt><trkpt lat="43.3745035" lon="10.8019508"><ele>74.33333333333334</ele><time>2026-04-18T11:26:23.544Z</time></trkpt><trkpt lat="43.3743109" lon="10.8020891"><ele>74.0</ele><time>2026-04-18T11:26:24.549Z</time></trkpt><trkpt lat="43.3741191" lon="10.8022384"><ele>74.0</ele><time>2026-04-18T11:26:25.541Z</time></trkpt><trkpt lat="43.3739256" lon="10.8023897"><ele>74.0</ele><time>2026-04-18T11:26:26.538Z</time></trkpt><trkpt lat="43.3737316" lon="10.8025443"><ele>74.0</ele><time>2026-04-18T11:26:27.538Z</time></trkpt><trkpt lat="43.3735395" lon="10.8026928"><ele>74.0</ele><time>2026-04-18T11:26:28.552Z</time></trkpt><trkpt lat="43.3733378" lon="10.8028354"><ele>74.0</ele><time>2026-04-18T11:26:29.551Z</time></trkpt><trkpt lat="43.3731354" lon="10.802981"><ele>75.0</ele><time>2026-04-18T11:26:30.558Z</time></trkpt><trkpt lat="43.3729359" lon="10.8031184"><ele>76.0</ele><time>2026-04-18T11:26:31.545Z</time></trkpt><trkpt lat="43.3727423" lon="10.8032677"><ele>77.0</ele><time>2026-04-18T11:26:32.542Z</time></trkpt><trkpt lat="43.372542" lon="10.803427"><ele>76.0</ele><time>2026-04-18T11:26:33.542Z</time></trkpt><trkpt lat="43.3723537" lon="10.8035829"><ele>75.0</ele><time>2026-04-18T11:26:34.547Z</time></trkpt><trkpt lat="43.3721641" lon="10.8037428"><ele>74.0</ele><time>2026-04-18T11:26:35.541Z</time></trkpt><trkpt lat="43.3719772" lon="10.8038887"><ele>73.66666666666667</ele><time>2026-04-18T11:26:36.535Z</time></trkpt><trkpt lat="43.3717888" lon="10.804028"><ele>73.33333333333333</ele><time>2026-04-18T11:26:37.54Z</time></trkpt><trkpt lat="43.3716" lon="10.8041644"><ele>73.0</ele><time>2026-04-18T11:26:38.538Z</time></trkpt><trkpt lat="43.3714229" lon="10.8043057"><ele>73.33333333333333</ele><time>2026-04-18T11:26:39.546Z</time></trkpt><trkpt lat="43.3712431" lon="10.8044458"><ele>73.66666666666667</ele><time>2026-04-18T11:26:40.549Z</time></trkpt><trkpt lat="43.371059" lon="10.8045699"><ele>74.0</ele><time>2026-04-18T11:26:41.539Z</time></trkpt><trkpt lat="43.3708666" lon="10.8047149"><ele>74.0</ele><time>2026-04-18T11:26:42.547Z</time></trkpt><trkpt lat="43.3706782" lon="10.8048581"><ele>74.0</ele><time>2026-04-18T11:26:43.542Z</time></trkpt><trkpt lat="43.3704829" lon="10.8050009"><ele>74.0</ele><time>2026-04-18T11:26:44.54Z</time></trkpt><trkpt lat="43.3702952" lon="10.8051472"><ele>73.0</ele><time>2026-04-18T11:26:45.54Z</time></trkpt><trkpt lat="43.3701134" lon="10.805301"><ele>72.0</ele><time>2026-04-18T11:26:46.552Z</time></trkpt><trkpt lat="43.3699389" lon="10.8054734"><ele>71.0</ele><time>2026-04-18T11:26:47.548Z</time></trkpt><trkpt lat="43.3697634" lon="10.8056705"><ele>71.0</ele><time>2026-04-18T11:26:48.534Z</time></trkpt><trkpt lat="43.3696117" lon="10.8059031"><ele>71.0</ele><time>2026-04-18T11:26:49.54Z</time></trkpt><trkpt lat="43.3694728" lon="10.8061144"><ele>71.0</ele><time>2026-04-18T11:26:50.541Z</time></trkpt><trkpt lat="43.3693245" lon="10.8063081"><ele>71.0</ele><time>2026-04-18T11:26:51.542Z</time></trkpt><trkpt lat="43.3691831" lon="10.8064991"><ele>71.0</ele><time>2026-04-18T11:26:52.541Z</time></trkpt><trkpt lat="43.3690509" lon="10.80669"><ele>71.0</ele><time>2026-04-18T11:26:53.533Z</time></trkpt><trkpt lat="43.3689019" lon="10.8068858"><ele>71.66666666666667</ele><time>2026-04-18T11:26:54.538Z</time></trkpt><trkpt lat="43.3687549" lon="10.8070779"><ele>72.33333333333333</ele><time>2026-04-18T11:26:55.538Z</time></trkpt><trkpt lat="43.3686038" lon="10.8072611"><ele>73.0</ele><time>2026-04-18T11:26:56.536Z</time></trkpt><trkpt lat="43.3684503" lon="10.8074509"><ele>73.0</ele><time>2026-04-18T11:26:57.541Z</time></trkpt><trkpt lat="43.3683064" lon="10.8076425"><ele>73.0</ele><time>2026-04-18T11:26:58.538Z</time></trkpt><trkpt lat="43.3681781" lon="10.8078179"><ele>73.0</ele><time>2026-04-18T11:26:59.541Z</time></trkpt><trkpt lat="43.3680462" lon="10.8079834"><ele>73.33333333333333</ele><time>2026-04-18T11:27:00.543Z</time></trkpt><trkpt lat="43.3679005" lon="10.8081422"><ele>73.66666666666667</ele><time>2026-04-18T11:27:01.533Z</time></trkpt><trkpt lat="43.3677363" lon="10.8083027"><ele>74.0</ele><time>2026-04-18T11:27:02.532Z</time></trkpt><trkpt lat="43.3675569" lon="10.808443"><ele>75.33333333333334</ele><time>2026-04-18T11:27:03.539Z</time></trkpt><trkpt lat="43.3673762" lon="10.808578"><ele>76.66666666666667</ele><time>2026-04-18T11:27:04.534Z</time></trkpt><trkpt lat="43.3671969" lon="10.8087108"><ele>78.0</ele><time>2026-04-18T11:27:05.548Z</time></trkpt><trkpt lat="43.3670346" lon="10.8088432"><ele>78.0</ele><time>2026-04-18T11:27:06.541Z</time></trkpt><trkpt lat="43.3668883" lon="10.8089537"><ele>78.0</ele><time>2026-04-18T11:27:07.542Z</time></trkpt><trkpt lat="43.3667535" lon="10.8090764"><ele>78.0</ele><time>2026-04-18T11:27:08.533Z</time></trkpt><trkpt lat="43.3666386" lon="10.8092423"><ele>80.66666666666667</ele><time>2026-04-18T11:27:09.524Z</time></trkpt><trkpt lat="43.3665387" lon="10.8094298"><ele>83.33333333333334</ele><time>2026-04-18T11:27:10.532Z</time></trkpt><trkpt lat="43.3664525" lon="10.8096286"><ele>86.0</ele><time>2026-04-18T11:27:11.526Z</time></trkpt><trkpt lat="43.3663777" lon="10.8098266"><ele>86.0</ele><time>2026-04-18T11:27:12.535Z</time></trkpt><trkpt lat="43.3663032" lon="10.8100452"><ele>86.0</ele><time>2026-04-18T11:27:13.526Z</time></trkpt><trkpt lat="43.3662152" lon="10.8102242"><ele>86.0</ele><time>2026-04-18T11:27:14.524Z</time></trkpt><trkpt lat="43.3661293" lon="10.8103915"><ele>86.0</ele><time>2026-04-18T11:27:15.518Z</time></trkpt><trkpt lat="43.3660615" lon="10.8105624"><ele>86.0</ele><time>2026-04-18T11:27:16.526Z</time></trkpt><trkpt lat="43.3659877" lon="10.8107251"><ele>86.0</ele><time>2026-04-18T11:27:17.521Z</time></trkpt><trkpt lat="43.3659326" lon="10.8108426"><ele>86.0</ele><time>2026-04-18T11:27:18.535Z</time></trkpt><trkpt lat="43.3658445" lon="10.8109474"><ele>86.25</ele><time>2026-04-18T11:27:19.524Z</time></trkpt><trkpt lat="43.3657488" lon="10.8110468"><ele>86.5</ele><time>2026-04-18T11:27:20.525Z</time></trkpt><trkpt lat="43.3656501" lon="10.8111556"><ele>86.75</ele><time>2026-04-18T11:27:21.527Z</time></trkpt><trkpt lat="43.3655477" lon="10.8112678"><ele>87.0</ele><time>2026-04-18T11:27:22.526Z</time></trkpt><trkpt lat="43.3654486" lon="10.8113765"><ele>85.75</ele><time>2026-04-18T11:27:23.545Z</time></trkpt><trkpt lat="43.3653506" lon="10.8114878"><ele>84.5</ele><time>2026-04-18T11:27:24.528Z</time></trkpt><trkpt lat="43.3652586" lon="10.8115963"><ele>83.25</ele><time>2026-04-18T11:27:25.533Z</time></trkpt><trkpt lat="43.365167" lon="10.8117092"><ele>82.0</ele><time>2026-04-18T11:27:26.537Z</time></trkpt><trkpt lat="43.3650648" lon="10.811831"><ele>81.5</ele><time>2026-04-18T11:27:27.531Z</time></trkpt><trkpt lat="43.3649549" lon="10.8119488"><ele>81.0</ele><time>2026-04-18T11:27:28.535Z</time></trkpt><trkpt lat="43.3648442" lon="10.8120699"><ele>80.5</ele><time>2026-04-18T11:27:29.54Z</time></trkpt><trkpt lat="43.364751" lon="10.8121882"><ele>80.0</ele><time>2026-04-18T11:27:30.54Z</time></trkpt><trkpt lat="43.3646415" lon="10.812293"><ele>79.8</ele><time>2026-04-18T11:27:31.532Z</time></trkpt><trkpt lat="43.364542" lon="10.8123931"><ele>79.6</ele><time>2026-04-18T11:27:32.541Z</time></trkpt><trkpt lat="43.3644499" lon="10.8124736"><ele>79.4</ele><time>2026-04-18T11:27:33.533Z</time></trkpt><trkpt lat="43.3643489" lon="10.812537"><ele>79.2</ele><time>2026-04-18T11:27:34.52Z</time></trkpt><trkpt lat="43.3642551" lon="10.8125697"><ele>79.0</ele><time>2026-04-18T11:27:35.524Z</time></trkpt><trkpt lat="43.3641539" lon="10.8125953"><ele>79.0</ele><time>2026-04-18T11:27:36.528Z</time></trkpt><trkpt lat="43.3640586" lon="10.8126047"><ele>79.0</ele><time>2026-04-18T11:27:37.536Z</time></trkpt><trkpt lat="43.3639782" lon="10.8126223"><ele>79.0</ele><time>2026-04-18T11:27:38.531Z</time></trkpt><trkpt lat="43.3639126" lon="10.81263"><ele>79.0</ele><time>2026-04-18T11:27:39.537Z</time></trkpt><trkpt lat="43.3637822" lon="10.8126299"><ele>79.0</ele><time>2026-04-18T11:27:41.531Z</time></trkpt><trkpt lat="43.3637094" lon="10.8126331"><ele>79.0</ele><time>2026-04-18T11:27:42.531Z</time></trkpt><trkpt lat="43.3636229" lon="10.812641"><ele>79.0</ele><time>2026-04-18T11:27:43.523Z</time></trkpt><trkpt lat="43.3635271" lon="10.8126451"><ele>79.0</ele><time>2026-04-18T11:27:44.521Z</time></trkpt><trkpt lat="43.3634199" lon="10.8126457"><ele>79.0</ele><time>2026-04-18T11:27:45.523Z</time></trkpt><trkpt lat="43.3633025" lon="10.8126496"><ele>79.0</ele><time>2026-04-18T11:27:46.535Z</time></trkpt><trkpt lat="43.36318" lon="10.8126567"><ele>79.0</ele><time>2026-04-18T11:27:47.531Z</time></trkpt><trkpt lat="43.3630545" lon="10.8126637"><ele>77.5</ele><time>2026-04-18T11:27:48.532Z</time></trkpt><trkpt lat="43.3629324" lon="10.8126625"><ele>76.0</ele><time>2026-04-18T11:27:49.529Z</time></trkpt><trkpt lat="43.3628119" lon="10.8126676"><ele>74.5</ele><time>2026-04-18T11:27:50.53Z</time></trkpt><trkpt lat="43.3626935" lon="10.812674"><ele>73.0</ele><time>2026-04-18T11:27:51.526Z</time></trkpt><trkpt lat="43.3625747" lon="10.812677"><ele>73.0</ele><time>2026-04-18T11:27:52.528Z</time></trkpt><trkpt lat="43.3624589" lon="10.8126779"><ele>73.0</ele><time>2026-04-18T11:27:53.525Z</time></trkpt><trkpt lat="43.3623541" lon="10.8126718"><ele>73.0</ele><time>2026-04-18T11:27:54.527Z</time></trkpt><trkpt lat="43.3622491" lon="10.8126552"><ele>73.0</ele><time>2026-04-18T11:27:55.516Z</time></trkpt><trkpt lat="43.3621446" lon="10.8126427"><ele>73.0</ele><time>2026-04-18T11:27:56.524Z</time></trkpt><trkpt lat="43.3620448" lon="10.8126324"><ele>73.6</ele><time>2026-04-18T11:27:57.532Z</time></trkpt><trkpt lat="43.3619428" lon="10.8126175"><ele>74.19999999999999</ele><time>2026-04-18T11:27:58.52Z</time></trkpt><trkpt lat="43.3618405" lon="10.8125922"><ele>74.8</ele><time>2026-04-18T11:27:59.534Z</time></trkpt><trkpt lat="43.3617472" lon="10.8125661"><ele>75.39999999999999</ele><time>2026-04-18T11:28:00.531Z</time></trkpt><trkpt lat="43.3616592" lon="10.8125233"><ele>76.0</ele><time>2026-04-18T11:28:01.527Z</time></trkpt><trkpt lat="43.3615655" lon="10.8124706"><ele>76.0</ele><time>2026-04-18T11:28:02.528Z</time></trkpt><trkpt lat="43.3614836" lon="10.8124117"><ele>76.0</ele><time>2026-04-18T11:28:03.532Z</time></trkpt><trkpt lat="43.3614128" lon="10.8123612"><ele>76.0</ele><time>2026-04-18T11:28:04.522Z</time></trkpt><trkpt lat="43.3613326" lon="10.8122921"><ele>76.0</ele><time>2026-04-18T11:28:06.518Z</time></trkpt><trkpt lat="43.3612761" lon="10.812247"><ele>76.0</ele><time>2026-04-18T11:28:08.519Z</time></trkpt><trkpt lat="43.361202" lon="10.8122401"><ele>76.0</ele><time>2026-04-18T11:28:10.523Z</time></trkpt><trkpt lat="43.3611277" lon="10.8122932"><ele>75.5</ele><time>2026-04-18T11:28:12.538Z</time></trkpt><trkpt lat="43.3610633" lon="10.8123273"><ele>75.0</ele><time>2026-04-18T11:28:14.538Z</time></trkpt><trkpt lat="43.3609757" lon="10.8123471"><ele>74.5</ele><time>2026-04-18T11:28:16.538Z</time></trkpt><trkpt lat="43.3608796" lon="10.8123425"><ele>74.0</ele><time>2026-04-18T11:28:18.54Z</time></trkpt><trkpt lat="43.3607895" lon="10.8123312"><ele>73.5</ele><time>2026-04-18T11:28:20.547Z</time></trkpt><trkpt lat="43.3607164" lon="10.8123151"><ele>73.0</ele><time>2026-04-18T11:28:22.536Z</time></trkpt><trkpt lat="43.3606445" lon="10.8122921"><ele>73.0</ele><time>2026-04-18T11:28:55.533Z</time></trkpt><trkpt lat="43.3605369" lon="10.8122579"><ele>73.0</ele><time>2026-04-18T11:28:57.538Z</time></trkpt><trkpt lat="43.3604704" lon="10.8122477"><ele>73.0</ele><time>2026-04-18T11:28:58.546Z</time></trkpt><trkpt lat="43.3603639" lon="10.8122591"><ele>73.0</ele><time>2026-04-18T11:29:00.534Z</time></trkpt><trkpt lat="43.3602937" lon="10.8123321"><ele>73.0</ele><time>2026-04-18T11:29:02.536Z</time></trkpt><trkpt lat="43.3602436" lon="10.8124251"><ele>72.83333333333333</ele><time>2026-04-18T11:29:04.527Z</time></trkpt><trkpt lat="43.3601639" lon="10.8124986"><ele>72.66666666666666</ele><time>2026-04-18T11:29:06.529Z</time></trkpt><trkpt lat="43.3601087" lon="10.8125455"><ele>72.5</ele><time>2026-04-18T11:29:07.536Z</time></trkpt><trkpt lat="43.3600511" lon="10.8126063"><ele>72.33333333333333</ele><time>2026-04-18T11:29:08.529Z</time></trkpt><trkpt lat="43.3599885" lon="10.8126943"><ele>72.16666666666667</ele><time>2026-04-18T11:29:10.54Z</time></trkpt><trkpt lat="43.3600351" lon="10.8127806"><ele>72.0</ele><time>2026-04-18T11:29:15.534Z</time></trkpt><trkpt lat="43.3599702" lon="10.8127544"><ele>72.4</ele><time>2026-04-18T12:17:23.52Z</time></trkpt><trkpt lat="43.3599061" lon="10.8127842"><ele>72.80000000000001</ele><time>2026-04-18T12:17:25.515Z</time></trkpt><trkpt lat="43.3598523" lon="10.8128306"><ele>73.2</ele><time>2026-04-18T12:17:26.512Z</time></trkpt><trkpt lat="43.359774" lon="10.812908"><ele>73.60000000000001</ele><time>2026-04-18T12:17:27.511Z</time></trkpt><trkpt lat="43.3596851" lon="10.8130035"><ele>74.0</ele><time>2026-04-18T12:17:28.509Z</time></trkpt><trkpt lat="43.3595874" lon="10.8131535"><ele>74.66666666666667</ele><time>2026-04-18T12:17:29.521Z</time></trkpt><trkpt lat="43.3594564" lon="10.8133385"><ele>75.33333333333333</ele><time>2026-04-18T12:17:30.518Z</time></trkpt><trkpt lat="43.3592925" lon="10.8135682"><ele>76.0</ele><time>2026-04-18T12:17:31.513Z</time></trkpt><trkpt lat="43.359159" lon="10.8137788"><ele>76.0</ele><time>2026-04-18T12:17:32.509Z</time></trkpt><trkpt lat="43.3590319" lon="10.8139464"><ele>76.0</ele><time>2026-04-18T12:17:33.506Z</time></trkpt><trkpt lat="43.3589218" lon="10.8141067"><ele>76.0</ele><time>2026-04-18T12:17:34.516Z</time></trkpt><trkpt lat="43.3588279" lon="10.814216"><ele>77.0</ele><time>2026-04-18T12:17:35.512Z</time></trkpt><trkpt lat="43.3587458" lon="10.8143151"><ele>78.0</ele><time>2026-04-18T12:17:36.511Z</time></trkpt><trkpt lat="43.3586121" lon="10.8143807"><ele>79.0</ele><time>2026-04-18T12:17:37.507Z</time></trkpt><trkpt lat="43.3584531" lon="10.8144072"><ele>80.0</ele><time>2026-04-18T12:17:38.514Z</time></trkpt><trkpt lat="43.3582816" lon="10.8144344"><ele>80.0</ele><time>2026-04-18T12:17:39.509Z</time></trkpt><trkpt lat="43.3581286" lon="10.8144611"><ele>80.0</ele><time>2026-04-18T12:17:40.506Z</time></trkpt><trkpt lat="43.3579806" lon="10.8145097"><ele>80.0</ele><time>2026-04-18T12:17:41.507Z</time></trkpt><trkpt lat="43.357842" lon="10.8145543"><ele>80.0</ele><time>2026-04-18T12:17:42.518Z</time></trkpt><trkpt lat="43.3576967" lon="10.8145929"><ele>81.4</ele><time>2026-04-18T12:17:43.52Z</time></trkpt><trkpt lat="43.3575806" lon="10.8146212"><ele>82.8</ele><time>2026-04-18T12:17:44.516Z</time></trkpt><trkpt lat="43.3574898" lon="10.8146488"><ele>84.19999999999999</ele><time>2026-04-18T12:17:45.51Z</time></trkpt><trkpt lat="43.3574226" lon="10.8146062"><ele>85.6</ele><time>2026-04-18T12:17:46.516Z</time></trkpt><trkpt lat="43.3573717" lon="10.8145462"><ele>87.0</ele><time>2026-04-18T12:17:47.513Z</time></trkpt><trkpt lat="43.3573932" lon="10.8143773"><ele>88.75</ele><time>2026-04-18T12:17:49.519Z</time></trkpt><trkpt lat="43.3574698" lon="10.8142614"><ele>90.5</ele><time>2026-04-18T12:17:50.514Z</time></trkpt><trkpt lat="43.3575951" lon="10.8141318"><ele>92.25</ele><time>2026-04-18T12:17:51.515Z</time></trkpt><trkpt lat="43.3576977" lon="10.8140094"><ele>94.0</ele><time>2026-04-18T12:17:52.523Z</time></trkpt><trkpt lat="43.3578012" lon="10.813868"><ele>94.0</ele><time>2026-04-18T12:17:53.522Z</time></trkpt><trkpt lat="43.3578927" lon="10.8137327"><ele>94.0</ele><time>2026-04-18T12:17:54.521Z</time></trkpt><trkpt lat="43.3579839" lon="10.8136086"><ele>94.0</ele><time>2026-04-18T12:17:55.519Z</time></trkpt><trkpt lat="43.3580652" lon="10.8135027"><ele>94.0</ele><time>2026-04-18T12:17:56.514Z</time></trkpt><trkpt lat="43.3581366" lon="10.8134076"><ele>93.83333333333333</ele><time>2026-04-18T12:17:57.518Z</time></trkpt><trkpt lat="43.3581958" lon="10.8133187"><ele>93.66666666666666</ele><time>2026-04-18T12:17:58.526Z</time></trkpt><trkpt lat="43.3582499" lon="10.8132372"><ele>93.5</ele><time>2026-04-18T12:17:59.518Z</time></trkpt><trkpt lat="43.3582893" lon="10.8131531"><ele>93.33333333333333</ele><time>2026-04-18T12:18:00.528Z</time></trkpt><trkpt lat="43.3583314" lon="10.813063"><ele>93.16666666666667</ele><time>2026-04-18T12:18:01.521Z</time></trkpt><trkpt lat="43.3583517" lon="10.8129551"><ele>93.0</ele><time>2026-04-18T12:18:02.51Z</time></trkpt><trkpt lat="43.3583422" lon="10.812847"><ele>93.0</ele><time>2026-04-18T12:18:03.528Z</time></trkpt><trkpt lat="43.3582915" lon="10.8127269"><ele>93.0</ele><time>2026-04-18T12:18:04.528Z</time></trkpt><trkpt lat="43.3581945" lon="10.8126326"><ele>93.0</ele><time>2026-04-18T12:18:05.521Z</time></trkpt><trkpt lat="43.3580724" lon="10.8125817"><ele>93.0</ele><time>2026-04-18T12:18:06.526Z</time></trkpt><trkpt lat="43.3579501" lon="10.8125784"><ele>96.0</ele><time>2026-04-18T12:18:07.517Z</time></trkpt><trkpt lat="43.3578385" lon="10.8125778"><ele>99.0</ele><time>2026-04-18T12:18:08.524Z</time></trkpt><trkpt lat="43.357732" lon="10.8125832"><ele>102.00000000000001</ele><time>2026-04-18T12:18:09.524Z</time></trkpt><trkpt lat="43.3576343" lon="10.8125801"><ele>105.0</ele><time>2026-04-18T12:18:10.519Z</time></trkpt><trkpt lat="43.3575506" lon="10.8125821"><ele>108.0</ele><time>2026-04-18T12:18:11.522Z</time></trkpt><trkpt lat="43.3574627" lon="10.8126019"><ele>107.0</ele><time>2026-04-18T12:18:12.517Z</time></trkpt><trkpt lat="43.3573708" lon="10.8126631"><ele>106.0</ele><time>2026-04-18T12:18:13.521Z</time></trkpt><trkpt lat="43.3572878" lon="10.8127766"><ele>105.0</ele><time>2026-04-18T12:18:14.513Z</time></trkpt><trkpt lat="43.3572017" lon="10.8129257"><ele>104.0</ele><time>2026-04-18T12:18:15.52Z</time></trkpt><trkpt lat="43.3571029" lon="10.81312"><ele>106.33333333333333</ele><time>2026-04-18T12:18:16.514Z</time></trkpt><trkpt lat="43.3569806" lon="10.8133277"><ele>108.66666666666666</ele><time>2026-04-18T12:18:17.517Z</time></trkpt><trkpt lat="43.3568438" lon="10.8135284"><ele>111.0</ele><time>2026-04-18T12:18:18.507Z</time></trkpt><trkpt lat="43.356728" lon="10.813681"><ele>111.0</ele><time>2026-04-18T12:18:19.506Z</time></trkpt><trkpt lat="43.3566423" lon="10.8138227"><ele>111.0</ele><time>2026-04-18T12:18:20.51Z</time></trkpt><trkpt lat="43.356556" lon="10.8139752"><ele>111.0</ele><time>2026-04-18T12:18:21.502Z</time></trkpt><trkpt lat="43.3564305" lon="10.8140869"><ele>111.0</ele><time>2026-04-18T12:18:22.522Z</time></trkpt><trkpt lat="43.3562824" lon="10.814162"><ele>113.66666666666666</ele><time>2026-04-18T12:18:23.514Z</time></trkpt><trkpt lat="43.3561314" lon="10.8142351"><ele>116.33333333333333</ele><time>2026-04-18T12:18:24.517Z</time></trkpt><trkpt lat="43.3559787" lon="10.814306"><ele>119.0</ele><time>2026-04-18T12:18:25.518Z</time></trkpt><trkpt lat="43.3558462" lon="10.8143826"><ele>119.0</ele><time>2026-04-18T12:18:26.519Z</time></trkpt><trkpt lat="43.3557307" lon="10.8144644"><ele>119.0</ele><time>2026-04-18T12:18:27.517Z</time></trkpt><trkpt lat="43.3556395" lon="10.8146181"><ele>119.0</ele><time>2026-04-18T12:18:28.51Z</time></trkpt><trkpt lat="43.3555507" lon="10.8148138"><ele>119.0</ele><time>2026-04-18T12:18:29.518Z</time></trkpt><trkpt lat="43.3555014" lon="10.8150481"><ele>123.0</ele><time>2026-04-18T12:18:30.509Z</time></trkpt><trkpt lat="43.3554368" lon="10.8152767"><ele>127.0</ele><time>2026-04-18T12:18:31.514Z</time></trkpt><trkpt lat="43.3553898" lon="10.8155061"><ele>131.0</ele><time>2026-04-18T12:18:32.521Z</time></trkpt><trkpt lat="43.3553563" lon="10.8157255"><ele>131.0</ele><time>2026-04-18T12:18:33.52Z</time></trkpt><trkpt lat="43.3553041" lon="10.8159512"><ele>131.0</ele><time>2026-04-18T12:18:34.52Z</time></trkpt><trkpt lat="43.3552513" lon="10.8161728"><ele>131.0</ele><time>2026-04-18T12:18:35.533Z</time></trkpt><trkpt lat="43.3551824" lon="10.8163809"><ele>129.66666666666666</ele><time>2026-04-18T12:18:36.53Z</time></trkpt><trkpt lat="43.3551193" lon="10.8165896"><ele>128.33333333333334</ele><time>2026-04-18T12:18:37.527Z</time></trkpt><trkpt lat="43.355065" lon="10.8168116"><ele>127.0</ele><time>2026-04-18T12:18:38.523Z</time></trkpt><trkpt lat="43.3550102" lon="10.8170155"><ele>126.5</ele><time>2026-04-18T12:18:39.528Z</time></trkpt><trkpt lat="43.3549562" lon="10.8172091"><ele>126.0</ele><time>2026-04-18T12:18:40.521Z</time></trkpt><trkpt lat="43.354898" lon="10.8173635"><ele>125.5</ele><time>2026-04-18T12:18:41.522Z</time></trkpt><trkpt lat="43.3548088" lon="10.8175331"><ele>125.0</ele><time>2026-04-18T12:18:42.521Z</time></trkpt><trkpt lat="43.3546983" lon="10.8176757"><ele>125.0</ele><time>2026-04-18T12:18:43.515Z</time></trkpt><trkpt lat="43.3545647" lon="10.8177881"><ele>125.0</ele><time>2026-04-18T12:18:44.517Z</time></trkpt><trkpt lat="43.354421" lon="10.8178899"><ele>125.0</ele><time>2026-04-18T12:18:45.51Z</time></trkpt><trkpt lat="43.3542706" lon="10.8179682"><ele>125.0</ele><time>2026-04-18T12:18:46.525Z</time></trkpt><trkpt lat="43.3541206" lon="10.818006"><ele>125.0</ele><time>2026-04-18T12:18:47.522Z</time></trkpt><trkpt lat="43.3539849" lon="10.8180401"><ele>125.0</ele><time>2026-04-18T12:18:48.512Z</time></trkpt><trkpt lat="43.3538543" lon="10.818161"><ele>125.0</ele><time>2026-04-18T12:18:49.521Z</time></trkpt><trkpt lat="43.3537352" lon="10.8183456"><ele>126.33333333333333</ele><time>2026-04-18T12:18:50.521Z</time></trkpt><trkpt lat="43.3536296" lon="10.8185839"><ele>127.66666666666666</ele><time>2026-04-18T12:18:51.529Z</time></trkpt><trkpt lat="43.3535574" lon="10.8188418"><ele>129.0</ele><time>2026-04-18T12:18:52.53Z</time></trkpt><trkpt lat="43.3534891" lon="10.8190698"><ele>129.0</ele><time>2026-04-18T12:18:53.513Z</time></trkpt><trkpt lat="43.3534255" lon="10.8192986"><ele>129.0</ele><time>2026-04-18T12:18:54.519Z</time></trkpt><trkpt lat="43.3533774" lon="10.8195274"><ele>129.0</ele><time>2026-04-18T12:18:55.521Z</time></trkpt><trkpt lat="43.3533523" lon="10.8197696"><ele>129.25</ele><time>2026-04-18T12:18:56.515Z</time></trkpt><trkpt lat="43.3533595" lon="10.8199782"><ele>129.5</ele><time>2026-04-18T12:18:57.529Z</time></trkpt><trkpt lat="43.3533842" lon="10.8201747"><ele>129.75</ele><time>2026-04-18T12:18:58.518Z</time></trkpt><trkpt lat="43.3534231" lon="10.820369"><ele>130.0</ele><time>2026-04-18T12:18:59.527Z</time></trkpt><trkpt lat="43.3534734" lon="10.8205609"><ele>129.75</ele><time>2026-04-18T12:19:00.535Z</time></trkpt><trkpt lat="43.3535119" lon="10.8207522"><ele>129.5</ele><time>2026-04-18T12:19:01.534Z</time></trkpt><trkpt lat="43.353548" lon="10.8209425"><ele>129.25</ele><time>2026-04-18T12:19:02.539Z</time></trkpt><trkpt lat="43.3535739" lon="10.8211436"><ele>129.0</ele><time>2026-04-18T12:19:03.526Z</time></trkpt><trkpt lat="43.3535823" lon="10.8213572"><ele>129.0</ele><time>2026-04-18T12:19:04.529Z</time></trkpt><trkpt lat="43.3535622" lon="10.8215742"><ele>129.0</ele><time>2026-04-18T12:19:05.521Z</time></trkpt><trkpt lat="43.353519" lon="10.8217704"><ele>129.0</ele><time>2026-04-18T12:19:06.521Z</time></trkpt><trkpt lat="43.3534492" lon="10.8219575"><ele>129.5</ele><time>2026-04-18T12:19:07.521Z</time></trkpt><trkpt lat="43.3533846" lon="10.8221223"><ele>130.0</ele><time>2026-04-18T12:19:08.522Z</time></trkpt><trkpt lat="43.3533202" lon="10.8222859"><ele>130.5</ele><time>2026-04-18T12:19:09.528Z</time></trkpt><trkpt lat="43.3532458" lon="10.822468"><ele>131.0</ele><time>2026-04-18T12:19:10.527Z</time></trkpt><trkpt lat="43.3531831" lon="10.8226424"><ele>131.5</ele><time>2026-04-18T12:19:11.526Z</time></trkpt><trkpt lat="43.3531338" lon="10.8228224"><ele>132.0</ele><time>2026-04-18T12:19:12.52Z</time></trkpt><trkpt lat="43.3531102" lon="10.8230113"><ele>132.5</ele><time>2026-04-18T12:19:13.512Z</time></trkpt><trkpt lat="43.353114" lon="10.8232099"><ele>133.0</ele><time>2026-04-18T12:19:14.519Z</time></trkpt><trkpt lat="43.3531225" lon="10.8233849"><ele>133.75</ele><time>2026-04-18T12:19:15.525Z</time></trkpt><trkpt lat="43.3531378" lon="10.8235707"><ele>134.5</ele><time>2026-04-18T12:19:16.53Z</time></trkpt><trkpt lat="43.3531631" lon="10.8237701"><ele>135.25</ele><time>2026-04-18T12:19:17.53Z</time></trkpt><trkpt lat="43.3531658" lon="10.8239663"><ele>136.0</ele><time>2026-04-18T12:19:18.522Z</time></trkpt><trkpt lat="43.3531445" lon="10.8241553"><ele>136.75</ele><time>2026-04-18T12:19:19.522Z</time></trkpt><trkpt lat="43.3531112" lon="10.8243422"><ele>137.5</ele><time>2026-04-18T12:19:20.512Z</time></trkpt><trkpt lat="43.3530562" lon="10.824526"><ele>138.25</ele><time>2026-04-18T12:19:21.514Z</time></trkpt><trkpt lat="43.352968" lon="10.8246678"><ele>139.0</ele><time>2026-04-18T12:19:22.511Z</time></trkpt><trkpt lat="43.3528422" lon="10.8247939"><ele>137.0</ele><time>2026-04-18T12:19:23.519Z</time></trkpt><trkpt lat="43.3527065" lon="10.8248903"><ele>135.0</ele><time>2026-04-18T12:19:24.521Z</time></trkpt><trkpt lat="43.3525381" lon="10.8249557"><ele>133.0</ele><time>2026-04-18T12:19:25.513Z</time></trkpt><trkpt lat="43.3523802" lon="10.8249937"><ele>133.0</ele><time>2026-04-18T12:19:26.52Z</time></trkpt><trkpt lat="43.352239" lon="10.8250122"><ele>133.0</ele><time>2026-04-18T12:19:27.524Z</time></trkpt><trkpt lat="43.3521154" lon="10.8250528"><ele>133.0</ele><time>2026-04-18T12:19:28.521Z</time></trkpt><trkpt lat="43.3520084" lon="10.8251395"><ele>133.0</ele><time>2026-04-18T12:19:29.518Z</time></trkpt><trkpt lat="43.3519064" lon="10.8252875"><ele>130.33333333333334</ele><time>2026-04-18T12:19:30.516Z</time></trkpt><trkpt lat="43.3518144" lon="10.8254564"><ele>127.66666666666666</ele><time>2026-04-18T12:19:31.512Z</time></trkpt><trkpt lat="43.3517453" lon="10.8256555"><ele>125.0</ele><time>2026-04-18T12:19:32.516Z</time></trkpt><trkpt lat="43.3516888" lon="10.8258731"><ele>126.66666666666666</ele><time>2026-04-18T12:19:33.515Z</time></trkpt><trkpt lat="43.3516537" lon="10.8260851"><ele>128.33333333333334</ele><time>2026-04-18T12:19:34.519Z</time></trkpt><trkpt lat="43.3515987" lon="10.8262807"><ele>130.0</ele><time>2026-04-18T12:19:35.51Z</time></trkpt><trkpt lat="43.3515201" lon="10.8264535"><ele>130.0</ele><time>2026-04-18T12:19:36.51Z</time></trkpt><trkpt lat="43.3514191" lon="10.8266"><ele>130.0</ele><time>2026-04-18T12:19:37.515Z</time></trkpt><trkpt lat="43.3513039" lon="10.8267219"><ele>130.0</ele><time>2026-04-18T12:19:38.513Z</time></trkpt><trkpt lat="43.3511837" lon="10.826821"><ele>130.0</ele><time>2026-04-18T12:19:39.521Z</time></trkpt><trkpt lat="43.3510754" lon="10.8269243"><ele>127.25</ele><time>2026-04-18T12:19:40.522Z</time></trkpt><trkpt lat="43.3509834" lon="10.8270571"><ele>124.5</ele><time>2026-04-18T12:19:41.517Z</time></trkpt><trkpt lat="43.3508973" lon="10.8272004"><ele>121.75</ele><time>2026-04-18T12:19:42.516Z</time></trkpt><trkpt lat="43.350827" lon="10.827344"><ele>119.0</ele><time>2026-04-18T12:19:43.519Z</time></trkpt><trkpt lat="43.3507685" lon="10.8274915"><ele>119.0</ele><time>2026-04-18T12:19:44.518Z</time></trkpt><trkpt lat="43.35071" lon="10.827639"><ele>119.0</ele><time>2026-04-18T12:19:45.514Z</time></trkpt><trkpt lat="43.3506575" lon="10.8277943"><ele>119.0</ele><time>2026-04-18T12:19:46.524Z</time></trkpt><trkpt lat="43.3505946" lon="10.8279597"><ele>119.0</ele><time>2026-04-18T12:19:47.516Z</time></trkpt><trkpt lat="43.3505132" lon="10.8281232"><ele>115.33333333333333</ele><time>2026-04-18T12:19:48.514Z</time></trkpt><trkpt lat="43.3503914" lon="10.8282754"><ele>111.66666666666666</ele><time>2026-04-18T12:19:49.512Z</time></trkpt><trkpt lat="43.3502642" lon="10.8284219"><ele>108.0</ele><time>2026-04-18T12:19:50.511Z</time></trkpt><trkpt lat="43.3501249" lon="10.8285748"><ele>108.0</ele><time>2026-04-18T12:19:51.519Z</time></trkpt><trkpt lat="43.3499842" lon="10.8287348"><ele>108.0</ele><time>2026-04-18T12:19:52.516Z</time></trkpt><trkpt lat="43.3498395" lon="10.8288921"><ele>108.0</ele><time>2026-04-18T12:19:53.521Z</time></trkpt><trkpt lat="43.3496912" lon="10.8290584"><ele>104.66666666666666</ele><time>2026-04-18T12:19:54.522Z</time></trkpt><trkpt lat="43.3495399" lon="10.8292335"><ele>101.33333333333333</ele><time>2026-04-18T12:19:55.528Z</time></trkpt><trkpt lat="43.3494002" lon="10.8294"><ele>98.0</ele><time>2026-04-18T12:19:56.522Z</time></trkpt><trkpt lat="43.3492712" lon="10.8296087"><ele>98.0</ele><time>2026-04-18T12:19:57.541Z</time></trkpt><trkpt lat="43.349168" lon="10.8298231"><ele>98.0</ele><time>2026-04-18T12:19:58.526Z</time></trkpt><trkpt lat="43.3490701" lon="10.8300261"><ele>98.0</ele><time>2026-04-18T12:19:59.524Z</time></trkpt><trkpt lat="43.3489621" lon="10.8302301"><ele>93.66666666666666</ele><time>2026-04-18T12:20:00.532Z</time></trkpt><trkpt lat="43.3488291" lon="10.8304174"><ele>89.33333333333333</ele><time>2026-04-18T12:20:01.52Z</time></trkpt><trkpt lat="43.3486994" lon="10.8305935"><ele>85.0</ele><time>2026-04-18T12:20:02.525Z</time></trkpt><trkpt lat="43.3485818" lon="10.8307653"><ele>85.0</ele><time>2026-04-18T12:20:03.524Z</time></trkpt><trkpt lat="43.3484607" lon="10.8309312"><ele>85.0</ele><time>2026-04-18T12:20:04.523Z</time></trkpt><trkpt lat="43.3483408" lon="10.8311137"><ele>85.0</ele><time>2026-04-18T12:20:05.52Z</time></trkpt><trkpt lat="43.3482239" lon="10.8312983"><ele>83.33333333333333</ele><time>2026-04-18T12:20:06.528Z</time></trkpt><trkpt lat="43.3481098" lon="10.8314761"><ele>81.66666666666667</ele><time>2026-04-18T12:20:07.526Z</time></trkpt><trkpt lat="43.3479936" lon="10.8316481"><ele>80.0</ele><time>2026-04-18T12:20:08.542Z</time></trkpt><trkpt lat="43.3478897" lon="10.8318316"><ele>80.0</ele><time>2026-04-18T12:20:09.537Z</time></trkpt><trkpt lat="43.3477765" lon="10.832003"><ele>80.0</ele><time>2026-04-18T12:20:10.532Z</time></trkpt><trkpt lat="43.3476563" lon="10.8321752"><ele>80.0</ele><time>2026-04-18T12:20:11.529Z</time></trkpt><trkpt lat="43.3475602" lon="10.8323704"><ele>80.0</ele><time>2026-04-18T12:20:12.53Z</time></trkpt><trkpt lat="43.3474714" lon="10.8325954"><ele>80.0</ele><time>2026-04-18T12:20:13.519Z</time></trkpt><trkpt lat="43.347396" lon="10.8328345"><ele>80.0</ele><time>2026-04-18T12:20:14.522Z</time></trkpt><trkpt lat="43.3473501" lon="10.8330834"><ele>80.0</ele><time>2026-04-18T12:20:15.521Z</time></trkpt><trkpt lat="43.3472978" lon="10.8333264"><ele>80.0</ele><time>2026-04-18T12:20:16.526Z</time></trkpt><trkpt lat="43.347234" lon="10.8335689"><ele>80.0</ele><time>2026-04-18T12:20:17.53Z</time></trkpt><trkpt lat="43.3471716" lon="10.8338209"><ele>78.66666666666667</ele><time>2026-04-18T12:20:18.525Z</time></trkpt><trkpt lat="43.3471119" lon="10.8340649"><ele>77.33333333333333</ele><time>2026-04-18T12:20:19.532Z</time></trkpt><trkpt lat="43.3470426" lon="10.8342975"><ele>76.0</ele><time>2026-04-18T12:20:20.524Z</time></trkpt><trkpt lat="43.3469782" lon="10.834529"><ele>76.0</ele><time>2026-04-18T12:20:21.526Z</time></trkpt><trkpt lat="43.3469155" lon="10.8347714"><ele>76.0</ele><time>2026-04-18T12:20:22.529Z</time></trkpt><trkpt lat="43.3468447" lon="10.8350052"><ele>76.0</ele><time>2026-04-18T12:20:23.525Z</time></trkpt><trkpt lat="43.3467632" lon="10.8352433"><ele>78.0</ele><time>2026-04-18T12:20:24.532Z</time></trkpt><trkpt lat="43.3466861" lon="10.8354851"><ele>80.0</ele><time>2026-04-18T12:20:25.524Z</time></trkpt><trkpt lat="43.3466057" lon="10.8357189"><ele>82.0</ele><time>2026-04-18T12:20:26.526Z</time></trkpt><trkpt lat="43.346531" lon="10.8359681"><ele>83.66666666666666</ele><time>2026-04-18T12:20:27.515Z</time></trkpt><trkpt lat="43.3464658" lon="10.8362124"><ele>85.33333333333333</ele><time>2026-04-18T12:20:28.527Z</time></trkpt><trkpt lat="43.3464111" lon="10.8364589"><ele>87.0</ele><time>2026-04-18T12:20:29.522Z</time></trkpt><trkpt lat="43.3463495" lon="10.8367029"><ele>83.66666666666667</ele><time>2026-04-18T12:20:30.525Z</time></trkpt><trkpt lat="43.3462931" lon="10.8369484"><ele>80.33333333333334</ele><time>2026-04-18T12:20:31.521Z</time></trkpt><trkpt lat="43.3462415" lon="10.8371695"><ele>77.0</ele><time>2026-04-18T12:20:32.526Z</time></trkpt><trkpt lat="43.3462023" lon="10.837362"><ele>77.0</ele><time>2026-04-18T12:20:33.52Z</time></trkpt><trkpt lat="43.346152" lon="10.8375518"><ele>77.0</ele><time>2026-04-18T12:20:34.517Z</time></trkpt><trkpt lat="43.3460957" lon="10.8377267"><ele>77.0</ele><time>2026-04-18T12:20:35.518Z</time></trkpt><trkpt lat="43.3460117" lon="10.8378987"><ele>77.0</ele><time>2026-04-18T12:20:36.523Z</time></trkpt><trkpt lat="43.3459111" lon="10.8380597"><ele>78.33333333333334</ele><time>2026-04-18T12:20:37.517Z</time></trkpt><trkpt lat="43.345793" lon="10.8382288"><ele>79.66666666666667</ele><time>2026-04-18T12:20:38.529Z</time></trkpt><trkpt lat="43.345659" lon="10.8383754"><ele>81.0</ele><time>2026-04-18T12:20:39.516Z</time></trkpt><trkpt lat="43.3455192" lon="10.8385127"><ele>81.66666666666667</ele><time>2026-04-18T12:20:40.514Z</time></trkpt><trkpt lat="43.3453928" lon="10.8386557"><ele>82.33333333333334</ele><time>2026-04-18T12:20:41.518Z</time></trkpt><trkpt lat="43.3452562" lon="10.8387714"><ele>83.0</ele><time>2026-04-18T12:20:42.513Z</time></trkpt><trkpt lat="43.3451237" lon="10.8388703"><ele>83.0</ele><time>2026-04-18T12:20:43.53Z</time></trkpt><trkpt lat="43.3449899" lon="10.8389431"><ele>83.0</ele><time>2026-04-18T12:20:44.528Z</time></trkpt><trkpt lat="43.3448434" lon="10.8390142"><ele>83.0</ele><time>2026-04-18T12:20:45.539Z</time></trkpt><trkpt lat="43.344707" lon="10.8391012"><ele>82.33333333333334</ele><time>2026-04-18T12:20:46.528Z</time></trkpt><trkpt lat="43.3445735" lon="10.839224"><ele>81.66666666666667</ele><time>2026-04-18T12:20:47.537Z</time></trkpt><trkpt lat="43.3444531" lon="10.8394063"><ele>81.0</ele><time>2026-04-18T12:20:48.527Z</time></trkpt><trkpt lat="43.3443468" lon="10.8396069"><ele>81.0</ele><time>2026-04-18T12:20:49.531Z</time></trkpt><trkpt lat="43.3442526" lon="10.8398167"><ele>81.0</ele><time>2026-04-18T12:20:50.533Z</time></trkpt><trkpt lat="43.3441487" lon="10.8400297"><ele>81.0</ele><time>2026-04-18T12:20:51.526Z</time></trkpt><trkpt lat="43.3440446" lon="10.8402514"><ele>82.33333333333333</ele><time>2026-04-18T12:20:52.534Z</time></trkpt><trkpt lat="43.3439472" lon="10.8404763"><ele>83.66666666666666</ele><time>2026-04-18T12:20:53.53Z</time></trkpt><trkpt lat="43.3438538" lon="10.8406968"><ele>85.0</ele><time>2026-04-18T12:20:54.524Z</time></trkpt><trkpt lat="43.3437401" lon="10.8409102"><ele>84.0</ele><time>2026-04-18T12:20:55.531Z</time></trkpt><trkpt lat="43.343634" lon="10.8411349"><ele>83.0</ele><time>2026-04-18T12:20:56.523Z</time></trkpt><trkpt lat="43.343523" lon="10.8413635"><ele>82.0</ele><time>2026-04-18T12:20:57.53Z</time></trkpt><trkpt lat="43.3434144" lon="10.8415878"><ele>83.66666666666666</ele><time>2026-04-18T12:20:58.533Z</time></trkpt><trkpt lat="43.3433119" lon="10.8418154"><ele>85.33333333333333</ele><time>2026-04-18T12:20:59.53Z</time></trkpt><trkpt lat="43.3431985" lon="10.8420486"><ele>87.0</ele><time>2026-04-18T12:21:00.541Z</time></trkpt><trkpt lat="43.3430902" lon="10.8422738"><ele>85.66666666666667</ele><time>2026-04-18T12:21:01.531Z</time></trkpt><trkpt lat="43.342976" lon="10.8425119"><ele>84.33333333333334</ele><time>2026-04-18T12:21:02.53Z</time></trkpt><trkpt lat="43.3428698" lon="10.8427422"><ele>83.0</ele><time>2026-04-18T12:21:03.529Z</time></trkpt><trkpt lat="43.342759" lon="10.8429694"><ele>83.0</ele><time>2026-04-18T12:21:04.533Z</time></trkpt><trkpt lat="43.3426446" lon="10.8431972"><ele>83.0</ele><time>2026-04-18T12:21:05.532Z</time></trkpt><trkpt lat="43.3425471" lon="10.8433981"><ele>83.0</ele><time>2026-04-18T12:21:06.522Z</time></trkpt><trkpt lat="43.3424354" lon="10.8435855"><ele>82.66666666666667</ele><time>2026-04-18T12:21:07.522Z</time></trkpt><trkpt lat="43.3423206" lon="10.8437525"><ele>82.33333333333333</ele><time>2026-04-18T12:21:08.52Z</time></trkpt><trkpt lat="43.3421813" lon="10.8438908"><ele>82.0</ele><time>2026-04-18T12:21:09.52Z</time></trkpt><trkpt lat="43.3420354" lon="10.844017"><ele>82.0</ele><time>2026-04-18T12:21:10.519Z</time></trkpt><trkpt lat="43.3418724" lon="10.8441289"><ele>82.0</ele><time>2026-04-18T12:21:11.522Z</time></trkpt><trkpt lat="43.3417186" lon="10.8442428"><ele>82.0</ele><time>2026-04-18T12:21:12.526Z</time></trkpt><trkpt lat="43.3415505" lon="10.8443623"><ele>82.66666666666666</ele><time>2026-04-18T12:21:13.525Z</time></trkpt><trkpt lat="43.341393" lon="10.8444902"><ele>83.33333333333333</ele><time>2026-04-18T12:21:14.523Z</time></trkpt><trkpt lat="43.3412391" lon="10.8446065"><ele>84.0</ele><time>2026-04-18T12:21:15.52Z</time></trkpt><trkpt lat="43.3410784" lon="10.8447265"><ele>84.0</ele><time>2026-04-18T12:21:16.527Z</time></trkpt><trkpt lat="43.3409028" lon="10.8448541"><ele>84.0</ele><time>2026-04-18T12:21:17.522Z</time></trkpt><trkpt lat="43.3407327" lon="10.8449948"><ele>84.0</ele><time>2026-04-18T12:21:18.532Z</time></trkpt><trkpt lat="43.3405709" lon="10.8451242"><ele>84.66666666666667</ele><time>2026-04-18T12:21:19.52Z</time></trkpt><trkpt lat="43.3403973" lon="10.8452522"><ele>85.33333333333334</ele><time>2026-04-18T12:21:20.523Z</time></trkpt><trkpt lat="43.3402336" lon="10.8453646"><ele>86.0</ele><time>2026-04-18T12:21:21.532Z</time></trkpt><trkpt lat="43.3400933" lon="10.845487"><ele>86.0</ele><time>2026-04-18T12:21:22.526Z</time></trkpt><trkpt lat="43.3399522" lon="10.8456396"><ele>86.0</ele><time>2026-04-18T12:21:23.519Z</time></trkpt><trkpt lat="43.3398302" lon="10.845813"><ele>86.0</ele><time>2026-04-18T12:21:24.53Z</time></trkpt><trkpt lat="43.3397125" lon="10.8460098"><ele>85.66666666666667</ele><time>2026-04-18T12:21:25.524Z</time></trkpt><trkpt lat="43.339598" lon="10.8462016"><ele>85.33333333333333</ele><time>2026-04-18T12:21:26.535Z</time></trkpt><trkpt lat="43.3394796" lon="10.8464057"><ele>85.0</ele><time>2026-04-18T12:21:27.53Z</time></trkpt><trkpt lat="43.3393715" lon="10.8466034"><ele>86.33333333333333</ele><time>2026-04-18T12:21:28.528Z</time></trkpt><trkpt lat="43.3392556" lon="10.8468064"><ele>87.66666666666667</ele><time>2026-04-18T12:21:29.527Z</time></trkpt><trkpt lat="43.3391433" lon="10.8470112"><ele>89.0</ele><time>2026-04-18T12:21:30.534Z</time></trkpt><trkpt lat="43.3390263" lon="10.8472338"><ele>89.0</ele><time>2026-04-18T12:21:31.518Z</time></trkpt><trkpt lat="43.3389066" lon="10.84748"><ele>89.0</ele><time>2026-04-18T12:21:32.522Z</time></trkpt><trkpt lat="43.3387881" lon="10.8477403"><ele>89.0</ele><time>2026-04-18T12:21:33.521Z</time></trkpt><trkpt lat="43.3386766" lon="10.8480094"><ele>87.0</ele><time>2026-04-18T12:21:34.525Z</time></trkpt><trkpt lat="43.3385569" lon="10.8482795"><ele>85.0</ele><time>2026-04-18T12:21:35.525Z</time></trkpt><trkpt lat="43.338447" lon="10.8485452"><ele>85.0</ele><time>2026-04-18T12:21:36.527Z</time></trkpt><trkpt lat="43.3383287" lon="10.8488197"><ele>85.0</ele><time>2026-04-18T12:21:37.52Z</time></trkpt><trkpt lat="43.3382228" lon="10.8490916"><ele>84.66666666666666</ele><time>2026-04-18T12:21:38.529Z</time></trkpt><trkpt lat="43.3381154" lon="10.8493301"><ele>84.33333333333333</ele><time>2026-04-18T12:21:39.516Z</time></trkpt><trkpt lat="43.3380067" lon="10.8495678"><ele>84.0</ele><time>2026-04-18T12:21:40.526Z</time></trkpt><trkpt lat="43.3378978" lon="10.8497927"><ele>84.0</ele><time>2026-04-18T12:21:41.53Z</time></trkpt><trkpt lat="43.3377952" lon="10.8500394"><ele>84.0</ele><time>2026-04-18T12:21:42.523Z</time></trkpt><trkpt lat="43.3376914" lon="10.8502899"><ele>84.0</ele><time>2026-04-18T12:21:43.529Z</time></trkpt><trkpt lat="43.3375895" lon="10.8505342"><ele>84.0</ele><time>2026-04-18T12:21:44.531Z</time></trkpt><trkpt lat="43.3374838" lon="10.8507742"><ele>84.0</ele><time>2026-04-18T12:21:45.531Z</time></trkpt><trkpt lat="43.3373885" lon="10.8510043"><ele>84.0</ele><time>2026-04-18T12:21:46.529Z</time></trkpt><trkpt lat="43.3372928" lon="10.85121"><ele>84.33333333333333</ele><time>2026-04-18T12:21:47.522Z</time></trkpt><trkpt lat="43.3371962" lon="10.8514156"><ele>84.66666666666666</ele><time>2026-04-18T12:21:48.527Z</time></trkpt><trkpt lat="43.3371106" lon="10.8516193"><ele>85.0</ele><time>2026-04-18T12:21:49.525Z</time></trkpt><trkpt lat="43.3370293" lon="10.8518318"><ele>85.0</ele><time>2026-04-18T12:21:50.524Z</time></trkpt><trkpt lat="43.3369603" lon="10.852052"><ele>85.0</ele><time>2026-04-18T12:21:51.519Z</time></trkpt><trkpt lat="43.3368972" lon="10.8522786"><ele>85.0</ele><time>2026-04-18T12:21:52.527Z</time></trkpt><trkpt lat="43.336833" lon="10.8525156"><ele>86.33333333333333</ele><time>2026-04-18T12:21:53.517Z</time></trkpt><trkpt lat="43.3367596" lon="10.8527501"><ele>87.66666666666667</ele><time>2026-04-18T12:21:54.522Z</time></trkpt><trkpt lat="43.3366942" lon="10.8529582"><ele>89.0</ele><time>2026-04-18T12:21:55.525Z</time></trkpt><trkpt lat="43.3366301" lon="10.8531726"><ele>89.0</ele><time>2026-04-18T12:21:56.526Z</time></trkpt><trkpt lat="43.3365656" lon="10.8533906"><ele>89.0</ele><time>2026-04-18T12:21:57.534Z</time></trkpt><trkpt lat="43.3365174" lon="10.8536264"><ele>89.0</ele><time>2026-04-18T12:21:58.519Z</time></trkpt><trkpt lat="43.3364798" lon="10.8538574"><ele>89.0</ele><time>2026-04-18T12:21:59.535Z</time></trkpt><trkpt lat="43.3364564" lon="10.8540855"><ele>89.0</ele><time>2026-04-18T12:22:00.525Z</time></trkpt><trkpt lat="43.336397" lon="10.8543017"><ele>89.0</ele><time>2026-04-18T12:22:01.523Z</time></trkpt><trkpt lat="43.3362971" lon="10.8544992"><ele>89.0</ele><time>2026-04-18T12:22:02.514Z</time></trkpt><trkpt lat="43.3361781" lon="10.8546788"><ele>89.0</ele><time>2026-04-18T12:22:03.515Z</time></trkpt><trkpt lat="43.33606" lon="10.8548577"><ele>89.0</ele><time>2026-04-18T12:22:04.522Z</time></trkpt><trkpt lat="43.3359366" lon="10.8550394"><ele>90.66666666666667</ele><time>2026-04-18T12:22:05.524Z</time></trkpt><trkpt lat="43.3358362" lon="10.8552389"><ele>92.33333333333333</ele><time>2026-04-18T12:22:06.521Z</time></trkpt><trkpt lat="43.3357376" lon="10.8554554"><ele>94.0</ele><time>2026-04-18T12:22:07.526Z</time></trkpt><trkpt lat="43.3356464" lon="10.8556752"><ele>94.0</ele><time>2026-04-18T12:22:08.519Z</time></trkpt><trkpt lat="43.3355583" lon="10.8559088"><ele>94.0</ele><time>2026-04-18T12:22:09.521Z</time></trkpt><trkpt lat="43.3354624" lon="10.8561423"><ele>94.0</ele><time>2026-04-18T12:22:10.523Z</time></trkpt><trkpt lat="43.3353663" lon="10.8563726"><ele>92.33333333333333</ele><time>2026-04-18T12:22:11.524Z</time></trkpt><trkpt lat="43.3352796" lon="10.8565985"><ele>90.66666666666667</ele><time>2026-04-18T12:22:12.527Z</time></trkpt><trkpt lat="43.3351896" lon="10.8568131"><ele>89.0</ele><time>2026-04-18T12:22:13.524Z</time></trkpt><trkpt lat="43.3350756" lon="10.8570117"><ele>89.0</ele><time>2026-04-18T12:22:14.527Z</time></trkpt><trkpt lat="43.3349493" lon="10.857201"><ele>89.0</ele><time>2026-04-18T12:22:15.525Z</time></trkpt><trkpt lat="43.334823" lon="10.8573825"><ele>89.0</ele><time>2026-04-18T12:22:16.538Z</time></trkpt><trkpt lat="43.3346796" lon="10.8575538"><ele>87.0</ele><time>2026-04-18T12:22:17.531Z</time></trkpt><trkpt lat="43.3345365" lon="10.8577211"><ele>85.0</ele><time>2026-04-18T12:22:18.522Z</time></trkpt><trkpt lat="43.3343803" lon="10.8578872"><ele>83.0</ele><time>2026-04-18T12:22:19.523Z</time></trkpt><trkpt lat="43.334225" lon="10.8580356"><ele>83.0</ele><time>2026-04-18T12:22:20.522Z</time></trkpt><trkpt lat="43.3340779" lon="10.8581713"><ele>83.0</ele><time>2026-04-18T12:22:21.525Z</time></trkpt><trkpt lat="43.3339245" lon="10.8582775"><ele>83.0</ele><time>2026-04-18T12:22:22.525Z</time></trkpt><trkpt lat="43.3337809" lon="10.8583729"><ele>83.66666666666667</ele><time>2026-04-18T12:22:23.518Z</time></trkpt><trkpt lat="43.3336435" lon="10.8584672"><ele>84.33333333333333</ele><time>2026-04-18T12:22:24.527Z</time></trkpt><trkpt lat="43.3334979" lon="10.8585375"><ele>85.0</ele><time>2026-04-18T12:22:25.523Z</time></trkpt><trkpt lat="43.333347" lon="10.8586133"><ele>85.0</ele><time>2026-04-18T12:22:26.522Z</time></trkpt><trkpt lat="43.33319" lon="10.8586859"><ele>85.0</ele><time>2026-04-18T12:22:27.526Z</time></trkpt><trkpt lat="43.3330324" lon="10.8587343"><ele>85.0</ele><time>2026-04-18T12:22:28.531Z</time></trkpt><trkpt lat="43.332859" lon="10.8587875"><ele>84.5</ele><time>2026-04-18T12:22:29.527Z</time></trkpt><trkpt lat="43.3326911" lon="10.8588134"><ele>84.0</ele><time>2026-04-18T12:22:30.519Z</time></trkpt><trkpt lat="43.3325472" lon="10.858819"><ele>83.5</ele><time>2026-04-18T12:22:31.521Z</time></trkpt><trkpt lat="43.3324108" lon="10.8588201"><ele>83.0</ele><time>2026-04-18T12:22:32.526Z</time></trkpt><trkpt lat="43.3322904" lon="10.8588425"><ele>83.60000000000001</ele><time>2026-04-18T12:22:33.525Z</time></trkpt><trkpt lat="43.3321803" lon="10.8588509"><ele>84.2</ele><time>2026-04-18T12:22:34.528Z</time></trkpt><trkpt lat="43.3320758" lon="10.8588646"><ele>84.8</ele><time>2026-04-18T12:22:35.528Z</time></trkpt><trkpt lat="43.3319791" lon="10.858872"><ele>85.4</ele><time>2026-04-18T12:22:36.533Z</time></trkpt><trkpt lat="43.3318716" lon="10.8589159"><ele>86.0</ele><time>2026-04-18T12:22:37.529Z</time></trkpt><trkpt lat="43.3317775" lon="10.8589931"><ele>86.0</ele><time>2026-04-18T12:22:38.522Z</time></trkpt><trkpt lat="43.3316654" lon="10.8591053"><ele>86.0</ele><time>2026-04-18T12:22:39.521Z</time></trkpt><trkpt lat="43.3315489" lon="10.8592248"><ele>86.0</ele><time>2026-04-18T12:22:40.525Z</time></trkpt><trkpt lat="43.3314128" lon="10.8593566"><ele>86.66666666666667</ele><time>2026-04-18T12:22:41.522Z</time></trkpt><trkpt lat="43.3312714" lon="10.8594804"><ele>87.33333333333333</ele><time>2026-04-18T12:22:42.527Z</time></trkpt><trkpt lat="43.3311185" lon="10.8596169"><ele>88.0</ele><time>2026-04-18T12:22:43.53Z</time></trkpt><trkpt lat="43.3309755" lon="10.8597703"><ele>88.0</ele><time>2026-04-18T12:22:44.525Z</time></trkpt><trkpt lat="43.330822" lon="10.8599116"><ele>88.0</ele><time>2026-04-18T12:22:45.532Z</time></trkpt><trkpt lat="43.3306698" lon="10.8600566"><ele>88.0</ele><time>2026-04-18T12:22:46.531Z</time></trkpt><trkpt lat="43.3305202" lon="10.860189"><ele>88.0</ele><time>2026-04-18T12:22:47.53Z</time></trkpt><trkpt lat="43.3303839" lon="10.8603186"><ele>88.0</ele><time>2026-04-18T12:22:48.531Z</time></trkpt><trkpt lat="43.330242" lon="10.8604416"><ele>88.0</ele><time>2026-04-18T12:22:49.527Z</time></trkpt><trkpt lat="43.3301197" lon="10.8605708"><ele>88.0</ele><time>2026-04-18T12:22:50.537Z</time></trkpt><trkpt lat="43.3299856" lon="10.8606902"><ele>88.0</ele><time>2026-04-18T12:22:51.524Z</time></trkpt><trkpt lat="43.3298647" lon="10.8608048"><ele>88.0</ele><time>2026-04-18T12:22:52.527Z</time></trkpt><trkpt lat="43.3297505" lon="10.8608981"><ele>88.0</ele><time>2026-04-18T12:22:53.523Z</time></trkpt><trkpt lat="43.3296578" lon="10.8609938"><ele>88.75</ele><time>2026-04-18T12:22:54.524Z</time></trkpt><trkpt lat="43.3295695" lon="10.8610872"><ele>89.5</ele><time>2026-04-18T12:22:55.525Z</time></trkpt><trkpt lat="43.3294851" lon="10.8612272"><ele>90.25</ele><time>2026-04-18T12:22:56.531Z</time></trkpt><trkpt lat="43.329408" lon="10.861395"><ele>91.0</ele><time>2026-04-18T12:22:57.524Z</time></trkpt><trkpt lat="43.3293472" lon="10.8616169"><ele>91.33333333333333</ele><time>2026-04-18T12:22:58.54Z</time></trkpt><trkpt lat="43.3292985" lon="10.8618513"><ele>91.66666666666667</ele><time>2026-04-18T12:22:59.521Z</time></trkpt><trkpt lat="43.3292686" lon="10.8620985"><ele>92.0</ele><time>2026-04-18T12:23:00.531Z</time></trkpt><trkpt lat="43.3292486" lon="10.8623449"><ele>92.0</ele><time>2026-04-18T12:23:01.523Z</time></trkpt><trkpt lat="43.3292405" lon="10.8625883"><ele>92.0</ele><time>2026-04-18T12:23:02.52Z</time></trkpt><trkpt lat="43.3292412" lon="10.8628204"><ele>92.0</ele><time>2026-04-18T12:23:03.53Z</time></trkpt><trkpt lat="43.3292362" lon="10.8630417"><ele>92.0</ele><time>2026-04-18T12:23:04.53Z</time></trkpt><trkpt lat="43.3292323" lon="10.8632595"><ele>92.0</ele><time>2026-04-18T12:23:05.534Z</time></trkpt><trkpt lat="43.3292375" lon="10.8634982"><ele>92.0</ele><time>2026-04-18T12:23:06.532Z</time></trkpt><trkpt lat="43.3292524" lon="10.8637292"><ele>92.33333333333334</ele><time>2026-04-18T12:23:07.529Z</time></trkpt><trkpt lat="43.3292922" lon="10.8639626"><ele>92.66666666666667</ele><time>2026-04-18T12:23:08.538Z</time></trkpt><trkpt lat="43.3293359" lon="10.8641969"><ele>93.0</ele><time>2026-04-18T12:23:09.525Z</time></trkpt><trkpt lat="43.3293734" lon="10.8644206"><ele>93.66666666666667</ele><time>2026-04-18T12:23:10.521Z</time></trkpt><trkpt lat="43.3293966" lon="10.8646272"><ele>94.33333333333334</ele><time>2026-04-18T12:23:11.527Z</time></trkpt><trkpt lat="43.3294249" lon="10.8648418"><ele>95.0</ele><time>2026-04-18T12:23:12.526Z</time></trkpt><trkpt lat="43.3294459" lon="10.8650497"><ele>94.0</ele><time>2026-04-18T12:23:13.529Z</time></trkpt><trkpt lat="43.3294636" lon="10.8652777"><ele>93.0</ele><time>2026-04-18T12:23:14.527Z</time></trkpt><trkpt lat="43.3294784" lon="10.8655115"><ele>92.0</ele><time>2026-04-18T12:23:15.523Z</time></trkpt><trkpt lat="43.3294748" lon="10.8657611"><ele>91.66666666666667</ele><time>2026-04-18T12:23:16.543Z</time></trkpt><trkpt lat="43.3294702" lon="10.8660086"><ele>91.33333333333333</ele><time>2026-04-18T12:23:17.533Z</time></trkpt><trkpt lat="43.3294593" lon="10.8662598"><ele>91.0</ele><time>2026-04-18T12:23:18.532Z</time></trkpt><trkpt lat="43.3294404" lon="10.866507"><ele>91.0</ele><time>2026-04-18T12:23:19.532Z</time></trkpt><trkpt lat="43.3294328" lon="10.8667626"><ele>91.0</ele><time>2026-04-18T12:23:20.532Z</time></trkpt><trkpt lat="43.329426" lon="10.8670115"><ele>91.0</ele><time>2026-04-18T12:23:21.532Z</time></trkpt><trkpt lat="43.3294107" lon="10.8672809"><ele>91.0</ele><time>2026-04-18T12:23:22.543Z</time></trkpt><trkpt lat="43.3293996" lon="10.8675372"><ele>91.0</ele><time>2026-04-18T12:23:23.533Z</time></trkpt><trkpt lat="43.3293863" lon="10.867771"><ele>91.0</ele><time>2026-04-18T12:23:24.534Z</time></trkpt><trkpt lat="43.3293823" lon="10.867988"><ele>90.75</ele><time>2026-04-18T12:23:25.525Z</time></trkpt><trkpt lat="43.3293804" lon="10.8681853"><ele>90.5</ele><time>2026-04-18T12:23:26.527Z</time></trkpt><trkpt lat="43.3293723" lon="10.8683684"><ele>90.25</ele><time>2026-04-18T12:23:27.531Z</time></trkpt><trkpt lat="43.329359" lon="10.8685434"><ele>90.0</ele><time>2026-04-18T12:23:28.532Z</time></trkpt><trkpt lat="43.3293485" lon="10.8687274"><ele>90.0</ele><time>2026-04-18T12:23:29.524Z</time></trkpt><trkpt lat="43.3293445" lon="10.8689116"><ele>90.0</ele><time>2026-04-18T12:23:30.53Z</time></trkpt><trkpt lat="43.3293369" lon="10.8691033"><ele>90.0</ele><time>2026-04-18T12:23:31.524Z</time></trkpt><trkpt lat="43.3293341" lon="10.8693079"><ele>90.0</ele><time>2026-04-18T12:23:32.523Z</time></trkpt><trkpt lat="43.3293202" lon="10.8695167"><ele>90.33333333333333</ele><time>2026-04-18T12:23:33.524Z</time></trkpt><trkpt lat="43.3293221" lon="10.8697448"><ele>90.66666666666666</ele><time>2026-04-18T12:23:34.526Z</time></trkpt><trkpt lat="43.3293261" lon="10.8699775"><ele>91.0</ele><time>2026-04-18T12:23:35.524Z</time></trkpt><trkpt lat="43.3293265" lon="10.8702121"><ele>90.33333333333333</ele><time>2026-04-18T12:23:36.524Z</time></trkpt><trkpt lat="43.3293156" lon="10.8704567"><ele>89.66666666666667</ele><time>2026-04-18T12:23:37.526Z</time></trkpt><trkpt lat="43.3293082" lon="10.8706753"><ele>89.0</ele><time>2026-04-18T12:23:38.526Z</time></trkpt><trkpt lat="43.3293044" lon="10.8708839"><ele>89.66666666666667</ele><time>2026-04-18T12:23:39.525Z</time></trkpt><trkpt lat="43.3292827" lon="10.8711088"><ele>90.33333333333333</ele><time>2026-04-18T12:23:40.523Z</time></trkpt><trkpt lat="43.3292678" lon="10.8713351"><ele>91.0</ele><time>2026-04-18T12:23:41.528Z</time></trkpt><trkpt lat="43.329264" lon="10.8715607"><ele>91.33333333333333</ele><time>2026-04-18T12:23:42.529Z</time></trkpt><trkpt lat="43.3292671" lon="10.8717883"><ele>91.66666666666667</ele><time>2026-04-18T12:23:43.531Z</time></trkpt><trkpt lat="43.3292588" lon="10.8720268"><ele>92.0</ele><time>2026-04-18T12:23:44.526Z</time></trkpt><trkpt lat="43.3292355" lon="10.8722688"><ele>92.0</ele><time>2026-04-18T12:23:45.536Z</time></trkpt><trkpt lat="43.3292125" lon="10.8724996"><ele>92.0</ele><time>2026-04-18T12:23:46.529Z</time></trkpt><trkpt lat="43.3291745" lon="10.8727258"><ele>92.0</ele><time>2026-04-18T12:23:47.535Z</time></trkpt><trkpt lat="43.329126" lon="10.8729472"><ele>91.66666666666667</ele><time>2026-04-18T12:23:48.526Z</time></trkpt><trkpt lat="43.329064" lon="10.8731745"><ele>91.33333333333333</ele><time>2026-04-18T12:23:49.532Z</time></trkpt><trkpt lat="43.3290169" lon="10.8733978"><ele>91.0</ele><time>2026-04-18T12:23:50.531Z</time></trkpt><trkpt lat="43.3289607" lon="10.8736307"><ele>90.33333333333333</ele><time>2026-04-18T12:23:51.533Z</time></trkpt><trkpt lat="43.3289171" lon="10.8738536"><ele>89.66666666666667</ele><time>2026-04-18T12:23:52.535Z</time></trkpt><trkpt lat="43.3288834" lon="10.8740591"><ele>89.0</ele><time>2026-04-18T12:23:53.526Z</time></trkpt><trkpt lat="43.3288414" lon="10.8742492"><ele>91.0</ele><time>2026-04-18T12:23:54.534Z</time></trkpt><trkpt lat="43.3287997" lon="10.8744542"><ele>93.0</ele><time>2026-04-18T12:23:55.521Z</time></trkpt><trkpt lat="43.3287642" lon="10.8746507"><ele>95.0</ele><time>2026-04-18T12:23:56.524Z</time></trkpt><trkpt lat="43.3287086" lon="10.8748524"><ele>95.0</ele><time>2026-04-18T12:23:57.525Z</time></trkpt><trkpt lat="43.3286635" lon="10.875062"><ele>95.0</ele><time>2026-04-18T12:23:58.528Z</time></trkpt><trkpt lat="43.3286235" lon="10.8752683"><ele>95.0</ele><time>2026-04-18T12:23:59.524Z</time></trkpt><trkpt lat="43.3285726" lon="10.8754778"><ele>95.0</ele><time>2026-04-18T12:24:00.528Z</time></trkpt><trkpt lat="43.3285262" lon="10.8756969"><ele>95.0</ele><time>2026-04-18T12:24:01.522Z</time></trkpt><trkpt lat="43.3284803" lon="10.8759269"><ele>95.0</ele><time>2026-04-18T12:24:02.525Z</time></trkpt><trkpt lat="43.328454" lon="10.8761518"><ele>95.0</ele><time>2026-04-18T12:24:03.526Z</time></trkpt><trkpt lat="43.3284368" lon="10.8763707"><ele>95.0</ele><time>2026-04-18T12:24:04.526Z</time></trkpt><trkpt lat="43.3284213" lon="10.8766043"><ele>95.0</ele><time>2026-04-18T12:24:05.526Z</time></trkpt><trkpt lat="43.3284128" lon="10.8768276"><ele>95.25</ele><time>2026-04-18T12:24:06.526Z</time></trkpt><trkpt lat="43.3284131" lon="10.8770474"><ele>95.5</ele><time>2026-04-18T12:24:07.524Z</time></trkpt><trkpt lat="43.3284203" lon="10.8772406"><ele>95.75</ele><time>2026-04-18T12:24:08.526Z</time></trkpt><trkpt lat="43.3284237" lon="10.8774245"><ele>96.0</ele><time>2026-04-18T12:24:09.524Z</time></trkpt><trkpt lat="43.328422" lon="10.8776067"><ele>96.0</ele><time>2026-04-18T12:24:10.529Z</time></trkpt><trkpt lat="43.3284101" lon="10.8777781"><ele>96.0</ele><time>2026-04-18T12:24:11.522Z</time></trkpt><trkpt lat="43.3284043" lon="10.8779577"><ele>96.0</ele><time>2026-04-18T12:24:12.528Z</time></trkpt><trkpt lat="43.3284051" lon="10.8781312"><ele>96.0</ele><time>2026-04-18T12:24:13.526Z</time></trkpt><trkpt lat="43.3284138" lon="10.8783092"><ele>96.0</ele><time>2026-04-18T12:24:14.531Z</time></trkpt><trkpt lat="43.328432" lon="10.8784766"><ele>96.0</ele><time>2026-04-18T12:24:15.52Z</time></trkpt><trkpt lat="43.3284367" lon="10.878621"><ele>96.0</ele><time>2026-04-18T12:24:16.531Z</time></trkpt><trkpt lat="43.3284649" lon="10.8787481"><ele>96.0</ele><time>2026-04-18T12:24:17.531Z</time></trkpt><trkpt lat="43.3285244" lon="10.8788597"><ele>96.0</ele><time>2026-04-18T12:24:18.519Z</time></trkpt><trkpt lat="43.3286099" lon="10.8789487"><ele>96.0</ele><time>2026-04-18T12:24:19.523Z</time></trkpt><trkpt lat="43.3287038" lon="10.8790143"><ele>96.0</ele><time>2026-04-18T12:24:20.527Z</time></trkpt><trkpt lat="43.3287855" lon="10.8790813"><ele>96.0</ele><time>2026-04-18T12:24:21.52Z</time></trkpt><trkpt lat="43.3288368" lon="10.8791665"><ele>96.0</ele><time>2026-04-18T12:24:22.542Z</time></trkpt><trkpt lat="43.3288647" lon="10.8792743"><ele>96.0</ele><time>2026-04-18T12:24:23.528Z</time></trkpt><trkpt lat="43.3288634" lon="10.879401"><ele>95.75</ele><time>2026-04-18T12:24:24.524Z</time></trkpt><trkpt lat="43.3288309" lon="10.8795487"><ele>95.5</ele><time>2026-04-18T12:24:25.522Z</time></trkpt><trkpt lat="43.3287764" lon="10.8797397"><ele>95.25</ele><time>2026-04-18T12:24:26.517Z</time></trkpt><trkpt lat="43.3287131" lon="10.8799105"><ele>95.0</ele><time>2026-04-18T12:24:27.514Z</time></trkpt><trkpt lat="43.3286408" lon="10.8800644"><ele>94.25</ele><time>2026-04-18T12:24:28.523Z</time></trkpt><trkpt lat="43.3285648" lon="10.8802003"><ele>93.5</ele><time>2026-04-18T12:24:29.514Z</time></trkpt><trkpt lat="43.3284775" lon="10.8803253"><ele>92.75</ele><time>2026-04-18T12:24:30.509Z</time></trkpt><trkpt lat="43.3283641" lon="10.8804432"><ele>92.0</ele><time>2026-04-18T12:24:31.515Z</time></trkpt><trkpt lat="43.3282251" lon="10.8805788"><ele>92.0</ele><time>2026-04-18T12:24:32.512Z</time></trkpt><trkpt lat="43.328077" lon="10.8807136"><ele>92.0</ele><time>2026-04-18T12:24:33.519Z</time></trkpt><trkpt lat="43.3279246" lon="10.8808323"><ele>92.0</ele><time>2026-04-18T12:24:34.521Z</time></trkpt><trkpt lat="43.3277708" lon="10.8809549"><ele>91.33333333333334</ele><time>2026-04-18T12:24:35.522Z</time></trkpt><trkpt lat="43.3276198" lon="10.8810899"><ele>90.66666666666667</ele><time>2026-04-18T12:24:36.518Z</time></trkpt><trkpt lat="43.327475" lon="10.8812449"><ele>90.0</ele><time>2026-04-18T12:24:37.522Z</time></trkpt><trkpt lat="43.3273367" lon="10.8813908"><ele>92.0</ele><time>2026-04-18T12:24:38.522Z</time></trkpt><trkpt lat="43.3272056" lon="10.8815166"><ele>94.0</ele><time>2026-04-18T12:24:39.519Z</time></trkpt><trkpt lat="43.3270684" lon="10.8816229"><ele>96.0</ele><time>2026-04-18T12:24:40.53Z</time></trkpt><trkpt lat="43.3269371" lon="10.8817436"><ele>95.25</ele><time>2026-04-18T12:24:41.526Z</time></trkpt><trkpt lat="43.3268217" lon="10.8818655"><ele>94.5</ele><time>2026-04-18T12:24:42.52Z</time></trkpt><trkpt lat="43.3267136" lon="10.8819641"><ele>93.75</ele><time>2026-04-18T12:24:43.519Z</time></trkpt><trkpt lat="43.3266313" lon="10.8820727"><ele>93.0</ele><time>2026-04-18T12:24:44.516Z</time></trkpt><trkpt lat="43.3265703" lon="10.8821867"><ele>93.0</ele><time>2026-04-18T12:24:45.524Z</time></trkpt><trkpt lat="43.326509" lon="10.882307"><ele>93.0</ele><time>2026-04-18T12:24:46.526Z</time></trkpt><trkpt lat="43.3264417" lon="10.8824103"><ele>93.0</ele><time>2026-04-18T12:24:47.525Z</time></trkpt><trkpt lat="43.326385" lon="10.8825355"><ele>93.0</ele><time>2026-04-18T12:24:48.518Z</time></trkpt><trkpt lat="43.3263333" lon="10.882649"><ele>93.0</ele><time>2026-04-18T12:24:49.52Z</time></trkpt><trkpt lat="43.3262958" lon="10.8827595"><ele>93.25</ele><time>2026-04-18T12:24:50.512Z</time></trkpt><trkpt lat="43.3262859" lon="10.8829082"><ele>93.5</ele><time>2026-04-18T12:24:51.527Z</time></trkpt><trkpt lat="43.3263037" lon="10.883091"><ele>93.75</ele><time>2026-04-18T12:24:52.51Z</time></trkpt><trkpt lat="43.326336" lon="10.8832793"><ele>94.0</ele><time>2026-04-18T12:24:53.509Z</time></trkpt><trkpt lat="43.3263754" lon="10.8834752"><ele>93.0</ele><time>2026-04-18T12:24:54.509Z</time></trkpt><trkpt lat="43.3264364" lon="10.883686"><ele>92.0</ele><time>2026-04-18T12:24:55.517Z</time></trkpt><trkpt lat="43.326498" lon="10.8839047"><ele>91.0</ele><time>2026-04-18T12:24:56.518Z</time></trkpt><trkpt lat="43.3265569" lon="10.8841206"><ele>91.33333333333333</ele><time>2026-04-18T12:24:57.534Z</time></trkpt><trkpt lat="43.3266112" lon="10.8843206"><ele>91.66666666666667</ele><time>2026-04-18T12:24:58.525Z</time></trkpt><trkpt lat="43.3266609" lon="10.884511"><ele>92.0</ele><time>2026-04-18T12:24:59.523Z</time></trkpt><trkpt lat="43.3267082" lon="10.8847179"><ele>92.0</ele><time>2026-04-18T12:25:00.527Z</time></trkpt><trkpt lat="43.3267582" lon="10.8849216"><ele>92.0</ele><time>2026-04-18T12:25:01.523Z</time></trkpt><trkpt lat="43.3268278" lon="10.8851289"><ele>92.0</ele><time>2026-04-18T12:25:02.532Z</time></trkpt><trkpt lat="43.32689" lon="10.8853318"><ele>92.0</ele><time>2026-04-18T12:25:03.526Z</time></trkpt><trkpt lat="43.3269389" lon="10.8855308"><ele>92.0</ele><time>2026-04-18T12:25:04.527Z</time></trkpt><trkpt lat="43.3269889" lon="10.8857132"><ele>92.0</ele><time>2026-04-18T12:25:05.525Z</time></trkpt><trkpt lat="43.3270466" lon="10.8859036"><ele>92.0</ele><time>2026-04-18T12:25:06.526Z</time></trkpt><trkpt lat="43.3270939" lon="10.886097"><ele>92.19999999999999</ele><time>2026-04-18T12:25:07.529Z</time></trkpt><trkpt lat="43.3271504" lon="10.8862698"><ele>92.4</ele><time>2026-04-18T12:25:08.522Z</time></trkpt><trkpt lat="43.3271897" lon="10.8864277"><ele>92.6</ele><time>2026-04-18T12:25:09.513Z</time></trkpt><trkpt lat="43.3272182" lon="10.8865482"><ele>92.80000000000001</ele><time>2026-04-18T12:25:10.522Z</time></trkpt><trkpt lat="43.327247" lon="10.8866595"><ele>93.0</ele><time>2026-04-18T12:25:11.521Z</time></trkpt><trkpt lat="43.3272642" lon="10.8867484"><ele>93.2</ele><time>2026-04-18T12:25:12.525Z</time></trkpt><trkpt lat="43.3272774" lon="10.8868816"><ele>93.4</ele><time>2026-04-18T12:25:14.514Z</time></trkpt><trkpt lat="43.3272341" lon="10.8870376"><ele>93.60000000000001</ele><time>2026-04-18T12:25:23.519Z</time></trkpt><trkpt lat="43.3271835" lon="10.8871215"><ele>93.80000000000001</ele><time>2026-04-18T12:25:24.518Z</time></trkpt><trkpt lat="43.3271108" lon="10.8871923"><ele>94.0</ele><time>2026-04-18T12:25:25.512Z</time></trkpt><trkpt lat="43.3270172" lon="10.8872451"><ele>94.2</ele><time>2026-04-18T12:25:26.516Z</time></trkpt><trkpt lat="43.3269323" lon="10.8872633"><ele>94.4</ele><time>2026-04-18T12:25:27.521Z</time></trkpt><trkpt lat="43.3268509" lon="10.8872874"><ele>94.6</ele><time>2026-04-18T12:25:28.522Z</time></trkpt><trkpt lat="43.326758" lon="10.887306"><ele>94.8</ele><time>2026-04-18T12:25:29.523Z</time></trkpt><trkpt lat="43.3266531" lon="10.8873432"><ele>95.0</ele><time>2026-04-18T12:25:30.526Z</time></trkpt><trkpt lat="43.3265405" lon="10.8873884"><ele>95.0</ele><time>2026-04-18T12:25:31.518Z</time></trkpt><trkpt lat="43.3264152" lon="10.8874458"><ele>95.0</ele><time>2026-04-18T12:25:32.522Z</time></trkpt><trkpt lat="43.326279" lon="10.887499"><ele>95.0</ele><time>2026-04-18T12:25:33.521Z</time></trkpt><trkpt lat="43.3261376" lon="10.8875627"><ele>95.0</ele><time>2026-04-18T12:25:34.522Z</time></trkpt><trkpt lat="43.3259922" lon="10.8876258"><ele>94.75</ele><time>2026-04-18T12:25:35.521Z</time></trkpt><trkpt lat="43.3258489" lon="10.8876945"><ele>94.5</ele><time>2026-04-18T12:25:36.526Z</time></trkpt><trkpt lat="43.3257064" lon="10.8877639"><ele>94.25</ele><time>2026-04-18T12:25:37.519Z</time></trkpt><trkpt lat="43.3255691" lon="10.8878218"><ele>94.0</ele><time>2026-04-18T12:25:38.522Z</time></trkpt><trkpt lat="43.3254419" lon="10.8878813"><ele>94.0</ele><time>2026-04-18T12:25:39.523Z</time></trkpt><trkpt lat="43.3253232" lon="10.8879364"><ele>94.0</ele><time>2026-04-18T12:25:40.521Z</time></trkpt><trkpt lat="43.3251931" lon="10.8879956"><ele>94.0</ele><time>2026-04-18T12:25:41.53Z</time></trkpt><trkpt lat="43.3250654" lon="10.8880503"><ele>94.0</ele><time>2026-04-18T12:25:42.518Z</time></trkpt><trkpt lat="43.3249378" lon="10.8881281"><ele>94.0</ele><time>2026-04-18T12:25:43.519Z</time></trkpt><trkpt lat="43.3248092" lon="10.8882192"><ele>94.0</ele><time>2026-04-18T12:25:44.526Z</time></trkpt><trkpt lat="43.324667" lon="10.8883704"><ele>94.0</ele><time>2026-04-18T12:25:45.512Z</time></trkpt><trkpt lat="43.3245402" lon="10.8885289"><ele>94.33333333333333</ele><time>2026-04-18T12:25:46.525Z</time></trkpt><trkpt lat="43.3244259" lon="10.8886964"><ele>94.66666666666667</ele><time>2026-04-18T12:25:47.52Z</time></trkpt><trkpt lat="43.3243098" lon="10.8888476"><ele>95.0</ele><time>2026-04-18T12:25:48.52Z</time></trkpt><trkpt lat="43.324198" lon="10.8889862"><ele>95.0</ele><time>2026-04-18T12:25:49.526Z</time></trkpt><trkpt lat="43.3240919" lon="10.8891143"><ele>95.0</ele><time>2026-04-18T12:25:50.519Z</time></trkpt><trkpt lat="43.3239941" lon="10.8892335"><ele>95.0</ele><time>2026-04-18T12:25:51.532Z</time></trkpt><trkpt lat="43.3238978" lon="10.8893627"><ele>95.0</ele><time>2026-04-18T12:25:52.527Z</time></trkpt><trkpt lat="43.3237913" lon="10.8894973"><ele>95.0</ele><time>2026-04-18T12:25:53.525Z</time></trkpt><trkpt lat="43.3236917" lon="10.8896228"><ele>95.0</ele><time>2026-04-18T12:25:54.524Z</time></trkpt><trkpt lat="43.3235699" lon="10.8897699"><ele>95.0</ele><time>2026-04-18T12:25:55.514Z</time></trkpt><trkpt lat="43.3234561" lon="10.8898941"><ele>95.0</ele><time>2026-04-18T12:25:56.526Z</time></trkpt><trkpt lat="43.3233404" lon="10.8900311"><ele>95.0</ele><time>2026-04-18T12:25:57.521Z</time></trkpt><trkpt lat="43.3232247" lon="10.8901645"><ele>95.0</ele><time>2026-04-18T12:25:58.531Z</time></trkpt><trkpt lat="43.3230909" lon="10.890303"><ele>95.0</ele><time>2026-04-18T12:25:59.52Z</time></trkpt><trkpt lat="43.322951" lon="10.8904463"><ele>95.0</ele><time>2026-04-18T12:26:00.524Z</time></trkpt><trkpt lat="43.3228162" lon="10.8905884"><ele>95.0</ele><time>2026-04-18T12:26:01.517Z</time></trkpt><trkpt lat="43.3227032" lon="10.890716"><ele>95.0</ele><time>2026-04-18T12:26:02.512Z</time></trkpt><trkpt lat="43.3225992" lon="10.8908224"><ele>95.0</ele><time>2026-04-18T12:26:03.513Z</time></trkpt><trkpt lat="43.3225097" lon="10.8909356"><ele>95.25</ele><time>2026-04-18T12:26:04.518Z</time></trkpt><trkpt lat="43.3224241" lon="10.8910399"><ele>95.5</ele><time>2026-04-18T12:26:05.517Z</time></trkpt><trkpt lat="43.3223107" lon="10.891144"><ele>95.75</ele><time>2026-04-18T12:26:06.521Z</time></trkpt><trkpt lat="43.3221897" lon="10.8912235"><ele>96.0</ele><time>2026-04-18T12:26:07.517Z</time></trkpt><trkpt lat="43.3220588" lon="10.8912937"><ele>96.0</ele><time>2026-04-18T12:26:08.516Z</time></trkpt><trkpt lat="43.3219206" lon="10.8913896"><ele>96.0</ele><time>2026-04-18T12:26:09.518Z</time></trkpt><trkpt lat="43.3217923" lon="10.8915322"><ele>96.0</ele><time>2026-04-18T12:26:10.516Z</time></trkpt><trkpt lat="43.3216923" lon="10.8916816"><ele>96.25</ele><time>2026-04-18T12:26:11.522Z</time></trkpt><trkpt lat="43.32161" lon="10.8918288"><ele>96.5</ele><time>2026-04-18T12:26:12.516Z</time></trkpt><trkpt lat="43.3215179" lon="10.8919553"><ele>96.75</ele><time>2026-04-18T12:26:13.516Z</time></trkpt><trkpt lat="43.3214218" lon="10.8920752"><ele>97.0</ele><time>2026-04-18T12:26:14.524Z</time></trkpt><trkpt lat="43.3213185" lon="10.8921885"><ele>97.0</ele><time>2026-04-18T12:26:15.526Z</time></trkpt><trkpt lat="43.3212291" lon="10.8922883"><ele>97.0</ele><time>2026-04-18T12:26:16.527Z</time></trkpt><trkpt lat="43.3211272" lon="10.8923483"><ele>97.0</ele><time>2026-04-18T12:26:17.512Z</time></trkpt><trkpt lat="43.3210203" lon="10.892399"><ele>97.0</ele><time>2026-04-18T12:26:18.523Z</time></trkpt><trkpt lat="43.3209042" lon="10.8924608"><ele>97.0</ele><time>2026-04-18T12:26:19.517Z</time></trkpt><trkpt lat="43.3207736" lon="10.8925716"><ele>97.0</ele><time>2026-04-18T12:26:20.512Z</time></trkpt><trkpt lat="43.3206309" lon="10.8927111"><ele>97.0</ele><time>2026-04-18T12:26:21.518Z</time></trkpt><trkpt lat="43.3204963" lon="10.8928587"><ele>97.0</ele><time>2026-04-18T12:26:22.521Z</time></trkpt><trkpt lat="43.3203741" lon="10.8930056"><ele>97.0</ele><time>2026-04-18T12:26:23.512Z</time></trkpt><trkpt lat="43.3202729" lon="10.8931332"><ele>97.0</ele><time>2026-04-18T12:26:24.522Z</time></trkpt><trkpt lat="43.3201873" lon="10.893295"><ele>97.0</ele><time>2026-04-18T12:26:25.52Z</time></trkpt><trkpt lat="43.3201048" lon="10.8934627"><ele>97.0</ele><time>2026-04-18T12:26:26.519Z</time></trkpt><trkpt lat="43.3200125" lon="10.8936474"><ele>97.0</ele><time>2026-04-18T12:26:27.511Z</time></trkpt><trkpt lat="43.3199286" lon="10.8938436"><ele>97.0</ele><time>2026-04-18T12:26:28.523Z</time></trkpt><trkpt lat="43.3198441" lon="10.8940415"><ele>97.0</ele><time>2026-04-18T12:26:29.52Z</time></trkpt><trkpt lat="43.3197584" lon="10.8942389"><ele>97.0</ele><time>2026-04-18T12:26:30.527Z</time></trkpt><trkpt lat="43.3196677" lon="10.8944342"><ele>97.0</ele><time>2026-04-18T12:26:31.527Z</time></trkpt><trkpt lat="43.3195807" lon="10.8946203"><ele>97.33333333333334</ele><time>2026-04-18T12:26:32.526Z</time></trkpt><trkpt lat="43.3194899" lon="10.8947914"><ele>97.66666666666666</ele><time>2026-04-18T12:26:33.521Z</time></trkpt><trkpt lat="43.3193979" lon="10.8949697"><ele>98.0</ele><time>2026-04-18T12:26:34.521Z</time></trkpt><trkpt lat="43.3193047" lon="10.8951401"><ele>98.0</ele><time>2026-04-18T12:26:35.522Z</time></trkpt><trkpt lat="43.3192187" lon="10.8953114"><ele>98.0</ele><time>2026-04-18T12:26:36.523Z</time></trkpt><trkpt lat="43.3191285" lon="10.8954977"><ele>98.0</ele><time>2026-04-18T12:26:37.523Z</time></trkpt><trkpt lat="43.3190406" lon="10.8956705"><ele>98.0</ele><time>2026-04-18T12:26:38.526Z</time></trkpt><trkpt lat="43.3189436" lon="10.8958631"><ele>98.0</ele><time>2026-04-18T12:26:39.525Z</time></trkpt><trkpt lat="43.3188484" lon="10.8960579"><ele>98.0</ele><time>2026-04-18T12:26:40.534Z</time></trkpt><trkpt lat="43.3187626" lon="10.8962511"><ele>98.0</ele><time>2026-04-18T12:26:41.526Z</time></trkpt><trkpt lat="43.3186791" lon="10.896442"><ele>98.0</ele><time>2026-04-18T12:26:42.526Z</time></trkpt><trkpt lat="43.3185941" lon="10.8966109"><ele>98.0</ele><time>2026-04-18T12:26:43.524Z</time></trkpt><trkpt lat="43.3185183" lon="10.8967678"><ele>98.0</ele><time>2026-04-18T12:26:44.526Z</time></trkpt><trkpt lat="43.3184366" lon="10.8969279"><ele>98.66666666666666</ele><time>2026-04-18T12:26:45.52Z</time></trkpt><trkpt lat="43.318349" lon="10.8970894"><ele>99.33333333333334</ele><time>2026-04-18T12:26:46.529Z</time></trkpt><trkpt lat="43.3182613" lon="10.8972644"><ele>100.0</ele><time>2026-04-18T12:26:47.522Z</time></trkpt><trkpt lat="43.3181596" lon="10.8974209"><ele>100.25</ele><time>2026-04-18T12:26:48.524Z</time></trkpt><trkpt lat="43.3180488" lon="10.8975659"><ele>100.5</ele><time>2026-04-18T12:26:49.514Z</time></trkpt><trkpt lat="43.3179316" lon="10.8976873"><ele>100.75</ele><time>2026-04-18T12:26:50.517Z</time></trkpt><trkpt lat="43.3178221" lon="10.8978031"><ele>101.0</ele><time>2026-04-18T12:26:51.516Z</time></trkpt><trkpt lat="43.3177101" lon="10.8979286"><ele>101.0</ele><time>2026-04-18T12:26:52.514Z</time></trkpt><trkpt lat="43.3176104" lon="10.8981116"><ele>101.0</ele><time>2026-04-18T12:26:53.516Z</time></trkpt><trkpt lat="43.3175157" lon="10.8983114"><ele>101.0</ele><time>2026-04-18T12:26:54.511Z</time></trkpt><trkpt lat="43.3174592" lon="10.8985067"><ele>100.75</ele><time>2026-04-18T12:26:55.504Z</time></trkpt><trkpt lat="43.3174208" lon="10.8986987"><ele>100.5</ele><time>2026-04-18T12:26:56.508Z</time></trkpt><trkpt lat="43.3173951" lon="10.8988919"><ele>100.25</ele><time>2026-04-18T12:26:57.518Z</time></trkpt><trkpt lat="43.3173712" lon="10.8990794"><ele>100.0</ele><time>2026-04-18T12:26:58.517Z</time></trkpt><trkpt lat="43.3173127" lon="10.8992783"><ele>100.0</ele><time>2026-04-18T12:26:59.506Z</time></trkpt><trkpt lat="43.317217" lon="10.8994541"><ele>100.0</ele><time>2026-04-18T12:27:00.518Z</time></trkpt><trkpt lat="43.3170979" lon="10.8995986"><ele>100.0</ele><time>2026-04-18T12:27:01.513Z</time></trkpt><trkpt lat="43.3169803" lon="10.8997706"><ele>100.0</ele><time>2026-04-18T12:27:02.516Z</time></trkpt><trkpt lat="43.3168749" lon="10.8999534"><ele>100.0</ele><time>2026-04-18T12:27:03.513Z</time></trkpt><trkpt lat="43.3168002" lon="10.9001461"><ele>100.0</ele><time>2026-04-18T12:27:04.519Z</time></trkpt><trkpt lat="43.3167335" lon="10.9003398"><ele>100.0</ele><time>2026-04-18T12:27:05.516Z</time></trkpt><trkpt lat="43.316691" lon="10.9005294"><ele>100.0</ele><time>2026-04-18T12:27:06.514Z</time></trkpt><trkpt lat="43.3166496" lon="10.9007138"><ele>100.0</ele><time>2026-04-18T12:27:07.518Z</time></trkpt><trkpt lat="43.3165902" lon="10.9008916"><ele>100.0</ele><time>2026-04-18T12:27:08.519Z</time></trkpt><trkpt lat="43.3165037" lon="10.9010648"><ele>100.0</ele><time>2026-04-18T12:27:09.517Z</time></trkpt><trkpt lat="43.3164085" lon="10.901226"><ele>100.0</ele><time>2026-04-18T12:27:10.525Z</time></trkpt><trkpt lat="43.3162979" lon="10.9014065"><ele>100.0</ele><time>2026-04-18T12:27:11.524Z</time></trkpt><trkpt lat="43.3162141" lon="10.901605"><ele>100.66666666666667</ele><time>2026-04-18T12:27:12.52Z</time></trkpt><trkpt lat="43.3161419" lon="10.9017991"><ele>101.33333333333334</ele><time>2026-04-18T12:27:13.518Z</time></trkpt><trkpt lat="43.3160942" lon="10.9019857"><ele>102.0</ele><time>2026-04-18T12:27:14.517Z</time></trkpt><trkpt lat="43.316027" lon="10.9021704"><ele>102.0</ele><time>2026-04-18T12:27:15.519Z</time></trkpt><trkpt lat="43.315946" lon="10.9023489"><ele>102.0</ele><time>2026-04-18T12:27:16.521Z</time></trkpt><trkpt lat="43.3158571" lon="10.9025257"><ele>102.0</ele><time>2026-04-18T12:27:17.523Z</time></trkpt><trkpt lat="43.3157684" lon="10.9027139"><ele>102.33333333333334</ele><time>2026-04-18T12:27:18.521Z</time></trkpt><trkpt lat="43.3156793" lon="10.9028951"><ele>102.66666666666667</ele><time>2026-04-18T12:27:19.521Z</time></trkpt><trkpt lat="43.3155836" lon="10.9030916"><ele>103.0</ele><time>2026-04-18T12:27:20.532Z</time></trkpt><trkpt lat="43.3154836" lon="10.9032815"><ele>103.0</ele><time>2026-04-18T12:27:21.523Z</time></trkpt><trkpt lat="43.3153911" lon="10.903477"><ele>103.0</ele><time>2026-04-18T12:27:22.532Z</time></trkpt><trkpt lat="43.3152917" lon="10.9036803"><ele>103.0</ele><time>2026-04-18T12:27:23.524Z</time></trkpt><trkpt lat="43.3151935" lon="10.9038733"><ele>103.0</ele><time>2026-04-18T12:27:24.524Z</time></trkpt><trkpt lat="43.315096" lon="10.9040836"><ele>103.0</ele><time>2026-04-18T12:27:25.522Z</time></trkpt><trkpt lat="43.3149893" lon="10.9042905"><ele>103.0</ele><time>2026-04-18T12:27:26.526Z</time></trkpt><trkpt lat="43.3148866" lon="10.904502"><ele>103.0</ele><time>2026-04-18T12:27:27.529Z</time></trkpt><trkpt lat="43.3147861" lon="10.9047197"><ele>103.0</ele><time>2026-04-18T12:27:28.527Z</time></trkpt><trkpt lat="43.3146761" lon="10.904937"><ele>103.0</ele><time>2026-04-18T12:27:29.53Z</time></trkpt><trkpt lat="43.3145635" lon="10.9051623"><ele>104.0</ele><time>2026-04-18T12:27:30.523Z</time></trkpt><trkpt lat="43.3144552" lon="10.9053835"><ele>105.0</ele><time>2026-04-18T12:27:31.521Z</time></trkpt><trkpt lat="43.3143399" lon="10.9056177"><ele>106.0</ele><time>2026-04-18T12:27:32.522Z</time></trkpt><trkpt lat="43.3142226" lon="10.9058445"><ele>105.5</ele><time>2026-04-18T12:27:33.512Z</time></trkpt><trkpt lat="43.3141002" lon="10.90611"><ele>105.0</ele><time>2026-04-18T12:27:34.519Z</time></trkpt><trkpt lat="43.3139572" lon="10.9063983"><ele>105.0</ele><time>2026-04-18T12:27:35.518Z</time></trkpt><trkpt lat="43.3138194" lon="10.9066839"><ele>105.0</ele><time>2026-04-18T12:27:36.523Z</time></trkpt><trkpt lat="43.3136932" lon="10.9069666"><ele>105.0</ele><time>2026-04-18T12:27:37.522Z</time></trkpt><trkpt lat="43.3135642" lon="10.9072274"><ele>105.0</ele><time>2026-04-18T12:27:38.516Z</time></trkpt><trkpt lat="43.3134419" lon="10.9074688"><ele>105.0</ele><time>2026-04-18T12:27:39.522Z</time></trkpt><trkpt lat="43.3133265" lon="10.9076992"><ele>105.0</ele><time>2026-04-18T12:27:40.525Z</time></trkpt><trkpt lat="43.3132143" lon="10.9079297"><ele>105.0</ele><time>2026-04-18T12:27:41.523Z</time></trkpt><trkpt lat="43.3131188" lon="10.9081435"><ele>105.0</ele><time>2026-04-18T12:27:42.519Z</time></trkpt><trkpt lat="43.3130107" lon="10.9083417"><ele>106.33333333333334</ele><time>2026-04-18T12:27:43.523Z</time></trkpt><trkpt lat="43.3129008" lon="10.9085286"><ele>107.66666666666667</ele><time>2026-04-18T12:27:44.525Z</time></trkpt><trkpt lat="43.3128022" lon="10.9087195"><ele>109.0</ele><time>2026-04-18T12:27:45.522Z</time></trkpt><trkpt lat="43.3127106" lon="10.9089"><ele>109.0</ele><time>2026-04-18T12:27:46.533Z</time></trkpt><trkpt lat="43.3126361" lon="10.9090675"><ele>109.0</ele><time>2026-04-18T12:27:47.525Z</time></trkpt><trkpt lat="43.3125495" lon="10.9092245"><ele>109.0</ele><time>2026-04-18T12:27:48.521Z</time></trkpt><trkpt lat="43.3124794" lon="10.9093436"><ele>109.0</ele><time>2026-04-18T12:27:49.516Z</time></trkpt><trkpt lat="43.3124373" lon="10.9094556"><ele>109.00000000000001</ele><time>2026-04-18T12:27:50.516Z</time></trkpt><trkpt lat="43.3123876" lon="10.9095516"><ele>109.0</ele><time>2026-04-18T12:27:51.508Z</time></trkpt><trkpt lat="43.3123547" lon="10.9096463"><ele>109.0</ele><time>2026-04-18T12:27:52.508Z</time></trkpt><trkpt lat="43.3123464" lon="10.9097362"><ele>109.0</ele><time>2026-04-18T12:27:53.52Z</time></trkpt><trkpt lat="43.3123181" lon="10.9098731"><ele>109.00000000000001</ele><time>2026-04-18T12:27:55.515Z</time></trkpt><trkpt lat="43.3123047" lon="10.9099873"><ele>109.0</ele><time>2026-04-18T12:27:57.52Z</time></trkpt><trkpt lat="43.3123104" lon="10.9101231"><ele>109.00000000000001</ele><time>2026-04-18T12:27:59.524Z</time></trkpt><trkpt lat="43.3123193" lon="10.9102132"><ele>109.0</ele><time>2026-04-18T12:28:00.529Z</time></trkpt><trkpt lat="43.3123313" lon="10.9102986"><ele>109.0</ele><time>2026-04-18T12:28:01.521Z</time></trkpt><trkpt lat="43.312345" lon="10.9103965"><ele>109.0</ele><time>2026-04-18T12:28:02.519Z</time></trkpt><trkpt lat="43.3123505" lon="10.9105003"><ele>109.00000000000001</ele><time>2026-04-18T12:28:03.524Z</time></trkpt><trkpt lat="43.3123559" lon="10.9106207"><ele>109.0</ele><time>2026-04-18T12:28:04.52Z</time></trkpt><trkpt lat="43.3123501" lon="10.9107546"><ele>108.75</ele><time>2026-04-18T12:28:05.52Z</time></trkpt><trkpt lat="43.3123311" lon="10.910913"><ele>108.5</ele><time>2026-04-18T12:28:06.512Z</time></trkpt><trkpt lat="43.312304" lon="10.9110646"><ele>108.25</ele><time>2026-04-18T12:28:07.518Z</time></trkpt><trkpt lat="43.3122721" lon="10.9112086"><ele>108.0</ele><time>2026-04-18T12:28:08.518Z</time></trkpt><trkpt lat="43.3122251" lon="10.91135"><ele>108.25</ele><time>2026-04-18T12:28:09.51Z</time></trkpt><trkpt lat="43.3121662" lon="10.9115013"><ele>108.5</ele><time>2026-04-18T12:28:10.515Z</time></trkpt><trkpt lat="43.3120906" lon="10.9116389"><ele>108.75</ele><time>2026-04-18T12:28:11.517Z</time></trkpt><trkpt lat="43.312012" lon="10.9117449"><ele>109.0</ele><time>2026-04-18T12:28:12.517Z</time></trkpt><trkpt lat="43.3119193" lon="10.91182"><ele>109.0</ele><time>2026-04-18T12:28:13.516Z</time></trkpt><trkpt lat="43.3118111" lon="10.9118791"><ele>109.0</ele><time>2026-04-18T12:28:14.507Z</time></trkpt><trkpt lat="43.3116872" lon="10.9119185"><ele>109.0</ele><time>2026-04-18T12:28:15.51Z</time></trkpt><trkpt lat="43.3115666" lon="10.9119349"><ele>109.0</ele><time>2026-04-18T12:28:16.514Z</time></trkpt><trkpt lat="43.3114421" lon="10.911943"><ele>109.16666666666667</ele><time>2026-04-18T12:28:17.512Z</time></trkpt><trkpt lat="43.3113443" lon="10.9119619"><ele>109.33333333333334</ele><time>2026-04-18T12:28:18.513Z</time></trkpt><trkpt lat="43.3112737" lon="10.9120004"><ele>109.5</ele><time>2026-04-18T12:28:19.509Z</time></trkpt><trkpt lat="43.3112178" lon="10.9120622"><ele>109.66666666666666</ele><time>2026-04-18T12:28:20.511Z</time></trkpt><trkpt lat="43.3111764" lon="10.9121531"><ele>109.83333333333333</ele><time>2026-04-18T12:28:21.509Z</time></trkpt><trkpt lat="43.3111379" lon="10.9122709"><ele>110.0</ele><time>2026-04-18T12:28:22.508Z</time></trkpt><trkpt lat="43.3111187" lon="10.9124096"><ele>110.0</ele><time>2026-04-18T12:28:23.509Z</time></trkpt><trkpt lat="43.3111111" lon="10.9125716"><ele>110.0</ele><time>2026-04-18T12:28:24.51Z</time></trkpt><trkpt lat="43.3111204" lon="10.9127539"><ele>110.0</ele><time>2026-04-18T12:28:25.506Z</time></trkpt><trkpt lat="43.3111358" lon="10.9129396"><ele>110.0</ele><time>2026-04-18T12:28:26.509Z</time></trkpt><trkpt lat="43.3111514" lon="10.9131437"><ele>110.33333333333333</ele><time>2026-04-18T12:28:27.509Z</time></trkpt><trkpt lat="43.311169" lon="10.913346"><ele>110.66666666666666</ele><time>2026-04-18T12:28:28.516Z</time></trkpt><trkpt lat="43.3111825" lon="10.9135638"><ele>111.0</ele><time>2026-04-18T12:28:29.509Z</time></trkpt><trkpt lat="43.3111844" lon="10.9137623"><ele>112.25</ele><time>2026-04-18T12:28:30.51Z</time></trkpt><trkpt lat="43.3111921" lon="10.9139233"><ele>113.5</ele><time>2026-04-18T12:28:31.507Z</time></trkpt><trkpt lat="43.3112014" lon="10.9140837"><ele>114.75</ele><time>2026-04-18T12:28:32.512Z</time></trkpt><trkpt lat="43.3112062" lon="10.9142447"><ele>116.0</ele><time>2026-04-18T12:28:33.513Z</time></trkpt><trkpt lat="43.3112117" lon="10.9143822"><ele>117.25</ele><time>2026-04-18T12:28:34.508Z</time></trkpt><trkpt lat="43.3112131" lon="10.9145232"><ele>118.5</ele><time>2026-04-18T12:28:35.513Z</time></trkpt><trkpt lat="43.3112104" lon="10.9146822"><ele>119.75</ele><time>2026-04-18T12:28:36.511Z</time></trkpt><trkpt lat="43.3112071" lon="10.9148597"><ele>121.0</ele><time>2026-04-18T12:28:37.502Z</time></trkpt><trkpt lat="43.3112103" lon="10.9150257"><ele>120.4</ele><time>2026-04-18T12:28:38.5Z</time></trkpt><trkpt lat="43.3112159" lon="10.9151868"><ele>119.8</ele><time>2026-04-18T12:28:39.501Z</time></trkpt><trkpt lat="43.3112187" lon="10.9153281"><ele>119.20000000000002</ele><time>2026-04-18T12:28:40.507Z</time></trkpt><trkpt lat="43.311228" lon="10.9154668"><ele>118.60000000000001</ele><time>2026-04-18T12:28:41.506Z</time></trkpt><trkpt lat="43.3112312" lon="10.9155844"><ele>118.0</ele><time>2026-04-18T12:28:42.507Z</time></trkpt><trkpt lat="43.3112208" lon="10.9156976"><ele>118.00000000000001</ele><time>2026-04-18T12:28:43.505Z</time></trkpt><trkpt lat="43.3112031" lon="10.9158014"><ele>118.0</ele><time>2026-04-18T12:28:44.508Z</time></trkpt><trkpt lat="43.3111764" lon="10.9158958"><ele>118.0</ele><time>2026-04-18T12:28:45.5Z</time></trkpt><trkpt lat="43.3111084" lon="10.9160469"><ele>118.0</ele><time>2026-04-18T12:28:47.502Z</time></trkpt><trkpt lat="43.3110644" lon="10.9161366"><ele>118.00000000000001</ele><time>2026-04-18T12:28:48.508Z</time></trkpt><trkpt lat="43.3110176" lon="10.9162375"><ele>118.0</ele><time>2026-04-18T12:28:49.495Z</time></trkpt><trkpt lat="43.3109718" lon="10.9163327"><ele>117.66666666666667</ele><time>2026-04-18T12:28:50.498Z</time></trkpt><trkpt lat="43.3109446" lon="10.9164447"><ele>117.33333333333334</ele><time>2026-04-18T12:28:51.503Z</time></trkpt><trkpt lat="43.3109352" lon="10.9165637"><ele>117.0</ele><time>2026-04-18T12:28:52.504Z</time></trkpt><trkpt lat="43.3109304" lon="10.916687"><ele>116.66666666666666</ele><time>2026-04-18T12:28:53.503Z</time></trkpt><trkpt lat="43.3109395" lon="10.916805"><ele>116.33333333333333</ele><time>2026-04-18T12:28:54.512Z</time></trkpt><trkpt lat="43.3109493" lon="10.9169075"><ele>116.0</ele><time>2026-04-18T12:28:55.507Z</time></trkpt><trkpt lat="43.3109424" lon="10.9170139"><ele>115.6</ele><time>2026-04-18T12:28:56.498Z</time></trkpt><trkpt lat="43.3109185" lon="10.9171006"><ele>115.19999999999999</ele><time>2026-04-18T12:28:57.5Z</time></trkpt><trkpt lat="43.3108439" lon="10.9172017"><ele>114.80000000000001</ele><time>2026-04-18T12:28:59.501Z</time></trkpt><trkpt lat="43.3107852" lon="10.917311"><ele>114.4</ele><time>2026-04-18T12:29:01.503Z</time></trkpt><trkpt lat="43.3107687" lon="10.9174885"><ele>114.0</ele><time>2026-04-18T12:29:03.507Z</time></trkpt><trkpt lat="43.3107722" lon="10.9175901"><ele>113.83333333333333</ele><time>2026-04-18T12:29:04.504Z</time></trkpt><trkpt lat="43.3107808" lon="10.9177031"><ele>113.66666666666666</ele><time>2026-04-18T12:29:05.507Z</time></trkpt><trkpt lat="43.3107937" lon="10.9178244"><ele>113.5</ele><time>2026-04-18T12:29:06.504Z</time></trkpt><trkpt lat="43.3108399" lon="10.9179306"><ele>113.33333333333333</ele><time>2026-04-18T12:29:07.508Z</time></trkpt><trkpt lat="43.3108878" lon="10.9180284"><ele>113.16666666666666</ele><time>2026-04-18T12:29:08.511Z</time></trkpt><trkpt lat="43.3109263" lon="10.9181329"><ele>113.0</ele><time>2026-04-18T12:29:09.509Z</time></trkpt><trkpt lat="43.3109483" lon="10.9182212"><ele>113.0</ele><time>2026-04-18T12:29:10.515Z</time></trkpt><trkpt lat="43.3109683" lon="10.9183911"><ele>113.00000000000001</ele><time>2026-04-18T12:29:12.5Z</time></trkpt><trkpt lat="43.3109462" lon="10.9185033"><ele>113.00000000000001</ele><time>2026-04-18T12:29:13.503Z</time></trkpt><trkpt lat="43.3109308" lon="10.9186244"><ele>113.0</ele><time>2026-04-18T12:29:14.513Z</time></trkpt><trkpt lat="43.3109133" lon="10.9187643"><ele>113.0</ele><time>2026-04-18T12:29:15.511Z</time></trkpt><trkpt lat="43.3109086" lon="10.9188869"><ele>113.16666666666666</ele><time>2026-04-18T12:29:16.524Z</time></trkpt><trkpt lat="43.3108975" lon="10.919027"><ele>113.33333333333333</ele><time>2026-04-18T12:29:17.51Z</time></trkpt><trkpt lat="43.3108988" lon="10.919169"><ele>113.5</ele><time>2026-04-18T12:29:18.511Z</time></trkpt><trkpt lat="43.3109023" lon="10.9192924"><ele>113.66666666666666</ele><time>2026-04-18T12:29:19.512Z</time></trkpt><trkpt lat="43.3108922" lon="10.9194052"><ele>113.83333333333333</ele><time>2026-04-18T12:29:20.508Z</time></trkpt><trkpt lat="43.3108811" lon="10.9195016"><ele>114.0</ele><time>2026-04-18T12:29:21.512Z</time></trkpt><trkpt lat="43.3108739" lon="10.9196095"><ele>114.2</ele><time>2026-04-18T12:29:22.512Z</time></trkpt><trkpt lat="43.3108463" lon="10.919734"><ele>114.4</ele><time>2026-04-18T12:29:23.51Z</time></trkpt><trkpt lat="43.3108149" lon="10.9198492"><ele>114.6</ele><time>2026-04-18T12:29:24.517Z</time></trkpt><trkpt lat="43.3107856" lon="10.9199373"><ele>114.8</ele><time>2026-04-18T12:29:25.508Z</time></trkpt><trkpt lat="43.3107131" lon="10.9200574"><ele>115.0</ele><time>2026-04-18T12:29:27.515Z</time></trkpt><trkpt lat="43.3106359" lon="10.9201243"><ele>115.2</ele><time>2026-04-18T12:29:29.513Z</time></trkpt><trkpt lat="43.3105728" lon="10.9202239"><ele>115.4</ele><time>2026-04-18T12:29:31.505Z</time></trkpt><trkpt lat="43.3105008" lon="10.9203506"><ele>115.6</ele><time>2026-04-18T12:29:33.514Z</time></trkpt><trkpt lat="43.3104592" lon="10.9204721"><ele>115.8</ele><time>2026-04-18T12:29:35.517Z</time></trkpt><trkpt lat="43.3104679" lon="10.9206013"><ele>116.0</ele><time>2026-04-18T12:29:37.507Z</time></trkpt><trkpt lat="43.3105028" lon="10.9206779"><ele>115.99999999999999</ele><time>2026-04-18T12:29:38.516Z</time></trkpt><trkpt lat="43.3105355" lon="10.9207536"><ele>116.0</ele><time>2026-04-18T12:29:39.515Z</time></trkpt><trkpt lat="43.3105662" lon="10.9208896"><ele>116.0</ele><time>2026-04-18T12:29:41.512Z</time></trkpt><trkpt lat="43.3105716" lon="10.9209888"><ele>116.0</ele><time>2026-04-18T12:29:43.519Z</time></trkpt><trkpt lat="43.3105491" lon="10.9210778"><ele>115.99999999999999</ele><time>2026-04-18T12:29:45.521Z</time></trkpt><trkpt lat="43.3104824" lon="10.9211987"><ele>116.0</ele><time>2026-04-18T12:29:47.521Z</time></trkpt><trkpt lat="43.3104293" lon="10.9212453"><ele>116.0</ele><time>2026-04-18T12:29:48.533Z</time></trkpt><trkpt lat="43.3103319" lon="10.9213147"><ele>116.0</ele><time>2026-04-18T12:29:50.519Z</time></trkpt><trkpt lat="43.3102585" lon="10.9213901"><ele>116.0</ele><time>2026-04-18T12:29:52.531Z</time></trkpt><trkpt lat="43.3102166" lon="10.9214926"><ele>116.0</ele><time>2026-04-18T12:29:54.524Z</time></trkpt><trkpt lat="43.3101917" lon="10.9216342"><ele>116.0</ele><time>2026-04-18T12:29:56.521Z</time></trkpt><trkpt lat="43.3101697" lon="10.9217533"><ele>115.8</ele><time>2026-04-18T12:29:58.524Z</time></trkpt><trkpt lat="43.3101347" lon="10.9219016"><ele>115.6</ele><time>2026-04-18T12:30:00.521Z</time></trkpt><trkpt lat="43.3101019" lon="10.922025"><ele>115.4</ele><time>2026-04-18T12:30:02.516Z</time></trkpt><trkpt lat="43.3100647" lon="10.9221473"><ele>115.2</ele><time>2026-04-18T12:30:04.513Z</time></trkpt><trkpt lat="43.3100237" lon="10.9222429"><ele>115.0</ele><time>2026-04-18T12:30:06.515Z</time></trkpt><trkpt lat="43.3099769" lon="10.9223141"><ele>114.99999999999999</ele><time>2026-04-18T12:30:08.524Z</time></trkpt><trkpt lat="43.3099302" lon="10.9223855"><ele>115.0</ele><time>2026-04-18T12:30:10.524Z</time></trkpt><trkpt lat="43.3099121" lon="10.9224765"><ele>114.99999999999999</ele><time>2026-04-18T12:30:12.515Z</time></trkpt><trkpt lat="43.3098872" lon="10.9225658"><ele>114.99999999999999</ele><time>2026-04-18T12:30:15.514Z</time></trkpt><trkpt lat="43.3098836" lon="10.922658"><ele>115.0</ele><time>2026-04-18T12:34:17.53Z</time></trkpt><trkpt lat="43.3098619" lon="10.9227403"><ele>114.99999999999999</ele><time>2026-04-18T12:34:19.53Z</time></trkpt><trkpt lat="43.3098203" lon="10.922821"><ele>114.99999999999999</ele><time>2026-04-18T12:34:21.528Z</time></trkpt><trkpt lat="43.3097884" lon="10.9229288"><ele>114.85714285714283</ele><time>2026-04-18T12:34:24.53Z</time></trkpt><trkpt lat="43.309747" lon="10.9229961"><ele>114.71428571428571</ele><time>2026-04-18T12:34:26.528Z</time></trkpt><trkpt lat="43.3097033" lon="10.9230819"><ele>114.57142857142856</ele><time>2026-04-18T12:34:28.539Z</time></trkpt><trkpt lat="43.3096731" lon="10.9231655"><ele>114.42857142857142</ele><time>2026-04-18T12:34:30.53Z</time></trkpt><trkpt lat="43.309632" lon="10.923246"><ele>114.28571428571428</ele><time>2026-04-18T12:34:32.528Z</time></trkpt><trkpt lat="43.3095978" lon="10.9233378"><ele>114.14285714285714</ele><time>2026-04-18T12:34:34.524Z</time></trkpt><trkpt lat="43.3095508" lon="10.92343"><ele>114.0</ele><time>2026-04-18T12:34:36.524Z</time></trkpt><trkpt lat="43.3095022" lon="10.9235514"><ele>114.4</ele><time>2026-04-18T12:34:38.525Z</time></trkpt><trkpt lat="43.3094508" lon="10.9236772"><ele>114.80000000000001</ele><time>2026-04-18T12:34:40.533Z</time></trkpt><trkpt lat="43.3094091" lon="10.9237547"><ele>115.19999999999999</ele><time>2026-04-18T12:34:42.524Z</time></trkpt><trkpt lat="43.3094165" lon="10.9238828"><ele>115.6</ele><time>2026-04-18T12:34:44.516Z</time></trkpt><trkpt lat="43.3094322" lon="10.9240191"><ele>116.0</ele><time>2026-04-18T12:34:46.519Z</time></trkpt><trkpt lat="43.3094219" lon="10.9241527"><ele>115.8</ele><time>2026-04-18T12:34:49.509Z</time></trkpt><trkpt lat="43.3094843" lon="10.9242801"><ele>115.6</ele><time>2026-04-18T12:34:51.497Z</time></trkpt><trkpt lat="43.3095375" lon="10.9243767"><ele>115.4</ele><time>2026-04-18T12:34:52.508Z</time></trkpt><trkpt lat="43.30958" lon="10.9244766"><ele>115.2</ele><time>2026-04-18T12:34:53.512Z</time></trkpt><trkpt lat="43.3096108" lon="10.9245718"><ele>115.0</ele><time>2026-04-18T12:34:54.504Z</time></trkpt><trkpt lat="43.3096319" lon="10.9246933"><ele>115.0</ele><time>2026-04-18T12:34:55.51Z</time></trkpt><trkpt lat="43.3096634" lon="10.924822"><ele>115.0</ele><time>2026-04-18T12:34:56.515Z</time></trkpt><trkpt lat="43.3096979" lon="10.9249485"><ele>115.0</ele><time>2026-04-18T12:34:57.518Z</time></trkpt><trkpt lat="43.3097344" lon="10.9250535"><ele>115.0</ele><time>2026-04-18T12:34:58.516Z</time></trkpt><trkpt lat="43.3097689" lon="10.9251682"><ele>115.0</ele><time>2026-04-18T12:34:59.512Z</time></trkpt><trkpt lat="43.3098093" lon="10.9252785"><ele>115.8</ele><time>2026-04-18T12:35:00.522Z</time></trkpt><trkpt lat="43.309852" lon="10.9253892"><ele>116.6</ele><time>2026-04-18T12:35:01.514Z</time></trkpt><trkpt lat="43.3098958" lon="10.9254981"><ele>117.4</ele><time>2026-04-18T12:35:02.514Z</time></trkpt><trkpt lat="43.3099357" lon="10.9256066"><ele>118.2</ele><time>2026-04-18T12:35:03.521Z</time></trkpt><trkpt lat="43.3099679" lon="10.9256989"><ele>119.0</ele><time>2026-04-18T12:35:04.514Z</time></trkpt><trkpt lat="43.3100099" lon="10.9258375"><ele>119.0</ele><time>2026-04-18T12:35:06.513Z</time></trkpt><trkpt lat="43.3100677" lon="10.9259362"><ele>119.0</ele><time>2026-04-18T12:35:08.516Z</time></trkpt><trkpt lat="43.3101617" lon="10.9259868"><ele>119.0</ele><time>2026-04-18T12:35:10.506Z</time></trkpt><trkpt lat="43.3102607" lon="10.925974"><ele>119.0</ele><time>2026-04-18T12:35:12.517Z</time></trkpt><trkpt lat="43.3103251" lon="10.9259663"><ele>119.0</ele><time>2026-04-18T12:35:14.524Z</time></trkpt><trkpt lat="43.3104283" lon="10.925935"><ele>118.99999999999999</ele><time>2026-04-18T12:35:18.52Z</time></trkpt><trkpt lat="43.3104997" lon="10.9259207"><ele>119.0</ele><time>2026-04-18T12:35:20.523Z</time></trkpt><trkpt lat="43.3105832" lon="10.9258822"><ele>119.0</ele><time>2026-04-18T12:35:24.526Z</time></trkpt><trkpt lat="43.3106678" lon="10.9258508"><ele>119.0</ele><time>2026-04-18T12:35:27.523Z</time></trkpt><trkpt lat="43.3107511" lon="10.9258369"><ele>118.99999999999999</ele><time>2026-04-18T12:35:29.518Z</time></trkpt><trkpt lat="43.3108212" lon="10.9258378"><ele>119.0</ele><time>2026-04-18T12:35:30.526Z</time></trkpt><trkpt lat="43.3109419" lon="10.9258731"><ele>118.75</ele><time>2026-04-18T12:35:32.521Z</time></trkpt><trkpt lat="43.3110546" lon="10.9259236"><ele>118.5</ele><time>2026-04-18T12:35:34.517Z</time></trkpt><trkpt lat="43.3111668" lon="10.9259602"><ele>118.25</ele><time>2026-04-18T12:35:36.52Z</time></trkpt><trkpt lat="43.3112903" lon="10.925944"><ele>118.0</ele><time>2026-04-18T12:35:38.522Z</time></trkpt><trkpt lat="43.311402" lon="10.9259062"><ele>118.00000000000001</ele><time>2026-04-18T12:35:40.521Z</time></trkpt><trkpt lat="43.311512" lon="10.9258558"><ele>118.0</ele><time>2026-04-18T12:35:42.52Z</time></trkpt><trkpt lat="43.3115946" lon="10.9257927"><ele>118.0</ele><time>2026-04-18T12:35:44.518Z</time></trkpt><trkpt lat="43.3116524" lon="10.92575"><ele>118.0</ele><time>2026-04-18T12:35:46.513Z</time></trkpt><trkpt lat="43.311707" lon="10.9256996"><ele>118.00000000000001</ele><time>2026-04-18T12:35:48.506Z</time></trkpt><trkpt lat="43.3117658" lon="10.9256445"><ele>118.0</ele><time>2026-04-18T12:35:50.51Z</time></trkpt><trkpt lat="43.3118458" lon="10.925643"><ele>118.00000000000001</ele><time>2026-04-18T12:35:54.508Z</time></trkpt><trkpt lat="43.311914" lon="10.9256443"><ele>118.0</ele><time>2026-04-18T12:35:56.515Z</time></trkpt><trkpt lat="43.3119831" lon="10.92563"><ele>118.0</ele><time>2026-04-18T12:35:58.521Z</time></trkpt><trkpt lat="43.3120648" lon="10.9255596"><ele>118.0</ele><time>2026-04-18T12:36:00.513Z</time></trkpt><trkpt lat="43.3121183" lon="10.9254631"><ele>118.00000000000001</ele><time>2026-04-18T12:36:02.512Z</time></trkpt><trkpt lat="43.3121874" lon="10.9253572"><ele>118.0</ele><time>2026-04-18T12:36:04.512Z</time></trkpt><trkpt lat="43.3122764" lon="10.9252591"><ele>118.25</ele><time>2026-04-18T12:36:06.51Z</time></trkpt><trkpt lat="43.3123823" lon="10.9251688"><ele>118.5</ele><time>2026-04-18T12:36:08.509Z</time></trkpt><trkpt lat="43.3124795" lon="10.9250696"><ele>118.75</ele><time>2026-04-18T12:36:10.512Z</time></trkpt><trkpt lat="43.3125554" lon="10.9249881"><ele>119.0</ele><time>2026-04-18T12:36:12.516Z</time></trkpt><trkpt lat="43.3126788" lon="10.9248832"><ele>119.16666666666666</ele><time>2026-04-18T12:36:14.514Z</time></trkpt><trkpt lat="43.3127528" lon="10.9248181"><ele>119.33333333333333</ele><time>2026-04-18T12:36:15.513Z</time></trkpt><trkpt lat="43.3128315" lon="10.9247585"><ele>119.5</ele><time>2026-04-18T12:36:16.516Z</time></trkpt><trkpt lat="43.312905" lon="10.924696"><ele>119.66666666666666</ele><time>2026-04-18T12:36:17.525Z</time></trkpt><trkpt lat="43.3129759" lon="10.9246282"><ele>119.83333333333333</ele><time>2026-04-18T12:36:18.509Z</time></trkpt><trkpt lat="43.3130335" lon="10.9245722"><ele>120.0</ele><time>2026-04-18T12:36:19.511Z</time></trkpt><trkpt lat="43.3130966" lon="10.924514"><ele>120.0</ele><time>2026-04-18T12:36:20.515Z</time></trkpt><trkpt lat="43.3131533" lon="10.9244601"><ele>120.0</ele><time>2026-04-18T12:36:21.51Z</time></trkpt><trkpt lat="43.313214" lon="10.9244056"><ele>120.0</ele><time>2026-04-18T12:36:22.521Z</time></trkpt><trkpt lat="43.3132655" lon="10.9243555"><ele>120.0</ele><time>2026-04-18T12:36:23.516Z</time></trkpt><trkpt lat="43.3133252" lon="10.9243105"><ele>120.0</ele><time>2026-04-18T12:36:24.519Z</time></trkpt><trkpt lat="43.3134239" lon="10.9242209"><ele>120.0</ele><time>2026-04-18T12:36:26.514Z</time></trkpt><trkpt lat="43.3134746" lon="10.924165"><ele>119.16666666666667</ele><time>2026-04-18T12:36:27.517Z</time></trkpt><trkpt lat="43.3135476" lon="10.9241015"><ele>118.33333333333334</ele><time>2026-04-18T12:36:29.513Z</time></trkpt><trkpt lat="43.3136059" lon="10.9240508"><ele>117.5</ele><time>2026-04-18T12:36:31.514Z</time></trkpt><trkpt lat="43.3136649" lon="10.9240074"><ele>116.66666666666667</ele><time>2026-04-18T12:36:33.516Z</time></trkpt><trkpt lat="43.3137424" lon="10.9239699"><ele>115.83333333333334</ele><time>2026-04-18T12:36:36.508Z</time></trkpt><trkpt lat="43.3138141" lon="10.924031"><ele>115.0</ele><time>2026-04-18T12:36:38.51Z</time></trkpt><trkpt lat="43.3139009" lon="10.9241663"><ele>116.83333333333334</ele><time>2026-04-18T12:36:40.518Z</time></trkpt><trkpt lat="43.3139472" lon="10.9242486"><ele>118.66666666666667</ele><time>2026-04-18T12:36:41.515Z</time></trkpt><trkpt lat="43.3140031" lon="10.9243255"><ele>120.5</ele><time>2026-04-18T12:36:42.52Z</time></trkpt><trkpt lat="43.3140516" lon="10.9243882"><ele>122.33333333333334</ele><time>2026-04-18T12:36:43.508Z</time></trkpt><trkpt lat="43.3141342" lon="10.9244572"><ele>124.16666666666667</ele><time>2026-04-18T12:36:45.507Z</time></trkpt><trkpt lat="43.3142066" lon="10.9244765"><ele>126.0</ele><time>2026-04-18T12:36:47.508Z</time></trkpt><trkpt lat="43.3143198" lon="10.9244385"><ele>126.0</ele><time>2026-04-18T12:36:49.499Z</time></trkpt><trkpt lat="43.3144089" lon="10.9243961"><ele>126.0</ele><time>2026-04-18T12:36:51.511Z</time></trkpt><trkpt lat="43.3144803" lon="10.9243355"><ele>126.0</ele><time>2026-04-18T12:36:53.51Z</time></trkpt><trkpt lat="43.3145451" lon="10.9243027"><ele>126.0</ele><time>2026-04-18T12:36:55.523Z</time></trkpt><trkpt lat="43.3146254" lon="10.9243097"><ele>126.0</ele><time>2026-04-18T12:37:00.521Z</time></trkpt><trkpt lat="43.3146941" lon="10.9243073"><ele>126.0</ele><time>2026-04-18T12:37:47.512Z</time></trkpt><trkpt lat="43.3147751" lon="10.9243232"><ele>126.19999999999999</ele><time>2026-04-18T12:37:50.512Z</time></trkpt><trkpt lat="43.314847" lon="10.9242955"><ele>126.39999999999999</ele><time>2026-04-18T12:37:52.51Z</time></trkpt><trkpt lat="43.3149206" lon="10.9242088"><ele>126.6</ele><time>2026-04-18T12:37:54.514Z</time></trkpt><trkpt lat="43.3150167" lon="10.9241269"><ele>126.8</ele><time>2026-04-18T12:37:56.512Z</time></trkpt><trkpt lat="43.3151066" lon="10.9240264"><ele>127.0</ele><time>2026-04-18T12:37:58.518Z</time></trkpt><trkpt lat="43.315192" lon="10.9239498"><ele>127.0</ele><time>2026-04-18T12:38:00.519Z</time></trkpt><trkpt lat="43.3152854" lon="10.9239212"><ele>126.99999999999999</ele><time>2026-04-18T12:38:02.516Z</time></trkpt><trkpt lat="43.3153885" lon="10.923927"><ele>126.99999999999999</ele><time>2026-04-18T12:38:04.506Z</time></trkpt><trkpt lat="43.3154999" lon="10.9239413"><ele>127.0</ele><time>2026-04-18T12:38:06.508Z</time></trkpt><trkpt lat="43.3156139" lon="10.9239556"><ele>127.0</ele><time>2026-04-18T12:38:08.514Z</time></trkpt><trkpt lat="43.3157139" lon="10.923992"><ele>129.16666666666669</ele><time>2026-04-18T12:38:10.514Z</time></trkpt><trkpt lat="43.3157896" lon="10.9240109"><ele>131.33333333333334</ele><time>2026-04-18T12:38:12.514Z</time></trkpt><trkpt lat="43.3158848" lon="10.9240105"><ele>133.5</ele><time>2026-04-18T12:38:14.511Z</time></trkpt><trkpt lat="43.3159751" lon="10.9239278"><ele>135.66666666666666</ele><time>2026-04-18T12:38:16.512Z</time></trkpt><trkpt lat="43.3160283" lon="10.9238646"><ele>137.83333333333331</ele><time>2026-04-18T12:38:17.516Z</time></trkpt><trkpt lat="43.3160896" lon="10.9238123"><ele>140.0</ele><time>2026-04-18T12:38:18.513Z</time></trkpt><trkpt lat="43.3161439" lon="10.9237522"><ele>140.0</ele><time>2026-04-18T12:38:19.518Z</time></trkpt><trkpt lat="43.3161941" lon="10.9236913"><ele>140.0</ele><time>2026-04-18T12:38:20.514Z</time></trkpt><trkpt lat="43.316284" lon="10.9236183"><ele>140.0</ele><time>2026-04-18T12:38:22.518Z</time></trkpt><trkpt lat="43.3163482" lon="10.923576"><ele>140.0</ele><time>2026-04-18T12:38:23.518Z</time></trkpt><trkpt lat="43.3164065" lon="10.9235251"><ele>140.0</ele><time>2026-04-18T12:38:24.513Z</time></trkpt><trkpt lat="43.3164662" lon="10.9234831"><ele>140.0</ele><time>2026-04-18T12:38:25.514Z</time></trkpt><trkpt lat="43.316559" lon="10.9234269"><ele>143.75</ele><time>2026-04-18T12:38:27.516Z</time></trkpt><trkpt lat="43.3166794" lon="10.9234151"><ele>147.5</ele><time>2026-04-18T12:38:29.514Z</time></trkpt><trkpt lat="43.3167921" lon="10.9234129"><ele>151.25</ele><time>2026-04-18T12:38:31.514Z</time></trkpt><trkpt lat="43.3169045" lon="10.9234303"><ele>155.0</ele><time>2026-04-18T12:38:33.513Z</time></trkpt><trkpt lat="43.3170138" lon="10.9234478"><ele>155.0</ele><time>2026-04-18T12:38:35.514Z</time></trkpt><trkpt lat="43.3171224" lon="10.9234015"><ele>155.0</ele><time>2026-04-18T12:38:37.515Z</time></trkpt><trkpt lat="43.3172068" lon="10.9233232"><ele>155.0</ele><time>2026-04-18T12:38:39.507Z</time></trkpt><trkpt lat="43.3172926" lon="10.923204"><ele>155.0</ele><time>2026-04-18T12:38:41.512Z</time></trkpt><trkpt lat="43.3173732" lon="10.9230926"><ele>157.16666666666666</ele><time>2026-04-18T12:38:43.521Z</time></trkpt><trkpt lat="43.3174511" lon="10.9230137"><ele>159.33333333333331</ele><time>2026-04-18T12:38:45.512Z</time></trkpt><trkpt lat="43.3175042" lon="10.92296"><ele>161.5</ele><time>2026-04-18T12:38:46.514Z</time></trkpt><trkpt lat="43.3175732" lon="10.922913"><ele>163.66666666666666</ele><time>2026-04-18T12:38:47.518Z</time></trkpt><trkpt lat="43.3176409" lon="10.9228671"><ele>165.83333333333334</ele><time>2026-04-18T12:38:48.518Z</time></trkpt><trkpt lat="43.3177115" lon="10.9228184"><ele>168.0</ele><time>2026-04-18T12:38:49.517Z</time></trkpt><trkpt lat="43.317791" lon="10.922776"><ele>168.0</ele><time>2026-04-18T12:38:50.519Z</time></trkpt><trkpt lat="43.3178617" lon="10.9227423"><ele>168.0</ele><time>2026-04-18T12:38:51.52Z</time></trkpt><trkpt lat="43.317928" lon="10.9227081"><ele>168.0</ele><time>2026-04-18T12:38:52.523Z</time></trkpt><trkpt lat="43.3179892" lon="10.9226823"><ele>168.0</ele><time>2026-04-18T12:38:53.52Z</time></trkpt><trkpt lat="43.3180524" lon="10.9226529"><ele>168.0</ele><time>2026-04-18T12:38:54.53Z</time></trkpt><trkpt lat="43.3181231" lon="10.9226271"><ele>168.0</ele><time>2026-04-18T12:38:55.521Z</time></trkpt><trkpt lat="43.3181856" lon="10.9226103"><ele>168.0</ele><time>2026-04-18T12:38:56.522Z</time></trkpt><trkpt lat="43.3182859" lon="10.922578"><ele>171.60000000000002</ele><time>2026-04-18T12:38:58.523Z</time></trkpt><trkpt lat="43.3184255" lon="10.9225466"><ele>175.20000000000002</ele><time>2026-04-18T12:39:00.525Z</time></trkpt><trkpt lat="43.3184971" lon="10.9225203"><ele>178.8</ele><time>2026-04-18T12:39:01.521Z</time></trkpt><trkpt lat="43.3185891" lon="10.9224885"><ele>182.4</ele><time>2026-04-18T12:39:02.53Z</time></trkpt><trkpt lat="43.3186719" lon="10.9224575"><ele>186.0</ele><time>2026-04-18T12:39:03.52Z</time></trkpt><trkpt lat="43.3187453" lon="10.9224178"><ele>186.0</ele><time>2026-04-18T12:39:04.52Z</time></trkpt><trkpt lat="43.3188143" lon="10.9223739"><ele>186.0</ele><time>2026-04-18T12:39:05.52Z</time></trkpt><trkpt lat="43.3188751" lon="10.922324"><ele>186.0</ele><time>2026-04-18T12:39:06.522Z</time></trkpt><trkpt lat="43.3189449" lon="10.9222777"><ele>186.0</ele><time>2026-04-18T12:39:07.518Z</time></trkpt><trkpt lat="43.319017" lon="10.9222321"><ele>186.0</ele><time>2026-04-18T12:39:08.526Z</time></trkpt><trkpt lat="43.3190948" lon="10.9222037"><ele>186.0</ele><time>2026-04-18T12:39:09.516Z</time></trkpt><trkpt lat="43.3191826" lon="10.9221768"><ele>188.4</ele><time>2026-04-18T12:39:10.517Z</time></trkpt><trkpt lat="43.3192704" lon="10.9221661"><ele>190.8</ele><time>2026-04-18T12:39:11.517Z</time></trkpt><trkpt lat="43.3193637" lon="10.9221583"><ele>193.20000000000002</ele><time>2026-04-18T12:39:12.515Z</time></trkpt><trkpt lat="43.3194544" lon="10.9221626"><ele>195.60000000000002</ele><time>2026-04-18T12:39:13.519Z</time></trkpt><trkpt lat="43.3195466" lon="10.9221661"><ele>198.0</ele><time>2026-04-18T12:39:14.514Z</time></trkpt><trkpt lat="43.3196423" lon="10.9221767"><ele>198.0</ele><time>2026-04-18T12:39:15.517Z</time></trkpt><trkpt lat="43.3197325" lon="10.9221869"><ele>198.0</ele><time>2026-04-18T12:39:16.526Z</time></trkpt><trkpt lat="43.3198263" lon="10.9221993"><ele>198.0</ele><time>2026-04-18T12:39:17.52Z</time></trkpt><trkpt lat="43.3199125" lon="10.9222115"><ele>198.0</ele><time>2026-04-18T12:39:18.524Z</time></trkpt><trkpt lat="43.3199999" lon="10.9222166"><ele>198.0</ele><time>2026-04-18T12:39:19.523Z</time></trkpt><trkpt lat="43.3200837" lon="10.9222224"><ele>198.0</ele><time>2026-04-18T12:39:20.525Z</time></trkpt><trkpt lat="43.3201601" lon="10.9222251"><ele>200.0</ele><time>2026-04-18T12:39:21.524Z</time></trkpt><trkpt lat="43.3202383" lon="10.9222207"><ele>202.0</ele><time>2026-04-18T12:39:22.53Z</time></trkpt><trkpt lat="43.3203013" lon="10.9222168"><ele>204.0</ele><time>2026-04-18T12:39:23.526Z</time></trkpt><trkpt lat="43.3204319" lon="10.9222233"><ele>206.0</ele><time>2026-04-18T12:39:25.523Z</time></trkpt><trkpt lat="43.3205034" lon="10.9222289"><ele>208.0</ele><time>2026-04-18T12:39:26.525Z</time></trkpt><trkpt lat="43.3205766" lon="10.9222346"><ele>210.0</ele><time>2026-04-18T12:39:27.525Z</time></trkpt><trkpt lat="43.3206538" lon="10.9222371"><ele>211.83333333333334</ele><time>2026-04-18T12:39:28.524Z</time></trkpt><trkpt lat="43.3207332" lon="10.9222371"><ele>213.66666666666669</ele><time>2026-04-18T12:39:29.528Z</time></trkpt><trkpt lat="43.3208092" lon="10.9222371"><ele>215.5</ele><time>2026-04-18T12:39:30.524Z</time></trkpt><trkpt lat="43.320872" lon="10.9222455"><ele>217.33333333333334</ele><time>2026-04-18T12:39:31.516Z</time></trkpt><trkpt lat="43.3209646" lon="10.9222685"><ele>219.16666666666669</ele><time>2026-04-18T12:39:33.516Z</time></trkpt><trkpt lat="43.3210384" lon="10.9223447"><ele>221.0</ele><time>2026-04-18T12:39:35.52Z</time></trkpt><trkpt lat="43.3211102" lon="10.9223915"><ele>221.00000000000003</ele><time>2026-04-18T12:39:37.511Z</time></trkpt><trkpt lat="43.3211781" lon="10.9223574"><ele>221.0</ele><time>2026-04-18T12:39:40.518Z</time></trkpt><trkpt lat="43.3212332" lon="10.9223066"><ele>221.0</ele><time>2026-04-18T12:39:44.525Z</time></trkpt><trkpt lat="43.3213072" lon="10.9222707"><ele>221.0</ele><time>2026-04-18T12:40:42.514Z</time></trkpt><trkpt lat="43.321375" lon="10.9222512"><ele>221.00000000000003</ele><time>2026-04-18T12:40:44.517Z</time></trkpt><trkpt lat="43.3214759" lon="10.9222308"><ele>221.0</ele><time>2026-04-18T12:40:46.53Z</time></trkpt><trkpt lat="43.3215655" lon="10.9222175"><ele>220.60000000000002</ele><time>2026-04-18T12:40:48.516Z</time></trkpt><trkpt lat="43.32167" lon="10.9221903"><ele>220.20000000000002</ele><time>2026-04-18T12:40:50.515Z</time></trkpt><trkpt lat="43.3217746" lon="10.92217"><ele>219.79999999999998</ele><time>2026-04-18T12:40:52.523Z</time></trkpt><trkpt lat="43.3218768" lon="10.9221684"><ele>219.39999999999998</ele><time>2026-04-18T12:40:54.512Z</time></trkpt><trkpt lat="43.3219851" lon="10.9221867"><ele>219.0</ele><time>2026-04-18T12:40:56.513Z</time></trkpt><trkpt lat="43.3220911" lon="10.9222246"><ele>219.0</ele><time>2026-04-18T12:40:58.519Z</time></trkpt><trkpt lat="43.3221843" lon="10.9222799"><ele>218.99999999999997</ele><time>2026-04-18T12:41:00.517Z</time></trkpt><trkpt lat="43.3222861" lon="10.9222974"><ele>218.99999999999997</ele><time>2026-04-18T12:41:02.508Z</time></trkpt><trkpt lat="43.322381" lon="10.922267"><ele>219.0</ele><time>2026-04-18T12:41:04.515Z</time></trkpt><trkpt lat="43.3224589" lon="10.9222646"><ele>219.0</ele><time>2026-04-18T12:41:06.518Z</time></trkpt><trkpt lat="43.3225366" lon="10.9222652"><ele>217.33333333333334</ele><time>2026-04-18T12:41:08.524Z</time></trkpt><trkpt lat="43.3226172" lon="10.9222433"><ele>215.66666666666669</ele><time>2026-04-18T12:41:10.523Z</time></trkpt><trkpt lat="43.3226945" lon="10.9221943"><ele>214.0</ele><time>2026-04-18T12:41:12.52Z</time></trkpt><trkpt lat="43.3227614" lon="10.9221149"><ele>212.33333333333334</ele><time>2026-04-18T12:41:14.518Z</time></trkpt><trkpt lat="43.3228001" lon="10.922026"><ele>210.66666666666669</ele><time>2026-04-18T12:41:16.532Z</time></trkpt><trkpt lat="43.3228302" lon="10.9219166"><ele>209.0</ele><time>2026-04-18T12:41:18.518Z</time></trkpt><trkpt lat="43.3228626" lon="10.9218178"><ele>207.83333333333334</ele><time>2026-04-18T12:41:20.516Z</time></trkpt><trkpt lat="43.3228856" lon="10.9217299"><ele>206.66666666666669</ele><time>2026-04-18T12:41:22.512Z</time></trkpt><trkpt lat="43.3229271" lon="10.9216448"><ele>205.5</ele><time>2026-04-18T12:41:24.511Z</time></trkpt><trkpt lat="43.3229689" lon="10.9215684"><ele>204.33333333333331</ele><time>2026-04-18T12:41:26.513Z</time></trkpt><trkpt lat="43.323016" lon="10.9214781"><ele>203.16666666666666</ele><time>2026-04-18T12:41:28.518Z</time></trkpt><trkpt lat="43.3230648" lon="10.9213876"><ele>202.0</ele><time>2026-04-18T12:41:30.518Z</time></trkpt><trkpt lat="43.3231147" lon="10.9213087"><ele>200.2</ele><time>2026-04-18T12:41:32.518Z</time></trkpt><trkpt lat="43.3231945" lon="10.921209"><ele>198.39999999999998</ele><time>2026-04-18T12:41:34.514Z</time></trkpt><trkpt lat="43.3232766" lon="10.9211234"><ele>196.60000000000002</ele><time>2026-04-18T12:41:36.517Z</time></trkpt><trkpt lat="43.3233664" lon="10.9210437"><ele>194.8</ele><time>2026-04-18T12:41:38.518Z</time></trkpt><trkpt lat="43.3234603" lon="10.9209886"><ele>193.0</ele><time>2026-04-18T12:41:40.516Z</time></trkpt><trkpt lat="43.323571" lon="10.9209212"><ele>191.8</ele><time>2026-04-18T12:41:42.515Z</time></trkpt><trkpt lat="43.3236675" lon="10.920834"><ele>190.60000000000002</ele><time>2026-04-18T12:41:44.514Z</time></trkpt><trkpt lat="43.3237437" lon="10.9207664"><ele>189.39999999999998</ele><time>2026-04-18T12:41:46.521Z</time></trkpt><trkpt lat="43.3238154" lon="10.9206948"><ele>188.2</ele><time>2026-04-18T12:41:48.521Z</time></trkpt><trkpt lat="43.3238999" lon="10.920649"><ele>187.0</ele><time>2026-04-18T12:41:50.517Z</time></trkpt><trkpt lat="43.3239868" lon="10.9205972"><ele>185.6</ele><time>2026-04-18T12:41:52.521Z</time></trkpt><trkpt lat="43.3240895" lon="10.9205281"><ele>184.2</ele><time>2026-04-18T12:41:54.515Z</time></trkpt><trkpt lat="43.3241462" lon="10.9204882"><ele>182.8</ele><time>2026-04-18T12:41:55.517Z</time></trkpt><trkpt lat="43.3242587" lon="10.9204076"><ele>181.4</ele><time>2026-04-18T12:41:57.523Z</time></trkpt><trkpt lat="43.3243695" lon="10.920309"><ele>180.0</ele><time>2026-04-18T12:41:59.525Z</time></trkpt><trkpt lat="43.3244276" lon="10.9202684"><ele>180.0</ele><time>2026-04-18T12:42:00.52Z</time></trkpt><trkpt lat="43.3245366" lon="10.9201965"><ele>180.0</ele><time>2026-04-18T12:42:02.514Z</time></trkpt><trkpt lat="43.3245964" lon="10.9201464"><ele>180.0</ele><time>2026-04-18T12:42:03.514Z</time></trkpt><trkpt lat="43.324658" lon="10.9200962"><ele>180.0</ele><time>2026-04-18T12:42:04.524Z</time></trkpt><trkpt lat="43.3247176" lon="10.9200384"><ele>180.0</ele><time>2026-04-18T12:42:05.52Z</time></trkpt><trkpt lat="43.3247769" lon="10.9199917"><ele>180.0</ele><time>2026-04-18T12:42:06.517Z</time></trkpt><trkpt lat="43.3248964" lon="10.9199245"><ele>178.5</ele><time>2026-04-18T12:42:08.52Z</time></trkpt><trkpt lat="43.3249987" lon="10.9198679"><ele>177.0</ele><time>2026-04-18T12:42:10.524Z</time></trkpt><trkpt lat="43.3251226" lon="10.9198524"><ele>175.5</ele><time>2026-04-18T12:42:12.513Z</time></trkpt><trkpt lat="43.3251862" lon="10.9198511"><ele>174.0</ele><time>2026-04-18T12:42:13.516Z</time></trkpt><trkpt lat="43.3252528" lon="10.919863"><ele>172.5</ele><time>2026-04-18T12:42:14.516Z</time></trkpt><trkpt lat="43.3253177" lon="10.9198706"><ele>171.0</ele><time>2026-04-18T12:42:15.513Z</time></trkpt><trkpt lat="43.3253808" lon="10.9198933"><ele>171.0</ele><time>2026-04-18T12:42:16.519Z</time></trkpt><trkpt lat="43.3254502" lon="10.9199178"><ele>171.0</ele><time>2026-04-18T12:42:17.511Z</time></trkpt><trkpt lat="43.3255116" lon="10.9199448"><ele>171.0</ele><time>2026-04-18T12:42:18.505Z</time></trkpt><trkpt lat="43.3255756" lon="10.9199579"><ele>171.0</ele><time>2026-04-18T12:42:19.507Z</time></trkpt><trkpt lat="43.3256909" lon="10.9199797"><ele>171.0</ele><time>2026-04-18T12:42:21.512Z</time></trkpt><trkpt lat="43.3257739" lon="10.9199951"><ele>171.0</ele><time>2026-04-18T12:42:23.512Z</time></trkpt><trkpt lat="43.325837" lon="10.9199912"><ele>170.16666666666666</ele><time>2026-04-18T12:42:25.516Z</time></trkpt><trkpt lat="43.3259014" lon="10.919999"><ele>169.33333333333334</ele><time>2026-04-18T12:42:27.518Z</time></trkpt><trkpt lat="43.3259957" lon="10.9200012"><ele>168.5</ele><time>2026-04-18T12:42:29.501Z</time></trkpt><trkpt lat="43.326064" lon="10.919958"><ele>167.66666666666669</ele><time>2026-04-18T12:43:18.521Z</time></trkpt><trkpt lat="43.3259948" lon="10.9200149"><ele>166.83333333333334</ele><time>2026-04-18T12:43:39.516Z</time></trkpt><trkpt lat="43.3259164" lon="10.9200041"><ele>166.0</ele><time>2026-04-18T12:43:41.517Z</time></trkpt><trkpt lat="43.3258028" lon="10.9200097"><ele>166.0</ele><time>2026-04-18T12:43:43.517Z</time></trkpt><trkpt lat="43.3256961" lon="10.9199853"><ele>166.0</ele><time>2026-04-18T12:43:45.509Z</time></trkpt><trkpt lat="43.3256315" lon="10.9199703"><ele>166.0</ele><time>2026-04-18T12:43:47.518Z</time></trkpt><trkpt lat="43.3255386" lon="10.9199579"><ele>166.0</ele><time>2026-04-18T12:43:49.516Z</time></trkpt><trkpt lat="43.3254763" lon="10.9199409"><ele>166.0</ele><time>2026-04-18T12:43:50.52Z</time></trkpt><trkpt lat="43.3254068" lon="10.9199232"><ele>166.0</ele><time>2026-04-18T12:43:51.52Z</time></trkpt><trkpt lat="43.3253431" lon="10.9199129"><ele>167.0</ele><time>2026-04-18T12:43:52.523Z</time></trkpt><trkpt lat="43.3252806" lon="10.9198915"><ele>168.0</ele><time>2026-04-18T12:43:53.52Z</time></trkpt><trkpt lat="43.3251684" lon="10.9198644"><ele>169.0</ele><time>2026-04-18T12:43:55.517Z</time></trkpt><trkpt lat="43.3250523" lon="10.9198673"><ele>170.0</ele><time>2026-04-18T12:43:57.518Z</time></trkpt><trkpt lat="43.3249709" lon="10.9198827"><ele>171.0</ele><time>2026-04-18T12:43:59.515Z</time></trkpt><trkpt lat="43.3248891" lon="10.9199161"><ele>171.0</ele><time>2026-04-18T12:44:01.517Z</time></trkpt><trkpt lat="43.3248145" lon="10.9199722"><ele>171.0</ele><time>2026-04-18T12:44:03.515Z</time></trkpt><trkpt lat="43.3247522" lon="10.9199986"><ele>171.0</ele><time>2026-04-18T12:44:05.514Z</time></trkpt><trkpt lat="43.3246785" lon="10.9200522"><ele>171.0</ele><time>2026-04-18T12:44:13.508Z</time></trkpt><trkpt lat="43.3245646" lon="10.9201656"><ele>171.0</ele><time>2026-04-18T12:44:15.507Z</time></trkpt><trkpt lat="43.3244902" lon="10.92023"><ele>172.5</ele><time>2026-04-18T12:44:16.523Z</time></trkpt><trkpt lat="43.3244202" lon="10.9202937"><ele>174.0</ele><time>2026-04-18T12:44:17.514Z</time></trkpt><trkpt lat="43.3243604" lon="10.9203596"><ele>175.5</ele><time>2026-04-18T12:44:18.509Z</time></trkpt><trkpt lat="43.3243068" lon="10.9204115"><ele>177.0</ele><time>2026-04-18T12:44:19.512Z</time></trkpt><trkpt lat="43.3242287" lon="10.9204874"><ele>178.5</ele><time>2026-04-18T12:44:21.512Z</time></trkpt><trkpt lat="43.3241423" lon="10.9205343"><ele>180.0</ele><time>2026-04-18T12:44:49.514Z</time></trkpt><trkpt lat="43.3240411" lon="10.9205912"><ele>180.0</ele><time>2026-04-18T12:44:51.521Z</time></trkpt><trkpt lat="43.3239294" lon="10.9206674"><ele>180.0</ele><time>2026-04-18T12:44:53.524Z</time></trkpt><trkpt lat="43.3238274" lon="10.9207393"><ele>180.0</ele><time>2026-04-18T12:44:55.517Z</time></trkpt><trkpt lat="43.323737" lon="10.9208098"><ele>180.0</ele><time>2026-04-18T12:44:57.522Z</time></trkpt><trkpt lat="43.323655" lon="10.9208681"><ele>180.0</ele><time>2026-04-18T12:44:59.521Z</time></trkpt><trkpt lat="43.3235685" lon="10.9209383"><ele>182.16666666666666</ele><time>2026-04-18T12:45:01.522Z</time></trkpt><trkpt lat="43.3234751" lon="10.921006"><ele>184.33333333333331</ele><time>2026-04-18T12:45:03.524Z</time></trkpt><trkpt lat="43.3233739" lon="10.9210711"><ele>186.5</ele><time>2026-04-18T12:45:05.529Z</time></trkpt><trkpt lat="43.3233156" lon="10.9211104"><ele>188.66666666666666</ele><time>2026-04-18T12:45:06.522Z</time></trkpt><trkpt lat="43.3232587" lon="10.9211597"><ele>190.83333333333331</ele><time>2026-04-18T12:45:07.523Z</time></trkpt><trkpt lat="43.3232047" lon="10.9212171"><ele>193.0</ele><time>2026-04-18T12:45:08.524Z</time></trkpt><trkpt lat="43.3231466" lon="10.9212784"><ele>194.8</ele><time>2026-04-18T12:45:09.523Z</time></trkpt><trkpt lat="43.3230429" lon="10.9213989"><ele>196.60000000000002</ele><time>2026-04-18T12:45:11.519Z</time></trkpt><trkpt lat="43.3230021" lon="10.921471"><ele>198.39999999999998</ele><time>2026-04-18T12:45:12.521Z</time></trkpt><trkpt lat="43.3229325" lon="10.9216151"><ele>200.2</ele><time>2026-04-18T12:45:14.523Z</time></trkpt><trkpt lat="43.3228957" lon="10.9216888"><ele>202.0</ele><time>2026-04-18T12:45:15.522Z</time></trkpt><trkpt lat="43.3228619" lon="10.921763"><ele>203.39999999999998</ele><time>2026-04-18T12:45:16.533Z</time></trkpt><trkpt lat="43.3228086" lon="10.9218834"><ele>204.79999999999998</ele><time>2026-04-18T12:45:18.514Z</time></trkpt><trkpt lat="43.3227661" lon="10.92201"><ele>206.2</ele><time>2026-04-18T12:45:21.523Z</time></trkpt><trkpt lat="43.322736" lon="10.9221442"><ele>207.6</ele><time>2026-04-18T12:45:23.522Z</time></trkpt><trkpt lat="43.3226596" lon="10.922237"><ele>209.0</ele><time>2026-04-18T12:45:25.523Z</time></trkpt><trkpt lat="43.3225475" lon="10.9222691"><ele>209.0</ele><time>2026-04-18T12:45:27.527Z</time></trkpt><trkpt lat="43.3224236" lon="10.9222677"><ele>209.0</ele><time>2026-04-18T12:45:29.524Z</time></trkpt><trkpt lat="43.3223108" lon="10.9222771"><ele>209.0</ele><time>2026-04-18T12:45:31.526Z</time></trkpt><trkpt lat="43.3221864" lon="10.922299"><ele>209.0</ele><time>2026-04-18T12:45:33.522Z</time></trkpt><trkpt lat="43.3221202" lon="10.9222812"><ele>209.0</ele><time>2026-04-18T12:45:34.513Z</time></trkpt><trkpt lat="43.3220535" lon="10.922252"><ele>210.66666666666669</ele><time>2026-04-18T12:45:35.52Z</time></trkpt><trkpt lat="43.3219877" lon="10.9222196"><ele>212.33333333333334</ele><time>2026-04-18T12:45:36.521Z</time></trkpt><trkpt lat="43.3219192" lon="10.9221944"><ele>214.0</ele><time>2026-04-18T12:45:37.52Z</time></trkpt><trkpt lat="43.3218532" lon="10.9221812"><ele>215.66666666666669</ele><time>2026-04-18T12:45:38.521Z</time></trkpt><trkpt lat="43.3217316" lon="10.9221809"><ele>217.33333333333334</ele><time>2026-04-18T12:45:40.526Z</time></trkpt><trkpt lat="43.321667" lon="10.9221901"><ele>219.0</ele><time>2026-04-18T12:45:41.516Z</time></trkpt><trkpt lat="43.321604" lon="10.9222012"><ele>219.0</ele><time>2026-04-18T12:45:42.51Z</time></trkpt><trkpt lat="43.3215407" lon="10.9222211"><ele>219.0</ele><time>2026-04-18T12:45:43.515Z</time></trkpt><trkpt lat="43.3214282" lon="10.9222475"><ele>219.0</ele><time>2026-04-18T12:45:45.518Z</time></trkpt><trkpt lat="43.3213214" lon="10.9222643"><ele>219.0</ele><time>2026-04-18T12:45:47.51Z</time></trkpt><trkpt lat="43.3212658" lon="10.9222225"><ele>219.0</ele><time>2026-04-18T12:45:53.519Z</time></trkpt><trkpt lat="43.3212695" lon="10.9220929"><ele>219.0</ele><time>2026-04-18T12:45:56.522Z</time></trkpt><trkpt lat="43.3212809" lon="10.9219848"><ele>219.16666666666666</ele><time>2026-04-18T12:45:58.527Z</time></trkpt><trkpt lat="43.3212877" lon="10.9218658"><ele>219.33333333333331</ele><time>2026-04-18T12:46:00.531Z</time></trkpt><trkpt lat="43.3212768" lon="10.9217688"><ele>219.5</ele><time>2026-04-18T12:46:02.522Z</time></trkpt><trkpt lat="43.3212805" lon="10.9216499"><ele>219.66666666666666</ele><time>2026-04-18T12:46:04.52Z</time></trkpt><trkpt lat="43.3212674" lon="10.9215262"><ele>219.83333333333331</ele><time>2026-04-18T12:46:06.517Z</time></trkpt><trkpt lat="43.3212436" lon="10.9213919"><ele>220.0</ele><time>2026-04-18T12:46:08.516Z</time></trkpt><trkpt lat="43.3211977" lon="10.9212733"><ele>219.99999999999997</ele><time>2026-04-18T12:46:10.508Z</time></trkpt><trkpt lat="43.321156" lon="10.9211971"><ele>220.0</ele><time>2026-04-18T12:46:12.517Z</time></trkpt><trkpt lat="43.3211027" lon="10.9211056"><ele>220.0</ele><time>2026-04-18T12:46:14.524Z</time></trkpt><trkpt lat="43.3210793" lon="10.9209801"><ele>220.0</ele><time>2026-04-18T12:46:16.515Z</time></trkpt><trkpt lat="43.3210626" lon="10.9208604"><ele>219.99999999999997</ele><time>2026-04-18T12:46:18.512Z</time></trkpt><trkpt lat="43.3210347" lon="10.9207621"><ele>220.0</ele><time>2026-04-18T12:46:20.508Z</time></trkpt><trkpt lat="43.3210221" lon="10.9206606"><ele>218.99999999999997</ele><time>2026-04-18T12:46:22.511Z</time></trkpt><trkpt lat="43.3209797" lon="10.920526"><ele>218.0</ele><time>2026-04-18T12:46:24.504Z</time></trkpt><trkpt lat="43.3209601" lon="10.9204049"><ele>217.0</ele><time>2026-04-18T12:46:26.505Z</time></trkpt><trkpt lat="43.3209447" lon="10.9203161"><ele>216.0</ele><time>2026-04-18T12:46:28.518Z</time></trkpt><trkpt lat="43.3209239" lon="10.9202186"><ele>214.99999999999997</ele><time>2026-04-18T12:46:42.511Z</time></trkpt><trkpt lat="43.320886" lon="10.9201153"><ele>214.0</ele><time>2026-04-18T12:46:45.511Z</time></trkpt><trkpt lat="43.3209215" lon="10.9201968"><ele>213.99999999999997</ele><time>2026-04-18T12:47:40.513Z</time></trkpt><trkpt lat="43.3209725" lon="10.9202794"><ele>214.0</ele><time>2026-04-18T12:47:44.52Z</time></trkpt><trkpt lat="43.3210451" lon="10.9202907"><ele>214.0</ele><time>2026-04-18T12:47:59.522Z</time></trkpt><trkpt lat="43.3211076" lon="10.9202376"><ele>214.0</ele><time>2026-04-18T12:48:02.526Z</time></trkpt><trkpt lat="43.321171" lon="10.9202127"><ele>213.99999999999997</ele><time>2026-04-18T12:48:04.517Z</time></trkpt><trkpt lat="43.3212572" lon="10.9201884"><ele>214.0</ele><time>2026-04-18T12:48:06.514Z</time></trkpt><trkpt lat="43.3213342" lon="10.9201715"><ele>211.33333333333331</ele><time>2026-04-18T12:48:08.515Z</time></trkpt><trkpt lat="43.3214013" lon="10.9201383"><ele>208.66666666666666</ele><time>2026-04-18T12:48:10.521Z</time></trkpt><trkpt lat="43.3214716" lon="10.9201002"><ele>206.0</ele><time>2026-04-18T12:48:12.521Z</time></trkpt><trkpt lat="43.3215398" lon="10.9200547"><ele>203.33333333333331</ele><time>2026-04-18T12:48:14.523Z</time></trkpt><trkpt lat="43.3216041" lon="10.9199883"><ele>200.66666666666666</ele><time>2026-04-18T12:48:16.53Z</time></trkpt><trkpt lat="43.3216753" lon="10.9199282"><ele>198.0</ele><time>2026-04-18T12:48:18.514Z</time></trkpt><trkpt lat="43.3217484" lon="10.9198738"><ele>198.0</ele><time>2026-04-18T12:48:20.513Z</time></trkpt><trkpt lat="43.3218253" lon="10.9198204"><ele>198.0</ele><time>2026-04-18T12:48:23.52Z</time></trkpt><trkpt lat="43.3218836" lon="10.9197491"><ele>198.0</ele><time>2026-04-18T12:48:25.517Z</time></trkpt><trkpt lat="43.321941" lon="10.9196884"><ele>198.0</ele><time>2026-04-18T12:48:27.518Z</time></trkpt><trkpt lat="43.3220004" lon="10.9196288"><ele>198.0</ele><time>2026-04-18T12:48:30.524Z</time></trkpt><trkpt lat="43.3220602" lon="10.9195736"><ele>198.0</ele><time>2026-04-18T12:48:33.522Z</time></trkpt><trkpt lat="43.3221309" lon="10.9195051"><ele>198.0</ele><time>2026-04-18T12:48:36.524Z</time></trkpt><trkpt lat="43.3221869" lon="10.9194383"><ele>198.0</ele><time>2026-04-18T12:48:38.522Z</time></trkpt><trkpt lat="43.3222401" lon="10.9193864"><ele>198.0</ele><time>2026-04-18T12:48:40.522Z</time></trkpt><trkpt lat="43.3222937" lon="10.9193239"><ele>198.0</ele><time>2026-04-18T12:48:42.533Z</time></trkpt><trkpt lat="43.3223439" lon="10.9192644"><ele>198.0</ele><time>2026-04-18T12:48:44.524Z</time></trkpt><trkpt lat="43.3224166" lon="10.9191856"><ele>198.0</ele><time>2026-04-18T12:48:46.526Z</time></trkpt><trkpt lat="43.3224839" lon="10.9191396"><ele>198.0</ele><time>2026-04-18T12:48:48.527Z</time></trkpt><trkpt lat="43.3225509" lon="10.9190767"><ele>196.16666666666666</ele><time>2026-04-18T12:48:50.519Z</time></trkpt><trkpt lat="43.3226137" lon="10.9190509"><ele>194.33333333333334</ele><time>2026-04-18T12:48:53.519Z</time></trkpt><trkpt lat="43.3226736" lon="10.9190115"><ele>192.5</ele><time>2026-04-18T12:48:56.517Z</time></trkpt><trkpt lat="43.322731" lon="10.9189488"><ele>190.66666666666669</ele><time>2026-04-18T12:49:00.536Z</time></trkpt><trkpt lat="43.3228037" lon="10.9188601"><ele>188.83333333333334</ele><time>2026-04-18T12:49:03.523Z</time></trkpt><trkpt lat="43.3228573" lon="10.9188072"><ele>187.0</ele><time>2026-04-18T12:49:04.523Z</time></trkpt><trkpt lat="43.3229268" lon="10.918727"><ele>187.0</ele><time>2026-04-18T12:49:06.535Z</time></trkpt><trkpt lat="43.3229719" lon="10.9186504"><ele>187.0</ele><time>2026-04-18T12:49:09.515Z</time></trkpt><trkpt lat="43.3230162" lon="10.9185457"><ele>187.0</ele><time>2026-04-18T12:49:18.519Z</time></trkpt><trkpt lat="43.3230703" lon="10.9184373"><ele>187.0</ele><time>2026-04-18T12:49:21.518Z</time></trkpt><trkpt lat="43.3231128" lon="10.9183476"><ele>187.0</ele><time>2026-04-18T12:49:23.511Z</time></trkpt><trkpt lat="43.3231893" lon="10.9182983"><ele>187.0</ele><time>2026-04-18T12:49:27.526Z</time></trkpt><trkpt lat="43.3232446" lon="10.9182392"><ele>185.83333333333334</ele><time>2026-04-18T12:49:31.52Z</time></trkpt><trkpt lat="43.323286" lon="10.9181706"><ele>184.66666666666669</ele><time>2026-04-18T12:49:43.512Z</time></trkpt><trkpt lat="43.3233558" lon="10.9181974"><ele>183.5</ele><time>2026-04-18T12:52:46.521Z</time></trkpt><trkpt lat="43.3234463" lon="10.9182523"><ele>182.33333333333334</ele><time>2026-04-18T12:53:06.513Z</time></trkpt><trkpt lat="43.3235285" lon="10.9182591"><ele>181.16666666666666</ele><time>2026-04-18T12:53:08.515Z</time></trkpt><trkpt lat="43.3235926" lon="10.918248"><ele>180.0</ele><time>2026-04-18T12:53:09.514Z</time></trkpt><trkpt lat="43.3236853" lon="10.9182204"><ele>180.0</ele><time>2026-04-18T12:53:11.51Z</time></trkpt><trkpt lat="43.3237502" lon="10.9181777"><ele>180.0</ele><time>2026-04-18T12:53:13.509Z</time></trkpt><trkpt lat="43.3238465" lon="10.9181838"><ele>180.0</ele><time>2026-04-18T12:53:16.514Z</time></trkpt><trkpt lat="43.3239157" lon="10.9181464"><ele>180.0</ele><time>2026-04-18T12:53:19.507Z</time></trkpt><trkpt lat="43.3239638" lon="10.9180334"><ele>180.0</ele><time>2026-04-18T12:53:22.507Z</time></trkpt><trkpt lat="43.3239979" lon="10.9179265"><ele>180.0</ele><time>2026-04-18T12:53:24.508Z</time></trkpt><trkpt lat="43.324053" lon="10.9178692"><ele>179.33333333333334</ele><time>2026-04-18T12:54:32.524Z</time></trkpt><trkpt lat="43.3241065" lon="10.9177823"><ele>178.66666666666666</ele><time>2026-04-18T12:54:36.52Z</time></trkpt><trkpt lat="43.3241721" lon="10.9177134"><ele>178.0</ele><time>2026-04-18T12:54:39.52Z</time></trkpt><trkpt lat="43.3242329" lon="10.9176447"><ele>177.33333333333331</ele><time>2026-04-18T12:54:59.53Z</time></trkpt><trkpt lat="43.324305" lon="10.9176407"><ele>176.66666666666666</ele><time>2026-04-18T13:01:02.516Z</time></trkpt><trkpt lat="43.3244038" lon="10.9175942"><ele>176.0</ele><time>2026-04-18T13:01:05.509Z</time></trkpt><trkpt lat="43.3244741" lon="10.9175168"><ele>176.0</ele><time>2026-04-18T13:01:07.508Z</time></trkpt><trkpt lat="43.3245393" lon="10.9174604"><ele>176.0</ele><time>2026-04-18T13:01:10.522Z</time></trkpt><trkpt lat="43.3246014" lon="10.9173776"><ele>176.0</ele><time>2026-04-18T13:01:13.515Z</time></trkpt><trkpt lat="43.3246704" lon="10.917326"><ele>176.0</ele><time>2026-04-18T13:01:15.522Z</time></trkpt><trkpt lat="43.3247588" lon="10.9172543"><ele>176.0</ele><time>2026-04-18T13:01:18.527Z</time></trkpt><trkpt lat="43.3248268" lon="10.9171797"><ele>176.0</ele><time>2026-04-18T13:01:20.51Z</time></trkpt><trkpt lat="43.3248742" lon="10.9171116"><ele>175.33333333333331</ele><time>2026-04-18T13:01:22.517Z</time></trkpt><trkpt lat="43.3249253" lon="10.9170491"><ele>174.66666666666666</ele><time>2026-04-18T13:01:24.514Z</time></trkpt><trkpt lat="43.3249915" lon="10.9169813"><ele>174.0</ele><time>2026-04-18T13:01:27.512Z</time></trkpt><trkpt lat="43.3250342" lon="10.9168792"><ele>173.33333333333334</ele><time>2026-04-18T13:01:29.504Z</time></trkpt><trkpt lat="43.3250732" lon="10.9168099"><ele>172.66666666666669</ele><time>2026-04-18T13:01:32.506Z</time></trkpt><trkpt lat="43.325134" lon="10.9167275"><ele>172.0</ele><time>2026-04-18T13:01:36.503Z</time></trkpt><trkpt lat="43.3251811" lon="10.9166343"><ele>172.0</ele><time>2026-04-18T13:01:38.501Z</time></trkpt><trkpt lat="43.3252316" lon="10.9165029"><ele>172.0</ele><time>2026-04-18T13:01:40.508Z</time></trkpt><trkpt lat="43.3252752" lon="10.9163785"><ele>172.0</ele><time>2026-04-18T13:01:42.506Z</time></trkpt><trkpt lat="43.3253516" lon="10.9163377"><ele>172.0</ele><time>2026-04-18T13:01:45.507Z</time></trkpt><trkpt lat="43.325429" lon="10.9163075"><ele>172.0</ele><time>2026-04-18T13:01:47.503Z</time></trkpt><trkpt lat="43.3254959" lon="10.9162677"><ele>172.0</ele><time>2026-04-18T13:01:49.498Z</time></trkpt><trkpt lat="43.3255571" lon="10.9162192"><ele>172.16666666666669</ele><time>2026-04-18T13:01:52.488Z</time></trkpt><trkpt lat="43.3256324" lon="10.9161348"><ele>172.33333333333334</ele><time>2026-04-18T13:01:54.5Z</time></trkpt><trkpt lat="43.3256735" lon="10.9160588"><ele>172.5</ele><time>2026-04-18T13:01:56.501Z</time></trkpt><trkpt lat="43.3256707" lon="10.9159567"><ele>172.66666666666666</ele><time>2026-04-18T13:01:59.514Z</time></trkpt><trkpt lat="43.3256526" lon="10.9158736"><ele>172.83333333333331</ele><time>2026-04-18T13:02:01.498Z</time></trkpt><trkpt lat="43.3256691" lon="10.9157692"><ele>173.0</ele><time>2026-04-18T13:02:03.504Z</time></trkpt><trkpt lat="43.3257181" lon="10.9156852"><ele>172.66666666666666</ele><time>2026-04-18T13:02:06.493Z</time></trkpt><trkpt lat="43.3256856" lon="10.9155758"><ele>172.33333333333331</ele><time>2026-04-18T13:02:09.497Z</time></trkpt><trkpt lat="43.3257201" lon="10.9154675"><ele>172.0</ele><time>2026-04-18T13:02:12.505Z</time></trkpt><trkpt lat="43.3257909" lon="10.9154368"><ele>171.66666666666666</ele><time>2026-04-18T13:02:43.501Z</time></trkpt><trkpt lat="43.3258542" lon="10.9154219"><ele>171.33333333333334</ele><time>2026-04-18T13:04:04.497Z</time></trkpt><trkpt lat="43.3259339" lon="10.9154039"><ele>171.0</ele><time>2026-04-18T13:04:25.487Z</time></trkpt><trkpt lat="43.3259865" lon="10.9153355"><ele>171.0</ele><time>2026-04-18T13:04:27.488Z</time></trkpt><trkpt lat="43.3260484" lon="10.9152765"><ele>171.0</ele><time>2026-04-18T13:04:29.489Z</time></trkpt><trkpt lat="43.3261216" lon="10.9152342"><ele>171.0</ele><time>2026-04-18T13:04:31.489Z</time></trkpt><trkpt lat="43.3261795" lon="10.9151829"><ele>171.0</ele><time>2026-04-18T13:04:33.495Z</time></trkpt><trkpt lat="43.3262564" lon="10.9151673"><ele>171.0</ele><time>2026-04-18T13:04:35.5Z</time></trkpt><trkpt lat="43.3263444" lon="10.9151768"><ele>171.0</ele><time>2026-04-18T13:04:37.494Z</time></trkpt><trkpt lat="43.3264103" lon="10.9152046"><ele>170.66666666666666</ele><time>2026-04-18T13:04:39.496Z</time></trkpt><trkpt lat="43.3264944" lon="10.9152262"><ele>170.33333333333334</ele><time>2026-04-18T13:04:42.489Z</time></trkpt><trkpt lat="43.3265801" lon="10.915195"><ele>170.0</ele><time>2026-04-18T13:04:44.498Z</time></trkpt><trkpt lat="43.3266371" lon="10.9151323"><ele>169.66666666666669</ele><time>2026-04-18T13:04:46.501Z</time></trkpt><trkpt lat="43.3267364" lon="10.9151075"><ele>169.33333333333334</ele><time>2026-04-18T13:04:49.489Z</time></trkpt><trkpt lat="43.3268253" lon="10.9150902"><ele>169.0</ele><time>2026-04-18T13:04:51.483Z</time></trkpt><trkpt lat="43.3268996" lon="10.9151016"><ele>169.0</ele><time>2026-04-18T13:04:54.484Z</time></trkpt><trkpt lat="43.3269634" lon="10.9151015"><ele>169.0</ele><time>2026-04-18T13:04:57.503Z</time></trkpt><trkpt lat="43.3269995" lon="10.9151978"><ele>169.0</ele><time>2026-04-18T13:05:00.498Z</time></trkpt><trkpt lat="43.3270453" lon="10.9152974"><ele>169.0</ele><time>2026-04-18T13:05:02.501Z</time></trkpt><trkpt lat="43.3270919" lon="10.9153876"><ele>169.0</ele><time>2026-04-18T13:05:04.491Z</time></trkpt><trkpt lat="43.3271274" lon="10.915465"><ele>169.0</ele><time>2026-04-18T13:05:07.502Z</time></trkpt><trkpt lat="43.3272089" lon="10.9154128"><ele>167.66666666666669</ele><time>2026-04-18T13:05:12.482Z</time></trkpt><trkpt lat="43.3273006" lon="10.9153573"><ele>166.33333333333334</ele><time>2026-04-18T13:05:14.489Z</time></trkpt><trkpt lat="43.327374" lon="10.9153093"><ele>165.0</ele><time>2026-04-18T13:05:16.492Z</time></trkpt><trkpt lat="43.3274505" lon="10.9152614"><ele>163.66666666666666</ele><time>2026-04-18T13:05:19.5Z</time></trkpt><trkpt lat="43.3275365" lon="10.9152559"><ele>162.33333333333331</ele><time>2026-04-18T13:05:23.491Z</time></trkpt><trkpt lat="43.3275999" lon="10.9152093"><ele>161.0</ele><time>2026-04-18T13:05:27.507Z</time></trkpt><trkpt lat="43.3276675" lon="10.9151432"><ele>161.0</ele><time>2026-04-18T13:05:31.492Z</time></trkpt><trkpt lat="43.3277241" lon="10.9150809"><ele>161.0</ele><time>2026-04-18T13:05:35.492Z</time></trkpt><trkpt lat="43.327792" lon="10.9150304"><ele>161.0</ele><time>2026-04-18T13:05:39.49Z</time></trkpt><trkpt lat="43.3278538" lon="10.9149911"><ele>161.0</ele><time>2026-04-18T13:05:43.494Z</time></trkpt><trkpt lat="43.3279217" lon="10.9149537"><ele>161.0</ele><time>2026-04-18T13:05:47.504Z</time></trkpt><trkpt lat="43.3279952" lon="10.9149395"><ele>161.0</ele><time>2026-04-18T13:05:51.496Z</time></trkpt><trkpt lat="43.3280686" lon="10.9149074"><ele>161.0</ele><time>2026-04-18T13:05:56.497Z</time></trkpt><trkpt lat="43.3281353" lon="10.9148967"><ele>158.0</ele><time>2026-04-18T13:06:02.493Z</time></trkpt><trkpt lat="43.3281979" lon="10.9148873"><ele>155.0</ele><time>2026-04-18T13:06:17.5Z</time></trkpt><trkpt lat="43.3282722" lon="10.9148425"><ele>152.0</ele><time>2026-04-18T13:06:21.487Z</time></trkpt><trkpt lat="43.328363" lon="10.9148334"><ele>149.0</ele><time>2026-04-18T13:06:24.489Z</time></trkpt><trkpt lat="43.3284261" lon="10.9148274"><ele>146.0</ele><time>2026-04-18T13:06:26.492Z</time></trkpt><trkpt lat="43.3285141" lon="10.9148234"><ele>143.0</ele><time>2026-04-18T13:06:29.492Z</time></trkpt><trkpt lat="43.3286034" lon="10.9148101"><ele>142.99999999999997</ele><time>2026-04-18T13:06:32.504Z</time></trkpt><trkpt lat="43.3286529" lon="10.9147523"><ele>143.0</ele><time>2026-04-18T13:06:34.492Z</time></trkpt><trkpt lat="43.3286683" lon="10.9146477"><ele>143.0</ele><time>2026-04-18T13:06:36.493Z</time></trkpt><trkpt lat="43.3286486" lon="10.9145449"><ele>143.0</ele><time>2026-04-18T13:06:38.5Z</time></trkpt><trkpt lat="43.3286599" lon="10.9144298"><ele>143.0</ele><time>2026-04-18T13:06:40.502Z</time></trkpt><trkpt lat="43.3286856" lon="10.9143404"><ele>142.99999999999997</ele><time>2026-04-18T13:06:42.497Z</time></trkpt><trkpt lat="43.3287086" lon="10.9142551"><ele>143.0</ele><time>2026-04-18T13:06:44.501Z</time></trkpt><trkpt lat="43.3287308" lon="10.9141428"><ele>143.16666666666666</ele><time>2026-04-18T13:06:46.496Z</time></trkpt><trkpt lat="43.3287499" lon="10.9140076"><ele>143.33333333333331</ele><time>2026-04-18T13:06:48.498Z</time></trkpt><trkpt lat="43.3287637" lon="10.9139143"><ele>143.5</ele><time>2026-04-18T13:06:51.489Z</time></trkpt><trkpt lat="43.3288157" lon="10.9137954"><ele>143.66666666666666</ele><time>2026-04-18T13:06:54.484Z</time></trkpt><trkpt lat="43.3288345" lon="10.9136951"><ele>143.83333333333334</ele><time>2026-04-18T13:06:57.493Z</time></trkpt><trkpt lat="43.328834" lon="10.9135644"><ele>144.0</ele><time>2026-04-18T13:07:00.505Z</time></trkpt><trkpt lat="43.3288784" lon="10.9134383"><ele>142.42857142857144</ele><time>2026-04-18T13:07:03.492Z</time></trkpt><trkpt lat="43.3289372" lon="10.9133874"><ele>140.85714285714286</ele><time>2026-04-18T13:07:06.496Z</time></trkpt><trkpt lat="43.3290057" lon="10.9133895"><ele>139.28571428571428</ele><time>2026-04-18T13:07:09.504Z</time></trkpt><trkpt lat="43.3290678" lon="10.9134107"><ele>137.71428571428572</ele><time>2026-04-18T13:07:11.499Z</time></trkpt><trkpt lat="43.3291296" lon="10.9134683"><ele>136.14285714285714</ele><time>2026-04-18T13:07:13.488Z</time></trkpt><trkpt lat="43.3292032" lon="10.9135345"><ele>134.57142857142858</ele><time>2026-04-18T13:07:15.49Z</time></trkpt><trkpt lat="43.3292805" lon="10.9135259"><ele>133.0</ele><time>2026-04-18T13:07:18.502Z</time></trkpt><trkpt lat="43.3293528" lon="10.9134554"><ele>133.0</ele><time>2026-04-18T13:07:21.501Z</time></trkpt><trkpt lat="43.3294067" lon="10.9133764"><ele>133.0</ele><time>2026-04-18T13:07:23.5Z</time></trkpt><trkpt lat="43.3294603" lon="10.9133247"><ele>133.0</ele><time>2026-04-18T13:07:25.5Z</time></trkpt><trkpt lat="43.3295424" lon="10.9132667"><ele>133.0</ele><time>2026-04-18T13:07:30.507Z</time></trkpt><trkpt lat="43.3296006" lon="10.913215"><ele>133.0</ele><time>2026-04-18T13:07:34.491Z</time></trkpt><trkpt lat="43.329665" lon="10.9131822"><ele>133.0</ele><time>2026-04-18T13:07:38.496Z</time></trkpt><trkpt lat="43.3297266" lon="10.9131562"><ele>133.0</ele><time>2026-04-18T13:07:42.501Z</time></trkpt><trkpt lat="43.3297804" lon="10.9131033"><ele>131.57142857142858</ele><time>2026-04-18T13:07:47.508Z</time></trkpt><trkpt lat="43.329835" lon="10.9130367"><ele>130.14285714285714</ele><time>2026-04-18T13:07:52.507Z</time></trkpt><trkpt lat="43.3298931" lon="10.9129617"><ele>128.71428571428572</ele><time>2026-04-18T13:07:57.501Z</time></trkpt><trkpt lat="43.3299502" lon="10.912924"><ele>127.28571428571429</ele><time>2026-04-18T13:08:00.5Z</time></trkpt><trkpt lat="43.3300127" lon="10.9128899"><ele>125.85714285714286</ele><time>2026-04-18T13:08:04.486Z</time></trkpt><trkpt lat="43.3300986" lon="10.9128606"><ele>124.42857142857144</ele><time>2026-04-18T13:08:07.487Z</time></trkpt><trkpt lat="43.330163" lon="10.9128375"><ele>123.00000000000001</ele><time>2026-04-18T13:08:09.496Z</time></trkpt><trkpt lat="43.3302345" lon="10.9128552"><ele>123.00000000000001</ele><time>2026-04-18T13:08:12.492Z</time></trkpt><trkpt lat="43.3303048" lon="10.9129051"><ele>123.0</ele><time>2026-04-18T13:08:15.493Z</time></trkpt><trkpt lat="43.3303685" lon="10.9129408"><ele>123.00000000000001</ele><time>2026-04-18T13:08:17.498Z</time></trkpt><trkpt lat="43.3304455" lon="10.9129677"><ele>123.00000000000001</ele><time>2026-04-18T13:09:21.483Z</time></trkpt><trkpt lat="43.3305005" lon="10.9130103"><ele>123.0</ele><time>2026-04-18T13:09:23.488Z</time></trkpt><trkpt lat="43.3305659" lon="10.9130552"><ele>123.00000000000001</ele><time>2026-04-18T13:09:25.488Z</time></trkpt><trkpt lat="43.3306432" lon="10.9130935"><ele>123.00000000000001</ele><time>2026-04-18T13:09:27.487Z</time></trkpt><trkpt lat="43.3307062" lon="10.9131515"><ele>121.66666666666667</ele><time>2026-04-18T13:09:29.494Z</time></trkpt><trkpt lat="43.3307576" lon="10.9132396"><ele>120.33333333333334</ele><time>2026-04-18T13:09:31.495Z</time></trkpt><trkpt lat="43.3308249" lon="10.9132858"><ele>119.0</ele><time>2026-04-18T13:09:33.491Z</time></trkpt><trkpt lat="43.3309052" lon="10.9132833"><ele>117.66666666666667</ele><time>2026-04-18T13:09:35.492Z</time></trkpt><trkpt lat="43.3310103" lon="10.9132756"><ele>116.33333333333334</ele><time>2026-04-18T13:09:37.496Z</time></trkpt><trkpt lat="43.3310819" lon="10.9132573"><ele>115.0</ele><time>2026-04-18T13:09:39.507Z</time></trkpt><trkpt lat="43.3311471" lon="10.9132597"><ele>115.00000000000001</ele><time>2026-04-18T13:09:42.485Z</time></trkpt><trkpt lat="43.33118" lon="10.9133347"><ele>115.0</ele><time>2026-04-18T13:09:45.485Z</time></trkpt><trkpt lat="43.3312209" lon="10.9134138"><ele>115.0</ele><time>2026-04-18T13:09:47.491Z</time></trkpt><trkpt lat="43.3312716" lon="10.9135145"><ele>115.0</ele><time>2026-04-18T13:09:49.487Z</time></trkpt><trkpt lat="43.3313058" lon="10.9135933"><ele>115.00000000000001</ele><time>2026-04-18T13:09:51.486Z</time></trkpt><trkpt lat="43.3313475" lon="10.9136644"><ele>115.0</ele><time>2026-04-18T13:10:14.495Z</time></trkpt><trkpt lat="43.3314348" lon="10.9137303"><ele>114.0</ele><time>2026-04-18T13:10:16.5Z</time></trkpt><trkpt lat="43.3315474" lon="10.9137953"><ele>113.0</ele><time>2026-04-18T13:10:18.488Z</time></trkpt><trkpt lat="43.3316327" lon="10.9138731"><ele>112.0</ele><time>2026-04-18T13:10:20.486Z</time></trkpt><trkpt lat="43.331682" lon="10.9139321"><ele>111.0</ele><time>2026-04-18T13:10:22.464Z</time></trkpt><trkpt lat="43.3316805" lon="10.914047"><ele>110.0</ele><time>2026-04-18T13:10:35.487Z</time></trkpt><trkpt lat="43.3316604" lon="10.9141572"><ele>109.99999999999999</ele><time>2026-04-18T13:10:37.493Z</time></trkpt><trkpt lat="43.3316514" lon="10.9142515"><ele>110.0</ele><time>2026-04-18T13:10:39.49Z</time></trkpt><trkpt lat="43.3316369" lon="10.914353"><ele>110.0</ele><time>2026-04-18T13:10:41.492Z</time></trkpt><trkpt lat="43.3316434" lon="10.9144548"><ele>110.0</ele><time>2026-04-18T13:10:44.497Z</time></trkpt><trkpt lat="43.3316404" lon="10.9145635"><ele>109.99999999999999</ele><time>2026-04-18T13:10:47.497Z</time></trkpt><trkpt lat="43.3316174" lon="10.9146545"><ele>110.0</ele><time>2026-04-18T13:10:49.497Z</time></trkpt><trkpt lat="43.3315849" lon="10.9147662"><ele>109.99999999999999</ele><time>2026-04-18T13:10:52.504Z</time></trkpt><trkpt lat="43.331554" lon="10.9148427"><ele>110.0</ele><time>2026-04-18T13:10:53.483Z</time></trkpt><trkpt lat="43.331505" lon="10.9149747"><ele>110.0</ele><time>2026-04-18T13:10:55.489Z</time></trkpt><trkpt lat="43.3314576" lon="10.9151173"><ele>110.0</ele><time>2026-04-18T13:10:57.485Z</time></trkpt><trkpt lat="43.3314334" lon="10.9152255"><ele>109.99999999999999</ele><time>2026-04-18T13:10:59.481Z</time></trkpt><trkpt lat="43.3314642" lon="10.9153049"><ele>110.0</ele><time>2026-04-18T13:11:01.487Z</time></trkpt><trkpt lat="43.3315246" lon="10.9153754"><ele>111.2</ele><time>2026-04-18T13:11:03.494Z</time></trkpt><trkpt lat="43.3316026" lon="10.9153723"><ele>112.4</ele><time>2026-04-18T13:11:05.489Z</time></trkpt><trkpt lat="43.3317028" lon="10.9154062"><ele>113.6</ele><time>2026-04-18T13:11:07.479Z</time></trkpt><trkpt lat="43.3317927" lon="10.9155146"><ele>114.8</ele><time>2026-04-18T13:11:09.477Z</time></trkpt><trkpt lat="43.3318495" lon="10.9156459"><ele>116.0</ele><time>2026-04-18T13:11:11.477Z</time></trkpt><trkpt lat="43.3318913" lon="10.9158081"><ele>116.0</ele><time>2026-04-18T13:11:13.484Z</time></trkpt><trkpt lat="43.3318968" lon="10.9159033"><ele>116.0</ele><time>2026-04-18T13:11:14.49Z</time></trkpt><trkpt lat="43.3319123" lon="10.9159954"><ele>116.0</ele><time>2026-04-18T13:11:15.488Z</time></trkpt><trkpt lat="43.3319229" lon="10.9161547"><ele>116.0</ele><time>2026-04-18T13:11:17.49Z</time></trkpt><trkpt lat="43.3319424" lon="10.9162962"><ele>116.0</ele><time>2026-04-18T13:11:19.482Z</time></trkpt><trkpt lat="43.3319269" lon="10.9164326"><ele>116.83333333333333</ele><time>2026-04-18T13:11:21.478Z</time></trkpt><trkpt lat="43.3318995" lon="10.9165185"><ele>117.66666666666666</ele><time>2026-04-18T13:11:23.491Z</time></trkpt><trkpt lat="43.3318379" lon="10.9165364"><ele>118.5</ele><time>2026-04-18T13:11:25.492Z</time></trkpt><trkpt lat="43.3317639" lon="10.9165914"><ele>119.33333333333334</ele><time>2026-04-18T13:11:28.483Z</time></trkpt><trkpt lat="43.3318351" lon="10.9164893"><ele>120.16666666666667</ele><time>2026-04-18T13:11:41.481Z</time></trkpt><trkpt lat="43.3318876" lon="10.9164216"><ele>121.0</ele><time>2026-04-18T13:11:42.48Z</time></trkpt><trkpt lat="43.3319559" lon="10.9163399"><ele>121.0</ele><time>2026-04-18T13:11:43.491Z</time></trkpt><trkpt lat="43.3320314" lon="10.9162751"><ele>121.0</ele><time>2026-04-18T13:11:44.48Z</time></trkpt><trkpt lat="43.3321005" lon="10.9162205"><ele>121.0</ele><time>2026-04-18T13:11:45.496Z</time></trkpt><trkpt lat="43.332203" lon="10.9161173"><ele>121.0</ele><time>2026-04-18T13:11:47.503Z</time></trkpt><trkpt lat="43.3322655" lon="10.9160686"><ele>121.0</ele><time>2026-04-18T13:11:48.495Z</time></trkpt><trkpt lat="43.3323573" lon="10.9159527"><ele>119.6</ele><time>2026-04-18T13:11:50.498Z</time></trkpt><trkpt lat="43.3324357" lon="10.9158764"><ele>118.19999999999999</ele><time>2026-04-18T13:11:52.503Z</time></trkpt><trkpt lat="43.3325157" lon="10.9157884"><ele>116.80000000000001</ele><time>2026-04-18T13:11:54.499Z</time></trkpt><trkpt lat="43.3326002" lon="10.9157256"><ele>115.4</ele><time>2026-04-18T13:11:56.49Z</time></trkpt><trkpt lat="43.3326439" lon="10.9156339"><ele>114.0</ele><time>2026-04-18T13:11:59.496Z</time></trkpt><trkpt lat="43.3326703" lon="10.9155103"><ele>114.0</ele><time>2026-04-18T13:12:02.489Z</time></trkpt><trkpt lat="43.3326808" lon="10.9154171"><ele>114.0</ele><time>2026-04-18T13:12:05.487Z</time></trkpt><trkpt lat="43.332732" lon="10.9153202"><ele>114.0</ele><time>2026-04-18T13:12:09.486Z</time></trkpt><trkpt lat="43.3328369" lon="10.9153304"><ele>114.0</ele><time>2026-04-18T13:12:12.487Z</time></trkpt><trkpt lat="43.3328981" lon="10.9153565"><ele>114.0</ele><time>2026-04-18T13:12:13.49Z</time></trkpt><trkpt lat="43.3330157" lon="10.9153455"><ele>114.0</ele><time>2026-04-18T13:12:15.502Z</time></trkpt><trkpt lat="43.3330935" lon="10.9152874"><ele>114.4</ele><time>2026-04-18T13:12:16.493Z</time></trkpt><trkpt lat="43.3331755" lon="10.9152244"><ele>114.80000000000001</ele><time>2026-04-18T13:12:17.489Z</time></trkpt><trkpt lat="43.3332671" lon="10.9151434"><ele>115.19999999999999</ele><time>2026-04-18T13:12:18.497Z</time></trkpt><trkpt lat="43.3333635" lon="10.9150627"><ele>115.6</ele><time>2026-04-18T13:12:19.487Z</time></trkpt><trkpt lat="43.333461" lon="10.914971"><ele>116.0</ele><time>2026-04-18T13:12:20.491Z</time></trkpt><trkpt lat="43.3335521" lon="10.9148707"><ele>115.5</ele><time>2026-04-18T13:12:21.491Z</time></trkpt><trkpt lat="43.3336415" lon="10.9147682"><ele>115.0</ele><time>2026-04-18T13:12:22.49Z</time></trkpt><trkpt lat="43.3337375" lon="10.9146811"><ele>114.5</ele><time>2026-04-18T13:12:23.504Z</time></trkpt><trkpt lat="43.3338377" lon="10.914598"><ele>114.0</ele><time>2026-04-18T13:12:24.493Z</time></trkpt><trkpt lat="43.333925" lon="10.9145248"><ele>114.0</ele><time>2026-04-18T13:12:25.493Z</time></trkpt><trkpt lat="43.333999" lon="10.9144461"><ele>114.0</ele><time>2026-04-18T13:12:26.49Z</time></trkpt><trkpt lat="43.3340712" lon="10.9143769"><ele>114.0</ele><time>2026-04-18T13:12:27.498Z</time></trkpt><trkpt lat="43.3341524" lon="10.9142999"><ele>114.0</ele><time>2026-04-18T13:12:28.49Z</time></trkpt><trkpt lat="43.3342425" lon="10.9142194"><ele>114.0</ele><time>2026-04-18T13:12:29.493Z</time></trkpt><trkpt lat="43.3343229" lon="10.9141261"><ele>113.80000000000001</ele><time>2026-04-18T13:12:30.494Z</time></trkpt><trkpt lat="43.3343954" lon="10.9140304"><ele>113.60000000000001</ele><time>2026-04-18T13:12:31.49Z</time></trkpt><trkpt lat="43.3344684" lon="10.9139372"><ele>113.4</ele><time>2026-04-18T13:12:32.491Z</time></trkpt><trkpt lat="43.3345303" lon="10.9138178"><ele>113.2</ele><time>2026-04-18T13:12:33.485Z</time></trkpt><trkpt lat="43.3345784" lon="10.9136945"><ele>113.0</ele><time>2026-04-18T13:12:34.486Z</time></trkpt><trkpt lat="43.3346228" lon="10.913554"><ele>113.0</ele><time>2026-04-18T13:12:35.487Z</time></trkpt><trkpt lat="43.3346636" lon="10.9134092"><ele>113.00000000000001</ele><time>2026-04-18T13:12:36.488Z</time></trkpt><trkpt lat="43.3347196" lon="10.9132637"><ele>113.00000000000001</ele><time>2026-04-18T13:12:37.492Z</time></trkpt><trkpt lat="43.3347735" lon="10.9131368"><ele>113.0</ele><time>2026-04-18T13:12:38.485Z</time></trkpt><trkpt lat="43.3348159" lon="10.9130252"><ele>113.0</ele><time>2026-04-18T13:12:39.493Z</time></trkpt><trkpt lat="43.3348627" lon="10.9129195"><ele>113.14285714285714</ele><time>2026-04-18T13:12:40.483Z</time></trkpt><trkpt lat="43.3348971" lon="10.9128201"><ele>113.28571428571428</ele><time>2026-04-18T13:12:41.483Z</time></trkpt><trkpt lat="43.334923" lon="10.9127412"><ele>113.42857142857142</ele><time>2026-04-18T13:12:42.491Z</time></trkpt><trkpt lat="43.3349595" lon="10.9126618"><ele>113.57142857142857</ele><time>2026-04-18T13:12:43.486Z</time></trkpt><trkpt lat="43.3350127" lon="10.9126007"><ele>113.7142857142857</ele><time>2026-04-18T13:12:44.491Z</time></trkpt><trkpt lat="43.3350758" lon="10.9125879"><ele>113.85714285714285</ele><time>2026-04-18T13:12:45.483Z</time></trkpt><trkpt lat="43.3351527" lon="10.9126189"><ele>114.0</ele><time>2026-04-18T13:12:46.495Z</time></trkpt><trkpt lat="43.3352372" lon="10.9126505"><ele>114.0</ele><time>2026-04-18T13:12:47.486Z</time></trkpt><trkpt lat="43.335328" lon="10.9126668"><ele>114.0</ele><time>2026-04-18T13:12:48.478Z</time></trkpt><trkpt lat="43.335419" lon="10.9126446"><ele>114.0</ele><time>2026-04-18T13:12:49.482Z</time></trkpt><trkpt lat="43.3354944" lon="10.9126011"><ele>114.0</ele><time>2026-04-18T13:12:50.488Z</time></trkpt><trkpt lat="43.3355507" lon="10.912537"><ele>114.0</ele><time>2026-04-18T13:12:51.484Z</time></trkpt><trkpt lat="43.3355867" lon="10.9123734"><ele>114.83333333333333</ele><time>2026-04-18T13:12:53.478Z</time></trkpt><trkpt lat="43.3355913" lon="10.9122795"><ele>115.66666666666666</ele><time>2026-04-18T13:12:54.48Z</time></trkpt><trkpt lat="43.3355559" lon="10.9122062"><ele>116.5</ele><time>2026-04-18T13:12:55.485Z</time></trkpt><trkpt lat="43.3354984" lon="10.9121574"><ele>117.33333333333333</ele><time>2026-04-18T13:12:56.473Z</time></trkpt><trkpt lat="43.3354209" lon="10.9121142"><ele>118.16666666666666</ele><time>2026-04-18T13:12:57.476Z</time></trkpt><trkpt lat="43.3353376" lon="10.9120586"><ele>119.0</ele><time>2026-04-18T13:12:58.472Z</time></trkpt><trkpt lat="43.3352341" lon="10.9120121"><ele>119.0</ele><time>2026-04-18T13:12:59.47Z</time></trkpt><trkpt lat="43.3351192" lon="10.9119833"><ele>119.0</ele><time>2026-04-18T13:13:00.486Z</time></trkpt><trkpt lat="43.3349965" lon="10.9119507"><ele>119.0</ele><time>2026-04-18T13:13:01.484Z</time></trkpt><trkpt lat="43.3348766" lon="10.9119102"><ele>119.0</ele><time>2026-04-18T13:13:02.485Z</time></trkpt><trkpt lat="43.3347633" lon="10.9118664"><ele>119.49999999999999</ele><time>2026-04-18T13:13:03.482Z</time></trkpt><trkpt lat="43.3346558" lon="10.9118232"><ele>120.0</ele><time>2026-04-18T13:13:04.473Z</time></trkpt><trkpt lat="43.3345862" lon="10.911766"><ele>120.5</ele><time>2026-04-18T13:13:05.473Z</time></trkpt><trkpt lat="43.3345097" lon="10.9117096"><ele>121.0</ele><time>2026-04-18T13:13:06.486Z</time></trkpt><trkpt lat="43.3344399" lon="10.9116506"><ele>121.49999999999999</ele><time>2026-04-18T13:13:07.479Z</time></trkpt><trkpt lat="43.3343778" lon="10.9116011"><ele>122.0</ele><time>2026-04-18T13:13:08.488Z</time></trkpt><trkpt lat="43.3343339" lon="10.9114651"><ele>122.0</ele><time>2026-04-18T13:13:10.486Z</time></trkpt><trkpt lat="43.3343734" lon="10.911364"><ele>121.99999999999999</ele><time>2026-04-18T13:13:13.501Z</time></trkpt><trkpt lat="43.3344371" lon="10.9113641"><ele>121.99999999999999</ele><time>2026-04-18T13:13:16.499Z</time></trkpt><trkpt lat="43.3345366" lon="10.911438"><ele>122.0</ele><time>2026-04-18T13:13:18.477Z</time></trkpt><trkpt lat="43.33463" lon="10.9115014"><ele>122.0</ele><time>2026-04-18T13:13:19.475Z</time></trkpt><trkpt lat="43.334723" lon="10.9115461"><ele>124.33333333333333</ele><time>2026-04-18T13:13:20.483Z</time></trkpt><trkpt lat="43.334822" lon="10.9115687"><ele>126.66666666666666</ele><time>2026-04-18T13:13:21.481Z</time></trkpt><trkpt lat="43.3349061" lon="10.9115747"><ele>129.0</ele><time>2026-04-18T13:13:22.481Z</time></trkpt><trkpt lat="43.3349979" lon="10.9115751"><ele>131.33333333333334</ele><time>2026-04-18T13:13:23.484Z</time></trkpt><trkpt lat="43.3350827" lon="10.9115561"><ele>133.66666666666669</ele><time>2026-04-18T13:13:24.481Z</time></trkpt><trkpt lat="43.3351638" lon="10.9115129"><ele>136.0</ele><time>2026-04-18T13:13:25.488Z</time></trkpt><trkpt lat="43.3352542" lon="10.9114477"><ele>136.0</ele><time>2026-04-18T13:13:26.485Z</time></trkpt><trkpt lat="43.3353516" lon="10.9113898"><ele>136.0</ele><time>2026-04-18T13:13:27.496Z</time></trkpt><trkpt lat="43.3354411" lon="10.9113212"><ele>136.0</ele><time>2026-04-18T13:13:28.496Z</time></trkpt><trkpt lat="43.3355316" lon="10.9112443"><ele>136.0</ele><time>2026-04-18T13:13:29.483Z</time></trkpt><trkpt lat="43.335607" lon="10.9111837"><ele>136.0</ele><time>2026-04-18T13:13:30.498Z</time></trkpt><trkpt lat="43.3356959" lon="10.9111153"><ele>135.83333333333334</ele><time>2026-04-18T13:13:31.488Z</time></trkpt><trkpt lat="43.3357696" lon="10.9110558"><ele>135.66666666666669</ele><time>2026-04-18T13:13:32.487Z</time></trkpt><trkpt lat="43.3358369" lon="10.9110202"><ele>135.5</ele><time>2026-04-18T13:13:33.486Z</time></trkpt><trkpt lat="43.3359156" lon="10.911022"><ele>135.33333333333334</ele><time>2026-04-18T13:13:34.476Z</time></trkpt><trkpt lat="43.3360072" lon="10.91104"><ele>135.16666666666666</ele><time>2026-04-18T13:13:35.48Z</time></trkpt><trkpt lat="43.3361051" lon="10.9110489"><ele>135.0</ele><time>2026-04-18T13:13:36.476Z</time></trkpt><trkpt lat="43.3362082" lon="10.9110464"><ele>135.0</ele><time>2026-04-18T13:13:37.486Z</time></trkpt><trkpt lat="43.3363173" lon="10.9110326"><ele>135.0</ele><time>2026-04-18T13:13:38.482Z</time></trkpt><trkpt lat="43.3364137" lon="10.9110309"><ele>135.0</ele><time>2026-04-18T13:13:39.471Z</time></trkpt><trkpt lat="43.3365086" lon="10.9110497"><ele>135.0</ele><time>2026-04-18T13:13:40.482Z</time></trkpt><trkpt lat="43.3366028" lon="10.9110815"><ele>135.0</ele><time>2026-04-18T13:13:41.48Z</time></trkpt><trkpt lat="43.3366632" lon="10.9111354"><ele>135.83333333333334</ele><time>2026-04-18T13:13:42.502Z</time></trkpt><trkpt lat="43.33678" lon="10.9111262"><ele>136.66666666666666</ele><time>2026-04-18T13:13:44.49Z</time></trkpt><trkpt lat="43.3368484" lon="10.9110767"><ele>137.5</ele><time>2026-04-18T13:13:45.496Z</time></trkpt><trkpt lat="43.3369029" lon="10.9110016"><ele>138.33333333333331</ele><time>2026-04-18T13:13:46.493Z</time></trkpt><trkpt lat="43.3369586" lon="10.910908"><ele>139.16666666666666</ele><time>2026-04-18T13:13:47.5Z</time></trkpt><trkpt lat="43.3369833" lon="10.9108089"><ele>140.0</ele><time>2026-04-18T13:13:48.486Z</time></trkpt><trkpt lat="43.3369896" lon="10.9107033"><ele>142.33333333333331</ele><time>2026-04-18T13:13:49.487Z</time></trkpt><trkpt lat="43.3369636" lon="10.9106066"><ele>144.66666666666666</ele><time>2026-04-18T13:13:50.485Z</time></trkpt><trkpt lat="43.3369302" lon="10.9105027"><ele>147.0</ele><time>2026-04-18T13:13:51.496Z</time></trkpt><trkpt lat="43.3368814" lon="10.9104033"><ele>149.33333333333334</ele><time>2026-04-18T13:13:52.496Z</time></trkpt><trkpt lat="43.3368495" lon="10.9103025"><ele>151.66666666666669</ele><time>2026-04-18T13:13:53.488Z</time></trkpt><trkpt lat="43.3368464" lon="10.9101943"><ele>154.0</ele><time>2026-04-18T13:13:54.496Z</time></trkpt><trkpt lat="43.3368601" lon="10.9100906"><ele>155.33333333333334</ele><time>2026-04-18T13:13:55.492Z</time></trkpt><trkpt lat="43.3368687" lon="10.9099942"><ele>156.66666666666669</ele><time>2026-04-18T13:13:56.489Z</time></trkpt><trkpt lat="43.3368483" lon="10.9098941"><ele>158.0</ele><time>2026-04-18T13:13:57.484Z</time></trkpt><trkpt lat="43.3368024" lon="10.9097911"><ele>159.33333333333334</ele><time>2026-04-18T13:13:58.492Z</time></trkpt><trkpt lat="43.3367689" lon="10.9096867"><ele>160.66666666666666</ele><time>2026-04-18T13:13:59.489Z</time></trkpt><trkpt lat="43.3367558" lon="10.9095842"><ele>162.0</ele><time>2026-04-18T13:14:00.479Z</time></trkpt><trkpt lat="43.3367674" lon="10.9094825"><ele>162.0</ele><time>2026-04-18T13:14:01.477Z</time></trkpt><trkpt lat="43.3367963" lon="10.9093713"><ele>162.0</ele><time>2026-04-18T13:14:02.479Z</time></trkpt><trkpt lat="43.3368471" lon="10.9092533"><ele>162.0</ele><time>2026-04-18T13:14:03.469Z</time></trkpt><trkpt lat="43.336899" lon="10.90911"><ele>162.0</ele><time>2026-04-18T13:14:04.477Z</time></trkpt><trkpt lat="43.3369409" lon="10.9089818"><ele>162.0</ele><time>2026-04-18T13:14:05.469Z</time></trkpt><trkpt lat="43.3369842" lon="10.9088831"><ele>161.33333333333334</ele><time>2026-04-18T13:14:06.468Z</time></trkpt><trkpt lat="43.3370287" lon="10.9087991"><ele>160.66666666666666</ele><time>2026-04-18T13:14:07.474Z</time></trkpt><trkpt lat="43.3370645" lon="10.9087185"><ele>160.0</ele><time>2026-04-18T13:14:08.463Z</time></trkpt><trkpt lat="43.3371133" lon="10.9086414"><ele>159.33333333333331</ele><time>2026-04-18T13:14:09.477Z</time></trkpt><trkpt lat="43.33719" lon="10.9085938"><ele>158.66666666666666</ele><time>2026-04-18T13:14:10.479Z</time></trkpt><trkpt lat="43.337276" lon="10.9085666"><ele>158.0</ele><time>2026-04-18T13:14:11.474Z</time></trkpt><trkpt lat="43.3373704" lon="10.9085305"><ele>158.0</ele><time>2026-04-18T13:14:12.478Z</time></trkpt><trkpt lat="43.33746" lon="10.9084974"><ele>158.0</ele><time>2026-04-18T13:14:13.476Z</time></trkpt><trkpt lat="43.337546" lon="10.9084892"><ele>158.0</ele><time>2026-04-18T13:14:14.483Z</time></trkpt><trkpt lat="43.3376219" lon="10.9085051"><ele>158.0</ele><time>2026-04-18T13:14:15.479Z</time></trkpt><trkpt lat="43.3377004" lon="10.9085047"><ele>158.0</ele><time>2026-04-18T13:14:16.478Z</time></trkpt><trkpt lat="43.3377785" lon="10.9084931"><ele>158.0</ele><time>2026-04-18T13:14:17.483Z</time></trkpt><trkpt lat="43.3378413" lon="10.9084479"><ele>160.66666666666666</ele><time>2026-04-18T13:14:18.476Z</time></trkpt><trkpt lat="43.3379137" lon="10.9083138"><ele>163.33333333333331</ele><time>2026-04-18T13:14:20.484Z</time></trkpt><trkpt lat="43.3379287" lon="10.9082187"><ele>166.0</ele><time>2026-04-18T13:14:21.484Z</time></trkpt><trkpt lat="43.3379286" lon="10.9080964"><ele>168.66666666666666</ele><time>2026-04-18T13:14:22.483Z</time></trkpt><trkpt lat="43.3379127" lon="10.9079883"><ele>171.33333333333334</ele><time>2026-04-18T13:14:23.478Z</time></trkpt><trkpt lat="43.3378995" lon="10.9078956"><ele>174.0</ele><time>2026-04-18T13:14:24.485Z</time></trkpt><trkpt lat="43.3378628" lon="10.9077835"><ele>174.0</ele><time>2026-04-18T13:14:26.483Z</time></trkpt><trkpt lat="43.3377999" lon="10.9077472"><ele>174.0</ele><time>2026-04-18T13:14:29.472Z</time></trkpt><trkpt lat="43.3377486" lon="10.907857"><ele>174.0</ele><time>2026-04-18T13:14:31.473Z</time></trkpt><trkpt lat="43.337717" lon="10.9079428"><ele>174.0</ele><time>2026-04-18T13:14:32.466Z</time></trkpt><trkpt lat="43.3376668" lon="10.9080075"><ele>174.0</ele><time>2026-04-18T13:14:33.476Z</time></trkpt><trkpt lat="43.3376041" lon="10.9080509"><ele>174.0</ele><time>2026-04-18T13:14:34.47Z</time></trkpt><trkpt lat="43.3375366" lon="10.9080511"><ele>174.0</ele><time>2026-04-18T13:14:35.473Z</time></trkpt><trkpt lat="43.3374479" lon="10.9079934"><ele>174.0</ele><time>2026-04-18T13:14:37.48Z</time></trkpt><trkpt lat="43.3374289" lon="10.9078994"><ele>174.0</ele><time>2026-04-18T13:14:39.473Z</time></trkpt><trkpt lat="43.3374744" lon="10.9077969"><ele>174.0</ele><time>2026-04-18T13:14:41.479Z</time></trkpt><trkpt lat="43.3375327" lon="10.9077507"><ele>174.0</ele><time>2026-04-18T13:14:42.484Z</time></trkpt><trkpt lat="43.3375822" lon="10.9076497"><ele>174.0</ele><time>2026-04-18T13:14:43.479Z</time></trkpt><trkpt lat="43.337619" lon="10.9075172"><ele>174.0</ele><time>2026-04-18T13:14:44.476Z</time></trkpt><trkpt lat="43.3376506" lon="10.9073812"><ele>176.16666666666666</ele><time>2026-04-18T13:14:45.471Z</time></trkpt><trkpt lat="43.3376663" lon="10.9072704"><ele>178.33333333333334</ele><time>2026-04-18T13:14:46.468Z</time></trkpt><trkpt lat="43.3376936" lon="10.907178"><ele>180.5</ele><time>2026-04-18T13:14:47.474Z</time></trkpt><trkpt lat="43.3377506" lon="10.9070994"><ele>182.66666666666669</ele><time>2026-04-18T13:14:48.462Z</time></trkpt><trkpt lat="43.3378116" lon="10.9070259"><ele>184.83333333333334</ele><time>2026-04-18T13:14:49.477Z</time></trkpt><trkpt lat="43.3378624" lon="10.9069699"><ele>187.0</ele><time>2026-04-18T13:14:50.47Z</time></trkpt><trkpt lat="43.3379455" lon="10.9068677"><ele>187.0</ele><time>2026-04-18T13:14:52.473Z</time></trkpt><trkpt lat="43.337987" lon="10.9067531"><ele>187.0</ele><time>2026-04-18T13:14:53.476Z</time></trkpt><trkpt lat="43.3380128" lon="10.9066475"><ele>187.0</ele><time>2026-04-18T13:14:54.477Z</time></trkpt><trkpt lat="43.3380345" lon="10.906559"><ele>187.0</ele><time>2026-04-18T13:14:55.484Z</time></trkpt><trkpt lat="43.3380514" lon="10.9064595"><ele>187.0</ele><time>2026-04-18T13:14:56.488Z</time></trkpt><trkpt lat="43.3380624" lon="10.9063531"><ele>187.0</ele><time>2026-04-18T13:14:57.484Z</time></trkpt><trkpt lat="43.3380676" lon="10.9062187"><ele>186.39999999999998</ele><time>2026-04-18T13:14:58.485Z</time></trkpt><trkpt lat="43.3380626" lon="10.9060591"><ele>185.79999999999998</ele><time>2026-04-18T13:14:59.477Z</time></trkpt><trkpt lat="43.3380416" lon="10.9059058"><ele>185.2</ele><time>2026-04-18T13:15:00.485Z</time></trkpt><trkpt lat="43.3380169" lon="10.9057616"><ele>184.6</ele><time>2026-04-18T13:15:01.478Z</time></trkpt><trkpt lat="43.3380161" lon="10.9056208"><ele>184.0</ele><time>2026-04-18T13:15:02.469Z</time></trkpt><trkpt lat="43.3380207" lon="10.9054982"><ele>187.2857142857143</ele><time>2026-04-18T13:15:03.476Z</time></trkpt><trkpt lat="43.3380194" lon="10.9053936"><ele>190.57142857142856</ele><time>2026-04-18T13:15:04.477Z</time></trkpt><trkpt lat="43.3380285" lon="10.9052966"><ele>193.85714285714286</ele><time>2026-04-18T13:15:05.478Z</time></trkpt><trkpt lat="43.3380318" lon="10.9052002"><ele>197.14285714285717</ele><time>2026-04-18T13:15:06.487Z</time></trkpt><trkpt lat="43.3380149" lon="10.9050974"><ele>200.42857142857144</ele><time>2026-04-18T13:15:07.483Z</time></trkpt><trkpt lat="43.3380003" lon="10.9050013"><ele>203.71428571428572</ele><time>2026-04-18T13:15:08.476Z</time></trkpt><trkpt lat="43.3380079" lon="10.9049104"><ele>207.0</ele><time>2026-04-18T13:15:09.472Z</time></trkpt><trkpt lat="43.3380314" lon="10.9048198"><ele>204.6</ele><time>2026-04-18T13:15:10.475Z</time></trkpt><trkpt lat="43.3380951" lon="10.9046822"><ele>202.2</ele><time>2026-04-18T13:15:12.48Z</time></trkpt><trkpt lat="43.3381747" lon="10.9046233"><ele>199.8</ele><time>2026-04-18T13:15:13.481Z</time></trkpt><trkpt lat="43.3382624" lon="10.9045677"><ele>197.4</ele><time>2026-04-18T13:15:14.479Z</time></trkpt><trkpt lat="43.3383325" lon="10.9045193"><ele>195.0</ele><time>2026-04-18T13:15:15.481Z</time></trkpt><trkpt lat="43.338383" lon="10.9044523"><ele>195.0</ele><time>2026-04-18T13:15:16.481Z</time></trkpt><trkpt lat="43.3384152" lon="10.9043739"><ele>195.0</ele><time>2026-04-18T13:15:17.489Z</time></trkpt><trkpt lat="43.338419" lon="10.9042802"><ele>195.0</ele><time>2026-04-18T13:15:18.48Z</time></trkpt><trkpt lat="43.338406" lon="10.9041768"><ele>195.0</ele><time>2026-04-18T13:15:19.487Z</time></trkpt><trkpt lat="43.3383837" lon="10.9040557"><ele>195.0</ele><time>2026-04-18T13:15:20.486Z</time></trkpt><trkpt lat="43.3383604" lon="10.9039351"><ele>195.0</ele><time>2026-04-18T13:15:21.48Z</time></trkpt><trkpt lat="43.3383539" lon="10.903823"><ele>196.33333333333334</ele><time>2026-04-18T13:15:22.475Z</time></trkpt><trkpt lat="43.33836" lon="10.9037014"><ele>197.66666666666669</ele><time>2026-04-18T13:15:23.476Z</time></trkpt><trkpt lat="43.3383608" lon="10.903575"><ele>199.0</ele><time>2026-04-18T13:15:24.48Z</time></trkpt><trkpt lat="43.338343" lon="10.9034517"><ele>200.33333333333334</ele><time>2026-04-18T13:15:25.482Z</time></trkpt><trkpt lat="43.3383099" lon="10.903347"><ele>201.66666666666669</ele><time>2026-04-18T13:15:26.479Z</time></trkpt><trkpt lat="43.3382809" lon="10.903254"><ele>203.0</ele><time>2026-04-18T13:15:27.476Z</time></trkpt><trkpt lat="43.3382771" lon="10.9031502"><ele>203.2</ele><time>2026-04-18T13:15:28.473Z</time></trkpt><trkpt lat="43.3382977" lon="10.903023"><ele>203.4</ele><time>2026-04-18T13:15:29.466Z</time></trkpt><trkpt lat="43.3383303" lon="10.9029018"><ele>203.6</ele><time>2026-04-18T13:15:30.483Z</time></trkpt><trkpt lat="43.3383561" lon="10.9027954"><ele>203.79999999999998</ele><time>2026-04-18T13:15:31.475Z</time></trkpt><trkpt lat="43.3384" lon="10.9026815"><ele>204.0</ele><time>2026-04-18T13:15:32.473Z</time></trkpt><trkpt lat="43.3384614" lon="10.9025857"><ele>204.79999999999998</ele><time>2026-04-18T13:15:33.477Z</time></trkpt><trkpt lat="43.3385377" lon="10.9024887"><ele>205.6</ele><time>2026-04-18T13:15:34.475Z</time></trkpt><trkpt lat="43.3386114" lon="10.9024183"><ele>206.4</ele><time>2026-04-18T13:15:35.482Z</time></trkpt><trkpt lat="43.3386717" lon="10.9023539"><ele>207.2</ele><time>2026-04-18T13:15:36.473Z</time></trkpt><trkpt lat="43.3387493" lon="10.9023077"><ele>208.0</ele><time>2026-04-18T13:15:37.474Z</time></trkpt><trkpt lat="43.3388536" lon="10.9022643"><ele>207.16666666666666</ele><time>2026-04-18T13:15:38.482Z</time></trkpt><trkpt lat="43.3389628" lon="10.9022376"><ele>206.33333333333331</ele><time>2026-04-18T13:15:39.474Z</time></trkpt><trkpt lat="43.3390509" lon="10.9022138"><ele>205.5</ele><time>2026-04-18T13:15:40.479Z</time></trkpt><trkpt lat="43.3391151" lon="10.902182"><ele>204.66666666666669</ele><time>2026-04-18T13:15:41.478Z</time></trkpt><trkpt lat="43.3391745" lon="10.9021445"><ele>203.83333333333334</ele><time>2026-04-18T13:15:42.478Z</time></trkpt><trkpt lat="43.3392371" lon="10.9021027"><ele>203.0</ele><time>2026-04-18T13:15:43.473Z</time></trkpt><trkpt lat="43.3393192" lon="10.9020601"><ele>203.00000000000003</ele><time>2026-04-18T13:15:44.47Z</time></trkpt><trkpt lat="43.3394087" lon="10.902002"><ele>203.0</ele><time>2026-04-18T13:15:45.479Z</time></trkpt><trkpt lat="43.3394932" lon="10.9019471"><ele>203.0</ele><time>2026-04-18T13:15:46.478Z</time></trkpt><trkpt lat="43.3395655" lon="10.901895"><ele>203.0</ele><time>2026-04-18T13:15:47.492Z</time></trkpt><trkpt lat="43.3396339" lon="10.9018408"><ele>203.00000000000003</ele><time>2026-04-18T13:15:48.472Z</time></trkpt><trkpt lat="43.339702" lon="10.9017588"><ele>203.0</ele><time>2026-04-18T13:15:49.466Z</time></trkpt><trkpt lat="43.3397565" lon="10.9016498"><ele>203.0</ele><time>2026-04-18T13:15:50.471Z</time></trkpt><trkpt lat="43.3398122" lon="10.9015314"><ele>203.0</ele><time>2026-04-18T13:15:51.48Z</time></trkpt><trkpt lat="43.3398657" lon="10.90141"><ele>203.0</ele><time>2026-04-18T13:15:52.474Z</time></trkpt><trkpt lat="43.3399211" lon="10.9013147"><ele>203.0</ele><time>2026-04-18T13:15:53.478Z</time></trkpt><trkpt lat="43.3399815" lon="10.9012214"><ele>203.0</ele><time>2026-04-18T13:15:54.476Z</time></trkpt><trkpt lat="43.3400561" lon="10.9011224"><ele>203.0</ele><time>2026-04-18T13:15:55.498Z</time></trkpt><trkpt lat="43.3401304" lon="10.901014"><ele>203.0</ele><time>2026-04-18T13:15:56.491Z</time></trkpt><trkpt lat="43.3402004" lon="10.9009051"><ele>203.0</ele><time>2026-04-18T13:15:57.492Z</time></trkpt><trkpt lat="43.3402639" lon="10.9008174"><ele>203.0</ele><time>2026-04-18T13:15:58.484Z</time></trkpt><trkpt lat="43.3403408" lon="10.9007222"><ele>203.0</ele><time>2026-04-18T13:15:59.479Z</time></trkpt><trkpt lat="43.3404327" lon="10.9006585"><ele>202.0</ele><time>2026-04-18T13:16:00.485Z</time></trkpt><trkpt lat="43.3405196" lon="10.900617"><ele>201.0</ele><time>2026-04-18T13:16:01.494Z</time></trkpt><trkpt lat="43.3406015" lon="10.9005605"><ele>200.0</ele><time>2026-04-18T13:16:02.486Z</time></trkpt><trkpt lat="43.3406776" lon="10.9004782"><ele>199.0</ele><time>2026-04-18T13:16:03.481Z</time></trkpt><trkpt lat="43.3407632" lon="10.9003665"><ele>198.0</ele><time>2026-04-18T13:16:04.478Z</time></trkpt><trkpt lat="43.3408498" lon="10.9002303"><ele>198.0</ele><time>2026-04-18T13:16:05.484Z</time></trkpt><trkpt lat="43.3409364" lon="10.9000854"><ele>198.0</ele><time>2026-04-18T13:16:06.488Z</time></trkpt><trkpt lat="43.3410257" lon="10.8999616"><ele>198.0</ele><time>2026-04-18T13:16:07.483Z</time></trkpt><trkpt lat="43.3411248" lon="10.8998645"><ele>198.0</ele><time>2026-04-18T13:16:08.494Z</time></trkpt><trkpt lat="43.3412012" lon="10.899804"><ele>198.60000000000002</ele><time>2026-04-18T13:16:09.49Z</time></trkpt><trkpt lat="43.3412783" lon="10.8997648"><ele>199.20000000000002</ele><time>2026-04-18T13:16:10.491Z</time></trkpt><trkpt lat="43.3413642" lon="10.8997356"><ele>199.8</ele><time>2026-04-18T13:16:11.492Z</time></trkpt><trkpt lat="43.3414455" lon="10.8997235"><ele>200.4</ele><time>2026-04-18T13:16:12.491Z</time></trkpt><trkpt lat="43.3415125" lon="10.8997051"><ele>201.0</ele><time>2026-04-18T13:16:13.499Z</time></trkpt><trkpt lat="43.341623" lon="10.899606"><ele>201.0</ele><time>2026-04-18T13:16:15.487Z</time></trkpt><trkpt lat="43.3416581" lon="10.8995043"><ele>201.0</ele><time>2026-04-18T13:16:16.5Z</time></trkpt><trkpt lat="43.3416731" lon="10.8993668"><ele>201.0</ele><time>2026-04-18T13:16:17.491Z</time></trkpt><trkpt lat="43.3416828" lon="10.899237"><ele>201.0</ele><time>2026-04-18T13:16:18.504Z</time></trkpt><trkpt lat="43.3416997" lon="10.8991257"><ele>201.0</ele><time>2026-04-18T13:16:19.487Z</time></trkpt><trkpt lat="43.3417442" lon="10.8990232"><ele>201.0</ele><time>2026-04-18T13:16:20.484Z</time></trkpt><trkpt lat="43.3418063" lon="10.8989039"><ele>202.0</ele><time>2026-04-18T13:16:21.484Z</time></trkpt><trkpt lat="43.3418925" lon="10.8987887"><ele>203.0</ele><time>2026-04-18T13:16:22.494Z</time></trkpt><trkpt lat="43.3420009" lon="10.8986671"><ele>204.0</ele><time>2026-04-18T13:16:23.494Z</time></trkpt><trkpt lat="43.3421139" lon="10.8985482"><ele>205.0</ele><time>2026-04-18T13:16:24.501Z</time></trkpt><trkpt lat="43.3422238" lon="10.8984466"><ele>207.25</ele><time>2026-04-18T13:16:25.492Z</time></trkpt><trkpt lat="43.3423364" lon="10.8983325"><ele>209.5</ele><time>2026-04-18T13:16:26.492Z</time></trkpt><trkpt lat="43.3424374" lon="10.8982101"><ele>211.75</ele><time>2026-04-18T13:16:27.491Z</time></trkpt><trkpt lat="43.3425335" lon="10.8980837"><ele>214.0</ele><time>2026-04-18T13:16:28.497Z</time></trkpt><trkpt lat="43.3426122" lon="10.897956"><ele>214.0</ele><time>2026-04-18T13:16:29.483Z</time></trkpt><trkpt lat="43.342686" lon="10.8978255"><ele>214.0</ele><time>2026-04-18T13:16:30.493Z</time></trkpt><trkpt lat="43.3427593" lon="10.8976946"><ele>214.0</ele><time>2026-04-18T13:16:31.489Z</time></trkpt><trkpt lat="43.3428173" lon="10.8975669"><ele>214.0</ele><time>2026-04-18T13:16:32.484Z</time></trkpt><trkpt lat="43.3428613" lon="10.8974143"><ele>215.5</ele><time>2026-04-18T13:16:33.487Z</time></trkpt><trkpt lat="43.3428991" lon="10.8972466"><ele>217.0</ele><time>2026-04-18T13:16:34.486Z</time></trkpt><trkpt lat="43.3429355" lon="10.8970833"><ele>218.5</ele><time>2026-04-18T13:16:35.484Z</time></trkpt><trkpt lat="43.3429698" lon="10.8969364"><ele>220.0</ele><time>2026-04-18T13:16:36.494Z</time></trkpt><trkpt lat="43.3430034" lon="10.8967973"><ele>219.8</ele><time>2026-04-18T13:16:37.498Z</time></trkpt><trkpt lat="43.3430477" lon="10.8966644"><ele>219.6</ele><time>2026-04-18T13:16:38.488Z</time></trkpt><trkpt lat="43.343098" lon="10.8965412"><ele>219.39999999999998</ele><time>2026-04-18T13:16:39.492Z</time></trkpt><trkpt lat="43.3431654" lon="10.8964192"><ele>219.2</ele><time>2026-04-18T13:16:40.487Z</time></trkpt><trkpt lat="43.3432522" lon="10.8963009"><ele>219.0</ele><time>2026-04-18T13:16:41.489Z</time></trkpt><trkpt lat="43.3433612" lon="10.8962047"><ele>219.0</ele><time>2026-04-18T13:16:42.486Z</time></trkpt><trkpt lat="43.3434827" lon="10.8961221"><ele>219.0</ele><time>2026-04-18T13:16:43.49Z</time></trkpt><trkpt lat="43.3436272" lon="10.8960527"><ele>219.0</ele><time>2026-04-18T13:16:44.496Z</time></trkpt><trkpt lat="43.3437807" lon="10.8959793"><ele>222.25</ele><time>2026-04-18T13:16:45.497Z</time></trkpt><trkpt lat="43.3439331" lon="10.8959121"><ele>225.5</ele><time>2026-04-18T13:16:46.498Z</time></trkpt><trkpt lat="43.3440658" lon="10.8958413"><ele>228.75</ele><time>2026-04-18T13:16:47.502Z</time></trkpt><trkpt lat="43.3441854" lon="10.8957543"><ele>232.0</ele><time>2026-04-18T13:16:48.495Z</time></trkpt><trkpt lat="43.3442826" lon="10.8956865"><ele>232.0</ele><time>2026-04-18T13:16:49.494Z</time></trkpt><trkpt lat="43.344369" lon="10.895638"><ele>232.0</ele><time>2026-04-18T13:16:50.493Z</time></trkpt><trkpt lat="43.3444558" lon="10.8955944"><ele>232.0</ele><time>2026-04-18T13:16:51.497Z</time></trkpt><trkpt lat="43.3445338" lon="10.8955283"><ele>232.0</ele><time>2026-04-18T13:16:52.492Z</time></trkpt><trkpt lat="43.3446161" lon="10.8954398"><ele>232.0</ele><time>2026-04-18T13:16:53.488Z</time></trkpt><trkpt lat="43.3447109" lon="10.8953365"><ele>231.66666666666666</ele><time>2026-04-18T13:16:54.493Z</time></trkpt><trkpt lat="43.3447757" lon="10.8952116"><ele>231.33333333333331</ele><time>2026-04-18T13:16:55.493Z</time></trkpt><trkpt lat="43.3448294" lon="10.8951157"><ele>231.0</ele><time>2026-04-18T13:16:56.491Z</time></trkpt><trkpt lat="43.3448815" lon="10.8950362"><ele>230.66666666666669</ele><time>2026-04-18T13:16:57.492Z</time></trkpt><trkpt lat="43.344936" lon="10.8949877"><ele>230.33333333333334</ele><time>2026-04-18T13:16:58.491Z</time></trkpt><trkpt lat="43.3449969" lon="10.8949544"><ele>230.0</ele><time>2026-04-18T13:16:59.511Z</time></trkpt><trkpt lat="43.3450628" lon="10.8949081"><ele>232.00000000000003</ele><time>2026-04-18T13:17:00.502Z</time></trkpt><trkpt lat="43.34514" lon="10.8948657"><ele>234.0</ele><time>2026-04-18T13:17:01.499Z</time></trkpt><trkpt lat="43.345217" lon="10.8948267"><ele>236.0</ele><time>2026-04-18T13:17:02.496Z</time></trkpt><trkpt lat="43.345298" lon="10.8947928"><ele>238.0</ele><time>2026-04-18T13:17:03.495Z</time></trkpt><trkpt lat="43.3453786" lon="10.8947615"><ele>240.00000000000003</ele><time>2026-04-18T13:17:04.496Z</time></trkpt><trkpt lat="43.3454609" lon="10.8947347"><ele>242.0</ele><time>2026-04-18T13:17:05.495Z</time></trkpt><trkpt lat="43.3455441" lon="10.8947004"><ele>239.16666666666669</ele><time>2026-04-18T13:17:06.494Z</time></trkpt><trkpt lat="43.3456363" lon="10.8946829"><ele>236.33333333333334</ele><time>2026-04-18T13:17:07.492Z</time></trkpt><trkpt lat="43.3457193" lon="10.8946865"><ele>233.5</ele><time>2026-04-18T13:17:08.497Z</time></trkpt><trkpt lat="43.3457984" lon="10.8946961"><ele>230.66666666666669</ele><time>2026-04-18T13:17:09.491Z</time></trkpt><trkpt lat="43.3458818" lon="10.8946972"><ele>227.83333333333334</ele><time>2026-04-18T13:17:10.491Z</time></trkpt><trkpt lat="43.3459611" lon="10.8946867"><ele>225.0</ele><time>2026-04-18T13:17:11.491Z</time></trkpt><trkpt lat="43.3460475" lon="10.8946784"><ele>225.0</ele><time>2026-04-18T13:17:12.495Z</time></trkpt><trkpt lat="43.3461479" lon="10.894665"><ele>225.0</ele><time>2026-04-18T13:17:13.491Z</time></trkpt><trkpt lat="43.3462341" lon="10.894646"><ele>225.0</ele><time>2026-04-18T13:17:14.497Z</time></trkpt><trkpt lat="43.3463088" lon="10.8946386"><ele>225.0</ele><time>2026-04-18T13:17:15.495Z</time></trkpt><trkpt lat="43.346382" lon="10.8946206"><ele>225.0</ele><time>2026-04-18T13:17:16.496Z</time></trkpt><trkpt lat="43.3464529" lon="10.8946056"><ele>225.0</ele><time>2026-04-18T13:17:17.498Z</time></trkpt><trkpt lat="43.3465253" lon="10.8946078"><ele>222.8</ele><time>2026-04-18T13:17:18.484Z</time></trkpt><trkpt lat="43.3466103" lon="10.894636"><ele>220.6</ele><time>2026-04-18T13:17:19.491Z</time></trkpt><trkpt lat="43.3467028" lon="10.8946761"><ele>218.39999999999998</ele><time>2026-04-18T13:17:20.489Z</time></trkpt><trkpt lat="43.3468149" lon="10.8947376"><ele>216.2</ele><time>2026-04-18T13:17:21.486Z</time></trkpt><trkpt lat="43.3469372" lon="10.8947891"><ele>214.0</ele><time>2026-04-18T13:17:22.489Z</time></trkpt><trkpt lat="43.3470648" lon="10.8948459"><ele>214.0</ele><time>2026-04-18T13:17:23.487Z</time></trkpt><trkpt lat="43.3471949" lon="10.8949087"><ele>214.0</ele><time>2026-04-18T13:17:24.494Z</time></trkpt><trkpt lat="43.3473329" lon="10.8949756"><ele>214.0</ele><time>2026-04-18T13:17:25.488Z</time></trkpt><trkpt lat="43.3474753" lon="10.8950382"><ele>214.0</ele><time>2026-04-18T13:17:26.493Z</time></trkpt><trkpt lat="43.3476189" lon="10.8950909"><ele>212.25</ele><time>2026-04-18T13:17:27.495Z</time></trkpt><trkpt lat="43.3477492" lon="10.8951444"><ele>210.5</ele><time>2026-04-18T13:17:28.495Z</time></trkpt><trkpt lat="43.3478721" lon="10.8951926"><ele>208.75</ele><time>2026-04-18T13:17:29.493Z</time></trkpt><trkpt lat="43.3480022" lon="10.8952233"><ele>207.0</ele><time>2026-04-18T13:17:30.495Z</time></trkpt><trkpt lat="43.3481339" lon="10.8952457"><ele>209.75</ele><time>2026-04-18T13:17:31.488Z</time></trkpt><trkpt lat="43.3482613" lon="10.8952425"><ele>212.5</ele><time>2026-04-18T13:17:32.49Z</time></trkpt><trkpt lat="43.3483677" lon="10.8952041"><ele>215.25</ele><time>2026-04-18T13:17:33.476Z</time></trkpt><trkpt lat="43.34849" lon="10.895149"><ele>218.0</ele><time>2026-04-18T13:17:34.484Z</time></trkpt><trkpt lat="43.3486157" lon="10.8950858"><ele>218.0</ele><time>2026-04-18T13:17:35.482Z</time></trkpt><trkpt lat="43.3487518" lon="10.8950468"><ele>218.0</ele><time>2026-04-18T13:17:36.479Z</time></trkpt><trkpt lat="43.3488751" lon="10.8950297"><ele>218.0</ele><time>2026-04-18T13:17:37.476Z</time></trkpt><trkpt lat="43.3490001" lon="10.8950267"><ele>218.0</ele><time>2026-04-18T13:17:38.477Z</time></trkpt><trkpt lat="43.3491208" lon="10.8950233"><ele>219.0</ele><time>2026-04-18T13:17:39.491Z</time></trkpt><trkpt lat="43.3492411" lon="10.895033"><ele>220.0</ele><time>2026-04-18T13:17:40.485Z</time></trkpt><trkpt lat="43.3493412" lon="10.8950381"><ele>221.0</ele><time>2026-04-18T13:17:41.489Z</time></trkpt><trkpt lat="43.349442" lon="10.8950456"><ele>222.0</ele><time>2026-04-18T13:17:42.489Z</time></trkpt><trkpt lat="43.3495486" lon="10.8950503"><ele>223.0</ele><time>2026-04-18T13:17:43.485Z</time></trkpt><trkpt lat="43.3496292" lon="10.8950308"><ele>223.0</ele><time>2026-04-18T13:17:44.492Z</time></trkpt><trkpt lat="43.3497059" lon="10.8949884"><ele>223.0</ele><time>2026-04-18T13:17:45.487Z</time></trkpt><trkpt lat="43.3497879" lon="10.8949368"><ele>223.0</ele><time>2026-04-18T13:17:46.484Z</time></trkpt><trkpt lat="43.3498799" lon="10.8948576"><ele>223.0</ele><time>2026-04-18T13:17:47.487Z</time></trkpt><trkpt lat="43.3499685" lon="10.894759"><ele>223.0</ele><time>2026-04-18T13:17:48.488Z</time></trkpt><trkpt lat="43.3500427" lon="10.8946455"><ele>223.2</ele><time>2026-04-18T13:17:49.484Z</time></trkpt><trkpt lat="43.3501093" lon="10.8945493"><ele>223.4</ele><time>2026-04-18T13:17:50.503Z</time></trkpt><trkpt lat="43.3501651" lon="10.8944599"><ele>223.59999999999997</ele><time>2026-04-18T13:17:51.492Z</time></trkpt><trkpt lat="43.3502294" lon="10.8943788"><ele>223.79999999999998</ele><time>2026-04-18T13:17:52.501Z</time></trkpt><trkpt lat="43.3503149" lon="10.8942911"><ele>224.0</ele><time>2026-04-18T13:17:53.499Z</time></trkpt><trkpt lat="43.3504022" lon="10.8942113"><ele>224.0</ele><time>2026-04-18T13:17:54.493Z</time></trkpt><trkpt lat="43.3505051" lon="10.8941556"><ele>224.0</ele><time>2026-04-18T13:17:55.487Z</time></trkpt><trkpt lat="43.3506203" lon="10.8941361"><ele>224.0</ele><time>2026-04-18T13:17:56.48Z</time></trkpt><trkpt lat="43.3507555" lon="10.8941393"><ele>224.0</ele><time>2026-04-18T13:17:57.495Z</time></trkpt><trkpt lat="43.3508978" lon="10.8941711"><ele>224.25</ele><time>2026-04-18T13:17:58.494Z</time></trkpt><trkpt lat="43.3510338" lon="10.8942188"><ele>224.5</ele><time>2026-04-18T13:17:59.498Z</time></trkpt><trkpt lat="43.3511654" lon="10.8942714"><ele>224.75</ele><time>2026-04-18T13:18:00.496Z</time></trkpt><trkpt lat="43.3512939" lon="10.8943379"><ele>225.0</ele><time>2026-04-18T13:18:01.492Z</time></trkpt><trkpt lat="43.351415" lon="10.8944154"><ele>224.25</ele><time>2026-04-18T13:18:02.486Z</time></trkpt><trkpt lat="43.3515259" lon="10.8945067"><ele>223.5</ele><time>2026-04-18T13:18:03.491Z</time></trkpt><trkpt lat="43.3516424" lon="10.8945929"><ele>222.75</ele><time>2026-04-18T13:18:04.484Z</time></trkpt><trkpt lat="43.3517467" lon="10.8946727"><ele>222.0</ele><time>2026-04-18T13:18:05.484Z</time></trkpt><trkpt lat="43.3518558" lon="10.8947734"><ele>222.0</ele><time>2026-04-18T13:18:06.48Z</time></trkpt><trkpt lat="43.3519601" lon="10.8948949"><ele>222.0</ele><time>2026-04-18T13:18:07.477Z</time></trkpt><trkpt lat="43.3520554" lon="10.8950392"><ele>222.0</ele><time>2026-04-18T13:18:08.478Z</time></trkpt><trkpt lat="43.352136" lon="10.8952049"><ele>222.0</ele><time>2026-04-18T13:18:09.477Z</time></trkpt><trkpt lat="43.3522261" lon="10.895392"><ele>222.33333333333331</ele><time>2026-04-18T13:18:10.487Z</time></trkpt><trkpt lat="43.3523266" lon="10.8955756"><ele>222.66666666666666</ele><time>2026-04-18T13:18:11.489Z</time></trkpt><trkpt lat="43.3524242" lon="10.8957502"><ele>223.0</ele><time>2026-04-18T13:18:12.493Z</time></trkpt><trkpt lat="43.3525204" lon="10.8959266"><ele>223.0</ele><time>2026-04-18T13:18:13.49Z</time></trkpt><trkpt lat="43.3526034" lon="10.8960992"><ele>223.0</ele><time>2026-04-18T13:18:14.495Z</time></trkpt><trkpt lat="43.352704" lon="10.8962736"><ele>223.0</ele><time>2026-04-18T13:18:15.486Z</time></trkpt><trkpt lat="43.3527827" lon="10.8964229"><ele>223.0</ele><time>2026-04-18T13:18:16.495Z</time></trkpt><trkpt lat="43.3528442" lon="10.8965871"><ele>221.66666666666666</ele><time>2026-04-18T13:18:17.503Z</time></trkpt><trkpt lat="43.3529079" lon="10.8967603"><ele>220.33333333333331</ele><time>2026-04-18T13:18:18.489Z</time></trkpt><trkpt lat="43.3529996" lon="10.8969434"><ele>219.0</ele><time>2026-04-18T13:18:19.499Z</time></trkpt><trkpt lat="43.3530686" lon="10.897144"><ele>221.25</ele><time>2026-04-18T13:18:20.498Z</time></trkpt><trkpt lat="43.3531421" lon="10.8973364"><ele>223.5</ele><time>2026-04-18T13:18:21.505Z</time></trkpt><trkpt lat="43.3531956" lon="10.8975065"><ele>225.75</ele><time>2026-04-18T13:18:22.5Z</time></trkpt><trkpt lat="43.3532619" lon="10.8976753"><ele>228.0</ele><time>2026-04-18T13:18:23.502Z</time></trkpt><trkpt lat="43.3533381" lon="10.8978257"><ele>229.0</ele><time>2026-04-18T13:18:24.5Z</time></trkpt><trkpt lat="43.3533996" lon="10.8979748"><ele>230.0</ele><time>2026-04-18T13:18:25.495Z</time></trkpt><trkpt lat="43.3534471" lon="10.8981327"><ele>231.0</ele><time>2026-04-18T13:18:26.491Z</time></trkpt><trkpt lat="43.3534853" lon="10.8983084"><ele>232.0</ele><time>2026-04-18T13:18:27.485Z</time></trkpt><trkpt lat="43.3534811" lon="10.8984895"><ele>233.25</ele><time>2026-04-18T13:18:28.481Z</time></trkpt><trkpt lat="43.3534649" lon="10.8986813"><ele>234.5</ele><time>2026-04-18T13:18:29.479Z</time></trkpt><trkpt lat="43.3534238" lon="10.8988841"><ele>235.75</ele><time>2026-04-18T13:18:30.492Z</time></trkpt><trkpt lat="43.353358" lon="10.8990658"><ele>237.0</ele><time>2026-04-18T13:18:31.488Z</time></trkpt><trkpt lat="43.3532985" lon="10.8992606"><ele>238.75</ele><time>2026-04-18T13:18:32.5Z</time></trkpt><trkpt lat="43.3532347" lon="10.8994619"><ele>240.5</ele><time>2026-04-18T13:18:33.489Z</time></trkpt><trkpt lat="43.3531831" lon="10.8996405"><ele>242.25</ele><time>2026-04-18T13:18:34.483Z</time></trkpt><trkpt lat="43.3531567" lon="10.8997872"><ele>244.0</ele><time>2026-04-18T13:18:35.483Z</time></trkpt><trkpt lat="43.3531311" lon="10.899902"><ele>243.99999999999997</ele><time>2026-04-18T13:18:36.479Z</time></trkpt><trkpt lat="43.3531201" lon="10.9000043"><ele>244.0</ele><time>2026-04-18T13:18:37.487Z</time></trkpt><trkpt lat="43.3531023" lon="10.9001613"><ele>244.0</ele><time>2026-04-18T13:18:39.492Z</time></trkpt><trkpt lat="43.3530669" lon="10.9002945"><ele>244.0</ele><time>2026-04-18T13:18:41.498Z</time></trkpt><trkpt lat="43.3530602" lon="10.9003908"><ele>243.99999999999997</ele><time>2026-04-18T13:18:44.491Z</time></trkpt><trkpt lat="43.3530506" lon="10.9004962"><ele>244.0</ele><time>2026-04-18T13:36:49.476Z</time></trkpt><trkpt lat="43.3530645" lon="10.900612"><ele>245.5</ele><time>2026-04-18T13:36:51.486Z</time></trkpt><trkpt lat="43.3530489" lon="10.9008188"><ele>247.0</ele><time>2026-04-18T13:36:53.493Z</time></trkpt><trkpt lat="43.353027" lon="10.9009494"><ele>248.5</ele><time>2026-04-18T13:36:54.493Z</time></trkpt><trkpt lat="43.3530056" lon="10.901089"><ele>250.0</ele><time>2026-04-18T13:36:55.494Z</time></trkpt><trkpt lat="43.3529869" lon="10.9012302"><ele>250.0</ele><time>2026-04-18T13:36:56.492Z</time></trkpt><trkpt lat="43.3529769" lon="10.9013619"><ele>250.0</ele><time>2026-04-18T13:36:57.501Z</time></trkpt><trkpt lat="43.3529677" lon="10.9014736"><ele>250.0</ele><time>2026-04-18T13:36:58.492Z</time></trkpt><trkpt lat="43.3529522" lon="10.9015966"><ele>250.0</ele><time>2026-04-18T13:36:59.489Z</time></trkpt><trkpt lat="43.3529325" lon="10.9017222"><ele>250.0</ele><time>2026-04-18T13:37:00.494Z</time></trkpt><trkpt lat="43.3529108" lon="10.9018426"><ele>251.2</ele><time>2026-04-18T13:37:01.488Z</time></trkpt><trkpt lat="43.3528895" lon="10.9019747"><ele>252.4</ele><time>2026-04-18T13:37:02.492Z</time></trkpt><trkpt lat="43.3528752" lon="10.9021029"><ele>253.60000000000002</ele><time>2026-04-18T13:37:03.486Z</time></trkpt><trkpt lat="43.3528651" lon="10.9022279"><ele>254.8</ele><time>2026-04-18T13:37:04.487Z</time></trkpt><trkpt lat="43.3528468" lon="10.9023527"><ele>256.0</ele><time>2026-04-18T13:37:05.488Z</time></trkpt><trkpt lat="43.3528327" lon="10.9024701"><ele>255.99999999999997</ele><time>2026-04-18T13:37:06.478Z</time></trkpt><trkpt lat="43.3528263" lon="10.9025665"><ele>256.0</ele><time>2026-04-18T13:37:07.492Z</time></trkpt><trkpt lat="43.3528585" lon="10.9026837"><ele>256.0</ele><time>2026-04-18T13:37:09.48Z</time></trkpt><trkpt lat="43.3529277" lon="10.9027744"><ele>256.0</ele><time>2026-04-18T13:37:11.477Z</time></trkpt><trkpt lat="43.3530356" lon="10.9027361"><ele>255.99999999999997</ele><time>2026-04-18T13:37:13.484Z</time></trkpt><trkpt lat="43.353101" lon="10.9026774"><ele>256.0</ele><time>2026-04-18T13:37:14.484Z</time></trkpt><trkpt lat="43.3531608" lon="10.9026071"><ele>258.66666666666663</ele><time>2026-04-18T13:37:15.481Z</time></trkpt><trkpt lat="43.3532346" lon="10.9025495"><ele>261.3333333333333</ele><time>2026-04-18T13:37:16.486Z</time></trkpt><trkpt lat="43.3533124" lon="10.9025115"><ele>264.0</ele><time>2026-04-18T13:37:17.482Z</time></trkpt><trkpt lat="43.3533968" lon="10.9024975"><ele>266.6666666666667</ele><time>2026-04-18T13:37:18.478Z</time></trkpt><trkpt lat="43.3534872" lon="10.9024755"><ele>269.33333333333337</ele><time>2026-04-18T13:37:19.478Z</time></trkpt><trkpt lat="43.3535873" lon="10.902449"><ele>272.0</ele><time>2026-04-18T13:37:20.473Z</time></trkpt><trkpt lat="43.3536778" lon="10.9024372"><ele>272.0</ele><time>2026-04-18T13:37:21.479Z</time></trkpt><trkpt lat="43.3537543" lon="10.902441"><ele>272.0</ele><time>2026-04-18T13:37:22.482Z</time></trkpt><trkpt lat="43.35383" lon="10.9024619"><ele>272.0</ele><time>2026-04-18T13:37:23.475Z</time></trkpt><trkpt lat="43.3539052" lon="10.9025047"><ele>272.0</ele><time>2026-04-18T13:37:24.483Z</time></trkpt><trkpt lat="43.3539619" lon="10.9025687"><ele>272.0</ele><time>2026-04-18T13:37:25.485Z</time></trkpt><trkpt lat="43.354014" lon="10.9026545"><ele>272.0</ele><time>2026-04-18T13:37:26.487Z</time></trkpt><trkpt lat="43.3540685" lon="10.9027366"><ele>273.6666666666667</ele><time>2026-04-18T13:37:27.487Z</time></trkpt><trkpt lat="43.3541234" lon="10.9027976"><ele>275.33333333333337</ele><time>2026-04-18T13:37:28.495Z</time></trkpt><trkpt lat="43.3541788" lon="10.9028615"><ele>277.0</ele><time>2026-04-18T13:37:29.486Z</time></trkpt><trkpt lat="43.3542448" lon="10.9029197"><ele>278.6666666666667</ele><time>2026-04-18T13:37:30.491Z</time></trkpt><trkpt lat="43.3543202" lon="10.9030048"><ele>280.3333333333333</ele><time>2026-04-18T13:37:31.482Z</time></trkpt><trkpt lat="43.3543848" lon="10.9030907"><ele>282.0</ele><time>2026-04-18T13:37:32.485Z</time></trkpt><trkpt lat="43.3544568" lon="10.9031829"><ele>282.0</ele><time>2026-04-18T13:37:33.482Z</time></trkpt><trkpt lat="43.3545277" lon="10.9032714"><ele>282.0</ele><time>2026-04-18T13:37:34.476Z</time></trkpt><trkpt lat="43.3545932" lon="10.9033469"><ele>282.0</ele><time>2026-04-18T13:37:35.488Z</time></trkpt><trkpt lat="43.3546589" lon="10.9034183"><ele>282.0</ele><time>2026-04-18T13:37:36.487Z</time></trkpt><trkpt lat="43.3547369" lon="10.903496"><ele>282.0</ele><time>2026-04-18T13:37:37.489Z</time></trkpt><trkpt lat="43.3548176" lon="10.9035858"><ele>281.4</ele><time>2026-04-18T13:37:38.482Z</time></trkpt><trkpt lat="43.354891" lon="10.9036713"><ele>280.79999999999995</ele><time>2026-04-18T13:37:39.479Z</time></trkpt><trkpt lat="43.3549626" lon="10.9037523"><ele>280.2</ele><time>2026-04-18T13:37:40.475Z</time></trkpt><trkpt lat="43.3550333" lon="10.9038341"><ele>279.59999999999997</ele><time>2026-04-18T13:37:41.47Z</time></trkpt><trkpt lat="43.3551154" lon="10.9039164"><ele>279.0</ele><time>2026-04-18T13:37:42.476Z</time></trkpt><trkpt lat="43.355187" lon="10.9039926"><ele>279.0</ele><time>2026-04-18T13:37:43.477Z</time></trkpt><trkpt lat="43.3552483" lon="10.9040538"><ele>279.0</ele><time>2026-04-18T13:37:44.479Z</time></trkpt><trkpt lat="43.3553148" lon="10.9040977"><ele>279.0</ele><time>2026-04-18T13:37:45.481Z</time></trkpt><trkpt lat="43.3554032" lon="10.9041358"><ele>279.0</ele><time>2026-04-18T13:37:46.488Z</time></trkpt><trkpt lat="43.3554976" lon="10.90417"><ele>279.0</ele><time>2026-04-18T13:37:47.491Z</time></trkpt><trkpt lat="43.3556001" lon="10.9042099"><ele>279.0</ele><time>2026-04-18T13:37:48.485Z</time></trkpt><trkpt lat="43.3556993" lon="10.904246"><ele>277.4</ele><time>2026-04-18T13:37:49.491Z</time></trkpt><trkpt lat="43.3557947" lon="10.9042884"><ele>275.79999999999995</ele><time>2026-04-18T13:37:50.482Z</time></trkpt><trkpt lat="43.3558965" lon="10.9043224"><ele>274.20000000000005</ele><time>2026-04-18T13:37:51.482Z</time></trkpt><trkpt lat="43.3559927" lon="10.9043398"><ele>272.6</ele><time>2026-04-18T13:37:52.486Z</time></trkpt><trkpt lat="43.3560947" lon="10.9043581"><ele>271.0</ele><time>2026-04-18T13:37:53.49Z</time></trkpt><trkpt lat="43.3561929" lon="10.9043913"><ele>271.0</ele><time>2026-04-18T13:37:54.491Z</time></trkpt><trkpt lat="43.3562827" lon="10.904413"><ele>271.0</ele><time>2026-04-18T13:37:55.498Z</time></trkpt><trkpt lat="43.3563806" lon="10.9044275"><ele>271.0</ele><time>2026-04-18T13:37:56.494Z</time></trkpt><trkpt lat="43.3564863" lon="10.9044306"><ele>271.0</ele><time>2026-04-18T13:37:57.507Z</time></trkpt><trkpt lat="43.3565901" lon="10.9044262"><ele>271.0</ele><time>2026-04-18T13:37:58.481Z</time></trkpt><trkpt lat="43.3566921" lon="10.904421"><ele>270.6</ele><time>2026-04-18T13:37:59.492Z</time></trkpt><trkpt lat="43.3567979" lon="10.9044069"><ele>270.20000000000005</ele><time>2026-04-18T13:38:00.492Z</time></trkpt><trkpt lat="43.3569037" lon="10.9043975"><ele>269.79999999999995</ele><time>2026-04-18T13:38:01.484Z</time></trkpt><trkpt lat="43.3570134" lon="10.9043935"><ele>269.4</ele><time>2026-04-18T13:38:02.486Z</time></trkpt><trkpt lat="43.357127" lon="10.9043853"><ele>269.0</ele><time>2026-04-18T13:38:03.494Z</time></trkpt><trkpt lat="43.3572299" lon="10.9043778"><ele>269.83333333333337</ele><time>2026-04-18T13:38:04.478Z</time></trkpt><trkpt lat="43.3573223" lon="10.9043648"><ele>270.6666666666667</ele><time>2026-04-18T13:38:05.48Z</time></trkpt><trkpt lat="43.357412" lon="10.9043607"><ele>271.5</ele><time>2026-04-18T13:38:06.473Z</time></trkpt><trkpt lat="43.3574937" lon="10.9043688"><ele>272.3333333333333</ele><time>2026-04-18T13:38:07.477Z</time></trkpt><trkpt lat="43.3575662" lon="10.9043838"><ele>273.16666666666663</ele><time>2026-04-18T13:38:08.474Z</time></trkpt><trkpt lat="43.3576325" lon="10.9044019"><ele>274.0</ele><time>2026-04-18T13:38:09.479Z</time></trkpt><trkpt lat="43.3576977" lon="10.9044333"><ele>274.0</ele><time>2026-04-18T13:38:10.471Z</time></trkpt><trkpt lat="43.357776" lon="10.9044826"><ele>274.0</ele><time>2026-04-18T13:38:11.474Z</time></trkpt><trkpt lat="43.3578554" lon="10.9045582"><ele>274.0</ele><time>2026-04-18T13:38:12.473Z</time></trkpt><trkpt lat="43.3579338" lon="10.904651"><ele>274.0</ele><time>2026-04-18T13:38:13.479Z</time></trkpt><trkpt lat="43.3580187" lon="10.9047253"><ele>274.0</ele><time>2026-04-18T13:38:14.479Z</time></trkpt><trkpt lat="43.3581072" lon="10.9047931"><ele>274.0</ele><time>2026-04-18T13:38:15.482Z</time></trkpt><trkpt lat="43.3581937" lon="10.9048508"><ele>274.0</ele><time>2026-04-18T13:38:16.48Z</time></trkpt><trkpt lat="43.3582852" lon="10.9049002"><ele>274.0</ele><time>2026-04-18T13:38:17.484Z</time></trkpt><trkpt lat="43.3583789" lon="10.9049448"><ele>274.0</ele><time>2026-04-18T13:38:18.478Z</time></trkpt><trkpt lat="43.3584701" lon="10.9049709"><ele>274.0</ele><time>2026-04-18T13:38:19.472Z</time></trkpt><trkpt lat="43.3585718" lon="10.9049824"><ele>274.0</ele><time>2026-04-18T13:38:20.479Z</time></trkpt><trkpt lat="43.3586708" lon="10.9049683"><ele>274.0</ele><time>2026-04-18T13:38:21.473Z</time></trkpt><trkpt lat="43.3587666" lon="10.9049386"><ele>274.0</ele><time>2026-04-18T13:38:22.485Z</time></trkpt><trkpt lat="43.3588442" lon="10.9049099"><ele>274.0</ele><time>2026-04-18T13:38:23.479Z</time></trkpt><trkpt lat="43.3589208" lon="10.9048694"><ele>274.0</ele><time>2026-04-18T13:38:24.475Z</time></trkpt><trkpt lat="43.3590007" lon="10.9048098"><ele>274.0</ele><time>2026-04-18T13:38:25.478Z</time></trkpt><trkpt lat="43.3590705" lon="10.9047223"><ele>274.0</ele><time>2026-04-18T13:38:26.474Z</time></trkpt><trkpt lat="43.3591502" lon="10.9046277"><ele>274.0</ele><time>2026-04-18T13:38:27.499Z</time></trkpt><trkpt lat="43.3592287" lon="10.9045397"><ele>274.0</ele><time>2026-04-18T13:38:28.484Z</time></trkpt><trkpt lat="43.3593038" lon="10.9044577"><ele>274.0</ele><time>2026-04-18T13:38:29.479Z</time></trkpt><trkpt lat="43.3593907" lon="10.9043858"><ele>274.0</ele><time>2026-04-18T13:38:30.485Z</time></trkpt><trkpt lat="43.3594874" lon="10.9043407"><ele>274.0</ele><time>2026-04-18T13:38:31.473Z</time></trkpt><trkpt lat="43.3595803" lon="10.9043093"><ele>274.0</ele><time>2026-04-18T13:38:32.482Z</time></trkpt><trkpt lat="43.3596942" lon="10.9042578"><ele>274.0</ele><time>2026-04-18T13:38:33.476Z</time></trkpt><trkpt lat="43.3598194" lon="10.9041955"><ele>274.75</ele><time>2026-04-18T13:38:34.484Z</time></trkpt><trkpt lat="43.3599405" lon="10.90413"><ele>275.5</ele><time>2026-04-18T13:38:35.483Z</time></trkpt><trkpt lat="43.3600712" lon="10.9040668"><ele>276.25</ele><time>2026-04-18T13:38:36.482Z</time></trkpt><trkpt lat="43.3601903" lon="10.9039946"><ele>277.0</ele><time>2026-04-18T13:38:37.479Z</time></trkpt><trkpt lat="43.3603027" lon="10.9039272"><ele>277.0</ele><time>2026-04-18T13:38:38.477Z</time></trkpt><trkpt lat="43.3604272" lon="10.9038825"><ele>277.0</ele><time>2026-04-18T13:38:39.476Z</time></trkpt><trkpt lat="43.3605496" lon="10.9038777"><ele>277.0</ele><time>2026-04-18T13:38:40.477Z</time></trkpt><trkpt lat="43.3606774" lon="10.9039107"><ele>277.0</ele><time>2026-04-18T13:38:41.484Z</time></trkpt><trkpt lat="43.3608199" lon="10.9039604"><ele>278.0</ele><time>2026-04-18T13:38:42.485Z</time></trkpt><trkpt lat="43.3609636" lon="10.904012"><ele>279.0</ele><time>2026-04-18T13:38:43.485Z</time></trkpt><trkpt lat="43.3611172" lon="10.9040691"><ele>280.0</ele><time>2026-04-18T13:38:44.49Z</time></trkpt><trkpt lat="43.3612896" lon="10.9041247"><ele>280.25</ele><time>2026-04-18T13:38:45.492Z</time></trkpt><trkpt lat="43.3614484" lon="10.9041814"><ele>280.5</ele><time>2026-04-18T13:38:46.493Z</time></trkpt><trkpt lat="43.3615761" lon="10.9042395"><ele>280.75</ele><time>2026-04-18T13:38:47.499Z</time></trkpt><trkpt lat="43.3616933" lon="10.9042895"><ele>281.0</ele><time>2026-04-18T13:38:48.489Z</time></trkpt><trkpt lat="43.3617996" lon="10.9043498"><ele>281.0</ele><time>2026-04-18T13:38:49.495Z</time></trkpt><trkpt lat="43.3619072" lon="10.904385"><ele>281.0</ele><time>2026-04-18T13:38:50.489Z</time></trkpt><trkpt lat="43.3620182" lon="10.9044317"><ele>281.0</ele><time>2026-04-18T13:38:51.493Z</time></trkpt><trkpt lat="43.3621209" lon="10.9044632"><ele>281.0</ele><time>2026-04-18T13:38:52.481Z</time></trkpt><trkpt lat="43.3622227" lon="10.9044799"><ele>281.0</ele><time>2026-04-18T13:38:53.483Z</time></trkpt><trkpt lat="43.362315" lon="10.9044985"><ele>282.40000000000003</ele><time>2026-04-18T13:38:54.484Z</time></trkpt><trkpt lat="43.3624081" lon="10.9045053"><ele>283.8</ele><time>2026-04-18T13:38:55.493Z</time></trkpt><trkpt lat="43.3625082" lon="10.9045151"><ele>285.20000000000005</ele><time>2026-04-18T13:38:56.492Z</time></trkpt><trkpt lat="43.3626027" lon="10.9045261"><ele>286.6</ele><time>2026-04-18T13:38:57.497Z</time></trkpt><trkpt lat="43.3626964" lon="10.9045478"><ele>288.0</ele><time>2026-04-18T13:38:58.494Z</time></trkpt><trkpt lat="43.3627873" lon="10.9045769"><ele>288.0</ele><time>2026-04-18T13:38:59.492Z</time></trkpt><trkpt lat="43.3628806" lon="10.9046068"><ele>288.0</ele><time>2026-04-18T13:39:00.495Z</time></trkpt><trkpt lat="43.3629825" lon="10.9046322"><ele>288.0</ele><time>2026-04-18T13:39:01.487Z</time></trkpt><trkpt lat="43.3630856" lon="10.9046603"><ele>288.0</ele><time>2026-04-18T13:39:02.492Z</time></trkpt><trkpt lat="43.3631831" lon="10.9046827"><ele>288.0</ele><time>2026-04-18T13:39:03.489Z</time></trkpt><trkpt lat="43.3632716" lon="10.9047095"><ele>288.0</ele><time>2026-04-18T13:39:04.483Z</time></trkpt><trkpt lat="43.3633488" lon="10.9047474"><ele>288.0</ele><time>2026-04-18T13:39:05.49Z</time></trkpt><trkpt lat="43.3634278" lon="10.9048104"><ele>288.0</ele><time>2026-04-18T13:39:06.482Z</time></trkpt><trkpt lat="43.3635189" lon="10.9048849"><ele>288.0</ele><time>2026-04-18T13:39:07.488Z</time></trkpt><trkpt lat="43.3636104" lon="10.9049642"><ele>288.0</ele><time>2026-04-18T13:39:08.478Z</time></trkpt><trkpt lat="43.3637134" lon="10.9050375"><ele>288.25</ele><time>2026-04-18T13:39:09.479Z</time></trkpt><trkpt lat="43.3638204" lon="10.9051047"><ele>288.5</ele><time>2026-04-18T13:39:10.477Z</time></trkpt><trkpt lat="43.3639241" lon="10.9051807"><ele>288.75</ele><time>2026-04-18T13:39:11.474Z</time></trkpt><trkpt lat="43.3640344" lon="10.9052488"><ele>289.0</ele><time>2026-04-18T13:39:12.47Z</time></trkpt><trkpt lat="43.364142" lon="10.9053101"><ele>288.0</ele><time>2026-04-18T13:39:13.468Z</time></trkpt><trkpt lat="43.3642488" lon="10.9053584"><ele>287.0</ele><time>2026-04-18T13:39:14.474Z</time></trkpt><trkpt lat="43.3643584" lon="10.9054219"><ele>286.0</ele><time>2026-04-18T13:39:15.474Z</time></trkpt><trkpt lat="43.3644653" lon="10.9054975"><ele>285.0</ele><time>2026-04-18T13:39:16.474Z</time></trkpt><trkpt lat="43.3645788" lon="10.9055711"><ele>283.2</ele><time>2026-04-18T13:39:17.476Z</time></trkpt><trkpt lat="43.3647" lon="10.9056433"><ele>281.4</ele><time>2026-04-18T13:39:18.474Z</time></trkpt><trkpt lat="43.3648087" lon="10.9057018"><ele>279.6</ele><time>2026-04-18T13:39:19.475Z</time></trkpt><trkpt lat="43.3649062" lon="10.9057487"><ele>277.8</ele><time>2026-04-18T13:39:20.479Z</time></trkpt><trkpt lat="43.3649968" lon="10.9057894"><ele>276.0</ele><time>2026-04-18T13:39:21.482Z</time></trkpt><trkpt lat="43.3650846" lon="10.9058246"><ele>276.0</ele><time>2026-04-18T13:39:22.473Z</time></trkpt><trkpt lat="43.3651926" lon="10.9058333"><ele>276.0</ele><time>2026-04-18T13:39:23.478Z</time></trkpt><trkpt lat="43.3653139" lon="10.9058263"><ele>276.0</ele><time>2026-04-18T13:39:24.482Z</time></trkpt><trkpt lat="43.3654475" lon="10.9058252"><ele>276.0</ele><time>2026-04-18T13:39:25.48Z</time></trkpt><trkpt lat="43.3655768" lon="10.9058148"><ele>276.25</ele><time>2026-04-18T13:39:26.484Z</time></trkpt><trkpt lat="43.3657053" lon="10.9058115"><ele>276.5</ele><time>2026-04-18T13:39:27.485Z</time></trkpt><trkpt lat="43.3658328" lon="10.9058097"><ele>276.75</ele><time>2026-04-18T13:39:28.483Z</time></trkpt><trkpt lat="43.3659495" lon="10.9058097"><ele>277.0</ele><time>2026-04-18T13:39:29.485Z</time></trkpt><trkpt lat="43.3660531" lon="10.9058263"><ele>277.0</ele><time>2026-04-18T13:39:30.477Z</time></trkpt><trkpt lat="43.3661485" lon="10.9058781"><ele>277.0</ele><time>2026-04-18T13:39:31.47Z</time></trkpt><trkpt lat="43.3662389" lon="10.9059689"><ele>277.0</ele><time>2026-04-18T13:39:32.462Z</time></trkpt><trkpt lat="43.366318" lon="10.9060816"><ele>277.0</ele><time>2026-04-18T13:39:33.48Z</time></trkpt><trkpt lat="43.3664133" lon="10.9061898"><ele>276.75</ele><time>2026-04-18T13:39:34.481Z</time></trkpt><trkpt lat="43.366514" lon="10.906282"><ele>276.5</ele><time>2026-04-18T13:39:35.473Z</time></trkpt><trkpt lat="43.3666112" lon="10.9063918"><ele>276.25</ele><time>2026-04-18T13:39:36.486Z</time></trkpt><trkpt lat="43.3667038" lon="10.9064983"><ele>276.0</ele><time>2026-04-18T13:39:37.478Z</time></trkpt><trkpt lat="43.3668059" lon="10.9066062"><ele>276.0</ele><time>2026-04-18T13:39:38.48Z</time></trkpt><trkpt lat="43.366921" lon="10.9067057"><ele>276.0</ele><time>2026-04-18T13:39:39.478Z</time></trkpt><trkpt lat="43.3670426" lon="10.9067945"><ele>276.0</ele><time>2026-04-18T13:39:40.478Z</time></trkpt><trkpt lat="43.367161" lon="10.9068781"><ele>276.0</ele><time>2026-04-18T13:39:41.468Z</time></trkpt><trkpt lat="43.3672644" lon="10.9069542"><ele>276.0</ele><time>2026-04-18T13:39:42.469Z</time></trkpt><trkpt lat="43.3673543" lon="10.9070255"><ele>276.0</ele><time>2026-04-18T13:39:43.468Z</time></trkpt><trkpt lat="43.3674369" lon="10.9070867"><ele>276.0</ele><time>2026-04-18T13:39:44.469Z</time></trkpt><trkpt lat="43.3675305" lon="10.9071215"><ele>276.0</ele><time>2026-04-18T13:39:45.466Z</time></trkpt><trkpt lat="43.3676402" lon="10.907141"><ele>276.0</ele><time>2026-04-18T13:39:46.468Z</time></trkpt><trkpt lat="43.3677394" lon="10.9071453"><ele>276.0</ele><time>2026-04-18T13:39:47.466Z</time></trkpt><trkpt lat="43.3678408" lon="10.9071482"><ele>276.0</ele><time>2026-04-18T13:39:48.457Z</time></trkpt><trkpt lat="43.3679318" lon="10.9071409"><ele>276.0</ele><time>2026-04-18T13:39:49.469Z</time></trkpt><trkpt lat="43.3680211" lon="10.9071454"><ele>276.0</ele><time>2026-04-18T13:39:50.467Z</time></trkpt><trkpt lat="43.3681092" lon="10.9071601"><ele>276.0</ele><time>2026-04-18T13:39:51.467Z</time></trkpt><trkpt lat="43.368191" lon="10.9071768"><ele>278.0</ele><time>2026-04-18T13:39:52.47Z</time></trkpt><trkpt lat="43.3682575" lon="10.9071991"><ele>280.0</ele><time>2026-04-18T13:39:53.476Z</time></trkpt><trkpt lat="43.3683311" lon="10.9072541"><ele>282.0</ele><time>2026-04-18T13:39:55.477Z</time></trkpt><trkpt lat="43.3682938" lon="10.9073389"><ele>284.0</ele><time>2026-04-18T13:40:01.467Z</time></trkpt><trkpt lat="43.3682199" lon="10.9073923"><ele>286.0</ele><time>2026-04-18T13:40:03.463Z</time></trkpt><trkpt lat="43.3680982" lon="10.9074542"><ele>288.0</ele><time>2026-04-18T13:40:05.462Z</time></trkpt><trkpt lat="43.3680398" lon="10.9074967"><ele>285.6</ele><time>2026-04-18T13:40:06.461Z</time></trkpt><trkpt lat="43.3679442" lon="10.9075497"><ele>283.20000000000005</ele><time>2026-04-18T13:40:08.463Z</time></trkpt><trkpt lat="43.3678884" lon="10.9076468"><ele>280.8</ele><time>2026-04-18T13:40:10.46Z</time></trkpt><trkpt lat="43.3678828" lon="10.9077961"><ele>278.40000000000003</ele><time>2026-04-18T13:40:12.462Z</time></trkpt><trkpt lat="43.3679521" lon="10.9079394"><ele>276.0</ele><time>2026-04-18T13:40:14.457Z</time></trkpt><trkpt lat="43.3680231" lon="10.9080145"><ele>275.6</ele><time>2026-04-18T13:40:15.458Z</time></trkpt><trkpt lat="43.3680884" lon="10.9081"><ele>275.20000000000005</ele><time>2026-04-18T13:40:16.456Z</time></trkpt><trkpt lat="43.3681316" lon="10.9082071"><ele>274.79999999999995</ele><time>2026-04-18T13:40:17.467Z</time></trkpt><trkpt lat="43.3681638" lon="10.9083139"><ele>274.4</ele><time>2026-04-18T13:40:18.457Z</time></trkpt><trkpt lat="43.3681891" lon="10.9084382"><ele>274.0</ele><time>2026-04-18T13:40:19.463Z</time></trkpt><trkpt lat="43.3682046" lon="10.9085678"><ele>272.0</ele><time>2026-04-18T13:40:20.469Z</time></trkpt><trkpt lat="43.368236" lon="10.9086791"><ele>270.0</ele><time>2026-04-18T13:40:21.469Z</time></trkpt><trkpt lat="43.3682575" lon="10.9087828"><ele>268.0</ele><time>2026-04-18T13:40:22.481Z</time></trkpt><trkpt lat="43.3682806" lon="10.9088863"><ele>266.0</ele><time>2026-04-18T13:40:23.473Z</time></trkpt><trkpt lat="43.3682935" lon="10.9089892"><ele>264.0</ele><time>2026-04-18T13:40:24.474Z</time></trkpt><trkpt lat="43.36828" lon="10.9090798"><ele>262.0</ele><time>2026-04-18T13:40:25.468Z</time></trkpt><trkpt lat="43.3682653" lon="10.9092357"><ele>260.3333333333333</ele><time>2026-04-18T13:40:27.48Z</time></trkpt><trkpt lat="43.3682912" lon="10.9094039"><ele>258.66666666666663</ele><time>2026-04-18T13:40:29.483Z</time></trkpt><trkpt lat="43.3683038" lon="10.909507"><ele>257.0</ele><time>2026-04-18T13:40:30.482Z</time></trkpt><trkpt lat="43.3683115" lon="10.9095984"><ele>255.33333333333331</ele><time>2026-04-18T13:40:31.478Z</time></trkpt><trkpt lat="43.3683026" lon="10.9096982"><ele>253.66666666666666</ele><time>2026-04-18T13:40:32.46Z</time></trkpt><trkpt lat="43.3682755" lon="10.9097972"><ele>252.0</ele><time>2026-04-18T13:40:33.472Z</time></trkpt><trkpt lat="43.3682407" lon="10.9098962"><ele>252.0</ele><time>2026-04-18T13:40:34.475Z</time></trkpt><trkpt lat="43.3682072" lon="10.9099967"><ele>252.0</ele><time>2026-04-18T13:40:35.474Z</time></trkpt><trkpt lat="43.3681905" lon="10.9100846"><ele>252.0</ele><time>2026-04-18T13:40:36.482Z</time></trkpt><trkpt lat="43.3681732" lon="10.9102457"><ele>252.0</ele><time>2026-04-18T13:40:38.478Z</time></trkpt><trkpt lat="43.3682006" lon="10.9103812"><ele>252.0</ele><time>2026-04-18T13:40:40.471Z</time></trkpt><trkpt lat="43.3682339" lon="10.9104719"><ele>252.0</ele><time>2026-04-18T13:40:42.477Z</time></trkpt><trkpt lat="43.3682096" lon="10.9105643"><ele>250.5</ele><time>2026-04-18T13:40:45.483Z</time></trkpt><trkpt lat="43.3681379" lon="10.9106133"><ele>249.0</ele><time>2026-04-18T13:40:47.48Z</time></trkpt><trkpt lat="43.3680614" lon="10.9106571"><ele>247.5</ele><time>2026-04-18T13:40:49.477Z</time></trkpt><trkpt lat="43.3680026" lon="10.910715"><ele>246.0</ele><time>2026-04-18T13:40:51.475Z</time></trkpt><trkpt lat="43.3679882" lon="10.9107997"><ele>244.5</ele><time>2026-04-18T13:40:53.47Z</time></trkpt><trkpt lat="43.3679907" lon="10.9109454"><ele>243.0</ele><time>2026-04-18T13:40:55.48Z</time></trkpt><trkpt lat="43.3680075" lon="10.9110301"><ele>240.33333333333334</ele><time>2026-04-18T13:40:56.479Z</time></trkpt><trkpt lat="43.368023" lon="10.9111271"><ele>237.66666666666669</ele><time>2026-04-18T13:40:57.482Z</time></trkpt><trkpt lat="43.3680287" lon="10.9112668"><ele>235.0</ele><time>2026-04-18T13:40:59.475Z</time></trkpt><trkpt lat="43.3680264" lon="10.9113863"><ele>232.33333333333334</ele><time>2026-04-18T13:41:01.472Z</time></trkpt><trkpt lat="43.3679958" lon="10.9114817"><ele>229.66666666666669</ele><time>2026-04-18T13:41:03.473Z</time></trkpt><trkpt lat="43.3679237" lon="10.9115551"><ele>227.0</ele><time>2026-04-18T13:41:05.48Z</time></trkpt><trkpt lat="43.3678251" lon="10.9115851"><ele>225.2</ele><time>2026-04-18T13:41:07.486Z</time></trkpt><trkpt lat="43.3677174" lon="10.9115569"><ele>223.39999999999998</ele><time>2026-04-18T13:41:09.489Z</time></trkpt><trkpt lat="43.3676295" lon="10.9114548"><ele>221.60000000000002</ele><time>2026-04-18T13:41:11.486Z</time></trkpt><trkpt lat="43.367589" lon="10.9113842"><ele>219.8</ele><time>2026-04-18T13:41:12.49Z</time></trkpt><trkpt lat="43.3675526" lon="10.9113066"><ele>218.0</ele><time>2026-04-18T13:41:13.488Z</time></trkpt><trkpt lat="43.3674941" lon="10.9111813"><ele>218.00000000000003</ele><time>2026-04-18T13:41:15.487Z</time></trkpt><trkpt lat="43.3674566" lon="10.9111077"><ele>218.0</ele><time>2026-04-18T13:41:16.486Z</time></trkpt><trkpt lat="43.3674262" lon="10.9110285"><ele>218.0</ele><time>2026-04-18T13:41:17.482Z</time></trkpt><trkpt lat="43.3673578" lon="10.9109237"><ele>218.0</ele><time>2026-04-18T13:41:19.472Z</time></trkpt><trkpt lat="43.3672407" lon="10.9109059"><ele>218.00000000000003</ele><time>2026-04-18T13:41:21.474Z</time></trkpt><trkpt lat="43.3671646" lon="10.9109144"><ele>218.0</ele><time>2026-04-18T13:41:22.477Z</time></trkpt><trkpt lat="43.3671009" lon="10.9109222"><ele>215.4</ele><time>2026-04-18T13:41:23.476Z</time></trkpt><trkpt lat="43.3670176" lon="10.9109275"><ele>212.8</ele><time>2026-04-18T13:41:25.482Z</time></trkpt><trkpt lat="43.3669437" lon="10.910978"><ele>210.2</ele><time>2026-04-18T13:41:27.485Z</time></trkpt><trkpt lat="43.3668975" lon="10.9111013"><ele>207.6</ele><time>2026-04-18T13:41:29.463Z</time></trkpt><trkpt lat="43.3669101" lon="10.9112448"><ele>205.0</ele><time>2026-04-18T13:41:31.469Z</time></trkpt><trkpt lat="43.3669758" lon="10.9113411"><ele>205.0</ele><time>2026-04-18T13:41:33.476Z</time></trkpt><trkpt lat="43.3670278" lon="10.9114336"><ele>205.0</ele><time>2026-04-18T13:41:35.47Z</time></trkpt><trkpt lat="43.3670453" lon="10.9115554"><ele>205.0</ele><time>2026-04-18T13:41:37.464Z</time></trkpt><trkpt lat="43.3669993" lon="10.9116774"><ele>205.0</ele><time>2026-04-18T13:41:39.466Z</time></trkpt><trkpt lat="43.3669131" lon="10.9117694"><ele>205.0</ele><time>2026-04-18T13:41:41.478Z</time></trkpt><trkpt lat="43.3667918" lon="10.9118273"><ele>203.4</ele><time>2026-04-18T13:41:43.48Z</time></trkpt><trkpt lat="43.3666854" lon="10.9119091"><ele>201.8</ele><time>2026-04-18T13:41:45.478Z</time></trkpt><trkpt lat="43.3665868" lon="10.9120403"><ele>200.2</ele><time>2026-04-18T13:41:47.49Z</time></trkpt><trkpt lat="43.3665381" lon="10.9121246"><ele>198.6</ele><time>2026-04-18T13:41:48.48Z</time></trkpt><trkpt lat="43.3664983" lon="10.91221"><ele>197.0</ele><time>2026-04-18T13:41:49.483Z</time></trkpt><trkpt lat="43.3664638" lon="10.9122941"><ele>197.00000000000003</ele><time>2026-04-18T13:41:50.483Z</time></trkpt><trkpt lat="43.3664292" lon="10.912382"><ele>197.0</ele><time>2026-04-18T13:41:51.482Z</time></trkpt><trkpt lat="43.3663982" lon="10.9124698"><ele>197.0</ele><time>2026-04-18T13:41:52.475Z</time></trkpt><trkpt lat="43.3663525" lon="10.9125758"><ele>197.0</ele><time>2026-04-18T13:41:53.481Z</time></trkpt><trkpt lat="43.3663047" lon="10.9126872"><ele>197.00000000000003</ele><time>2026-04-18T13:41:54.479Z</time></trkpt><trkpt lat="43.366256" lon="10.9127876"><ele>197.0</ele><time>2026-04-18T13:41:55.484Z</time></trkpt><trkpt lat="43.3662124" lon="10.9128786"><ele>194.6</ele><time>2026-04-18T13:41:56.478Z</time></trkpt><trkpt lat="43.3661708" lon="10.9129738"><ele>192.2</ele><time>2026-04-18T13:41:57.484Z</time></trkpt><trkpt lat="43.366127" lon="10.9130773"><ele>189.8</ele><time>2026-04-18T13:41:58.477Z</time></trkpt><trkpt lat="43.3660794" lon="10.9131798"><ele>187.4</ele><time>2026-04-18T13:41:59.477Z</time></trkpt><trkpt lat="43.3660284" lon="10.9132925"><ele>185.0</ele><time>2026-04-18T13:42:00.484Z</time></trkpt><trkpt lat="43.3659796" lon="10.9134102"><ele>183.6</ele><time>2026-04-18T13:42:01.48Z</time></trkpt><trkpt lat="43.3659265" lon="10.913523"><ele>182.2</ele><time>2026-04-18T13:42:02.483Z</time></trkpt><trkpt lat="43.3658796" lon="10.9136363"><ele>180.8</ele><time>2026-04-18T13:42:03.472Z</time></trkpt><trkpt lat="43.365835" lon="10.913749"><ele>179.4</ele><time>2026-04-18T13:42:04.481Z</time></trkpt><trkpt lat="43.3657907" lon="10.91386"><ele>178.0</ele><time>2026-04-18T13:42:05.478Z</time></trkpt><trkpt lat="43.3657441" lon="10.9139755"><ele>178.0</ele><time>2026-04-18T13:42:06.472Z</time></trkpt><trkpt lat="43.3656982" lon="10.914091"><ele>178.0</ele><time>2026-04-18T13:42:07.469Z</time></trkpt><trkpt lat="43.3656496" lon="10.9141956"><ele>178.0</ele><time>2026-04-18T13:42:08.476Z</time></trkpt><trkpt lat="43.3656078" lon="10.9142905"><ele>178.0</ele><time>2026-04-18T13:42:09.476Z</time></trkpt><trkpt lat="43.3655642" lon="10.9143856"><ele>178.0</ele><time>2026-04-18T13:42:10.474Z</time></trkpt><trkpt lat="43.3655257" lon="10.914488"><ele>178.0</ele><time>2026-04-18T13:42:11.485Z</time></trkpt><trkpt lat="43.3654853" lon="10.9145906"><ele>176.2</ele><time>2026-04-18T13:42:12.479Z</time></trkpt><trkpt lat="43.3654455" lon="10.9147064"><ele>174.4</ele><time>2026-04-18T13:42:13.475Z</time></trkpt><trkpt lat="43.3654071" lon="10.9148332"><ele>172.6</ele><time>2026-04-18T13:42:14.482Z</time></trkpt><trkpt lat="43.3653711" lon="10.9149551"><ele>170.79999999999998</ele><time>2026-04-18T13:42:15.48Z</time></trkpt><trkpt lat="43.3653447" lon="10.915071"><ele>169.0</ele><time>2026-04-18T13:42:16.487Z</time></trkpt><trkpt lat="43.3653165" lon="10.91518"><ele>168.0</ele><time>2026-04-18T13:42:17.487Z</time></trkpt><trkpt lat="43.3652919" lon="10.9152993"><ele>167.0</ele><time>2026-04-18T13:42:18.476Z</time></trkpt><trkpt lat="43.365267" lon="10.9154157"><ele>166.0</ele><time>2026-04-18T13:42:19.477Z</time></trkpt><trkpt lat="43.3652424" lon="10.9155173"><ele>165.0</ele><time>2026-04-18T13:42:20.478Z</time></trkpt><trkpt lat="43.3652267" lon="10.9156197"><ele>164.0</ele><time>2026-04-18T13:42:21.478Z</time></trkpt><trkpt lat="43.3652046" lon="10.9157122"><ele>163.0</ele><time>2026-04-18T13:42:22.475Z</time></trkpt><trkpt lat="43.3651835" lon="10.9158057"><ele>163.0</ele><time>2026-04-18T13:42:23.49Z</time></trkpt><trkpt lat="43.3651462" lon="10.9158972"><ele>163.0</ele><time>2026-04-18T13:42:24.477Z</time></trkpt><trkpt lat="43.3651055" lon="10.9159761"><ele>163.0</ele><time>2026-04-18T13:42:25.477Z</time></trkpt><trkpt lat="43.3650602" lon="10.9160514"><ele>163.0</ele><time>2026-04-18T13:42:26.478Z</time></trkpt><trkpt lat="43.3650094" lon="10.9161224"><ele>163.0</ele><time>2026-04-18T13:42:27.49Z</time></trkpt><trkpt lat="43.3649488" lon="10.9162004"><ele>163.0</ele><time>2026-04-18T13:42:28.491Z</time></trkpt><trkpt lat="43.364883" lon="10.9162633"><ele>162.8</ele><time>2026-04-18T13:42:29.485Z</time></trkpt><trkpt lat="43.3648115" lon="10.9163217"><ele>162.60000000000002</ele><time>2026-04-18T13:42:30.481Z</time></trkpt><trkpt lat="43.3647223" lon="10.9163741"><ele>162.39999999999998</ele><time>2026-04-18T13:42:31.472Z</time></trkpt><trkpt lat="43.3646194" lon="10.9164251"><ele>162.2</ele><time>2026-04-18T13:42:32.47Z</time></trkpt><trkpt lat="43.3645096" lon="10.9164698"><ele>162.0</ele><time>2026-04-18T13:42:33.48Z</time></trkpt><trkpt lat="43.3643998" lon="10.9165199"><ele>161.25</ele><time>2026-04-18T13:42:34.477Z</time></trkpt><trkpt lat="43.3642845" lon="10.9165674"><ele>160.5</ele><time>2026-04-18T13:42:35.474Z</time></trkpt><trkpt lat="43.3641707" lon="10.9166185"><ele>159.75</ele><time>2026-04-18T13:42:36.476Z</time></trkpt><trkpt lat="43.3640472" lon="10.9166725"><ele>159.0</ele><time>2026-04-18T13:42:37.477Z</time></trkpt><trkpt lat="43.3639256" lon="10.9167186"><ele>158.25</ele><time>2026-04-18T13:42:38.466Z</time></trkpt><trkpt lat="43.363803" lon="10.9167682"><ele>157.5</ele><time>2026-04-18T13:42:39.472Z</time></trkpt><trkpt lat="43.3636733" lon="10.9168412"><ele>156.75</ele><time>2026-04-18T13:42:40.462Z</time></trkpt><trkpt lat="43.3635603" lon="10.916944"><ele>156.0</ele><time>2026-04-18T13:42:41.465Z</time></trkpt><trkpt lat="43.3634389" lon="10.9170566"><ele>156.0</ele><time>2026-04-18T13:42:42.472Z</time></trkpt><trkpt lat="43.3633315" lon="10.917176"><ele>156.0</ele><time>2026-04-18T13:42:43.458Z</time></trkpt><trkpt lat="43.3632234" lon="10.917277"><ele>156.0</ele><time>2026-04-18T13:42:44.474Z</time></trkpt><trkpt lat="43.3631265" lon="10.9173725"><ele>156.0</ele><time>2026-04-18T13:42:45.464Z</time></trkpt><trkpt lat="43.3630353" lon="10.917453"><ele>155.0</ele><time>2026-04-18T13:42:46.468Z</time></trkpt><trkpt lat="43.3629494" lon="10.9175378"><ele>154.0</ele><time>2026-04-18T13:42:47.472Z</time></trkpt><trkpt lat="43.362842" lon="10.9176255"><ele>153.0</ele><time>2026-04-18T13:42:48.47Z</time></trkpt><trkpt lat="43.3627452" lon="10.9177181"><ele>152.0</ele><time>2026-04-18T13:42:49.463Z</time></trkpt><trkpt lat="43.362653" lon="10.917808"><ele>152.0</ele><time>2026-04-18T13:42:50.464Z</time></trkpt><trkpt lat="43.3625607" lon="10.917897"><ele>152.0</ele><time>2026-04-18T13:42:51.47Z</time></trkpt><trkpt lat="43.3624814" lon="10.9179796"><ele>152.0</ele><time>2026-04-18T13:42:52.467Z</time></trkpt><trkpt lat="43.3624042" lon="10.9180625"><ele>152.0</ele><time>2026-04-18T13:42:53.462Z</time></trkpt><trkpt lat="43.3623473" lon="10.9181691"><ele>152.0</ele><time>2026-04-18T13:42:54.459Z</time></trkpt><trkpt lat="43.3622971" lon="10.9182858"><ele>152.0</ele><time>2026-04-18T13:42:55.459Z</time></trkpt><trkpt lat="43.3622538" lon="10.9183898"><ele>152.0</ele><time>2026-04-18T13:42:56.465Z</time></trkpt><trkpt lat="43.3622196" lon="10.9184928"><ele>152.0</ele><time>2026-04-18T13:42:57.465Z</time></trkpt><trkpt lat="43.3621941" lon="10.9186"><ele>152.0</ele><time>2026-04-18T13:42:58.465Z</time></trkpt><trkpt lat="43.3621655" lon="10.9187321"><ele>152.0</ele><time>2026-04-18T13:42:59.469Z</time></trkpt><trkpt lat="43.3621345" lon="10.9188609"><ele>150.6</ele><time>2026-04-18T13:43:00.473Z</time></trkpt><trkpt lat="43.3621101" lon="10.9189755"><ele>149.2</ele><time>2026-04-18T13:43:01.477Z</time></trkpt><trkpt lat="43.362096" lon="10.9190904"><ele>147.8</ele><time>2026-04-18T13:43:02.472Z</time></trkpt><trkpt lat="43.3620973" lon="10.919239"><ele>146.4</ele><time>2026-04-18T13:43:03.463Z</time></trkpt><trkpt lat="43.362111" lon="10.9194068"><ele>145.0</ele><time>2026-04-18T13:43:04.467Z</time></trkpt><trkpt lat="43.3621113" lon="10.9195993"><ele>144.75</ele><time>2026-04-18T13:43:05.47Z</time></trkpt><trkpt lat="43.3621133" lon="10.919808"><ele>144.5</ele><time>2026-04-18T13:43:06.478Z</time></trkpt><trkpt lat="43.3620995" lon="10.920015"><ele>144.25</ele><time>2026-04-18T13:43:07.479Z</time></trkpt><trkpt lat="43.3620802" lon="10.9202067"><ele>144.0</ele><time>2026-04-18T13:43:08.48Z</time></trkpt><trkpt lat="43.3620805" lon="10.9204031"><ele>144.0</ele><time>2026-04-18T13:43:09.479Z</time></trkpt><trkpt lat="43.3620746" lon="10.9206155"><ele>144.0</ele><time>2026-04-18T13:43:10.48Z</time></trkpt><trkpt lat="43.3620604" lon="10.9208209"><ele>144.0</ele><time>2026-04-18T13:43:11.472Z</time></trkpt><trkpt lat="43.3620353" lon="10.921012"><ele>144.0</ele><time>2026-04-18T13:43:12.473Z</time></trkpt><trkpt lat="43.362029" lon="10.9212017"><ele>144.0</ele><time>2026-04-18T13:43:13.476Z</time></trkpt><trkpt lat="43.3620327" lon="10.9213885"><ele>144.0</ele><time>2026-04-18T13:43:14.476Z</time></trkpt><trkpt lat="43.362038" lon="10.9215773"><ele>144.0</ele><time>2026-04-18T13:43:15.478Z</time></trkpt><trkpt lat="43.3620446" lon="10.9217504"><ele>144.0</ele><time>2026-04-18T13:43:16.481Z</time></trkpt><trkpt lat="43.3620602" lon="10.9219326"><ele>144.0</ele><time>2026-04-18T13:43:17.485Z</time></trkpt><trkpt lat="43.3620793" lon="10.9221234"><ele>144.0</ele><time>2026-04-18T13:43:18.477Z</time></trkpt><trkpt lat="43.3621096" lon="10.9223182"><ele>144.0</ele><time>2026-04-18T13:43:19.481Z</time></trkpt><trkpt lat="43.3621516" lon="10.922519"><ele>144.0</ele><time>2026-04-18T13:43:20.476Z</time></trkpt><trkpt lat="43.3621724" lon="10.9227178"><ele>144.25</ele><time>2026-04-18T13:43:21.48Z</time></trkpt><trkpt lat="43.3621738" lon="10.9228775"><ele>144.5</ele><time>2026-04-18T13:43:22.477Z</time></trkpt><trkpt lat="43.3621754" lon="10.9230363"><ele>144.75</ele><time>2026-04-18T13:43:23.478Z</time></trkpt><trkpt lat="43.3621715" lon="10.9231923"><ele>145.0</ele><time>2026-04-18T13:43:24.472Z</time></trkpt><trkpt lat="43.3621826" lon="10.9233559"><ele>146.25</ele><time>2026-04-18T13:43:25.478Z</time></trkpt><trkpt lat="43.3622066" lon="10.9235178"><ele>147.5</ele><time>2026-04-18T13:43:26.475Z</time></trkpt><trkpt lat="43.3622473" lon="10.9236787"><ele>148.75</ele><time>2026-04-18T13:43:27.48Z</time></trkpt><trkpt lat="43.3622685" lon="10.9238203"><ele>150.0</ele><time>2026-04-18T13:43:28.473Z</time></trkpt><trkpt lat="43.3623014" lon="10.9239644"><ele>150.0</ele><time>2026-04-18T13:43:29.475Z</time></trkpt><trkpt lat="43.3623365" lon="10.9241066"><ele>150.0</ele><time>2026-04-18T13:43:30.481Z</time></trkpt><trkpt lat="43.3623795" lon="10.924222"><ele>150.0</ele><time>2026-04-18T13:43:31.469Z</time></trkpt><trkpt lat="43.3624331" lon="10.9243318"><ele>150.0</ele><time>2026-04-18T13:43:32.475Z</time></trkpt><trkpt lat="43.3624943" lon="10.9244292"><ele>150.0</ele><time>2026-04-18T13:43:33.465Z</time></trkpt><trkpt lat="43.3625522" lon="10.9245554"><ele>149.75</ele><time>2026-04-18T13:43:34.462Z</time></trkpt><trkpt lat="43.3626035" lon="10.924718"><ele>149.5</ele><time>2026-04-18T13:43:35.458Z</time></trkpt><trkpt lat="43.3626316" lon="10.9248679"><ele>149.25</ele><time>2026-04-18T13:43:36.455Z</time></trkpt><trkpt lat="43.3626462" lon="10.9250197"><ele>149.0</ele><time>2026-04-18T13:43:37.463Z</time></trkpt><trkpt lat="43.3626699" lon="10.9251573"><ele>148.8</ele><time>2026-04-18T13:43:38.457Z</time></trkpt><trkpt lat="43.3627015" lon="10.925275"><ele>148.60000000000002</ele><time>2026-04-18T13:43:39.458Z</time></trkpt><trkpt lat="43.3627519" lon="10.9253809"><ele>148.4</ele><time>2026-04-18T13:43:40.453Z</time></trkpt><trkpt lat="43.3628169" lon="10.9254664"><ele>148.20000000000002</ele><time>2026-04-18T13:43:41.459Z</time></trkpt><trkpt lat="43.362904" lon="10.9255422"><ele>148.0</ele><time>2026-04-18T13:43:42.458Z</time></trkpt><trkpt lat="43.3630072" lon="10.9256183"><ele>148.4</ele><time>2026-04-18T13:43:43.475Z</time></trkpt><trkpt lat="43.3631095" lon="10.9256795"><ele>148.8</ele><time>2026-04-18T13:43:44.46Z</time></trkpt><trkpt lat="43.3631936" lon="10.9257307"><ele>149.2</ele><time>2026-04-18T13:43:45.459Z</time></trkpt><trkpt lat="43.3632705" lon="10.9257526"><ele>149.6</ele><time>2026-04-18T13:43:46.46Z</time></trkpt><trkpt lat="43.3633645" lon="10.9257536"><ele>150.0</ele><time>2026-04-18T13:43:47.45Z</time></trkpt><trkpt lat="43.3634763" lon="10.925752"><ele>150.0</ele><time>2026-04-18T13:43:48.46Z</time></trkpt><trkpt lat="43.3636057" lon="10.9257392"><ele>150.0</ele><time>2026-04-18T13:43:49.454Z</time></trkpt><trkpt lat="43.3637373" lon="10.9257237"><ele>150.0</ele><time>2026-04-18T13:43:50.469Z</time></trkpt><trkpt lat="43.3638638" lon="10.9257079"><ele>150.0</ele><time>2026-04-18T13:43:51.464Z</time></trkpt><trkpt lat="43.3639831" lon="10.9256859"><ele>149.75</ele><time>2026-04-18T13:43:52.467Z</time></trkpt><trkpt lat="43.3641076" lon="10.9256775"><ele>149.5</ele><time>2026-04-18T13:43:53.467Z</time></trkpt><trkpt lat="43.3642298" lon="10.9256801"><ele>149.25</ele><time>2026-04-18T13:43:54.462Z</time></trkpt><trkpt lat="43.364354" lon="10.9257184"><ele>149.0</ele><time>2026-04-18T13:43:55.462Z</time></trkpt><trkpt lat="43.3644654" lon="10.9257918"><ele>148.75</ele><time>2026-04-18T13:43:56.463Z</time></trkpt><trkpt lat="43.3645594" lon="10.9258986"><ele>148.5</ele><time>2026-04-18T13:43:57.468Z</time></trkpt><trkpt lat="43.3646518" lon="10.926039"><ele>148.25</ele><time>2026-04-18T13:43:58.478Z</time></trkpt><trkpt lat="43.3647476" lon="10.9262145"><ele>148.0</ele><time>2026-04-18T13:43:59.471Z</time></trkpt><trkpt lat="43.3648488" lon="10.9264016"><ele>148.66666666666669</ele><time>2026-04-18T13:44:00.476Z</time></trkpt><trkpt lat="43.3649513" lon="10.9265797"><ele>149.33333333333334</ele><time>2026-04-18T13:44:01.486Z</time></trkpt><trkpt lat="43.3650553" lon="10.9267556"><ele>150.0</ele><time>2026-04-18T13:44:02.482Z</time></trkpt><trkpt lat="43.3651648" lon="10.9269412"><ele>150.0</ele><time>2026-04-18T13:44:03.491Z</time></trkpt><trkpt lat="43.3652613" lon="10.9271109"><ele>150.0</ele><time>2026-04-18T13:44:04.482Z</time></trkpt><trkpt lat="43.3653664" lon="10.9272599"><ele>150.0</ele><time>2026-04-18T13:44:05.486Z</time></trkpt><trkpt lat="43.3654825" lon="10.9274071"><ele>151.0</ele><time>2026-04-18T13:44:06.488Z</time></trkpt><trkpt lat="43.3655542" lon="10.9275665"><ele>152.0</ele><time>2026-04-18T13:44:07.482Z</time></trkpt><trkpt lat="43.3656485" lon="10.9277377"><ele>153.0</ele><time>2026-04-18T13:44:08.488Z</time></trkpt><trkpt lat="43.3657502" lon="10.9279003"><ele>154.0</ele><time>2026-04-18T13:44:09.484Z</time></trkpt><trkpt lat="43.3658415" lon="10.9280639"><ele>154.0</ele><time>2026-04-18T13:44:10.488Z</time></trkpt><trkpt lat="43.3659381" lon="10.9282138"><ele>154.0</ele><time>2026-04-18T13:44:11.481Z</time></trkpt><trkpt lat="43.3660377" lon="10.9283473"><ele>154.0</ele><time>2026-04-18T13:44:12.482Z</time></trkpt><trkpt lat="43.3661565" lon="10.9284816"><ele>154.0</ele><time>2026-04-18T13:44:13.482Z</time></trkpt><trkpt lat="43.366282" lon="10.9286173"><ele>155.33333333333334</ele><time>2026-04-18T13:44:14.484Z</time></trkpt><trkpt lat="43.3664267" lon="10.9287408"><ele>156.66666666666666</ele><time>2026-04-18T13:44:15.487Z</time></trkpt><trkpt lat="43.36656" lon="10.9288716"><ele>158.0</ele><time>2026-04-18T13:44:16.481Z</time></trkpt><trkpt lat="43.3666809" lon="10.9290071"><ele>158.0</ele><time>2026-04-18T13:44:17.482Z</time></trkpt><trkpt lat="43.3667896" lon="10.929124"><ele>158.0</ele><time>2026-04-18T13:44:18.477Z</time></trkpt><trkpt lat="43.3668862" lon="10.9292226"><ele>158.0</ele><time>2026-04-18T13:44:19.48Z</time></trkpt><trkpt lat="43.3669777" lon="10.9293116"><ele>158.0</ele><time>2026-04-18T13:44:20.473Z</time></trkpt><trkpt lat="43.3670525" lon="10.9293895"><ele>157.83333333333331</ele><time>2026-04-18T13:44:21.49Z</time></trkpt><trkpt lat="43.3671243" lon="10.929459"><ele>157.66666666666666</ele><time>2026-04-18T13:44:22.484Z</time></trkpt><trkpt lat="43.3671898" lon="10.92953"><ele>157.5</ele><time>2026-04-18T13:44:23.481Z</time></trkpt><trkpt lat="43.3672359" lon="10.9295914"><ele>157.33333333333334</ele><time>2026-04-18T13:44:24.478Z</time></trkpt><trkpt lat="43.3672752" lon="10.9296732"><ele>157.16666666666669</ele><time>2026-04-18T13:44:25.475Z</time></trkpt><trkpt lat="43.3673027" lon="10.9297822"><ele>157.0</ele><time>2026-04-18T13:44:26.479Z</time></trkpt><trkpt lat="43.3673036" lon="10.929915"><ele>157.25</ele><time>2026-04-18T13:44:27.476Z</time></trkpt><trkpt lat="43.3672954" lon="10.9300516"><ele>157.5</ele><time>2026-04-18T13:44:28.485Z</time></trkpt><trkpt lat="43.3672567" lon="10.9302077"><ele>157.75</ele><time>2026-04-18T13:44:29.478Z</time></trkpt><trkpt lat="43.3671988" lon="10.9303758"><ele>158.0</ele><time>2026-04-18T13:44:30.478Z</time></trkpt><trkpt lat="43.3671549" lon="10.9305589"><ele>158.0</ele><time>2026-04-18T13:44:31.475Z</time></trkpt><trkpt lat="43.3671122" lon="10.9307514"><ele>158.0</ele><time>2026-04-18T13:44:32.48Z</time></trkpt><trkpt lat="43.3670569" lon="10.9309577"><ele>158.0</ele><time>2026-04-18T13:44:33.478Z</time></trkpt><trkpt lat="43.3670108" lon="10.9311597"><ele>158.0</ele><time>2026-04-18T13:44:34.476Z</time></trkpt><trkpt lat="43.366972" lon="10.9313723"><ele>158.0</ele><time>2026-04-18T13:44:35.482Z</time></trkpt><trkpt lat="43.366934" lon="10.9315856"><ele>158.0</ele><time>2026-04-18T13:44:36.48Z</time></trkpt><trkpt lat="43.3668942" lon="10.931819"><ele>158.0</ele><time>2026-04-18T13:44:37.489Z</time></trkpt><trkpt lat="43.3668498" lon="10.9320519"><ele>158.0</ele><time>2026-04-18T13:44:38.481Z</time></trkpt><trkpt lat="43.3668027" lon="10.9322794"><ele>158.0</ele><time>2026-04-18T13:44:39.48Z</time></trkpt><trkpt lat="43.3667524" lon="10.9325114"><ele>158.33333333333331</ele><time>2026-04-18T13:44:40.488Z</time></trkpt><trkpt lat="43.366698" lon="10.9327392"><ele>158.66666666666666</ele><time>2026-04-18T13:44:41.485Z</time></trkpt><trkpt lat="43.3666496" lon="10.9329564"><ele>159.0</ele><time>2026-04-18T13:44:42.492Z</time></trkpt><trkpt lat="43.3666237" lon="10.9331854"><ele>159.33333333333334</ele><time>2026-04-18T13:44:43.485Z</time></trkpt><trkpt lat="43.3665822" lon="10.9334135"><ele>159.66666666666669</ele><time>2026-04-18T13:44:44.481Z</time></trkpt><trkpt lat="43.3665525" lon="10.9336223"><ele>160.0</ele><time>2026-04-18T13:44:45.482Z</time></trkpt><trkpt lat="43.3665158" lon="10.9338029"><ele>160.0</ele><time>2026-04-18T13:44:46.476Z</time></trkpt><trkpt lat="43.366487" lon="10.933952"><ele>160.0</ele><time>2026-04-18T13:44:47.508Z</time></trkpt><trkpt lat="43.366456" lon="10.934095"><ele>160.0</ele><time>2026-04-18T13:44:48.491Z</time></trkpt><trkpt lat="43.3664398" lon="10.9342179"><ele>160.0</ele><time>2026-04-18T13:44:49.487Z</time></trkpt><trkpt lat="43.3664269" lon="10.9343368"><ele>160.0</ele><time>2026-04-18T13:44:50.488Z</time></trkpt><trkpt lat="43.366406" lon="10.9344449"><ele>159.5</ele><time>2026-04-18T13:44:51.485Z</time></trkpt><trkpt lat="43.3663839" lon="10.9345478"><ele>159.0</ele><time>2026-04-18T13:44:52.494Z</time></trkpt><trkpt lat="43.3663589" lon="10.9346583"><ele>158.5</ele><time>2026-04-18T13:44:53.489Z</time></trkpt><trkpt lat="43.3663397" lon="10.9347735"><ele>158.0</ele><time>2026-04-18T13:44:54.485Z</time></trkpt><trkpt lat="43.3663182" lon="10.9348827"><ele>157.5</ele><time>2026-04-18T13:44:55.487Z</time></trkpt><trkpt lat="43.3663028" lon="10.9349774"><ele>157.0</ele><time>2026-04-18T13:44:56.484Z</time></trkpt><trkpt lat="43.3662835" lon="10.9350679"><ele>157.0</ele><time>2026-04-18T13:44:57.5Z</time></trkpt><trkpt lat="43.3662815" lon="10.9352105"><ele>157.0</ele><time>2026-04-18T13:44:59.489Z</time></trkpt><trkpt lat="43.366365" lon="10.9353156"><ele>157.0</ele><time>2026-04-18T13:45:01.487Z</time></trkpt><trkpt lat="43.3664323" lon="10.9353462"><ele>157.0</ele><time>2026-04-18T13:45:02.484Z</time></trkpt><trkpt lat="43.3665207" lon="10.9353747"><ele>157.0</ele><time>2026-04-18T13:45:03.492Z</time></trkpt><trkpt lat="43.3666173" lon="10.9353918"><ele>157.0</ele><time>2026-04-18T13:45:04.488Z</time></trkpt><trkpt lat="43.3667152" lon="10.9354085"><ele>157.0</ele><time>2026-04-18T13:45:05.486Z</time></trkpt><trkpt lat="43.3668262" lon="10.9354335"><ele>157.0</ele><time>2026-04-18T13:45:06.479Z</time></trkpt><trkpt lat="43.3669396" lon="10.9354621"><ele>157.0</ele><time>2026-04-18T13:45:07.491Z</time></trkpt><trkpt lat="43.3670402" lon="10.9354884"><ele>157.0</ele><time>2026-04-18T13:45:08.49Z</time></trkpt><trkpt lat="43.3671294" lon="10.935513"><ele>157.83333333333334</ele><time>2026-04-18T13:45:09.491Z</time></trkpt><trkpt lat="43.3672127" lon="10.9355433"><ele>158.66666666666669</ele><time>2026-04-18T13:45:10.496Z</time></trkpt><trkpt lat="43.3672776" lon="10.935568"><ele>159.5</ele><time>2026-04-18T13:45:11.494Z</time></trkpt><trkpt lat="43.3673405" lon="10.9355954"><ele>160.33333333333334</ele><time>2026-04-18T13:45:12.501Z</time></trkpt><trkpt lat="43.3674331" lon="10.9356522"><ele>161.16666666666666</ele><time>2026-04-18T13:45:14.489Z</time></trkpt><trkpt lat="43.3674683" lon="10.935759"><ele>162.0</ele><time>2026-04-18T13:45:16.497Z</time></trkpt><trkpt lat="43.367456" lon="10.9358688"><ele>162.0</ele><time>2026-04-18T13:45:18.493Z</time></trkpt><trkpt lat="43.3673763" lon="10.9359692"><ele>162.0</ele><time>2026-04-18T13:45:20.486Z</time></trkpt><trkpt lat="43.3673063" lon="10.9359958"><ele>162.0</ele><time>2026-04-18T13:45:21.488Z</time></trkpt><trkpt lat="43.3672249" lon="10.9360172"><ele>162.0</ele><time>2026-04-18T13:45:22.488Z</time></trkpt><trkpt lat="43.3671155" lon="10.9361072"><ele>162.0</ele><time>2026-04-18T13:45:24.475Z</time></trkpt><trkpt lat="43.36708" lon="10.9361864"><ele>161.4</ele><time>2026-04-18T13:45:25.483Z</time></trkpt><trkpt lat="43.3670621" lon="10.9362843"><ele>160.79999999999998</ele><time>2026-04-18T13:45:26.489Z</time></trkpt><trkpt lat="43.3670611" lon="10.9364292"><ele>160.2</ele><time>2026-04-18T13:45:27.488Z</time></trkpt><trkpt lat="43.3670651" lon="10.9365959"><ele>159.6</ele><time>2026-04-18T13:45:28.489Z</time></trkpt><trkpt lat="43.3670645" lon="10.9367845"><ele>159.0</ele><time>2026-04-18T13:45:29.488Z</time></trkpt><trkpt lat="43.3670653" lon="10.936981"><ele>159.0</ele><time>2026-04-18T13:45:30.488Z</time></trkpt><trkpt lat="43.3670594" lon="10.9372059"><ele>159.0</ele><time>2026-04-18T13:45:31.485Z</time></trkpt><trkpt lat="43.3670511" lon="10.9374496"><ele>159.0</ele><time>2026-04-18T13:45:32.497Z</time></trkpt><trkpt lat="43.3670301" lon="10.9376609"><ele>160.0</ele><time>2026-04-18T13:45:33.491Z</time></trkpt><trkpt lat="43.367023" lon="10.9378682"><ele>161.0</ele><time>2026-04-18T13:45:34.486Z</time></trkpt><trkpt lat="43.3670063" lon="10.9380937"><ele>162.0</ele><time>2026-04-18T13:45:35.491Z</time></trkpt><trkpt lat="43.3669877" lon="10.93831"><ele>162.0</ele><time>2026-04-18T13:45:36.492Z</time></trkpt><trkpt lat="43.3669678" lon="10.9385142"><ele>162.0</ele><time>2026-04-18T13:45:37.49Z</time></trkpt><trkpt lat="43.3669493" lon="10.9387256"><ele>162.0</ele><time>2026-04-18T13:45:38.496Z</time></trkpt><trkpt lat="43.3669369" lon="10.9389325"><ele>162.0</ele><time>2026-04-18T13:45:39.482Z</time></trkpt><trkpt lat="43.3669199" lon="10.9391166"><ele>162.0</ele><time>2026-04-18T13:45:40.482Z</time></trkpt><trkpt lat="43.3669067" lon="10.939311"><ele>162.0</ele><time>2026-04-18T13:45:41.479Z</time></trkpt><trkpt lat="43.3668922" lon="10.939529"><ele>162.0</ele><time>2026-04-18T13:45:42.48Z</time></trkpt><trkpt lat="43.3668716" lon="10.9397849"><ele>162.33333333333334</ele><time>2026-04-18T13:45:43.479Z</time></trkpt><trkpt lat="43.3668423" lon="10.9400308"><ele>162.66666666666669</ele><time>2026-04-18T13:45:44.479Z</time></trkpt><trkpt lat="43.3668199" lon="10.9402546"><ele>163.0</ele><time>2026-04-18T13:45:45.482Z</time></trkpt><trkpt lat="43.3667999" lon="10.9404595"><ele>163.0</ele><time>2026-04-18T13:45:46.481Z</time></trkpt><trkpt lat="43.3667711" lon="10.9406496"><ele>163.0</ele><time>2026-04-18T13:45:47.494Z</time></trkpt><trkpt lat="43.3667477" lon="10.9408326"><ele>163.0</ele><time>2026-04-18T13:45:48.484Z</time></trkpt><trkpt lat="43.3667212" lon="10.941018"><ele>163.0</ele><time>2026-04-18T13:45:49.482Z</time></trkpt><trkpt lat="43.3667015" lon="10.9411756"><ele>163.60000000000002</ele><time>2026-04-18T13:45:50.468Z</time></trkpt><trkpt lat="43.3666808" lon="10.9413116"><ele>164.20000000000002</ele><time>2026-04-18T13:45:51.478Z</time></trkpt><trkpt lat="43.3666566" lon="10.9414582"><ele>164.8</ele><time>2026-04-18T13:45:52.484Z</time></trkpt><trkpt lat="43.3666453" lon="10.9416031"><ele>165.4</ele><time>2026-04-18T13:45:53.479Z</time></trkpt><trkpt lat="43.3666493" lon="10.9417746"><ele>166.0</ele><time>2026-04-18T13:45:54.486Z</time></trkpt><trkpt lat="43.3666664" lon="10.941951"><ele>166.25</ele><time>2026-04-18T13:45:55.482Z</time></trkpt><trkpt lat="43.3666941" lon="10.9421436"><ele>166.5</ele><time>2026-04-18T13:45:56.482Z</time></trkpt><trkpt lat="43.3667433" lon="10.9423352"><ele>166.75</ele><time>2026-04-18T13:45:57.488Z</time></trkpt><trkpt lat="43.3668009" lon="10.9425297"><ele>167.0</ele><time>2026-04-18T13:45:58.485Z</time></trkpt><trkpt lat="43.3668395" lon="10.9426877"><ele>166.5</ele><time>2026-04-18T13:45:59.482Z</time></trkpt><trkpt lat="43.366868" lon="10.9428344"><ele>166.0</ele><time>2026-04-18T13:46:00.482Z</time></trkpt><trkpt lat="43.3668921" lon="10.9429527"><ele>165.5</ele><time>2026-04-18T13:46:01.473Z</time></trkpt><trkpt lat="43.3668962" lon="10.9430531"><ele>165.0</ele><time>2026-04-18T13:46:02.479Z</time></trkpt><trkpt lat="43.366931" lon="10.9431347"><ele>164.5</ele><time>2026-04-18T13:46:03.483Z</time></trkpt><trkpt lat="43.3669706" lon="10.9432597"><ele>164.0</ele><time>2026-04-18T13:46:05.476Z</time></trkpt><trkpt lat="43.3670915" lon="10.9433766"><ele>164.25</ele><time>2026-04-18T13:46:07.471Z</time></trkpt><trkpt lat="43.3671928" lon="10.9434356"><ele>164.5</ele><time>2026-04-18T13:46:08.475Z</time></trkpt><trkpt lat="43.3673136" lon="10.9435016"><ele>164.75</ele><time>2026-04-18T13:46:09.468Z</time></trkpt><trkpt lat="43.367432" lon="10.943594"><ele>165.0</ele><time>2026-04-18T13:46:10.477Z</time></trkpt><trkpt lat="43.3675616" lon="10.9437169"><ele>164.33333333333334</ele><time>2026-04-18T13:46:11.471Z</time></trkpt><trkpt lat="43.3677102" lon="10.9438484"><ele>163.66666666666669</ele><time>2026-04-18T13:46:12.477Z</time></trkpt><trkpt lat="43.3678434" lon="10.943999"><ele>163.0</ele><time>2026-04-18T13:46:13.478Z</time></trkpt><trkpt lat="43.3679743" lon="10.9441268"><ele>163.75</ele><time>2026-04-18T13:46:14.476Z</time></trkpt><trkpt lat="43.3681" lon="10.9442381"><ele>164.5</ele><time>2026-04-18T13:46:15.478Z</time></trkpt><trkpt lat="43.3682206" lon="10.9443603"><ele>165.25</ele><time>2026-04-18T13:46:16.477Z</time></trkpt><trkpt lat="43.3683398" lon="10.9444695"><ele>166.0</ele><time>2026-04-18T13:46:17.48Z</time></trkpt><trkpt lat="43.3684355" lon="10.9445652"><ele>166.0</ele><time>2026-04-18T13:46:18.484Z</time></trkpt><trkpt lat="43.3685349" lon="10.9446641"><ele>166.0</ele><time>2026-04-18T13:46:19.486Z</time></trkpt><trkpt lat="43.3686504" lon="10.944753"><ele>166.0</ele><time>2026-04-18T13:46:20.484Z</time></trkpt><trkpt lat="43.368775" lon="10.944821"><ele>166.0</ele><time>2026-04-18T13:46:21.482Z</time></trkpt><trkpt lat="43.368913" lon="10.9448742"><ele>166.5</ele><time>2026-04-18T13:46:22.483Z</time></trkpt><trkpt lat="43.3690194" lon="10.9449415"><ele>167.0</ele><time>2026-04-18T13:46:23.484Z</time></trkpt><trkpt lat="43.3691288" lon="10.9450234"><ele>167.5</ele><time>2026-04-18T13:46:24.484Z</time></trkpt><trkpt lat="43.3692443" lon="10.9451213"><ele>168.0</ele><time>2026-04-18T13:46:25.485Z</time></trkpt><trkpt lat="43.3693568" lon="10.9452279"><ele>168.0</ele><time>2026-04-18T13:46:26.483Z</time></trkpt><trkpt lat="43.3694618" lon="10.9453535"><ele>168.0</ele><time>2026-04-18T13:46:27.492Z</time></trkpt><trkpt lat="43.3695597" lon="10.9454853"><ele>168.0</ele><time>2026-04-18T13:46:28.485Z</time></trkpt><trkpt lat="43.3696502" lon="10.9456039"><ele>168.0</ele><time>2026-04-18T13:46:29.483Z</time></trkpt><trkpt lat="43.3697345" lon="10.9457184"><ele>168.60000000000002</ele><time>2026-04-18T13:46:30.489Z</time></trkpt><trkpt lat="43.3698168" lon="10.9458175"><ele>169.20000000000002</ele><time>2026-04-18T13:46:31.482Z</time></trkpt><trkpt lat="43.369898" lon="10.9459057"><ele>169.8</ele><time>2026-04-18T13:46:32.489Z</time></trkpt><trkpt lat="43.369979" lon="10.9459761"><ele>170.4</ele><time>2026-04-18T13:46:33.487Z</time></trkpt><trkpt lat="43.37004" lon="10.9460586"><ele>171.0</ele><time>2026-04-18T13:46:34.489Z</time></trkpt><trkpt lat="43.3700807" lon="10.9461324"><ele>171.20000000000002</ele><time>2026-04-18T13:46:35.485Z</time></trkpt><trkpt lat="43.3701677" lon="10.9462411"><ele>171.4</ele><time>2026-04-18T13:46:37.485Z</time></trkpt><trkpt lat="43.3702157" lon="10.9463911"><ele>171.6</ele><time>2026-04-18T13:46:39.483Z</time></trkpt><trkpt lat="43.3701913" lon="10.9465567"><ele>171.8</ele><time>2026-04-18T13:46:41.48Z</time></trkpt><trkpt lat="43.3701467" lon="10.9466547"><ele>172.0</ele><time>2026-04-18T13:46:42.483Z</time></trkpt><trkpt lat="43.3701063" lon="10.9467648"><ele>172.0</ele><time>2026-04-18T13:46:43.483Z</time></trkpt><trkpt lat="43.3700833" lon="10.9468773"><ele>172.0</ele><time>2026-04-18T13:46:44.482Z</time></trkpt><trkpt lat="43.3700643" lon="10.9469965"><ele>172.0</ele><time>2026-04-18T13:46:45.487Z</time></trkpt><trkpt lat="43.3700585" lon="10.9471161"><ele>172.0</ele><time>2026-04-18T13:46:46.484Z</time></trkpt><trkpt lat="43.3700614" lon="10.947234"><ele>172.0</ele><time>2026-04-18T13:46:47.492Z</time></trkpt><trkpt lat="43.3700794" lon="10.9473316"><ele>172.0</ele><time>2026-04-18T13:46:48.481Z</time></trkpt><trkpt lat="43.3700973" lon="10.9474209"><ele>172.0</ele><time>2026-04-18T13:46:49.486Z</time></trkpt><trkpt lat="43.3701277" lon="10.9475024"><ele>172.0</ele><time>2026-04-18T13:46:50.484Z</time></trkpt><trkpt lat="43.3701707" lon="10.9475831"><ele>172.0</ele><time>2026-04-18T13:46:51.481Z</time></trkpt><trkpt lat="43.3702348" lon="10.9476623"><ele>172.0</ele><time>2026-04-18T13:46:52.477Z</time></trkpt><trkpt lat="43.3703185" lon="10.9477691"><ele>172.0</ele><time>2026-04-18T13:46:53.483Z</time></trkpt><trkpt lat="43.3703909" lon="10.9478997"><ele>172.25</ele><time>2026-04-18T13:46:54.486Z</time></trkpt><trkpt lat="43.3704502" lon="10.9480582"><ele>172.5</ele><time>2026-04-18T13:46:55.486Z</time></trkpt><trkpt lat="43.3705107" lon="10.9481946"><ele>172.75</ele><time>2026-04-18T13:46:56.493Z</time></trkpt><trkpt lat="43.3705825" lon="10.948323"><ele>173.0</ele><time>2026-04-18T13:46:57.484Z</time></trkpt><trkpt lat="43.3706514" lon="10.9484408"><ele>173.0</ele><time>2026-04-18T13:46:58.481Z</time></trkpt><trkpt lat="43.3707203" lon="10.9485431"><ele>173.0</ele><time>2026-04-18T13:46:59.479Z</time></trkpt><trkpt lat="43.37078" lon="10.9486293"><ele>173.0</ele><time>2026-04-18T13:47:00.486Z</time></trkpt><trkpt lat="43.3708483" lon="10.9487055"><ele>173.0</ele><time>2026-04-18T13:47:01.482Z</time></trkpt><trkpt lat="43.3709324" lon="10.9487869"><ele>173.0</ele><time>2026-04-18T13:47:02.482Z</time></trkpt><trkpt lat="43.3710215" lon="10.9488706"><ele>173.0</ele><time>2026-04-18T13:47:03.481Z</time></trkpt><trkpt lat="43.3711032" lon="10.9489618"><ele>173.0</ele><time>2026-04-18T13:47:04.477Z</time></trkpt><trkpt lat="43.3711776" lon="10.9490647"><ele>173.0</ele><time>2026-04-18T13:47:05.471Z</time></trkpt><trkpt lat="43.3712365" lon="10.9491948"><ele>173.0</ele><time>2026-04-18T13:47:06.469Z</time></trkpt><trkpt lat="43.3712896" lon="10.9493508"><ele>173.0</ele><time>2026-04-18T13:47:07.475Z</time></trkpt><trkpt lat="43.371325" lon="10.9495086"><ele>172.83333333333331</ele><time>2026-04-18T13:47:08.478Z</time></trkpt><trkpt lat="43.3713537" lon="10.9496394"><ele>172.66666666666666</ele><time>2026-04-18T13:47:09.473Z</time></trkpt><trkpt lat="43.371384" lon="10.9497451"><ele>172.5</ele><time>2026-04-18T13:47:10.482Z</time></trkpt><trkpt lat="43.3714158" lon="10.9498392"><ele>172.33333333333334</ele><time>2026-04-18T13:47:11.477Z</time></trkpt><trkpt lat="43.3714681" lon="10.9499297"><ele>172.16666666666669</ele><time>2026-04-18T13:47:12.48Z</time></trkpt><trkpt lat="43.3715348" lon="10.9500195"><ele>172.0</ele><time>2026-04-18T13:47:13.477Z</time></trkpt><trkpt lat="43.3716161" lon="10.9501092"><ele>172.8</ele><time>2026-04-18T13:47:14.479Z</time></trkpt><trkpt lat="43.3717063" lon="10.9502129"><ele>173.6</ele><time>2026-04-18T13:47:15.478Z</time></trkpt><trkpt lat="43.3718008" lon="10.9503177"><ele>174.4</ele><time>2026-04-18T13:47:16.479Z</time></trkpt><trkpt lat="43.3718857" lon="10.9504078"><ele>175.20000000000002</ele><time>2026-04-18T13:47:17.486Z</time></trkpt><trkpt lat="43.3719625" lon="10.9504964"><ele>176.0</ele><time>2026-04-18T13:47:18.482Z</time></trkpt><trkpt lat="43.3720321" lon="10.950581"><ele>176.0</ele><time>2026-04-18T13:47:19.486Z</time></trkpt><trkpt lat="43.3720905" lon="10.9506676"><ele>176.0</ele><time>2026-04-18T13:47:20.481Z</time></trkpt><trkpt lat="43.3721395" lon="10.9507558"><ele>176.0</ele><time>2026-04-18T13:47:21.48Z</time></trkpt><trkpt lat="43.3721792" lon="10.950836"><ele>176.0</ele><time>2026-04-18T13:47:22.481Z</time></trkpt><trkpt lat="43.3721965" lon="10.9509201"><ele>176.0</ele><time>2026-04-18T13:47:23.474Z</time></trkpt><trkpt lat="43.3721884" lon="10.9510782"><ele>176.0</ele><time>2026-04-18T13:47:25.473Z</time></trkpt><trkpt lat="43.3721545" lon="10.9511698"><ele>176.4</ele><time>2026-04-18T13:47:26.477Z</time></trkpt><trkpt lat="43.3720932" lon="10.9512622"><ele>176.8</ele><time>2026-04-18T13:47:27.475Z</time></trkpt><trkpt lat="43.3720067" lon="10.9513506"><ele>177.20000000000002</ele><time>2026-04-18T13:47:28.468Z</time></trkpt><trkpt lat="43.3719091" lon="10.9514467"><ele>177.60000000000002</ele><time>2026-04-18T13:47:29.476Z</time></trkpt><trkpt lat="43.3718144" lon="10.9515371"><ele>178.0</ele><time>2026-04-18T13:47:30.48Z</time></trkpt><trkpt lat="43.3717309" lon="10.9516119"><ele>178.0</ele><time>2026-04-18T13:47:31.471Z</time></trkpt><trkpt lat="43.3716593" lon="10.9516836"><ele>178.0</ele><time>2026-04-18T13:47:32.49Z</time></trkpt><trkpt lat="43.3715959" lon="10.9517539"><ele>178.0</ele><time>2026-04-18T13:47:33.48Z</time></trkpt><trkpt lat="43.3715441" lon="10.9518266"><ele>178.0</ele><time>2026-04-18T13:47:34.478Z</time></trkpt><trkpt lat="43.3714726" lon="10.9519085"><ele>178.0</ele><time>2026-04-18T13:47:36.481Z</time></trkpt><trkpt lat="43.371445" lon="10.9519961"><ele>178.0</ele><time>2026-04-18T13:47:38.472Z</time></trkpt><trkpt lat="43.3714869" lon="10.952095"><ele>179.60000000000002</ele><time>2026-04-18T13:47:40.473Z</time></trkpt><trkpt lat="43.3715658" lon="10.952113"><ele>181.20000000000002</ele><time>2026-04-18T13:47:42.476Z</time></trkpt><trkpt lat="43.3716655" lon="10.9520517"><ele>182.8</ele><time>2026-04-18T13:47:44.473Z</time></trkpt><trkpt lat="43.3717654" lon="10.9519655"><ele>184.4</ele><time>2026-04-18T13:47:46.472Z</time></trkpt><trkpt lat="43.3718725" lon="10.9519779"><ele>186.0</ele><time>2026-04-18T13:47:48.468Z</time></trkpt><trkpt lat="43.371943" lon="10.9520968"><ele>186.0</ele><time>2026-04-18T13:47:50.477Z</time></trkpt><trkpt lat="43.3719305" lon="10.9522386"><ele>186.0</ele><time>2026-04-18T13:47:52.475Z</time></trkpt><trkpt lat="43.3719031" lon="10.95232"><ele>186.0</ele><time>2026-04-18T13:47:53.484Z</time></trkpt><trkpt lat="43.3718656" lon="10.9524208"><ele>186.0</ele><time>2026-04-18T13:47:54.474Z</time></trkpt><trkpt lat="43.3718311" lon="10.952545"><ele>186.0</ele><time>2026-04-18T13:47:55.476Z</time></trkpt><trkpt lat="43.3717876" lon="10.9526798"><ele>186.8</ele><time>2026-04-18T13:47:56.475Z</time></trkpt><trkpt lat="43.3717414" lon="10.952834"><ele>187.60000000000002</ele><time>2026-04-18T13:47:57.477Z</time></trkpt><trkpt lat="43.3716984" lon="10.9529796"><ele>188.4</ele><time>2026-04-18T13:47:58.474Z</time></trkpt><trkpt lat="43.3716665" lon="10.9530931"><ele>189.2</ele><time>2026-04-18T13:47:59.477Z</time></trkpt><trkpt lat="43.3716428" lon="10.9531925"><ele>190.0</ele><time>2026-04-18T13:48:00.48Z</time></trkpt><trkpt lat="43.3716251" lon="10.9532895"><ele>190.66666666666669</ele><time>2026-04-18T13:48:01.477Z</time></trkpt><trkpt lat="43.3716102" lon="10.9533783"><ele>191.33333333333334</ele><time>2026-04-18T13:48:02.485Z</time></trkpt><trkpt lat="43.3716138" lon="10.9535214"><ele>192.0</ele><time>2026-04-18T13:48:04.476Z</time></trkpt><trkpt lat="43.3716692" lon="10.9536391"><ele>192.66666666666669</ele><time>2026-04-18T13:48:06.474Z</time></trkpt><trkpt lat="43.37173" lon="10.9536669"><ele>193.33333333333334</ele><time>2026-04-18T13:48:07.472Z</time></trkpt><trkpt lat="43.3717961" lon="10.9536721"><ele>194.0</ele><time>2026-04-18T13:48:08.467Z</time></trkpt><trkpt lat="43.3718862" lon="10.9536731"><ele>194.00000000000003</ele><time>2026-04-18T13:48:09.478Z</time></trkpt><trkpt lat="43.3719838" lon="10.9536598"><ele>194.0</ele><time>2026-04-18T13:48:10.479Z</time></trkpt><trkpt lat="43.372071" lon="10.9536526"><ele>194.0</ele><time>2026-04-18T13:48:11.473Z</time></trkpt><trkpt lat="43.3721525" lon="10.9536266"><ele>194.0</ele><time>2026-04-18T13:48:12.474Z</time></trkpt><trkpt lat="43.3722274" lon="10.9535778"><ele>194.00000000000003</ele><time>2026-04-18T13:48:13.467Z</time></trkpt><trkpt lat="43.3722882" lon="10.9535043"><ele>194.0</ele><time>2026-04-18T13:48:14.472Z</time></trkpt><trkpt lat="43.3723365" lon="10.9534294"><ele>195.00000000000003</ele><time>2026-04-18T13:48:15.474Z</time></trkpt><trkpt lat="43.372426" lon="10.9533461"><ele>196.0</ele><time>2026-04-18T13:48:17.482Z</time></trkpt><trkpt lat="43.372489" lon="10.9533548"><ele>197.0</ele><time>2026-04-18T13:48:18.47Z</time></trkpt><trkpt lat="43.3725579" lon="10.9533998"><ele>198.0</ele><time>2026-04-18T13:48:19.484Z</time></trkpt><trkpt lat="43.3726228" lon="10.9534735"><ele>199.00000000000003</ele><time>2026-04-18T13:48:20.485Z</time></trkpt><trkpt lat="43.3726873" lon="10.9535336"><ele>200.0</ele><time>2026-04-18T13:48:21.477Z</time></trkpt><trkpt lat="43.372804" lon="10.9535797"><ele>201.00000000000003</ele><time>2026-04-18T13:48:23.478Z</time></trkpt><trkpt lat="43.372864" lon="10.9535498"><ele>202.0</ele><time>2026-04-18T13:48:24.47Z</time></trkpt><trkpt lat="43.3729274" lon="10.9535036"><ele>203.0</ele><time>2026-04-18T13:48:25.47Z</time></trkpt><trkpt lat="43.3730025" lon="10.9534351"><ele>204.0</ele><time>2026-04-18T13:48:26.472Z</time></trkpt><trkpt lat="43.3730658" lon="10.9533514"><ele>205.00000000000003</ele><time>2026-04-18T13:48:27.471Z</time></trkpt><trkpt lat="43.3731244" lon="10.9532916"><ele>206.0</ele><time>2026-04-18T13:48:28.473Z</time></trkpt><trkpt lat="43.3731839" lon="10.9532572"><ele>206.16666666666669</ele><time>2026-04-18T13:48:29.477Z</time></trkpt><trkpt lat="43.373265" lon="10.9532612"><ele>206.33333333333334</ele><time>2026-04-18T13:48:31.475Z</time></trkpt><trkpt lat="43.3733089" lon="10.9533348"><ele>206.5</ele><time>2026-04-18T13:48:33.487Z</time></trkpt><trkpt lat="43.3732809" lon="10.9534578"><ele>206.66666666666669</ele><time>2026-04-18T13:48:36.473Z</time></trkpt><trkpt lat="43.3732302" lon="10.9535124"><ele>206.83333333333334</ele><time>2026-04-18T13:48:37.476Z</time></trkpt><trkpt lat="43.3731734" lon="10.9535905"><ele>207.0</ele><time>2026-04-18T13:48:38.476Z</time></trkpt><trkpt lat="43.3731225" lon="10.9536851"><ele>208.33333333333334</ele><time>2026-04-18T13:48:39.475Z</time></trkpt><trkpt lat="43.3730903" lon="10.9537837"><ele>209.66666666666669</ele><time>2026-04-18T13:48:40.476Z</time></trkpt><trkpt lat="43.3730712" lon="10.953897"><ele>211.0</ele><time>2026-04-18T13:48:41.474Z</time></trkpt><trkpt lat="43.3730676" lon="10.95401"><ele>212.33333333333334</ele><time>2026-04-18T13:48:42.486Z</time></trkpt><trkpt lat="43.3730713" lon="10.9541214"><ele>213.66666666666669</ele><time>2026-04-18T13:48:43.487Z</time></trkpt><trkpt lat="43.3730676" lon="10.9542358"><ele>215.0</ele><time>2026-04-18T13:48:44.488Z</time></trkpt><trkpt lat="43.3730582" lon="10.9543352"><ele>215.8</ele><time>2026-04-18T13:48:45.484Z</time></trkpt><trkpt lat="43.3730675" lon="10.9544731"><ele>216.6</ele><time>2026-04-18T13:48:47.487Z</time></trkpt><trkpt lat="43.3731072" lon="10.9546311"><ele>217.39999999999998</ele><time>2026-04-18T13:48:49.475Z</time></trkpt><trkpt lat="43.3731409" lon="10.9547239"><ele>218.2</ele><time>2026-04-18T13:48:50.476Z</time></trkpt><trkpt lat="43.3731799" lon="10.9548388"><ele>219.0</ele><time>2026-04-18T13:48:51.476Z</time></trkpt><trkpt lat="43.3732089" lon="10.9549554"><ele>220.39999999999998</ele><time>2026-04-18T13:48:52.461Z</time></trkpt><trkpt lat="43.3732074" lon="10.9550742"><ele>221.79999999999998</ele><time>2026-04-18T13:48:53.477Z</time></trkpt><trkpt lat="43.3731952" lon="10.9551994"><ele>223.20000000000002</ele><time>2026-04-18T13:48:54.477Z</time></trkpt><trkpt lat="43.3731706" lon="10.9553284"><ele>224.60000000000002</ele><time>2026-04-18T13:48:55.477Z</time></trkpt><trkpt lat="43.3731229" lon="10.9554448"><ele>226.0</ele><time>2026-04-18T13:48:56.468Z</time></trkpt><trkpt lat="43.3730717" lon="10.9555434"><ele>225.99999999999997</ele><time>2026-04-18T13:48:57.475Z</time></trkpt><trkpt lat="43.3730303" lon="10.9556451"><ele>226.0</ele><time>2026-04-18T13:48:58.47Z</time></trkpt><trkpt lat="43.3730036" lon="10.9557616"><ele>226.0</ele><time>2026-04-18T13:48:59.465Z</time></trkpt><trkpt lat="43.3729906" lon="10.9558885"><ele>226.0</ele><time>2026-04-18T13:49:00.478Z</time></trkpt><trkpt lat="43.3729903" lon="10.9560047"><ele>225.99999999999997</ele><time>2026-04-18T13:49:01.467Z</time></trkpt><trkpt lat="43.3730045" lon="10.9561295"><ele>226.0</ele><time>2026-04-18T13:49:02.474Z</time></trkpt><trkpt lat="43.3730286" lon="10.9562707"><ele>227.20000000000002</ele><time>2026-04-18T13:49:03.472Z</time></trkpt><trkpt lat="43.3730527" lon="10.9564059"><ele>228.40000000000003</ele><time>2026-04-18T13:49:04.465Z</time></trkpt><trkpt lat="43.3730771" lon="10.9565158"><ele>229.6</ele><time>2026-04-18T13:49:05.474Z</time></trkpt><trkpt lat="43.3730907" lon="10.9566333"><ele>230.8</ele><time>2026-04-18T13:49:06.472Z</time></trkpt><trkpt lat="43.3730902" lon="10.9567612"><ele>232.0</ele><time>2026-04-18T13:49:07.475Z</time></trkpt><trkpt lat="43.3730644" lon="10.9568747"><ele>231.33333333333331</ele><time>2026-04-18T13:49:08.465Z</time></trkpt><trkpt lat="43.3730218" lon="10.9569694"><ele>230.66666666666666</ele><time>2026-04-18T13:49:09.47Z</time></trkpt><trkpt lat="43.3729683" lon="10.9570544"><ele>230.0</ele><time>2026-04-18T13:49:10.47Z</time></trkpt><trkpt lat="43.3729053" lon="10.9571097"><ele>229.33333333333331</ele><time>2026-04-18T13:49:11.472Z</time></trkpt><trkpt lat="43.3728295" lon="10.957142"><ele>228.66666666666666</ele><time>2026-04-18T13:49:12.463Z</time></trkpt><trkpt lat="43.3727464" lon="10.9571562"><ele>228.0</ele><time>2026-04-18T13:49:13.47Z</time></trkpt><trkpt lat="43.3726679" lon="10.957156"><ele>228.0</ele><time>2026-04-18T13:49:14.47Z</time></trkpt><trkpt lat="43.3725824" lon="10.9571974"><ele>228.0</ele><time>2026-04-18T13:49:16.465Z</time></trkpt><trkpt lat="43.3725954" lon="10.9573045"><ele>228.0</ele><time>2026-04-18T13:49:19.473Z</time></trkpt><trkpt lat="43.3726691" lon="10.9573456"><ele>228.0</ele><time>2026-04-18T13:49:21.468Z</time></trkpt><trkpt lat="43.3728038" lon="10.9573257"><ele>228.0</ele><time>2026-04-18T13:49:23.477Z</time></trkpt><trkpt lat="43.3728835" lon="10.9573399"><ele>228.0</ele><time>2026-04-18T13:49:24.472Z</time></trkpt><trkpt lat="43.3729641" lon="10.9573561"><ele>228.0</ele><time>2026-04-18T13:49:25.478Z</time></trkpt><trkpt lat="43.373027" lon="10.9573897"><ele>228.0</ele><time>2026-04-18T13:49:26.463Z</time></trkpt><trkpt lat="43.3730889" lon="10.9574088"><ele>228.0</ele><time>2026-04-18T13:49:27.477Z</time></trkpt><trkpt lat="43.3732101" lon="10.9573585"><ele>228.0</ele><time>2026-04-18T13:49:29.481Z</time></trkpt><trkpt lat="43.373284" lon="10.9572762"><ele>228.0</ele><time>2026-04-18T13:49:30.472Z</time></trkpt><trkpt lat="43.3733774" lon="10.9571631"><ele>230.0</ele><time>2026-04-18T13:49:31.477Z</time></trkpt><trkpt lat="43.3734643" lon="10.9570479"><ele>232.0</ele><time>2026-04-18T13:49:32.472Z</time></trkpt><trkpt lat="43.3735612" lon="10.9569271"><ele>234.0</ele><time>2026-04-18T13:49:33.476Z</time></trkpt><trkpt lat="43.3736541" lon="10.9568155"><ele>236.0</ele><time>2026-04-18T13:49:34.475Z</time></trkpt><trkpt lat="43.3737453" lon="10.9567133"><ele>235.20000000000002</ele><time>2026-04-18T13:49:35.472Z</time></trkpt><trkpt lat="43.3738422" lon="10.9566143"><ele>234.40000000000003</ele><time>2026-04-18T13:49:36.472Z</time></trkpt><trkpt lat="43.373937" lon="10.9565372"><ele>233.6</ele><time>2026-04-18T13:49:37.467Z</time></trkpt><trkpt lat="43.3740198" lon="10.9564728"><ele>232.8</ele><time>2026-04-18T13:49:38.473Z</time></trkpt><trkpt lat="43.3741005" lon="10.9563793"><ele>232.0</ele><time>2026-04-18T13:49:40.472Z</time></trkpt><trkpt lat="43.3742136" lon="10.9563568"><ele>234.8</ele><time>2026-04-18T13:49:42.468Z</time></trkpt><trkpt lat="43.3742822" lon="10.9563837"><ele>237.6</ele><time>2026-04-18T13:49:43.474Z</time></trkpt><trkpt lat="43.3743416" lon="10.9564579"><ele>240.40000000000003</ele><time>2026-04-18T13:49:44.475Z</time></trkpt><trkpt lat="43.3743991" lon="10.9565661"><ele>243.20000000000002</ele><time>2026-04-18T13:49:45.47Z</time></trkpt><trkpt lat="43.3744819" lon="10.9566868"><ele>246.0</ele><time>2026-04-18T13:49:46.48Z</time></trkpt><trkpt lat="43.3745699" lon="10.9568271"><ele>247.0</ele><time>2026-04-18T13:49:47.48Z</time></trkpt><trkpt lat="43.3746475" lon="10.9569594"><ele>248.00000000000003</ele><time>2026-04-18T13:49:48.48Z</time></trkpt><trkpt lat="43.3747256" lon="10.9570802"><ele>249.00000000000003</ele><time>2026-04-18T13:49:49.473Z</time></trkpt><trkpt lat="43.3747922" lon="10.9571712"><ele>250.0</ele><time>2026-04-18T13:49:50.483Z</time></trkpt><trkpt lat="43.3748477" lon="10.9572355"><ele>251.0</ele><time>2026-04-18T13:49:51.472Z</time></trkpt><trkpt lat="43.3749145" lon="10.957287"><ele>252.0</ele><time>2026-04-18T13:49:52.479Z</time></trkpt><trkpt lat="43.3749885" lon="10.9573154"><ele>253.00000000000003</ele><time>2026-04-18T13:49:53.476Z</time></trkpt><trkpt lat="43.375066" lon="10.9573284"><ele>254.00000000000003</ele><time>2026-04-18T13:49:54.474Z</time></trkpt><trkpt lat="43.3751451" lon="10.9573284"><ele>255.0</ele><time>2026-04-18T13:49:55.47Z</time></trkpt><trkpt lat="43.3752583" lon="10.9573281"><ele>256.0</ele><time>2026-04-18T13:49:56.471Z</time></trkpt><trkpt lat="43.3754107" lon="10.9573345"><ele>257.75</ele><time>2026-04-18T13:49:57.48Z</time></trkpt><trkpt lat="43.3755494" lon="10.957337"><ele>259.5</ele><time>2026-04-18T13:49:58.478Z</time></trkpt><trkpt lat="43.375681" lon="10.9573396"><ele>261.25</ele><time>2026-04-18T13:49:59.474Z</time></trkpt><trkpt lat="43.37582" lon="10.9573417"><ele>263.0</ele><time>2026-04-18T13:50:00.481Z</time></trkpt><trkpt lat="43.3759405" lon="10.9573429"><ele>263.0</ele><time>2026-04-18T13:50:01.473Z</time></trkpt><trkpt lat="43.3760672" lon="10.9573356"><ele>263.0</ele><time>2026-04-18T13:50:02.479Z</time></trkpt><trkpt lat="43.376192" lon="10.9573248"><ele>263.0</ele><time>2026-04-18T13:50:03.476Z</time></trkpt><trkpt lat="43.3763007" lon="10.9573152"><ele>263.0</ele><time>2026-04-18T13:50:04.475Z</time></trkpt><trkpt lat="43.3764078" lon="10.9572881"><ele>264.33333333333337</ele><time>2026-04-18T13:50:05.472Z</time></trkpt><trkpt lat="43.3765086" lon="10.9572465"><ele>265.6666666666667</ele><time>2026-04-18T13:50:06.468Z</time></trkpt><trkpt lat="43.3765848" lon="10.9572044"><ele>267.0</ele><time>2026-04-18T13:50:07.468Z</time></trkpt><trkpt lat="43.3766476" lon="10.9571583"><ele>268.3333333333333</ele><time>2026-04-18T13:50:08.473Z</time></trkpt><trkpt lat="43.3767041" lon="10.9571191"><ele>269.66666666666663</ele><time>2026-04-18T13:50:09.472Z</time></trkpt><trkpt lat="43.3768134" lon="10.9570826"><ele>271.0</ele><time>2026-04-18T13:50:11.472Z</time></trkpt><trkpt lat="43.3768896" lon="10.957174"><ele>271.0</ele><time>2026-04-18T13:50:13.492Z</time></trkpt><trkpt lat="43.3768815" lon="10.9573268"><ele>271.0</ele><time>2026-04-18T13:50:15.474Z</time></trkpt><trkpt lat="43.3768423" lon="10.9574071"><ele>271.0</ele><time>2026-04-18T13:50:16.473Z</time></trkpt><trkpt lat="43.3767831" lon="10.957496"><ele>271.0</ele><time>2026-04-18T13:50:17.483Z</time></trkpt><trkpt lat="43.3767117" lon="10.9575679"><ele>271.0</ele><time>2026-04-18T13:50:18.48Z</time></trkpt><trkpt lat="43.3766595" lon="10.9576354"><ele>271.0</ele><time>2026-04-18T13:50:19.477Z</time></trkpt><trkpt lat="43.3766113" lon="10.9577854"><ele>271.5</ele><time>2026-04-18T13:50:21.485Z</time></trkpt><trkpt lat="43.3766507" lon="10.9578919"><ele>272.0</ele><time>2026-04-18T13:50:23.478Z</time></trkpt><trkpt lat="43.3767398" lon="10.9579355"><ele>272.5</ele><time>2026-04-18T13:50:25.476Z</time></trkpt><trkpt lat="43.3768497" lon="10.9578815"><ele>273.0</ele><time>2026-04-18T13:50:27.475Z</time></trkpt><trkpt lat="43.3769029" lon="10.9578246"><ele>273.5</ele><time>2026-04-18T13:50:28.479Z</time></trkpt><trkpt lat="43.3769466" lon="10.9577576"><ele>274.0</ele><time>2026-04-18T13:50:29.478Z</time></trkpt><trkpt lat="43.3769937" lon="10.9576884"><ele>274.0</ele><time>2026-04-18T13:50:30.48Z</time></trkpt><trkpt lat="43.3770447" lon="10.9576256"><ele>274.0</ele><time>2026-04-18T13:50:31.466Z</time></trkpt><trkpt lat="43.3771638" lon="10.9575848"><ele>274.0</ele><time>2026-04-18T13:50:33.484Z</time></trkpt><trkpt lat="43.3772294" lon="10.9575975"><ele>274.0</ele><time>2026-04-18T13:50:34.469Z</time></trkpt><trkpt lat="43.3773001" lon="10.9576312"><ele>274.0</ele><time>2026-04-18T13:50:35.475Z</time></trkpt><trkpt lat="43.3773862" lon="10.9576913"><ele>274.0</ele><time>2026-04-18T13:50:36.48Z</time></trkpt><trkpt lat="43.3774829" lon="10.957764"><ele>276.2</ele><time>2026-04-18T13:50:37.485Z</time></trkpt><trkpt lat="43.3775757" lon="10.957843"><ele>278.4</ele><time>2026-04-18T13:50:38.484Z</time></trkpt><trkpt lat="43.377674" lon="10.9579304"><ele>280.6</ele><time>2026-04-18T13:50:39.488Z</time></trkpt><trkpt lat="43.377777" lon="10.958015"><ele>282.8</ele><time>2026-04-18T13:50:40.486Z</time></trkpt><trkpt lat="43.3778642" lon="10.9580893"><ele>285.0</ele><time>2026-04-18T13:50:41.48Z</time></trkpt><trkpt lat="43.3779236" lon="10.9581548"><ele>285.0</ele><time>2026-04-18T13:50:42.482Z</time></trkpt><trkpt lat="43.3779786" lon="10.9583047"><ele>285.0</ele><time>2026-04-18T13:50:44.484Z</time></trkpt><trkpt lat="43.3779832" lon="10.9584278"><ele>285.0</ele><time>2026-04-18T13:50:45.482Z</time></trkpt><trkpt lat="43.3779838" lon="10.9585706"><ele>285.0</ele><time>2026-04-18T13:50:46.48Z</time></trkpt><trkpt lat="43.3779606" lon="10.9587207"><ele>285.0</ele><time>2026-04-18T13:50:47.486Z</time></trkpt><trkpt lat="43.3779616" lon="10.9588675"><ele>285.0</ele><time>2026-04-18T13:50:48.478Z</time></trkpt><trkpt lat="43.377979" lon="10.9590233"><ele>285.0</ele><time>2026-04-18T13:50:49.487Z</time></trkpt><trkpt lat="43.3780049" lon="10.9591899"><ele>285.0</ele><time>2026-04-18T13:50:50.489Z</time></trkpt><trkpt lat="43.3780318" lon="10.9593428"><ele>285.0</ele><time>2026-04-18T13:50:51.48Z</time></trkpt><trkpt lat="43.3780605" lon="10.9594803"><ele>288.2</ele><time>2026-04-18T13:50:52.478Z</time></trkpt><trkpt lat="43.3780916" lon="10.9595931"><ele>291.4</ele><time>2026-04-18T13:50:53.478Z</time></trkpt><trkpt lat="43.3781214" lon="10.9597122"><ele>294.6</ele><time>2026-04-18T13:50:54.475Z</time></trkpt><trkpt lat="43.3781435" lon="10.959808"><ele>297.8</ele><time>2026-04-18T13:50:55.47Z</time></trkpt><trkpt lat="43.3782189" lon="10.959947"><ele>301.0</ele><time>2026-04-18T13:50:57.47Z</time></trkpt><trkpt lat="43.3783125" lon="10.9600061"><ele>301.0</ele><time>2026-04-18T13:50:59.472Z</time></trkpt><trkpt lat="43.3784227" lon="10.959985"><ele>301.0</ele><time>2026-04-18T13:51:01.467Z</time></trkpt><trkpt lat="43.3784999" lon="10.9598662"><ele>301.0</ele><time>2026-04-18T13:51:03.465Z</time></trkpt><trkpt lat="43.3785437" lon="10.9597281"><ele>301.0</ele><time>2026-04-18T13:51:05.47Z</time></trkpt><trkpt lat="43.3786317" lon="10.9596568"><ele>301.0</ele><time>2026-04-18T13:51:07.472Z</time></trkpt><trkpt lat="43.3787028" lon="10.9596343"><ele>301.0</ele><time>2026-04-18T13:51:08.479Z</time></trkpt><trkpt lat="43.3788107" lon="10.9596214"><ele>301.0</ele><time>2026-04-18T13:51:09.477Z</time></trkpt><trkpt lat="43.3789282" lon="10.9595909"><ele>301.0</ele><time>2026-04-18T13:51:10.472Z</time></trkpt><trkpt lat="43.3790616" lon="10.95955"><ele>301.0</ele><time>2026-04-18T13:51:11.474Z</time></trkpt><trkpt lat="43.3791973" lon="10.959506"><ele>299.25</ele><time>2026-04-18T13:51:12.473Z</time></trkpt><trkpt lat="43.3793245" lon="10.9594657"><ele>297.5</ele><time>2026-04-18T13:51:13.48Z</time></trkpt><trkpt lat="43.379442" lon="10.9594307"><ele>295.75</ele><time>2026-04-18T13:51:14.474Z</time></trkpt><trkpt lat="43.3795551" lon="10.9593891"><ele>294.0</ele><time>2026-04-18T13:51:15.475Z</time></trkpt><trkpt lat="43.3796688" lon="10.9593326"><ele>290.3333333333333</ele><time>2026-04-18T13:51:16.477Z</time></trkpt><trkpt lat="43.379804" lon="10.9592693"><ele>286.66666666666663</ele><time>2026-04-18T13:51:17.48Z</time></trkpt><trkpt lat="43.3799547" lon="10.9592071"><ele>283.0</ele><time>2026-04-18T13:51:18.475Z</time></trkpt><trkpt lat="43.3801062" lon="10.9591442"><ele>283.0</ele><time>2026-04-18T13:51:19.49Z</time></trkpt><trkpt lat="43.3802628" lon="10.9590905"><ele>283.0</ele><time>2026-04-18T13:51:20.475Z</time></trkpt><trkpt lat="43.3804078" lon="10.9590374"><ele>283.0</ele><time>2026-04-18T13:51:21.474Z</time></trkpt><trkpt lat="43.3805484" lon="10.9589874"><ele>281.5</ele><time>2026-04-18T13:51:22.481Z</time></trkpt><trkpt lat="43.3806991" lon="10.9589385"><ele>280.0</ele><time>2026-04-18T13:51:23.476Z</time></trkpt><trkpt lat="43.3808438" lon="10.9588819"><ele>278.5</ele><time>2026-04-18T13:51:24.483Z</time></trkpt><trkpt lat="43.3809821" lon="10.9588265"><ele>277.0</ele><time>2026-04-18T13:51:25.48Z</time></trkpt><trkpt lat="43.3811134" lon="10.958779"><ele>277.0</ele><time>2026-04-18T13:51:26.478Z</time></trkpt><trkpt lat="43.3812622" lon="10.9587307"><ele>277.0</ele><time>2026-04-18T13:51:27.481Z</time></trkpt><trkpt lat="43.3813921" lon="10.95868"><ele>277.0</ele><time>2026-04-18T13:51:28.484Z</time></trkpt><trkpt lat="43.381516" lon="10.9586175"><ele>277.0</ele><time>2026-04-18T13:51:29.479Z</time></trkpt><trkpt lat="43.3816495" lon="10.9585418"><ele>276.75</ele><time>2026-04-18T13:51:30.484Z</time></trkpt><trkpt lat="43.3817703" lon="10.9584677"><ele>276.5</ele><time>2026-04-18T13:51:31.48Z</time></trkpt><trkpt lat="43.3818937" lon="10.9583842"><ele>276.25</ele><time>2026-04-18T13:51:32.48Z</time></trkpt><trkpt lat="43.3820262" lon="10.9582778"><ele>276.0</ele><time>2026-04-18T13:51:33.471Z</time></trkpt><trkpt lat="43.3821363" lon="10.9581714"><ele>277.25</ele><time>2026-04-18T13:51:34.474Z</time></trkpt><trkpt lat="43.3822544" lon="10.9580684"><ele>278.5</ele><time>2026-04-18T13:51:35.477Z</time></trkpt><trkpt lat="43.3823859" lon="10.9579927"><ele>279.75</ele><time>2026-04-18T13:51:36.477Z</time></trkpt><trkpt lat="43.382532" lon="10.957923"><ele>281.0</ele><time>2026-04-18T13:51:37.476Z</time></trkpt><trkpt lat="43.3826819" lon="10.9578459"><ele>281.0</ele><time>2026-04-18T13:51:38.478Z</time></trkpt><trkpt lat="43.3828535" lon="10.9577443"><ele>281.0</ele><time>2026-04-18T13:51:39.478Z</time></trkpt><trkpt lat="43.3830198" lon="10.957639"><ele>281.0</ele><time>2026-04-18T13:51:40.482Z</time></trkpt><trkpt lat="43.3831796" lon="10.9575512"><ele>284.33333333333337</ele><time>2026-04-18T13:51:41.478Z</time></trkpt><trkpt lat="43.3833362" lon="10.9574635"><ele>287.6666666666667</ele><time>2026-04-18T13:51:42.482Z</time></trkpt><trkpt lat="43.383475" lon="10.957368"><ele>291.0</ele><time>2026-04-18T13:51:43.478Z</time></trkpt><trkpt lat="43.3836207" lon="10.9572721"><ele>291.0</ele><time>2026-04-18T13:51:44.483Z</time></trkpt><trkpt lat="43.3837425" lon="10.9571892"><ele>291.0</ele><time>2026-04-18T13:51:45.472Z</time></trkpt><trkpt lat="43.3838606" lon="10.9571057"><ele>291.0</ele><time>2026-04-18T13:51:46.475Z</time></trkpt><trkpt lat="43.3839755" lon="10.9570369"><ele>291.0</ele><time>2026-04-18T13:51:47.466Z</time></trkpt><trkpt lat="43.3840799" lon="10.9569976"><ele>292.25</ele><time>2026-04-18T13:51:48.457Z</time></trkpt><trkpt lat="43.3841856" lon="10.9569648"><ele>293.5</ele><time>2026-04-18T13:51:49.466Z</time></trkpt><trkpt lat="43.3843025" lon="10.9569467"><ele>294.75</ele><time>2026-04-18T13:51:50.478Z</time></trkpt><trkpt lat="43.3844278" lon="10.9569377"><ele>296.0</ele><time>2026-04-18T13:51:51.482Z</time></trkpt><trkpt lat="43.3845561" lon="10.9569364"><ele>296.75</ele><time>2026-04-18T13:51:52.481Z</time></trkpt><trkpt lat="43.3846928" lon="10.9569292"><ele>297.5</ele><time>2026-04-18T13:51:53.482Z</time></trkpt><trkpt lat="43.3848366" lon="10.9569053"><ele>298.25</ele><time>2026-04-18T13:51:54.478Z</time></trkpt><trkpt lat="43.3849938" lon="10.9568572"><ele>299.0</ele><time>2026-04-18T13:51:55.477Z</time></trkpt><trkpt lat="43.3851021" lon="10.9568044"><ele>299.0</ele><time>2026-04-18T13:51:56.473Z</time></trkpt><trkpt lat="43.3852017" lon="10.956764"><ele>299.0</ele><time>2026-04-18T13:51:57.482Z</time></trkpt><trkpt lat="43.3853002" lon="10.9567146"><ele>299.0</ele><time>2026-04-18T13:51:58.479Z</time></trkpt><trkpt lat="43.3853938" lon="10.9566537"><ele>299.0</ele><time>2026-04-18T13:51:59.477Z</time></trkpt><trkpt lat="43.3854984" lon="10.9565836"><ele>299.0</ele><time>2026-04-18T13:52:00.471Z</time></trkpt><trkpt lat="43.385588" lon="10.9564815"><ele>302.75</ele><time>2026-04-18T13:52:01.469Z</time></trkpt><trkpt lat="43.3856634" lon="10.9563726"><ele>306.5</ele><time>2026-04-18T13:52:02.476Z</time></trkpt><trkpt lat="43.3857259" lon="10.9562403"><ele>310.25</ele><time>2026-04-18T13:52:03.465Z</time></trkpt><trkpt lat="43.3857827" lon="10.9560905"><ele>314.0</ele><time>2026-04-18T13:52:04.473Z</time></trkpt><trkpt lat="43.3858352" lon="10.9559377"><ele>316.75</ele><time>2026-04-18T13:52:05.468Z</time></trkpt><trkpt lat="43.3858808" lon="10.9557656"><ele>319.5</ele><time>2026-04-18T13:52:06.474Z</time></trkpt><trkpt lat="43.3859225" lon="10.9555889"><ele>322.25</ele><time>2026-04-18T13:52:07.472Z</time></trkpt><trkpt lat="43.3859759" lon="10.9554178"><ele>325.0</ele><time>2026-04-18T13:52:08.474Z</time></trkpt><trkpt lat="43.3860306" lon="10.9552413"><ele>325.0</ele><time>2026-04-18T13:52:09.471Z</time></trkpt><trkpt lat="43.3860859" lon="10.9550962"><ele>325.0</ele><time>2026-04-18T13:52:10.471Z</time></trkpt><trkpt lat="43.3861302" lon="10.9549629"><ele>325.0</ele><time>2026-04-18T13:52:11.472Z</time></trkpt><trkpt lat="43.3861672" lon="10.9548633"><ele>325.0</ele><time>2026-04-18T13:52:12.475Z</time></trkpt><trkpt lat="43.3862183" lon="10.9547647"><ele>325.0</ele><time>2026-04-18T13:52:13.472Z</time></trkpt><trkpt lat="43.3862766" lon="10.9546794"><ele>326.3333333333333</ele><time>2026-04-18T13:52:14.476Z</time></trkpt><trkpt lat="43.3863176" lon="10.9545992"><ele>327.66666666666663</ele><time>2026-04-18T13:52:15.473Z</time></trkpt><trkpt lat="43.3863633" lon="10.9544829"><ele>329.0</ele><time>2026-04-18T13:52:17.473Z</time></trkpt><trkpt lat="43.3863577" lon="10.9543504"><ele>330.3333333333333</ele><time>2026-04-18T13:52:19.462Z</time></trkpt><trkpt lat="43.3863395" lon="10.9542556"><ele>331.6666666666667</ele><time>2026-04-18T13:52:20.464Z</time></trkpt><trkpt lat="43.3863281" lon="10.9541492"><ele>333.0</ele><time>2026-04-18T13:52:21.476Z</time></trkpt><trkpt lat="43.3863277" lon="10.9540612"><ele>335.79999999999995</ele><time>2026-04-18T13:52:22.473Z</time></trkpt><trkpt lat="43.3863657" lon="10.953926"><ele>338.6</ele><time>2026-04-18T13:52:24.471Z</time></trkpt><trkpt lat="43.3864638" lon="10.9538883"><ele>341.4</ele><time>2026-04-18T13:52:26.47Z</time></trkpt><trkpt lat="43.3865975" lon="10.9539149"><ele>344.20000000000005</ele><time>2026-04-18T13:52:28.467Z</time></trkpt><trkpt lat="43.3866936" lon="10.9539396"><ele>347.0</ele><time>2026-04-18T13:52:29.458Z</time></trkpt><trkpt lat="43.3867949" lon="10.9539723"><ele>347.0</ele><time>2026-04-18T13:52:30.465Z</time></trkpt><trkpt lat="43.3868741" lon="10.9540118"><ele>347.0</ele><time>2026-04-18T13:52:31.458Z</time></trkpt><trkpt lat="43.3869375" lon="10.9540609"><ele>347.0</ele><time>2026-04-18T13:52:32.463Z</time></trkpt><trkpt lat="43.3869949" lon="10.954125"><ele>347.0</ele><time>2026-04-18T13:52:33.466Z</time></trkpt><trkpt lat="43.3870397" lon="10.9542192"><ele>347.0</ele><time>2026-04-18T13:52:34.456Z</time></trkpt><trkpt lat="43.3870636" lon="10.95434"><ele>347.0</ele><time>2026-04-18T13:52:35.461Z</time></trkpt><trkpt lat="43.3871007" lon="10.9544421"><ele>347.20000000000005</ele><time>2026-04-18T13:52:36.469Z</time></trkpt><trkpt lat="43.3871393" lon="10.954516"><ele>347.4</ele><time>2026-04-18T13:52:37.473Z</time></trkpt><trkpt lat="43.3872337" lon="10.954575"><ele>347.6</ele><time>2026-04-18T13:52:39.482Z</time></trkpt><trkpt lat="43.3873082" lon="10.9545509"><ele>347.79999999999995</ele><time>2026-04-18T13:52:41.478Z</time></trkpt><trkpt lat="43.3873984" lon="10.9544739"><ele>348.0</ele><time>2026-04-18T13:52:43.485Z</time></trkpt><trkpt lat="43.3874884" lon="10.9543413"><ele>348.0</ele><time>2026-04-18T13:52:45.488Z</time></trkpt><trkpt lat="43.3875401" lon="10.954249"><ele>348.0</ele><time>2026-04-18T13:52:46.486Z</time></trkpt><trkpt lat="43.3875739" lon="10.9541623"><ele>348.0</ele><time>2026-04-18T13:52:47.486Z</time></trkpt><trkpt lat="43.3876006" lon="10.9540716"><ele>348.0</ele><time>2026-04-18T13:52:48.48Z</time></trkpt><trkpt lat="43.3876135" lon="10.953974"><ele>348.0</ele><time>2026-04-18T13:52:49.474Z</time></trkpt><trkpt lat="43.3875995" lon="10.9538833"><ele>348.0</ele><time>2026-04-18T13:52:50.463Z</time></trkpt><trkpt lat="43.3875738" lon="10.9537934"><ele>348.0</ele><time>2026-04-18T13:52:51.461Z</time></trkpt><trkpt lat="43.3875297" lon="10.953707"><ele>350.3333333333333</ele><time>2026-04-18T13:52:52.453Z</time></trkpt><trkpt lat="43.3874685" lon="10.953623"><ele>352.6666666666667</ele><time>2026-04-18T13:52:53.457Z</time></trkpt><trkpt lat="43.3873994" lon="10.953558"><ele>355.0</ele><time>2026-04-18T13:52:54.469Z</time></trkpt><trkpt lat="43.3873365" lon="10.9534866"><ele>357.33333333333337</ele><time>2026-04-18T13:52:55.462Z</time></trkpt><trkpt lat="43.3872877" lon="10.9534061"><ele>359.6666666666667</ele><time>2026-04-18T13:52:56.463Z</time></trkpt><trkpt lat="43.3872574" lon="10.9533087"><ele>362.0</ele><time>2026-04-18T13:52:57.456Z</time></trkpt><trkpt lat="43.3872429" lon="10.9531806"><ele>364.8</ele><time>2026-04-18T13:52:58.46Z</time></trkpt><trkpt lat="43.387234" lon="10.9530506"><ele>367.6</ele><time>2026-04-18T13:52:59.457Z</time></trkpt><trkpt lat="43.3872466" lon="10.9529066"><ele>370.40000000000003</ele><time>2026-04-18T13:53:00.468Z</time></trkpt><trkpt lat="43.3872757" lon="10.9527514"><ele>373.20000000000005</ele><time>2026-04-18T13:53:01.469Z</time></trkpt><trkpt lat="43.3872938" lon="10.9525908"><ele>376.0</ele><time>2026-04-18T13:53:02.454Z</time></trkpt><trkpt lat="43.3873028" lon="10.9524366"><ele>377.66666666666663</ele><time>2026-04-18T13:53:03.451Z</time></trkpt><trkpt lat="43.3873036" lon="10.952296"><ele>379.3333333333333</ele><time>2026-04-18T13:53:04.445Z</time></trkpt><trkpt lat="43.3872893" lon="10.9521871"><ele>381.0</ele><time>2026-04-18T13:53:05.454Z</time></trkpt><trkpt lat="43.3872499" lon="10.9520364"><ele>382.66666666666663</ele><time>2026-04-18T13:53:07.447Z</time></trkpt><trkpt lat="43.3872207" lon="10.9519377"><ele>384.3333333333333</ele><time>2026-04-18T13:53:09.449Z</time></trkpt><trkpt lat="43.3872708" lon="10.9518809"><ele>386.0</ele><time>2026-04-18T13:53:12.458Z</time></trkpt><trkpt lat="43.387348" lon="10.9519161"><ele>385.99999999999994</ele><time>2026-04-18T13:53:14.449Z</time></trkpt><trkpt lat="43.3873952" lon="10.9520197"><ele>386.0</ele><time>2026-04-18T13:53:16.453Z</time></trkpt><trkpt lat="43.3874334" lon="10.9521295"><ele>386.0</ele><time>2026-04-18T13:53:17.463Z</time></trkpt><trkpt lat="43.3874669" lon="10.9522236"><ele>386.0</ele><time>2026-04-18T13:53:18.449Z</time></trkpt><trkpt lat="43.3875058" lon="10.9523341"><ele>385.99999999999994</ele><time>2026-04-18T13:53:20.456Z</time></trkpt><trkpt lat="43.3875656" lon="10.9523679"><ele>386.0</ele><time>2026-04-18T13:53:22.46Z</time></trkpt><trkpt lat="43.387613" lon="10.9523077"><ele>385.99999999999994</ele><time>2026-04-18T13:53:24.457Z</time></trkpt><trkpt lat="43.3875964" lon="10.9521741"><ele>386.0</ele><time>2026-04-18T13:53:26.448Z</time></trkpt><trkpt lat="43.3875804" lon="10.9520789"><ele>386.0</ele><time>2026-04-18T13:53:27.458Z</time></trkpt><trkpt lat="43.3875673" lon="10.9519791"><ele>386.0</ele><time>2026-04-18T13:53:28.458Z</time></trkpt><trkpt lat="43.3875565" lon="10.9518811"><ele>385.99999999999994</ele><time>2026-04-18T13:53:30.455Z</time></trkpt><trkpt lat="43.3876241" lon="10.9518665"><ele>386.0</ele><time>2026-04-18T13:53:34.449Z</time></trkpt><trkpt lat="43.3876811" lon="10.9519419"><ele>386.0</ele><time>2026-04-18T13:53:36.45Z</time></trkpt><trkpt lat="43.3877215" lon="10.9520816"><ele>386.0</ele><time>2026-04-18T13:53:38.447Z</time></trkpt><trkpt lat="43.3877306" lon="10.9522184"><ele>386.0</ele><time>2026-04-18T13:53:39.454Z</time></trkpt><trkpt lat="43.3877471" lon="10.9523462"><ele>386.0</ele><time>2026-04-18T13:53:40.455Z</time></trkpt><trkpt lat="43.3877669" lon="10.9524695"><ele>386.0</ele><time>2026-04-18T13:53:41.463Z</time></trkpt><trkpt lat="43.3877854" lon="10.952588"><ele>386.16666666666663</ele><time>2026-04-18T13:53:42.462Z</time></trkpt><trkpt lat="43.3878062" lon="10.9526983"><ele>386.3333333333333</ele><time>2026-04-18T13:53:43.462Z</time></trkpt><trkpt lat="43.3878246" lon="10.9527815"><ele>386.5</ele><time>2026-04-18T13:53:44.46Z</time></trkpt><trkpt lat="43.3878601" lon="10.9529163"><ele>386.66666666666663</ele><time>2026-04-18T13:53:46.465Z</time></trkpt><trkpt lat="43.3879303" lon="10.9529423"><ele>386.8333333333333</ele><time>2026-04-18T13:53:48.468Z</time></trkpt><trkpt lat="43.388055" lon="10.9529171"><ele>387.0</ele><time>2026-04-18T13:53:50.469Z</time></trkpt><trkpt lat="43.3881212" lon="10.9528745"><ele>387.0</ele><time>2026-04-18T13:53:51.474Z</time></trkpt><trkpt lat="43.3881793" lon="10.952805"><ele>387.0</ele><time>2026-04-18T13:53:52.471Z</time></trkpt><trkpt lat="43.3882447" lon="10.952702"><ele>387.0</ele><time>2026-04-18T13:53:53.471Z</time></trkpt><trkpt lat="43.3883033" lon="10.9525879"><ele>387.0</ele><time>2026-04-18T13:53:54.471Z</time></trkpt><trkpt lat="43.3883589" lon="10.9524696"><ele>387.0</ele><time>2026-04-18T13:53:55.463Z</time></trkpt><trkpt lat="43.3884328" lon="10.95237"><ele>392.25</ele><time>2026-04-18T13:53:56.466Z</time></trkpt><trkpt lat="43.3885149" lon="10.9522778"><ele>397.5</ele><time>2026-04-18T13:53:57.467Z</time></trkpt><trkpt lat="43.3886179" lon="10.9522009"><ele>402.75</ele><time>2026-04-18T13:53:58.462Z</time></trkpt><trkpt lat="43.388724" lon="10.9521252"><ele>408.0</ele><time>2026-04-18T13:53:59.469Z</time></trkpt><trkpt lat="43.3888259" lon="10.9520527"><ele>406.75</ele><time>2026-04-18T13:54:00.465Z</time></trkpt><trkpt lat="43.3889221" lon="10.9519605"><ele>405.5</ele><time>2026-04-18T13:54:01.456Z</time></trkpt><trkpt lat="43.3890169" lon="10.9518419"><ele>404.25</ele><time>2026-04-18T13:54:02.461Z</time></trkpt><trkpt lat="43.3890925" lon="10.9517194"><ele>403.0</ele><time>2026-04-18T13:54:03.46Z</time></trkpt><trkpt lat="43.389171" lon="10.9516115"><ele>405.50000000000006</ele><time>2026-04-18T13:54:04.453Z</time></trkpt><trkpt lat="43.389236" lon="10.9515208"><ele>408.0</ele><time>2026-04-18T13:54:05.449Z</time></trkpt><trkpt lat="43.3892991" lon="10.9514539"><ele>410.5</ele><time>2026-04-18T13:54:06.46Z</time></trkpt><trkpt lat="43.3893631" lon="10.9513855"><ele>413.0</ele><time>2026-04-18T13:54:07.46Z</time></trkpt><trkpt lat="43.389434" lon="10.9513361"><ele>415.50000000000006</ele><time>2026-04-18T13:54:08.464Z</time></trkpt><trkpt lat="43.3895351" lon="10.9512789"><ele>418.0</ele><time>2026-04-18T13:54:10.463Z</time></trkpt><trkpt lat="43.3896587" lon="10.9513028"><ele>417.59999999999997</ele><time>2026-04-18T13:54:12.469Z</time></trkpt><trkpt lat="43.3897363" lon="10.9513848"><ele>417.2</ele><time>2026-04-18T13:54:13.457Z</time></trkpt><trkpt lat="43.3898114" lon="10.9514958"><ele>416.8</ele><time>2026-04-18T13:54:14.474Z</time></trkpt><trkpt lat="43.3898584" lon="10.951576"><ele>416.4</ele><time>2026-04-18T13:54:15.473Z</time></trkpt><trkpt lat="43.3899259" lon="10.9516746"><ele>416.0</ele><time>2026-04-18T13:54:17.466Z</time></trkpt><trkpt lat="43.390005" lon="10.9517058"><ele>415.8</ele><time>2026-04-18T13:54:20.464Z</time></trkpt><trkpt lat="43.3901012" lon="10.9517369"><ele>415.6</ele><time>2026-04-18T13:58:30.454Z</time></trkpt><trkpt lat="43.3901587" lon="10.9517962"><ele>415.4</ele><time>2026-04-18T13:58:31.447Z</time></trkpt><trkpt lat="43.3902269" lon="10.9518968"><ele>415.2</ele><time>2026-04-18T13:58:32.458Z</time></trkpt><trkpt lat="43.3902912" lon="10.9519977"><ele>415.0</ele><time>2026-04-18T13:58:33.466Z</time></trkpt><trkpt lat="43.3903552" lon="10.952095"><ele>415.0</ele><time>2026-04-18T13:58:34.469Z</time></trkpt><trkpt lat="43.3904296" lon="10.9521891"><ele>415.0</ele><time>2026-04-18T13:58:35.466Z</time></trkpt><trkpt lat="43.3905056" lon="10.9522871"><ele>415.0</ele><time>2026-04-18T13:58:36.461Z</time></trkpt><trkpt lat="43.390584" lon="10.9523857"><ele>415.0</ele><time>2026-04-18T13:58:37.465Z</time></trkpt><trkpt lat="43.3906668" lon="10.9524911"><ele>415.0</ele><time>2026-04-18T13:58:38.462Z</time></trkpt><trkpt lat="43.3907619" lon="10.9526157"><ele>418.33333333333337</ele><time>2026-04-18T13:58:39.454Z</time></trkpt><trkpt lat="43.3908766" lon="10.9527607"><ele>421.66666666666663</ele><time>2026-04-18T13:58:40.448Z</time></trkpt><trkpt lat="43.3910087" lon="10.9529167"><ele>425.0</ele><time>2026-04-18T13:58:41.454Z</time></trkpt><trkpt lat="43.3911555" lon="10.9530732"><ele>425.0</ele><time>2026-04-18T13:58:42.465Z</time></trkpt><trkpt lat="43.3913002" lon="10.9532373"><ele>425.0</ele><time>2026-04-18T13:58:43.451Z</time></trkpt><trkpt lat="43.3914677" lon="10.9534224"><ele>425.0</ele><time>2026-04-18T13:58:44.459Z</time></trkpt><trkpt lat="43.3916409" lon="10.9535885"><ele>427.0</ele><time>2026-04-18T13:58:45.462Z</time></trkpt><trkpt lat="43.3918206" lon="10.9537366"><ele>429.0</ele><time>2026-04-18T13:58:46.459Z</time></trkpt><trkpt lat="43.3919791" lon="10.953865"><ele>431.0</ele><time>2026-04-18T13:58:47.46Z</time></trkpt><trkpt lat="43.3921306" lon="10.9539957"><ele>429.0</ele><time>2026-04-18T13:58:48.467Z</time></trkpt><trkpt lat="43.3922917" lon="10.9541038"><ele>427.0</ele><time>2026-04-18T13:58:49.464Z</time></trkpt><trkpt lat="43.3924665" lon="10.9542211"><ele>425.0</ele><time>2026-04-18T13:58:50.463Z</time></trkpt><trkpt lat="43.3926386" lon="10.9543228"><ele>427.3333333333333</ele><time>2026-04-18T13:58:51.46Z</time></trkpt><trkpt lat="43.3927958" lon="10.9544252"><ele>429.66666666666663</ele><time>2026-04-18T13:58:52.461Z</time></trkpt><trkpt lat="43.3929458" lon="10.9545228"><ele>432.0</ele><time>2026-04-18T13:58:53.459Z</time></trkpt><trkpt lat="43.393103" lon="10.9546031"><ele>432.0</ele><time>2026-04-18T13:58:54.46Z</time></trkpt><trkpt lat="43.3932589" lon="10.9547133"><ele>432.0</ele><time>2026-04-18T13:58:55.458Z</time></trkpt><trkpt lat="43.3934131" lon="10.9548106"><ele>432.0</ele><time>2026-04-18T13:58:56.451Z</time></trkpt><trkpt lat="43.3935768" lon="10.9549118"><ele>432.0</ele><time>2026-04-18T13:58:57.468Z</time></trkpt><trkpt lat="43.3937354" lon="10.9550202"><ele>432.0</ele><time>2026-04-18T13:58:58.466Z</time></trkpt><trkpt lat="43.3938901" lon="10.9551539"><ele>432.0</ele><time>2026-04-18T13:58:59.463Z</time></trkpt><trkpt lat="43.3940364" lon="10.9552894"><ele>431.0</ele><time>2026-04-18T13:59:00.462Z</time></trkpt><trkpt lat="43.394192" lon="10.9554445"><ele>430.0</ele><time>2026-04-18T13:59:01.461Z</time></trkpt><trkpt lat="43.3943324" lon="10.9556192"><ele>429.0</ele><time>2026-04-18T13:59:02.461Z</time></trkpt><trkpt lat="43.3944628" lon="10.9558148"><ele>431.33333333333337</ele><time>2026-04-18T13:59:03.471Z</time></trkpt><trkpt lat="43.3945897" lon="10.9560304"><ele>433.6666666666667</ele><time>2026-04-18T13:59:04.467Z</time></trkpt><trkpt lat="43.3947007" lon="10.9562627"><ele>436.0</ele><time>2026-04-18T13:59:05.46Z</time></trkpt><trkpt lat="43.3948106" lon="10.9565047"><ele>431.33333333333337</ele><time>2026-04-18T13:59:06.467Z</time></trkpt><trkpt lat="43.3949106" lon="10.9567534"><ele>426.66666666666663</ele><time>2026-04-18T13:59:07.459Z</time></trkpt><trkpt lat="43.3950002" lon="10.9570122"><ele>422.0</ele><time>2026-04-18T13:59:08.458Z</time></trkpt><trkpt lat="43.3950921" lon="10.9572765"><ele>423.0</ele><time>2026-04-18T13:59:09.46Z</time></trkpt><trkpt lat="43.3951735" lon="10.9575538"><ele>424.0</ele><time>2026-04-18T13:59:10.462Z</time></trkpt><trkpt lat="43.3952703" lon="10.9578279"><ele>425.0</ele><time>2026-04-18T13:59:11.463Z</time></trkpt><trkpt lat="43.3953734" lon="10.9580987"><ele>426.0</ele><time>2026-04-18T13:59:12.466Z</time></trkpt><trkpt lat="43.3954736" lon="10.9583801"><ele>427.0</ele><time>2026-04-18T13:59:13.47Z</time></trkpt><trkpt lat="43.3955767" lon="10.9586533"><ele>420.6666666666667</ele><time>2026-04-18T13:59:14.465Z</time></trkpt><trkpt lat="43.3956722" lon="10.9589286"><ele>414.33333333333337</ele><time>2026-04-18T13:59:15.463Z</time></trkpt><trkpt lat="43.3957764" lon="10.9591949"><ele>408.0</ele><time>2026-04-18T13:59:16.465Z</time></trkpt><trkpt lat="43.3958904" lon="10.959455"><ele>408.0</ele><time>2026-04-18T13:59:17.477Z</time></trkpt><trkpt lat="43.396017" lon="10.9597076"><ele>408.0</ele><time>2026-04-18T13:59:18.473Z</time></trkpt><trkpt lat="43.3961483" lon="10.9599463"><ele>408.0</ele><time>2026-04-18T13:59:19.472Z</time></trkpt><trkpt lat="43.3962822" lon="10.9601781"><ele>407.66666666666663</ele><time>2026-04-18T13:59:20.475Z</time></trkpt><trkpt lat="43.3964311" lon="10.9603987"><ele>407.3333333333333</ele><time>2026-04-18T13:59:21.48Z</time></trkpt><trkpt lat="43.3965898" lon="10.9606197"><ele>407.0</ele><time>2026-04-18T13:59:22.475Z</time></trkpt><trkpt lat="43.3967591" lon="10.9608474"><ele>406.5</ele><time>2026-04-18T13:59:23.475Z</time></trkpt><trkpt lat="43.396938" lon="10.9610739"><ele>406.0</ele><time>2026-04-18T13:59:24.483Z</time></trkpt><trkpt lat="43.3971173" lon="10.9612955"><ele>409.0</ele><time>2026-04-18T13:59:25.475Z</time></trkpt><trkpt lat="43.3973009" lon="10.9615161"><ele>412.0</ele><time>2026-04-18T13:59:26.476Z</time></trkpt><trkpt lat="43.3974748" lon="10.961722"><ele>413.0</ele><time>2026-04-18T13:59:27.48Z</time></trkpt><trkpt lat="43.3976379" lon="10.9619286"><ele>414.0</ele><time>2026-04-18T13:59:28.479Z</time></trkpt><trkpt lat="43.3978028" lon="10.9621328"><ele>415.0</ele><time>2026-04-18T13:59:29.478Z</time></trkpt><trkpt lat="43.3979648" lon="10.9623355"><ele>415.0</ele><time>2026-04-18T13:59:30.483Z</time></trkpt><trkpt lat="43.3981318" lon="10.9625393"><ele>415.0</ele><time>2026-04-18T13:59:31.479Z</time></trkpt><trkpt lat="43.3982942" lon="10.962749"><ele>415.0</ele><time>2026-04-18T13:59:32.479Z</time></trkpt><trkpt lat="43.3984601" lon="10.9629528"><ele>415.0</ele><time>2026-04-18T13:59:33.482Z</time></trkpt><trkpt lat="43.3986259" lon="10.9631573"><ele>415.0</ele><time>2026-04-18T13:59:34.483Z</time></trkpt><trkpt lat="43.3987828" lon="10.963358"><ele>415.0</ele><time>2026-04-18T13:59:35.485Z</time></trkpt><trkpt lat="43.3989501" lon="10.9635406"><ele>416.33333333333337</ele><time>2026-04-18T13:59:36.487Z</time></trkpt><trkpt lat="43.3990983" lon="10.9637306"><ele>417.66666666666663</ele><time>2026-04-18T13:59:37.484Z</time></trkpt><trkpt lat="43.3992468" lon="10.9639221"><ele>419.0</ele><time>2026-04-18T13:59:38.487Z</time></trkpt><trkpt lat="43.39938" lon="10.9641148"><ele>419.0</ele><time>2026-04-18T13:59:39.493Z</time></trkpt><trkpt lat="43.3995039" lon="10.9643094"><ele>419.0</ele><time>2026-04-18T13:59:40.486Z</time></trkpt><trkpt lat="43.3996188" lon="10.9645043"><ele>419.0</ele><time>2026-04-18T13:59:41.477Z</time></trkpt><trkpt lat="43.399738" lon="10.9646942"><ele>419.0</ele><time>2026-04-18T13:59:42.473Z</time></trkpt><trkpt lat="43.3998476" lon="10.9648949"><ele>419.0</ele><time>2026-04-18T13:59:43.472Z</time></trkpt><trkpt lat="43.399969" lon="10.9651101"><ele>419.0</ele><time>2026-04-18T13:59:44.475Z</time></trkpt><trkpt lat="43.400085" lon="10.9653379"><ele>420.3333333333333</ele><time>2026-04-18T13:59:45.475Z</time></trkpt><trkpt lat="43.4002005" lon="10.9655788"><ele>421.66666666666663</ele><time>2026-04-18T13:59:46.477Z</time></trkpt><trkpt lat="43.400322" lon="10.9658254"><ele>423.0</ele><time>2026-04-18T13:59:47.481Z</time></trkpt><trkpt lat="43.4004446" lon="10.9660881"><ele>424.33333333333337</ele><time>2026-04-18T13:59:48.473Z</time></trkpt><trkpt lat="43.4005637" lon="10.9663431"><ele>425.6666666666667</ele><time>2026-04-18T13:59:49.469Z</time></trkpt><trkpt lat="43.4006629" lon="10.9666157"><ele>427.0</ele><time>2026-04-18T13:59:50.48Z</time></trkpt><trkpt lat="43.4007713" lon="10.9668848"><ele>428.5</ele><time>2026-04-18T13:59:51.472Z</time></trkpt><trkpt lat="43.4008801" lon="10.967156"><ele>430.0</ele><time>2026-04-18T13:59:52.471Z</time></trkpt><trkpt lat="43.4009919" lon="10.9674506"><ele>431.0</ele><time>2026-04-18T13:59:53.467Z</time></trkpt><trkpt lat="43.4010884" lon="10.9677398"><ele>432.0</ele><time>2026-04-18T13:59:54.474Z</time></trkpt><trkpt lat="43.4011823" lon="10.9680315"><ele>432.0</ele><time>2026-04-18T13:59:55.458Z</time></trkpt><trkpt lat="43.4012738" lon="10.9683135"><ele>432.0</ele><time>2026-04-18T13:59:56.463Z</time></trkpt><trkpt lat="43.4013657" lon="10.9686085"><ele>436.5</ele><time>2026-04-18T13:59:57.479Z</time></trkpt><trkpt lat="43.4014643" lon="10.9688956"><ele>441.0</ele><time>2026-04-18T13:59:58.47Z</time></trkpt><trkpt lat="43.4015624" lon="10.9691885"><ele>443.5</ele><time>2026-04-18T13:59:59.47Z</time></trkpt><trkpt lat="43.401666" lon="10.9694798"><ele>446.0</ele><time>2026-04-18T14:00:00.481Z</time></trkpt><trkpt lat="43.4017929" lon="10.9697726"><ele>444.5</ele><time>2026-04-18T14:00:01.46Z</time></trkpt><trkpt lat="43.4019437" lon="10.9700647"><ele>443.0</ele><time>2026-04-18T14:00:02.458Z</time></trkpt><trkpt lat="43.4020979" lon="10.9703695"><ele>445.0</ele><time>2026-04-18T14:00:03.468Z</time></trkpt><trkpt lat="43.4022507" lon="10.9706575"><ele>447.0</ele><time>2026-04-18T14:00:04.464Z</time></trkpt><trkpt lat="43.4023916" lon="10.9709182"><ele>452.0</ele><time>2026-04-18T14:00:05.462Z</time></trkpt><trkpt lat="43.4025414" lon="10.9711684"><ele>457.0</ele><time>2026-04-18T14:00:06.471Z</time></trkpt><trkpt lat="43.4026833" lon="10.9714118"><ele>457.0</ele><time>2026-04-18T14:00:07.473Z</time></trkpt><trkpt lat="43.4028123" lon="10.9716555"><ele>457.0</ele><time>2026-04-18T14:00:08.479Z</time></trkpt><trkpt lat="43.4029377" lon="10.9718899"><ele>457.0</ele><time>2026-04-18T14:00:09.474Z</time></trkpt><trkpt lat="43.4030529" lon="10.9721347"><ele>457.6666666666667</ele><time>2026-04-18T14:00:10.473Z</time></trkpt><trkpt lat="43.4031701" lon="10.972386"><ele>458.33333333333337</ele><time>2026-04-18T14:00:11.473Z</time></trkpt><trkpt lat="43.4032768" lon="10.9726348"><ele>459.0</ele><time>2026-04-18T14:00:12.471Z</time></trkpt><trkpt lat="43.403373" lon="10.972849"><ele>459.33333333333337</ele><time>2026-04-18T14:00:13.465Z</time></trkpt><trkpt lat="43.4034601" lon="10.9730404"><ele>459.6666666666667</ele><time>2026-04-18T14:00:14.466Z</time></trkpt><trkpt lat="43.4035455" lon="10.97322"><ele>460.0</ele><time>2026-04-18T14:00:15.474Z</time></trkpt><trkpt lat="43.4036181" lon="10.9733883"><ele>460.0</ele><time>2026-04-18T14:00:16.471Z</time></trkpt><trkpt lat="43.4036907" lon="10.9735565"><ele>460.0</ele><time>2026-04-18T14:00:17.472Z</time></trkpt><trkpt lat="43.4037634" lon="10.9737202"><ele>460.0</ele><time>2026-04-18T14:00:18.473Z</time></trkpt><trkpt lat="43.4038357" lon="10.9738757"><ele>460.0</ele><time>2026-04-18T14:00:19.473Z</time></trkpt><trkpt lat="43.4038983" lon="10.9740324"><ele>461.0</ele><time>2026-04-18T14:00:20.47Z</time></trkpt><trkpt lat="43.4039567" lon="10.9741737"><ele>462.0</ele><time>2026-04-18T14:00:21.474Z</time></trkpt><trkpt lat="43.4040019" lon="10.974301"><ele>463.0</ele><time>2026-04-18T14:00:22.464Z</time></trkpt><trkpt lat="43.4040293" lon="10.9744153"><ele>464.0</ele><time>2026-04-18T14:00:23.468Z</time></trkpt><trkpt lat="43.4040619" lon="10.9745121"><ele>465.0</ele><time>2026-04-18T14:00:24.476Z</time></trkpt><trkpt lat="43.4040908" lon="10.974602"><ele>466.0</ele><time>2026-04-18T14:00:25.474Z</time></trkpt><trkpt lat="43.4041239" lon="10.974694"><ele>467.0</ele><time>2026-04-18T14:00:26.475Z</time></trkpt><trkpt lat="43.4041771" lon="10.9747749"><ele>468.0</ele><time>2026-04-18T14:00:27.472Z</time></trkpt><trkpt lat="43.4042625" lon="10.9748105"><ele>469.0</ele><time>2026-04-18T14:00:28.468Z</time></trkpt><trkpt lat="43.4043627" lon="10.9748047"><ele>470.0</ele><time>2026-04-18T14:00:29.473Z</time></trkpt><trkpt lat="43.4044721" lon="10.9747711"><ele>470.0</ele><time>2026-04-18T14:00:30.477Z</time></trkpt><trkpt lat="43.4045933" lon="10.9747315"><ele>470.0</ele><time>2026-04-18T14:00:31.469Z</time></trkpt><trkpt lat="43.404727" lon="10.9746961"><ele>470.0</ele><time>2026-04-18T14:00:32.467Z</time></trkpt><trkpt lat="43.4048551" lon="10.9746449"><ele>470.0</ele><time>2026-04-18T14:00:33.46Z</time></trkpt><trkpt lat="43.4049748" lon="10.974567"><ele>472.5</ele><time>2026-04-18T14:00:34.46Z</time></trkpt><trkpt lat="43.4050758" lon="10.9744785"><ele>475.0</ele><time>2026-04-18T14:00:35.465Z</time></trkpt><trkpt lat="43.4051696" lon="10.9744042"><ele>477.5</ele><time>2026-04-18T14:00:36.46Z</time></trkpt><trkpt lat="43.4052767" lon="10.9743738"><ele>480.0</ele><time>2026-04-18T14:00:37.471Z</time></trkpt><trkpt lat="43.4053888" lon="10.974404"><ele>479.5</ele><time>2026-04-18T14:00:38.488Z</time></trkpt><trkpt lat="43.4055101" lon="10.9744863"><ele>479.0</ele><time>2026-04-18T14:00:39.468Z</time></trkpt><trkpt lat="43.4056242" lon="10.9745999"><ele>478.5</ele><time>2026-04-18T14:00:40.465Z</time></trkpt><trkpt lat="43.4057464" lon="10.974719"><ele>478.0</ele><time>2026-04-18T14:00:41.467Z</time></trkpt><trkpt lat="43.4058716" lon="10.974835"><ele>478.0</ele><time>2026-04-18T14:00:42.464Z</time></trkpt><trkpt lat="43.4060147" lon="10.9749415"><ele>478.0</ele><time>2026-04-18T14:00:43.458Z</time></trkpt><trkpt lat="43.4061618" lon="10.9750507"><ele>478.0</ele><time>2026-04-18T14:00:44.463Z</time></trkpt><trkpt lat="43.4063124" lon="10.975153"><ele>479.6666666666667</ele><time>2026-04-18T14:00:45.451Z</time></trkpt><trkpt lat="43.406474" lon="10.9752495"><ele>481.33333333333337</ele><time>2026-04-18T14:00:46.462Z</time></trkpt><trkpt lat="43.406632" lon="10.9753482"><ele>483.0</ele><time>2026-04-18T14:00:47.461Z</time></trkpt><trkpt lat="43.406801" lon="10.9754418"><ele>483.0</ele><time>2026-04-18T14:00:48.461Z</time></trkpt><trkpt lat="43.4069683" lon="10.9755617"><ele>483.0</ele><time>2026-04-18T14:00:49.462Z</time></trkpt><trkpt lat="43.407125" lon="10.975676"><ele>483.0</ele><time>2026-04-18T14:00:50.462Z</time></trkpt><trkpt lat="43.4072977" lon="10.9757958"><ele>486.66666666666663</ele><time>2026-04-18T14:00:51.46Z</time></trkpt><trkpt lat="43.407464" lon="10.9759013"><ele>490.3333333333333</ele><time>2026-04-18T14:00:52.459Z</time></trkpt><trkpt lat="43.407628" lon="10.9760155"><ele>494.0</ele><time>2026-04-18T14:00:53.464Z</time></trkpt><trkpt lat="43.4077951" lon="10.9761123"><ele>494.0</ele><time>2026-04-18T14:00:54.459Z</time></trkpt><trkpt lat="43.4079599" lon="10.9761916"><ele>494.0</ele><time>2026-04-18T14:00:55.452Z</time></trkpt><trkpt lat="43.4080969" lon="10.9762986"><ele>494.0</ele><time>2026-04-18T14:00:56.459Z</time></trkpt><trkpt lat="43.4082255" lon="10.9764401"><ele>492.66666666666663</ele><time>2026-04-18T14:00:57.459Z</time></trkpt><trkpt lat="43.4083488" lon="10.9765967"><ele>491.33333333333337</ele><time>2026-04-18T14:00:58.463Z</time></trkpt><trkpt lat="43.4084616" lon="10.9767641"><ele>490.0</ele><time>2026-04-18T14:00:59.46Z</time></trkpt><trkpt lat="43.408558" lon="10.9768863"><ele>492.5</ele><time>2026-04-18T14:01:00.469Z</time></trkpt><trkpt lat="43.4086346" lon="10.9769905"><ele>495.0</ele><time>2026-04-18T14:01:01.46Z</time></trkpt><trkpt lat="43.4087425" lon="10.9770329"><ele>497.5</ele><time>2026-04-18T14:01:02.458Z</time></trkpt><trkpt lat="43.4088735" lon="10.977038"><ele>500.0</ele><time>2026-04-18T14:01:03.459Z</time></trkpt><trkpt lat="43.4090243" lon="10.9769959"><ele>500.3333333333333</ele><time>2026-04-18T14:01:04.455Z</time></trkpt><trkpt lat="43.4091712" lon="10.9769491"><ele>500.66666666666663</ele><time>2026-04-18T14:01:05.449Z</time></trkpt><trkpt lat="43.409322" lon="10.9769548"><ele>501.0</ele><time>2026-04-18T14:01:06.446Z</time></trkpt><trkpt lat="43.4094803" lon="10.9770195"><ele>501.0</ele><time>2026-04-18T14:01:07.449Z</time></trkpt><trkpt lat="43.4096083" lon="10.9770955"><ele>501.0</ele><time>2026-04-18T14:01:08.45Z</time></trkpt><trkpt lat="43.4097151" lon="10.9771762"><ele>501.0</ele><time>2026-04-18T14:01:09.451Z</time></trkpt><trkpt lat="43.4098184" lon="10.9772807"><ele>501.0</ele><time>2026-04-18T14:01:10.461Z</time></trkpt><trkpt lat="43.4099011" lon="10.9774365"><ele>501.75</ele><time>2026-04-18T14:01:11.463Z</time></trkpt><trkpt lat="43.4099617" lon="10.9776261"><ele>502.5</ele><time>2026-04-18T14:01:12.458Z</time></trkpt><trkpt lat="43.4100139" lon="10.9777859"><ele>503.25</ele><time>2026-04-18T14:01:13.458Z</time></trkpt><trkpt lat="43.4100798" lon="10.9779189"><ele>504.0</ele><time>2026-04-18T14:01:14.451Z</time></trkpt><trkpt lat="43.4101543" lon="10.9780449"><ele>504.0</ele><time>2026-04-18T14:01:15.448Z</time></trkpt><trkpt lat="43.4102499" lon="10.9781577"><ele>504.0</ele><time>2026-04-18T14:01:16.461Z</time></trkpt><trkpt lat="43.4103599" lon="10.9782401"><ele>504.0</ele><time>2026-04-18T14:01:17.46Z</time></trkpt><trkpt lat="43.410462" lon="10.9782652"><ele>504.0</ele><time>2026-04-18T14:01:18.456Z</time></trkpt><trkpt lat="43.4105818" lon="10.9782438"><ele>505.75</ele><time>2026-04-18T14:01:19.462Z</time></trkpt><trkpt lat="43.4107039" lon="10.9781795"><ele>507.5</ele><time>2026-04-18T14:01:20.457Z</time></trkpt><trkpt lat="43.4108207" lon="10.9780753"><ele>509.25</ele><time>2026-04-18T14:01:21.455Z</time></trkpt><trkpt lat="43.4109316" lon="10.9779404"><ele>511.0</ele><time>2026-04-18T14:01:22.454Z</time></trkpt><trkpt lat="43.4110255" lon="10.977779"><ele>511.0</ele><time>2026-04-18T14:01:23.458Z</time></trkpt><trkpt lat="43.4111241" lon="10.9776309"><ele>511.0</ele><time>2026-04-18T14:01:24.456Z</time></trkpt><trkpt lat="43.4112169" lon="10.9774874"><ele>511.0</ele><time>2026-04-18T14:01:25.454Z</time></trkpt><trkpt lat="43.4113146" lon="10.9773631"><ele>511.0</ele><time>2026-04-18T14:01:26.445Z</time></trkpt><trkpt lat="43.4114044" lon="10.9772713"><ele>512.5</ele><time>2026-04-18T14:01:27.46Z</time></trkpt><trkpt lat="43.4115232" lon="10.9772265"><ele>514.0</ele><time>2026-04-18T14:01:28.463Z</time></trkpt><trkpt lat="43.4116473" lon="10.9772354"><ele>515.5</ele><time>2026-04-18T14:01:29.462Z</time></trkpt><trkpt lat="43.4117776" lon="10.97726"><ele>517.0</ele><time>2026-04-18T14:01:30.458Z</time></trkpt><trkpt lat="43.4119074" lon="10.9773142"><ele>517.0</ele><time>2026-04-18T14:01:31.457Z</time></trkpt><trkpt lat="43.4120374" lon="10.9773936"><ele>517.0</ele><time>2026-04-18T14:01:32.463Z</time></trkpt><trkpt lat="43.4121759" lon="10.9774651"><ele>517.0</ele><time>2026-04-18T14:01:33.455Z</time></trkpt><trkpt lat="43.4123102" lon="10.9774935"><ele>517.0</ele><time>2026-04-18T14:01:34.461Z</time></trkpt><trkpt lat="43.4124625" lon="10.9774788"><ele>519.3333333333334</ele><time>2026-04-18T14:01:35.462Z</time></trkpt><trkpt lat="43.4126165" lon="10.9773977"><ele>521.6666666666666</ele><time>2026-04-18T14:01:36.456Z</time></trkpt><trkpt lat="43.4127733" lon="10.9772775"><ele>524.0</ele><time>2026-04-18T14:01:37.455Z</time></trkpt><trkpt lat="43.4129112" lon="10.9771673"><ele>526.25</ele><time>2026-04-18T14:01:38.451Z</time></trkpt><trkpt lat="43.4130304" lon="10.9770962"><ele>528.5</ele><time>2026-04-18T14:01:39.452Z</time></trkpt><trkpt lat="43.413141" lon="10.9770495"><ele>530.75</ele><time>2026-04-18T14:01:40.444Z</time></trkpt><trkpt lat="43.4132488" lon="10.9770348"><ele>533.0</ele><time>2026-04-18T14:01:41.451Z</time></trkpt><trkpt lat="43.413361" lon="10.9770652"><ele>533.0</ele><time>2026-04-18T14:01:42.453Z</time></trkpt><trkpt lat="43.4135129" lon="10.9771638"><ele>533.0</ele><time>2026-04-18T14:01:43.447Z</time></trkpt><trkpt lat="43.4136555" lon="10.9772766"><ele>533.0</ele><time>2026-04-18T14:01:44.45Z</time></trkpt><trkpt lat="43.4138122" lon="10.9773583"><ele>533.3333333333333</ele><time>2026-04-18T14:01:45.45Z</time></trkpt><trkpt lat="43.4139605" lon="10.9773957"><ele>533.6666666666666</ele><time>2026-04-18T14:01:46.452Z</time></trkpt><trkpt lat="43.4141236" lon="10.9774022"><ele>534.0</ele><time>2026-04-18T14:01:47.458Z</time></trkpt><trkpt lat="43.4142858" lon="10.9773622"><ele>534.0</ele><time>2026-04-18T14:01:48.447Z</time></trkpt><trkpt lat="43.4144433" lon="10.9773061"><ele>534.0</ele><time>2026-04-18T14:01:49.447Z</time></trkpt><trkpt lat="43.4145832" lon="10.977243"><ele>534.0</ele><time>2026-04-18T14:01:50.445Z</time></trkpt><trkpt lat="43.4147173" lon="10.9771987"><ele>534.0</ele><time>2026-04-18T14:01:51.453Z</time></trkpt><trkpt lat="43.4148494" lon="10.9771718"><ele>533.5</ele><time>2026-04-18T14:01:52.451Z</time></trkpt><trkpt lat="43.4149783" lon="10.9771625"><ele>533.0</ele><time>2026-04-18T14:01:53.438Z</time></trkpt><trkpt lat="43.4150837" lon="10.977202"><ele>532.5</ele><time>2026-04-18T14:01:54.447Z</time></trkpt><trkpt lat="43.4151854" lon="10.9772949"><ele>532.0</ele><time>2026-04-18T14:01:55.45Z</time></trkpt><trkpt lat="43.4152579" lon="10.9774129"><ele>532.0</ele><time>2026-04-18T14:01:56.447Z</time></trkpt><trkpt lat="43.4153484" lon="10.9774895"><ele>532.0</ele><time>2026-04-18T14:01:57.459Z</time></trkpt><trkpt lat="43.4154706" lon="10.9775335"><ele>532.0</ele><time>2026-04-18T14:01:58.447Z</time></trkpt><trkpt lat="43.4155991" lon="10.9775445"><ele>532.0</ele><time>2026-04-18T14:01:59.449Z</time></trkpt><trkpt lat="43.4157117" lon="10.977545"><ele>531.0</ele><time>2026-04-18T14:02:00.453Z</time></trkpt><trkpt lat="43.4158065" lon="10.9775287"><ele>530.0</ele><time>2026-04-18T14:02:01.455Z</time></trkpt><trkpt lat="43.4159003" lon="10.9774943"><ele>529.0</ele><time>2026-04-18T14:02:02.445Z</time></trkpt><trkpt lat="43.4159973" lon="10.9774233"><ele>528.0</ele><time>2026-04-18T14:02:03.457Z</time></trkpt><trkpt lat="43.4160856" lon="10.9772873"><ele>527.0</ele><time>2026-04-18T14:02:04.454Z</time></trkpt><trkpt lat="43.4161584" lon="10.9771078"><ele>527.0</ele><time>2026-04-18T14:02:05.456Z</time></trkpt><trkpt lat="43.4162042" lon="10.9769143"><ele>527.0</ele><time>2026-04-18T14:02:06.45Z</time></trkpt><trkpt lat="43.4162406" lon="10.9767471"><ele>527.0</ele><time>2026-04-18T14:02:07.446Z</time></trkpt><trkpt lat="43.4162789" lon="10.9766155"><ele>527.0</ele><time>2026-04-18T14:02:08.445Z</time></trkpt><trkpt lat="43.4163262" lon="10.9764894"><ele>526.25</ele><time>2026-04-18T14:02:09.443Z</time></trkpt><trkpt lat="43.416407" lon="10.976392"><ele>525.5</ele><time>2026-04-18T14:02:10.445Z</time></trkpt><trkpt lat="43.4165163" lon="10.9763229"><ele>524.75</ele><time>2026-04-18T14:02:11.445Z</time></trkpt><trkpt lat="43.4166345" lon="10.9762916"><ele>524.0</ele><time>2026-04-18T14:02:12.447Z</time></trkpt><trkpt lat="43.4167661" lon="10.9762658"><ele>524.0</ele><time>2026-04-18T14:02:13.44Z</time></trkpt><trkpt lat="43.416893" lon="10.9762699"><ele>524.0</ele><time>2026-04-18T14:02:14.44Z</time></trkpt><trkpt lat="43.4170192" lon="10.9763052"><ele>524.0</ele><time>2026-04-18T14:02:15.438Z</time></trkpt><trkpt lat="43.4171204" lon="10.9763651"><ele>524.0</ele><time>2026-04-18T14:02:16.445Z</time></trkpt><trkpt lat="43.4172226" lon="10.9763955"><ele>524.75</ele><time>2026-04-18T14:02:17.448Z</time></trkpt><trkpt lat="43.4173256" lon="10.9763948"><ele>525.5</ele><time>2026-04-18T14:02:18.452Z</time></trkpt><trkpt lat="43.4174299" lon="10.9763076"><ele>526.25</ele><time>2026-04-18T14:02:19.449Z</time></trkpt><trkpt lat="43.4175381" lon="10.976209"><ele>527.0</ele><time>2026-04-18T14:02:20.446Z</time></trkpt><trkpt lat="43.4176676" lon="10.9761265"><ele>527.0</ele><time>2026-04-18T14:02:21.446Z</time></trkpt><trkpt lat="43.4178181" lon="10.97608"><ele>527.0</ele><time>2026-04-18T14:02:22.449Z</time></trkpt><trkpt lat="43.4179724" lon="10.9760585"><ele>527.0</ele><time>2026-04-18T14:02:23.451Z</time></trkpt><trkpt lat="43.4181169" lon="10.9760196"><ele>526.25</ele><time>2026-04-18T14:02:24.447Z</time></trkpt><trkpt lat="43.4182531" lon="10.9760078"><ele>525.5</ele><time>2026-04-18T14:02:25.442Z</time></trkpt><trkpt lat="43.4183781" lon="10.9760211"><ele>524.75</ele><time>2026-04-18T14:02:26.44Z</time></trkpt><trkpt lat="43.418511" lon="10.9760912"><ele>524.0</ele><time>2026-04-18T14:02:27.441Z</time></trkpt><trkpt lat="43.4186139" lon="10.9761987"><ele>524.0</ele><time>2026-04-18T14:02:28.445Z</time></trkpt><trkpt lat="43.4186868" lon="10.9762895"><ele>524.0</ele><time>2026-04-18T14:02:29.441Z</time></trkpt><trkpt lat="43.4187673" lon="10.9763494"><ele>524.0</ele><time>2026-04-18T14:02:30.456Z</time></trkpt><trkpt lat="43.4188786" lon="10.976356"><ele>524.0</ele><time>2026-04-18T14:02:31.445Z</time></trkpt><trkpt lat="43.4190137" lon="10.9763154"><ele>524.0</ele><time>2026-04-18T14:02:32.452Z</time></trkpt><trkpt lat="43.4191607" lon="10.9762373"><ele>524.3333333333333</ele><time>2026-04-18T14:02:33.445Z</time></trkpt><trkpt lat="43.4193236" lon="10.976134"><ele>524.6666666666666</ele><time>2026-04-18T14:02:34.444Z</time></trkpt><trkpt lat="43.4194978" lon="10.9760393"><ele>525.0</ele><time>2026-04-18T14:02:35.45Z</time></trkpt><trkpt lat="43.4196557" lon="10.9759512"><ele>525.0</ele><time>2026-04-18T14:02:36.452Z</time></trkpt><trkpt lat="43.419793" lon="10.9758829"><ele>525.0</ele><time>2026-04-18T14:02:37.449Z</time></trkpt><trkpt lat="43.4199461" lon="10.975815"><ele>525.0</ele><time>2026-04-18T14:02:38.454Z</time></trkpt><trkpt lat="43.420103" lon="10.9757628"><ele>523.0</ele><time>2026-04-18T14:02:39.459Z</time></trkpt><trkpt lat="43.4202533" lon="10.9757464"><ele>521.0</ele><time>2026-04-18T14:02:40.444Z</time></trkpt><trkpt lat="43.4203949" lon="10.9757358"><ele>519.0</ele><time>2026-04-18T14:02:41.448Z</time></trkpt><trkpt lat="43.4205507" lon="10.9757374"><ele>517.0</ele><time>2026-04-18T14:02:42.44Z</time></trkpt><trkpt lat="43.4207088" lon="10.9757514"><ele>517.75</ele><time>2026-04-18T14:02:43.451Z</time></trkpt><trkpt lat="43.4208487" lon="10.9758148"><ele>518.5</ele><time>2026-04-18T14:02:44.438Z</time></trkpt><trkpt lat="43.4209736" lon="10.9758729"><ele>519.25</ele><time>2026-04-18T14:02:45.451Z</time></trkpt><trkpt lat="43.4210918" lon="10.9759345"><ele>520.0</ele><time>2026-04-18T14:02:46.456Z</time></trkpt><trkpt lat="43.4212279" lon="10.9759729"><ele>516.75</ele><time>2026-04-18T14:02:47.438Z</time></trkpt><trkpt lat="43.4213825" lon="10.975945"><ele>513.5</ele><time>2026-04-18T14:02:48.449Z</time></trkpt><trkpt lat="43.4214989" lon="10.9759004"><ele>510.25</ele><time>2026-04-18T14:02:49.445Z</time></trkpt><trkpt lat="43.4216141" lon="10.9758589"><ele>507.0</ele><time>2026-04-18T14:02:50.452Z</time></trkpt><trkpt lat="43.4217296" lon="10.9758162"><ele>507.0</ele><time>2026-04-18T14:02:51.456Z</time></trkpt><trkpt lat="43.4218507" lon="10.9757891"><ele>507.0</ele><time>2026-04-18T14:02:52.45Z</time></trkpt><trkpt lat="43.4219651" lon="10.9758014"><ele>507.0</ele><time>2026-04-18T14:02:53.459Z</time></trkpt><trkpt lat="43.422071" lon="10.9758756"><ele>507.0</ele><time>2026-04-18T14:02:54.458Z</time></trkpt><trkpt lat="43.4221754" lon="10.9759944"><ele>504.25</ele><time>2026-04-18T14:02:55.45Z</time></trkpt><trkpt lat="43.4222707" lon="10.9761437"><ele>501.5</ele><time>2026-04-18T14:02:56.461Z</time></trkpt><trkpt lat="43.4223756" lon="10.9762492"><ele>498.75</ele><time>2026-04-18T14:02:57.458Z</time></trkpt><trkpt lat="43.4225056" lon="10.9763143"><ele>496.0</ele><time>2026-04-18T14:02:58.448Z</time></trkpt><trkpt lat="43.4226467" lon="10.9763403"><ele>496.0</ele><time>2026-04-18T14:02:59.459Z</time></trkpt><trkpt lat="43.4228151" lon="10.9762786"><ele>496.0</ele><time>2026-04-18T14:03:00.466Z</time></trkpt><trkpt lat="43.4229763" lon="10.9762129"><ele>496.0</ele><time>2026-04-18T14:03:01.456Z</time></trkpt><trkpt lat="43.4231408" lon="10.9761261"><ele>495.33333333333337</ele><time>2026-04-18T14:03:02.453Z</time></trkpt><trkpt lat="43.4233112" lon="10.9760071"><ele>494.66666666666663</ele><time>2026-04-18T14:03:03.453Z</time></trkpt><trkpt lat="43.4234662" lon="10.9758796"><ele>494.0</ele><time>2026-04-18T14:03:04.45Z</time></trkpt><trkpt lat="43.423602" lon="10.9757689"><ele>494.0</ele><time>2026-04-18T14:03:05.444Z</time></trkpt><trkpt lat="43.4237279" lon="10.9756478"><ele>494.0</ele><time>2026-04-18T14:03:06.451Z</time></trkpt><trkpt lat="43.42388" lon="10.9755626"><ele>494.0</ele><time>2026-04-18T14:03:07.46Z</time></trkpt><trkpt lat="43.4240471" lon="10.9754815"><ele>493.66666666666663</ele><time>2026-04-18T14:03:08.452Z</time></trkpt><trkpt lat="43.4242105" lon="10.9753967"><ele>493.33333333333337</ele><time>2026-04-18T14:03:09.453Z</time></trkpt><trkpt lat="43.424357" lon="10.975321"><ele>493.0</ele><time>2026-04-18T14:03:10.446Z</time></trkpt><trkpt lat="43.4244804" lon="10.9752522"><ele>493.0</ele><time>2026-04-18T14:03:11.447Z</time></trkpt><trkpt lat="43.4245955" lon="10.9751827"><ele>493.0</ele><time>2026-04-18T14:03:12.448Z</time></trkpt><trkpt lat="43.4246925" lon="10.9750609"><ele>493.0</ele><time>2026-04-18T14:03:13.447Z</time></trkpt><trkpt lat="43.424779" lon="10.9748754"><ele>493.0</ele><time>2026-04-18T14:03:14.439Z</time></trkpt><trkpt lat="43.4248692" lon="10.9746805"><ele>493.33333333333337</ele><time>2026-04-18T14:03:15.447Z</time></trkpt><trkpt lat="43.4249519" lon="10.9744898"><ele>493.66666666666663</ele><time>2026-04-18T14:03:16.457Z</time></trkpt><trkpt lat="43.425011" lon="10.9742928"><ele>494.0</ele><time>2026-04-18T14:03:17.45Z</time></trkpt><trkpt lat="43.4250539" lon="10.9740852"><ele>495.0</ele><time>2026-04-18T14:03:18.453Z</time></trkpt><trkpt lat="43.4250731" lon="10.9738966"><ele>496.0</ele><time>2026-04-18T14:03:19.451Z</time></trkpt><trkpt lat="43.4250742" lon="10.9737265"><ele>497.0</ele><time>2026-04-18T14:03:20.451Z</time></trkpt><trkpt lat="43.4250781" lon="10.9735804"><ele>498.0</ele><time>2026-04-18T14:03:21.454Z</time></trkpt><trkpt lat="43.4251022" lon="10.9734423"><ele>498.0</ele><time>2026-04-18T14:03:22.449Z</time></trkpt><trkpt lat="43.4251844" lon="10.9733417"><ele>498.0</ele><time>2026-04-18T14:03:23.45Z</time></trkpt><trkpt lat="43.4253027" lon="10.9732868"><ele>498.0</ele><time>2026-04-18T14:03:24.449Z</time></trkpt><trkpt lat="43.4254315" lon="10.9732779"><ele>498.0</ele><time>2026-04-18T14:03:25.454Z</time></trkpt><trkpt lat="43.4255794" lon="10.9733225"><ele>500.5</ele><time>2026-04-18T14:03:26.434Z</time></trkpt><trkpt lat="43.4257144" lon="10.9733941"><ele>503.0</ele><time>2026-04-18T14:03:27.453Z</time></trkpt><trkpt lat="43.4258307" lon="10.9735048"><ele>505.5</ele><time>2026-04-18T14:03:28.456Z</time></trkpt><trkpt lat="43.425912" lon="10.9736399"><ele>508.0</ele><time>2026-04-18T14:03:29.445Z</time></trkpt><trkpt lat="43.4259954" lon="10.9737473"><ele>508.0</ele><time>2026-04-18T14:03:30.449Z</time></trkpt><trkpt lat="43.4261132" lon="10.9738147"><ele>508.0</ele><time>2026-04-18T14:03:31.437Z</time></trkpt><trkpt lat="43.4262601" lon="10.9738211"><ele>508.0</ele><time>2026-04-18T14:03:32.432Z</time></trkpt><trkpt lat="43.4264309" lon="10.9737711"><ele>508.0</ele><time>2026-04-18T14:03:33.441Z</time></trkpt><trkpt lat="43.426582" lon="10.9737063"><ele>508.6666666666667</ele><time>2026-04-18T14:03:34.445Z</time></trkpt><trkpt lat="43.4267216" lon="10.973628"><ele>509.33333333333337</ele><time>2026-04-18T14:03:35.438Z</time></trkpt><trkpt lat="43.4268591" lon="10.9735187"><ele>510.0</ele><time>2026-04-18T14:03:36.449Z</time></trkpt><trkpt lat="43.4270026" lon="10.9733814"><ele>510.33333333333337</ele><time>2026-04-18T14:03:37.443Z</time></trkpt><trkpt lat="43.4271419" lon="10.9732237"><ele>510.6666666666667</ele><time>2026-04-18T14:03:38.444Z</time></trkpt><trkpt lat="43.4272884" lon="10.97304"><ele>511.0</ele><time>2026-04-18T14:03:39.444Z</time></trkpt><trkpt lat="43.4274284" lon="10.9728497"><ele>511.33333333333337</ele><time>2026-04-18T14:03:40.446Z</time></trkpt><trkpt lat="43.4275567" lon="10.9726491"><ele>511.66666666666663</ele><time>2026-04-18T14:03:41.448Z</time></trkpt><trkpt lat="43.427682" lon="10.9724499"><ele>512.0</ele><time>2026-04-18T14:03:42.458Z</time></trkpt><trkpt lat="43.4278102" lon="10.9722417"><ele>512.25</ele><time>2026-04-18T14:03:43.45Z</time></trkpt><trkpt lat="43.4279148" lon="10.972047"><ele>512.5</ele><time>2026-04-18T14:03:44.453Z</time></trkpt><trkpt lat="43.428" lon="10.9718975"><ele>512.75</ele><time>2026-04-18T14:03:45.447Z</time></trkpt><trkpt lat="43.4280732" lon="10.9717484"><ele>513.0</ele><time>2026-04-18T14:03:46.452Z</time></trkpt><trkpt lat="43.4281142" lon="10.9715774"><ele>516.6666666666666</ele><time>2026-04-18T14:03:47.459Z</time></trkpt><trkpt lat="43.4281215" lon="10.9713663"><ele>520.3333333333333</ele><time>2026-04-18T14:03:48.435Z</time></trkpt><trkpt lat="43.4281035" lon="10.9711419"><ele>524.0</ele><time>2026-04-18T14:03:49.448Z</time></trkpt><trkpt lat="43.4280928" lon="10.9709473"><ele>524.6</ele><time>2026-04-18T14:03:50.441Z</time></trkpt><trkpt lat="43.4280879" lon="10.9707969"><ele>525.2</ele><time>2026-04-18T14:03:51.442Z</time></trkpt><trkpt lat="43.4280959" lon="10.9706692"><ele>525.8000000000001</ele><time>2026-04-18T14:03:52.438Z</time></trkpt><trkpt lat="43.4281119" lon="10.9705499"><ele>526.4</ele><time>2026-04-18T14:03:53.443Z</time></trkpt><trkpt lat="43.4281658" lon="10.9704657"><ele>527.0</ele><time>2026-04-18T14:03:54.445Z</time></trkpt><trkpt lat="43.4282841" lon="10.9703909"><ele>527.0</ele><time>2026-04-18T14:03:55.439Z</time></trkpt><trkpt lat="43.4284262" lon="10.9703508"><ele>527.0</ele><time>2026-04-18T14:03:56.449Z</time></trkpt><trkpt lat="43.4285784" lon="10.9703233"><ele>527.0</ele><time>2026-04-18T14:03:57.447Z</time></trkpt><trkpt lat="43.428728" lon="10.9703007"><ele>527.0</ele><time>2026-04-18T14:03:58.443Z</time></trkpt><trkpt lat="43.4288681" lon="10.9702775"><ele>528.0</ele><time>2026-04-18T14:03:59.435Z</time></trkpt><trkpt lat="43.4289785" lon="10.9702443"><ele>529.0</ele><time>2026-04-18T14:04:00.45Z</time></trkpt><trkpt lat="43.429096" lon="10.9701677"><ele>530.0</ele><time>2026-04-18T14:04:01.442Z</time></trkpt><trkpt lat="43.4291868" lon="10.9700569"><ele>531.0</ele><time>2026-04-18T14:04:02.443Z</time></trkpt><trkpt lat="43.4292756" lon="10.9699001"><ele>531.0</ele><time>2026-04-18T14:04:03.453Z</time></trkpt><trkpt lat="43.4293572" lon="10.9697024"><ele>531.0</ele><time>2026-04-18T14:04:04.443Z</time></trkpt><trkpt lat="43.4294432" lon="10.9695046"><ele>531.0</ele><time>2026-04-18T14:04:05.454Z</time></trkpt><trkpt lat="43.4295397" lon="10.969313"><ele>530.75</ele><time>2026-04-18T14:04:06.449Z</time></trkpt><trkpt lat="43.4296331" lon="10.9691453"><ele>530.5</ele><time>2026-04-18T14:04:07.447Z</time></trkpt><trkpt lat="43.4297165" lon="10.9689878"><ele>530.25</ele><time>2026-04-18T14:04:08.448Z</time></trkpt><trkpt lat="43.4298147" lon="10.9688414"><ele>530.0</ele><time>2026-04-18T14:04:09.436Z</time></trkpt><trkpt lat="43.4299156" lon="10.9687137"><ele>532.0</ele><time>2026-04-18T14:04:10.434Z</time></trkpt><trkpt lat="43.430015" lon="10.9686035"><ele>534.0</ele><time>2026-04-18T14:04:11.439Z</time></trkpt><trkpt lat="43.4301212" lon="10.9684968"><ele>536.0</ele><time>2026-04-18T14:04:12.445Z</time></trkpt><trkpt lat="43.4302201" lon="10.9683851"><ele>538.0</ele><time>2026-04-18T14:04:13.446Z</time></trkpt><trkpt lat="43.4303124" lon="10.9682658"><ele>538.0</ele><time>2026-04-18T14:04:14.443Z</time></trkpt><trkpt lat="43.4304018" lon="10.9681765"><ele>538.0</ele><time>2026-04-18T14:04:15.436Z</time></trkpt><trkpt lat="43.4305257" lon="10.9681178"><ele>538.0</ele><time>2026-04-18T14:04:16.439Z</time></trkpt><trkpt lat="43.4306489" lon="10.9680729"><ele>538.0</ele><time>2026-04-18T14:04:17.436Z</time></trkpt><trkpt lat="43.4307861" lon="10.9680678"><ele>541.3333333333334</ele><time>2026-04-18T14:04:18.445Z</time></trkpt><trkpt lat="43.4309345" lon="10.9681105"><ele>544.6666666666666</ele><time>2026-04-18T14:04:19.43Z</time></trkpt><trkpt lat="43.4310853" lon="10.9681843"><ele>548.0</ele><time>2026-04-18T14:04:20.431Z</time></trkpt><trkpt lat="43.4312207" lon="10.968268"><ele>548.5</ele><time>2026-04-18T14:04:21.443Z</time></trkpt><trkpt lat="43.4313528" lon="10.9683447"><ele>549.0</ele><time>2026-04-18T14:04:22.436Z</time></trkpt><trkpt lat="43.4314894" lon="10.968435"><ele>549.5</ele><time>2026-04-18T14:04:23.434Z</time></trkpt><trkpt lat="43.4316275" lon="10.9685012"><ele>550.0</ele><time>2026-04-18T14:04:24.436Z</time></trkpt><trkpt lat="43.4317519" lon="10.9685378"><ele>550.0</ele><time>2026-04-18T14:04:25.432Z</time></trkpt><trkpt lat="43.4318632" lon="10.9685626"><ele>550.0</ele><time>2026-04-18T14:04:26.436Z</time></trkpt><trkpt lat="43.4319683" lon="10.9685853"><ele>550.0</ele><time>2026-04-18T14:04:27.444Z</time></trkpt><trkpt lat="43.4320834" lon="10.9685754"><ele>550.0</ele><time>2026-04-18T14:04:28.438Z</time></trkpt><trkpt lat="43.4321772" lon="10.9685393"><ele>550.0</ele><time>2026-04-18T14:04:29.43Z</time></trkpt><trkpt lat="43.4322717" lon="10.9684455"><ele>552.5</ele><time>2026-04-18T14:04:30.446Z</time></trkpt><trkpt lat="43.4323563" lon="10.9683313"><ele>555.0</ele><time>2026-04-18T14:04:31.431Z</time></trkpt><trkpt lat="43.4324326" lon="10.9681925"><ele>557.5</ele><time>2026-04-18T14:04:32.432Z</time></trkpt><trkpt lat="43.4325054" lon="10.9680642"><ele>560.0</ele><time>2026-04-18T14:04:33.43Z</time></trkpt><trkpt lat="43.4326029" lon="10.9679648"><ele>560.0</ele><time>2026-04-18T14:04:34.43Z</time></trkpt><trkpt lat="43.4327158" lon="10.9678922"><ele>560.0</ele><time>2026-04-18T14:04:35.438Z</time></trkpt><trkpt lat="43.4328448" lon="10.9678376"><ele>560.0</ele><time>2026-04-18T14:04:36.442Z</time></trkpt><trkpt lat="43.4329957" lon="10.9677926"><ele>560.0</ele><time>2026-04-18T14:04:37.438Z</time></trkpt><trkpt lat="43.4331617" lon="10.9677074"><ele>560.3333333333333</ele><time>2026-04-18T14:04:38.434Z</time></trkpt><trkpt lat="43.4333203" lon="10.9675986"><ele>560.6666666666666</ele><time>2026-04-18T14:04:39.446Z</time></trkpt><trkpt lat="43.4334909" lon="10.9674718"><ele>561.0</ele><time>2026-04-18T14:04:40.444Z</time></trkpt><trkpt lat="43.4336644" lon="10.9673549"><ele>561.6666666666666</ele><time>2026-04-18T14:04:41.435Z</time></trkpt><trkpt lat="43.4338055" lon="10.9672386"><ele>562.3333333333333</ele><time>2026-04-18T14:04:42.437Z</time></trkpt><trkpt lat="43.4339482" lon="10.9671356"><ele>563.0</ele><time>2026-04-18T14:04:43.435Z</time></trkpt><trkpt lat="43.4340761" lon="10.9670189"><ele>563.0</ele><time>2026-04-18T14:04:44.436Z</time></trkpt><trkpt lat="43.4341956" lon="10.966899"><ele>563.0</ele><time>2026-04-18T14:04:45.433Z</time></trkpt><trkpt lat="43.4343006" lon="10.9667509"><ele>563.0</ele><time>2026-04-18T14:04:46.437Z</time></trkpt><trkpt lat="43.4343903" lon="10.9665742"><ele>563.6666666666666</ele><time>2026-04-18T14:04:47.44Z</time></trkpt><trkpt lat="43.4344676" lon="10.9663828"><ele>564.3333333333334</ele><time>2026-04-18T14:04:48.436Z</time></trkpt><trkpt lat="43.4345478" lon="10.9662035"><ele>565.0</ele><time>2026-04-18T14:04:49.43Z</time></trkpt><trkpt lat="43.4346548" lon="10.9660722"><ele>565.0</ele><time>2026-04-18T14:04:50.43Z</time></trkpt><trkpt lat="43.4347845" lon="10.9659598"><ele>565.0</ele><time>2026-04-18T14:04:51.432Z</time></trkpt><trkpt lat="43.4349073" lon="10.9658317"><ele>565.0</ele><time>2026-04-18T14:04:52.431Z</time></trkpt><trkpt lat="43.4350099" lon="10.9656648"><ele>568.6666666666667</ele><time>2026-04-18T14:04:53.435Z</time></trkpt><trkpt lat="43.43509" lon="10.9654766"><ele>572.3333333333334</ele><time>2026-04-18T14:04:54.436Z</time></trkpt><trkpt lat="43.4351568" lon="10.9652458"><ele>576.0</ele><time>2026-04-18T14:04:55.438Z</time></trkpt><trkpt lat="43.4352352" lon="10.9650587"><ele>575.3333333333334</ele><time>2026-04-18T14:04:56.442Z</time></trkpt><trkpt lat="43.4353402" lon="10.9648851"><ele>574.6666666666667</ele><time>2026-04-18T14:04:57.444Z</time></trkpt><trkpt lat="43.4354383" lon="10.9647166"><ele>574.0</ele><time>2026-04-18T14:04:58.444Z</time></trkpt><trkpt lat="43.4355483" lon="10.9645444"><ele>574.0</ele><time>2026-04-18T14:04:59.438Z</time></trkpt><trkpt lat="43.4356393" lon="10.964372"><ele>574.0</ele><time>2026-04-18T14:05:00.443Z</time></trkpt><trkpt lat="43.4357147" lon="10.9641853"><ele>574.0</ele><time>2026-04-18T14:05:01.439Z</time></trkpt><trkpt lat="43.43577" lon="10.963967"><ele>578.0</ele><time>2026-04-18T14:05:02.442Z</time></trkpt><trkpt lat="43.4358329" lon="10.9637638"><ele>582.0</ele><time>2026-04-18T14:05:03.438Z</time></trkpt><trkpt lat="43.4359386" lon="10.9635932"><ele>586.0</ele><time>2026-04-18T14:05:04.431Z</time></trkpt><trkpt lat="43.4360408" lon="10.9634372"><ele>586.25</ele><time>2026-04-18T14:05:05.442Z</time></trkpt><trkpt lat="43.4361465" lon="10.96331"><ele>586.5</ele><time>2026-04-18T14:05:06.435Z</time></trkpt><trkpt lat="43.4362544" lon="10.9631771"><ele>586.75</ele><time>2026-04-18T14:05:07.439Z</time></trkpt><trkpt lat="43.4363613" lon="10.9630848"><ele>587.0</ele><time>2026-04-18T14:05:08.444Z</time></trkpt><trkpt lat="43.4364913" lon="10.9629893"><ele>587.0</ele><time>2026-04-18T14:05:09.447Z</time></trkpt><trkpt lat="43.4365995" lon="10.9629045"><ele>587.0</ele><time>2026-04-18T14:05:10.44Z</time></trkpt><trkpt lat="43.4367025" lon="10.9627807"><ele>587.0</ele><time>2026-04-18T14:05:11.443Z</time></trkpt><trkpt lat="43.4367743" lon="10.9626148"><ele>587.0</ele><time>2026-04-18T14:05:12.441Z</time></trkpt><trkpt lat="43.436817" lon="10.9624026"><ele>586.75</ele><time>2026-04-18T14:05:13.44Z</time></trkpt><trkpt lat="43.4368544" lon="10.9621984"><ele>586.5</ele><time>2026-04-18T14:05:14.441Z</time></trkpt><trkpt lat="43.4368802" lon="10.9620198"><ele>586.25</ele><time>2026-04-18T14:05:15.44Z</time></trkpt><trkpt lat="43.436908" lon="10.9618342"><ele>586.0</ele><time>2026-04-18T14:05:16.439Z</time></trkpt><trkpt lat="43.4369499" lon="10.9616559"><ele>585.25</ele><time>2026-04-18T14:05:17.446Z</time></trkpt><trkpt lat="43.4370154" lon="10.9614874"><ele>584.5</ele><time>2026-04-18T14:05:18.44Z</time></trkpt><trkpt lat="43.4371012" lon="10.961325"><ele>583.75</ele><time>2026-04-18T14:05:19.436Z</time></trkpt><trkpt lat="43.4371986" lon="10.9611802"><ele>583.0</ele><time>2026-04-18T14:05:20.436Z</time></trkpt><trkpt lat="43.4373157" lon="10.9610648"><ele>584.5</ele><time>2026-04-18T14:05:21.433Z</time></trkpt><trkpt lat="43.4374505" lon="10.9609723"><ele>586.0</ele><time>2026-04-18T14:05:22.435Z</time></trkpt><trkpt lat="43.4375979" lon="10.9609166"><ele>587.5</ele><time>2026-04-18T14:05:23.439Z</time></trkpt><trkpt lat="43.4377347" lon="10.9608593"><ele>589.0</ele><time>2026-04-18T14:05:24.445Z</time></trkpt><trkpt lat="43.4378609" lon="10.9607916"><ele>589.5</ele><time>2026-04-18T14:05:25.442Z</time></trkpt><trkpt lat="43.4379747" lon="10.9607182"><ele>590.0</ele><time>2026-04-18T14:05:26.442Z</time></trkpt><trkpt lat="43.4380743" lon="10.9606425"><ele>590.5</ele><time>2026-04-18T14:05:27.438Z</time></trkpt><trkpt lat="43.4381766" lon="10.9605514"><ele>591.0</ele><time>2026-04-18T14:05:28.44Z</time></trkpt><trkpt lat="43.4382649" lon="10.960485"><ele>591.0</ele><time>2026-04-18T14:05:29.438Z</time></trkpt><trkpt lat="43.4383455" lon="10.96042"><ele>591.0</ele><time>2026-04-18T14:05:30.452Z</time></trkpt><trkpt lat="43.4384221" lon="10.9603612"><ele>591.0</ele><time>2026-04-18T14:05:31.443Z</time></trkpt><trkpt lat="43.4385003" lon="10.9602928"><ele>591.0</ele><time>2026-04-18T14:05:32.44Z</time></trkpt><trkpt lat="43.4385728" lon="10.9602319"><ele>591.0</ele><time>2026-04-18T14:05:33.443Z</time></trkpt><trkpt lat="43.4386354" lon="10.9601811"><ele>591.0</ele><time>2026-04-18T14:05:34.445Z</time></trkpt><trkpt lat="43.4386948" lon="10.9601313"><ele>591.0</ele><time>2026-04-18T14:05:35.442Z</time></trkpt><trkpt lat="43.4387814" lon="10.9600455"><ele>591.0</ele><time>2026-04-18T14:05:37.439Z</time></trkpt><trkpt lat="43.4388495" lon="10.9600785"><ele>591.0</ele><time>2026-04-18T14:05:39.436Z</time></trkpt><trkpt lat="43.4388971" lon="10.9601875"><ele>591.0</ele><time>2026-04-18T14:05:41.434Z</time></trkpt><trkpt lat="43.4389686" lon="10.9602347"><ele>591.0</ele><time>2026-04-18T14:05:44.441Z</time></trkpt><trkpt lat="43.439033" lon="10.9601775"><ele>591.0</ele><time>2026-04-18T14:06:17.456Z</time></trkpt><trkpt lat="43.4391347" lon="10.9601064"><ele>590.8</ele><time>2026-04-18T14:06:19.448Z</time></trkpt><trkpt lat="43.4392205" lon="10.9600535"><ele>590.6</ele><time>2026-04-18T14:06:20.448Z</time></trkpt><trkpt lat="43.4393125" lon="10.9600005"><ele>590.4</ele><time>2026-04-18T14:06:21.44Z</time></trkpt><trkpt lat="43.4394096" lon="10.9599506"><ele>590.2</ele><time>2026-04-18T14:06:22.439Z</time></trkpt><trkpt lat="43.43951" lon="10.9598893"><ele>590.0</ele><time>2026-04-18T14:06:23.445Z</time></trkpt><trkpt lat="43.4395943" lon="10.9598232"><ele>589.0</ele><time>2026-04-18T14:06:24.444Z</time></trkpt><trkpt lat="43.4396683" lon="10.9597606"><ele>588.0</ele><time>2026-04-18T14:06:25.444Z</time></trkpt><trkpt lat="43.4397474" lon="10.9596871"><ele>587.0</ele><time>2026-04-18T14:06:26.446Z</time></trkpt><trkpt lat="43.439825" lon="10.9596098"><ele>586.0</ele><time>2026-04-18T14:06:27.446Z</time></trkpt><trkpt lat="43.4398987" lon="10.9595384"><ele>585.0</ele><time>2026-04-18T14:06:28.445Z</time></trkpt><trkpt lat="43.4399771" lon="10.9594796"><ele>585.0</ele><time>2026-04-18T14:06:29.445Z</time></trkpt><trkpt lat="43.4400593" lon="10.9594332"><ele>585.0</ele><time>2026-04-18T14:06:30.45Z</time></trkpt><trkpt lat="43.4401488" lon="10.9593998"><ele>585.0</ele><time>2026-04-18T14:06:31.444Z</time></trkpt><trkpt lat="43.4402508" lon="10.959389"><ele>585.0</ele><time>2026-04-18T14:06:32.447Z</time></trkpt><trkpt lat="43.4403596" lon="10.9593792"><ele>585.0</ele><time>2026-04-18T14:06:33.453Z</time></trkpt><trkpt lat="43.4404661" lon="10.9593761"><ele>583.1666666666666</ele><time>2026-04-18T14:06:34.444Z</time></trkpt><trkpt lat="43.4405637" lon="10.959372"><ele>581.3333333333334</ele><time>2026-04-18T14:06:35.443Z</time></trkpt><trkpt lat="43.4406549" lon="10.9593594"><ele>579.5</ele><time>2026-04-18T14:06:36.444Z</time></trkpt><trkpt lat="43.4407378" lon="10.9593555"><ele>577.6666666666667</ele><time>2026-04-18T14:06:37.44Z</time></trkpt><trkpt lat="43.4408075" lon="10.959359"><ele>575.8333333333334</ele><time>2026-04-18T14:06:38.439Z</time></trkpt><trkpt lat="43.4408745" lon="10.9593759"><ele>574.0</ele><time>2026-04-18T14:06:39.435Z</time></trkpt><trkpt lat="43.4409345" lon="10.9594055"><ele>574.0</ele><time>2026-04-18T14:06:40.435Z</time></trkpt><trkpt lat="43.4409941" lon="10.959441"><ele>574.0</ele><time>2026-04-18T14:06:41.438Z</time></trkpt><trkpt lat="43.4410514" lon="10.9595044"><ele>574.0</ele><time>2026-04-18T14:06:42.441Z</time></trkpt><trkpt lat="43.441116" lon="10.9595659"><ele>574.0</ele><time>2026-04-18T14:06:43.429Z</time></trkpt><trkpt lat="43.4411798" lon="10.9596517"><ele>574.0</ele><time>2026-04-18T14:06:44.433Z</time></trkpt><trkpt lat="43.4412366" lon="10.9597287"><ele>574.0</ele><time>2026-04-18T14:06:45.434Z</time></trkpt><trkpt lat="43.4412894" lon="10.9597961"><ele>573.8333333333334</ele><time>2026-04-18T14:06:46.437Z</time></trkpt><trkpt lat="43.4413471" lon="10.9598667"><ele>573.6666666666667</ele><time>2026-04-18T14:06:47.438Z</time></trkpt><trkpt lat="43.4414082" lon="10.9599331"><ele>573.5</ele><time>2026-04-18T14:06:48.432Z</time></trkpt><trkpt lat="43.4414687" lon="10.9600015"><ele>573.3333333333334</ele><time>2026-04-18T14:06:49.438Z</time></trkpt><trkpt lat="43.4415295" lon="10.9600543"><ele>573.1666666666666</ele><time>2026-04-18T14:06:50.438Z</time></trkpt><trkpt lat="43.4415954" lon="10.9601103"><ele>573.0</ele><time>2026-04-18T14:06:51.437Z</time></trkpt><trkpt lat="43.4416627" lon="10.9601599"><ele>568.6666666666666</ele><time>2026-04-18T14:06:52.436Z</time></trkpt><trkpt lat="43.4417271" lon="10.9601944"><ele>564.3333333333334</ele><time>2026-04-18T14:06:53.437Z</time></trkpt><trkpt lat="43.4417964" lon="10.9602338"><ele>560.0</ele><time>2026-04-18T14:06:54.429Z</time></trkpt><trkpt lat="43.4418833" lon="10.9602753"><ele>555.6666666666667</ele><time>2026-04-18T14:06:55.429Z</time></trkpt><trkpt lat="43.4419731" lon="10.9603178"><ele>551.3333333333334</ele><time>2026-04-18T14:06:56.434Z</time></trkpt><trkpt lat="43.442055" lon="10.9603561"><ele>547.0</ele><time>2026-04-18T14:06:57.429Z</time></trkpt><trkpt lat="43.4421287" lon="10.9603864"><ele>546.6666666666667</ele><time>2026-04-18T14:06:58.432Z</time></trkpt><trkpt lat="43.4421947" lon="10.9603998"><ele>546.3333333333334</ele><time>2026-04-18T14:06:59.422Z</time></trkpt><trkpt lat="43.4422672" lon="10.9603918"><ele>546.0</ele><time>2026-04-18T14:07:00.427Z</time></trkpt><trkpt lat="43.442344" lon="10.9603671"><ele>545.6666666666666</ele><time>2026-04-18T14:07:01.421Z</time></trkpt><trkpt lat="43.4424224" lon="10.9603241"><ele>545.3333333333333</ele><time>2026-04-18T14:07:02.429Z</time></trkpt><trkpt lat="43.4424928" lon="10.9602703"><ele>545.0</ele><time>2026-04-18T14:07:03.43Z</time></trkpt><trkpt lat="43.4425667" lon="10.9602159"><ele>545.0</ele><time>2026-04-18T14:07:04.431Z</time></trkpt><trkpt lat="43.4426431" lon="10.9601749"><ele>545.0</ele><time>2026-04-18T14:07:05.43Z</time></trkpt><trkpt lat="43.4427241" lon="10.9601231"><ele>545.0</ele><time>2026-04-18T14:07:06.429Z</time></trkpt><trkpt lat="43.4428054" lon="10.9600796"><ele>545.0</ele><time>2026-04-18T14:07:07.431Z</time></trkpt><trkpt lat="43.4428917" lon="10.9600291"><ele>545.0</ele><time>2026-04-18T14:07:08.428Z</time></trkpt><trkpt lat="43.4429787" lon="10.9599837"><ele>545.0</ele><time>2026-04-18T14:07:09.426Z</time></trkpt><trkpt lat="43.4430668" lon="10.9599484"><ele>544.8333333333333</ele><time>2026-04-18T14:07:10.425Z</time></trkpt><trkpt lat="43.4431522" lon="10.9599156"><ele>544.6666666666666</ele><time>2026-04-18T14:07:11.43Z</time></trkpt><trkpt lat="43.4432228" lon="10.9598819"><ele>544.5</ele><time>2026-04-18T14:07:12.426Z</time></trkpt><trkpt lat="43.4432889" lon="10.9598492"><ele>544.3333333333334</ele><time>2026-04-18T14:07:13.423Z</time></trkpt><trkpt lat="43.4434014" lon="10.9597956"><ele>544.1666666666667</ele><time>2026-04-18T14:07:15.427Z</time></trkpt><trkpt lat="43.4434837" lon="10.959769"><ele>544.0</ele><time>2026-04-18T14:07:17.427Z</time></trkpt><trkpt lat="43.4435551" lon="10.9598199"><ele>544.0</ele><time>2026-04-18T14:07:19.418Z</time></trkpt><trkpt lat="43.443578" lon="10.9599463"><ele>544.0</ele><time>2026-04-18T14:07:21.424Z</time></trkpt><trkpt lat="43.4435611" lon="10.960099"><ele>544.0</ele><time>2026-04-18T14:07:23.429Z</time></trkpt><trkpt lat="43.4435382" lon="10.960237"><ele>544.0</ele><time>2026-04-18T14:07:25.433Z</time></trkpt><trkpt lat="43.4435477" lon="10.9603763"><ele>544.0</ele><time>2026-04-18T14:07:27.434Z</time></trkpt><trkpt lat="43.4435631" lon="10.9605213"><ele>541.8333333333334</ele><time>2026-04-18T14:07:29.433Z</time></trkpt><trkpt lat="43.4435883" lon="10.9606474"><ele>539.6666666666667</ele><time>2026-04-18T14:07:31.432Z</time></trkpt><trkpt lat="43.4436203" lon="10.9607729"><ele>537.5</ele><time>2026-04-18T14:07:33.437Z</time></trkpt><trkpt lat="43.4436233" lon="10.9609271"><ele>535.3333333333334</ele><time>2026-04-18T14:07:35.444Z</time></trkpt><trkpt lat="43.4435925" lon="10.9610098"><ele>533.1666666666666</ele><time>2026-04-18T14:07:36.438Z</time></trkpt><trkpt lat="43.4435564" lon="10.9610857"><ele>531.0</ele><time>2026-04-18T14:07:37.437Z</time></trkpt><trkpt lat="43.4434943" lon="10.961223"><ele>529.0</ele><time>2026-04-18T14:07:39.436Z</time></trkpt><trkpt lat="43.4434888" lon="10.9613149"><ele>527.0</ele><time>2026-04-18T14:07:40.436Z</time></trkpt><trkpt lat="43.4434882" lon="10.96142"><ele>525.0</ele><time>2026-04-18T14:07:41.436Z</time></trkpt><trkpt lat="43.44348" lon="10.9615202"><ele>523.0</ele><time>2026-04-18T14:07:42.445Z</time></trkpt><trkpt lat="43.4434731" lon="10.9616067"><ele>521.0</ele><time>2026-04-18T14:07:43.432Z</time></trkpt><trkpt lat="43.4434713" lon="10.9616938"><ele>519.0</ele><time>2026-04-18T14:07:44.434Z</time></trkpt><trkpt lat="43.4434523" lon="10.9618532"><ele>516.4</ele><time>2026-04-18T14:07:46.439Z</time></trkpt><trkpt lat="43.4434223" lon="10.9619877"><ele>513.8</ele><time>2026-04-18T14:07:48.436Z</time></trkpt><trkpt lat="43.4433974" lon="10.9621359"><ele>511.20000000000005</ele><time>2026-04-18T14:07:50.437Z</time></trkpt><trkpt lat="43.4433573" lon="10.9622727"><ele>508.6</ele><time>2026-04-18T14:07:52.44Z</time></trkpt><trkpt lat="43.4433173" lon="10.9624246"><ele>506.0</ele><time>2026-04-18T14:07:54.442Z</time></trkpt><trkpt lat="43.4432823" lon="10.9625323"><ele>502.3333333333333</ele><time>2026-04-18T14:07:56.439Z</time></trkpt><trkpt lat="43.4432387" lon="10.9626123"><ele>498.66666666666663</ele><time>2026-04-18T14:07:58.44Z</time></trkpt><trkpt lat="43.4432276" lon="10.9627052"><ele>495.0</ele><time>2026-04-18T14:08:00.433Z</time></trkpt><trkpt lat="43.4432808" lon="10.9627819"><ele>491.33333333333337</ele><time>2026-04-18T14:08:02.432Z</time></trkpt><trkpt lat="43.4433581" lon="10.9627774"><ele>487.6666666666667</ele><time>2026-04-18T14:08:04.439Z</time></trkpt><trkpt lat="43.4434481" lon="10.9627225"><ele>484.0</ele><time>2026-04-18T14:08:06.44Z</time></trkpt><trkpt lat="43.4435315" lon="10.9626603"><ele>484.00000000000006</ele><time>2026-04-18T14:08:08.438Z</time></trkpt><trkpt lat="43.4435922" lon="10.9626134"><ele>484.0</ele><time>2026-04-18T14:08:10.437Z</time></trkpt><trkpt lat="43.4436525" lon="10.9625551"><ele>484.0</ele><time>2026-04-18T14:08:12.433Z</time></trkpt><trkpt lat="43.4437232" lon="10.9624941"><ele>484.0</ele><time>2026-04-18T14:08:15.431Z</time></trkpt><trkpt lat="43.4437998" lon="10.962541"><ele>484.00000000000006</ele><time>2026-04-18T14:08:18.431Z</time></trkpt><trkpt lat="43.4438219" lon="10.9626328"><ele>484.0</ele><time>2026-04-18T14:08:20.435Z</time></trkpt><trkpt lat="43.4438355" lon="10.962781"><ele>482.0</ele><time>2026-04-18T14:08:22.432Z</time></trkpt><trkpt lat="43.4438526" lon="10.9629311"><ele>480.0</ele><time>2026-04-18T14:08:24.439Z</time></trkpt><trkpt lat="43.4438673" lon="10.9630846"><ele>478.0</ele><time>2026-04-18T14:08:26.441Z</time></trkpt><trkpt lat="43.4438868" lon="10.9632353"><ele>476.0</ele><time>2026-04-18T14:08:28.435Z</time></trkpt><trkpt lat="43.443905" lon="10.9633266"><ele>474.0</ele><time>2026-04-18T14:08:29.437Z</time></trkpt><trkpt lat="43.443922" lon="10.9634289"><ele>472.79999999999995</ele><time>2026-04-18T14:08:30.449Z</time></trkpt><trkpt lat="43.443966" lon="10.9635769"><ele>471.59999999999997</ele><time>2026-04-18T14:08:32.447Z</time></trkpt><trkpt lat="43.4440164" lon="10.9637261"><ele>470.4</ele><time>2026-04-18T14:08:34.442Z</time></trkpt><trkpt lat="43.444068" lon="10.963858"><ele>469.2</ele><time>2026-04-18T14:08:36.445Z</time></trkpt><trkpt lat="43.4441153" lon="10.9639431"><ele>468.0</ele><time>2026-04-18T14:08:38.444Z</time></trkpt><trkpt lat="43.444066" lon="10.9640194"><ele>468.0</ele><time>2026-04-18T14:08:51.442Z</time></trkpt><trkpt lat="43.4439553" lon="10.9640435"><ele>467.99999999999994</ele><time>2026-04-18T14:08:53.448Z</time></trkpt><trkpt lat="43.4438384" lon="10.9640604"><ele>467.99999999999994</ele><time>2026-04-18T14:08:55.446Z</time></trkpt><trkpt lat="43.4437307" lon="10.9640766"><ele>468.0</ele><time>2026-04-18T14:08:57.446Z</time></trkpt><trkpt lat="43.4436694" lon="10.9641121"><ele>468.0</ele><time>2026-04-18T14:08:58.442Z</time></trkpt><trkpt lat="43.443606" lon="10.9641595"><ele>467.6666666666667</ele><time>2026-04-18T14:08:59.44Z</time></trkpt><trkpt lat="43.4435508" lon="10.9642093"><ele>467.33333333333337</ele><time>2026-04-18T14:09:00.446Z</time></trkpt><trkpt lat="43.4434673" lon="10.9642781"><ele>467.0</ele><time>2026-04-18T14:09:02.435Z</time></trkpt><trkpt lat="43.4433394" lon="10.9642848"><ele>466.6666666666667</ele><time>2026-04-18T14:09:04.429Z</time></trkpt><trkpt lat="43.443272" lon="10.9642537"><ele>466.33333333333337</ele><time>2026-04-18T14:09:05.434Z</time></trkpt><trkpt lat="43.4431941" lon="10.9642181"><ele>466.0</ele><time>2026-04-18T14:09:06.437Z</time></trkpt><trkpt lat="43.443113" lon="10.9641914"><ele>466.00000000000006</ele><time>2026-04-18T14:09:07.434Z</time></trkpt><trkpt lat="43.4430369" lon="10.9641662"><ele>466.0</ele><time>2026-04-18T14:09:08.43Z</time></trkpt><trkpt lat="43.4429605" lon="10.9641486"><ele>466.0</ele><time>2026-04-18T14:09:09.429Z</time></trkpt><trkpt lat="43.4428919" lon="10.9641339"><ele>466.0</ele><time>2026-04-18T14:09:10.424Z</time></trkpt><trkpt lat="43.4427843" lon="10.9641323"><ele>466.00000000000006</ele><time>2026-04-18T14:09:12.423Z</time></trkpt><trkpt lat="43.4427036" lon="10.9642178"><ele>466.0</ele><time>2026-04-18T14:09:14.418Z</time></trkpt><trkpt lat="43.4427143" lon="10.9643856"><ele>465.6666666666667</ele><time>2026-04-18T14:09:16.425Z</time></trkpt><trkpt lat="43.4427338" lon="10.9644997"><ele>465.33333333333337</ele><time>2026-04-18T14:09:17.433Z</time></trkpt><trkpt lat="43.4427376" lon="10.9646019"><ele>465.0</ele><time>2026-04-18T14:09:18.427Z</time></trkpt><trkpt lat="43.4427146" lon="10.964716"><ele>464.66666666666663</ele><time>2026-04-18T14:09:19.43Z</time></trkpt><trkpt lat="43.4426871" lon="10.9648266"><ele>464.3333333333333</ele><time>2026-04-18T14:09:20.436Z</time></trkpt><trkpt lat="43.4426588" lon="10.9649261"><ele>464.0</ele><time>2026-04-18T14:09:21.432Z</time></trkpt><trkpt lat="43.442606" lon="10.9650476"><ele>464.0</ele><time>2026-04-18T14:09:23.438Z</time></trkpt><trkpt lat="43.4425047" lon="10.9651416"><ele>464.0</ele><time>2026-04-18T14:09:25.434Z</time></trkpt><trkpt lat="43.4424274" lon="10.9651912"><ele>464.0</ele><time>2026-04-18T14:09:26.438Z</time></trkpt><trkpt lat="43.4423514" lon="10.9652234"><ele>464.0</ele><time>2026-04-18T14:09:27.438Z</time></trkpt><trkpt lat="43.4422838" lon="10.9652658"><ele>464.0</ele><time>2026-04-18T14:09:28.429Z</time></trkpt><trkpt lat="43.4422217" lon="10.9654137"><ele>463.99999999999994</ele><time>2026-04-18T14:09:30.431Z</time></trkpt><trkpt lat="43.4422367" lon="10.9654985"><ele>464.0</ele><time>2026-04-18T14:09:31.424Z</time></trkpt><trkpt lat="43.4422688" lon="10.9655751"><ele>464.0</ele><time>2026-04-18T14:09:32.432Z</time></trkpt><trkpt lat="43.4423162" lon="10.9656477"><ele>464.0</ele><time>2026-04-18T14:09:33.429Z</time></trkpt><trkpt lat="43.4423272" lon="10.9657753"><ele>463.99999999999994</ele><time>2026-04-18T14:09:35.437Z</time></trkpt><trkpt lat="43.442255" lon="10.9658702"><ele>464.0</ele><time>2026-04-18T14:09:37.437Z</time></trkpt><trkpt lat="43.4421383" lon="10.9659289"><ele>465.8571428571429</ele><time>2026-04-18T14:09:39.438Z</time></trkpt><trkpt lat="43.4420716" lon="10.9659582"><ele>467.7142857142857</ele><time>2026-04-18T14:09:40.434Z</time></trkpt><trkpt lat="43.4419996" lon="10.9659875"><ele>469.57142857142856</ele><time>2026-04-18T14:09:41.432Z</time></trkpt><trkpt lat="43.4419215" lon="10.9660128"><ele>471.42857142857144</ele><time>2026-04-18T14:09:42.435Z</time></trkpt><trkpt lat="43.4418597" lon="10.9660386"><ele>473.2857142857142</ele><time>2026-04-18T14:09:43.441Z</time></trkpt><trkpt lat="43.4417978" lon="10.9660973"><ele>475.1428571428571</ele><time>2026-04-18T14:09:44.441Z</time></trkpt><trkpt lat="43.4417481" lon="10.9661888"><ele>477.0</ele><time>2026-04-18T14:09:45.431Z</time></trkpt><trkpt lat="43.4417272" lon="10.9662787"><ele>477.0</ele><time>2026-04-18T14:09:46.439Z</time></trkpt><trkpt lat="43.4417287" lon="10.9663682"><ele>477.00000000000006</ele><time>2026-04-18T14:09:47.441Z</time></trkpt><trkpt lat="43.4417718" lon="10.9665483"><ele>477.00000000000006</ele><time>2026-04-18T14:09:49.437Z</time></trkpt><trkpt lat="43.4418195" lon="10.9666701"><ele>477.0</ele><time>2026-04-18T14:09:50.445Z</time></trkpt><trkpt lat="43.4418712" lon="10.9667783"><ele>477.0</ele><time>2026-04-18T14:09:51.443Z</time></trkpt><trkpt lat="43.4419169" lon="10.9668802"><ele>476.8333333333333</ele><time>2026-04-18T14:09:52.444Z</time></trkpt><trkpt lat="43.4419625" lon="10.966975"><ele>476.66666666666663</ele><time>2026-04-18T14:09:53.444Z</time></trkpt><trkpt lat="43.4419953" lon="10.9670743"><ele>476.5</ele><time>2026-04-18T14:09:54.441Z</time></trkpt><trkpt lat="43.4420323" lon="10.9671788"><ele>476.3333333333333</ele><time>2026-04-18T14:09:55.444Z</time></trkpt><trkpt lat="43.4420797" lon="10.9672826"><ele>476.16666666666663</ele><time>2026-04-18T14:09:56.44Z</time></trkpt><trkpt lat="43.4421286" lon="10.9673902"><ele>476.0</ele><time>2026-04-18T14:09:57.444Z</time></trkpt><trkpt lat="43.442176" lon="10.9674957"><ele>473.8571428571429</ele><time>2026-04-18T14:09:58.437Z</time></trkpt><trkpt lat="43.4422182" lon="10.9675793"><ele>471.7142857142857</ele><time>2026-04-18T14:09:59.436Z</time></trkpt><trkpt lat="43.4422654" lon="10.9676466"><ele>469.57142857142856</ele><time>2026-04-18T14:10:00.445Z</time></trkpt><trkpt lat="43.4423154" lon="10.9677221"><ele>467.42857142857144</ele><time>2026-04-18T14:10:01.44Z</time></trkpt><trkpt lat="43.4423633" lon="10.9678063"><ele>465.28571428571433</ele><time>2026-04-18T14:10:02.443Z</time></trkpt><trkpt lat="43.4424108" lon="10.9678835"><ele>463.14285714285717</ele><time>2026-04-18T14:10:03.437Z</time></trkpt><trkpt lat="43.4424551" lon="10.967968"><ele>461.0</ele><time>2026-04-18T14:10:04.441Z</time></trkpt><trkpt lat="43.4425065" lon="10.968055"><ele>460.99999999999994</ele><time>2026-04-18T14:10:05.439Z</time></trkpt><trkpt lat="43.4425486" lon="10.9681492"><ele>461.0</ele><time>2026-04-18T14:10:06.44Z</time></trkpt><trkpt lat="43.4425809" lon="10.9682428"><ele>461.0</ele><time>2026-04-18T14:10:07.44Z</time></trkpt><trkpt lat="43.4426207" lon="10.9683266"><ele>461.0</ele><time>2026-04-18T14:10:08.439Z</time></trkpt><trkpt lat="43.4426608" lon="10.9684126"><ele>460.99999999999994</ele><time>2026-04-18T14:10:09.44Z</time></trkpt><trkpt lat="43.4426876" lon="10.9685081"><ele>461.0</ele><time>2026-04-18T14:10:10.439Z</time></trkpt><trkpt lat="43.4426851" lon="10.9686208"><ele>459.8333333333333</ele><time>2026-04-18T14:10:11.435Z</time></trkpt><trkpt lat="43.442682" lon="10.9687483"><ele>458.66666666666663</ele><time>2026-04-18T14:10:12.435Z</time></trkpt><trkpt lat="43.4426744" lon="10.9688705"><ele>457.5</ele><time>2026-04-18T14:10:13.44Z</time></trkpt><trkpt lat="43.4426651" lon="10.9689788"><ele>456.33333333333337</ele><time>2026-04-18T14:10:14.444Z</time></trkpt><trkpt lat="43.4426511" lon="10.969079"><ele>455.1666666666667</ele><time>2026-04-18T14:10:15.439Z</time></trkpt><trkpt lat="43.4426544" lon="10.9691831"><ele>454.0</ele><time>2026-04-18T14:10:16.444Z</time></trkpt><trkpt lat="43.442658" lon="10.9692949"><ele>453.2</ele><time>2026-04-18T14:10:17.449Z</time></trkpt><trkpt lat="43.4426553" lon="10.9694133"><ele>452.4</ele><time>2026-04-18T14:10:18.439Z</time></trkpt><trkpt lat="43.4426624" lon="10.9695558"><ele>451.6</ele><time>2026-04-18T14:10:19.443Z</time></trkpt><trkpt lat="43.4426994" lon="10.9697022"><ele>450.8</ele><time>2026-04-18T14:10:20.446Z</time></trkpt><trkpt lat="43.4427419" lon="10.9698394"><ele>450.0</ele><time>2026-04-18T14:10:21.445Z</time></trkpt><trkpt lat="43.4427753" lon="10.9699743"><ele>448.5</ele><time>2026-04-18T14:10:22.443Z</time></trkpt><trkpt lat="43.4427976" lon="10.9700978"><ele>447.0</ele><time>2026-04-18T14:10:23.444Z</time></trkpt><trkpt lat="43.4428171" lon="10.970208"><ele>445.5</ele><time>2026-04-18T14:10:24.44Z</time></trkpt><trkpt lat="43.4428451" lon="10.9703014"><ele>444.0</ele><time>2026-04-18T14:10:25.448Z</time></trkpt><trkpt lat="43.4428738" lon="10.9703889"><ele>442.5</ele><time>2026-04-18T14:10:26.445Z</time></trkpt><trkpt lat="43.4429055" lon="10.9704818"><ele>441.0</ele><time>2026-04-18T14:10:27.448Z</time></trkpt><trkpt lat="43.4429285" lon="10.970585"><ele>441.0</ele><time>2026-04-18T14:10:28.449Z</time></trkpt><trkpt lat="43.4429473" lon="10.9706828"><ele>441.0</ele><time>2026-04-18T14:10:29.448Z</time></trkpt><trkpt lat="43.442979" lon="10.9708284"><ele>441.0</ele><time>2026-04-18T14:10:31.44Z</time></trkpt><trkpt lat="43.4430669" lon="10.9709264"><ele>441.0</ele><time>2026-04-18T14:10:33.442Z</time></trkpt><trkpt lat="43.4431403" lon="10.9709687"><ele>441.0</ele><time>2026-04-18T14:10:34.443Z</time></trkpt><trkpt lat="43.4432049" lon="10.970994"><ele>441.0</ele><time>2026-04-18T14:10:35.436Z</time></trkpt><trkpt lat="43.4432703" lon="10.9710133"><ele>438.20000000000005</ele><time>2026-04-18T14:10:36.439Z</time></trkpt><trkpt lat="43.443385" lon="10.9710273"><ele>435.40000000000003</ele><time>2026-04-18T14:10:38.444Z</time></trkpt><trkpt lat="43.4434582" lon="10.9710371"><ele>432.6</ele><time>2026-04-18T14:10:39.438Z</time></trkpt><trkpt lat="43.4435554" lon="10.9710931"><ele>429.8</ele><time>2026-04-18T14:10:41.442Z</time></trkpt><trkpt lat="43.4436069" lon="10.9712002"><ele>427.0</ele><time>2026-04-18T14:10:43.441Z</time></trkpt><trkpt lat="43.4436212" lon="10.9712956"><ele>427.0</ele><time>2026-04-18T14:10:44.444Z</time></trkpt><trkpt lat="43.4436336" lon="10.9714366"><ele>427.0</ele><time>2026-04-18T14:10:45.441Z</time></trkpt><trkpt lat="43.443658" lon="10.9715932"><ele>427.0</ele><time>2026-04-18T14:10:46.44Z</time></trkpt><trkpt lat="43.4436763" lon="10.9717672"><ele>427.0</ele><time>2026-04-18T14:10:47.45Z</time></trkpt><trkpt lat="43.4436936" lon="10.9719461"><ele>426.75</ele><time>2026-04-18T14:10:48.449Z</time></trkpt><trkpt lat="43.4437064" lon="10.9721121"><ele>426.5</ele><time>2026-04-18T14:10:49.447Z</time></trkpt><trkpt lat="43.4437148" lon="10.9722699"><ele>426.25</ele><time>2026-04-18T14:10:50.439Z</time></trkpt><trkpt lat="43.4437283" lon="10.9724418"><ele>426.0</ele><time>2026-04-18T14:10:51.438Z</time></trkpt><trkpt lat="43.4437485" lon="10.9726198"><ele>426.0</ele><time>2026-04-18T14:10:52.444Z</time></trkpt><trkpt lat="43.4437752" lon="10.9727793"><ele>426.0</ele><time>2026-04-18T14:10:53.435Z</time></trkpt><trkpt lat="43.4437897" lon="10.9729218"><ele>426.0</ele><time>2026-04-18T14:10:54.437Z</time></trkpt><trkpt lat="43.4438102" lon="10.9730406"><ele>426.0</ele><time>2026-04-18T14:10:55.439Z</time></trkpt><trkpt lat="43.443821" lon="10.9731458"><ele>426.0</ele><time>2026-04-18T14:10:56.434Z</time></trkpt><trkpt lat="43.4438276" lon="10.9732541"><ele>427.6</ele><time>2026-04-18T14:10:57.438Z</time></trkpt><trkpt lat="43.4438083" lon="10.9733573"><ele>429.20000000000005</ele><time>2026-04-18T14:10:58.44Z</time></trkpt><trkpt lat="43.4437688" lon="10.9734551"><ele>430.79999999999995</ele><time>2026-04-18T14:10:59.434Z</time></trkpt><trkpt lat="43.4437088" lon="10.9735463"><ele>432.4</ele><time>2026-04-18T14:11:00.447Z</time></trkpt><trkpt lat="43.4436322" lon="10.9736325"><ele>434.0</ele><time>2026-04-18T14:11:01.442Z</time></trkpt><trkpt lat="43.4435432" lon="10.9737431"><ele>434.0</ele><time>2026-04-18T14:11:02.445Z</time></trkpt><trkpt lat="43.4434435" lon="10.9738665"><ele>434.0</ele><time>2026-04-18T14:11:03.441Z</time></trkpt><trkpt lat="43.4433597" lon="10.9739755"><ele>434.0</ele><time>2026-04-18T14:11:04.442Z</time></trkpt><trkpt lat="43.4432917" lon="10.9740748"><ele>434.0</ele><time>2026-04-18T14:11:05.443Z</time></trkpt><trkpt lat="43.4432316" lon="10.9741665"><ele>434.0</ele><time>2026-04-18T14:11:06.439Z</time></trkpt><trkpt lat="43.4431818" lon="10.9742682"><ele>434.2857142857143</ele><time>2026-04-18T14:11:07.439Z</time></trkpt><trkpt lat="43.4431437" lon="10.9743656"><ele>434.57142857142856</ele><time>2026-04-18T14:11:08.436Z</time></trkpt><trkpt lat="43.4431202" lon="10.974461"><ele>434.8571428571429</ele><time>2026-04-18T14:11:09.435Z</time></trkpt><trkpt lat="43.4431144" lon="10.974562"><ele>435.1428571428571</ele><time>2026-04-18T14:11:10.433Z</time></trkpt><trkpt lat="43.4431267" lon="10.9746604"><ele>435.42857142857144</ele><time>2026-04-18T14:11:11.438Z</time></trkpt><trkpt lat="43.4431533" lon="10.9747398"><ele>435.7142857142857</ele><time>2026-04-18T14:11:12.436Z</time></trkpt><trkpt lat="43.4432053" lon="10.974833"><ele>436.0</ele><time>2026-04-18T14:11:13.433Z</time></trkpt><trkpt lat="43.4432708" lon="10.9749263"><ele>436.00000000000006</ele><time>2026-04-18T14:11:14.444Z</time></trkpt><trkpt lat="43.4433564" lon="10.9750205"><ele>436.0</ele><time>2026-04-18T14:11:15.436Z</time></trkpt><trkpt lat="43.4434353" lon="10.975105"><ele>436.0</ele><time>2026-04-18T14:11:16.441Z</time></trkpt><trkpt lat="43.4434972" lon="10.9751856"><ele>436.0</ele><time>2026-04-18T14:11:17.442Z</time></trkpt><trkpt lat="43.4435551" lon="10.9752445"><ele>436.00000000000006</ele><time>2026-04-18T14:11:18.44Z</time></trkpt><trkpt lat="43.4436132" lon="10.975308"><ele>436.0</ele><time>2026-04-18T14:11:19.439Z</time></trkpt><trkpt lat="43.4436677" lon="10.9753917"><ele>436.00000000000006</ele><time>2026-04-18T14:11:20.433Z</time></trkpt><trkpt lat="43.4437073" lon="10.9754971"><ele>436.0</ele><time>2026-04-18T14:11:21.445Z</time></trkpt><trkpt lat="43.4437189" lon="10.9756244"><ele>436.0</ele><time>2026-04-18T14:11:22.443Z</time></trkpt><trkpt lat="43.4437223" lon="10.9757483"><ele>436.0</ele><time>2026-04-18T14:11:23.441Z</time></trkpt><trkpt lat="43.4437092" lon="10.9758563"><ele>436.00000000000006</ele><time>2026-04-18T14:11:24.434Z</time></trkpt><trkpt lat="43.4436808" lon="10.9759641"><ele>436.0</ele><time>2026-04-18T14:11:25.438Z</time></trkpt><trkpt lat="43.4436359" lon="10.9760721"><ele>435.8</ele><time>2026-04-18T14:11:26.439Z</time></trkpt><trkpt lat="43.4435716" lon="10.9761853"><ele>435.6</ele><time>2026-04-18T14:11:27.444Z</time></trkpt><trkpt lat="43.44352" lon="10.9763012"><ele>435.4</ele><time>2026-04-18T14:11:28.442Z</time></trkpt><trkpt lat="43.4434754" lon="10.9763965"><ele>435.2</ele><time>2026-04-18T14:11:29.445Z</time></trkpt><trkpt lat="43.4434403" lon="10.9764933"><ele>435.0</ele><time>2026-04-18T14:11:30.444Z</time></trkpt><trkpt lat="43.4434294" lon="10.9766563"><ele>434.2</ele><time>2026-04-18T14:11:32.432Z</time></trkpt><trkpt lat="43.4434509" lon="10.9768205"><ele>433.4</ele><time>2026-04-18T14:11:34.439Z</time></trkpt><trkpt lat="43.4434716" lon="10.9769269"><ele>432.6</ele><time>2026-04-18T14:11:35.438Z</time></trkpt><trkpt lat="43.4435126" lon="10.9770407"><ele>431.8</ele><time>2026-04-18T14:11:36.438Z</time></trkpt><trkpt lat="43.4435571" lon="10.9771623"><ele>431.0</ele><time>2026-04-18T14:11:37.437Z</time></trkpt><trkpt lat="43.4436132" lon="10.9772857"><ele>431.0</ele><time>2026-04-18T14:11:38.434Z</time></trkpt><trkpt lat="43.4436749" lon="10.9774085"><ele>431.0</ele><time>2026-04-18T14:11:39.439Z</time></trkpt><trkpt lat="43.4437246" lon="10.9775395"><ele>431.0</ele><time>2026-04-18T14:11:40.437Z</time></trkpt><trkpt lat="43.4437575" lon="10.977668"><ele>431.0</ele><time>2026-04-18T14:11:41.443Z</time></trkpt><trkpt lat="43.4437875" lon="10.9778025"><ele>431.0</ele><time>2026-04-18T14:11:42.442Z</time></trkpt><trkpt lat="43.4438222" lon="10.9779476"><ele>428.8</ele><time>2026-04-18T14:11:43.441Z</time></trkpt><trkpt lat="43.4438487" lon="10.9780693"><ele>426.6</ele><time>2026-04-18T14:11:44.439Z</time></trkpt><trkpt lat="43.4438743" lon="10.9781657"><ele>424.4</ele><time>2026-04-18T14:11:45.444Z</time></trkpt><trkpt lat="43.4439263" lon="10.9783258"><ele>422.2</ele><time>2026-04-18T14:11:47.447Z</time></trkpt><trkpt lat="43.4439615" lon="10.9784196"><ele>420.0</ele><time>2026-04-18T14:11:48.444Z</time></trkpt><trkpt lat="43.4440108" lon="10.9785111"><ele>419.0</ele><time>2026-04-18T14:11:49.444Z</time></trkpt><trkpt lat="43.4440509" lon="10.9785934"><ele>418.0</ele><time>2026-04-18T14:11:50.444Z</time></trkpt><trkpt lat="43.4440989" lon="10.9786604"><ele>417.0</ele><time>2026-04-18T14:11:51.438Z</time></trkpt><trkpt lat="43.4441665" lon="10.9787263"><ele>416.0</ele><time>2026-04-18T14:11:52.433Z</time></trkpt><trkpt lat="43.4442322" lon="10.9787858"><ele>415.0</ele><time>2026-04-18T14:11:53.436Z</time></trkpt><trkpt lat="43.4442923" lon="10.9788345"><ele>414.0</ele><time>2026-04-18T14:11:54.438Z</time></trkpt><trkpt lat="43.4444107" lon="10.9789233"><ele>414.0</ele><time>2026-04-18T14:11:56.436Z</time></trkpt><trkpt lat="43.444488" lon="10.9789428"><ele>414.0</ele><time>2026-04-18T14:11:57.431Z</time></trkpt><trkpt lat="43.4445567" lon="10.9789484"><ele>414.0</ele><time>2026-04-18T14:11:58.438Z</time></trkpt><trkpt lat="43.4446235" lon="10.9789621"><ele>414.0</ele><time>2026-04-18T14:11:59.434Z</time></trkpt><trkpt lat="43.444681" lon="10.979005"><ele>414.0</ele><time>2026-04-18T14:12:00.44Z</time></trkpt><trkpt lat="43.4447505" lon="10.9790808"><ele>414.0</ele><time>2026-04-18T14:12:01.432Z</time></trkpt><trkpt lat="43.4448135" lon="10.9791826"><ele>412.6</ele><time>2026-04-18T14:12:02.436Z</time></trkpt><trkpt lat="43.444875" lon="10.9793023"><ele>411.2</ele><time>2026-04-18T14:12:03.436Z</time></trkpt><trkpt lat="43.4449216" lon="10.9794001"><ele>409.8</ele><time>2026-04-18T14:12:04.436Z</time></trkpt><trkpt lat="43.4449646" lon="10.9794915"><ele>408.40000000000003</ele><time>2026-04-18T14:12:05.438Z</time></trkpt><trkpt lat="43.4450085" lon="10.9796413"><ele>407.0</ele><time>2026-04-18T14:12:07.443Z</time></trkpt><trkpt lat="43.4450565" lon="10.979763"><ele>406.99999999999994</ele><time>2026-04-18T14:12:09.437Z</time></trkpt><trkpt lat="43.445158" lon="10.9798072"><ele>407.0</ele><time>2026-04-18T14:12:11.444Z</time></trkpt><trkpt lat="43.4452288" lon="10.9797816"><ele>407.0</ele><time>2026-04-18T14:12:12.438Z</time></trkpt><trkpt lat="43.4452989" lon="10.9797475"><ele>407.0</ele><time>2026-04-18T14:12:13.441Z</time></trkpt><trkpt lat="43.4453816" lon="10.9797134"><ele>406.99999999999994</ele><time>2026-04-18T14:12:14.437Z</time></trkpt><trkpt lat="43.4454851" lon="10.9797131"><ele>407.0</ele><time>2026-04-18T14:12:15.437Z</time></trkpt><trkpt lat="43.4455896" lon="10.9797446"><ele>406.20000000000005</ele><time>2026-04-18T14:12:16.436Z</time></trkpt><trkpt lat="43.4456863" lon="10.9797709"><ele>405.4</ele><time>2026-04-18T14:12:17.436Z</time></trkpt><trkpt lat="43.4457897" lon="10.979806"><ele>404.6</ele><time>2026-04-18T14:12:18.426Z</time></trkpt><trkpt lat="43.4458902" lon="10.9798624"><ele>403.79999999999995</ele><time>2026-04-18T14:12:19.42Z</time></trkpt><trkpt lat="43.4459816" lon="10.9799253"><ele>403.0</ele><time>2026-04-18T14:12:20.425Z</time></trkpt><trkpt lat="43.446059" lon="10.9799791"><ele>402.33333333333337</ele><time>2026-04-18T14:12:21.427Z</time></trkpt><trkpt lat="43.4461357" lon="10.9800207"><ele>401.6666666666667</ele><time>2026-04-18T14:12:22.435Z</time></trkpt><trkpt lat="43.4462144" lon="10.9800334"><ele>401.0</ele><time>2026-04-18T14:12:23.434Z</time></trkpt><trkpt lat="43.4462971" lon="10.9800494"><ele>400.33333333333337</ele><time>2026-04-18T14:12:24.434Z</time></trkpt><trkpt lat="43.4463835" lon="10.9800593"><ele>399.6666666666667</ele><time>2026-04-18T14:12:25.435Z</time></trkpt><trkpt lat="43.4464595" lon="10.9800552"><ele>399.0</ele><time>2026-04-18T14:12:26.433Z</time></trkpt><trkpt lat="43.4465315" lon="10.980027"><ele>397.79999999999995</ele><time>2026-04-18T14:12:27.436Z</time></trkpt><trkpt lat="43.4465978" lon="10.9799856"><ele>396.59999999999997</ele><time>2026-04-18T14:12:28.435Z</time></trkpt><trkpt lat="43.4466869" lon="10.979941"><ele>395.4</ele><time>2026-04-18T14:12:29.437Z</time></trkpt><trkpt lat="43.4467803" lon="10.9798858"><ele>394.2</ele><time>2026-04-18T14:12:30.437Z</time></trkpt><trkpt lat="43.4468724" lon="10.9798137"><ele>393.0</ele><time>2026-04-18T14:12:31.434Z</time></trkpt><trkpt lat="43.4469475" lon="10.9797341"><ele>393.0</ele><time>2026-04-18T14:12:32.433Z</time></trkpt><trkpt lat="43.4470187" lon="10.9796588"><ele>393.0</ele><time>2026-04-18T14:12:33.432Z</time></trkpt><trkpt lat="43.4471044" lon="10.9795923"><ele>393.0</ele><time>2026-04-18T14:12:34.436Z</time></trkpt><trkpt lat="43.4472075" lon="10.9795208"><ele>393.0</ele><time>2026-04-18T14:12:35.434Z</time></trkpt><trkpt lat="43.4473117" lon="10.9794537"><ele>393.0</ele><time>2026-04-18T14:12:36.438Z</time></trkpt><trkpt lat="43.4474106" lon="10.9794076"><ele>392.8333333333333</ele><time>2026-04-18T14:12:37.436Z</time></trkpt><trkpt lat="43.4474987" lon="10.9793539"><ele>392.66666666666663</ele><time>2026-04-18T14:12:38.436Z</time></trkpt><trkpt lat="43.4475731" lon="10.9793117"><ele>392.5</ele><time>2026-04-18T14:12:39.436Z</time></trkpt><trkpt lat="43.4476397" lon="10.9792639"><ele>392.3333333333333</ele><time>2026-04-18T14:12:40.438Z</time></trkpt><trkpt lat="43.4477043" lon="10.9792082"><ele>392.16666666666663</ele><time>2026-04-18T14:12:41.436Z</time></trkpt><trkpt lat="43.4477695" lon="10.9791585"><ele>392.0</ele><time>2026-04-18T14:12:42.438Z</time></trkpt><trkpt lat="43.4478537" lon="10.9791199"><ele>392.0</ele><time>2026-04-18T14:12:43.437Z</time></trkpt><trkpt lat="43.4479504" lon="10.979092"><ele>392.0</ele><time>2026-04-18T14:12:44.432Z</time></trkpt><trkpt lat="43.4480575" lon="10.9790685"><ele>392.0</ele><time>2026-04-18T14:12:45.439Z</time></trkpt><trkpt lat="43.4481564" lon="10.9790429"><ele>392.0</ele><time>2026-04-18T14:12:46.439Z</time></trkpt><trkpt lat="43.4482489" lon="10.979016"><ele>392.0</ele><time>2026-04-18T14:12:47.44Z</time></trkpt><trkpt lat="43.4483452" lon="10.9789872"><ele>393.99999999999994</ele><time>2026-04-18T14:12:48.443Z</time></trkpt><trkpt lat="43.4484449" lon="10.9789674"><ele>396.0</ele><time>2026-04-18T14:12:49.447Z</time></trkpt><trkpt lat="43.4485441" lon="10.9789555"><ele>398.0</ele><time>2026-04-18T14:12:50.447Z</time></trkpt><trkpt lat="43.4486323" lon="10.9789494"><ele>400.0</ele><time>2026-04-18T14:12:51.443Z</time></trkpt><trkpt lat="43.4487054" lon="10.9789389"><ele>401.99999999999994</ele><time>2026-04-18T14:12:52.45Z</time></trkpt><trkpt lat="43.4487805" lon="10.9789217"><ele>404.0</ele><time>2026-04-18T14:12:53.447Z</time></trkpt><trkpt lat="43.4488586" lon="10.9789033"><ele>404.2</ele><time>2026-04-18T14:12:54.436Z</time></trkpt><trkpt lat="43.4489364" lon="10.9788807"><ele>404.4</ele><time>2026-04-18T14:12:55.441Z</time></trkpt><trkpt lat="43.4490263" lon="10.9788399"><ele>404.6</ele><time>2026-04-18T14:12:56.444Z</time></trkpt><trkpt lat="43.4491251" lon="10.9787742"><ele>404.8</ele><time>2026-04-18T14:12:57.443Z</time></trkpt><trkpt lat="43.4492219" lon="10.9787058"><ele>405.0</ele><time>2026-04-18T14:12:58.436Z</time></trkpt><trkpt lat="43.4493137" lon="10.9786329"><ele>405.0</ele><time>2026-04-18T14:12:59.44Z</time></trkpt><trkpt lat="43.4494063" lon="10.978552"><ele>405.0</ele><time>2026-04-18T14:13:00.444Z</time></trkpt><trkpt lat="43.4494988" lon="10.9784832"><ele>405.0</ele><time>2026-04-18T14:13:01.438Z</time></trkpt><trkpt lat="43.4495966" lon="10.9784054"><ele>405.0</ele><time>2026-04-18T14:13:02.439Z</time></trkpt><trkpt lat="43.4496935" lon="10.9783243"><ele>405.0</ele><time>2026-04-18T14:13:03.449Z</time></trkpt><trkpt lat="43.4497921" lon="10.9782305"><ele>406.5</ele><time>2026-04-18T14:13:04.441Z</time></trkpt><trkpt lat="43.4499032" lon="10.9781425"><ele>408.0</ele><time>2026-04-18T14:13:05.441Z</time></trkpt><trkpt lat="43.4500207" lon="10.9780612"><ele>409.5</ele><time>2026-04-18T14:13:06.444Z</time></trkpt><trkpt lat="43.4501267" lon="10.9779766"><ele>411.0</ele><time>2026-04-18T14:13:07.442Z</time></trkpt><trkpt lat="43.4502371" lon="10.9778892"><ele>411.0</ele><time>2026-04-18T14:13:08.441Z</time></trkpt><trkpt lat="43.4503349" lon="10.97781"><ele>411.0</ele><time>2026-04-18T14:13:09.444Z</time></trkpt><trkpt lat="43.4504323" lon="10.9777466"><ele>411.0</ele><time>2026-04-18T14:13:10.45Z</time></trkpt><trkpt lat="43.4505343" lon="10.9776713"><ele>411.0</ele><time>2026-04-18T14:13:11.447Z</time></trkpt><trkpt lat="43.4506381" lon="10.9775864"><ele>412.8</ele><time>2026-04-18T14:13:12.439Z</time></trkpt><trkpt lat="43.4507285" lon="10.9775129"><ele>414.6</ele><time>2026-04-18T14:13:13.442Z</time></trkpt><trkpt lat="43.4508035" lon="10.9774301"><ele>416.4</ele><time>2026-04-18T14:13:14.433Z</time></trkpt><trkpt lat="43.450877" lon="10.9773401"><ele>418.2</ele><time>2026-04-18T14:13:15.437Z</time></trkpt><trkpt lat="43.4509424" lon="10.9772308"><ele>420.0</ele><time>2026-04-18T14:13:16.445Z</time></trkpt><trkpt lat="43.4510005" lon="10.9771338"><ele>420.0</ele><time>2026-04-18T14:13:17.438Z</time></trkpt><trkpt lat="43.4510511" lon="10.9770482"><ele>420.0</ele><time>2026-04-18T14:13:18.434Z</time></trkpt><trkpt lat="43.4510999" lon="10.9769745"><ele>420.0</ele><time>2026-04-18T14:13:19.433Z</time></trkpt><trkpt lat="43.4511469" lon="10.976908"><ele>420.0</ele><time>2026-04-18T14:13:20.434Z</time></trkpt><trkpt lat="43.4512054" lon="10.9768504"><ele>420.0</ele><time>2026-04-18T14:13:21.428Z</time></trkpt><trkpt lat="43.4512791" lon="10.9768249"><ele>420.0</ele><time>2026-04-18T14:13:22.433Z</time></trkpt><trkpt lat="43.4513628" lon="10.976819"><ele>419.25</ele><time>2026-04-18T14:13:23.438Z</time></trkpt><trkpt lat="43.4514672" lon="10.9768223"><ele>418.5</ele><time>2026-04-18T14:13:24.436Z</time></trkpt><trkpt lat="43.451586" lon="10.9768262"><ele>417.75</ele><time>2026-04-18T14:13:25.439Z</time></trkpt><trkpt lat="43.4517202" lon="10.9768177"><ele>417.0</ele><time>2026-04-18T14:13:26.438Z</time></trkpt><trkpt lat="43.4518506" lon="10.9768153"><ele>417.0</ele><time>2026-04-18T14:13:27.439Z</time></trkpt><trkpt lat="43.4519815" lon="10.9768165"><ele>417.0</ele><time>2026-04-18T14:13:28.437Z</time></trkpt><trkpt lat="43.4520973" lon="10.9768169"><ele>417.0</ele><time>2026-04-18T14:13:29.438Z</time></trkpt><trkpt lat="43.4522063" lon="10.9768182"><ele>417.0</ele><time>2026-04-18T14:13:30.449Z</time></trkpt><trkpt lat="43.4523121" lon="10.9768362"><ele>416.5</ele><time>2026-04-18T14:13:31.442Z</time></trkpt><trkpt lat="43.4524219" lon="10.9768426"><ele>416.0</ele><time>2026-04-18T14:13:32.433Z</time></trkpt><trkpt lat="43.4525412" lon="10.9768167"><ele>415.5</ele><time>2026-04-18T14:13:33.441Z</time></trkpt><trkpt lat="43.4526607" lon="10.9767482"><ele>415.0</ele><time>2026-04-18T14:13:34.432Z</time></trkpt><trkpt lat="43.4527608" lon="10.9766869"><ele>415.6666666666667</ele><time>2026-04-18T14:13:35.437Z</time></trkpt><trkpt lat="43.4528535" lon="10.9766473"><ele>416.33333333333337</ele><time>2026-04-18T14:13:36.433Z</time></trkpt><trkpt lat="43.4529275" lon="10.9766276"><ele>417.0</ele><time>2026-04-18T14:13:37.432Z</time></trkpt><trkpt lat="43.4530047" lon="10.9766363"><ele>417.66666666666663</ele><time>2026-04-18T14:13:38.433Z</time></trkpt><trkpt lat="43.453068" lon="10.9766648"><ele>418.3333333333333</ele><time>2026-04-18T14:13:39.44Z</time></trkpt><trkpt lat="43.4531788" lon="10.9767342"><ele>419.0</ele><time>2026-04-18T14:13:41.436Z</time></trkpt><trkpt lat="43.4532449" lon="10.9767656"><ele>419.0</ele><time>2026-04-18T14:13:42.439Z</time></trkpt><trkpt lat="43.4533396" lon="10.9767982"><ele>419.0</ele><time>2026-04-18T14:13:43.433Z</time></trkpt><trkpt lat="43.4534546" lon="10.9768349"><ele>419.0</ele><time>2026-04-18T14:13:44.435Z</time></trkpt><trkpt lat="43.4535704" lon="10.9768887"><ele>419.0</ele><time>2026-04-18T14:13:45.44Z</time></trkpt><trkpt lat="43.4536698" lon="10.9769338"><ele>419.0</ele><time>2026-04-18T14:13:46.433Z</time></trkpt><trkpt lat="43.4537411" lon="10.9769459"><ele>419.25</ele><time>2026-04-18T14:13:47.441Z</time></trkpt><trkpt lat="43.453836" lon="10.9769339"><ele>419.5</ele><time>2026-04-18T14:13:49.437Z</time></trkpt><trkpt lat="43.4539489" lon="10.9768407"><ele>419.75</ele><time>2026-04-18T14:13:51.443Z</time></trkpt><trkpt lat="43.4540368" lon="10.976746"><ele>420.0</ele><time>2026-04-18T14:13:52.441Z</time></trkpt><trkpt lat="43.4541238" lon="10.9766311"><ele>420.0</ele><time>2026-04-18T14:13:53.429Z</time></trkpt><trkpt lat="43.4542074" lon="10.9765054"><ele>420.0</ele><time>2026-04-18T14:13:54.436Z</time></trkpt><trkpt lat="43.4542994" lon="10.9763828"><ele>420.0</ele><time>2026-04-18T14:13:55.431Z</time></trkpt><trkpt lat="43.4543847" lon="10.9762605"><ele>420.0</ele><time>2026-04-18T14:13:56.43Z</time></trkpt><trkpt lat="43.4544747" lon="10.9761505"><ele>420.0</ele><time>2026-04-18T14:13:57.433Z</time></trkpt><trkpt lat="43.4545708" lon="10.976034"><ele>420.0</ele><time>2026-04-18T14:13:58.439Z</time></trkpt><trkpt lat="43.4546621" lon="10.9759203"><ele>420.0</ele><time>2026-04-18T14:13:59.439Z</time></trkpt><trkpt lat="43.4547443" lon="10.9758176"><ele>420.0</ele><time>2026-04-18T14:14:00.455Z</time></trkpt><trkpt lat="43.4548261" lon="10.975736"><ele>417.4</ele><time>2026-04-18T14:14:01.444Z</time></trkpt><trkpt lat="43.4549116" lon="10.9756552"><ele>414.8</ele><time>2026-04-18T14:14:02.444Z</time></trkpt><trkpt lat="43.455011" lon="10.9755597"><ele>412.20000000000005</ele><time>2026-04-18T14:14:03.449Z</time></trkpt><trkpt lat="43.4550957" lon="10.9754789"><ele>409.6</ele><time>2026-04-18T14:14:04.44Z</time></trkpt><trkpt lat="43.4551727" lon="10.975419"><ele>407.0</ele><time>2026-04-18T14:14:05.442Z</time></trkpt><trkpt lat="43.4552495" lon="10.9753688"><ele>407.0</ele><time>2026-04-18T14:14:06.446Z</time></trkpt><trkpt lat="43.4553381" lon="10.9753373"><ele>407.0</ele><time>2026-04-18T14:14:07.449Z</time></trkpt><trkpt lat="43.4554439" lon="10.9753079"><ele>407.0</ele><time>2026-04-18T14:14:08.445Z</time></trkpt><trkpt lat="43.4555582" lon="10.9752687"><ele>407.0</ele><time>2026-04-18T14:14:09.446Z</time></trkpt><trkpt lat="43.4556508" lon="10.9752274"><ele>407.0</ele><time>2026-04-18T14:14:10.441Z</time></trkpt><trkpt lat="43.4557265" lon="10.9751956"><ele>406.99999999999994</ele><time>2026-04-18T14:14:11.439Z</time></trkpt><trkpt lat="43.4558026" lon="10.9751646"><ele>407.0</ele><time>2026-04-18T14:14:12.446Z</time></trkpt><trkpt lat="43.4558766" lon="10.9751481"><ele>407.0</ele><time>2026-04-18T14:14:13.446Z</time></trkpt><trkpt lat="43.4559576" lon="10.9751298"><ele>407.0</ele><time>2026-04-18T14:14:14.434Z</time></trkpt><trkpt lat="43.456032" lon="10.9750859"><ele>406.99999999999994</ele><time>2026-04-18T14:14:15.44Z</time></trkpt><trkpt lat="43.4560979" lon="10.9749959"><ele>407.0</ele><time>2026-04-18T14:14:16.444Z</time></trkpt><trkpt lat="43.4561592" lon="10.974858"><ele>407.0</ele><time>2026-04-18T14:14:17.44Z</time></trkpt><trkpt lat="43.4562094" lon="10.9747187"><ele>407.0</ele><time>2026-04-18T14:14:18.442Z</time></trkpt><trkpt lat="43.4562697" lon="10.9745885"><ele>407.0</ele><time>2026-04-18T14:14:19.438Z</time></trkpt><trkpt lat="43.4563523" lon="10.9744719"><ele>407.0</ele><time>2026-04-18T14:14:20.44Z</time></trkpt><trkpt lat="43.4564454" lon="10.9743785"><ele>407.0</ele><time>2026-04-18T14:14:21.443Z</time></trkpt><trkpt lat="43.4565408" lon="10.9742771"><ele>407.0</ele><time>2026-04-18T14:14:22.446Z</time></trkpt><trkpt lat="43.456649" lon="10.9741684"><ele>407.0</ele><time>2026-04-18T14:14:23.442Z</time></trkpt><trkpt lat="43.4567619" lon="10.9740646"><ele>407.0</ele><time>2026-04-18T14:14:24.444Z</time></trkpt><trkpt lat="43.4568505" lon="10.9739735"><ele>407.75</ele><time>2026-04-18T14:14:25.449Z</time></trkpt><trkpt lat="43.4569321" lon="10.9738903"><ele>408.5</ele><time>2026-04-18T14:14:26.442Z</time></trkpt><trkpt lat="43.4570271" lon="10.9738381"><ele>409.25</ele><time>2026-04-18T14:14:27.443Z</time></trkpt><trkpt lat="43.4571519" lon="10.9738247"><ele>410.0</ele><time>2026-04-18T14:14:28.44Z</time></trkpt><trkpt lat="43.4572809" lon="10.9738255"><ele>411.5</ele><time>2026-04-18T14:14:29.442Z</time></trkpt><trkpt lat="43.4574111" lon="10.9738315"><ele>413.0</ele><time>2026-04-18T14:14:30.446Z</time></trkpt><trkpt lat="43.4575439" lon="10.9738231"><ele>414.5</ele><time>2026-04-18T14:14:31.442Z</time></trkpt><trkpt lat="43.457668" lon="10.9738218"><ele>416.0</ele><time>2026-04-18T14:14:32.446Z</time></trkpt><trkpt lat="43.4577673" lon="10.9738212"><ele>416.0</ele><time>2026-04-18T14:14:33.444Z</time></trkpt><trkpt lat="43.4578579" lon="10.9738183"><ele>416.0</ele><time>2026-04-18T14:14:34.447Z</time></trkpt><trkpt lat="43.4579529" lon="10.9738079"><ele>416.0</ele><time>2026-04-18T14:14:35.446Z</time></trkpt><trkpt lat="43.4580516" lon="10.9738063"><ele>416.0</ele><time>2026-04-18T14:14:36.433Z</time></trkpt><trkpt lat="43.4581387" lon="10.9738334"><ele>416.0</ele><time>2026-04-18T14:14:37.438Z</time></trkpt><trkpt lat="43.4582303" lon="10.9738995"><ele>416.20000000000005</ele><time>2026-04-18T14:14:38.44Z</time></trkpt><trkpt lat="43.4583337" lon="10.9739955"><ele>416.40000000000003</ele><time>2026-04-18T14:14:39.446Z</time></trkpt><trkpt lat="43.458424" lon="10.9740981"><ele>416.6</ele><time>2026-04-18T14:14:40.442Z</time></trkpt><trkpt lat="43.4585012" lon="10.9741739"><ele>416.8</ele><time>2026-04-18T14:14:41.446Z</time></trkpt><trkpt lat="43.4585673" lon="10.9742409"><ele>417.0</ele><time>2026-04-18T14:14:42.446Z</time></trkpt><trkpt lat="43.4586255" lon="10.9743133"><ele>417.40000000000003</ele><time>2026-04-18T14:14:43.445Z</time></trkpt><trkpt lat="43.4586899" lon="10.9743942"><ele>417.8</ele><time>2026-04-18T14:14:44.442Z</time></trkpt><trkpt lat="43.4587641" lon="10.974478"><ele>418.2</ele><time>2026-04-18T14:14:45.44Z</time></trkpt><trkpt lat="43.4588515" lon="10.974561"><ele>418.6</ele><time>2026-04-18T14:14:46.444Z</time></trkpt><trkpt lat="43.4589319" lon="10.9746432"><ele>419.0</ele><time>2026-04-18T14:14:47.445Z</time></trkpt><trkpt lat="43.4590052" lon="10.9747113"><ele>419.66666666666663</ele><time>2026-04-18T14:14:48.445Z</time></trkpt><trkpt lat="43.4590683" lon="10.9747666"><ele>420.3333333333333</ele><time>2026-04-18T14:14:49.448Z</time></trkpt><trkpt lat="43.4591235" lon="10.9748246"><ele>421.0</ele><time>2026-04-18T14:14:50.445Z</time></trkpt><trkpt lat="43.4592258" lon="10.9749154"><ele>421.66666666666663</ele><time>2026-04-18T14:14:52.445Z</time></trkpt><trkpt lat="43.4592892" lon="10.9749646"><ele>422.3333333333333</ele><time>2026-04-18T14:14:53.445Z</time></trkpt><trkpt lat="43.4593552" lon="10.9750167"><ele>423.0</ele><time>2026-04-18T14:14:54.442Z</time></trkpt><trkpt lat="43.4594236" lon="10.9750982"><ele>423.0</ele><time>2026-04-18T14:14:55.442Z</time></trkpt><trkpt lat="43.4595029" lon="10.9751973"><ele>423.0</ele><time>2026-04-18T14:14:56.438Z</time></trkpt><trkpt lat="43.4595685" lon="10.975295"><ele>423.0</ele><time>2026-04-18T14:14:57.44Z</time></trkpt><trkpt lat="43.4596313" lon="10.9753811"><ele>423.0</ele><time>2026-04-18T14:14:58.441Z</time></trkpt><trkpt lat="43.4596937" lon="10.9754655"><ele>423.0</ele><time>2026-04-18T14:14:59.442Z</time></trkpt><trkpt lat="43.459755" lon="10.9755542"><ele>423.4</ele><time>2026-04-18T14:15:00.448Z</time></trkpt><trkpt lat="43.4598186" lon="10.9756418"><ele>423.79999999999995</ele><time>2026-04-18T14:15:01.439Z</time></trkpt><trkpt lat="43.4598932" lon="10.9757317"><ele>424.2</ele><time>2026-04-18T14:15:02.445Z</time></trkpt><trkpt lat="43.4599717" lon="10.9758037"><ele>424.6</ele><time>2026-04-18T14:15:03.433Z</time></trkpt><trkpt lat="43.4600379" lon="10.975899"><ele>425.0</ele><time>2026-04-18T14:15:04.443Z</time></trkpt><trkpt lat="43.4601102" lon="10.9759865"><ele>424.2</ele><time>2026-04-18T14:15:05.44Z</time></trkpt><trkpt lat="43.4601947" lon="10.9760582"><ele>423.4</ele><time>2026-04-18T14:15:06.44Z</time></trkpt><trkpt lat="43.4602909" lon="10.976122"><ele>422.6</ele><time>2026-04-18T14:15:07.44Z</time></trkpt><trkpt lat="43.4603884" lon="10.9761648"><ele>421.8</ele><time>2026-04-18T14:15:08.433Z</time></trkpt><trkpt lat="43.4604888" lon="10.9761934"><ele>421.0</ele><time>2026-04-18T14:15:09.433Z</time></trkpt><trkpt lat="43.4605969" lon="10.9762115"><ele>420.75</ele><time>2026-04-18T14:15:10.434Z</time></trkpt><trkpt lat="43.460712" lon="10.9762167"><ele>420.5</ele><time>2026-04-18T14:15:11.431Z</time></trkpt><trkpt lat="43.4608313" lon="10.9762186"><ele>420.25</ele><time>2026-04-18T14:15:12.439Z</time></trkpt><trkpt lat="43.4609572" lon="10.9762337"><ele>420.0</ele><time>2026-04-18T14:15:13.443Z</time></trkpt><trkpt lat="43.4610804" lon="10.9762484"><ele>420.0</ele><time>2026-04-18T14:15:14.439Z</time></trkpt><trkpt lat="43.4611861" lon="10.9762621"><ele>420.0</ele><time>2026-04-18T14:15:15.44Z</time></trkpt><trkpt lat="43.4612931" lon="10.9762722"><ele>420.0</ele><time>2026-04-18T14:15:16.442Z</time></trkpt><trkpt lat="43.4613838" lon="10.9762785"><ele>420.0</ele><time>2026-04-18T14:15:17.444Z</time></trkpt><trkpt lat="43.4614748" lon="10.9762669"><ele>420.0</ele><time>2026-04-18T14:15:18.443Z</time></trkpt><trkpt lat="43.4615643" lon="10.9762474"><ele>418.6</ele><time>2026-04-18T14:15:19.436Z</time></trkpt><trkpt lat="43.4616744" lon="10.9762148"><ele>417.2</ele><time>2026-04-18T14:15:20.443Z</time></trkpt><trkpt lat="43.4617772" lon="10.9761626"><ele>415.79999999999995</ele><time>2026-04-18T14:15:21.44Z</time></trkpt><trkpt lat="43.4618745" lon="10.9760957"><ele>414.4</ele><time>2026-04-18T14:15:22.443Z</time></trkpt><trkpt lat="43.4619628" lon="10.976035"><ele>413.0</ele><time>2026-04-18T14:15:23.441Z</time></trkpt><trkpt lat="43.462044" lon="10.9759855"><ele>411.3333333333333</ele><time>2026-04-18T14:15:24.441Z</time></trkpt><trkpt lat="43.4621229" lon="10.9759387"><ele>409.66666666666663</ele><time>2026-04-18T14:15:25.428Z</time></trkpt><trkpt lat="43.4621873" lon="10.9758996"><ele>408.0</ele><time>2026-04-18T14:15:26.429Z</time></trkpt><trkpt lat="43.4622528" lon="10.9758862"><ele>406.33333333333337</ele><time>2026-04-18T14:15:27.433Z</time></trkpt><trkpt lat="43.4623316" lon="10.9759195"><ele>404.6666666666667</ele><time>2026-04-18T14:15:28.427Z</time></trkpt><trkpt lat="43.4624366" lon="10.9759739"><ele>403.0</ele><time>2026-04-18T14:15:29.437Z</time></trkpt><trkpt lat="43.4625502" lon="10.9760463"><ele>403.0</ele><time>2026-04-18T14:15:30.441Z</time></trkpt><trkpt lat="43.4626453" lon="10.9761124"><ele>403.0</ele><time>2026-04-18T14:15:31.437Z</time></trkpt><trkpt lat="43.4627467" lon="10.9761673"><ele>403.0</ele><time>2026-04-18T14:15:32.436Z</time></trkpt><trkpt lat="43.4628643" lon="10.9762212"><ele>403.0</ele><time>2026-04-18T14:15:33.432Z</time></trkpt><trkpt lat="43.462991" lon="10.9762775"><ele>401.6666666666667</ele><time>2026-04-18T14:15:34.432Z</time></trkpt><trkpt lat="43.4631311" lon="10.9763391"><ele>400.33333333333337</ele><time>2026-04-18T14:15:35.439Z</time></trkpt><trkpt lat="43.4632771" lon="10.9764225"><ele>399.0</ele><time>2026-04-18T14:15:36.433Z</time></trkpt><trkpt lat="43.4634316" lon="10.9765218"><ele>399.0</ele><time>2026-04-18T14:15:37.434Z</time></trkpt><trkpt lat="43.4635477" lon="10.9766331"><ele>399.0</ele><time>2026-04-18T14:15:38.436Z</time></trkpt><trkpt lat="43.4636748" lon="10.9767387"><ele>399.0</ele><time>2026-04-18T14:15:39.435Z</time></trkpt><trkpt lat="43.4637966" lon="10.976837"><ele>399.0</ele><time>2026-04-18T14:15:40.435Z</time></trkpt><trkpt lat="43.4639131" lon="10.9769389"><ele>400.75</ele><time>2026-04-18T14:15:41.434Z</time></trkpt><trkpt lat="43.4640233" lon="10.9770427"><ele>402.5</ele><time>2026-04-18T14:15:42.434Z</time></trkpt><trkpt lat="43.4641275" lon="10.9771625"><ele>404.25</ele><time>2026-04-18T14:15:43.434Z</time></trkpt><trkpt lat="43.4642318" lon="10.977293"><ele>406.0</ele><time>2026-04-18T14:15:44.436Z</time></trkpt><trkpt lat="43.4643212" lon="10.9774049"><ele>406.0</ele><time>2026-04-18T14:15:45.432Z</time></trkpt><trkpt lat="43.4644003" lon="10.9774802"><ele>406.0</ele><time>2026-04-18T14:15:46.434Z</time></trkpt><trkpt lat="43.4644871" lon="10.9775413"><ele>406.0</ele><time>2026-04-18T14:15:47.437Z</time></trkpt><trkpt lat="43.4645822" lon="10.9776005"><ele>406.0</ele><time>2026-04-18T14:15:48.434Z</time></trkpt><trkpt lat="43.4646938" lon="10.9776318"><ele>406.0</ele><time>2026-04-18T14:15:49.436Z</time></trkpt><trkpt lat="43.4648163" lon="10.9776575"><ele>409.5</ele><time>2026-04-18T14:15:50.439Z</time></trkpt><trkpt lat="43.4649496" lon="10.9777017"><ele>413.0</ele><time>2026-04-18T14:15:51.441Z</time></trkpt><trkpt lat="43.4650942" lon="10.9777389"><ele>416.5</ele><time>2026-04-18T14:15:52.439Z</time></trkpt><trkpt lat="43.4652409" lon="10.9778023"><ele>420.0</ele><time>2026-04-18T14:15:53.438Z</time></trkpt><trkpt lat="43.4653821" lon="10.9778735"><ele>420.25</ele><time>2026-04-18T14:15:54.437Z</time></trkpt><trkpt lat="43.4655142" lon="10.9779204"><ele>420.5</ele><time>2026-04-18T14:15:55.437Z</time></trkpt><trkpt lat="43.4656171" lon="10.9779539"><ele>420.75</ele><time>2026-04-18T14:15:56.438Z</time></trkpt><trkpt lat="43.465721" lon="10.9779847"><ele>421.0</ele><time>2026-04-18T14:15:57.438Z</time></trkpt><trkpt lat="43.4658306" lon="10.9780208"><ele>421.0</ele><time>2026-04-18T14:15:58.441Z</time></trkpt><trkpt lat="43.4659659" lon="10.9780489"><ele>421.0</ele><time>2026-04-18T14:15:59.44Z</time></trkpt><trkpt lat="43.4660885" lon="10.9780894"><ele>421.0</ele><time>2026-04-18T14:16:00.445Z</time></trkpt><trkpt lat="43.4661995" lon="10.9781205"><ele>421.0</ele><time>2026-04-18T14:16:01.437Z</time></trkpt><trkpt lat="43.4663042" lon="10.9781578"><ele>422.5</ele><time>2026-04-18T14:16:02.433Z</time></trkpt><trkpt lat="43.466415" lon="10.9782033"><ele>424.0</ele><time>2026-04-18T14:16:03.442Z</time></trkpt><trkpt lat="43.466524" lon="10.9782793"><ele>425.5</ele><time>2026-04-18T14:16:04.444Z</time></trkpt><trkpt lat="43.4666418" lon="10.9783676"><ele>427.0</ele><time>2026-04-18T14:16:05.439Z</time></trkpt><trkpt lat="43.4667537" lon="10.9784706"><ele>427.0</ele><time>2026-04-18T14:16:06.443Z</time></trkpt><trkpt lat="43.4668707" lon="10.9785729"><ele>427.0</ele><time>2026-04-18T14:16:07.442Z</time></trkpt><trkpt lat="43.4669859" lon="10.978658"><ele>427.0</ele><time>2026-04-18T14:16:08.445Z</time></trkpt><trkpt lat="43.4671017" lon="10.9787331"><ele>427.0</ele><time>2026-04-18T14:16:09.442Z</time></trkpt><trkpt lat="43.4672149" lon="10.9788216"><ele>425.25</ele><time>2026-04-18T14:16:10.441Z</time></trkpt><trkpt lat="43.4673419" lon="10.9789115"><ele>423.5</ele><time>2026-04-18T14:16:11.443Z</time></trkpt><trkpt lat="43.4674718" lon="10.9790042"><ele>421.75</ele><time>2026-04-18T14:16:12.444Z</time></trkpt><trkpt lat="43.4675648" lon="10.9790953"><ele>420.0</ele><time>2026-04-18T14:16:13.443Z</time></trkpt><trkpt lat="43.4676918" lon="10.9791848"><ele>421.25</ele><time>2026-04-18T14:16:14.444Z</time></trkpt><trkpt lat="43.4678024" lon="10.979271"><ele>422.5</ele><time>2026-04-18T14:16:15.446Z</time></trkpt><trkpt lat="43.467921" lon="10.9793547"><ele>423.75</ele><time>2026-04-18T14:16:16.452Z</time></trkpt><trkpt lat="43.4680406" lon="10.9794395"><ele>425.0</ele><time>2026-04-18T14:16:17.45Z</time></trkpt><trkpt lat="43.46815" lon="10.9795257"><ele>425.0</ele><time>2026-04-18T14:16:18.438Z</time></trkpt><trkpt lat="43.4682399" lon="10.979612"><ele>425.0</ele><time>2026-04-18T14:16:19.441Z</time></trkpt><trkpt lat="43.4683283" lon="10.9797068"><ele>425.0</ele><time>2026-04-18T14:16:20.444Z</time></trkpt><trkpt lat="43.4684242" lon="10.9798123"><ele>425.0</ele><time>2026-04-18T14:16:21.438Z</time></trkpt><trkpt lat="43.468523" lon="10.9799265"><ele>424.4</ele><time>2026-04-18T14:16:22.446Z</time></trkpt><trkpt lat="43.468622" lon="10.9800206"><ele>423.8</ele><time>2026-04-18T14:16:23.446Z</time></trkpt><trkpt lat="43.4686977" lon="10.9801182"><ele>423.20000000000005</ele><time>2026-04-18T14:16:24.437Z</time></trkpt><trkpt lat="43.4687614" lon="10.9802119"><ele>422.6</ele><time>2026-04-18T14:16:25.436Z</time></trkpt><trkpt lat="43.4688207" lon="10.9802981"><ele>422.0</ele><time>2026-04-18T14:16:26.436Z</time></trkpt><trkpt lat="43.4689136" lon="10.9803691"><ele>422.0</ele><time>2026-04-18T14:16:28.431Z</time></trkpt><trkpt lat="43.4690193" lon="10.9803617"><ele>422.0</ele><time>2026-04-18T14:16:30.435Z</time></trkpt><trkpt lat="43.469077" lon="10.9803137"><ele>422.0</ele><time>2026-04-18T14:16:31.444Z</time></trkpt><trkpt lat="43.4691304" lon="10.9802274"><ele>422.0</ele><time>2026-04-18T14:16:32.437Z</time></trkpt><trkpt lat="43.469171" lon="10.9801181"><ele>422.0</ele><time>2026-04-18T14:16:33.434Z</time></trkpt><trkpt lat="43.4692162" lon="10.9799804"><ele>420.20000000000005</ele><time>2026-04-18T14:16:34.445Z</time></trkpt><trkpt lat="43.4692676" lon="10.9798483"><ele>418.4</ele><time>2026-04-18T14:16:35.447Z</time></trkpt><trkpt lat="43.4693225" lon="10.9797424"><ele>416.6</ele><time>2026-04-18T14:16:36.449Z</time></trkpt><trkpt lat="43.4693908" lon="10.9796465"><ele>414.79999999999995</ele><time>2026-04-18T14:16:37.446Z</time></trkpt><trkpt lat="43.4694797" lon="10.979566"><ele>413.0</ele><time>2026-04-18T14:16:38.446Z</time></trkpt><trkpt lat="43.4695766" lon="10.9795044"><ele>412.75</ele><time>2026-04-18T14:16:39.448Z</time></trkpt><trkpt lat="43.4696745" lon="10.9794517"><ele>412.5</ele><time>2026-04-18T14:16:40.447Z</time></trkpt><trkpt lat="43.4697701" lon="10.9793713"><ele>412.25</ele><time>2026-04-18T14:16:41.442Z</time></trkpt><trkpt lat="43.4698622" lon="10.979266"><ele>412.0</ele><time>2026-04-18T14:16:42.449Z</time></trkpt><trkpt lat="43.4699552" lon="10.9791292"><ele>412.0</ele><time>2026-04-18T14:16:43.448Z</time></trkpt><trkpt lat="43.4700426" lon="10.9789692"><ele>412.0</ele><time>2026-04-18T14:16:44.445Z</time></trkpt><trkpt lat="43.4701212" lon="10.9787859"><ele>412.0</ele><time>2026-04-18T14:16:45.446Z</time></trkpt><trkpt lat="43.4701795" lon="10.9785782"><ele>412.0</ele><time>2026-04-18T14:16:46.456Z</time></trkpt><trkpt lat="43.4702399" lon="10.9783893"><ele>412.0</ele><time>2026-04-18T14:16:47.453Z</time></trkpt><trkpt lat="43.470285" lon="10.9782011"><ele>412.0</ele><time>2026-04-18T14:16:48.444Z</time></trkpt><trkpt lat="43.4703204" lon="10.9780534"><ele>412.0</ele><time>2026-04-18T14:16:49.439Z</time></trkpt><trkpt lat="43.4703671" lon="10.9778903"><ele>411.8</ele><time>2026-04-18T14:16:50.446Z</time></trkpt><trkpt lat="43.4704135" lon="10.9777491"><ele>411.6</ele><time>2026-04-18T14:16:51.451Z</time></trkpt><trkpt lat="43.4704536" lon="10.9776397"><ele>411.40000000000003</ele><time>2026-04-18T14:16:52.45Z</time></trkpt><trkpt lat="43.4705048" lon="10.9775262"><ele>411.20000000000005</ele><time>2026-04-18T14:16:53.454Z</time></trkpt><trkpt lat="43.4705732" lon="10.9774029"><ele>411.0</ele><time>2026-04-18T14:16:54.446Z</time></trkpt><trkpt lat="43.4706684" lon="10.9773026"><ele>412.75</ele><time>2026-04-18T14:16:55.444Z</time></trkpt><trkpt lat="43.4707792" lon="10.9772168"><ele>414.5</ele><time>2026-04-18T14:16:56.445Z</time></trkpt><trkpt lat="43.4708969" lon="10.9771222"><ele>416.25</ele><time>2026-04-18T14:16:57.458Z</time></trkpt><trkpt lat="43.4710017" lon="10.9770124"><ele>418.0</ele><time>2026-04-18T14:16:58.452Z</time></trkpt><trkpt lat="43.4710947" lon="10.9769166"><ele>418.0</ele><time>2026-04-18T14:16:59.445Z</time></trkpt><trkpt lat="43.4711928" lon="10.9768399"><ele>418.0</ele><time>2026-04-18T14:17:00.463Z</time></trkpt><trkpt lat="43.4712858" lon="10.9767629"><ele>418.0</ele><time>2026-04-18T14:17:01.436Z</time></trkpt><trkpt lat="43.4713701" lon="10.976691"><ele>418.0</ele><time>2026-04-18T14:17:02.441Z</time></trkpt><trkpt lat="43.4714414" lon="10.9766239"><ele>418.0</ele><time>2026-04-18T14:17:03.441Z</time></trkpt><trkpt lat="43.4715009" lon="10.976566"><ele>418.50000000000006</ele><time>2026-04-18T14:17:04.439Z</time></trkpt><trkpt lat="43.4715599" lon="10.9765305"><ele>419.0</ele><time>2026-04-18T14:17:05.439Z</time></trkpt><trkpt lat="43.4716307" lon="10.976516"><ele>419.5</ele><time>2026-04-18T14:17:06.439Z</time></trkpt><trkpt lat="43.4717182" lon="10.9765048"><ele>420.0</ele><time>2026-04-18T14:17:07.437Z</time></trkpt><trkpt lat="43.4718129" lon="10.9765106"><ele>420.50000000000006</ele><time>2026-04-18T14:17:08.431Z</time></trkpt><trkpt lat="43.4719261" lon="10.9765422"><ele>421.0</ele><time>2026-04-18T14:17:09.435Z</time></trkpt><trkpt lat="43.4720387" lon="10.976575"><ele>420.75</ele><time>2026-04-18T14:17:10.438Z</time></trkpt><trkpt lat="43.4721568" lon="10.9766245"><ele>420.5</ele><time>2026-04-18T14:17:11.441Z</time></trkpt><trkpt lat="43.472275" lon="10.9766788"><ele>420.25</ele><time>2026-04-18T14:17:12.444Z</time></trkpt><trkpt lat="43.4723921" lon="10.9767296"><ele>420.0</ele><time>2026-04-18T14:17:13.436Z</time></trkpt><trkpt lat="43.4725015" lon="10.9767584"><ele>420.0</ele><time>2026-04-18T14:17:14.44Z</time></trkpt><trkpt lat="43.4726228" lon="10.976779"><ele>420.0</ele><time>2026-04-18T14:17:15.44Z</time></trkpt><trkpt lat="43.4727436" lon="10.9767661"><ele>420.0</ele><time>2026-04-18T14:17:16.44Z</time></trkpt><trkpt lat="43.472858" lon="10.9767252"><ele>420.0</ele><time>2026-04-18T14:17:17.445Z</time></trkpt><trkpt lat="43.4729584" lon="10.9766873"><ele>420.25</ele><time>2026-04-18T14:17:18.447Z</time></trkpt><trkpt lat="43.4730687" lon="10.9766675"><ele>420.5</ele><time>2026-04-18T14:17:19.439Z</time></trkpt><trkpt lat="43.4731873" lon="10.9766679"><ele>420.75</ele><time>2026-04-18T14:17:20.439Z</time></trkpt><trkpt lat="43.4732937" lon="10.9767091"><ele>421.0</ele><time>2026-04-18T14:17:21.437Z</time></trkpt><trkpt lat="43.4734095" lon="10.9767622"><ele>420.5</ele><time>2026-04-18T14:17:22.444Z</time></trkpt><trkpt lat="43.4735259" lon="10.9768159"><ele>420.0</ele><time>2026-04-18T14:17:23.444Z</time></trkpt><trkpt lat="43.4736381" lon="10.9768544"><ele>419.5</ele><time>2026-04-18T14:17:24.445Z</time></trkpt><trkpt lat="43.4737568" lon="10.9768886"><ele>419.0</ele><time>2026-04-18T14:17:25.439Z</time></trkpt><trkpt lat="43.4738656" lon="10.9769343"><ele>420.6</ele><time>2026-04-18T14:17:26.438Z</time></trkpt><trkpt lat="43.4739751" lon="10.9769894"><ele>422.2</ele><time>2026-04-18T14:17:27.439Z</time></trkpt><trkpt lat="43.4740796" lon="10.977035"><ele>423.80000000000007</ele><time>2026-04-18T14:17:28.44Z</time></trkpt><trkpt lat="43.474175" lon="10.9770828"><ele>425.40000000000003</ele><time>2026-04-18T14:17:29.433Z</time></trkpt><trkpt lat="43.4742516" lon="10.9771128"><ele>427.0</ele><time>2026-04-18T14:17:30.44Z</time></trkpt><trkpt lat="43.4743221" lon="10.9771385"><ele>427.00000000000006</ele><time>2026-04-18T14:17:31.439Z</time></trkpt><trkpt lat="43.4743868" lon="10.9771382"><ele>427.0</ele><time>2026-04-18T14:17:32.438Z</time></trkpt><trkpt lat="43.4744457" lon="10.9770992"><ele>427.0</ele><time>2026-04-18T14:17:33.435Z</time></trkpt><trkpt lat="43.4744917" lon="10.9770302"><ele>427.0</ele><time>2026-04-18T14:17:34.439Z</time></trkpt><trkpt lat="43.4745357" lon="10.9769301"><ele>427.00000000000006</ele><time>2026-04-18T14:17:35.439Z</time></trkpt><trkpt lat="43.4745929" lon="10.9768201"><ele>427.0</ele><time>2026-04-18T14:17:36.438Z</time></trkpt><trkpt lat="43.4746537" lon="10.9767056"><ele>429.0</ele><time>2026-04-18T14:17:37.44Z</time></trkpt><trkpt lat="43.4747253" lon="10.976582"><ele>431.0</ele><time>2026-04-18T14:17:38.443Z</time></trkpt><trkpt lat="43.474803" lon="10.9764473"><ele>433.0</ele><time>2026-04-18T14:17:39.444Z</time></trkpt><trkpt lat="43.4748682" lon="10.9763067"><ele>435.0</ele><time>2026-04-18T14:17:40.441Z</time></trkpt><trkpt lat="43.4749246" lon="10.9761906"><ele>435.0</ele><time>2026-04-18T14:17:41.435Z</time></trkpt><trkpt lat="43.4749726" lon="10.9760687"><ele>435.0</ele><time>2026-04-18T14:17:43.438Z</time></trkpt><trkpt lat="43.4750301" lon="10.9759991"><ele>435.0</ele><time>2026-04-18T14:17:46.444Z</time></trkpt><trkpt lat="43.4750853" lon="10.975904"><ele>435.0</ele><time>2026-04-18T14:20:32.44Z</time></trkpt><trkpt lat="43.4751272" lon="10.9758331"><ele>435.0</ele><time>2026-04-18T14:20:33.442Z</time></trkpt><trkpt lat="43.4751884" lon="10.9757256"><ele>435.0</ele><time>2026-04-18T14:20:34.433Z</time></trkpt><trkpt lat="43.4752451" lon="10.9756113"><ele>434.4</ele><time>2026-04-18T14:20:35.439Z</time></trkpt><trkpt lat="43.4752986" lon="10.9754929"><ele>433.8</ele><time>2026-04-18T14:20:36.437Z</time></trkpt><trkpt lat="43.4753459" lon="10.9753891"><ele>433.20000000000005</ele><time>2026-04-18T14:20:37.438Z</time></trkpt><trkpt lat="43.4753878" lon="10.9752795"><ele>432.6</ele><time>2026-04-18T14:20:38.448Z</time></trkpt><trkpt lat="43.4754338" lon="10.9751781"><ele>432.0</ele><time>2026-04-18T14:20:39.439Z</time></trkpt><trkpt lat="43.4754916" lon="10.9750942"><ele>431.5</ele><time>2026-04-18T14:20:40.434Z</time></trkpt><trkpt lat="43.475553" lon="10.9750296"><ele>431.0</ele><time>2026-04-18T14:20:41.433Z</time></trkpt><trkpt lat="43.4756173" lon="10.9749939"><ele>430.5</ele><time>2026-04-18T14:20:42.434Z</time></trkpt><trkpt lat="43.4756921" lon="10.9749773"><ele>430.0</ele><time>2026-04-18T14:20:43.435Z</time></trkpt><trkpt lat="43.4757741" lon="10.9749611"><ele>429.5</ele><time>2026-04-18T14:20:44.436Z</time></trkpt><trkpt lat="43.4758757" lon="10.9749582"><ele>429.0</ele><time>2026-04-18T14:20:45.429Z</time></trkpt><trkpt lat="43.4759974" lon="10.9749781"><ele>429.0</ele><time>2026-04-18T14:20:46.434Z</time></trkpt><trkpt lat="43.4761352" lon="10.974987"><ele>429.0</ele><time>2026-04-18T14:20:47.437Z</time></trkpt><trkpt lat="43.4762752" lon="10.9749828"><ele>429.0</ele><time>2026-04-18T14:20:48.432Z</time></trkpt><trkpt lat="43.4764016" lon="10.9749679"><ele>429.0</ele><time>2026-04-18T14:20:49.432Z</time></trkpt><trkpt lat="43.4765199" lon="10.9749459"><ele>427.5</ele><time>2026-04-18T14:20:50.432Z</time></trkpt><trkpt lat="43.4766319" lon="10.9749298"><ele>426.0</ele><time>2026-04-18T14:20:51.439Z</time></trkpt><trkpt lat="43.476748" lon="10.9749331"><ele>424.5</ele><time>2026-04-18T14:20:52.439Z</time></trkpt><trkpt lat="43.4768753" lon="10.9749611"><ele>423.0</ele><time>2026-04-18T14:20:53.44Z</time></trkpt><trkpt lat="43.4769861" lon="10.9749929"><ele>424.2</ele><time>2026-04-18T14:20:54.432Z</time></trkpt><trkpt lat="43.4770923" lon="10.9750231"><ele>425.4</ele><time>2026-04-18T14:20:55.427Z</time></trkpt><trkpt lat="43.4771991" lon="10.9750422"><ele>426.59999999999997</ele><time>2026-04-18T14:20:56.433Z</time></trkpt><trkpt lat="43.4772926" lon="10.9750568"><ele>427.79999999999995</ele><time>2026-04-18T14:20:57.429Z</time></trkpt><trkpt lat="43.4773786" lon="10.975056"><ele>429.0</ele><time>2026-04-18T14:20:58.432Z</time></trkpt><trkpt lat="43.4774624" lon="10.975034"><ele>426.7142857142857</ele><time>2026-04-18T14:20:59.434Z</time></trkpt><trkpt lat="43.4775368" lon="10.9749989"><ele>424.42857142857144</ele><time>2026-04-18T14:21:00.44Z</time></trkpt><trkpt lat="43.4775964" lon="10.9749571"><ele>422.1428571428571</ele><time>2026-04-18T14:21:01.438Z</time></trkpt><trkpt lat="43.4776554" lon="10.9749057"><ele>419.8571428571429</ele><time>2026-04-18T14:21:02.436Z</time></trkpt><trkpt lat="43.4777192" lon="10.9748644"><ele>417.57142857142856</ele><time>2026-04-18T14:21:03.433Z</time></trkpt><trkpt lat="43.4777892" lon="10.974844"><ele>415.2857142857143</ele><time>2026-04-18T14:21:04.43Z</time></trkpt><trkpt lat="43.4778658" lon="10.9748521"><ele>413.0</ele><time>2026-04-18T14:21:05.424Z</time></trkpt><trkpt lat="43.4779646" lon="10.9748997"><ele>413.0</ele><time>2026-04-18T14:21:06.427Z</time></trkpt><trkpt lat="43.4780676" lon="10.9749613"><ele>413.0</ele><time>2026-04-18T14:21:07.425Z</time></trkpt><trkpt lat="43.4781654" lon="10.9750263"><ele>413.0</ele><time>2026-04-18T14:21:08.433Z</time></trkpt><trkpt lat="43.4782481" lon="10.9750865"><ele>413.0</ele><time>2026-04-18T14:21:09.433Z</time></trkpt><trkpt lat="43.4783196" lon="10.9751326"><ele>413.0</ele><time>2026-04-18T14:21:10.429Z</time></trkpt><trkpt lat="43.4783803" lon="10.9751837"><ele>412.99999999999994</ele><time>2026-04-18T14:21:11.427Z</time></trkpt><trkpt lat="43.4784374" lon="10.9752571"><ele>413.0</ele><time>2026-04-18T14:21:12.428Z</time></trkpt><trkpt lat="43.4784836" lon="10.9753304"><ele>413.0</ele><time>2026-04-18T14:21:13.43Z</time></trkpt><trkpt lat="43.4785374" lon="10.9753865"><ele>413.0</ele><time>2026-04-18T14:21:14.425Z</time></trkpt><trkpt lat="43.4786124" lon="10.9754193"><ele>412.99999999999994</ele><time>2026-04-18T14:21:15.437Z</time></trkpt><trkpt lat="43.4787121" lon="10.9754159"><ele>413.0</ele><time>2026-04-18T14:21:16.436Z</time></trkpt><trkpt lat="43.4788352" lon="10.9753986"><ele>409.25</ele><time>2026-04-18T14:21:17.436Z</time></trkpt><trkpt lat="43.4789455" lon="10.9753932"><ele>405.5</ele><time>2026-04-18T14:21:18.435Z</time></trkpt><trkpt lat="43.4790585" lon="10.9754059"><ele>401.75</ele><time>2026-04-18T14:21:19.435Z</time></trkpt><trkpt lat="43.4791739" lon="10.9754409"><ele>398.0</ele><time>2026-04-18T14:21:20.437Z</time></trkpt><trkpt lat="43.4792935" lon="10.9754742"><ele>398.0</ele><time>2026-04-18T14:21:21.43Z</time></trkpt><trkpt lat="43.4794101" lon="10.9754863"><ele>398.0</ele><time>2026-04-18T14:21:22.438Z</time></trkpt><trkpt lat="43.479514" lon="10.9754958"><ele>398.0</ele><time>2026-04-18T14:21:23.437Z</time></trkpt><trkpt lat="43.4796166" lon="10.9754891"><ele>398.0</ele><time>2026-04-18T14:21:24.442Z</time></trkpt><trkpt lat="43.4797165" lon="10.9754871"><ele>398.0</ele><time>2026-04-18T14:21:25.441Z</time></trkpt><trkpt lat="43.4798094" lon="10.975492"><ele>395.0</ele><time>2026-04-18T14:21:26.435Z</time></trkpt><trkpt lat="43.4798986" lon="10.9755149"><ele>392.0</ele><time>2026-04-18T14:21:27.432Z</time></trkpt><trkpt lat="43.4799885" lon="10.9755684"><ele>389.0</ele><time>2026-04-18T14:21:28.432Z</time></trkpt><trkpt lat="43.480067" lon="10.9756453"><ele>386.0</ele><time>2026-04-18T14:21:29.435Z</time></trkpt><trkpt lat="43.4801431" lon="10.9757235"><ele>383.0</ele><time>2026-04-18T14:21:30.437Z</time></trkpt><trkpt lat="43.4802251" lon="10.9757887"><ele>383.0</ele><time>2026-04-18T14:21:31.432Z</time></trkpt><trkpt lat="43.4803003" lon="10.9758314"><ele>383.0</ele><time>2026-04-18T14:21:32.432Z</time></trkpt><trkpt lat="43.4803755" lon="10.9758637"><ele>383.0</ele><time>2026-04-18T14:21:33.433Z</time></trkpt><trkpt lat="43.4804472" lon="10.9759003"><ele>383.0</ele><time>2026-04-18T14:21:34.434Z</time></trkpt><trkpt lat="43.480517" lon="10.9759678"><ele>383.0</ele><time>2026-04-18T14:21:35.431Z</time></trkpt><trkpt lat="43.4805749" lon="10.9760693"><ele>383.0</ele><time>2026-04-18T14:21:36.434Z</time></trkpt><trkpt lat="43.4806399" lon="10.9761959"><ele>380.79999999999995</ele><time>2026-04-18T14:21:37.433Z</time></trkpt><trkpt lat="43.4807142" lon="10.9762875"><ele>378.6</ele><time>2026-04-18T14:21:38.432Z</time></trkpt><trkpt lat="43.4807891" lon="10.9763788"><ele>376.4</ele><time>2026-04-18T14:21:39.44Z</time></trkpt><trkpt lat="43.4808785" lon="10.9764243"><ele>374.20000000000005</ele><time>2026-04-18T14:21:40.433Z</time></trkpt><trkpt lat="43.4809603" lon="10.9764531"><ele>372.0</ele><time>2026-04-18T14:21:41.43Z</time></trkpt><trkpt lat="43.4810438" lon="10.976454"><ele>372.0</ele><time>2026-04-18T14:21:42.437Z</time></trkpt><trkpt lat="43.4811371" lon="10.9764407"><ele>372.0</ele><time>2026-04-18T14:21:43.436Z</time></trkpt><trkpt lat="43.4812232" lon="10.9764024"><ele>372.0</ele><time>2026-04-18T14:21:44.432Z</time></trkpt><trkpt lat="43.4812977" lon="10.976362"><ele>372.0</ele><time>2026-04-18T14:21:45.434Z</time></trkpt><trkpt lat="43.4813674" lon="10.9763394"><ele>372.0</ele><time>2026-04-18T14:21:46.432Z</time></trkpt><trkpt lat="43.481493" lon="10.9763501"><ele>371.8</ele><time>2026-04-18T14:21:48.436Z</time></trkpt><trkpt lat="43.481552" lon="10.976396"><ele>371.6</ele><time>2026-04-18T14:21:49.43Z</time></trkpt><trkpt lat="43.4815931" lon="10.9764928"><ele>371.40000000000003</ele><time>2026-04-18T14:21:50.439Z</time></trkpt><trkpt lat="43.4816103" lon="10.9766354"><ele>371.20000000000005</ele><time>2026-04-18T14:21:51.43Z</time></trkpt><trkpt lat="43.4816167" lon="10.9767962"><ele>371.0</ele><time>2026-04-18T14:21:52.432Z</time></trkpt><trkpt lat="43.4816111" lon="10.9769577"><ele>371.0</ele><time>2026-04-18T14:21:53.432Z</time></trkpt><trkpt lat="43.4816045" lon="10.9771216"><ele>371.0</ele><time>2026-04-18T14:21:54.436Z</time></trkpt><trkpt lat="43.4815969" lon="10.9772696"><ele>371.0</ele><time>2026-04-18T14:21:55.433Z</time></trkpt><trkpt lat="43.4816079" lon="10.9773942"><ele>371.0</ele><time>2026-04-18T14:21:56.432Z</time></trkpt><trkpt lat="43.481636" lon="10.9775166"><ele>371.0</ele><time>2026-04-18T14:21:57.424Z</time></trkpt><trkpt lat="43.4816896" lon="10.9776288"><ele>371.4</ele><time>2026-04-18T14:21:58.427Z</time></trkpt><trkpt lat="43.4817452" lon="10.9777509"><ele>371.8</ele><time>2026-04-18T14:21:59.426Z</time></trkpt><trkpt lat="43.4817841" lon="10.9778787"><ele>372.2</ele><time>2026-04-18T14:22:00.442Z</time></trkpt><trkpt lat="43.4818015" lon="10.9780201"><ele>372.59999999999997</ele><time>2026-04-18T14:22:01.436Z</time></trkpt><trkpt lat="43.4818081" lon="10.9781885"><ele>373.0</ele><time>2026-04-18T14:22:02.439Z</time></trkpt><trkpt lat="43.4818064" lon="10.9783511"><ele>374.2</ele><time>2026-04-18T14:22:03.439Z</time></trkpt><trkpt lat="43.4818001" lon="10.9785147"><ele>375.4</ele><time>2026-04-18T14:22:04.435Z</time></trkpt><trkpt lat="43.4817784" lon="10.9786642"><ele>376.59999999999997</ele><time>2026-04-18T14:22:05.43Z</time></trkpt><trkpt lat="43.4817423" lon="10.9788004"><ele>377.79999999999995</ele><time>2026-04-18T14:22:06.433Z</time></trkpt><trkpt lat="43.4816925" lon="10.9789299"><ele>379.0</ele><time>2026-04-18T14:22:07.435Z</time></trkpt><trkpt lat="43.4816337" lon="10.9790525"><ele>379.0</ele><time>2026-04-18T14:22:08.434Z</time></trkpt><trkpt lat="43.4815816" lon="10.9791479"><ele>379.0</ele><time>2026-04-18T14:22:09.433Z</time></trkpt><trkpt lat="43.4815391" lon="10.9792348"><ele>379.0</ele><time>2026-04-18T14:22:10.437Z</time></trkpt><trkpt lat="43.4815155" lon="10.9793245"><ele>379.0</ele><time>2026-04-18T14:22:11.433Z</time></trkpt><trkpt lat="43.4815221" lon="10.9794167"><ele>379.0</ele><time>2026-04-18T14:22:12.432Z</time></trkpt><trkpt lat="43.4815564" lon="10.97952"><ele>379.0</ele><time>2026-04-18T14:22:13.428Z</time></trkpt><trkpt lat="43.4816146" lon="10.9796273"><ele>378.75</ele><time>2026-04-18T14:22:14.429Z</time></trkpt><trkpt lat="43.4816872" lon="10.9797406"><ele>378.5</ele><time>2026-04-18T14:22:15.432Z</time></trkpt><trkpt lat="43.4817628" lon="10.9798701"><ele>378.25</ele><time>2026-04-18T14:22:16.442Z</time></trkpt><trkpt lat="43.4818482" lon="10.9800015"><ele>378.0</ele><time>2026-04-18T14:22:17.438Z</time></trkpt><trkpt lat="43.4819294" lon="10.9801257"><ele>377.1666666666667</ele><time>2026-04-18T14:22:18.432Z</time></trkpt><trkpt lat="43.4819932" lon="10.9802154"><ele>376.3333333333333</ele><time>2026-04-18T14:22:19.435Z</time></trkpt><trkpt lat="43.4820426" lon="10.9802885"><ele>375.5</ele><time>2026-04-18T14:22:20.436Z</time></trkpt><trkpt lat="43.4821049" lon="10.9803455"><ele>374.66666666666663</ele><time>2026-04-18T14:22:21.435Z</time></trkpt><trkpt lat="43.4821764" lon="10.9803673"><ele>373.8333333333333</ele><time>2026-04-18T14:22:22.428Z</time></trkpt><trkpt lat="43.4822536" lon="10.9803743"><ele>373.0</ele><time>2026-04-18T14:22:23.436Z</time></trkpt><trkpt lat="43.482343" lon="10.9803802"><ele>375.16666666666663</ele><time>2026-04-18T14:22:24.436Z</time></trkpt><trkpt lat="43.4824077" lon="10.9803934"><ele>377.3333333333333</ele><time>2026-04-18T14:22:25.427Z</time></trkpt><trkpt lat="43.4824675" lon="10.9804236"><ele>379.5</ele><time>2026-04-18T14:22:26.432Z</time></trkpt><trkpt lat="43.48253" lon="10.9804758"><ele>381.66666666666663</ele><time>2026-04-18T14:22:27.429Z</time></trkpt><trkpt lat="43.4825629" lon="10.9805643"><ele>383.8333333333333</ele><time>2026-04-18T14:22:28.434Z</time></trkpt><trkpt lat="43.4825676" lon="10.9806913"><ele>386.0</ele><time>2026-04-18T14:22:29.426Z</time></trkpt><trkpt lat="43.4825537" lon="10.9808278"><ele>383.99999999999994</ele><time>2026-04-18T14:22:30.439Z</time></trkpt><trkpt lat="43.4825643" lon="10.9809238"><ele>382.0</ele><time>2026-04-18T14:22:31.433Z</time></trkpt><trkpt lat="43.4825886" lon="10.9810206"><ele>380.0</ele><time>2026-04-18T14:22:32.434Z</time></trkpt><trkpt lat="43.4826469" lon="10.9810893"><ele>378.0</ele><time>2026-04-18T14:22:33.43Z</time></trkpt><trkpt lat="43.4827199" lon="10.9811206"><ele>376.0</ele><time>2026-04-18T14:22:34.436Z</time></trkpt><trkpt lat="43.4828025" lon="10.9811238"><ele>374.0</ele><time>2026-04-18T14:22:35.424Z</time></trkpt><trkpt lat="43.4828859" lon="10.9811022"><ele>376.6</ele><time>2026-04-18T14:22:36.432Z</time></trkpt><trkpt lat="43.4829554" lon="10.9810721"><ele>379.2</ele><time>2026-04-18T14:22:37.426Z</time></trkpt><trkpt lat="43.4830297" lon="10.9810185"><ele>381.8</ele><time>2026-04-18T14:22:38.434Z</time></trkpt><trkpt lat="43.4831042" lon="10.9809368"><ele>384.40000000000003</ele><time>2026-04-18T14:22:39.435Z</time></trkpt><trkpt lat="43.4831831" lon="10.9808402"><ele>387.0</ele><time>2026-04-18T14:22:40.437Z</time></trkpt><trkpt lat="43.4832668" lon="10.9807232"><ele>388.40000000000003</ele><time>2026-04-18T14:22:41.44Z</time></trkpt><trkpt lat="43.4833638" lon="10.9806195"><ele>389.8</ele><time>2026-04-18T14:22:42.426Z</time></trkpt><trkpt lat="43.4834644" lon="10.9805486"><ele>391.2</ele><time>2026-04-18T14:22:43.425Z</time></trkpt><trkpt lat="43.4835592" lon="10.9805131"><ele>392.6</ele><time>2026-04-18T14:22:44.431Z</time></trkpt><trkpt lat="43.4836509" lon="10.9805429"><ele>394.0</ele><time>2026-04-18T14:22:45.431Z</time></trkpt><trkpt lat="43.4837414" lon="10.9806035"><ele>396.0</ele><time>2026-04-18T14:22:46.43Z</time></trkpt><trkpt lat="43.4838395" lon="10.9806495"><ele>398.0</ele><time>2026-04-18T14:22:47.435Z</time></trkpt><trkpt lat="43.4839277" lon="10.9806702"><ele>400.0</ele><time>2026-04-18T14:22:48.426Z</time></trkpt><trkpt lat="43.4840106" lon="10.9806725"><ele>402.0</ele><time>2026-04-18T14:22:49.427Z</time></trkpt><trkpt lat="43.4840928" lon="10.9806341"><ele>404.0</ele><time>2026-04-18T14:22:50.425Z</time></trkpt><trkpt lat="43.4841904" lon="10.9805855"><ele>403.99999999999994</ele><time>2026-04-18T14:22:51.433Z</time></trkpt><trkpt lat="43.4842908" lon="10.9805318"><ele>404.0</ele><time>2026-04-18T14:22:52.43Z</time></trkpt><trkpt lat="43.4843759" lon="10.9805026"><ele>404.0</ele><time>2026-04-18T14:22:53.427Z</time></trkpt><trkpt lat="43.4844429" lon="10.9805123"><ele>404.0</ele><time>2026-04-18T14:22:54.434Z</time></trkpt><trkpt lat="43.4845127" lon="10.9805468"><ele>403.99999999999994</ele><time>2026-04-18T14:22:55.421Z</time></trkpt><trkpt lat="43.4845624" lon="10.9806349"><ele>404.0</ele><time>2026-04-18T14:22:56.434Z</time></trkpt><trkpt lat="43.4845754" lon="10.9807364"><ele>404.0</ele><time>2026-04-18T14:22:57.432Z</time></trkpt><trkpt lat="43.4845649" lon="10.9808466"><ele>404.0</ele><time>2026-04-18T14:22:58.437Z</time></trkpt><trkpt lat="43.4845341" lon="10.9810003"><ele>404.0</ele><time>2026-04-18T14:22:59.425Z</time></trkpt><trkpt lat="43.4844877" lon="10.9811632"><ele>404.0</ele><time>2026-04-18T14:23:00.433Z</time></trkpt><trkpt lat="43.4844275" lon="10.9813192"><ele>405.0</ele><time>2026-04-18T14:23:01.433Z</time></trkpt><trkpt lat="43.4843831" lon="10.9814536"><ele>406.0</ele><time>2026-04-18T14:23:02.434Z</time></trkpt><trkpt lat="43.4843403" lon="10.9815806"><ele>407.0</ele><time>2026-04-18T14:23:03.431Z</time></trkpt><trkpt lat="43.4842737" lon="10.9816947"><ele>408.0</ele><time>2026-04-18T14:23:04.431Z</time></trkpt><trkpt lat="43.4841909" lon="10.9817801"><ele>409.0</ele><time>2026-04-18T14:23:05.432Z</time></trkpt><trkpt lat="43.4841072" lon="10.9818739"><ele>409.00000000000006</ele><time>2026-04-18T14:23:06.419Z</time></trkpt><trkpt lat="43.4840353" lon="10.9819777"><ele>409.0</ele><time>2026-04-18T14:23:07.428Z</time></trkpt><trkpt lat="43.483979" lon="10.9820735"><ele>409.0</ele><time>2026-04-18T14:23:08.432Z</time></trkpt><trkpt lat="43.4839351" lon="10.982165"><ele>409.0</ele><time>2026-04-18T14:23:09.435Z</time></trkpt><trkpt lat="43.4839038" lon="10.9822737"><ele>409.00000000000006</ele><time>2026-04-18T14:23:10.437Z</time></trkpt><trkpt lat="43.483885" lon="10.9823957"><ele>409.0</ele><time>2026-04-18T14:23:11.446Z</time></trkpt><trkpt lat="43.4838889" lon="10.9825152"><ele>409.0</ele><time>2026-04-18T14:23:12.44Z</time></trkpt><trkpt lat="43.4839108" lon="10.9826307"><ele>409.0</ele><time>2026-04-18T14:23:13.441Z</time></trkpt><trkpt lat="43.4839474" lon="10.9827512"><ele>409.0</ele><time>2026-04-18T14:23:14.433Z</time></trkpt><trkpt lat="43.4839967" lon="10.9828561"><ele>409.0</ele><time>2026-04-18T14:23:15.434Z</time></trkpt><trkpt lat="43.4840635" lon="10.9829483"><ele>409.0</ele><time>2026-04-18T14:23:16.444Z</time></trkpt><trkpt lat="43.4841387" lon="10.9830303"><ele>409.0</ele><time>2026-04-18T14:23:17.443Z</time></trkpt><trkpt lat="43.4842298" lon="10.9831071"><ele>409.0</ele><time>2026-04-18T14:23:18.438Z</time></trkpt><trkpt lat="43.4843294" lon="10.9831871"><ele>409.0</ele><time>2026-04-18T14:23:19.435Z</time></trkpt><trkpt lat="43.4844481" lon="10.9832594"><ele>409.0</ele><time>2026-04-18T14:23:20.44Z</time></trkpt><trkpt lat="43.4845789" lon="10.9833466"><ele>411.75</ele><time>2026-04-18T14:23:21.437Z</time></trkpt><trkpt lat="43.4847131" lon="10.9834379"><ele>414.5</ele><time>2026-04-18T14:23:22.445Z</time></trkpt><trkpt lat="43.484845" lon="10.9835179"><ele>417.25</ele><time>2026-04-18T14:23:23.445Z</time></trkpt><trkpt lat="43.4849726" lon="10.9835967"><ele>420.0</ele><time>2026-04-18T14:23:24.445Z</time></trkpt><trkpt lat="43.4851057" lon="10.9836553"><ele>420.0</ele><time>2026-04-18T14:23:25.439Z</time></trkpt><trkpt lat="43.4852421" lon="10.9836965"><ele>420.0</ele><time>2026-04-18T14:23:26.436Z</time></trkpt><trkpt lat="43.4853884" lon="10.9837439"><ele>420.0</ele><time>2026-04-18T14:23:27.438Z</time></trkpt><trkpt lat="43.4855151" lon="10.9837679"><ele>420.0</ele><time>2026-04-18T14:23:28.432Z</time></trkpt><trkpt lat="43.4856304" lon="10.9838371"><ele>423.5</ele><time>2026-04-18T14:23:29.434Z</time></trkpt><trkpt lat="43.4857509" lon="10.9839094"><ele>427.0</ele><time>2026-04-18T14:23:30.438Z</time></trkpt><trkpt lat="43.4858693" lon="10.9839874"><ele>430.5</ele><time>2026-04-18T14:23:31.429Z</time></trkpt><trkpt lat="43.4859909" lon="10.9841008"><ele>434.0</ele><time>2026-04-18T14:23:32.429Z</time></trkpt><trkpt lat="43.486112" lon="10.9842222"><ele>435.0</ele><time>2026-04-18T14:23:33.434Z</time></trkpt><trkpt lat="43.4862269" lon="10.9843355"><ele>436.0</ele><time>2026-04-18T14:23:34.429Z</time></trkpt><trkpt lat="43.486322" lon="10.9844448"><ele>437.0</ele><time>2026-04-18T14:23:35.436Z</time></trkpt><trkpt lat="43.4864175" lon="10.9845623"><ele>438.0</ele><time>2026-04-18T14:23:36.438Z</time></trkpt><trkpt lat="43.4865058" lon="10.9847209"><ele>440.25</ele><time>2026-04-18T14:23:37.438Z</time></trkpt><trkpt lat="43.4865849" lon="10.9848839"><ele>442.5</ele><time>2026-04-18T14:23:38.434Z</time></trkpt><trkpt lat="43.4866693" lon="10.9850505"><ele>444.75</ele><time>2026-04-18T14:23:39.435Z</time></trkpt><trkpt lat="43.4867331" lon="10.9852071"><ele>447.0</ele><time>2026-04-18T14:23:40.437Z</time></trkpt><trkpt lat="43.486788" lon="10.9853499"><ele>447.25</ele><time>2026-04-18T14:23:41.44Z</time></trkpt><trkpt lat="43.4868689" lon="10.9855007"><ele>447.5</ele><time>2026-04-18T14:23:42.441Z</time></trkpt><trkpt lat="43.4869447" lon="10.9856344"><ele>447.75</ele><time>2026-04-18T14:23:43.447Z</time></trkpt><trkpt lat="43.4870218" lon="10.9857566"><ele>448.0</ele><time>2026-04-18T14:23:44.445Z</time></trkpt><trkpt lat="43.4871145" lon="10.98588"><ele>447.0</ele><time>2026-04-18T14:23:45.446Z</time></trkpt><trkpt lat="43.4872169" lon="10.9860144"><ele>446.0</ele><time>2026-04-18T14:23:46.446Z</time></trkpt><trkpt lat="43.4873163" lon="10.9861567"><ele>445.0</ele><time>2026-04-18T14:23:47.447Z</time></trkpt><trkpt lat="43.4873895" lon="10.9863064"><ele>444.0</ele><time>2026-04-18T14:23:48.438Z</time></trkpt><trkpt lat="43.4874512" lon="10.9864807"><ele>444.0</ele><time>2026-04-18T14:23:49.434Z</time></trkpt><trkpt lat="43.4875091" lon="10.9866617"><ele>444.0</ele><time>2026-04-18T14:23:50.433Z</time></trkpt><trkpt lat="43.4875593" lon="10.9868429"><ele>444.0</ele><time>2026-04-18T14:23:51.443Z</time></trkpt><trkpt lat="43.4876017" lon="10.9870024"><ele>444.0</ele><time>2026-04-18T14:23:52.441Z</time></trkpt><trkpt lat="43.4876435" lon="10.9871311"><ele>442.6</ele><time>2026-04-18T14:23:53.451Z</time></trkpt><trkpt lat="43.4876888" lon="10.9872579"><ele>441.2</ele><time>2026-04-18T14:23:54.442Z</time></trkpt><trkpt lat="43.4877283" lon="10.9873747"><ele>439.80000000000007</ele><time>2026-04-18T14:23:55.448Z</time></trkpt><trkpt lat="43.4877572" lon="10.9874719"><ele>438.40000000000003</ele><time>2026-04-18T14:23:56.444Z</time></trkpt><trkpt lat="43.4877839" lon="10.9875603"><ele>437.0</ele><time>2026-04-18T14:23:57.442Z</time></trkpt><trkpt lat="43.4878393" lon="10.9876988"><ele>436.99999999999994</ele><time>2026-04-18T14:23:59.441Z</time></trkpt><trkpt lat="43.4878916" lon="10.9877765"><ele>437.0</ele><time>2026-04-18T14:24:01.444Z</time></trkpt><trkpt lat="43.4879631" lon="10.9877835"><ele>437.0</ele><time>2026-04-18T14:24:15.433Z</time></trkpt><trkpt lat="43.4880123" lon="10.9876818"><ele>437.0</ele><time>2026-04-18T14:24:17.442Z</time></trkpt><trkpt lat="43.4880242" lon="10.9875691"><ele>436.99999999999994</ele><time>2026-04-18T14:24:18.44Z</time></trkpt><trkpt lat="43.4880383" lon="10.9874439"><ele>437.0</ele><time>2026-04-18T14:24:19.438Z</time></trkpt><trkpt lat="43.488051" lon="10.9873022"><ele>438.5</ele><time>2026-04-18T14:24:20.432Z</time></trkpt><trkpt lat="43.4880522" lon="10.9871404"><ele>440.0</ele><time>2026-04-18T14:24:21.44Z</time></trkpt><trkpt lat="43.4880431" lon="10.9869829"><ele>441.5</ele><time>2026-04-18T14:24:22.447Z</time></trkpt><trkpt lat="43.4880274" lon="10.9868199"><ele>443.0</ele><time>2026-04-18T14:24:23.444Z</time></trkpt><trkpt lat="43.4880096" lon="10.9866409"><ele>443.25</ele><time>2026-04-18T14:24:24.447Z</time></trkpt><trkpt lat="43.4879924" lon="10.9864597"><ele>443.5</ele><time>2026-04-18T14:24:25.444Z</time></trkpt><trkpt lat="43.487973" lon="10.9862651"><ele>443.75</ele><time>2026-04-18T14:24:26.44Z</time></trkpt><trkpt lat="43.4879429" lon="10.9860622"><ele>444.0</ele><time>2026-04-18T14:24:27.439Z</time></trkpt><trkpt lat="43.487885" lon="10.9858542"><ele>445.66666666666663</ele><time>2026-04-18T14:24:28.434Z</time></trkpt><trkpt lat="43.4878025" lon="10.9856363"><ele>447.3333333333333</ele><time>2026-04-18T14:24:29.436Z</time></trkpt><trkpt lat="43.4876948" lon="10.9854141"><ele>449.0</ele><time>2026-04-18T14:24:30.448Z</time></trkpt><trkpt lat="43.4875901" lon="10.9851912"><ele>449.3333333333333</ele><time>2026-04-18T14:24:31.44Z</time></trkpt><trkpt lat="43.4874991" lon="10.9849609"><ele>449.66666666666663</ele><time>2026-04-18T14:24:32.437Z</time></trkpt><trkpt lat="43.4874162" lon="10.9847234"><ele>450.0</ele><time>2026-04-18T14:24:33.44Z</time></trkpt><trkpt lat="43.487317" lon="10.98449"><ele>450.0</ele><time>2026-04-18T14:24:34.441Z</time></trkpt><trkpt lat="43.4872369" lon="10.9842555"><ele>450.0</ele><time>2026-04-18T14:24:35.437Z</time></trkpt><trkpt lat="43.4871618" lon="10.9840482"><ele>450.0</ele><time>2026-04-18T14:24:36.439Z</time></trkpt><trkpt lat="43.4871033" lon="10.9838635"><ele>450.5</ele><time>2026-04-18T14:24:37.437Z</time></trkpt><trkpt lat="43.4870531" lon="10.9836917"><ele>451.0</ele><time>2026-04-18T14:24:38.441Z</time></trkpt><trkpt lat="43.4870161" lon="10.9835186"><ele>451.5</ele><time>2026-04-18T14:24:39.444Z</time></trkpt><trkpt lat="43.4870173" lon="10.9833137"><ele>452.0</ele><time>2026-04-18T14:24:40.439Z</time></trkpt><trkpt lat="43.4870375" lon="10.983086"><ele>454.66666666666663</ele><time>2026-04-18T14:24:41.442Z</time></trkpt><trkpt lat="43.4870493" lon="10.9828387"><ele>457.33333333333337</ele><time>2026-04-18T14:24:42.436Z</time></trkpt><trkpt lat="43.4870444" lon="10.9825846"><ele>460.0</ele><time>2026-04-18T14:24:43.435Z</time></trkpt><trkpt lat="43.4870431" lon="10.9823444"><ele>460.0</ele><time>2026-04-18T14:24:44.435Z</time></trkpt><trkpt lat="43.4870478" lon="10.9821248"><ele>460.0</ele><time>2026-04-18T14:24:45.437Z</time></trkpt><trkpt lat="43.4870389" lon="10.9818849"><ele>460.0</ele><time>2026-04-18T14:24:46.434Z</time></trkpt><trkpt lat="43.487011" lon="10.9816552"><ele>459.0</ele><time>2026-04-18T14:24:47.433Z</time></trkpt><trkpt lat="43.4869576" lon="10.9814087"><ele>458.0</ele><time>2026-04-18T14:24:48.435Z</time></trkpt><trkpt lat="43.4868829" lon="10.9811698"><ele>457.0</ele><time>2026-04-18T14:24:49.439Z</time></trkpt><trkpt lat="43.4868205" lon="10.9809447"><ele>456.0</ele><time>2026-04-18T14:24:50.446Z</time></trkpt><trkpt lat="43.4867671" lon="10.9807374"><ele>455.0</ele><time>2026-04-18T14:24:51.444Z</time></trkpt><trkpt lat="43.4867171" lon="10.9805529"><ele>454.0</ele><time>2026-04-18T14:24:52.444Z</time></trkpt><trkpt lat="43.4866775" lon="10.9803642"><ele>453.0</ele><time>2026-04-18T14:24:53.451Z</time></trkpt><trkpt lat="43.4866569" lon="10.980179"><ele>452.33333333333337</ele><time>2026-04-18T14:24:54.449Z</time></trkpt><trkpt lat="43.4866732" lon="10.9799792"><ele>451.6666666666667</ele><time>2026-04-18T14:24:55.437Z</time></trkpt><trkpt lat="43.4867129" lon="10.9797683"><ele>451.0</ele><time>2026-04-18T14:24:56.439Z</time></trkpt><trkpt lat="43.4867841" lon="10.9795785"><ele>451.0</ele><time>2026-04-18T14:24:57.435Z</time></trkpt><trkpt lat="43.4868713" lon="10.9793915"><ele>451.0</ele><time>2026-04-18T14:24:58.444Z</time></trkpt><trkpt lat="43.4869577" lon="10.9791822"><ele>451.0</ele><time>2026-04-18T14:24:59.447Z</time></trkpt><trkpt lat="43.4870483" lon="10.9789727"><ele>448.0</ele><time>2026-04-18T14:25:00.451Z</time></trkpt><trkpt lat="43.4871213" lon="10.978783"><ele>445.0</ele><time>2026-04-18T14:25:01.452Z</time></trkpt><trkpt lat="43.4871932" lon="10.9785999"><ele>442.0</ele><time>2026-04-18T14:25:02.449Z</time></trkpt><trkpt lat="43.4872455" lon="10.9784103"><ele>442.0</ele><time>2026-04-18T14:25:03.442Z</time></trkpt><trkpt lat="43.487238" lon="10.9782167"><ele>442.0</ele><time>2026-04-18T14:25:04.448Z</time></trkpt><trkpt lat="43.4871858" lon="10.9780163"><ele>442.0</ele><time>2026-04-18T14:25:05.433Z</time></trkpt><trkpt lat="43.4870805" lon="10.9778163"><ele>442.0</ele><time>2026-04-18T14:25:06.449Z</time></trkpt><trkpt lat="43.4869399" lon="10.9776227"><ele>442.0</ele><time>2026-04-18T14:25:07.446Z</time></trkpt><trkpt lat="43.4868169" lon="10.9774073"><ele>442.0</ele><time>2026-04-18T14:25:08.441Z</time></trkpt><trkpt lat="43.48671" lon="10.9772037"><ele>442.33333333333337</ele><time>2026-04-18T14:25:09.444Z</time></trkpt><trkpt lat="43.4866412" lon="10.9769803"><ele>442.66666666666663</ele><time>2026-04-18T14:25:10.432Z</time></trkpt><trkpt lat="43.4865364" lon="10.9768139"><ele>443.0</ele><time>2026-04-18T14:25:11.448Z</time></trkpt><trkpt lat="43.4864592" lon="10.9766258"><ele>445.3333333333333</ele><time>2026-04-18T14:25:12.437Z</time></trkpt><trkpt lat="43.4864055" lon="10.9763813"><ele>447.66666666666663</ele><time>2026-04-18T14:25:13.439Z</time></trkpt><trkpt lat="43.4863397" lon="10.9761555"><ele>450.0</ele><time>2026-04-18T14:25:14.437Z</time></trkpt><trkpt lat="43.4862877" lon="10.975917"><ele>443.66666666666663</ele><time>2026-04-18T14:25:15.434Z</time></trkpt><trkpt lat="43.4862533" lon="10.9756865"><ele>437.3333333333333</ele><time>2026-04-18T14:25:16.443Z</time></trkpt><trkpt lat="43.4862142" lon="10.9754724"><ele>431.0</ele><time>2026-04-18T14:25:17.445Z</time></trkpt><trkpt lat="43.486186" lon="10.9752594"><ele>430.66666666666663</ele><time>2026-04-18T14:25:18.441Z</time></trkpt><trkpt lat="43.4861836" lon="10.9750136"><ele>430.33333333333337</ele><time>2026-04-18T14:25:19.435Z</time></trkpt><trkpt lat="43.4862123" lon="10.9747653"><ele>430.0</ele><time>2026-04-18T14:25:20.439Z</time></trkpt><trkpt lat="43.4862448" lon="10.9745165"><ele>428.33333333333337</ele><time>2026-04-18T14:25:21.443Z</time></trkpt><trkpt lat="43.4862863" lon="10.9742768"><ele>426.66666666666663</ele><time>2026-04-18T14:25:22.443Z</time></trkpt><trkpt lat="43.4863055" lon="10.9740486"><ele>425.0</ele><time>2026-04-18T14:25:23.446Z</time></trkpt><trkpt lat="43.4863427" lon="10.9738267"><ele>425.0</ele><time>2026-04-18T14:25:24.445Z</time></trkpt><trkpt lat="43.4863617" lon="10.9736024"><ele>425.0</ele><time>2026-04-18T14:25:25.444Z</time></trkpt><trkpt lat="43.486366" lon="10.9733896"><ele>425.0</ele><time>2026-04-18T14:25:26.446Z</time></trkpt><trkpt lat="43.486362" lon="10.9731746"><ele>423.3333333333333</ele><time>2026-04-18T14:25:27.435Z</time></trkpt><trkpt lat="43.4863268" lon="10.9729471"><ele>421.66666666666663</ele><time>2026-04-18T14:25:28.446Z</time></trkpt><trkpt lat="43.4862533" lon="10.9727143"><ele>420.0</ele><time>2026-04-18T14:25:29.437Z</time></trkpt><trkpt lat="43.4861606" lon="10.9724812"><ele>417.33333333333337</ele><time>2026-04-18T14:25:30.449Z</time></trkpt><trkpt lat="43.486068" lon="10.972241"><ele>414.6666666666667</ele><time>2026-04-18T14:25:31.442Z</time></trkpt><trkpt lat="43.4859849" lon="10.9719873"><ele>412.0</ele><time>2026-04-18T14:25:32.442Z</time></trkpt><trkpt lat="43.4859009" lon="10.9717356"><ele>414.0</ele><time>2026-04-18T14:25:33.445Z</time></trkpt><trkpt lat="43.4858155" lon="10.9714795"><ele>416.0</ele><time>2026-04-18T14:25:34.444Z</time></trkpt><trkpt lat="43.4857363" lon="10.9712103"><ele>418.0</ele><time>2026-04-18T14:25:35.444Z</time></trkpt><trkpt lat="43.4856552" lon="10.9709531"><ele>420.0</ele><time>2026-04-18T14:25:36.444Z</time></trkpt><trkpt lat="43.4855782" lon="10.9707008"><ele>422.0</ele><time>2026-04-18T14:25:37.444Z</time></trkpt><trkpt lat="43.4855049" lon="10.9704446"><ele>424.0</ele><time>2026-04-18T14:25:38.443Z</time></trkpt><trkpt lat="43.4854335" lon="10.9701847"><ele>422.33333333333337</ele><time>2026-04-18T14:25:39.443Z</time></trkpt><trkpt lat="43.4853573" lon="10.9699297"><ele>420.66666666666663</ele><time>2026-04-18T14:25:40.453Z</time></trkpt><trkpt lat="43.4852831" lon="10.9696549"><ele>419.0</ele><time>2026-04-18T14:25:41.441Z</time></trkpt><trkpt lat="43.4852217" lon="10.9693848"><ele>419.66666666666663</ele><time>2026-04-18T14:25:42.443Z</time></trkpt><trkpt lat="43.4851458" lon="10.9691281"><ele>420.33333333333337</ele><time>2026-04-18T14:25:43.45Z</time></trkpt><trkpt lat="43.485073" lon="10.9688631"><ele>421.0</ele><time>2026-04-18T14:25:44.449Z</time></trkpt><trkpt lat="43.4850102" lon="10.9686179"><ele>421.0</ele><time>2026-04-18T14:25:45.444Z</time></trkpt><trkpt lat="43.4849503" lon="10.9683787"><ele>421.0</ele><time>2026-04-18T14:25:46.444Z</time></trkpt><trkpt lat="43.4848903" lon="10.968145"><ele>421.0</ele><time>2026-04-18T14:25:47.447Z</time></trkpt><trkpt lat="43.4848317" lon="10.9679117"><ele>421.33333333333337</ele><time>2026-04-18T14:25:48.439Z</time></trkpt><trkpt lat="43.4848011" lon="10.967669"><ele>421.66666666666663</ele><time>2026-04-18T14:25:49.438Z</time></trkpt><trkpt lat="43.4848141" lon="10.9674145"><ele>422.0</ele><time>2026-04-18T14:25:50.429Z</time></trkpt><trkpt lat="43.4848547" lon="10.9671663"><ele>422.66666666666663</ele><time>2026-04-18T14:25:51.439Z</time></trkpt><trkpt lat="43.4849002" lon="10.9669204"><ele>423.33333333333337</ele><time>2026-04-18T14:25:52.438Z</time></trkpt><trkpt lat="43.4849448" lon="10.9666746"><ele>424.0</ele><time>2026-04-18T14:25:53.441Z</time></trkpt><trkpt lat="43.4849781" lon="10.9664467"><ele>425.0</ele><time>2026-04-18T14:25:54.441Z</time></trkpt><trkpt lat="43.4850163" lon="10.9662274"><ele>426.0</ele><time>2026-04-18T14:25:55.437Z</time></trkpt><trkpt lat="43.4850412" lon="10.9660305"><ele>427.0</ele><time>2026-04-18T14:25:56.428Z</time></trkpt><trkpt lat="43.48504" lon="10.9658288"><ele>429.0</ele><time>2026-04-18T14:25:57.428Z</time></trkpt><trkpt lat="43.4850082" lon="10.9656063"><ele>431.0</ele><time>2026-04-18T14:25:58.438Z</time></trkpt><trkpt lat="43.4849315" lon="10.9654043"><ele>433.0</ele><time>2026-04-18T14:25:59.437Z</time></trkpt><trkpt lat="43.4848088" lon="10.9652139"><ele>434.33333333333337</ele><time>2026-04-18T14:26:00.439Z</time></trkpt><trkpt lat="43.4847065" lon="10.9650179"><ele>435.66666666666663</ele><time>2026-04-18T14:26:01.437Z</time></trkpt><trkpt lat="43.4846066" lon="10.9648271"><ele>437.0</ele><time>2026-04-18T14:26:02.439Z</time></trkpt><trkpt lat="43.4845139" lon="10.9646423"><ele>437.0</ele><time>2026-04-18T14:26:03.436Z</time></trkpt><trkpt lat="43.4844244" lon="10.9644488"><ele>437.0</ele><time>2026-04-18T14:26:04.437Z</time></trkpt><trkpt lat="43.4843336" lon="10.9642508"><ele>437.0</ele><time>2026-04-18T14:26:05.442Z</time></trkpt><trkpt lat="43.4842397" lon="10.9640564"><ele>438.66666666666663</ele><time>2026-04-18T14:26:06.442Z</time></trkpt><trkpt lat="43.4841404" lon="10.9638744"><ele>440.33333333333337</ele><time>2026-04-18T14:26:07.442Z</time></trkpt><trkpt lat="43.4840518" lon="10.9636952"><ele>442.0</ele><time>2026-04-18T14:26:08.449Z</time></trkpt><trkpt lat="43.4839637" lon="10.963531"><ele>442.0</ele><time>2026-04-18T14:26:09.449Z</time></trkpt><trkpt lat="43.483881" lon="10.9633701"><ele>442.0</ele><time>2026-04-18T14:26:10.45Z</time></trkpt><trkpt lat="43.4837826" lon="10.9632001"><ele>442.0</ele><time>2026-04-18T14:26:11.453Z</time></trkpt><trkpt lat="43.483684" lon="10.9630475"><ele>442.0</ele><time>2026-04-18T14:26:12.446Z</time></trkpt><trkpt lat="43.4835659" lon="10.9629149"><ele>443.0</ele><time>2026-04-18T14:26:13.448Z</time></trkpt><trkpt lat="43.4834494" lon="10.9627738"><ele>444.0</ele><time>2026-04-18T14:26:14.449Z</time></trkpt><trkpt lat="43.4833215" lon="10.9626246"><ele>445.0</ele><time>2026-04-18T14:26:15.449Z</time></trkpt><trkpt lat="43.4832029" lon="10.9624721"><ele>447.0</ele><time>2026-04-18T14:26:16.448Z</time></trkpt><trkpt lat="43.4830873" lon="10.9623245"><ele>449.0</ele><time>2026-04-18T14:26:17.457Z</time></trkpt><trkpt lat="43.4829698" lon="10.9621812"><ele>451.0</ele><time>2026-04-18T14:26:18.457Z</time></trkpt><trkpt lat="43.4828438" lon="10.9620367"><ele>452.33333333333337</ele><time>2026-04-18T14:26:19.456Z</time></trkpt><trkpt lat="43.4827221" lon="10.9618969"><ele>453.66666666666663</ele><time>2026-04-18T14:26:20.456Z</time></trkpt><trkpt lat="43.4826064" lon="10.9617651"><ele>455.0</ele><time>2026-04-18T14:26:21.454Z</time></trkpt><trkpt lat="43.4824925" lon="10.9616269"><ele>455.66666666666663</ele><time>2026-04-18T14:26:22.452Z</time></trkpt><trkpt lat="43.482389" lon="10.961476"><ele>456.33333333333337</ele><time>2026-04-18T14:26:23.457Z</time></trkpt><trkpt lat="43.4822629" lon="10.9613392"><ele>457.0</ele><time>2026-04-18T14:26:24.458Z</time></trkpt><trkpt lat="43.4821436" lon="10.9612102"><ele>456.5</ele><time>2026-04-18T14:26:25.454Z</time></trkpt><trkpt lat="43.4820337" lon="10.9610979"><ele>456.0</ele><time>2026-04-18T14:26:26.458Z</time></trkpt><trkpt lat="43.4819341" lon="10.9609841"><ele>455.5</ele><time>2026-04-18T14:26:27.45Z</time></trkpt><trkpt lat="43.4818274" lon="10.960871"><ele>455.0</ele><time>2026-04-18T14:26:28.449Z</time></trkpt><trkpt lat="43.4817162" lon="10.9607493"><ele>455.0</ele><time>2026-04-18T14:26:29.449Z</time></trkpt><trkpt lat="43.4816058" lon="10.9606212"><ele>455.0</ele><time>2026-04-18T14:26:30.457Z</time></trkpt><trkpt lat="43.4815061" lon="10.9604635"><ele>455.0</ele><time>2026-04-18T14:26:31.445Z</time></trkpt><trkpt lat="43.4814254" lon="10.9602939"><ele>455.0</ele><time>2026-04-18T14:26:32.442Z</time></trkpt><trkpt lat="43.4813605" lon="10.9601087"><ele>454.66666666666663</ele><time>2026-04-18T14:26:33.444Z</time></trkpt><trkpt lat="43.4812943" lon="10.9599061"><ele>454.33333333333337</ele><time>2026-04-18T14:26:34.45Z</time></trkpt><trkpt lat="43.4812382" lon="10.9596568"><ele>454.0</ele><time>2026-04-18T14:26:35.447Z</time></trkpt><trkpt lat="43.4811748" lon="10.9594026"><ele>453.6666666666667</ele><time>2026-04-18T14:26:36.447Z</time></trkpt><trkpt lat="43.4811029" lon="10.9591471"><ele>453.33333333333337</ele><time>2026-04-18T14:26:37.451Z</time></trkpt><trkpt lat="43.4810369" lon="10.9588584"><ele>453.0</ele><time>2026-04-18T14:26:38.445Z</time></trkpt><trkpt lat="43.4809762" lon="10.9585305"><ele>452.5</ele><time>2026-04-18T14:26:39.442Z</time></trkpt><trkpt lat="43.4809309" lon="10.958207"><ele>452.0</ele><time>2026-04-18T14:26:40.44Z</time></trkpt><trkpt lat="43.4808978" lon="10.957881"><ele>452.0</ele><time>2026-04-18T14:26:41.446Z</time></trkpt><trkpt lat="43.4808537" lon="10.9575651"><ele>452.0</ele><time>2026-04-18T14:26:42.442Z</time></trkpt><trkpt lat="43.4808072" lon="10.9572879"><ele>452.0</ele><time>2026-04-18T14:26:43.442Z</time></trkpt><trkpt lat="43.4807659" lon="10.9570205"><ele>453.0</ele><time>2026-04-18T14:26:44.445Z</time></trkpt><trkpt lat="43.4807203" lon="10.9567782"><ele>454.0</ele><time>2026-04-18T14:26:45.451Z</time></trkpt><trkpt lat="43.4806876" lon="10.9565376"><ele>455.0</ele><time>2026-04-18T14:26:46.449Z</time></trkpt><trkpt lat="43.4806662" lon="10.9563078"><ele>457.0</ele><time>2026-04-18T14:26:47.451Z</time></trkpt><trkpt lat="43.4806505" lon="10.9560695"><ele>459.0</ele><time>2026-04-18T14:26:48.447Z</time></trkpt><trkpt lat="43.480646" lon="10.9558297"><ele>461.0</ele><time>2026-04-18T14:26:49.451Z</time></trkpt><trkpt lat="43.4806531" lon="10.9555838"><ele>461.66666666666663</ele><time>2026-04-18T14:26:50.451Z</time></trkpt><trkpt lat="43.4806678" lon="10.9553439"><ele>462.33333333333337</ele><time>2026-04-18T14:26:51.453Z</time></trkpt><trkpt lat="43.4806725" lon="10.9551036"><ele>463.0</ele><time>2026-04-18T14:26:52.451Z</time></trkpt><trkpt lat="43.4806832" lon="10.9548998"><ele>464.25</ele><time>2026-04-18T14:26:53.45Z</time></trkpt><trkpt lat="43.4806911" lon="10.9547083"><ele>465.5</ele><time>2026-04-18T14:26:54.454Z</time></trkpt><trkpt lat="43.4806956" lon="10.9545327"><ele>466.75</ele><time>2026-04-18T14:26:55.451Z</time></trkpt><trkpt lat="43.4807017" lon="10.9543693"><ele>468.0</ele><time>2026-04-18T14:26:56.451Z</time></trkpt><trkpt lat="43.4807153" lon="10.9542187"><ele>468.25</ele><time>2026-04-18T14:26:57.455Z</time></trkpt><trkpt lat="43.4807362" lon="10.9540643"><ele>468.5</ele><time>2026-04-18T14:26:58.452Z</time></trkpt><trkpt lat="43.4807665" lon="10.9538989"><ele>468.75</ele><time>2026-04-18T14:26:59.451Z</time></trkpt><trkpt lat="43.4808002" lon="10.9537488"><ele>469.0</ele><time>2026-04-18T14:27:00.454Z</time></trkpt><trkpt lat="43.4808516" lon="10.9536231"><ele>469.0</ele><time>2026-04-18T14:27:01.44Z</time></trkpt><trkpt lat="43.480943" lon="10.9535009"><ele>469.0</ele><time>2026-04-18T14:27:02.452Z</time></trkpt><trkpt lat="43.4810648" lon="10.953407"><ele>469.0</ele><time>2026-04-18T14:27:03.443Z</time></trkpt><trkpt lat="43.4812028" lon="10.9532984"><ele>469.0</ele><time>2026-04-18T14:27:04.43Z</time></trkpt><trkpt lat="43.481333" lon="10.9531703"><ele>469.0</ele><time>2026-04-18T14:27:05.435Z</time></trkpt><trkpt lat="43.4814558" lon="10.9530226"><ele>469.0</ele><time>2026-04-18T14:27:06.44Z</time></trkpt><trkpt lat="43.4815693" lon="10.9528831"><ele>469.0</ele><time>2026-04-18T14:27:07.438Z</time></trkpt><trkpt lat="43.4816494" lon="10.9527344"><ele>469.0</ele><time>2026-04-18T14:27:08.435Z</time></trkpt><trkpt lat="43.4817312" lon="10.9526414"><ele>469.0</ele><time>2026-04-18T14:27:09.432Z</time></trkpt><trkpt lat="43.4818267" lon="10.9525968"><ele>469.0</ele><time>2026-04-18T14:27:10.425Z</time></trkpt><trkpt lat="43.4819577" lon="10.9526109"><ele>469.0</ele><time>2026-04-18T14:27:11.428Z</time></trkpt><trkpt lat="43.4820868" lon="10.9526835"><ele>469.0</ele><time>2026-04-18T14:27:12.427Z</time></trkpt><trkpt lat="43.4822036" lon="10.952788"><ele>470.0</ele><time>2026-04-18T14:27:13.434Z</time></trkpt><trkpt lat="43.4823189" lon="10.9528752"><ele>471.0</ele><time>2026-04-18T14:27:14.432Z</time></trkpt><trkpt lat="43.48246" lon="10.9529381"><ele>472.0</ele><time>2026-04-18T14:27:15.428Z</time></trkpt><trkpt lat="43.4826229" lon="10.9529678"><ele>473.0</ele><time>2026-04-18T14:27:16.425Z</time></trkpt><trkpt lat="43.4827986" lon="10.9529249"><ele>470.66666666666663</ele><time>2026-04-18T14:27:17.431Z</time></trkpt><trkpt lat="43.4829991" lon="10.9528935"><ele>468.33333333333337</ele><time>2026-04-18T14:27:18.425Z</time></trkpt><trkpt lat="43.483197" lon="10.95288"><ele>466.0</ele><time>2026-04-18T14:27:19.431Z</time></trkpt><trkpt lat="43.4833805" lon="10.952892"><ele>466.0</ele><time>2026-04-18T14:27:20.437Z</time></trkpt><trkpt lat="43.4835483" lon="10.9528918"><ele>466.0</ele><time>2026-04-18T14:27:21.431Z</time></trkpt><trkpt lat="43.4837199" lon="10.9528732"><ele>466.0</ele><time>2026-04-18T14:27:22.439Z</time></trkpt><trkpt lat="43.4838778" lon="10.9528462"><ele>466.5</ele><time>2026-04-18T14:27:23.438Z</time></trkpt><trkpt lat="43.4840271" lon="10.9528232"><ele>467.0</ele><time>2026-04-18T14:27:24.433Z</time></trkpt><trkpt lat="43.4841542" lon="10.9527788"><ele>467.5</ele><time>2026-04-18T14:27:25.431Z</time></trkpt><trkpt lat="43.4842826" lon="10.9527275"><ele>468.0</ele><time>2026-04-18T14:27:26.43Z</time></trkpt><trkpt lat="43.4844086" lon="10.9526406"><ele>466.66666666666663</ele><time>2026-04-18T14:27:27.438Z</time></trkpt><trkpt lat="43.4844971" lon="10.9525243"><ele>465.3333333333333</ele><time>2026-04-18T14:27:28.431Z</time></trkpt><trkpt lat="43.4846" lon="10.9523191"><ele>464.0</ele><time>2026-04-18T14:27:29.437Z</time></trkpt><trkpt lat="43.4846883" lon="10.9520961"><ele>463.25</ele><time>2026-04-18T14:27:30.443Z</time></trkpt><trkpt lat="43.484769" lon="10.9519032"><ele>462.5</ele><time>2026-04-18T14:27:31.437Z</time></trkpt><trkpt lat="43.4848495" lon="10.9517359"><ele>461.75</ele><time>2026-04-18T14:27:32.439Z</time></trkpt><trkpt lat="43.4849004" lon="10.9515713"><ele>461.0</ele><time>2026-04-18T14:27:33.435Z</time></trkpt><trkpt lat="43.4849104" lon="10.9513615"><ele>461.0</ele><time>2026-04-18T14:27:34.43Z</time></trkpt><trkpt lat="43.4848898" lon="10.9511629"><ele>461.0</ele><time>2026-04-18T14:27:35.432Z</time></trkpt><trkpt lat="43.4848419" lon="10.950957"><ele>461.0</ele><time>2026-04-18T14:27:36.436Z</time></trkpt><trkpt lat="43.4848226" lon="10.9507888"><ele>461.0</ele><time>2026-04-18T14:27:37.434Z</time></trkpt><trkpt lat="43.4848251" lon="10.950663"><ele>461.0</ele><time>2026-04-18T14:27:38.435Z</time></trkpt><trkpt lat="43.4848674" lon="10.9505528"><ele>461.0</ele><time>2026-04-18T14:27:39.432Z</time></trkpt><trkpt lat="43.4849502" lon="10.9504527"><ele>461.0</ele><time>2026-04-18T14:27:40.437Z</time></trkpt><trkpt lat="43.4850456" lon="10.9503745"><ele>461.0</ele><time>2026-04-18T14:27:41.436Z</time></trkpt><trkpt lat="43.485143" lon="10.9503135"><ele>461.0</ele><time>2026-04-18T14:27:42.437Z</time></trkpt><trkpt lat="43.4852543" lon="10.950256"><ele>461.0</ele><time>2026-04-18T14:27:43.435Z</time></trkpt><trkpt lat="43.4853495" lon="10.9501573"><ele>461.0</ele><time>2026-04-18T14:27:44.446Z</time></trkpt><trkpt lat="43.4854144" lon="10.9500125"><ele>461.0</ele><time>2026-04-18T14:27:45.435Z</time></trkpt><trkpt lat="43.4854528" lon="10.9498386"><ele>461.0</ele><time>2026-04-18T14:27:46.437Z</time></trkpt><trkpt lat="43.4854561" lon="10.949621"><ele>456.0</ele><time>2026-04-18T14:27:47.439Z</time></trkpt><trkpt lat="43.4853927" lon="10.9493278"><ele>451.0</ele><time>2026-04-18T14:27:48.433Z</time></trkpt><trkpt lat="43.4853525" lon="10.9490575"><ele>446.0</ele><time>2026-04-18T14:27:49.431Z</time></trkpt><trkpt lat="43.4853365" lon="10.9488196"><ele>445.3333333333333</ele><time>2026-04-18T14:27:50.427Z</time></trkpt><trkpt lat="43.4853575" lon="10.9485734"><ele>444.66666666666663</ele><time>2026-04-18T14:27:51.427Z</time></trkpt><trkpt lat="43.485394" lon="10.9483366"><ele>444.0</ele><time>2026-04-18T14:27:52.427Z</time></trkpt><trkpt lat="43.4854364" lon="10.9480807"><ele>444.0</ele><time>2026-04-18T14:27:53.425Z</time></trkpt><trkpt lat="43.4854975" lon="10.9477985"><ele>444.0</ele><time>2026-04-18T14:27:54.421Z</time></trkpt><trkpt lat="43.485591" lon="10.9474792"><ele>444.0</ele><time>2026-04-18T14:27:55.425Z</time></trkpt><trkpt lat="43.4856822" lon="10.9471435"><ele>444.0</ele><time>2026-04-18T14:27:56.43Z</time></trkpt><trkpt lat="43.4857556" lon="10.946831"><ele>443.66666666666663</ele><time>2026-04-18T14:27:57.42Z</time></trkpt><trkpt lat="43.4858172" lon="10.9465673"><ele>443.3333333333333</ele><time>2026-04-18T14:27:58.433Z</time></trkpt><trkpt lat="43.4858779" lon="10.9463774"><ele>443.0</ele><time>2026-04-18T14:27:59.432Z</time></trkpt><trkpt lat="43.48596" lon="10.9461703"><ele>443.0</ele><time>2026-04-18T14:28:00.432Z</time></trkpt><trkpt lat="43.4860641" lon="10.9459507"><ele>443.0</ele><time>2026-04-18T14:28:01.433Z</time></trkpt><trkpt lat="43.4861853" lon="10.9457466"><ele>443.0</ele><time>2026-04-18T14:28:02.445Z</time></trkpt><trkpt lat="43.4863076" lon="10.945539"><ele>443.0</ele><time>2026-04-18T14:28:03.438Z</time></trkpt><trkpt lat="43.4864408" lon="10.9453414"><ele>443.0</ele><time>2026-04-18T14:28:04.429Z</time></trkpt><trkpt lat="43.4865717" lon="10.9451311"><ele>443.0</ele><time>2026-04-18T14:28:05.44Z</time></trkpt><trkpt lat="43.4866864" lon="10.9448917"><ele>443.0</ele><time>2026-04-18T14:28:06.439Z</time></trkpt><trkpt lat="43.4867798" lon="10.9446263"><ele>443.0</ele><time>2026-04-18T14:28:07.435Z</time></trkpt><trkpt lat="43.4868478" lon="10.9443675"><ele>443.0</ele><time>2026-04-18T14:28:08.438Z</time></trkpt><trkpt lat="43.486905" lon="10.9441423"><ele>443.0</ele><time>2026-04-18T14:28:09.436Z</time></trkpt><trkpt lat="43.4869574" lon="10.9439294"><ele>443.0</ele><time>2026-04-18T14:28:10.439Z</time></trkpt><trkpt lat="43.4870117" lon="10.9437405"><ele>443.0</ele><time>2026-04-18T14:28:11.434Z</time></trkpt><trkpt lat="43.4870771" lon="10.9435861"><ele>443.0</ele><time>2026-04-18T14:28:12.439Z</time></trkpt><trkpt lat="43.4871721" lon="10.943411"><ele>448.3333333333333</ele><time>2026-04-18T14:28:13.431Z</time></trkpt><trkpt lat="43.4872968" lon="10.9432336"><ele>453.66666666666663</ele><time>2026-04-18T14:28:14.44Z</time></trkpt><trkpt lat="43.4874" lon="10.9430755"><ele>459.0</ele><time>2026-04-18T14:28:15.435Z</time></trkpt><trkpt lat="43.4875219" lon="10.9429276"><ele>459.0</ele><time>2026-04-18T14:28:16.429Z</time></trkpt><trkpt lat="43.487645" lon="10.9427632"><ele>459.0</ele><time>2026-04-18T14:28:17.431Z</time></trkpt><trkpt lat="43.4877662" lon="10.9426061"><ele>459.0</ele><time>2026-04-18T14:28:18.43Z</time></trkpt><trkpt lat="43.4878968" lon="10.9424522"><ele>459.66666666666663</ele><time>2026-04-18T14:28:19.434Z</time></trkpt><trkpt lat="43.4879925" lon="10.9422392"><ele>460.3333333333333</ele><time>2026-04-18T14:28:20.429Z</time></trkpt><trkpt lat="43.4880636" lon="10.9419941"><ele>461.0</ele><time>2026-04-18T14:28:21.428Z</time></trkpt><trkpt lat="43.4881172" lon="10.9417359"><ele>459.3333333333333</ele><time>2026-04-18T14:28:22.432Z</time></trkpt><trkpt lat="43.4881472" lon="10.9414905"><ele>457.66666666666663</ele><time>2026-04-18T14:28:23.426Z</time></trkpt><trkpt lat="43.4881685" lon="10.941249"><ele>456.0</ele><time>2026-04-18T14:28:24.424Z</time></trkpt><trkpt lat="43.4882073" lon="10.9410919"><ele>456.0</ele><time>2026-04-18T14:28:25.424Z</time></trkpt><trkpt lat="43.4882869" lon="10.9409475"><ele>456.0</ele><time>2026-04-18T14:28:26.418Z</time></trkpt><trkpt lat="43.4883888" lon="10.940837"><ele>456.0</ele><time>2026-04-18T14:28:27.434Z</time></trkpt><trkpt lat="43.4885206" lon="10.9407396"><ele>456.0</ele><time>2026-04-18T14:28:28.43Z</time></trkpt><trkpt lat="43.4886715" lon="10.9406581"><ele>454.0</ele><time>2026-04-18T14:28:29.427Z</time></trkpt><trkpt lat="43.488833" lon="10.9405981"><ele>452.0</ele><time>2026-04-18T14:28:30.447Z</time></trkpt><trkpt lat="43.488983" lon="10.9405328"><ele>450.0</ele><time>2026-04-18T14:28:31.438Z</time></trkpt><trkpt lat="43.4891171" lon="10.9404693"><ele>450.0</ele><time>2026-04-18T14:28:32.433Z</time></trkpt><trkpt lat="43.4892367" lon="10.9403663"><ele>450.0</ele><time>2026-04-18T14:28:33.431Z</time></trkpt><trkpt lat="43.4893391" lon="10.9402209"><ele>450.0</ele><time>2026-04-18T14:28:34.439Z</time></trkpt><trkpt lat="43.4894064" lon="10.9400151"><ele>451.66666666666663</ele><time>2026-04-18T14:28:35.442Z</time></trkpt><trkpt lat="43.4894386" lon="10.9397664"><ele>453.3333333333333</ele><time>2026-04-18T14:28:36.434Z</time></trkpt><trkpt lat="43.489453" lon="10.9395021"><ele>455.0</ele><time>2026-04-18T14:28:37.432Z</time></trkpt><trkpt lat="43.4894756" lon="10.9392263"><ele>454.3333333333333</ele><time>2026-04-18T14:28:38.44Z</time></trkpt><trkpt lat="43.4895033" lon="10.9389594"><ele>453.66666666666663</ele><time>2026-04-18T14:28:39.434Z</time></trkpt><trkpt lat="43.4895242" lon="10.9386883"><ele>453.0</ele><time>2026-04-18T14:28:40.435Z</time></trkpt><trkpt lat="43.4895587" lon="10.9384199"><ele>451.66666666666663</ele><time>2026-04-18T14:28:41.436Z</time></trkpt><trkpt lat="43.4895875" lon="10.9381642"><ele>450.3333333333333</ele><time>2026-04-18T14:28:42.438Z</time></trkpt><trkpt lat="43.4896207" lon="10.9379225"><ele>449.0</ele><time>2026-04-18T14:28:43.439Z</time></trkpt><trkpt lat="43.4896467" lon="10.9376825"><ele>449.0</ele><time>2026-04-18T14:28:44.437Z</time></trkpt><trkpt lat="43.4896737" lon="10.9374314"><ele>449.0</ele><time>2026-04-18T14:28:45.442Z</time></trkpt><trkpt lat="43.4897034" lon="10.9371899"><ele>449.0</ele><time>2026-04-18T14:28:46.446Z</time></trkpt><trkpt lat="43.4897308" lon="10.9369302"><ele>449.3333333333333</ele><time>2026-04-18T14:28:47.446Z</time></trkpt><trkpt lat="43.4897523" lon="10.9366758"><ele>449.66666666666663</ele><time>2026-04-18T14:28:48.445Z</time></trkpt><trkpt lat="43.4897765" lon="10.9364152"><ele>450.0</ele><time>2026-04-18T14:28:49.451Z</time></trkpt><trkpt lat="43.4898046" lon="10.9361701"><ele>450.0</ele><time>2026-04-18T14:28:50.446Z</time></trkpt><trkpt lat="43.4898281" lon="10.9359297"><ele>450.0</ele><time>2026-04-18T14:28:51.451Z</time></trkpt><trkpt lat="43.4898534" lon="10.9356875"><ele>450.0</ele><time>2026-04-18T14:28:52.45Z</time></trkpt><trkpt lat="43.4898756" lon="10.9354732"><ele>451.33333333333337</ele><time>2026-04-18T14:28:53.455Z</time></trkpt><trkpt lat="43.4899065" lon="10.9352388"><ele>452.6666666666667</ele><time>2026-04-18T14:28:54.453Z</time></trkpt><trkpt lat="43.4899276" lon="10.9350161"><ele>454.0</ele><time>2026-04-18T14:28:55.452Z</time></trkpt><trkpt lat="43.489955" lon="10.9347807"><ele>455.33333333333337</ele><time>2026-04-18T14:28:56.452Z</time></trkpt><trkpt lat="43.4899844" lon="10.9345391"><ele>456.66666666666663</ele><time>2026-04-18T14:28:57.455Z</time></trkpt><trkpt lat="43.4899944" lon="10.9342923"><ele>458.0</ele><time>2026-04-18T14:28:58.453Z</time></trkpt><trkpt lat="43.4900183" lon="10.9340701"><ele>458.0</ele><time>2026-04-18T14:28:59.451Z</time></trkpt><trkpt lat="43.4900351" lon="10.9339071"><ele>458.0</ele><time>2026-04-18T14:29:00.446Z</time></trkpt><trkpt lat="43.490054" lon="10.9337377"><ele>458.0</ele><time>2026-04-18T14:29:01.445Z</time></trkpt><trkpt lat="43.4900634" lon="10.9335819"><ele>458.0</ele><time>2026-04-18T14:29:02.448Z</time></trkpt><trkpt lat="43.49008" lon="10.9334418"><ele>457.8333333333333</ele><time>2026-04-18T14:29:03.449Z</time></trkpt><trkpt lat="43.4900913" lon="10.9333157"><ele>457.66666666666663</ele><time>2026-04-18T14:29:04.451Z</time></trkpt><trkpt lat="43.4901023" lon="10.9331978"><ele>457.5</ele><time>2026-04-18T14:29:05.449Z</time></trkpt><trkpt lat="43.4901145" lon="10.9330883"><ele>457.33333333333337</ele><time>2026-04-18T14:29:06.447Z</time></trkpt><trkpt lat="43.4901202" lon="10.9329975"><ele>457.1666666666667</ele><time>2026-04-18T14:29:07.45Z</time></trkpt><trkpt lat="43.4901234" lon="10.9328316"><ele>457.0</ele><time>2026-04-18T14:29:09.448Z</time></trkpt><trkpt lat="43.490124" lon="10.9327036"><ele>457.00000000000006</ele><time>2026-04-18T14:29:11.441Z</time></trkpt><trkpt lat="43.4901165" lon="10.9326029"><ele>457.0</ele><time>2026-04-18T14:29:14.451Z</time></trkpt><trkpt lat="43.4901024" lon="10.9324685"><ele>457.0</ele><time>2026-04-18T14:34:58.443Z</time></trkpt><trkpt lat="43.4901017" lon="10.932378"><ele>457.0</ele><time>2026-04-18T14:34:59.44Z</time></trkpt><trkpt lat="43.4901048" lon="10.9322491"><ele>457.00000000000006</ele><time>2026-04-18T14:35:00.442Z</time></trkpt><trkpt lat="43.490105" lon="10.9321027"><ele>457.0</ele><time>2026-04-18T14:35:01.425Z</time></trkpt><trkpt lat="43.4901039" lon="10.9319394"><ele>457.25</ele><time>2026-04-18T14:35:02.44Z</time></trkpt><trkpt lat="43.4901056" lon="10.9317707"><ele>457.5</ele><time>2026-04-18T14:35:03.441Z</time></trkpt><trkpt lat="43.4901021" lon="10.9316056"><ele>457.75</ele><time>2026-04-18T14:35:04.436Z</time></trkpt><trkpt lat="43.4901038" lon="10.9314309"><ele>458.0</ele><time>2026-04-18T14:35:05.438Z</time></trkpt><trkpt lat="43.4901049" lon="10.9312604"><ele>458.75</ele><time>2026-04-18T14:35:06.435Z</time></trkpt><trkpt lat="43.4901197" lon="10.9310806"><ele>459.5</ele><time>2026-04-18T14:35:07.43Z</time></trkpt><trkpt lat="43.4901412" lon="10.9309146"><ele>460.25</ele><time>2026-04-18T14:35:08.425Z</time></trkpt><trkpt lat="43.4901804" lon="10.9307408"><ele>461.0</ele><time>2026-04-18T14:35:09.424Z</time></trkpt><trkpt lat="43.4902351" lon="10.9305786"><ele>461.25</ele><time>2026-04-18T14:35:10.426Z</time></trkpt><trkpt lat="43.4902913" lon="10.9304346"><ele>461.5</ele><time>2026-04-18T14:35:11.432Z</time></trkpt><trkpt lat="43.4903549" lon="10.93029"><ele>461.75</ele><time>2026-04-18T14:35:12.431Z</time></trkpt><trkpt lat="43.4904246" lon="10.9301384"><ele>462.0</ele><time>2026-04-18T14:35:13.432Z</time></trkpt><trkpt lat="43.4904918" lon="10.9299727"><ele>468.0</ele><time>2026-04-18T14:35:14.433Z</time></trkpt><trkpt lat="43.4905567" lon="10.929773"><ele>474.0</ele><time>2026-04-18T14:35:15.438Z</time></trkpt><trkpt lat="43.4906353" lon="10.9295863"><ele>480.0</ele><time>2026-04-18T14:35:16.433Z</time></trkpt><trkpt lat="43.4907432" lon="10.9293963"><ele>478.33333333333337</ele><time>2026-04-18T14:35:17.439Z</time></trkpt><trkpt lat="43.4908468" lon="10.9291992"><ele>476.6666666666667</ele><time>2026-04-18T14:35:18.434Z</time></trkpt><trkpt lat="43.4909207" lon="10.9290046"><ele>475.0</ele><time>2026-04-18T14:35:19.432Z</time></trkpt><trkpt lat="43.4909859" lon="10.9288356"><ele>475.0</ele><time>2026-04-18T14:35:20.429Z</time></trkpt><trkpt lat="43.4910545" lon="10.9287135"><ele>475.0</ele><time>2026-04-18T14:35:21.435Z</time></trkpt><trkpt lat="43.4911406" lon="10.9285798"><ele>475.0</ele><time>2026-04-18T14:35:22.432Z</time></trkpt><trkpt lat="43.4912585" lon="10.9285119"><ele>475.0</ele><time>2026-04-18T14:35:23.431Z</time></trkpt><trkpt lat="43.4913709" lon="10.9284862"><ele>477.75</ele><time>2026-04-18T14:35:24.429Z</time></trkpt><trkpt lat="43.4915016" lon="10.9285503"><ele>480.5</ele><time>2026-04-18T14:35:25.424Z</time></trkpt><trkpt lat="43.4916296" lon="10.9286166"><ele>483.25</ele><time>2026-04-18T14:35:26.431Z</time></trkpt><trkpt lat="43.4917594" lon="10.9287217"><ele>486.0</ele><time>2026-04-18T14:35:27.428Z</time></trkpt><trkpt lat="43.4918902" lon="10.928814"><ele>486.0</ele><time>2026-04-18T14:35:28.441Z</time></trkpt><trkpt lat="43.4920189" lon="10.9288759"><ele>486.0</ele><time>2026-04-18T14:35:29.446Z</time></trkpt><trkpt lat="43.4921621" lon="10.928866"><ele>486.0</ele><time>2026-04-18T14:35:30.448Z</time></trkpt><trkpt lat="43.4922995" lon="10.9288272"><ele>486.0</ele><time>2026-04-18T14:35:31.432Z</time></trkpt><trkpt lat="43.4924247" lon="10.9287628"><ele>485.75</ele><time>2026-04-18T14:35:32.432Z</time></trkpt><trkpt lat="43.4925273" lon="10.9286594"><ele>485.5</ele><time>2026-04-18T14:35:33.431Z</time></trkpt><trkpt lat="43.4926274" lon="10.928522"><ele>485.25</ele><time>2026-04-18T14:35:34.43Z</time></trkpt><trkpt lat="43.4927253" lon="10.9283815"><ele>485.0</ele><time>2026-04-18T14:35:35.435Z</time></trkpt><trkpt lat="43.4928226" lon="10.9282472"><ele>485.0</ele><time>2026-04-18T14:35:36.44Z</time></trkpt><trkpt lat="43.4929225" lon="10.9280984"><ele>485.0</ele><time>2026-04-18T14:35:37.433Z</time></trkpt><trkpt lat="43.4930196" lon="10.9279206"><ele>485.0</ele><time>2026-04-18T14:35:38.437Z</time></trkpt><trkpt lat="43.4931133" lon="10.9277639"><ele>487.25</ele><time>2026-04-18T14:35:39.439Z</time></trkpt><trkpt lat="43.4932103" lon="10.927635"><ele>489.5</ele><time>2026-04-18T14:35:40.44Z</time></trkpt><trkpt lat="43.4932914" lon="10.9275032"><ele>491.75</ele><time>2026-04-18T14:35:41.44Z</time></trkpt><trkpt lat="43.4933836" lon="10.9273254"><ele>494.0</ele><time>2026-04-18T14:35:42.439Z</time></trkpt><trkpt lat="43.4934781" lon="10.9271959"><ele>493.25</ele><time>2026-04-18T14:35:43.436Z</time></trkpt><trkpt lat="43.4935774" lon="10.9270692"><ele>492.5</ele><time>2026-04-18T14:35:44.441Z</time></trkpt><trkpt lat="43.4936871" lon="10.926946"><ele>491.75</ele><time>2026-04-18T14:35:45.439Z</time></trkpt><trkpt lat="43.4937821" lon="10.9268485"><ele>491.0</ele><time>2026-04-18T14:35:46.44Z</time></trkpt><trkpt lat="43.4938776" lon="10.926747"><ele>492.75</ele><time>2026-04-18T14:35:47.449Z</time></trkpt><trkpt lat="43.4939616" lon="10.9266555"><ele>494.5</ele><time>2026-04-18T14:35:48.444Z</time></trkpt><trkpt lat="43.4940824" lon="10.926605"><ele>496.25</ele><time>2026-04-18T14:35:49.436Z</time></trkpt><trkpt lat="43.494213" lon="10.9265223"><ele>498.0</ele><time>2026-04-18T14:35:50.443Z</time></trkpt><trkpt lat="43.4943367" lon="10.9264172"><ele>498.0</ele><time>2026-04-18T14:35:51.445Z</time></trkpt><trkpt lat="43.4944619" lon="10.9263133"><ele>498.0</ele><time>2026-04-18T14:35:52.443Z</time></trkpt><trkpt lat="43.4946045" lon="10.926204"><ele>498.0</ele><time>2026-04-18T14:35:53.441Z</time></trkpt><trkpt lat="43.4947299" lon="10.9261379"><ele>498.0</ele><time>2026-04-18T14:35:54.428Z</time></trkpt><trkpt lat="43.4948501" lon="10.92607"><ele>497.59999999999997</ele><time>2026-04-18T14:35:55.43Z</time></trkpt><trkpt lat="43.4949552" lon="10.9260193"><ele>497.19999999999993</ele><time>2026-04-18T14:35:56.438Z</time></trkpt><trkpt lat="43.4950572" lon="10.9260357"><ele>496.8</ele><time>2026-04-18T14:35:57.441Z</time></trkpt><trkpt lat="43.4951412" lon="10.9260751"><ele>496.4</ele><time>2026-04-18T14:35:58.433Z</time></trkpt><trkpt lat="43.4952092" lon="10.9261143"><ele>496.0</ele><time>2026-04-18T14:35:59.435Z</time></trkpt><trkpt lat="43.495274" lon="10.926175"><ele>496.0</ele><time>2026-04-18T14:36:01.429Z</time></trkpt></trkseg></trk></gpx>